<?xml version="1.0" encoding="UTF-8" standalone="no" ?>
<gpx xmlns="http://www.topografix.com/GPX/1/1" xmlns:xsi="http://www.w3.org/2001/XMLSchema-instance" xsi:schemaLocation="http://www.topografix.com/GPX/1/1 http://www.topografix.com/GPX/1/1/gpx.xsd" version="1.1" creator="VisuGPX - https://www.visugpx.com">
  <metadata>
    <name>Sommet de Vaumuze</name>
  </metadata>
  <trk>
    <name><![CDATA[Sommet de Vaumuze_1]]></name>
    <trkseg>
      <trkpt lat="44.13103" lon="6.11771">
        <ele>737</ele>
        <time>2022-03-03T08:29:19.000Z</time>
      </trkpt>
      <trkpt lat="44.13103" lon="6.11771">
        <ele>737</ele>
        <time>2022-03-03T08:29:20.000Z</time>
      </trkpt>
      <trkpt lat="44.13103" lon="6.11771">
        <ele>737</ele>
        <time>2022-03-03T08:29:21.000Z</time>
      </trkpt>
      <trkpt lat="44.13103" lon="6.11771">
        <ele>737</ele>
        <time>2022-03-03T08:29:22.000Z</time>
      </trkpt>
      <trkpt lat="44.13103" lon="6.11771">
        <ele>737</ele>
        <time>2022-03-03T08:29:23.000Z</time>
      </trkpt>
      <trkpt lat="44.13103" lon="6.11771">
        <ele>737</ele>
        <time>2022-03-03T08:29:24.000Z</time>
      </trkpt>
      <trkpt lat="44.13103" lon="6.11771">
        <ele>737</ele>
        <time>2022-03-03T08:29:25.000Z</time>
      </trkpt>
      <trkpt lat="44.13103" lon="6.11771">
        <ele>737</ele>
        <time>2022-03-03T08:29:26.000Z</time>
      </trkpt>
      <trkpt lat="44.13103" lon="6.11772">
        <ele>737</ele>
        <time>2022-03-03T08:29:27.000Z</time>
      </trkpt>
      <trkpt lat="44.13103" lon="6.11772">
        <ele>737</ele>
        <time>2022-03-03T08:29:28.000Z</time>
      </trkpt>
      <trkpt lat="44.13103" lon="6.11772">
        <ele>737</ele>
        <time>2022-03-03T08:29:29.000Z</time>
      </trkpt>
      <trkpt lat="44.13103" lon="6.11772">
        <ele>737</ele>
        <time>2022-03-03T08:29:30.000Z</time>
      </trkpt>
      <trkpt lat="44.13104" lon="6.11772">
        <ele>736</ele>
        <time>2022-03-03T08:29:31.000Z</time>
      </trkpt>
      <trkpt lat="44.13104" lon="6.11772">
        <ele>736</ele>
        <time>2022-03-03T08:29:32.000Z</time>
      </trkpt>
      <trkpt lat="44.13105" lon="6.11772">
        <ele>736</ele>
        <time>2022-03-03T08:29:33.000Z</time>
      </trkpt>
      <trkpt lat="44.13105" lon="6.11772">
        <ele>736</ele>
        <time>2022-03-03T08:29:34.000Z</time>
      </trkpt>
      <trkpt lat="44.13105" lon="6.11773">
        <ele>736</ele>
        <time>2022-03-03T08:29:35.000Z</time>
      </trkpt>
      <trkpt lat="44.13105" lon="6.11773">
        <ele>736</ele>
        <time>2022-03-03T08:29:36.000Z</time>
      </trkpt>
      <trkpt lat="44.13105" lon="6.11772">
        <ele>736</ele>
        <time>2022-03-03T08:29:37.000Z</time>
      </trkpt>
      <trkpt lat="44.13106" lon="6.11772">
        <ele>736</ele>
        <time>2022-03-03T08:29:38.000Z</time>
      </trkpt>
      <trkpt lat="44.13106" lon="6.11772">
        <ele>736</ele>
        <time>2022-03-03T08:29:39.000Z</time>
      </trkpt>
      <trkpt lat="44.13106" lon="6.11772">
        <ele>736</ele>
        <time>2022-03-03T08:29:40.000Z</time>
      </trkpt>
      <trkpt lat="44.13106" lon="6.11772">
        <ele>736</ele>
        <time>2022-03-03T08:29:41.000Z</time>
      </trkpt>
      <trkpt lat="44.13106" lon="6.11772">
        <ele>736</ele>
        <time>2022-03-03T08:29:42.000Z</time>
      </trkpt>
      <trkpt lat="44.13106" lon="6.11772">
        <ele>736</ele>
        <time>2022-03-03T08:29:43.000Z</time>
      </trkpt>
      <trkpt lat="44.13106" lon="6.11772">
        <ele>736</ele>
        <time>2022-03-03T08:29:44.000Z</time>
      </trkpt>
      <trkpt lat="44.13106" lon="6.11772">
        <ele>736</ele>
        <time>2022-03-03T08:29:45.000Z</time>
      </trkpt>
      <trkpt lat="44.13106" lon="6.11772">
        <ele>736</ele>
        <time>2022-03-03T08:29:46.000Z</time>
      </trkpt>
      <trkpt lat="44.13106" lon="6.11772">
        <ele>737</ele>
        <time>2022-03-03T08:29:47.000Z</time>
      </trkpt>
      <trkpt lat="44.13106" lon="6.11772">
        <ele>737</ele>
        <time>2022-03-03T08:29:48.000Z</time>
      </trkpt>
      <trkpt lat="44.13106" lon="6.11772">
        <ele>737</ele>
        <time>2022-03-03T08:29:49.000Z</time>
      </trkpt>
      <trkpt lat="44.13106" lon="6.11772">
        <ele>737</ele>
        <time>2022-03-03T08:29:50.000Z</time>
      </trkpt>
      <trkpt lat="44.13106" lon="6.11772">
        <ele>737</ele>
        <time>2022-03-03T08:29:51.000Z</time>
      </trkpt>
      <trkpt lat="44.13106" lon="6.11772">
        <ele>737</ele>
        <time>2022-03-03T08:29:52.000Z</time>
      </trkpt>
      <trkpt lat="44.13106" lon="6.11772">
        <ele>737</ele>
        <time>2022-03-03T08:29:53.000Z</time>
      </trkpt>
      <trkpt lat="44.13106" lon="6.11771">
        <ele>737</ele>
        <time>2022-03-03T08:29:54.000Z</time>
      </trkpt>
      <trkpt lat="44.13107" lon="6.11771">
        <ele>737</ele>
        <time>2022-03-03T08:29:55.000Z</time>
      </trkpt>
      <trkpt lat="44.13107" lon="6.11771">
        <ele>737</ele>
        <time>2022-03-03T08:29:56.000Z</time>
      </trkpt>
      <trkpt lat="44.13107" lon="6.11771">
        <ele>737</ele>
        <time>2022-03-03T08:29:57.000Z</time>
      </trkpt>
      <trkpt lat="44.13107" lon="6.11771">
        <ele>737</ele>
        <time>2022-03-03T08:29:58.000Z</time>
      </trkpt>
      <trkpt lat="44.13107" lon="6.11771">
        <ele>738</ele>
        <time>2022-03-03T08:29:59.000Z</time>
      </trkpt>
      <trkpt lat="44.13107" lon="6.11772">
        <ele>738</ele>
        <time>2022-03-03T08:30:00.000Z</time>
      </trkpt>
      <trkpt lat="44.13107" lon="6.11772">
        <ele>738</ele>
        <time>2022-03-03T08:30:01.000Z</time>
      </trkpt>
      <trkpt lat="44.13107" lon="6.11772">
        <ele>738</ele>
        <time>2022-03-03T08:30:02.000Z</time>
      </trkpt>
      <trkpt lat="44.13107" lon="6.11772">
        <ele>738</ele>
        <time>2022-03-03T08:30:03.000Z</time>
      </trkpt>
      <trkpt lat="44.13107" lon="6.11772">
        <ele>738</ele>
        <time>2022-03-03T08:30:04.000Z</time>
      </trkpt>
      <trkpt lat="44.13107" lon="6.11772">
        <ele>738</ele>
        <time>2022-03-03T08:30:05.000Z</time>
      </trkpt>
      <trkpt lat="44.13106" lon="6.11772">
        <ele>738</ele>
        <time>2022-03-03T08:30:06.000Z</time>
      </trkpt>
      <trkpt lat="44.13105" lon="6.11772">
        <ele>738</ele>
        <time>2022-03-03T08:30:07.000Z</time>
      </trkpt>
      <trkpt lat="44.13105" lon="6.11772">
        <ele>739</ele>
        <time>2022-03-03T08:30:08.000Z</time>
      </trkpt>
      <trkpt lat="44.13104" lon="6.11772">
        <ele>739</ele>
        <time>2022-03-03T08:30:09.000Z</time>
      </trkpt>
      <trkpt lat="44.13103" lon="6.11771">
        <ele>739</ele>
        <time>2022-03-03T08:30:10.000Z</time>
      </trkpt>
      <trkpt lat="44.13103" lon="6.11772">
        <ele>739</ele>
        <time>2022-03-03T08:30:11.000Z</time>
      </trkpt>
      <trkpt lat="44.13103" lon="6.11772">
        <ele>739</ele>
        <time>2022-03-03T08:30:12.000Z</time>
      </trkpt>
      <trkpt lat="44.13102" lon="6.11772">
        <ele>739</ele>
        <time>2022-03-03T08:30:13.000Z</time>
      </trkpt>
      <trkpt lat="44.13102" lon="6.11772">
        <ele>739</ele>
        <time>2022-03-03T08:30:14.000Z</time>
      </trkpt>
      <trkpt lat="44.13102" lon="6.11771">
        <ele>739</ele>
        <time>2022-03-03T08:30:15.000Z</time>
      </trkpt>
      <trkpt lat="44.13102" lon="6.11771">
        <ele>739</ele>
        <time>2022-03-03T08:30:16.000Z</time>
      </trkpt>
      <trkpt lat="44.13102" lon="6.11771">
        <ele>739</ele>
        <time>2022-03-03T08:30:17.000Z</time>
      </trkpt>
      <trkpt lat="44.13102" lon="6.11771">
        <ele>739</ele>
        <time>2022-03-03T08:30:18.000Z</time>
      </trkpt>
      <trkpt lat="44.13102" lon="6.11771">
        <ele>739</ele>
        <time>2022-03-03T08:30:19.000Z</time>
      </trkpt>
      <trkpt lat="44.13103" lon="6.11772">
        <ele>739</ele>
        <time>2022-03-03T08:30:20.000Z</time>
      </trkpt>
      <trkpt lat="44.13103" lon="6.11772">
        <ele>739</ele>
        <time>2022-03-03T08:30:21.000Z</time>
      </trkpt>
      <trkpt lat="44.13103" lon="6.11772">
        <ele>739</ele>
        <time>2022-03-03T08:30:22.000Z</time>
      </trkpt>
      <trkpt lat="44.13104" lon="6.11772">
        <ele>739</ele>
        <time>2022-03-03T08:30:23.000Z</time>
      </trkpt>
      <trkpt lat="44.13104" lon="6.11772">
        <ele>738</ele>
        <time>2022-03-03T08:30:24.000Z</time>
      </trkpt>
      <trkpt lat="44.13104" lon="6.11772">
        <ele>738</ele>
        <time>2022-03-03T08:30:25.000Z</time>
      </trkpt>
      <trkpt lat="44.13104" lon="6.11772">
        <ele>738</ele>
        <time>2022-03-03T08:30:26.000Z</time>
      </trkpt>
      <trkpt lat="44.13104" lon="6.11772">
        <ele>738</ele>
        <time>2022-03-03T08:30:27.000Z</time>
      </trkpt>
      <trkpt lat="44.13104" lon="6.11772">
        <ele>738</ele>
        <time>2022-03-03T08:30:28.000Z</time>
      </trkpt>
      <trkpt lat="44.13104" lon="6.11772">
        <ele>738</ele>
        <time>2022-03-03T08:30:29.000Z</time>
      </trkpt>
      <trkpt lat="44.13104" lon="6.11772">
        <ele>738</ele>
        <time>2022-03-03T08:30:30.000Z</time>
      </trkpt>
      <trkpt lat="44.13104" lon="6.11772">
        <ele>738</ele>
        <time>2022-03-03T08:30:31.000Z</time>
      </trkpt>
      <trkpt lat="44.13104" lon="6.11772">
        <ele>738</ele>
        <time>2022-03-03T08:30:32.000Z</time>
      </trkpt>
      <trkpt lat="44.13104" lon="6.11772">
        <ele>738</ele>
        <time>2022-03-03T08:30:33.000Z</time>
      </trkpt>
      <trkpt lat="44.13103" lon="6.11772">
        <ele>738</ele>
        <time>2022-03-03T08:30:34.000Z</time>
      </trkpt>
      <trkpt lat="44.13103" lon="6.11772">
        <ele>738</ele>
        <time>2022-03-03T08:30:35.000Z</time>
      </trkpt>
      <trkpt lat="44.13103" lon="6.11772">
        <ele>738</ele>
        <time>2022-03-03T08:30:36.000Z</time>
      </trkpt>
      <trkpt lat="44.13103" lon="6.11771">
        <ele>738</ele>
        <time>2022-03-03T08:30:37.000Z</time>
      </trkpt>
      <trkpt lat="44.13103" lon="6.11771">
        <ele>738</ele>
        <time>2022-03-03T08:30:38.000Z</time>
      </trkpt>
      <trkpt lat="44.13103" lon="6.11771">
        <ele>738</ele>
        <time>2022-03-03T08:30:39.000Z</time>
      </trkpt>
      <trkpt lat="44.13103" lon="6.11771">
        <ele>738</ele>
        <time>2022-03-03T08:30:40.000Z</time>
      </trkpt>
      <trkpt lat="44.13103" lon="6.11771">
        <ele>738</ele>
        <time>2022-03-03T08:30:41.000Z</time>
      </trkpt>
      <trkpt lat="44.13103" lon="6.11771">
        <ele>738</ele>
        <time>2022-03-03T08:30:42.000Z</time>
      </trkpt>
      <trkpt lat="44.13103" lon="6.11771">
        <ele>738</ele>
        <time>2022-03-03T08:30:43.000Z</time>
      </trkpt>
      <trkpt lat="44.13103" lon="6.11771">
        <ele>738</ele>
        <time>2022-03-03T08:30:44.000Z</time>
      </trkpt>
      <trkpt lat="44.13103" lon="6.11771">
        <ele>738</ele>
        <time>2022-03-03T08:30:45.000Z</time>
      </trkpt>
      <trkpt lat="44.13103" lon="6.11771">
        <ele>738</ele>
        <time>2022-03-03T08:30:46.000Z</time>
      </trkpt>
      <trkpt lat="44.13103" lon="6.11771">
        <ele>738</ele>
        <time>2022-03-03T08:30:47.000Z</time>
      </trkpt>
      <trkpt lat="44.13103" lon="6.11771">
        <ele>738</ele>
        <time>2022-03-03T08:30:48.000Z</time>
      </trkpt>
      <trkpt lat="44.13103" lon="6.11771">
        <ele>738</ele>
        <time>2022-03-03T08:30:49.000Z</time>
      </trkpt>
      <trkpt lat="44.13103" lon="6.11771">
        <ele>738</ele>
        <time>2022-03-03T08:30:50.000Z</time>
      </trkpt>
      <trkpt lat="44.13103" lon="6.11771">
        <ele>738</ele>
        <time>2022-03-03T08:30:51.000Z</time>
      </trkpt>
      <trkpt lat="44.13103" lon="6.11771">
        <ele>738</ele>
        <time>2022-03-03T08:30:52.000Z</time>
      </trkpt>
      <trkpt lat="44.13103" lon="6.11771">
        <ele>738</ele>
        <time>2022-03-03T08:30:53.000Z</time>
      </trkpt>
      <trkpt lat="44.13103" lon="6.11771">
        <ele>738</ele>
        <time>2022-03-03T08:30:54.000Z</time>
      </trkpt>
      <trkpt lat="44.13103" lon="6.11771">
        <ele>738</ele>
        <time>2022-03-03T08:30:55.000Z</time>
      </trkpt>
      <trkpt lat="44.13103" lon="6.11771">
        <ele>738</ele>
        <time>2022-03-03T08:30:56.000Z</time>
      </trkpt>
      <trkpt lat="44.13103" lon="6.11771">
        <ele>738</ele>
        <time>2022-03-03T08:30:57.000Z</time>
      </trkpt>
      <trkpt lat="44.13102" lon="6.11771">
        <ele>738</ele>
        <time>2022-03-03T08:30:58.000Z</time>
      </trkpt>
      <trkpt lat="44.13102" lon="6.11771">
        <ele>738</ele>
        <time>2022-03-03T08:30:59.000Z</time>
      </trkpt>
      <trkpt lat="44.13102" lon="6.11771">
        <ele>738</ele>
        <time>2022-03-03T08:31:00.000Z</time>
      </trkpt>
      <trkpt lat="44.13102" lon="6.11771">
        <ele>737</ele>
        <time>2022-03-03T08:31:01.000Z</time>
      </trkpt>
      <trkpt lat="44.13102" lon="6.11771">
        <ele>737</ele>
        <time>2022-03-03T08:31:02.000Z</time>
      </trkpt>
      <trkpt lat="44.13102" lon="6.11771">
        <ele>737</ele>
        <time>2022-03-03T08:31:03.000Z</time>
      </trkpt>
      <trkpt lat="44.13102" lon="6.11771">
        <ele>737</ele>
        <time>2022-03-03T08:31:04.000Z</time>
      </trkpt>
      <trkpt lat="44.13102" lon="6.11771">
        <ele>737</ele>
        <time>2022-03-03T08:31:05.000Z</time>
      </trkpt>
      <trkpt lat="44.13102" lon="6.11771">
        <ele>737</ele>
        <time>2022-03-03T08:31:06.000Z</time>
      </trkpt>
      <trkpt lat="44.13102" lon="6.11771">
        <ele>737</ele>
        <time>2022-03-03T08:31:07.000Z</time>
      </trkpt>
      <trkpt lat="44.13102" lon="6.11771">
        <ele>737</ele>
        <time>2022-03-03T08:31:08.000Z</time>
      </trkpt>
      <trkpt lat="44.13102" lon="6.11771">
        <ele>737</ele>
        <time>2022-03-03T08:31:09.000Z</time>
      </trkpt>
      <trkpt lat="44.13102" lon="6.11771">
        <ele>737</ele>
        <time>2022-03-03T08:31:10.000Z</time>
      </trkpt>
      <trkpt lat="44.13101" lon="6.11771">
        <ele>737</ele>
        <time>2022-03-03T08:31:11.000Z</time>
      </trkpt>
      <trkpt lat="44.13101" lon="6.11771">
        <ele>737</ele>
        <time>2022-03-03T08:31:12.000Z</time>
      </trkpt>
      <trkpt lat="44.13101" lon="6.11771">
        <ele>737</ele>
        <time>2022-03-03T08:31:13.000Z</time>
      </trkpt>
      <trkpt lat="44.13101" lon="6.11771">
        <ele>737</ele>
        <time>2022-03-03T08:31:14.000Z</time>
      </trkpt>
      <trkpt lat="44.13101" lon="6.11771">
        <ele>737</ele>
        <time>2022-03-03T08:31:15.000Z</time>
      </trkpt>
      <trkpt lat="44.13101" lon="6.11771">
        <ele>737</ele>
        <time>2022-03-03T08:31:16.000Z</time>
      </trkpt>
      <trkpt lat="44.13101" lon="6.11771">
        <ele>737</ele>
        <time>2022-03-03T08:31:17.000Z</time>
      </trkpt>
      <trkpt lat="44.13101" lon="6.11771">
        <ele>737</ele>
        <time>2022-03-03T08:31:18.000Z</time>
      </trkpt>
      <trkpt lat="44.13101" lon="6.11771">
        <ele>737</ele>
        <time>2022-03-03T08:31:19.000Z</time>
      </trkpt>
      <trkpt lat="44.13101" lon="6.11771">
        <ele>737</ele>
        <time>2022-03-03T08:31:20.000Z</time>
      </trkpt>
      <trkpt lat="44.13101" lon="6.11771">
        <ele>737</ele>
        <time>2022-03-03T08:31:21.000Z</time>
      </trkpt>
      <trkpt lat="44.13101" lon="6.11771">
        <ele>737</ele>
        <time>2022-03-03T08:31:22.000Z</time>
      </trkpt>
      <trkpt lat="44.13101" lon="6.1177">
        <ele>737</ele>
        <time>2022-03-03T08:31:23.000Z</time>
      </trkpt>
      <trkpt lat="44.13101" lon="6.1177">
        <ele>737</ele>
        <time>2022-03-03T08:31:24.000Z</time>
      </trkpt>
      <trkpt lat="44.13101" lon="6.1177">
        <ele>737</ele>
        <time>2022-03-03T08:31:25.000Z</time>
      </trkpt>
      <trkpt lat="44.13101" lon="6.1177">
        <ele>737</ele>
        <time>2022-03-03T08:31:26.000Z</time>
      </trkpt>
      <trkpt lat="44.13101" lon="6.1177">
        <ele>737</ele>
        <time>2022-03-03T08:31:27.000Z</time>
      </trkpt>
      <trkpt lat="44.13101" lon="6.1177">
        <ele>737</ele>
        <time>2022-03-03T08:31:28.000Z</time>
      </trkpt>
      <trkpt lat="44.13101" lon="6.1177">
        <ele>737</ele>
        <time>2022-03-03T08:31:29.000Z</time>
      </trkpt>
      <trkpt lat="44.13101" lon="6.1177">
        <ele>737</ele>
        <time>2022-03-03T08:31:30.000Z</time>
      </trkpt>
      <trkpt lat="44.13101" lon="6.1177">
        <ele>737</ele>
        <time>2022-03-03T08:31:31.000Z</time>
      </trkpt>
      <trkpt lat="44.13101" lon="6.1177">
        <ele>737</ele>
        <time>2022-03-03T08:31:32.000Z</time>
      </trkpt>
      <trkpt lat="44.13101" lon="6.1177">
        <ele>737</ele>
        <time>2022-03-03T08:31:33.000Z</time>
      </trkpt>
      <trkpt lat="44.13101" lon="6.1177">
        <ele>736</ele>
        <time>2022-03-03T08:31:34.000Z</time>
      </trkpt>
      <trkpt lat="44.13102" lon="6.1177">
        <ele>736</ele>
        <time>2022-03-03T08:31:35.000Z</time>
      </trkpt>
      <trkpt lat="44.13102" lon="6.1177">
        <ele>736</ele>
        <time>2022-03-03T08:31:36.000Z</time>
      </trkpt>
      <trkpt lat="44.13102" lon="6.11769">
        <ele>736</ele>
        <time>2022-03-03T08:31:37.000Z</time>
      </trkpt>
      <trkpt lat="44.13102" lon="6.11769">
        <ele>736</ele>
        <time>2022-03-03T08:31:38.000Z</time>
      </trkpt>
      <trkpt lat="44.13102" lon="6.11769">
        <ele>736</ele>
        <time>2022-03-03T08:31:39.000Z</time>
      </trkpt>
      <trkpt lat="44.13102" lon="6.11769">
        <ele>736</ele>
        <time>2022-03-03T08:31:40.000Z</time>
      </trkpt>
      <trkpt lat="44.13102" lon="6.11769">
        <ele>736</ele>
        <time>2022-03-03T08:31:41.000Z</time>
      </trkpt>
      <trkpt lat="44.13102" lon="6.11769">
        <ele>736</ele>
        <time>2022-03-03T08:31:42.000Z</time>
      </trkpt>
      <trkpt lat="44.13102" lon="6.11769">
        <ele>736</ele>
        <time>2022-03-03T08:31:43.000Z</time>
      </trkpt>
      <trkpt lat="44.13102" lon="6.11769">
        <ele>736</ele>
        <time>2022-03-03T08:31:44.000Z</time>
      </trkpt>
      <trkpt lat="44.13102" lon="6.11769">
        <ele>736</ele>
        <time>2022-03-03T08:31:45.000Z</time>
      </trkpt>
      <trkpt lat="44.13102" lon="6.11769">
        <ele>736</ele>
        <time>2022-03-03T08:31:46.000Z</time>
      </trkpt>
      <trkpt lat="44.13102" lon="6.11769">
        <ele>736</ele>
        <time>2022-03-03T08:31:47.000Z</time>
      </trkpt>
      <trkpt lat="44.13102" lon="6.11769">
        <ele>736</ele>
        <time>2022-03-03T08:31:48.000Z</time>
      </trkpt>
      <trkpt lat="44.13102" lon="6.11769">
        <ele>736</ele>
        <time>2022-03-03T08:31:49.000Z</time>
      </trkpt>
      <trkpt lat="44.13102" lon="6.11769">
        <ele>736</ele>
        <time>2022-03-03T08:31:50.000Z</time>
      </trkpt>
      <trkpt lat="44.13102" lon="6.11769">
        <ele>736</ele>
        <time>2022-03-03T08:31:51.000Z</time>
      </trkpt>
      <trkpt lat="44.13102" lon="6.11769">
        <ele>736</ele>
        <time>2022-03-03T08:31:52.000Z</time>
      </trkpt>
      <trkpt lat="44.13102" lon="6.11769">
        <ele>736</ele>
        <time>2022-03-03T08:31:53.000Z</time>
      </trkpt>
      <trkpt lat="44.13102" lon="6.11769">
        <ele>736</ele>
        <time>2022-03-03T08:31:54.000Z</time>
      </trkpt>
      <trkpt lat="44.13102" lon="6.11769">
        <ele>736</ele>
        <time>2022-03-03T08:31:55.000Z</time>
      </trkpt>
      <trkpt lat="44.13102" lon="6.11769">
        <ele>736</ele>
        <time>2022-03-03T08:31:56.000Z</time>
      </trkpt>
      <trkpt lat="44.13102" lon="6.11769">
        <ele>736</ele>
        <time>2022-03-03T08:31:57.000Z</time>
      </trkpt>
      <trkpt lat="44.13102" lon="6.11769">
        <ele>736</ele>
        <time>2022-03-03T08:31:58.000Z</time>
      </trkpt>
      <trkpt lat="44.13102" lon="6.11769">
        <ele>736</ele>
        <time>2022-03-03T08:31:59.000Z</time>
      </trkpt>
      <trkpt lat="44.13102" lon="6.11768">
        <ele>736</ele>
        <time>2022-03-03T08:32:00.000Z</time>
      </trkpt>
      <trkpt lat="44.13102" lon="6.11768">
        <ele>736</ele>
        <time>2022-03-03T08:32:01.000Z</time>
      </trkpt>
      <trkpt lat="44.13102" lon="6.11768">
        <ele>736</ele>
        <time>2022-03-03T08:32:02.000Z</time>
      </trkpt>
      <trkpt lat="44.13102" lon="6.11768">
        <ele>736</ele>
        <time>2022-03-03T08:32:03.000Z</time>
      </trkpt>
      <trkpt lat="44.13102" lon="6.11768">
        <ele>736</ele>
        <time>2022-03-03T08:32:04.000Z</time>
      </trkpt>
      <trkpt lat="44.13102" lon="6.11768">
        <ele>736</ele>
        <time>2022-03-03T08:32:05.000Z</time>
      </trkpt>
      <trkpt lat="44.13102" lon="6.11768">
        <ele>736</ele>
        <time>2022-03-03T08:32:06.000Z</time>
      </trkpt>
      <trkpt lat="44.13102" lon="6.11768">
        <ele>736</ele>
        <time>2022-03-03T08:32:07.000Z</time>
      </trkpt>
      <trkpt lat="44.13102" lon="6.11768">
        <ele>736</ele>
        <time>2022-03-03T08:32:08.000Z</time>
      </trkpt>
      <trkpt lat="44.13102" lon="6.11768">
        <ele>736</ele>
        <time>2022-03-03T08:32:09.000Z</time>
      </trkpt>
      <trkpt lat="44.13102" lon="6.11768">
        <ele>736</ele>
        <time>2022-03-03T08:32:10.000Z</time>
      </trkpt>
      <trkpt lat="44.13102" lon="6.11767">
        <ele>736</ele>
        <time>2022-03-03T08:32:11.000Z</time>
      </trkpt>
      <trkpt lat="44.13102" lon="6.11767">
        <ele>736</ele>
        <time>2022-03-03T08:32:12.000Z</time>
      </trkpt>
      <trkpt lat="44.13102" lon="6.11767">
        <ele>736</ele>
        <time>2022-03-03T08:32:13.000Z</time>
      </trkpt>
      <trkpt lat="44.13103" lon="6.11767">
        <ele>736</ele>
        <time>2022-03-03T08:32:14.000Z</time>
      </trkpt>
      <trkpt lat="44.13103" lon="6.11767">
        <ele>736</ele>
        <time>2022-03-03T08:32:15.000Z</time>
      </trkpt>
      <trkpt lat="44.13103" lon="6.11767">
        <ele>736</ele>
        <time>2022-03-03T08:32:16.000Z</time>
      </trkpt>
      <trkpt lat="44.13103" lon="6.11767">
        <ele>736</ele>
        <time>2022-03-03T08:32:17.000Z</time>
      </trkpt>
      <trkpt lat="44.13103" lon="6.11767">
        <ele>736</ele>
        <time>2022-03-03T08:32:18.000Z</time>
      </trkpt>
      <trkpt lat="44.13103" lon="6.11767">
        <ele>737</ele>
        <time>2022-03-03T08:32:19.000Z</time>
      </trkpt>
      <trkpt lat="44.13103" lon="6.11767">
        <ele>737</ele>
        <time>2022-03-03T08:32:20.000Z</time>
      </trkpt>
      <trkpt lat="44.13103" lon="6.11767">
        <ele>737</ele>
        <time>2022-03-03T08:32:21.000Z</time>
      </trkpt>
      <trkpt lat="44.13103" lon="6.11767">
        <ele>737</ele>
        <time>2022-03-03T08:32:22.000Z</time>
      </trkpt>
      <trkpt lat="44.13103" lon="6.11767">
        <ele>737</ele>
        <time>2022-03-03T08:32:23.000Z</time>
      </trkpt>
      <trkpt lat="44.13103" lon="6.11767">
        <ele>737</ele>
        <time>2022-03-03T08:32:24.000Z</time>
      </trkpt>
      <trkpt lat="44.13103" lon="6.11767">
        <ele>737</ele>
        <time>2022-03-03T08:32:25.000Z</time>
      </trkpt>
      <trkpt lat="44.13103" lon="6.11767">
        <ele>737</ele>
        <time>2022-03-03T08:32:26.000Z</time>
      </trkpt>
      <trkpt lat="44.13103" lon="6.11767">
        <ele>737</ele>
        <time>2022-03-03T08:32:27.000Z</time>
      </trkpt>
      <trkpt lat="44.13103" lon="6.11767">
        <ele>737</ele>
        <time>2022-03-03T08:32:28.000Z</time>
      </trkpt>
      <trkpt lat="44.13103" lon="6.11767">
        <ele>737</ele>
        <time>2022-03-03T08:32:29.000Z</time>
      </trkpt>
      <trkpt lat="44.13103" lon="6.11767">
        <ele>737</ele>
        <time>2022-03-03T08:32:30.000Z</time>
      </trkpt>
      <trkpt lat="44.13103" lon="6.11767">
        <ele>737</ele>
        <time>2022-03-03T08:32:31.000Z</time>
      </trkpt>
      <trkpt lat="44.13103" lon="6.11766">
        <ele>737</ele>
        <time>2022-03-03T08:32:32.000Z</time>
      </trkpt>
      <trkpt lat="44.13103" lon="6.11766">
        <ele>737</ele>
        <time>2022-03-03T08:32:33.000Z</time>
      </trkpt>
      <trkpt lat="44.13103" lon="6.11767">
        <ele>737</ele>
        <time>2022-03-03T08:32:34.000Z</time>
      </trkpt>
      <trkpt lat="44.13103" lon="6.11767">
        <ele>737</ele>
        <time>2022-03-03T08:32:35.000Z</time>
      </trkpt>
      <trkpt lat="44.13103" lon="6.11767">
        <ele>737</ele>
        <time>2022-03-03T08:32:36.000Z</time>
      </trkpt>
      <trkpt lat="44.13103" lon="6.11767">
        <ele>737</ele>
        <time>2022-03-03T08:32:37.000Z</time>
      </trkpt>
      <trkpt lat="44.13103" lon="6.11767">
        <ele>737</ele>
        <time>2022-03-03T08:32:38.000Z</time>
      </trkpt>
      <trkpt lat="44.13103" lon="6.11767">
        <ele>737</ele>
        <time>2022-03-03T08:32:39.000Z</time>
      </trkpt>
      <trkpt lat="44.13103" lon="6.11767">
        <ele>737</ele>
        <time>2022-03-03T08:32:40.000Z</time>
      </trkpt>
      <trkpt lat="44.13103" lon="6.11767">
        <ele>737</ele>
        <time>2022-03-03T08:32:41.000Z</time>
      </trkpt>
      <trkpt lat="44.13103" lon="6.11767">
        <ele>737</ele>
        <time>2022-03-03T08:32:42.000Z</time>
      </trkpt>
      <trkpt lat="44.13103" lon="6.11767">
        <ele>738</ele>
        <time>2022-03-03T08:32:43.000Z</time>
      </trkpt>
      <trkpt lat="44.13103" lon="6.11767">
        <ele>738</ele>
        <time>2022-03-03T08:32:44.000Z</time>
      </trkpt>
      <trkpt lat="44.13103" lon="6.11767">
        <ele>738</ele>
        <time>2022-03-03T08:32:45.000Z</time>
      </trkpt>
      <trkpt lat="44.13103" lon="6.11767">
        <ele>738</ele>
        <time>2022-03-03T08:32:46.000Z</time>
      </trkpt>
      <trkpt lat="44.13103" lon="6.11767">
        <ele>738</ele>
        <time>2022-03-03T08:32:47.000Z</time>
      </trkpt>
      <trkpt lat="44.13103" lon="6.11767">
        <ele>738</ele>
        <time>2022-03-03T08:32:48.000Z</time>
      </trkpt>
      <trkpt lat="44.13103" lon="6.11767">
        <ele>738</ele>
        <time>2022-03-03T08:32:49.000Z</time>
      </trkpt>
      <trkpt lat="44.13103" lon="6.11767">
        <ele>738</ele>
        <time>2022-03-03T08:32:50.000Z</time>
      </trkpt>
      <trkpt lat="44.13103" lon="6.11767">
        <ele>738</ele>
        <time>2022-03-03T08:32:51.000Z</time>
      </trkpt>
      <trkpt lat="44.13103" lon="6.11767">
        <ele>738</ele>
        <time>2022-03-03T08:32:52.000Z</time>
      </trkpt>
      <trkpt lat="44.13103" lon="6.11767">
        <ele>738</ele>
        <time>2022-03-03T08:32:53.000Z</time>
      </trkpt>
      <trkpt lat="44.13103" lon="6.11767">
        <ele>738</ele>
        <time>2022-03-03T08:32:54.000Z</time>
      </trkpt>
      <trkpt lat="44.13103" lon="6.11767">
        <ele>738</ele>
        <time>2022-03-03T08:32:55.000Z</time>
      </trkpt>
      <trkpt lat="44.13103" lon="6.11767">
        <ele>738</ele>
        <time>2022-03-03T08:32:56.000Z</time>
      </trkpt>
      <trkpt lat="44.13103" lon="6.11767">
        <ele>738</ele>
        <time>2022-03-03T08:32:57.000Z</time>
      </trkpt>
      <trkpt lat="44.13103" lon="6.11767">
        <ele>738</ele>
        <time>2022-03-03T08:32:58.000Z</time>
      </trkpt>
      <trkpt lat="44.13103" lon="6.11767">
        <ele>738</ele>
        <time>2022-03-03T08:32:59.000Z</time>
      </trkpt>
      <trkpt lat="44.13103" lon="6.11767">
        <ele>738</ele>
        <time>2022-03-03T08:33:00.000Z</time>
      </trkpt>
      <trkpt lat="44.13103" lon="6.11767">
        <ele>738</ele>
        <time>2022-03-03T08:33:01.000Z</time>
      </trkpt>
      <trkpt lat="44.13103" lon="6.11767">
        <ele>738</ele>
        <time>2022-03-03T08:33:02.000Z</time>
      </trkpt>
      <trkpt lat="44.13103" lon="6.11767">
        <ele>738</ele>
        <time>2022-03-03T08:33:03.000Z</time>
      </trkpt>
      <trkpt lat="44.13103" lon="6.11767">
        <ele>738</ele>
        <time>2022-03-03T08:33:04.000Z</time>
      </trkpt>
      <trkpt lat="44.13103" lon="6.11768">
        <ele>738</ele>
        <time>2022-03-03T08:33:05.000Z</time>
      </trkpt>
      <trkpt lat="44.13103" lon="6.11768">
        <ele>738</ele>
        <time>2022-03-03T08:33:06.000Z</time>
      </trkpt>
      <trkpt lat="44.13103" lon="6.11768">
        <ele>738</ele>
        <time>2022-03-03T08:33:07.000Z</time>
      </trkpt>
      <trkpt lat="44.13103" lon="6.11768">
        <ele>738</ele>
        <time>2022-03-03T08:33:08.000Z</time>
      </trkpt>
      <trkpt lat="44.13103" lon="6.11768">
        <ele>738</ele>
        <time>2022-03-03T08:33:09.000Z</time>
      </trkpt>
      <trkpt lat="44.13103" lon="6.11768">
        <ele>738</ele>
        <time>2022-03-03T08:33:10.000Z</time>
      </trkpt>
      <trkpt lat="44.13103" lon="6.11768">
        <ele>738</ele>
        <time>2022-03-03T08:33:11.000Z</time>
      </trkpt>
      <trkpt lat="44.13103" lon="6.11768">
        <ele>738</ele>
        <time>2022-03-03T08:33:12.000Z</time>
      </trkpt>
      <trkpt lat="44.13103" lon="6.11768">
        <ele>737</ele>
        <time>2022-03-03T08:33:13.000Z</time>
      </trkpt>
      <trkpt lat="44.13102" lon="6.11768">
        <ele>737</ele>
        <time>2022-03-03T08:33:14.000Z</time>
      </trkpt>
      <trkpt lat="44.13103" lon="6.11767">
        <ele>737</ele>
        <time>2022-03-03T08:33:15.000Z</time>
      </trkpt>
      <trkpt lat="44.13103" lon="6.11768">
        <ele>737</ele>
        <time>2022-03-03T08:33:16.000Z</time>
      </trkpt>
      <trkpt lat="44.13103" lon="6.11768">
        <ele>737</ele>
        <time>2022-03-03T08:33:17.000Z</time>
      </trkpt>
      <trkpt lat="44.13103" lon="6.11768">
        <ele>737</ele>
        <time>2022-03-03T08:33:18.000Z</time>
      </trkpt>
      <trkpt lat="44.13103" lon="6.11768">
        <ele>737</ele>
        <time>2022-03-03T08:33:19.000Z</time>
      </trkpt>
      <trkpt lat="44.13103" lon="6.11768">
        <ele>737</ele>
        <time>2022-03-03T08:33:20.000Z</time>
      </trkpt>
      <trkpt lat="44.13103" lon="6.11768">
        <ele>737</ele>
        <time>2022-03-03T08:33:21.000Z</time>
      </trkpt>
      <trkpt lat="44.13103" lon="6.11768">
        <ele>737</ele>
        <time>2022-03-03T08:33:22.000Z</time>
      </trkpt>
      <trkpt lat="44.13103" lon="6.11768">
        <ele>737</ele>
        <time>2022-03-03T08:33:23.000Z</time>
      </trkpt>
      <trkpt lat="44.13103" lon="6.11768">
        <ele>737</ele>
        <time>2022-03-03T08:33:24.000Z</time>
      </trkpt>
      <trkpt lat="44.13103" lon="6.11768">
        <ele>737</ele>
        <time>2022-03-03T08:33:25.000Z</time>
      </trkpt>
      <trkpt lat="44.13103" lon="6.11768">
        <ele>737</ele>
        <time>2022-03-03T08:33:26.000Z</time>
      </trkpt>
      <trkpt lat="44.13102" lon="6.11768">
        <ele>737</ele>
        <time>2022-03-03T08:33:27.000Z</time>
      </trkpt>
      <trkpt lat="44.13102" lon="6.11768">
        <ele>737</ele>
        <time>2022-03-03T08:33:28.000Z</time>
      </trkpt>
      <trkpt lat="44.13102" lon="6.11768">
        <ele>737</ele>
        <time>2022-03-03T08:33:29.000Z</time>
      </trkpt>
      <trkpt lat="44.13102" lon="6.11768">
        <ele>737</ele>
        <time>2022-03-03T08:33:30.000Z</time>
      </trkpt>
      <trkpt lat="44.13102" lon="6.11768">
        <ele>737</ele>
        <time>2022-03-03T08:33:31.000Z</time>
      </trkpt>
      <trkpt lat="44.13102" lon="6.11769">
        <ele>737</ele>
        <time>2022-03-03T08:33:32.000Z</time>
      </trkpt>
      <trkpt lat="44.13101" lon="6.11769">
        <ele>736</ele>
        <time>2022-03-03T08:33:33.000Z</time>
      </trkpt>
      <trkpt lat="44.13101" lon="6.11769">
        <ele>736</ele>
        <time>2022-03-03T08:33:34.000Z</time>
      </trkpt>
      <trkpt lat="44.13101" lon="6.11769">
        <ele>736</ele>
        <time>2022-03-03T08:33:35.000Z</time>
      </trkpt>
      <trkpt lat="44.13101" lon="6.11769">
        <ele>736</ele>
        <time>2022-03-03T08:33:36.000Z</time>
      </trkpt>
      <trkpt lat="44.13101" lon="6.11769">
        <ele>736</ele>
        <time>2022-03-03T08:33:37.000Z</time>
      </trkpt>
      <trkpt lat="44.13101" lon="6.11769">
        <ele>736</ele>
        <time>2022-03-03T08:33:38.000Z</time>
      </trkpt>
      <trkpt lat="44.13101" lon="6.11769">
        <ele>736</ele>
        <time>2022-03-03T08:33:39.000Z</time>
      </trkpt>
      <trkpt lat="44.13101" lon="6.11769">
        <ele>736</ele>
        <time>2022-03-03T08:33:40.000Z</time>
      </trkpt>
      <trkpt lat="44.13101" lon="6.11769">
        <ele>736</ele>
        <time>2022-03-03T08:33:41.000Z</time>
      </trkpt>
      <trkpt lat="44.13101" lon="6.11769">
        <ele>736</ele>
        <time>2022-03-03T08:33:42.000Z</time>
      </trkpt>
      <trkpt lat="44.13101" lon="6.11769">
        <ele>736</ele>
        <time>2022-03-03T08:33:43.000Z</time>
      </trkpt>
      <trkpt lat="44.13101" lon="6.11769">
        <ele>736</ele>
        <time>2022-03-03T08:33:44.000Z</time>
      </trkpt>
      <trkpt lat="44.13101" lon="6.11769">
        <ele>736</ele>
        <time>2022-03-03T08:33:45.000Z</time>
      </trkpt>
      <trkpt lat="44.13101" lon="6.11769">
        <ele>736</ele>
        <time>2022-03-03T08:33:46.000Z</time>
      </trkpt>
      <trkpt lat="44.13101" lon="6.11769">
        <ele>736</ele>
        <time>2022-03-03T08:33:47.000Z</time>
      </trkpt>
      <trkpt lat="44.13101" lon="6.11769">
        <ele>736</ele>
        <time>2022-03-03T08:33:48.000Z</time>
      </trkpt>
      <trkpt lat="44.13101" lon="6.11769">
        <ele>736</ele>
        <time>2022-03-03T08:33:49.000Z</time>
      </trkpt>
      <trkpt lat="44.13101" lon="6.11769">
        <ele>736</ele>
        <time>2022-03-03T08:33:50.000Z</time>
      </trkpt>
      <trkpt lat="44.13101" lon="6.11769">
        <ele>736</ele>
        <time>2022-03-03T08:33:51.000Z</time>
      </trkpt>
      <trkpt lat="44.13101" lon="6.11769">
        <ele>736</ele>
        <time>2022-03-03T08:33:52.000Z</time>
      </trkpt>
      <trkpt lat="44.13101" lon="6.11769">
        <ele>736</ele>
        <time>2022-03-03T08:33:53.000Z</time>
      </trkpt>
      <trkpt lat="44.13101" lon="6.11769">
        <ele>736</ele>
        <time>2022-03-03T08:33:54.000Z</time>
      </trkpt>
      <trkpt lat="44.13101" lon="6.1177">
        <ele>736</ele>
        <time>2022-03-03T08:33:55.000Z</time>
      </trkpt>
      <trkpt lat="44.13102" lon="6.1177">
        <ele>736</ele>
        <time>2022-03-03T08:33:56.000Z</time>
      </trkpt>
      <trkpt lat="44.13102" lon="6.11769">
        <ele>736</ele>
        <time>2022-03-03T08:33:57.000Z</time>
      </trkpt>
      <trkpt lat="44.13102" lon="6.11769">
        <ele>735</ele>
        <time>2022-03-03T08:33:58.000Z</time>
      </trkpt>
      <trkpt lat="44.13102" lon="6.1177">
        <ele>735</ele>
        <time>2022-03-03T08:33:59.000Z</time>
      </trkpt>
      <trkpt lat="44.13102" lon="6.1177">
        <ele>735</ele>
        <time>2022-03-03T08:34:00.000Z</time>
      </trkpt>
      <trkpt lat="44.13102" lon="6.1177">
        <ele>735</ele>
        <time>2022-03-03T08:34:01.000Z</time>
      </trkpt>
      <trkpt lat="44.13103" lon="6.1177">
        <ele>735</ele>
        <time>2022-03-03T08:34:02.000Z</time>
      </trkpt>
      <trkpt lat="44.13103" lon="6.11771">
        <ele>735</ele>
        <time>2022-03-03T08:34:03.000Z</time>
      </trkpt>
      <trkpt lat="44.13103" lon="6.11771">
        <ele>735</ele>
        <time>2022-03-03T08:34:04.000Z</time>
      </trkpt>
      <trkpt lat="44.13103" lon="6.11771">
        <ele>735</ele>
        <time>2022-03-03T08:34:05.000Z</time>
      </trkpt>
      <trkpt lat="44.13103" lon="6.11771">
        <ele>735</ele>
        <time>2022-03-03T08:34:06.000Z</time>
      </trkpt>
      <trkpt lat="44.13103" lon="6.11771">
        <ele>735</ele>
        <time>2022-03-03T08:34:07.000Z</time>
      </trkpt>
      <trkpt lat="44.13103" lon="6.11771">
        <ele>735</ele>
        <time>2022-03-03T08:34:08.000Z</time>
      </trkpt>
      <trkpt lat="44.13103" lon="6.11771">
        <ele>735</ele>
        <time>2022-03-03T08:34:09.000Z</time>
      </trkpt>
      <trkpt lat="44.13103" lon="6.11771">
        <ele>735</ele>
        <time>2022-03-03T08:34:10.000Z</time>
      </trkpt>
      <trkpt lat="44.13103" lon="6.11771">
        <ele>735</ele>
        <time>2022-03-03T08:34:11.000Z</time>
      </trkpt>
      <trkpt lat="44.13103" lon="6.11771">
        <ele>735</ele>
        <time>2022-03-03T08:34:12.000Z</time>
      </trkpt>
      <trkpt lat="44.13103" lon="6.11771">
        <ele>735</ele>
        <time>2022-03-03T08:34:13.000Z</time>
      </trkpt>
      <trkpt lat="44.13103" lon="6.11771">
        <ele>735</ele>
        <time>2022-03-03T08:34:14.000Z</time>
      </trkpt>
      <trkpt lat="44.13103" lon="6.11771">
        <ele>735</ele>
        <time>2022-03-03T08:34:15.000Z</time>
      </trkpt>
      <trkpt lat="44.13103" lon="6.11771">
        <ele>735</ele>
        <time>2022-03-03T08:34:16.000Z</time>
      </trkpt>
      <trkpt lat="44.13103" lon="6.11771">
        <ele>735</ele>
        <time>2022-03-03T08:34:17.000Z</time>
      </trkpt>
      <trkpt lat="44.13103" lon="6.11771">
        <ele>735</ele>
        <time>2022-03-03T08:34:18.000Z</time>
      </trkpt>
      <trkpt lat="44.13103" lon="6.11771">
        <ele>735</ele>
        <time>2022-03-03T08:34:19.000Z</time>
      </trkpt>
      <trkpt lat="44.13103" lon="6.11771">
        <ele>735</ele>
        <time>2022-03-03T08:34:20.000Z</time>
      </trkpt>
      <trkpt lat="44.13104" lon="6.11772">
        <ele>735</ele>
        <time>2022-03-03T08:34:21.000Z</time>
      </trkpt>
      <trkpt lat="44.13104" lon="6.11772">
        <ele>735</ele>
        <time>2022-03-03T08:34:22.000Z</time>
      </trkpt>
      <trkpt lat="44.13104" lon="6.11772">
        <ele>735</ele>
        <time>2022-03-03T08:34:23.000Z</time>
      </trkpt>
      <trkpt lat="44.13105" lon="6.11773">
        <ele>735</ele>
        <time>2022-03-03T08:34:24.000Z</time>
      </trkpt>
      <trkpt lat="44.13105" lon="6.11773">
        <ele>735</ele>
        <time>2022-03-03T08:34:25.000Z</time>
      </trkpt>
      <trkpt lat="44.13105" lon="6.11773">
        <ele>735</ele>
        <time>2022-03-03T08:34:26.000Z</time>
      </trkpt>
      <trkpt lat="44.13105" lon="6.11773">
        <ele>736</ele>
        <time>2022-03-03T08:34:27.000Z</time>
      </trkpt>
      <trkpt lat="44.13105" lon="6.11774">
        <ele>736</ele>
        <time>2022-03-03T08:34:28.000Z</time>
      </trkpt>
      <trkpt lat="44.13105" lon="6.11774">
        <ele>736</ele>
        <time>2022-03-03T08:34:29.000Z</time>
      </trkpt>
      <trkpt lat="44.13105" lon="6.11774">
        <ele>736</ele>
        <time>2022-03-03T08:34:30.000Z</time>
      </trkpt>
      <trkpt lat="44.13105" lon="6.11774">
        <ele>736</ele>
        <time>2022-03-03T08:34:31.000Z</time>
      </trkpt>
      <trkpt lat="44.13105" lon="6.11774">
        <ele>736</ele>
        <time>2022-03-03T08:34:32.000Z</time>
      </trkpt>
      <trkpt lat="44.13105" lon="6.11774">
        <ele>736</ele>
        <time>2022-03-03T08:34:33.000Z</time>
      </trkpt>
      <trkpt lat="44.13105" lon="6.11774">
        <ele>736</ele>
        <time>2022-03-03T08:34:34.000Z</time>
      </trkpt>
      <trkpt lat="44.13105" lon="6.11774">
        <ele>736</ele>
        <time>2022-03-03T08:34:35.000Z</time>
      </trkpt>
      <trkpt lat="44.13105" lon="6.11774">
        <ele>736</ele>
        <time>2022-03-03T08:34:36.000Z</time>
      </trkpt>
      <trkpt lat="44.13105" lon="6.11774">
        <ele>736</ele>
        <time>2022-03-03T08:34:37.000Z</time>
      </trkpt>
      <trkpt lat="44.13105" lon="6.11773">
        <ele>736</ele>
        <time>2022-03-03T08:34:38.000Z</time>
      </trkpt>
      <trkpt lat="44.13105" lon="6.11773">
        <ele>736</ele>
        <time>2022-03-03T08:34:39.000Z</time>
      </trkpt>
      <trkpt lat="44.13105" lon="6.11773">
        <ele>736</ele>
        <time>2022-03-03T08:34:40.000Z</time>
      </trkpt>
      <trkpt lat="44.13105" lon="6.11773">
        <ele>736</ele>
        <time>2022-03-03T08:34:41.000Z</time>
      </trkpt>
      <trkpt lat="44.13105" lon="6.11773">
        <ele>736</ele>
        <time>2022-03-03T08:34:42.000Z</time>
      </trkpt>
      <trkpt lat="44.13105" lon="6.11773">
        <ele>736</ele>
        <time>2022-03-03T08:34:43.000Z</time>
      </trkpt>
      <trkpt lat="44.13105" lon="6.11773">
        <ele>736</ele>
        <time>2022-03-03T08:34:44.000Z</time>
      </trkpt>
      <trkpt lat="44.13105" lon="6.11773">
        <ele>736</ele>
        <time>2022-03-03T08:34:45.000Z</time>
      </trkpt>
      <trkpt lat="44.13105" lon="6.11773">
        <ele>736</ele>
        <time>2022-03-03T08:34:46.000Z</time>
      </trkpt>
      <trkpt lat="44.13105" lon="6.11773">
        <ele>736</ele>
        <time>2022-03-03T08:34:47.000Z</time>
      </trkpt>
      <trkpt lat="44.13105" lon="6.11773">
        <ele>736</ele>
        <time>2022-03-03T08:34:48.000Z</time>
      </trkpt>
      <trkpt lat="44.13105" lon="6.11773">
        <ele>736</ele>
        <time>2022-03-03T08:34:49.000Z</time>
      </trkpt>
      <trkpt lat="44.13104" lon="6.11773">
        <ele>736</ele>
        <time>2022-03-03T08:34:50.000Z</time>
      </trkpt>
      <trkpt lat="44.13104" lon="6.11773">
        <ele>736</ele>
        <time>2022-03-03T08:34:51.000Z</time>
      </trkpt>
      <trkpt lat="44.13105" lon="6.11772">
        <ele>736</ele>
        <time>2022-03-03T08:34:52.000Z</time>
      </trkpt>
      <trkpt lat="44.13105" lon="6.11773">
        <ele>736</ele>
        <time>2022-03-03T08:34:53.000Z</time>
      </trkpt>
      <trkpt lat="44.13105" lon="6.11773">
        <ele>736</ele>
        <time>2022-03-03T08:34:54.000Z</time>
      </trkpt>
      <trkpt lat="44.13105" lon="6.11773">
        <ele>736</ele>
        <time>2022-03-03T08:34:55.000Z</time>
      </trkpt>
      <trkpt lat="44.13105" lon="6.11773">
        <ele>736</ele>
        <time>2022-03-03T08:34:56.000Z</time>
      </trkpt>
      <trkpt lat="44.13105" lon="6.11773">
        <ele>736</ele>
        <time>2022-03-03T08:34:57.000Z</time>
      </trkpt>
      <trkpt lat="44.13105" lon="6.11773">
        <ele>736</ele>
        <time>2022-03-03T08:34:58.000Z</time>
      </trkpt>
      <trkpt lat="44.13105" lon="6.11773">
        <ele>736</ele>
        <time>2022-03-03T08:34:59.000Z</time>
      </trkpt>
      <trkpt lat="44.13105" lon="6.11773">
        <ele>736</ele>
        <time>2022-03-03T08:35:00.000Z</time>
      </trkpt>
      <trkpt lat="44.13105" lon="6.11773">
        <ele>736</ele>
        <time>2022-03-03T08:35:01.000Z</time>
      </trkpt>
      <trkpt lat="44.13104" lon="6.11773">
        <ele>736</ele>
        <time>2022-03-03T08:35:02.000Z</time>
      </trkpt>
      <trkpt lat="44.13104" lon="6.11773">
        <ele>736</ele>
        <time>2022-03-03T08:35:03.000Z</time>
      </trkpt>
      <trkpt lat="44.13104" lon="6.11773">
        <ele>736</ele>
        <time>2022-03-03T08:35:04.000Z</time>
      </trkpt>
      <trkpt lat="44.13104" lon="6.11773">
        <ele>736</ele>
        <time>2022-03-03T08:35:05.000Z</time>
      </trkpt>
      <trkpt lat="44.13104" lon="6.11773">
        <ele>736</ele>
        <time>2022-03-03T08:35:06.000Z</time>
      </trkpt>
      <trkpt lat="44.13104" lon="6.11773">
        <ele>736</ele>
        <time>2022-03-03T08:35:07.000Z</time>
      </trkpt>
      <trkpt lat="44.13103" lon="6.11773">
        <ele>736</ele>
        <time>2022-03-03T08:35:08.000Z</time>
      </trkpt>
      <trkpt lat="44.13103" lon="6.11773">
        <ele>736</ele>
        <time>2022-03-03T08:35:09.000Z</time>
      </trkpt>
      <trkpt lat="44.13103" lon="6.11773">
        <ele>736</ele>
        <time>2022-03-03T08:35:10.000Z</time>
      </trkpt>
      <trkpt lat="44.13103" lon="6.11773">
        <ele>736</ele>
        <time>2022-03-03T08:35:11.000Z</time>
      </trkpt>
      <trkpt lat="44.13103" lon="6.11773">
        <ele>736</ele>
        <time>2022-03-03T08:35:12.000Z</time>
      </trkpt>
      <trkpt lat="44.13103" lon="6.11773">
        <ele>736</ele>
        <time>2022-03-03T08:35:13.000Z</time>
      </trkpt>
      <trkpt lat="44.13103" lon="6.11772">
        <ele>736</ele>
        <time>2022-03-03T08:35:14.000Z</time>
      </trkpt>
      <trkpt lat="44.13103" lon="6.11772">
        <ele>736</ele>
        <time>2022-03-03T08:35:15.000Z</time>
      </trkpt>
      <trkpt lat="44.13102" lon="6.11772">
        <ele>736</ele>
        <time>2022-03-03T08:35:16.000Z</time>
      </trkpt>
      <trkpt lat="44.13102" lon="6.11772">
        <ele>736</ele>
        <time>2022-03-03T08:35:17.000Z</time>
      </trkpt>
      <trkpt lat="44.13102" lon="6.11772">
        <ele>736</ele>
        <time>2022-03-03T08:35:18.000Z</time>
      </trkpt>
      <trkpt lat="44.13102" lon="6.11772">
        <ele>736</ele>
        <time>2022-03-03T08:35:19.000Z</time>
      </trkpt>
      <trkpt lat="44.13102" lon="6.11772">
        <ele>736</ele>
        <time>2022-03-03T08:35:20.000Z</time>
      </trkpt>
      <trkpt lat="44.13102" lon="6.11773">
        <ele>736</ele>
        <time>2022-03-03T08:35:21.000Z</time>
      </trkpt>
      <trkpt lat="44.13102" lon="6.11773">
        <ele>736</ele>
        <time>2022-03-03T08:35:22.000Z</time>
      </trkpt>
      <trkpt lat="44.13102" lon="6.11773">
        <ele>736</ele>
        <time>2022-03-03T08:35:23.000Z</time>
      </trkpt>
      <trkpt lat="44.13102" lon="6.11773">
        <ele>736</ele>
        <time>2022-03-03T08:35:24.000Z</time>
      </trkpt>
      <trkpt lat="44.13102" lon="6.11772">
        <ele>736</ele>
        <time>2022-03-03T08:35:25.000Z</time>
      </trkpt>
      <trkpt lat="44.13101" lon="6.11772">
        <ele>736</ele>
        <time>2022-03-03T08:35:26.000Z</time>
      </trkpt>
      <trkpt lat="44.13102" lon="6.11772">
        <ele>736</ele>
        <time>2022-03-03T08:35:27.000Z</time>
      </trkpt>
      <trkpt lat="44.13102" lon="6.11772">
        <ele>736</ele>
        <time>2022-03-03T08:35:28.000Z</time>
      </trkpt>
      <trkpt lat="44.13102" lon="6.11772">
        <ele>735</ele>
        <time>2022-03-03T08:35:29.000Z</time>
      </trkpt>
      <trkpt lat="44.13102" lon="6.11772">
        <ele>735</ele>
        <time>2022-03-03T08:35:30.000Z</time>
      </trkpt>
      <trkpt lat="44.13102" lon="6.11771">
        <ele>735</ele>
        <time>2022-03-03T08:35:31.000Z</time>
      </trkpt>
      <trkpt lat="44.13103" lon="6.11771">
        <ele>735</ele>
        <time>2022-03-03T08:35:32.000Z</time>
      </trkpt>
      <trkpt lat="44.13103" lon="6.11771">
        <ele>735</ele>
        <time>2022-03-03T08:35:33.000Z</time>
      </trkpt>
      <trkpt lat="44.13104" lon="6.11771">
        <ele>735</ele>
        <time>2022-03-03T08:35:34.000Z</time>
      </trkpt>
      <trkpt lat="44.13105" lon="6.11771">
        <ele>735</ele>
        <time>2022-03-03T08:35:35.000Z</time>
      </trkpt>
      <trkpt lat="44.13106" lon="6.11771">
        <ele>735</ele>
        <time>2022-03-03T08:35:36.000Z</time>
      </trkpt>
      <trkpt lat="44.13106" lon="6.11771">
        <ele>735</ele>
        <time>2022-03-03T08:35:37.000Z</time>
      </trkpt>
      <trkpt lat="44.13106" lon="6.11771">
        <ele>735</ele>
        <time>2022-03-03T08:35:38.000Z</time>
      </trkpt>
      <trkpt lat="44.13106" lon="6.11771">
        <ele>735</ele>
        <time>2022-03-03T08:35:39.000Z</time>
      </trkpt>
      <trkpt lat="44.13105" lon="6.11771">
        <ele>735</ele>
        <time>2022-03-03T08:35:40.000Z</time>
      </trkpt>
      <trkpt lat="44.13104" lon="6.11771">
        <ele>735</ele>
        <time>2022-03-03T08:35:41.000Z</time>
      </trkpt>
      <trkpt lat="44.13103" lon="6.11771">
        <ele>735</ele>
        <time>2022-03-03T08:35:42.000Z</time>
      </trkpt>
      <trkpt lat="44.13103" lon="6.1177">
        <ele>735</ele>
        <time>2022-03-03T08:35:43.000Z</time>
      </trkpt>
      <trkpt lat="44.13103" lon="6.1177">
        <ele>735</ele>
        <time>2022-03-03T08:35:44.000Z</time>
      </trkpt>
      <trkpt lat="44.13103" lon="6.1177">
        <ele>735</ele>
        <time>2022-03-03T08:35:45.000Z</time>
      </trkpt>
      <trkpt lat="44.13103" lon="6.1177">
        <ele>735</ele>
        <time>2022-03-03T08:35:46.000Z</time>
      </trkpt>
      <trkpt lat="44.13103" lon="6.1177">
        <ele>735</ele>
        <time>2022-03-03T08:35:47.000Z</time>
      </trkpt>
      <trkpt lat="44.13103" lon="6.1177">
        <ele>735</ele>
        <time>2022-03-03T08:35:48.000Z</time>
      </trkpt>
      <trkpt lat="44.13103" lon="6.1177">
        <ele>735</ele>
        <time>2022-03-03T08:35:49.000Z</time>
      </trkpt>
      <trkpt lat="44.13103" lon="6.1177">
        <ele>735</ele>
        <time>2022-03-03T08:35:50.000Z</time>
      </trkpt>
      <trkpt lat="44.13103" lon="6.1177">
        <ele>735</ele>
        <time>2022-03-03T08:35:51.000Z</time>
      </trkpt>
      <trkpt lat="44.13103" lon="6.1177">
        <ele>735</ele>
        <time>2022-03-03T08:35:52.000Z</time>
      </trkpt>
      <trkpt lat="44.13103" lon="6.1177">
        <ele>735</ele>
        <time>2022-03-03T08:35:53.000Z</time>
      </trkpt>
      <trkpt lat="44.13103" lon="6.1177">
        <ele>735</ele>
        <time>2022-03-03T08:35:54.000Z</time>
      </trkpt>
      <trkpt lat="44.13102" lon="6.1177">
        <ele>735</ele>
        <time>2022-03-03T08:35:55.000Z</time>
      </trkpt>
      <trkpt lat="44.13102" lon="6.11771">
        <ele>735</ele>
        <time>2022-03-03T08:35:56.000Z</time>
      </trkpt>
      <trkpt lat="44.13103" lon="6.11771">
        <ele>735</ele>
        <time>2022-03-03T08:35:57.000Z</time>
      </trkpt>
      <trkpt lat="44.13103" lon="6.1177">
        <ele>735</ele>
        <time>2022-03-03T08:35:58.000Z</time>
      </trkpt>
      <trkpt lat="44.13103" lon="6.1177">
        <ele>735</ele>
        <time>2022-03-03T08:35:59.000Z</time>
      </trkpt>
      <trkpt lat="44.13103" lon="6.1177">
        <ele>735</ele>
        <time>2022-03-03T08:36:00.000Z</time>
      </trkpt>
      <trkpt lat="44.13103" lon="6.1177">
        <ele>735</ele>
        <time>2022-03-03T08:36:01.000Z</time>
      </trkpt>
      <trkpt lat="44.13103" lon="6.1177">
        <ele>735</ele>
        <time>2022-03-03T08:36:02.000Z</time>
      </trkpt>
      <trkpt lat="44.13103" lon="6.1177">
        <ele>735</ele>
        <time>2022-03-03T08:36:03.000Z</time>
      </trkpt>
      <trkpt lat="44.13103" lon="6.1177">
        <ele>735</ele>
        <time>2022-03-03T08:36:04.000Z</time>
      </trkpt>
      <trkpt lat="44.13103" lon="6.1177">
        <ele>735</ele>
        <time>2022-03-03T08:36:05.000Z</time>
      </trkpt>
      <trkpt lat="44.13103" lon="6.1177">
        <ele>735</ele>
        <time>2022-03-03T08:36:06.000Z</time>
      </trkpt>
      <trkpt lat="44.13103" lon="6.1177">
        <ele>735</ele>
        <time>2022-03-03T08:36:07.000Z</time>
      </trkpt>
      <trkpt lat="44.13103" lon="6.1177">
        <ele>735</ele>
        <time>2022-03-03T08:36:08.000Z</time>
      </trkpt>
      <trkpt lat="44.13103" lon="6.1177">
        <ele>735</ele>
        <time>2022-03-03T08:36:09.000Z</time>
      </trkpt>
      <trkpt lat="44.13103" lon="6.1177">
        <ele>735</ele>
        <time>2022-03-03T08:36:10.000Z</time>
      </trkpt>
      <trkpt lat="44.13103" lon="6.1177">
        <ele>735</ele>
        <time>2022-03-03T08:36:11.000Z</time>
      </trkpt>
      <trkpt lat="44.13103" lon="6.1177">
        <ele>735</ele>
        <time>2022-03-03T08:36:12.000Z</time>
      </trkpt>
      <trkpt lat="44.13103" lon="6.1177">
        <ele>735</ele>
        <time>2022-03-03T08:36:13.000Z</time>
      </trkpt>
      <trkpt lat="44.13103" lon="6.1177">
        <ele>735</ele>
        <time>2022-03-03T08:36:14.000Z</time>
      </trkpt>
      <trkpt lat="44.13103" lon="6.1177">
        <ele>735</ele>
        <time>2022-03-03T08:36:15.000Z</time>
      </trkpt>
      <trkpt lat="44.13102" lon="6.11771">
        <ele>735</ele>
        <time>2022-03-03T08:36:16.000Z</time>
      </trkpt>
      <trkpt lat="44.13102" lon="6.11771">
        <ele>735</ele>
        <time>2022-03-03T08:36:17.000Z</time>
      </trkpt>
      <trkpt lat="44.13102" lon="6.11771">
        <ele>735</ele>
        <time>2022-03-03T08:36:18.000Z</time>
      </trkpt>
      <trkpt lat="44.13102" lon="6.11771">
        <ele>735</ele>
        <time>2022-03-03T08:36:19.000Z</time>
      </trkpt>
      <trkpt lat="44.13102" lon="6.11771">
        <ele>735</ele>
        <time>2022-03-03T08:36:20.000Z</time>
      </trkpt>
      <trkpt lat="44.13102" lon="6.11771">
        <ele>735</ele>
        <time>2022-03-03T08:36:21.000Z</time>
      </trkpt>
      <trkpt lat="44.13102" lon="6.11771">
        <ele>735</ele>
        <time>2022-03-03T08:36:22.000Z</time>
      </trkpt>
      <trkpt lat="44.13102" lon="6.11771">
        <ele>735</ele>
        <time>2022-03-03T08:36:23.000Z</time>
      </trkpt>
      <trkpt lat="44.13102" lon="6.11771">
        <ele>735</ele>
        <time>2022-03-03T08:36:24.000Z</time>
      </trkpt>
      <trkpt lat="44.13102" lon="6.11771">
        <ele>735</ele>
        <time>2022-03-03T08:36:25.000Z</time>
      </trkpt>
      <trkpt lat="44.13102" lon="6.11771">
        <ele>735</ele>
        <time>2022-03-03T08:36:26.000Z</time>
      </trkpt>
      <trkpt lat="44.13102" lon="6.11771">
        <ele>735</ele>
        <time>2022-03-03T08:36:27.000Z</time>
      </trkpt>
      <trkpt lat="44.13102" lon="6.11771">
        <ele>735</ele>
        <time>2022-03-03T08:36:28.000Z</time>
      </trkpt>
      <trkpt lat="44.13102" lon="6.11771">
        <ele>735</ele>
        <time>2022-03-03T08:36:29.000Z</time>
      </trkpt>
      <trkpt lat="44.13102" lon="6.11771">
        <ele>735</ele>
        <time>2022-03-03T08:36:30.000Z</time>
      </trkpt>
      <trkpt lat="44.13102" lon="6.11771">
        <ele>735</ele>
        <time>2022-03-03T08:36:31.000Z</time>
      </trkpt>
      <trkpt lat="44.13102" lon="6.11771">
        <ele>735</ele>
        <time>2022-03-03T08:36:32.000Z</time>
      </trkpt>
      <trkpt lat="44.13102" lon="6.11771">
        <ele>735</ele>
        <time>2022-03-03T08:36:33.000Z</time>
      </trkpt>
      <trkpt lat="44.13102" lon="6.11771">
        <ele>735</ele>
        <time>2022-03-03T08:36:34.000Z</time>
      </trkpt>
      <trkpt lat="44.13102" lon="6.11771">
        <ele>735</ele>
        <time>2022-03-03T08:36:35.000Z</time>
      </trkpt>
      <trkpt lat="44.13102" lon="6.11771">
        <ele>735</ele>
        <time>2022-03-03T08:36:36.000Z</time>
      </trkpt>
      <trkpt lat="44.13102" lon="6.11771">
        <ele>735</ele>
        <time>2022-03-03T08:36:37.000Z</time>
      </trkpt>
      <trkpt lat="44.13102" lon="6.11771">
        <ele>735</ele>
        <time>2022-03-03T08:36:38.000Z</time>
      </trkpt>
      <trkpt lat="44.13102" lon="6.11772">
        <ele>735</ele>
        <time>2022-03-03T08:36:39.000Z</time>
      </trkpt>
      <trkpt lat="44.13102" lon="6.11772">
        <ele>735</ele>
        <time>2022-03-03T08:36:40.000Z</time>
      </trkpt>
      <trkpt lat="44.13102" lon="6.11772">
        <ele>735</ele>
        <time>2022-03-03T08:36:41.000Z</time>
      </trkpt>
      <trkpt lat="44.13102" lon="6.11772">
        <ele>735</ele>
        <time>2022-03-03T08:36:42.000Z</time>
      </trkpt>
      <trkpt lat="44.13102" lon="6.11772">
        <ele>735</ele>
        <time>2022-03-03T08:36:43.000Z</time>
      </trkpt>
      <trkpt lat="44.13102" lon="6.11772">
        <ele>735</ele>
        <time>2022-03-03T08:36:44.000Z</time>
      </trkpt>
      <trkpt lat="44.13102" lon="6.11772">
        <ele>735</ele>
        <time>2022-03-03T08:36:45.000Z</time>
      </trkpt>
      <trkpt lat="44.13102" lon="6.11772">
        <ele>735</ele>
        <time>2022-03-03T08:36:46.000Z</time>
      </trkpt>
      <trkpt lat="44.13102" lon="6.11772">
        <ele>735</ele>
        <time>2022-03-03T08:36:47.000Z</time>
      </trkpt>
      <trkpt lat="44.13102" lon="6.11772">
        <ele>735</ele>
        <time>2022-03-03T08:36:48.000Z</time>
      </trkpt>
      <trkpt lat="44.13102" lon="6.11772">
        <ele>735</ele>
        <time>2022-03-03T08:36:49.000Z</time>
      </trkpt>
      <trkpt lat="44.13102" lon="6.11771">
        <ele>735</ele>
        <time>2022-03-03T08:36:50.000Z</time>
      </trkpt>
      <trkpt lat="44.13102" lon="6.11771">
        <ele>735</ele>
        <time>2022-03-03T08:36:51.000Z</time>
      </trkpt>
      <trkpt lat="44.13101" lon="6.11771">
        <ele>735</ele>
        <time>2022-03-03T08:36:52.000Z</time>
      </trkpt>
      <trkpt lat="44.13101" lon="6.11771">
        <ele>735</ele>
        <time>2022-03-03T08:36:53.000Z</time>
      </trkpt>
      <trkpt lat="44.13101" lon="6.11771">
        <ele>735</ele>
        <time>2022-03-03T08:36:54.000Z</time>
      </trkpt>
      <trkpt lat="44.13101" lon="6.11771">
        <ele>735</ele>
        <time>2022-03-03T08:36:55.000Z</time>
      </trkpt>
      <trkpt lat="44.13101" lon="6.11771">
        <ele>735</ele>
        <time>2022-03-03T08:36:56.000Z</time>
      </trkpt>
      <trkpt lat="44.13102" lon="6.11771">
        <ele>734</ele>
        <time>2022-03-03T08:36:57.000Z</time>
      </trkpt>
      <trkpt lat="44.13102" lon="6.11771">
        <ele>734</ele>
        <time>2022-03-03T08:36:58.000Z</time>
      </trkpt>
      <trkpt lat="44.13102" lon="6.11771">
        <ele>734</ele>
        <time>2022-03-03T08:36:59.000Z</time>
      </trkpt>
      <trkpt lat="44.13102" lon="6.11771">
        <ele>734</ele>
        <time>2022-03-03T08:37:00.000Z</time>
      </trkpt>
      <trkpt lat="44.13102" lon="6.11771">
        <ele>734</ele>
        <time>2022-03-03T08:37:01.000Z</time>
      </trkpt>
      <trkpt lat="44.13102" lon="6.11771">
        <ele>734</ele>
        <time>2022-03-03T08:37:02.000Z</time>
      </trkpt>
      <trkpt lat="44.13102" lon="6.11771">
        <ele>734</ele>
        <time>2022-03-03T08:37:03.000Z</time>
      </trkpt>
      <trkpt lat="44.13102" lon="6.11771">
        <ele>734</ele>
        <time>2022-03-03T08:37:04.000Z</time>
      </trkpt>
      <trkpt lat="44.13102" lon="6.1177">
        <ele>734</ele>
        <time>2022-03-03T08:37:05.000Z</time>
      </trkpt>
      <trkpt lat="44.13102" lon="6.1177">
        <ele>734</ele>
        <time>2022-03-03T08:37:06.000Z</time>
      </trkpt>
      <trkpt lat="44.13102" lon="6.1177">
        <ele>735</ele>
        <time>2022-03-03T08:37:07.000Z</time>
      </trkpt>
      <trkpt lat="44.13101" lon="6.1177">
        <ele>735</ele>
        <time>2022-03-03T08:37:08.000Z</time>
      </trkpt>
      <trkpt lat="44.13101" lon="6.1177">
        <ele>735</ele>
        <time>2022-03-03T08:37:09.000Z</time>
      </trkpt>
      <trkpt lat="44.13101" lon="6.1177">
        <ele>735</ele>
        <time>2022-03-03T08:37:10.000Z</time>
      </trkpt>
      <trkpt lat="44.13101" lon="6.11769">
        <ele>735</ele>
        <time>2022-03-03T08:37:11.000Z</time>
      </trkpt>
      <trkpt lat="44.13101" lon="6.11768">
        <ele>735</ele>
        <time>2022-03-03T08:37:12.000Z</time>
      </trkpt>
      <trkpt lat="44.131" lon="6.11767">
        <ele>735</ele>
        <time>2022-03-03T08:37:13.000Z</time>
      </trkpt>
      <trkpt lat="44.131" lon="6.11766">
        <ele>735</ele>
        <time>2022-03-03T08:37:14.000Z</time>
      </trkpt>
      <trkpt lat="44.131" lon="6.11764">
        <ele>735</ele>
        <time>2022-03-03T08:37:15.000Z</time>
      </trkpt>
      <trkpt lat="44.131" lon="6.11763">
        <ele>734</ele>
        <time>2022-03-03T08:37:16.000Z</time>
      </trkpt>
      <trkpt lat="44.131" lon="6.11762">
        <ele>734</ele>
        <time>2022-03-03T08:37:17.000Z</time>
      </trkpt>
      <trkpt lat="44.131" lon="6.11761">
        <ele>734</ele>
        <time>2022-03-03T08:37:18.000Z</time>
      </trkpt>
      <trkpt lat="44.131" lon="6.1176">
        <ele>734</ele>
        <time>2022-03-03T08:37:19.000Z</time>
      </trkpt>
      <trkpt lat="44.13101" lon="6.11758">
        <ele>734</ele>
        <time>2022-03-03T08:37:20.000Z</time>
      </trkpt>
      <trkpt lat="44.13101" lon="6.11757">
        <ele>734</ele>
        <time>2022-03-03T08:37:21.000Z</time>
      </trkpt>
      <trkpt lat="44.13101" lon="6.11756">
        <ele>733</ele>
        <time>2022-03-03T08:37:22.000Z</time>
      </trkpt>
      <trkpt lat="44.13102" lon="6.11755">
        <ele>733</ele>
        <time>2022-03-03T08:37:23.000Z</time>
      </trkpt>
      <trkpt lat="44.13103" lon="6.11753">
        <ele>733</ele>
        <time>2022-03-03T08:37:24.000Z</time>
      </trkpt>
      <trkpt lat="44.13104" lon="6.11752">
        <ele>733</ele>
        <time>2022-03-03T08:37:25.000Z</time>
      </trkpt>
      <trkpt lat="44.13104" lon="6.11751">
        <ele>733</ele>
        <time>2022-03-03T08:37:26.000Z</time>
      </trkpt>
      <trkpt lat="44.13105" lon="6.1175">
        <ele>733</ele>
        <time>2022-03-03T08:37:27.000Z</time>
      </trkpt>
      <trkpt lat="44.13105" lon="6.11749">
        <ele>733</ele>
        <time>2022-03-03T08:37:28.000Z</time>
      </trkpt>
      <trkpt lat="44.13106" lon="6.11748">
        <ele>733</ele>
        <time>2022-03-03T08:37:29.000Z</time>
      </trkpt>
      <trkpt lat="44.13106" lon="6.11748">
        <ele>733</ele>
        <time>2022-03-03T08:37:30.000Z</time>
      </trkpt>
      <trkpt lat="44.13106" lon="6.11747">
        <ele>733</ele>
        <time>2022-03-03T08:37:31.000Z</time>
      </trkpt>
      <trkpt lat="44.13106" lon="6.11746">
        <ele>734</ele>
        <time>2022-03-03T08:37:32.000Z</time>
      </trkpt>
      <trkpt lat="44.13106" lon="6.11746">
        <ele>734</ele>
        <time>2022-03-03T08:37:33.000Z</time>
      </trkpt>
      <trkpt lat="44.13106" lon="6.11745">
        <ele>734</ele>
        <time>2022-03-03T08:37:34.000Z</time>
      </trkpt>
      <trkpt lat="44.13106" lon="6.11745">
        <ele>734</ele>
        <time>2022-03-03T08:37:35.000Z</time>
      </trkpt>
      <trkpt lat="44.13106" lon="6.11745">
        <ele>734</ele>
        <time>2022-03-03T08:37:36.000Z</time>
      </trkpt>
      <trkpt lat="44.13106" lon="6.11744">
        <ele>734</ele>
        <time>2022-03-03T08:37:37.000Z</time>
      </trkpt>
      <trkpt lat="44.13107" lon="6.11744">
        <ele>734</ele>
        <time>2022-03-03T08:37:38.000Z</time>
      </trkpt>
      <trkpt lat="44.13107" lon="6.11743">
        <ele>734</ele>
        <time>2022-03-03T08:37:39.000Z</time>
      </trkpt>
      <trkpt lat="44.13107" lon="6.11743">
        <ele>734</ele>
        <time>2022-03-03T08:37:40.000Z</time>
      </trkpt>
      <trkpt lat="44.13107" lon="6.11743">
        <ele>734</ele>
        <time>2022-03-03T08:37:41.000Z</time>
      </trkpt>
      <trkpt lat="44.13108" lon="6.11743">
        <ele>734</ele>
        <time>2022-03-03T08:37:42.000Z</time>
      </trkpt>
      <trkpt lat="44.13108" lon="6.11743">
        <ele>734</ele>
        <time>2022-03-03T08:37:43.000Z</time>
      </trkpt>
      <trkpt lat="44.13108" lon="6.11743">
        <ele>734</ele>
        <time>2022-03-03T08:37:44.000Z</time>
      </trkpt>
      <trkpt lat="44.13108" lon="6.11743">
        <ele>734</ele>
        <time>2022-03-03T08:37:45.000Z</time>
      </trkpt>
      <trkpt lat="44.13108" lon="6.11742">
        <ele>734</ele>
        <time>2022-03-03T08:37:46.000Z</time>
      </trkpt>
      <trkpt lat="44.13108" lon="6.11742">
        <ele>734</ele>
        <time>2022-03-03T08:37:47.000Z</time>
      </trkpt>
      <trkpt lat="44.13108" lon="6.11742">
        <ele>734</ele>
        <time>2022-03-03T08:37:48.000Z</time>
      </trkpt>
      <trkpt lat="44.13108" lon="6.11742">
        <ele>734</ele>
        <time>2022-03-03T08:37:49.000Z</time>
      </trkpt>
      <trkpt lat="44.13108" lon="6.11742">
        <ele>734</ele>
        <time>2022-03-03T08:37:50.000Z</time>
      </trkpt>
      <trkpt lat="44.13108" lon="6.11742">
        <ele>734</ele>
        <time>2022-03-03T08:37:51.000Z</time>
      </trkpt>
      <trkpt lat="44.13108" lon="6.11742">
        <ele>734</ele>
        <time>2022-03-03T08:37:52.000Z</time>
      </trkpt>
      <trkpt lat="44.13108" lon="6.11742">
        <ele>734</ele>
        <time>2022-03-03T08:37:53.000Z</time>
      </trkpt>
      <trkpt lat="44.13108" lon="6.11742">
        <ele>734</ele>
        <time>2022-03-03T08:37:54.000Z</time>
      </trkpt>
      <trkpt lat="44.13108" lon="6.11742">
        <ele>734</ele>
        <time>2022-03-03T08:37:55.000Z</time>
      </trkpt>
      <trkpt lat="44.13108" lon="6.11742">
        <ele>734</ele>
        <time>2022-03-03T08:37:56.000Z</time>
      </trkpt>
      <trkpt lat="44.13108" lon="6.11742">
        <ele>734</ele>
        <time>2022-03-03T08:37:57.000Z</time>
      </trkpt>
      <trkpt lat="44.13108" lon="6.11741">
        <ele>734</ele>
        <time>2022-03-03T08:37:58.000Z</time>
      </trkpt>
      <trkpt lat="44.13109" lon="6.11741">
        <ele>734</ele>
        <time>2022-03-03T08:37:59.000Z</time>
      </trkpt>
      <trkpt lat="44.13109" lon="6.11741">
        <ele>735</ele>
        <time>2022-03-03T08:38:00.000Z</time>
      </trkpt>
      <trkpt lat="44.13109" lon="6.11741">
        <ele>735</ele>
        <time>2022-03-03T08:38:01.000Z</time>
      </trkpt>
      <trkpt lat="44.13109" lon="6.11741">
        <ele>735</ele>
        <time>2022-03-03T08:38:02.000Z</time>
      </trkpt>
      <trkpt lat="44.13109" lon="6.11741">
        <ele>735</ele>
        <time>2022-03-03T08:38:03.000Z</time>
      </trkpt>
      <trkpt lat="44.13109" lon="6.11741">
        <ele>735</ele>
        <time>2022-03-03T08:38:04.000Z</time>
      </trkpt>
      <trkpt lat="44.13109" lon="6.11741">
        <ele>735</ele>
        <time>2022-03-03T08:38:05.000Z</time>
      </trkpt>
      <trkpt lat="44.13109" lon="6.11741">
        <ele>735</ele>
        <time>2022-03-03T08:38:06.000Z</time>
      </trkpt>
      <trkpt lat="44.13109" lon="6.11741">
        <ele>735</ele>
        <time>2022-03-03T08:38:07.000Z</time>
      </trkpt>
      <trkpt lat="44.13109" lon="6.11741">
        <ele>735</ele>
        <time>2022-03-03T08:38:08.000Z</time>
      </trkpt>
      <trkpt lat="44.13109" lon="6.11741">
        <ele>735</ele>
        <time>2022-03-03T08:38:09.000Z</time>
      </trkpt>
      <trkpt lat="44.13109" lon="6.11741">
        <ele>735</ele>
        <time>2022-03-03T08:38:10.000Z</time>
      </trkpt>
      <trkpt lat="44.13109" lon="6.11741">
        <ele>735</ele>
        <time>2022-03-03T08:38:11.000Z</time>
      </trkpt>
      <trkpt lat="44.13109" lon="6.11741">
        <ele>735</ele>
        <time>2022-03-03T08:38:12.000Z</time>
      </trkpt>
      <trkpt lat="44.1311" lon="6.11741">
        <ele>735</ele>
        <time>2022-03-03T08:38:13.000Z</time>
      </trkpt>
      <trkpt lat="44.1311" lon="6.11741">
        <ele>735</ele>
        <time>2022-03-03T08:38:14.000Z</time>
      </trkpt>
      <trkpt lat="44.1311" lon="6.11741">
        <ele>735</ele>
        <time>2022-03-03T08:38:15.000Z</time>
      </trkpt>
      <trkpt lat="44.1311" lon="6.1174">
        <ele>735</ele>
        <time>2022-03-03T08:38:16.000Z</time>
      </trkpt>
      <trkpt lat="44.1311" lon="6.1174">
        <ele>735</ele>
        <time>2022-03-03T08:38:17.000Z</time>
      </trkpt>
      <trkpt lat="44.13111" lon="6.1174">
        <ele>735</ele>
        <time>2022-03-03T08:38:18.000Z</time>
      </trkpt>
      <trkpt lat="44.13111" lon="6.1174">
        <ele>735</ele>
        <time>2022-03-03T08:38:19.000Z</time>
      </trkpt>
      <trkpt lat="44.13112" lon="6.11741">
        <ele>735</ele>
        <time>2022-03-03T08:38:20.000Z</time>
      </trkpt>
      <trkpt lat="44.13113" lon="6.11742">
        <ele>735</ele>
        <time>2022-03-03T08:38:21.000Z</time>
      </trkpt>
      <trkpt lat="44.13114" lon="6.11743">
        <ele>736</ele>
        <time>2022-03-03T08:38:22.000Z</time>
      </trkpt>
      <trkpt lat="44.13115" lon="6.11744">
        <ele>736</ele>
        <time>2022-03-03T08:38:23.000Z</time>
      </trkpt>
      <trkpt lat="44.13116" lon="6.11746">
        <ele>736</ele>
        <time>2022-03-03T08:38:24.000Z</time>
      </trkpt>
      <trkpt lat="44.13117" lon="6.11747">
        <ele>736</ele>
        <time>2022-03-03T08:38:25.000Z</time>
      </trkpt>
      <trkpt lat="44.13118" lon="6.11748">
        <ele>736</ele>
        <time>2022-03-03T08:38:26.000Z</time>
      </trkpt>
      <trkpt lat="44.13119" lon="6.11749">
        <ele>737</ele>
        <time>2022-03-03T08:38:27.000Z</time>
      </trkpt>
      <trkpt lat="44.13121" lon="6.1175">
        <ele>737</ele>
        <time>2022-03-03T08:38:28.000Z</time>
      </trkpt>
      <trkpt lat="44.13122" lon="6.11751">
        <ele>737</ele>
        <time>2022-03-03T08:38:29.000Z</time>
      </trkpt>
      <trkpt lat="44.13123" lon="6.11752">
        <ele>737</ele>
        <time>2022-03-03T08:38:30.000Z</time>
      </trkpt>
      <trkpt lat="44.13124" lon="6.11753">
        <ele>738</ele>
        <time>2022-03-03T08:38:31.000Z</time>
      </trkpt>
      <trkpt lat="44.13125" lon="6.11754">
        <ele>738</ele>
        <time>2022-03-03T08:38:32.000Z</time>
      </trkpt>
      <trkpt lat="44.13127" lon="6.11755">
        <ele>738</ele>
        <time>2022-03-03T08:38:33.000Z</time>
      </trkpt>
      <trkpt lat="44.13128" lon="6.11756">
        <ele>738</ele>
        <time>2022-03-03T08:38:34.000Z</time>
      </trkpt>
      <trkpt lat="44.13129" lon="6.11757">
        <ele>738</ele>
        <time>2022-03-03T08:38:35.000Z</time>
      </trkpt>
      <trkpt lat="44.1313" lon="6.11758">
        <ele>738</ele>
        <time>2022-03-03T08:38:36.000Z</time>
      </trkpt>
      <trkpt lat="44.13131" lon="6.1176">
        <ele>739</ele>
        <time>2022-03-03T08:38:37.000Z</time>
      </trkpt>
      <trkpt lat="44.13131" lon="6.11761">
        <ele>739</ele>
        <time>2022-03-03T08:38:38.000Z</time>
      </trkpt>
      <trkpt lat="44.13132" lon="6.11762">
        <ele>739</ele>
        <time>2022-03-03T08:38:39.000Z</time>
      </trkpt>
      <trkpt lat="44.13133" lon="6.11764">
        <ele>739</ele>
        <time>2022-03-03T08:38:40.000Z</time>
      </trkpt>
      <trkpt lat="44.13133" lon="6.11764">
        <ele>739</ele>
        <time>2022-03-03T08:38:41.000Z</time>
      </trkpt>
      <trkpt lat="44.13133" lon="6.11765">
        <ele>739</ele>
        <time>2022-03-03T08:38:42.000Z</time>
      </trkpt>
      <trkpt lat="44.13133" lon="6.11765">
        <ele>739</ele>
        <time>2022-03-03T08:38:43.000Z</time>
      </trkpt>
      <trkpt lat="44.13134" lon="6.11765">
        <ele>739</ele>
        <time>2022-03-03T08:38:44.000Z</time>
      </trkpt>
      <trkpt lat="44.13134" lon="6.11765">
        <ele>739</ele>
        <time>2022-03-03T08:38:45.000Z</time>
      </trkpt>
      <trkpt lat="44.13134" lon="6.11765">
        <ele>739</ele>
        <time>2022-03-03T08:38:46.000Z</time>
      </trkpt>
      <trkpt lat="44.13134" lon="6.11765">
        <ele>739</ele>
        <time>2022-03-03T08:38:47.000Z</time>
      </trkpt>
      <trkpt lat="44.13134" lon="6.11765">
        <ele>739</ele>
        <time>2022-03-03T08:38:48.000Z</time>
      </trkpt>
      <trkpt lat="44.13135" lon="6.11765">
        <ele>739</ele>
        <time>2022-03-03T08:38:49.000Z</time>
      </trkpt>
      <trkpt lat="44.13136" lon="6.11766">
        <ele>739</ele>
        <time>2022-03-03T08:38:50.000Z</time>
      </trkpt>
      <trkpt lat="44.13137" lon="6.11767">
        <ele>739</ele>
        <time>2022-03-03T08:38:51.000Z</time>
      </trkpt>
      <trkpt lat="44.13137" lon="6.11768">
        <ele>739</ele>
        <time>2022-03-03T08:38:52.000Z</time>
      </trkpt>
      <trkpt lat="44.13138" lon="6.11769">
        <ele>739</ele>
        <time>2022-03-03T08:38:53.000Z</time>
      </trkpt>
      <trkpt lat="44.13138" lon="6.1177">
        <ele>739</ele>
        <time>2022-03-03T08:38:54.000Z</time>
      </trkpt>
      <trkpt lat="44.13139" lon="6.1177">
        <ele>739</ele>
        <time>2022-03-03T08:38:55.000Z</time>
      </trkpt>
      <trkpt lat="44.13139" lon="6.11771">
        <ele>739</ele>
        <time>2022-03-03T08:38:56.000Z</time>
      </trkpt>
      <trkpt lat="44.13139" lon="6.11771">
        <ele>739</ele>
        <time>2022-03-03T08:38:57.000Z</time>
      </trkpt>
      <trkpt lat="44.13139" lon="6.11771">
        <ele>739</ele>
        <time>2022-03-03T08:38:58.000Z</time>
      </trkpt>
      <trkpt lat="44.13139" lon="6.11771">
        <ele>739</ele>
        <time>2022-03-03T08:38:59.000Z</time>
      </trkpt>
      <trkpt lat="44.13139" lon="6.11771">
        <ele>739</ele>
        <time>2022-03-03T08:39:00.000Z</time>
      </trkpt>
      <trkpt lat="44.13139" lon="6.11771">
        <ele>739</ele>
        <time>2022-03-03T08:39:01.000Z</time>
      </trkpt>
      <trkpt lat="44.13139" lon="6.11771">
        <ele>739</ele>
        <time>2022-03-03T08:39:02.000Z</time>
      </trkpt>
      <trkpt lat="44.13139" lon="6.11771">
        <ele>739</ele>
        <time>2022-03-03T08:39:03.000Z</time>
      </trkpt>
      <trkpt lat="44.13139" lon="6.11771">
        <ele>739</ele>
        <time>2022-03-03T08:39:04.000Z</time>
      </trkpt>
      <trkpt lat="44.13139" lon="6.11771">
        <ele>739</ele>
        <time>2022-03-03T08:39:05.000Z</time>
      </trkpt>
      <trkpt lat="44.13139" lon="6.11771">
        <ele>739</ele>
        <time>2022-03-03T08:39:06.000Z</time>
      </trkpt>
      <trkpt lat="44.13138" lon="6.11771">
        <ele>739</ele>
        <time>2022-03-03T08:39:07.000Z</time>
      </trkpt>
      <trkpt lat="44.13138" lon="6.1177">
        <ele>739</ele>
        <time>2022-03-03T08:39:08.000Z</time>
      </trkpt>
      <trkpt lat="44.13137" lon="6.11769">
        <ele>739</ele>
        <time>2022-03-03T08:39:09.000Z</time>
      </trkpt>
      <trkpt lat="44.13136" lon="6.11768">
        <ele>739</ele>
        <time>2022-03-03T08:39:10.000Z</time>
      </trkpt>
      <trkpt lat="44.13135" lon="6.11767">
        <ele>739</ele>
        <time>2022-03-03T08:39:11.000Z</time>
      </trkpt>
      <trkpt lat="44.13134" lon="6.11765">
        <ele>739</ele>
        <time>2022-03-03T08:39:12.000Z</time>
      </trkpt>
      <trkpt lat="44.13133" lon="6.11764">
        <ele>739</ele>
        <time>2022-03-03T08:39:13.000Z</time>
      </trkpt>
      <trkpt lat="44.13132" lon="6.11762">
        <ele>739</ele>
        <time>2022-03-03T08:39:14.000Z</time>
      </trkpt>
      <trkpt lat="44.13131" lon="6.11761">
        <ele>739</ele>
        <time>2022-03-03T08:39:15.000Z</time>
      </trkpt>
      <trkpt lat="44.1313" lon="6.1176">
        <ele>739</ele>
        <time>2022-03-03T08:39:16.000Z</time>
      </trkpt>
      <trkpt lat="44.13129" lon="6.11758">
        <ele>739</ele>
        <time>2022-03-03T08:39:17.000Z</time>
      </trkpt>
      <trkpt lat="44.13128" lon="6.11757">
        <ele>739</ele>
        <time>2022-03-03T08:39:18.000Z</time>
      </trkpt>
      <trkpt lat="44.13128" lon="6.11757">
        <ele>739</ele>
        <time>2022-03-03T08:39:19.000Z</time>
      </trkpt>
      <trkpt lat="44.13127" lon="6.11756">
        <ele>739</ele>
        <time>2022-03-03T08:39:20.000Z</time>
      </trkpt>
      <trkpt lat="44.13126" lon="6.11755">
        <ele>739</ele>
        <time>2022-03-03T08:39:21.000Z</time>
      </trkpt>
      <trkpt lat="44.13125" lon="6.11754">
        <ele>738</ele>
        <time>2022-03-03T08:39:22.000Z</time>
      </trkpt>
      <trkpt lat="44.13124" lon="6.11753">
        <ele>738</ele>
        <time>2022-03-03T08:39:23.000Z</time>
      </trkpt>
      <trkpt lat="44.13123" lon="6.11751">
        <ele>738</ele>
        <time>2022-03-03T08:39:24.000Z</time>
      </trkpt>
      <trkpt lat="44.13122" lon="6.1175">
        <ele>738</ele>
        <time>2022-03-03T08:39:25.000Z</time>
      </trkpt>
      <trkpt lat="44.13122" lon="6.11749">
        <ele>738</ele>
        <time>2022-03-03T08:39:26.000Z</time>
      </trkpt>
      <trkpt lat="44.13121" lon="6.11748">
        <ele>738</ele>
        <time>2022-03-03T08:39:27.000Z</time>
      </trkpt>
      <trkpt lat="44.1312" lon="6.11747">
        <ele>738</ele>
        <time>2022-03-03T08:39:28.000Z</time>
      </trkpt>
      <trkpt lat="44.13118" lon="6.11745">
        <ele>738</ele>
        <time>2022-03-03T08:39:29.000Z</time>
      </trkpt>
      <trkpt lat="44.13117" lon="6.11744">
        <ele>738</ele>
        <time>2022-03-03T08:39:30.000Z</time>
      </trkpt>
      <trkpt lat="44.13116" lon="6.11742">
        <ele>738</ele>
        <time>2022-03-03T08:39:31.000Z</time>
      </trkpt>
      <trkpt lat="44.13115" lon="6.11739">
        <ele>739</ele>
        <time>2022-03-03T08:39:32.000Z</time>
      </trkpt>
      <trkpt lat="44.13114" lon="6.11737">
        <ele>739</ele>
        <time>2022-03-03T08:39:33.000Z</time>
      </trkpt>
      <trkpt lat="44.13114" lon="6.11735">
        <ele>739</ele>
        <time>2022-03-03T08:39:34.000Z</time>
      </trkpt>
      <trkpt lat="44.13114" lon="6.11734">
        <ele>739</ele>
        <time>2022-03-03T08:39:35.000Z</time>
      </trkpt>
      <trkpt lat="44.13114" lon="6.11732">
        <ele>739</ele>
        <time>2022-03-03T08:39:36.000Z</time>
      </trkpt>
      <trkpt lat="44.13114" lon="6.11731">
        <ele>739</ele>
        <time>2022-03-03T08:39:37.000Z</time>
      </trkpt>
      <trkpt lat="44.13114" lon="6.1173">
        <ele>739</ele>
        <time>2022-03-03T08:39:38.000Z</time>
      </trkpt>
      <trkpt lat="44.13114" lon="6.11728">
        <ele>739</ele>
        <time>2022-03-03T08:39:39.000Z</time>
      </trkpt>
      <trkpt lat="44.13114" lon="6.11727">
        <ele>739</ele>
        <time>2022-03-03T08:39:40.000Z</time>
      </trkpt>
      <trkpt lat="44.13114" lon="6.11726">
        <ele>739</ele>
        <time>2022-03-03T08:39:41.000Z</time>
      </trkpt>
      <trkpt lat="44.13114" lon="6.11725">
        <ele>739</ele>
        <time>2022-03-03T08:39:42.000Z</time>
      </trkpt>
      <trkpt lat="44.13113" lon="6.11724">
        <ele>740</ele>
        <time>2022-03-03T08:39:43.000Z</time>
      </trkpt>
      <trkpt lat="44.13113" lon="6.11723">
        <ele>740</ele>
        <time>2022-03-03T08:39:44.000Z</time>
      </trkpt>
      <trkpt lat="44.13113" lon="6.11721">
        <ele>740</ele>
        <time>2022-03-03T08:39:45.000Z</time>
      </trkpt>
      <trkpt lat="44.13112" lon="6.1172">
        <ele>740</ele>
        <time>2022-03-03T08:39:46.000Z</time>
      </trkpt>
      <trkpt lat="44.13112" lon="6.11719">
        <ele>740</ele>
        <time>2022-03-03T08:39:47.000Z</time>
      </trkpt>
      <trkpt lat="44.13112" lon="6.11718">
        <ele>740</ele>
        <time>2022-03-03T08:39:48.000Z</time>
      </trkpt>
      <trkpt lat="44.13111" lon="6.11717">
        <ele>741</ele>
        <time>2022-03-03T08:39:49.000Z</time>
      </trkpt>
      <trkpt lat="44.13111" lon="6.11717">
        <ele>741</ele>
        <time>2022-03-03T08:39:50.000Z</time>
      </trkpt>
      <trkpt lat="44.1311" lon="6.11716">
        <ele>741</ele>
        <time>2022-03-03T08:39:51.000Z</time>
      </trkpt>
      <trkpt lat="44.1311" lon="6.11715">
        <ele>741</ele>
        <time>2022-03-03T08:39:52.000Z</time>
      </trkpt>
      <trkpt lat="44.13109" lon="6.11714">
        <ele>742</ele>
        <time>2022-03-03T08:39:53.000Z</time>
      </trkpt>
      <trkpt lat="44.13108" lon="6.11714">
        <ele>742</ele>
        <time>2022-03-03T08:39:54.000Z</time>
      </trkpt>
      <trkpt lat="44.13108" lon="6.11713">
        <ele>742</ele>
        <time>2022-03-03T08:39:55.000Z</time>
      </trkpt>
      <trkpt lat="44.13107" lon="6.11712">
        <ele>742</ele>
        <time>2022-03-03T08:39:56.000Z</time>
      </trkpt>
      <trkpt lat="44.13107" lon="6.11711">
        <ele>743</ele>
        <time>2022-03-03T08:39:57.000Z</time>
      </trkpt>
      <trkpt lat="44.13106" lon="6.1171">
        <ele>743</ele>
        <time>2022-03-03T08:39:58.000Z</time>
      </trkpt>
      <trkpt lat="44.13106" lon="6.11709">
        <ele>743</ele>
        <time>2022-03-03T08:39:59.000Z</time>
      </trkpt>
      <trkpt lat="44.13105" lon="6.11708">
        <ele>743</ele>
        <time>2022-03-03T08:40:00.000Z</time>
      </trkpt>
      <trkpt lat="44.13105" lon="6.11708">
        <ele>744</ele>
        <time>2022-03-03T08:40:01.000Z</time>
      </trkpt>
      <trkpt lat="44.13104" lon="6.11707">
        <ele>744</ele>
        <time>2022-03-03T08:40:02.000Z</time>
      </trkpt>
      <trkpt lat="44.13103" lon="6.11705">
        <ele>744</ele>
        <time>2022-03-03T08:40:03.000Z</time>
      </trkpt>
      <trkpt lat="44.13102" lon="6.11705">
        <ele>744</ele>
        <time>2022-03-03T08:40:04.000Z</time>
      </trkpt>
      <trkpt lat="44.13102" lon="6.11704">
        <ele>744</ele>
        <time>2022-03-03T08:40:05.000Z</time>
      </trkpt>
      <trkpt lat="44.13101" lon="6.11703">
        <ele>745</ele>
        <time>2022-03-03T08:40:06.000Z</time>
      </trkpt>
      <trkpt lat="44.13101" lon="6.11702">
        <ele>745</ele>
        <time>2022-03-03T08:40:07.000Z</time>
      </trkpt>
      <trkpt lat="44.131" lon="6.11702">
        <ele>745</ele>
        <time>2022-03-03T08:40:08.000Z</time>
      </trkpt>
      <trkpt lat="44.13099" lon="6.11701">
        <ele>745</ele>
        <time>2022-03-03T08:40:09.000Z</time>
      </trkpt>
      <trkpt lat="44.13099" lon="6.117">
        <ele>745</ele>
        <time>2022-03-03T08:40:10.000Z</time>
      </trkpt>
      <trkpt lat="44.13098" lon="6.117">
        <ele>745</ele>
        <time>2022-03-03T08:40:11.000Z</time>
      </trkpt>
      <trkpt lat="44.13098" lon="6.11699">
        <ele>745</ele>
        <time>2022-03-03T08:40:12.000Z</time>
      </trkpt>
      <trkpt lat="44.13097" lon="6.11698">
        <ele>746</ele>
        <time>2022-03-03T08:40:13.000Z</time>
      </trkpt>
      <trkpt lat="44.13096" lon="6.11697">
        <ele>746</ele>
        <time>2022-03-03T08:40:14.000Z</time>
      </trkpt>
      <trkpt lat="44.13096" lon="6.11696">
        <ele>746</ele>
        <time>2022-03-03T08:40:15.000Z</time>
      </trkpt>
      <trkpt lat="44.13095" lon="6.11695">
        <ele>746</ele>
        <time>2022-03-03T08:40:16.000Z</time>
      </trkpt>
      <trkpt lat="44.13095" lon="6.11694">
        <ele>746</ele>
        <time>2022-03-03T08:40:17.000Z</time>
      </trkpt>
      <trkpt lat="44.13095" lon="6.11693">
        <ele>746</ele>
        <time>2022-03-03T08:40:18.000Z</time>
      </trkpt>
      <trkpt lat="44.13094" lon="6.11692">
        <ele>747</ele>
        <time>2022-03-03T08:40:19.000Z</time>
      </trkpt>
      <trkpt lat="44.13093" lon="6.11691">
        <ele>747</ele>
        <time>2022-03-03T08:40:20.000Z</time>
      </trkpt>
      <trkpt lat="44.13093" lon="6.1169">
        <ele>747</ele>
        <time>2022-03-03T08:40:21.000Z</time>
      </trkpt>
      <trkpt lat="44.13093" lon="6.1169">
        <ele>747</ele>
        <time>2022-03-03T08:40:22.000Z</time>
      </trkpt>
      <trkpt lat="44.13092" lon="6.11689">
        <ele>747</ele>
        <time>2022-03-03T08:40:23.000Z</time>
      </trkpt>
      <trkpt lat="44.13091" lon="6.11688">
        <ele>747</ele>
        <time>2022-03-03T08:40:24.000Z</time>
      </trkpt>
      <trkpt lat="44.13091" lon="6.11687">
        <ele>748</ele>
        <time>2022-03-03T08:40:25.000Z</time>
      </trkpt>
      <trkpt lat="44.13091" lon="6.11686">
        <ele>748</ele>
        <time>2022-03-03T08:40:26.000Z</time>
      </trkpt>
      <trkpt lat="44.13092" lon="6.11685">
        <ele>748</ele>
        <time>2022-03-03T08:40:27.000Z</time>
      </trkpt>
      <trkpt lat="44.13092" lon="6.11684">
        <ele>748</ele>
        <time>2022-03-03T08:40:28.000Z</time>
      </trkpt>
      <trkpt lat="44.13093" lon="6.11684">
        <ele>748</ele>
        <time>2022-03-03T08:40:29.000Z</time>
      </trkpt>
      <trkpt lat="44.13094" lon="6.11684">
        <ele>748</ele>
        <time>2022-03-03T08:40:30.000Z</time>
      </trkpt>
      <trkpt lat="44.13095" lon="6.11684">
        <ele>748</ele>
        <time>2022-03-03T08:40:31.000Z</time>
      </trkpt>
      <trkpt lat="44.13095" lon="6.11684">
        <ele>748</ele>
        <time>2022-03-03T08:40:32.000Z</time>
      </trkpt>
      <trkpt lat="44.13096" lon="6.11684">
        <ele>748</ele>
        <time>2022-03-03T08:40:33.000Z</time>
      </trkpt>
      <trkpt lat="44.13096" lon="6.11685">
        <ele>748</ele>
        <time>2022-03-03T08:40:34.000Z</time>
      </trkpt>
      <trkpt lat="44.13097" lon="6.11685">
        <ele>748</ele>
        <time>2022-03-03T08:40:35.000Z</time>
      </trkpt>
      <trkpt lat="44.13098" lon="6.11685">
        <ele>748</ele>
        <time>2022-03-03T08:40:36.000Z</time>
      </trkpt>
      <trkpt lat="44.13098" lon="6.11685">
        <ele>748</ele>
        <time>2022-03-03T08:40:37.000Z</time>
      </trkpt>
      <trkpt lat="44.13099" lon="6.11686">
        <ele>748</ele>
        <time>2022-03-03T08:40:38.000Z</time>
      </trkpt>
      <trkpt lat="44.13099" lon="6.11686">
        <ele>748</ele>
        <time>2022-03-03T08:40:39.000Z</time>
      </trkpt>
      <trkpt lat="44.131" lon="6.11686">
        <ele>748</ele>
        <time>2022-03-03T08:40:40.000Z</time>
      </trkpt>
      <trkpt lat="44.131" lon="6.11686">
        <ele>749</ele>
        <time>2022-03-03T08:40:41.000Z</time>
      </trkpt>
      <trkpt lat="44.131" lon="6.11686">
        <ele>749</ele>
        <time>2022-03-03T08:40:42.000Z</time>
      </trkpt>
      <trkpt lat="44.131" lon="6.11686">
        <ele>749</ele>
        <time>2022-03-03T08:40:43.000Z</time>
      </trkpt>
      <trkpt lat="44.131" lon="6.11686">
        <ele>749</ele>
        <time>2022-03-03T08:40:44.000Z</time>
      </trkpt>
      <trkpt lat="44.131" lon="6.11686">
        <ele>749</ele>
        <time>2022-03-03T08:40:45.000Z</time>
      </trkpt>
      <trkpt lat="44.131" lon="6.11686">
        <ele>748</ele>
        <time>2022-03-03T08:40:46.000Z</time>
      </trkpt>
      <trkpt lat="44.131" lon="6.11686">
        <ele>748</ele>
        <time>2022-03-03T08:40:47.000Z</time>
      </trkpt>
      <trkpt lat="44.131" lon="6.11686">
        <ele>748</ele>
        <time>2022-03-03T08:40:48.000Z</time>
      </trkpt>
      <trkpt lat="44.131" lon="6.11686">
        <ele>748</ele>
        <time>2022-03-03T08:40:49.000Z</time>
      </trkpt>
      <trkpt lat="44.131" lon="6.11686">
        <ele>748</ele>
        <time>2022-03-03T08:40:50.000Z</time>
      </trkpt>
      <trkpt lat="44.13101" lon="6.11686">
        <ele>748</ele>
        <time>2022-03-03T08:40:51.000Z</time>
      </trkpt>
      <trkpt lat="44.13101" lon="6.11686">
        <ele>749</ele>
        <time>2022-03-03T08:40:52.000Z</time>
      </trkpt>
      <trkpt lat="44.13102" lon="6.11687">
        <ele>749</ele>
        <time>2022-03-03T08:40:53.000Z</time>
      </trkpt>
      <trkpt lat="44.13103" lon="6.11687">
        <ele>749</ele>
        <time>2022-03-03T08:40:54.000Z</time>
      </trkpt>
      <trkpt lat="44.13104" lon="6.11687">
        <ele>749</ele>
        <time>2022-03-03T08:40:55.000Z</time>
      </trkpt>
      <trkpt lat="44.13104" lon="6.11688">
        <ele>749</ele>
        <time>2022-03-03T08:40:56.000Z</time>
      </trkpt>
      <trkpt lat="44.13105" lon="6.11688">
        <ele>749</ele>
        <time>2022-03-03T08:40:57.000Z</time>
      </trkpt>
      <trkpt lat="44.13106" lon="6.11688">
        <ele>749</ele>
        <time>2022-03-03T08:40:58.000Z</time>
      </trkpt>
      <trkpt lat="44.13107" lon="6.11688">
        <ele>749</ele>
        <time>2022-03-03T08:40:59.000Z</time>
      </trkpt>
      <trkpt lat="44.13107" lon="6.11688">
        <ele>749</ele>
        <time>2022-03-03T08:41:00.000Z</time>
      </trkpt>
      <trkpt lat="44.13108" lon="6.11688">
        <ele>749</ele>
        <time>2022-03-03T08:41:01.000Z</time>
      </trkpt>
      <trkpt lat="44.13109" lon="6.11688">
        <ele>749</ele>
        <time>2022-03-03T08:41:02.000Z</time>
      </trkpt>
      <trkpt lat="44.13109" lon="6.11688">
        <ele>749</ele>
        <time>2022-03-03T08:41:03.000Z</time>
      </trkpt>
      <trkpt lat="44.1311" lon="6.11689">
        <ele>749</ele>
        <time>2022-03-03T08:41:04.000Z</time>
      </trkpt>
      <trkpt lat="44.13111" lon="6.11689">
        <ele>749</ele>
        <time>2022-03-03T08:41:05.000Z</time>
      </trkpt>
      <trkpt lat="44.13111" lon="6.11689">
        <ele>749</ele>
        <time>2022-03-03T08:41:06.000Z</time>
      </trkpt>
      <trkpt lat="44.13112" lon="6.11689">
        <ele>749</ele>
        <time>2022-03-03T08:41:07.000Z</time>
      </trkpt>
      <trkpt lat="44.13113" lon="6.11689">
        <ele>750</ele>
        <time>2022-03-03T08:41:08.000Z</time>
      </trkpt>
      <trkpt lat="44.13114" lon="6.11689">
        <ele>750</ele>
        <time>2022-03-03T08:41:09.000Z</time>
      </trkpt>
      <trkpt lat="44.13114" lon="6.11689">
        <ele>750</ele>
        <time>2022-03-03T08:41:10.000Z</time>
      </trkpt>
      <trkpt lat="44.13115" lon="6.11689">
        <ele>750</ele>
        <time>2022-03-03T08:41:11.000Z</time>
      </trkpt>
      <trkpt lat="44.13116" lon="6.11689">
        <ele>750</ele>
        <time>2022-03-03T08:41:12.000Z</time>
      </trkpt>
      <trkpt lat="44.13117" lon="6.1169">
        <ele>751</ele>
        <time>2022-03-03T08:41:13.000Z</time>
      </trkpt>
      <trkpt lat="44.13117" lon="6.1169">
        <ele>751</ele>
        <time>2022-03-03T08:41:14.000Z</time>
      </trkpt>
      <trkpt lat="44.13118" lon="6.1169">
        <ele>751</ele>
        <time>2022-03-03T08:41:15.000Z</time>
      </trkpt>
      <trkpt lat="44.13119" lon="6.1169">
        <ele>751</ele>
        <time>2022-03-03T08:41:16.000Z</time>
      </trkpt>
      <trkpt lat="44.1312" lon="6.1169">
        <ele>752</ele>
        <time>2022-03-03T08:41:17.000Z</time>
      </trkpt>
      <trkpt lat="44.1312" lon="6.1169">
        <ele>752</ele>
        <time>2022-03-03T08:41:18.000Z</time>
      </trkpt>
      <trkpt lat="44.13121" lon="6.1169">
        <ele>752</ele>
        <time>2022-03-03T08:41:19.000Z</time>
      </trkpt>
      <trkpt lat="44.13121" lon="6.1169">
        <ele>753</ele>
        <time>2022-03-03T08:41:20.000Z</time>
      </trkpt>
      <trkpt lat="44.13122" lon="6.1169">
        <ele>753</ele>
        <time>2022-03-03T08:41:21.000Z</time>
      </trkpt>
      <trkpt lat="44.13122" lon="6.1169">
        <ele>754</ele>
        <time>2022-03-03T08:41:22.000Z</time>
      </trkpt>
      <trkpt lat="44.13123" lon="6.1169">
        <ele>754</ele>
        <time>2022-03-03T08:41:23.000Z</time>
      </trkpt>
      <trkpt lat="44.13124" lon="6.1169">
        <ele>754</ele>
        <time>2022-03-03T08:41:24.000Z</time>
      </trkpt>
      <trkpt lat="44.13125" lon="6.1169">
        <ele>755</ele>
        <time>2022-03-03T08:41:25.000Z</time>
      </trkpt>
      <trkpt lat="44.13126" lon="6.11689">
        <ele>755</ele>
        <time>2022-03-03T08:41:26.000Z</time>
      </trkpt>
      <trkpt lat="44.13127" lon="6.11689">
        <ele>755</ele>
        <time>2022-03-03T08:41:27.000Z</time>
      </trkpt>
      <trkpt lat="44.13127" lon="6.11689">
        <ele>755</ele>
        <time>2022-03-03T08:41:28.000Z</time>
      </trkpt>
      <trkpt lat="44.13128" lon="6.11688">
        <ele>755</ele>
        <time>2022-03-03T08:41:29.000Z</time>
      </trkpt>
      <trkpt lat="44.13129" lon="6.11688">
        <ele>756</ele>
        <time>2022-03-03T08:41:30.000Z</time>
      </trkpt>
      <trkpt lat="44.1313" lon="6.11688">
        <ele>756</ele>
        <time>2022-03-03T08:41:31.000Z</time>
      </trkpt>
      <trkpt lat="44.13131" lon="6.11688">
        <ele>756</ele>
        <time>2022-03-03T08:41:32.000Z</time>
      </trkpt>
      <trkpt lat="44.13131" lon="6.11688">
        <ele>756</ele>
        <time>2022-03-03T08:41:33.000Z</time>
      </trkpt>
      <trkpt lat="44.13131" lon="6.11688">
        <ele>756</ele>
        <time>2022-03-03T08:41:34.000Z</time>
      </trkpt>
      <trkpt lat="44.13131" lon="6.11688">
        <ele>756</ele>
        <time>2022-03-03T08:41:35.000Z</time>
      </trkpt>
      <trkpt lat="44.13131" lon="6.11688">
        <ele>756</ele>
        <time>2022-03-03T08:41:36.000Z</time>
      </trkpt>
      <trkpt lat="44.13131" lon="6.11687">
        <ele>756</ele>
        <time>2022-03-03T08:41:37.000Z</time>
      </trkpt>
      <trkpt lat="44.13131" lon="6.11687">
        <ele>756</ele>
        <time>2022-03-03T08:41:38.000Z</time>
      </trkpt>
      <trkpt lat="44.13132" lon="6.11687">
        <ele>756</ele>
        <time>2022-03-03T08:41:39.000Z</time>
      </trkpt>
      <trkpt lat="44.13132" lon="6.11687">
        <ele>756</ele>
        <time>2022-03-03T08:41:40.000Z</time>
      </trkpt>
      <trkpt lat="44.13132" lon="6.11687">
        <ele>756</ele>
        <time>2022-03-03T08:41:41.000Z</time>
      </trkpt>
      <trkpt lat="44.13132" lon="6.11687">
        <ele>756</ele>
        <time>2022-03-03T08:41:42.000Z</time>
      </trkpt>
      <trkpt lat="44.13132" lon="6.11687">
        <ele>756</ele>
        <time>2022-03-03T08:41:43.000Z</time>
      </trkpt>
      <trkpt lat="44.13132" lon="6.11687">
        <ele>756</ele>
        <time>2022-03-03T08:41:44.000Z</time>
      </trkpt>
      <trkpt lat="44.13132" lon="6.11686">
        <ele>756</ele>
        <time>2022-03-03T08:41:45.000Z</time>
      </trkpt>
      <trkpt lat="44.13133" lon="6.11686">
        <ele>756</ele>
        <time>2022-03-03T08:41:46.000Z</time>
      </trkpt>
      <trkpt lat="44.13134" lon="6.11685">
        <ele>756</ele>
        <time>2022-03-03T08:41:47.000Z</time>
      </trkpt>
      <trkpt lat="44.13135" lon="6.11685">
        <ele>756</ele>
        <time>2022-03-03T08:41:48.000Z</time>
      </trkpt>
      <trkpt lat="44.13136" lon="6.11684">
        <ele>756</ele>
        <time>2022-03-03T08:41:49.000Z</time>
      </trkpt>
      <trkpt lat="44.13137" lon="6.11683">
        <ele>756</ele>
        <time>2022-03-03T08:41:50.000Z</time>
      </trkpt>
      <trkpt lat="44.13138" lon="6.11683">
        <ele>756</ele>
        <time>2022-03-03T08:41:51.000Z</time>
      </trkpt>
      <trkpt lat="44.13138" lon="6.11682">
        <ele>757</ele>
        <time>2022-03-03T08:41:52.000Z</time>
      </trkpt>
      <trkpt lat="44.13139" lon="6.11682">
        <ele>757</ele>
        <time>2022-03-03T08:41:53.000Z</time>
      </trkpt>
      <trkpt lat="44.1314" lon="6.11681">
        <ele>757</ele>
        <time>2022-03-03T08:41:54.000Z</time>
      </trkpt>
      <trkpt lat="44.13141" lon="6.1168">
        <ele>757</ele>
        <time>2022-03-03T08:41:55.000Z</time>
      </trkpt>
      <trkpt lat="44.13142" lon="6.1168">
        <ele>757</ele>
        <time>2022-03-03T08:41:56.000Z</time>
      </trkpt>
      <trkpt lat="44.13143" lon="6.1168">
        <ele>757</ele>
        <time>2022-03-03T08:41:57.000Z</time>
      </trkpt>
      <trkpt lat="44.13144" lon="6.11679">
        <ele>757</ele>
        <time>2022-03-03T08:41:58.000Z</time>
      </trkpt>
      <trkpt lat="44.13144" lon="6.11679">
        <ele>757</ele>
        <time>2022-03-03T08:41:59.000Z</time>
      </trkpt>
      <trkpt lat="44.13145" lon="6.11678">
        <ele>758</ele>
        <time>2022-03-03T08:42:00.000Z</time>
      </trkpt>
      <trkpt lat="44.13146" lon="6.11677">
        <ele>758</ele>
        <time>2022-03-03T08:42:01.000Z</time>
      </trkpt>
      <trkpt lat="44.13146" lon="6.11676">
        <ele>758</ele>
        <time>2022-03-03T08:42:02.000Z</time>
      </trkpt>
      <trkpt lat="44.13147" lon="6.11675">
        <ele>758</ele>
        <time>2022-03-03T08:42:03.000Z</time>
      </trkpt>
      <trkpt lat="44.13147" lon="6.11674">
        <ele>758</ele>
        <time>2022-03-03T08:42:04.000Z</time>
      </trkpt>
      <trkpt lat="44.13148" lon="6.11673">
        <ele>758</ele>
        <time>2022-03-03T08:42:05.000Z</time>
      </trkpt>
      <trkpt lat="44.13148" lon="6.11672">
        <ele>759</ele>
        <time>2022-03-03T08:42:06.000Z</time>
      </trkpt>
      <trkpt lat="44.13148" lon="6.11671">
        <ele>759</ele>
        <time>2022-03-03T08:42:07.000Z</time>
      </trkpt>
      <trkpt lat="44.13148" lon="6.11669">
        <ele>759</ele>
        <time>2022-03-03T08:42:08.000Z</time>
      </trkpt>
      <trkpt lat="44.13148" lon="6.11668">
        <ele>759</ele>
        <time>2022-03-03T08:42:09.000Z</time>
      </trkpt>
      <trkpt lat="44.13148" lon="6.11667">
        <ele>759</ele>
        <time>2022-03-03T08:42:10.000Z</time>
      </trkpt>
      <trkpt lat="44.13148" lon="6.11665">
        <ele>759</ele>
        <time>2022-03-03T08:42:11.000Z</time>
      </trkpt>
      <trkpt lat="44.13148" lon="6.11664">
        <ele>759</ele>
        <time>2022-03-03T08:42:12.000Z</time>
      </trkpt>
      <trkpt lat="44.13148" lon="6.11663">
        <ele>760</ele>
        <time>2022-03-03T08:42:13.000Z</time>
      </trkpt>
      <trkpt lat="44.13148" lon="6.11662">
        <ele>760</ele>
        <time>2022-03-03T08:42:14.000Z</time>
      </trkpt>
      <trkpt lat="44.13148" lon="6.11662">
        <ele>760</ele>
        <time>2022-03-03T08:42:15.000Z</time>
      </trkpt>
      <trkpt lat="44.13147" lon="6.11662">
        <ele>760</ele>
        <time>2022-03-03T08:42:16.000Z</time>
      </trkpt>
      <trkpt lat="44.13147" lon="6.11661">
        <ele>760</ele>
        <time>2022-03-03T08:42:17.000Z</time>
      </trkpt>
      <trkpt lat="44.13146" lon="6.11661">
        <ele>761</ele>
        <time>2022-03-03T08:42:18.000Z</time>
      </trkpt>
      <trkpt lat="44.13145" lon="6.11661">
        <ele>761</ele>
        <time>2022-03-03T08:42:19.000Z</time>
      </trkpt>
      <trkpt lat="44.13144" lon="6.11661">
        <ele>761</ele>
        <time>2022-03-03T08:42:20.000Z</time>
      </trkpt>
      <trkpt lat="44.13143" lon="6.11662">
        <ele>761</ele>
        <time>2022-03-03T08:42:21.000Z</time>
      </trkpt>
      <trkpt lat="44.13142" lon="6.11662">
        <ele>761</ele>
        <time>2022-03-03T08:42:22.000Z</time>
      </trkpt>
      <trkpt lat="44.13141" lon="6.11662">
        <ele>761</ele>
        <time>2022-03-03T08:42:23.000Z</time>
      </trkpt>
      <trkpt lat="44.13139" lon="6.11662">
        <ele>762</ele>
        <time>2022-03-03T08:42:24.000Z</time>
      </trkpt>
      <trkpt lat="44.13138" lon="6.11662">
        <ele>762</ele>
        <time>2022-03-03T08:42:25.000Z</time>
      </trkpt>
      <trkpt lat="44.13137" lon="6.11662">
        <ele>762</ele>
        <time>2022-03-03T08:42:26.000Z</time>
      </trkpt>
      <trkpt lat="44.13136" lon="6.11661">
        <ele>762</ele>
        <time>2022-03-03T08:42:27.000Z</time>
      </trkpt>
      <trkpt lat="44.13135" lon="6.11661">
        <ele>762</ele>
        <time>2022-03-03T08:42:28.000Z</time>
      </trkpt>
      <trkpt lat="44.13134" lon="6.11661">
        <ele>762</ele>
        <time>2022-03-03T08:42:29.000Z</time>
      </trkpt>
      <trkpt lat="44.13133" lon="6.11661">
        <ele>762</ele>
        <time>2022-03-03T08:42:30.000Z</time>
      </trkpt>
      <trkpt lat="44.13132" lon="6.1166">
        <ele>763</ele>
        <time>2022-03-03T08:42:31.000Z</time>
      </trkpt>
      <trkpt lat="44.1313" lon="6.1166">
        <ele>763</ele>
        <time>2022-03-03T08:42:32.000Z</time>
      </trkpt>
      <trkpt lat="44.13129" lon="6.1166">
        <ele>763</ele>
        <time>2022-03-03T08:42:33.000Z</time>
      </trkpt>
      <trkpt lat="44.13128" lon="6.11659">
        <ele>763</ele>
        <time>2022-03-03T08:42:34.000Z</time>
      </trkpt>
      <trkpt lat="44.13127" lon="6.11659">
        <ele>763</ele>
        <time>2022-03-03T08:42:35.000Z</time>
      </trkpt>
      <trkpt lat="44.13126" lon="6.11658">
        <ele>764</ele>
        <time>2022-03-03T08:42:36.000Z</time>
      </trkpt>
      <trkpt lat="44.13126" lon="6.11657">
        <ele>764</ele>
        <time>2022-03-03T08:42:37.000Z</time>
      </trkpt>
      <trkpt lat="44.13125" lon="6.11657">
        <ele>764</ele>
        <time>2022-03-03T08:42:38.000Z</time>
      </trkpt>
      <trkpt lat="44.13124" lon="6.11656">
        <ele>764</ele>
        <time>2022-03-03T08:42:39.000Z</time>
      </trkpt>
      <trkpt lat="44.13124" lon="6.11655">
        <ele>764</ele>
        <time>2022-03-03T08:42:40.000Z</time>
      </trkpt>
      <trkpt lat="44.13123" lon="6.11654">
        <ele>764</ele>
        <time>2022-03-03T08:42:41.000Z</time>
      </trkpt>
      <trkpt lat="44.13123" lon="6.11654">
        <ele>765</ele>
        <time>2022-03-03T08:42:42.000Z</time>
      </trkpt>
      <trkpt lat="44.13122" lon="6.11653">
        <ele>765</ele>
        <time>2022-03-03T08:42:43.000Z</time>
      </trkpt>
      <trkpt lat="44.13122" lon="6.11652">
        <ele>765</ele>
        <time>2022-03-03T08:42:44.000Z</time>
      </trkpt>
      <trkpt lat="44.13121" lon="6.11652">
        <ele>765</ele>
        <time>2022-03-03T08:42:45.000Z</time>
      </trkpt>
      <trkpt lat="44.13121" lon="6.11651">
        <ele>765</ele>
        <time>2022-03-03T08:42:46.000Z</time>
      </trkpt>
      <trkpt lat="44.13121" lon="6.11651">
        <ele>766</ele>
        <time>2022-03-03T08:42:47.000Z</time>
      </trkpt>
      <trkpt lat="44.1312" lon="6.1165">
        <ele>766</ele>
        <time>2022-03-03T08:42:48.000Z</time>
      </trkpt>
      <trkpt lat="44.1312" lon="6.11649">
        <ele>766</ele>
        <time>2022-03-03T08:42:49.000Z</time>
      </trkpt>
      <trkpt lat="44.1312" lon="6.11649">
        <ele>766</ele>
        <time>2022-03-03T08:42:50.000Z</time>
      </trkpt>
      <trkpt lat="44.1312" lon="6.11648">
        <ele>766</ele>
        <time>2022-03-03T08:42:51.000Z</time>
      </trkpt>
      <trkpt lat="44.1312" lon="6.11647">
        <ele>766</ele>
        <time>2022-03-03T08:42:52.000Z</time>
      </trkpt>
      <trkpt lat="44.1312" lon="6.11647">
        <ele>767</ele>
        <time>2022-03-03T08:42:53.000Z</time>
      </trkpt>
      <trkpt lat="44.1312" lon="6.11647">
        <ele>767</ele>
        <time>2022-03-03T08:42:54.000Z</time>
      </trkpt>
      <trkpt lat="44.1312" lon="6.11647">
        <ele>767</ele>
        <time>2022-03-03T08:42:55.000Z</time>
      </trkpt>
      <trkpt lat="44.1312" lon="6.11647">
        <ele>767</ele>
        <time>2022-03-03T08:42:56.000Z</time>
      </trkpt>
      <trkpt lat="44.13119" lon="6.11647">
        <ele>767</ele>
        <time>2022-03-03T08:42:57.000Z</time>
      </trkpt>
      <trkpt lat="44.1312" lon="6.11647">
        <ele>767</ele>
        <time>2022-03-03T08:42:58.000Z</time>
      </trkpt>
      <trkpt lat="44.1312" lon="6.11647">
        <ele>767</ele>
        <time>2022-03-03T08:42:59.000Z</time>
      </trkpt>
      <trkpt lat="44.1312" lon="6.11647">
        <ele>767</ele>
        <time>2022-03-03T08:43:00.000Z</time>
      </trkpt>
      <trkpt lat="44.1312" lon="6.11647">
        <ele>767</ele>
        <time>2022-03-03T08:43:01.000Z</time>
      </trkpt>
      <trkpt lat="44.1312" lon="6.11647">
        <ele>767</ele>
        <time>2022-03-03T08:43:02.000Z</time>
      </trkpt>
      <trkpt lat="44.1312" lon="6.11647">
        <ele>767</ele>
        <time>2022-03-03T08:43:03.000Z</time>
      </trkpt>
      <trkpt lat="44.13119" lon="6.11647">
        <ele>767</ele>
        <time>2022-03-03T08:43:04.000Z</time>
      </trkpt>
      <trkpt lat="44.13119" lon="6.11647">
        <ele>767</ele>
        <time>2022-03-03T08:43:05.000Z</time>
      </trkpt>
      <trkpt lat="44.13119" lon="6.11647">
        <ele>767</ele>
        <time>2022-03-03T08:43:06.000Z</time>
      </trkpt>
      <trkpt lat="44.13119" lon="6.11647">
        <ele>767</ele>
        <time>2022-03-03T08:43:07.000Z</time>
      </trkpt>
      <trkpt lat="44.13119" lon="6.11647">
        <ele>767</ele>
        <time>2022-03-03T08:43:08.000Z</time>
      </trkpt>
      <trkpt lat="44.13119" lon="6.11647">
        <ele>767</ele>
        <time>2022-03-03T08:43:09.000Z</time>
      </trkpt>
      <trkpt lat="44.13119" lon="6.11647">
        <ele>767</ele>
        <time>2022-03-03T08:43:10.000Z</time>
      </trkpt>
      <trkpt lat="44.13119" lon="6.11647">
        <ele>767</ele>
        <time>2022-03-03T08:43:11.000Z</time>
      </trkpt>
      <trkpt lat="44.13119" lon="6.11647">
        <ele>767</ele>
        <time>2022-03-03T08:43:12.000Z</time>
      </trkpt>
      <trkpt lat="44.13119" lon="6.11647">
        <ele>767</ele>
        <time>2022-03-03T08:43:13.000Z</time>
      </trkpt>
      <trkpt lat="44.13119" lon="6.11647">
        <ele>767</ele>
        <time>2022-03-03T08:43:14.000Z</time>
      </trkpt>
      <trkpt lat="44.13119" lon="6.11647">
        <ele>767</ele>
        <time>2022-03-03T08:43:15.000Z</time>
      </trkpt>
      <trkpt lat="44.13119" lon="6.11647">
        <ele>767</ele>
        <time>2022-03-03T08:43:16.000Z</time>
      </trkpt>
      <trkpt lat="44.13119" lon="6.11647">
        <ele>767</ele>
        <time>2022-03-03T08:43:17.000Z</time>
      </trkpt>
      <trkpt lat="44.13119" lon="6.11647">
        <ele>767</ele>
        <time>2022-03-03T08:43:18.000Z</time>
      </trkpt>
      <trkpt lat="44.13119" lon="6.11647">
        <ele>767</ele>
        <time>2022-03-03T08:43:19.000Z</time>
      </trkpt>
      <trkpt lat="44.13119" lon="6.11647">
        <ele>767</ele>
        <time>2022-03-03T08:43:20.000Z</time>
      </trkpt>
      <trkpt lat="44.13119" lon="6.11647">
        <ele>767</ele>
        <time>2022-03-03T08:43:21.000Z</time>
      </trkpt>
      <trkpt lat="44.13119" lon="6.11647">
        <ele>767</ele>
        <time>2022-03-03T08:43:22.000Z</time>
      </trkpt>
      <trkpt lat="44.13119" lon="6.11647">
        <ele>767</ele>
        <time>2022-03-03T08:43:23.000Z</time>
      </trkpt>
      <trkpt lat="44.13119" lon="6.11647">
        <ele>767</ele>
        <time>2022-03-03T08:43:24.000Z</time>
      </trkpt>
      <trkpt lat="44.13119" lon="6.11647">
        <ele>767</ele>
        <time>2022-03-03T08:43:25.000Z</time>
      </trkpt>
      <trkpt lat="44.13119" lon="6.11647">
        <ele>767</ele>
        <time>2022-03-03T08:43:26.000Z</time>
      </trkpt>
      <trkpt lat="44.13119" lon="6.11647">
        <ele>767</ele>
        <time>2022-03-03T08:43:27.000Z</time>
      </trkpt>
      <trkpt lat="44.13119" lon="6.11647">
        <ele>767</ele>
        <time>2022-03-03T08:43:28.000Z</time>
      </trkpt>
      <trkpt lat="44.13119" lon="6.11647">
        <ele>767</ele>
        <time>2022-03-03T08:43:29.000Z</time>
      </trkpt>
      <trkpt lat="44.13119" lon="6.11646">
        <ele>767</ele>
        <time>2022-03-03T08:43:30.000Z</time>
      </trkpt>
      <trkpt lat="44.13119" lon="6.11646">
        <ele>767</ele>
        <time>2022-03-03T08:43:31.000Z</time>
      </trkpt>
      <trkpt lat="44.13119" lon="6.11646">
        <ele>767</ele>
        <time>2022-03-03T08:43:32.000Z</time>
      </trkpt>
      <trkpt lat="44.13119" lon="6.11646">
        <ele>767</ele>
        <time>2022-03-03T08:43:33.000Z</time>
      </trkpt>
      <trkpt lat="44.13119" lon="6.11646">
        <ele>767</ele>
        <time>2022-03-03T08:43:34.000Z</time>
      </trkpt>
      <trkpt lat="44.13119" lon="6.11646">
        <ele>767</ele>
        <time>2022-03-03T08:43:35.000Z</time>
      </trkpt>
      <trkpt lat="44.13119" lon="6.11646">
        <ele>767</ele>
        <time>2022-03-03T08:43:36.000Z</time>
      </trkpt>
      <trkpt lat="44.13119" lon="6.11646">
        <ele>767</ele>
        <time>2022-03-03T08:43:37.000Z</time>
      </trkpt>
      <trkpt lat="44.13119" lon="6.11646">
        <ele>767</ele>
        <time>2022-03-03T08:43:38.000Z</time>
      </trkpt>
      <trkpt lat="44.13119" lon="6.11645">
        <ele>767</ele>
        <time>2022-03-03T08:43:39.000Z</time>
      </trkpt>
      <trkpt lat="44.13119" lon="6.11644">
        <ele>767</ele>
        <time>2022-03-03T08:43:40.000Z</time>
      </trkpt>
      <trkpt lat="44.13119" lon="6.11644">
        <ele>767</ele>
        <time>2022-03-03T08:43:41.000Z</time>
      </trkpt>
      <trkpt lat="44.13119" lon="6.11643">
        <ele>767</ele>
        <time>2022-03-03T08:43:42.000Z</time>
      </trkpt>
      <trkpt lat="44.13119" lon="6.11642">
        <ele>768</ele>
        <time>2022-03-03T08:43:43.000Z</time>
      </trkpt>
      <trkpt lat="44.13119" lon="6.11641">
        <ele>768</ele>
        <time>2022-03-03T08:43:44.000Z</time>
      </trkpt>
      <trkpt lat="44.13119" lon="6.11641">
        <ele>768</ele>
        <time>2022-03-03T08:43:45.000Z</time>
      </trkpt>
      <trkpt lat="44.13118" lon="6.1164">
        <ele>768</ele>
        <time>2022-03-03T08:43:46.000Z</time>
      </trkpt>
      <trkpt lat="44.13118" lon="6.11639">
        <ele>768</ele>
        <time>2022-03-03T08:43:47.000Z</time>
      </trkpt>
      <trkpt lat="44.13118" lon="6.11638">
        <ele>768</ele>
        <time>2022-03-03T08:43:48.000Z</time>
      </trkpt>
      <trkpt lat="44.13118" lon="6.11638">
        <ele>768</ele>
        <time>2022-03-03T08:43:49.000Z</time>
      </trkpt>
      <trkpt lat="44.13118" lon="6.11637">
        <ele>769</ele>
        <time>2022-03-03T08:43:50.000Z</time>
      </trkpt>
      <trkpt lat="44.13118" lon="6.11637">
        <ele>769</ele>
        <time>2022-03-03T08:43:51.000Z</time>
      </trkpt>
      <trkpt lat="44.13118" lon="6.11636">
        <ele>769</ele>
        <time>2022-03-03T08:43:52.000Z</time>
      </trkpt>
      <trkpt lat="44.13118" lon="6.11635">
        <ele>769</ele>
        <time>2022-03-03T08:43:53.000Z</time>
      </trkpt>
      <trkpt lat="44.13119" lon="6.11634">
        <ele>769</ele>
        <time>2022-03-03T08:43:54.000Z</time>
      </trkpt>
      <trkpt lat="44.13119" lon="6.11634">
        <ele>770</ele>
        <time>2022-03-03T08:43:55.000Z</time>
      </trkpt>
      <trkpt lat="44.13118" lon="6.11633">
        <ele>770</ele>
        <time>2022-03-03T08:43:56.000Z</time>
      </trkpt>
      <trkpt lat="44.13118" lon="6.11632">
        <ele>770</ele>
        <time>2022-03-03T08:43:57.000Z</time>
      </trkpt>
      <trkpt lat="44.13118" lon="6.11631">
        <ele>770</ele>
        <time>2022-03-03T08:43:58.000Z</time>
      </trkpt>
      <trkpt lat="44.13118" lon="6.11631">
        <ele>770</ele>
        <time>2022-03-03T08:43:59.000Z</time>
      </trkpt>
      <trkpt lat="44.13119" lon="6.1163">
        <ele>770</ele>
        <time>2022-03-03T08:44:00.000Z</time>
      </trkpt>
      <trkpt lat="44.13119" lon="6.11629">
        <ele>771</ele>
        <time>2022-03-03T08:44:01.000Z</time>
      </trkpt>
      <trkpt lat="44.13119" lon="6.11628">
        <ele>771</ele>
        <time>2022-03-03T08:44:02.000Z</time>
      </trkpt>
      <trkpt lat="44.13119" lon="6.11628">
        <ele>771</ele>
        <time>2022-03-03T08:44:03.000Z</time>
      </trkpt>
      <trkpt lat="44.13119" lon="6.11627">
        <ele>771</ele>
        <time>2022-03-03T08:44:04.000Z</time>
      </trkpt>
      <trkpt lat="44.13119" lon="6.11627">
        <ele>771</ele>
        <time>2022-03-03T08:44:05.000Z</time>
      </trkpt>
      <trkpt lat="44.13119" lon="6.11626">
        <ele>771</ele>
        <time>2022-03-03T08:44:06.000Z</time>
      </trkpt>
      <trkpt lat="44.1312" lon="6.11625">
        <ele>772</ele>
        <time>2022-03-03T08:44:07.000Z</time>
      </trkpt>
      <trkpt lat="44.1312" lon="6.11625">
        <ele>772</ele>
        <time>2022-03-03T08:44:08.000Z</time>
      </trkpt>
      <trkpt lat="44.1312" lon="6.11624">
        <ele>772</ele>
        <time>2022-03-03T08:44:09.000Z</time>
      </trkpt>
      <trkpt lat="44.1312" lon="6.11623">
        <ele>772</ele>
        <time>2022-03-03T08:44:10.000Z</time>
      </trkpt>
      <trkpt lat="44.1312" lon="6.11623">
        <ele>772</ele>
        <time>2022-03-03T08:44:11.000Z</time>
      </trkpt>
      <trkpt lat="44.1312" lon="6.11622">
        <ele>772</ele>
        <time>2022-03-03T08:44:12.000Z</time>
      </trkpt>
      <trkpt lat="44.1312" lon="6.11622">
        <ele>772</ele>
        <time>2022-03-03T08:44:13.000Z</time>
      </trkpt>
      <trkpt lat="44.1312" lon="6.11621">
        <ele>773</ele>
        <time>2022-03-03T08:44:14.000Z</time>
      </trkpt>
      <trkpt lat="44.1312" lon="6.1162">
        <ele>773</ele>
        <time>2022-03-03T08:44:15.000Z</time>
      </trkpt>
      <trkpt lat="44.1312" lon="6.11619">
        <ele>773</ele>
        <time>2022-03-03T08:44:16.000Z</time>
      </trkpt>
      <trkpt lat="44.1312" lon="6.11619">
        <ele>773</ele>
        <time>2022-03-03T08:44:17.000Z</time>
      </trkpt>
      <trkpt lat="44.1312" lon="6.11618">
        <ele>774</ele>
        <time>2022-03-03T08:44:18.000Z</time>
      </trkpt>
      <trkpt lat="44.1312" lon="6.11617">
        <ele>774</ele>
        <time>2022-03-03T08:44:19.000Z</time>
      </trkpt>
      <trkpt lat="44.1312" lon="6.11616">
        <ele>774</ele>
        <time>2022-03-03T08:44:20.000Z</time>
      </trkpt>
      <trkpt lat="44.1312" lon="6.11615">
        <ele>774</ele>
        <time>2022-03-03T08:44:21.000Z</time>
      </trkpt>
      <trkpt lat="44.13119" lon="6.11614">
        <ele>774</ele>
        <time>2022-03-03T08:44:22.000Z</time>
      </trkpt>
      <trkpt lat="44.13119" lon="6.11613">
        <ele>774</ele>
        <time>2022-03-03T08:44:23.000Z</time>
      </trkpt>
      <trkpt lat="44.13119" lon="6.11612">
        <ele>774</ele>
        <time>2022-03-03T08:44:24.000Z</time>
      </trkpt>
      <trkpt lat="44.13119" lon="6.11612">
        <ele>774</ele>
        <time>2022-03-03T08:44:25.000Z</time>
      </trkpt>
      <trkpt lat="44.13119" lon="6.11611">
        <ele>774</ele>
        <time>2022-03-03T08:44:26.000Z</time>
      </trkpt>
      <trkpt lat="44.13119" lon="6.1161">
        <ele>774</ele>
        <time>2022-03-03T08:44:27.000Z</time>
      </trkpt>
      <trkpt lat="44.1312" lon="6.11609">
        <ele>775</ele>
        <time>2022-03-03T08:44:28.000Z</time>
      </trkpt>
      <trkpt lat="44.1312" lon="6.11609">
        <ele>775</ele>
        <time>2022-03-03T08:44:29.000Z</time>
      </trkpt>
      <trkpt lat="44.1312" lon="6.11608">
        <ele>775</ele>
        <time>2022-03-03T08:44:30.000Z</time>
      </trkpt>
      <trkpt lat="44.1312" lon="6.11607">
        <ele>775</ele>
        <time>2022-03-03T08:44:31.000Z</time>
      </trkpt>
      <trkpt lat="44.1312" lon="6.11607">
        <ele>775</ele>
        <time>2022-03-03T08:44:32.000Z</time>
      </trkpt>
      <trkpt lat="44.1312" lon="6.11606">
        <ele>776</ele>
        <time>2022-03-03T08:44:33.000Z</time>
      </trkpt>
      <trkpt lat="44.1312" lon="6.11605">
        <ele>776</ele>
        <time>2022-03-03T08:44:34.000Z</time>
      </trkpt>
      <trkpt lat="44.13121" lon="6.11604">
        <ele>776</ele>
        <time>2022-03-03T08:44:35.000Z</time>
      </trkpt>
      <trkpt lat="44.13121" lon="6.11604">
        <ele>776</ele>
        <time>2022-03-03T08:44:36.000Z</time>
      </trkpt>
      <trkpt lat="44.13121" lon="6.11603">
        <ele>777</ele>
        <time>2022-03-03T08:44:37.000Z</time>
      </trkpt>
      <trkpt lat="44.13121" lon="6.11603">
        <ele>777</ele>
        <time>2022-03-03T08:44:38.000Z</time>
      </trkpt>
      <trkpt lat="44.13121" lon="6.11603">
        <ele>777</ele>
        <time>2022-03-03T08:44:39.000Z</time>
      </trkpt>
      <trkpt lat="44.13121" lon="6.11603">
        <ele>777</ele>
        <time>2022-03-03T08:44:40.000Z</time>
      </trkpt>
      <trkpt lat="44.13121" lon="6.11603">
        <ele>777</ele>
        <time>2022-03-03T08:44:41.000Z</time>
      </trkpt>
      <trkpt lat="44.13121" lon="6.11603">
        <ele>777</ele>
        <time>2022-03-03T08:44:42.000Z</time>
      </trkpt>
      <trkpt lat="44.13121" lon="6.11603">
        <ele>777</ele>
        <time>2022-03-03T08:44:43.000Z</time>
      </trkpt>
      <trkpt lat="44.13121" lon="6.11603">
        <ele>777</ele>
        <time>2022-03-03T08:44:44.000Z</time>
      </trkpt>
      <trkpt lat="44.13121" lon="6.11603">
        <ele>777</ele>
        <time>2022-03-03T08:44:45.000Z</time>
      </trkpt>
      <trkpt lat="44.13121" lon="6.11603">
        <ele>777</ele>
        <time>2022-03-03T08:44:46.000Z</time>
      </trkpt>
      <trkpt lat="44.13121" lon="6.11603">
        <ele>777</ele>
        <time>2022-03-03T08:44:47.000Z</time>
      </trkpt>
      <trkpt lat="44.13121" lon="6.11603">
        <ele>777</ele>
        <time>2022-03-03T08:44:48.000Z</time>
      </trkpt>
      <trkpt lat="44.13121" lon="6.11602">
        <ele>778</ele>
        <time>2022-03-03T08:44:49.000Z</time>
      </trkpt>
      <trkpt lat="44.13121" lon="6.11601">
        <ele>778</ele>
        <time>2022-03-03T08:44:50.000Z</time>
      </trkpt>
      <trkpt lat="44.13121" lon="6.116">
        <ele>778</ele>
        <time>2022-03-03T08:44:51.000Z</time>
      </trkpt>
      <trkpt lat="44.1312" lon="6.11599">
        <ele>778</ele>
        <time>2022-03-03T08:44:52.000Z</time>
      </trkpt>
      <trkpt lat="44.1312" lon="6.11598">
        <ele>778</ele>
        <time>2022-03-03T08:44:53.000Z</time>
      </trkpt>
      <trkpt lat="44.1312" lon="6.11597">
        <ele>778</ele>
        <time>2022-03-03T08:44:54.000Z</time>
      </trkpt>
      <trkpt lat="44.1312" lon="6.11596">
        <ele>778</ele>
        <time>2022-03-03T08:44:55.000Z</time>
      </trkpt>
      <trkpt lat="44.1312" lon="6.11596">
        <ele>778</ele>
        <time>2022-03-03T08:44:56.000Z</time>
      </trkpt>
      <trkpt lat="44.1312" lon="6.11595">
        <ele>778</ele>
        <time>2022-03-03T08:44:57.000Z</time>
      </trkpt>
      <trkpt lat="44.1312" lon="6.11595">
        <ele>778</ele>
        <time>2022-03-03T08:44:58.000Z</time>
      </trkpt>
      <trkpt lat="44.1312" lon="6.11594">
        <ele>778</ele>
        <time>2022-03-03T08:44:59.000Z</time>
      </trkpt>
      <trkpt lat="44.1312" lon="6.11593">
        <ele>779</ele>
        <time>2022-03-03T08:45:00.000Z</time>
      </trkpt>
      <trkpt lat="44.1312" lon="6.11593">
        <ele>779</ele>
        <time>2022-03-03T08:45:01.000Z</time>
      </trkpt>
      <trkpt lat="44.1312" lon="6.11592">
        <ele>779</ele>
        <time>2022-03-03T08:45:02.000Z</time>
      </trkpt>
      <trkpt lat="44.1312" lon="6.11591">
        <ele>779</ele>
        <time>2022-03-03T08:45:03.000Z</time>
      </trkpt>
      <trkpt lat="44.1312" lon="6.1159">
        <ele>779</ele>
        <time>2022-03-03T08:45:04.000Z</time>
      </trkpt>
      <trkpt lat="44.1312" lon="6.11589">
        <ele>780</ele>
        <time>2022-03-03T08:45:05.000Z</time>
      </trkpt>
      <trkpt lat="44.1312" lon="6.11588">
        <ele>780</ele>
        <time>2022-03-03T08:45:06.000Z</time>
      </trkpt>
      <trkpt lat="44.13121" lon="6.11587">
        <ele>780</ele>
        <time>2022-03-03T08:45:07.000Z</time>
      </trkpt>
      <trkpt lat="44.13122" lon="6.11588">
        <ele>780</ele>
        <time>2022-03-03T08:45:08.000Z</time>
      </trkpt>
      <trkpt lat="44.13123" lon="6.11588">
        <ele>780</ele>
        <time>2022-03-03T08:45:09.000Z</time>
      </trkpt>
      <trkpt lat="44.13124" lon="6.11588">
        <ele>780</ele>
        <time>2022-03-03T08:45:10.000Z</time>
      </trkpt>
      <trkpt lat="44.13125" lon="6.11589">
        <ele>781</ele>
        <time>2022-03-03T08:45:11.000Z</time>
      </trkpt>
      <trkpt lat="44.13126" lon="6.11589">
        <ele>781</ele>
        <time>2022-03-03T08:45:12.000Z</time>
      </trkpt>
      <trkpt lat="44.13127" lon="6.11589">
        <ele>781</ele>
        <time>2022-03-03T08:45:13.000Z</time>
      </trkpt>
      <trkpt lat="44.13128" lon="6.11589">
        <ele>781</ele>
        <time>2022-03-03T08:45:14.000Z</time>
      </trkpt>
      <trkpt lat="44.13129" lon="6.11589">
        <ele>781</ele>
        <time>2022-03-03T08:45:15.000Z</time>
      </trkpt>
      <trkpt lat="44.1313" lon="6.11589">
        <ele>781</ele>
        <time>2022-03-03T08:45:16.000Z</time>
      </trkpt>
      <trkpt lat="44.13131" lon="6.11589">
        <ele>781</ele>
        <time>2022-03-03T08:45:17.000Z</time>
      </trkpt>
      <trkpt lat="44.13131" lon="6.11588">
        <ele>781</ele>
        <time>2022-03-03T08:45:18.000Z</time>
      </trkpt>
      <trkpt lat="44.13132" lon="6.11588">
        <ele>781</ele>
        <time>2022-03-03T08:45:19.000Z</time>
      </trkpt>
      <trkpt lat="44.13132" lon="6.11587">
        <ele>781</ele>
        <time>2022-03-03T08:45:20.000Z</time>
      </trkpt>
      <trkpt lat="44.13133" lon="6.11586">
        <ele>782</ele>
        <time>2022-03-03T08:45:21.000Z</time>
      </trkpt>
      <trkpt lat="44.13133" lon="6.11585">
        <ele>782</ele>
        <time>2022-03-03T08:45:22.000Z</time>
      </trkpt>
      <trkpt lat="44.13133" lon="6.11584">
        <ele>782</ele>
        <time>2022-03-03T08:45:23.000Z</time>
      </trkpt>
      <trkpt lat="44.13133" lon="6.11583">
        <ele>782</ele>
        <time>2022-03-03T08:45:24.000Z</time>
      </trkpt>
      <trkpt lat="44.13133" lon="6.11582">
        <ele>782</ele>
        <time>2022-03-03T08:45:25.000Z</time>
      </trkpt>
      <trkpt lat="44.13132" lon="6.11581">
        <ele>782</ele>
        <time>2022-03-03T08:45:26.000Z</time>
      </trkpt>
      <trkpt lat="44.13132" lon="6.1158">
        <ele>783</ele>
        <time>2022-03-03T08:45:27.000Z</time>
      </trkpt>
      <trkpt lat="44.13131" lon="6.11579">
        <ele>783</ele>
        <time>2022-03-03T08:45:28.000Z</time>
      </trkpt>
      <trkpt lat="44.13131" lon="6.11578">
        <ele>783</ele>
        <time>2022-03-03T08:45:29.000Z</time>
      </trkpt>
      <trkpt lat="44.1313" lon="6.11577">
        <ele>783</ele>
        <time>2022-03-03T08:45:30.000Z</time>
      </trkpt>
      <trkpt lat="44.1313" lon="6.11576">
        <ele>783</ele>
        <time>2022-03-03T08:45:31.000Z</time>
      </trkpt>
      <trkpt lat="44.13129" lon="6.11576">
        <ele>784</ele>
        <time>2022-03-03T08:45:32.000Z</time>
      </trkpt>
      <trkpt lat="44.13128" lon="6.11575">
        <ele>784</ele>
        <time>2022-03-03T08:45:33.000Z</time>
      </trkpt>
      <trkpt lat="44.13128" lon="6.11575">
        <ele>784</ele>
        <time>2022-03-03T08:45:34.000Z</time>
      </trkpt>
      <trkpt lat="44.13127" lon="6.11575">
        <ele>784</ele>
        <time>2022-03-03T08:45:35.000Z</time>
      </trkpt>
      <trkpt lat="44.13126" lon="6.11574">
        <ele>785</ele>
        <time>2022-03-03T08:45:36.000Z</time>
      </trkpt>
      <trkpt lat="44.13125" lon="6.11573">
        <ele>785</ele>
        <time>2022-03-03T08:45:37.000Z</time>
      </trkpt>
      <trkpt lat="44.13125" lon="6.11573">
        <ele>785</ele>
        <time>2022-03-03T08:45:38.000Z</time>
      </trkpt>
      <trkpt lat="44.13124" lon="6.11572">
        <ele>785</ele>
        <time>2022-03-03T08:45:39.000Z</time>
      </trkpt>
      <trkpt lat="44.13123" lon="6.11572">
        <ele>786</ele>
        <time>2022-03-03T08:45:40.000Z</time>
      </trkpt>
      <trkpt lat="44.13122" lon="6.11571">
        <ele>786</ele>
        <time>2022-03-03T08:45:41.000Z</time>
      </trkpt>
      <trkpt lat="44.13122" lon="6.11571">
        <ele>786</ele>
        <time>2022-03-03T08:45:42.000Z</time>
      </trkpt>
      <trkpt lat="44.13121" lon="6.1157">
        <ele>786</ele>
        <time>2022-03-03T08:45:43.000Z</time>
      </trkpt>
      <trkpt lat="44.1312" lon="6.1157">
        <ele>786</ele>
        <time>2022-03-03T08:45:44.000Z</time>
      </trkpt>
      <trkpt lat="44.1312" lon="6.11569">
        <ele>787</ele>
        <time>2022-03-03T08:45:45.000Z</time>
      </trkpt>
      <trkpt lat="44.13119" lon="6.11569">
        <ele>787</ele>
        <time>2022-03-03T08:45:46.000Z</time>
      </trkpt>
      <trkpt lat="44.13118" lon="6.11568">
        <ele>787</ele>
        <time>2022-03-03T08:45:47.000Z</time>
      </trkpt>
      <trkpt lat="44.13117" lon="6.11567">
        <ele>787</ele>
        <time>2022-03-03T08:45:48.000Z</time>
      </trkpt>
      <trkpt lat="44.13117" lon="6.11567">
        <ele>787</ele>
        <time>2022-03-03T08:45:49.000Z</time>
      </trkpt>
      <trkpt lat="44.13117" lon="6.11567">
        <ele>788</ele>
        <time>2022-03-03T08:45:50.000Z</time>
      </trkpt>
      <trkpt lat="44.13117" lon="6.11567">
        <ele>788</ele>
        <time>2022-03-03T08:45:51.000Z</time>
      </trkpt>
      <trkpt lat="44.13117" lon="6.11567">
        <ele>788</ele>
        <time>2022-03-03T08:45:52.000Z</time>
      </trkpt>
      <trkpt lat="44.13116" lon="6.11567">
        <ele>788</ele>
        <time>2022-03-03T08:45:53.000Z</time>
      </trkpt>
      <trkpt lat="44.13116" lon="6.11567">
        <ele>788</ele>
        <time>2022-03-03T08:45:54.000Z</time>
      </trkpt>
      <trkpt lat="44.13116" lon="6.11567">
        <ele>788</ele>
        <time>2022-03-03T08:45:55.000Z</time>
      </trkpt>
      <trkpt lat="44.13116" lon="6.11567">
        <ele>788</ele>
        <time>2022-03-03T08:45:56.000Z</time>
      </trkpt>
      <trkpt lat="44.13116" lon="6.11567">
        <ele>788</ele>
        <time>2022-03-03T08:45:57.000Z</time>
      </trkpt>
      <trkpt lat="44.13116" lon="6.11567">
        <ele>788</ele>
        <time>2022-03-03T08:45:58.000Z</time>
      </trkpt>
      <trkpt lat="44.13116" lon="6.11567">
        <ele>788</ele>
        <time>2022-03-03T08:45:59.000Z</time>
      </trkpt>
      <trkpt lat="44.13116" lon="6.11567">
        <ele>788</ele>
        <time>2022-03-03T08:46:00.000Z</time>
      </trkpt>
      <trkpt lat="44.13116" lon="6.11567">
        <ele>788</ele>
        <time>2022-03-03T08:46:01.000Z</time>
      </trkpt>
      <trkpt lat="44.13116" lon="6.11567">
        <ele>788</ele>
        <time>2022-03-03T08:46:02.000Z</time>
      </trkpt>
      <trkpt lat="44.13116" lon="6.11567">
        <ele>788</ele>
        <time>2022-03-03T08:46:03.000Z</time>
      </trkpt>
      <trkpt lat="44.13116" lon="6.11567">
        <ele>788</ele>
        <time>2022-03-03T08:46:04.000Z</time>
      </trkpt>
      <trkpt lat="44.13116" lon="6.11567">
        <ele>788</ele>
        <time>2022-03-03T08:46:05.000Z</time>
      </trkpt>
      <trkpt lat="44.13116" lon="6.11567">
        <ele>788</ele>
        <time>2022-03-03T08:46:06.000Z</time>
      </trkpt>
      <trkpt lat="44.13116" lon="6.11567">
        <ele>788</ele>
        <time>2022-03-03T08:46:07.000Z</time>
      </trkpt>
      <trkpt lat="44.13116" lon="6.11567">
        <ele>788</ele>
        <time>2022-03-03T08:46:08.000Z</time>
      </trkpt>
      <trkpt lat="44.13116" lon="6.11567">
        <ele>788</ele>
        <time>2022-03-03T08:46:09.000Z</time>
      </trkpt>
      <trkpt lat="44.13116" lon="6.11567">
        <ele>788</ele>
        <time>2022-03-03T08:46:10.000Z</time>
      </trkpt>
      <trkpt lat="44.13116" lon="6.11567">
        <ele>788</ele>
        <time>2022-03-03T08:46:11.000Z</time>
      </trkpt>
      <trkpt lat="44.13116" lon="6.11567">
        <ele>788</ele>
        <time>2022-03-03T08:46:12.000Z</time>
      </trkpt>
      <trkpt lat="44.13116" lon="6.11567">
        <ele>788</ele>
        <time>2022-03-03T08:46:13.000Z</time>
      </trkpt>
      <trkpt lat="44.13116" lon="6.11568">
        <ele>788</ele>
        <time>2022-03-03T08:46:14.000Z</time>
      </trkpt>
      <trkpt lat="44.13116" lon="6.11568">
        <ele>788</ele>
        <time>2022-03-03T08:46:15.000Z</time>
      </trkpt>
      <trkpt lat="44.13116" lon="6.11568">
        <ele>788</ele>
        <time>2022-03-03T08:46:16.000Z</time>
      </trkpt>
      <trkpt lat="44.13116" lon="6.11568">
        <ele>788</ele>
        <time>2022-03-03T08:46:17.000Z</time>
      </trkpt>
      <trkpt lat="44.13115" lon="6.11568">
        <ele>788</ele>
        <time>2022-03-03T08:46:18.000Z</time>
      </trkpt>
      <trkpt lat="44.13115" lon="6.11568">
        <ele>788</ele>
        <time>2022-03-03T08:46:19.000Z</time>
      </trkpt>
      <trkpt lat="44.13114" lon="6.11567">
        <ele>788</ele>
        <time>2022-03-03T08:46:20.000Z</time>
      </trkpt>
      <trkpt lat="44.13113" lon="6.11567">
        <ele>788</ele>
        <time>2022-03-03T08:46:21.000Z</time>
      </trkpt>
      <trkpt lat="44.13112" lon="6.11566">
        <ele>789</ele>
        <time>2022-03-03T08:46:22.000Z</time>
      </trkpt>
      <trkpt lat="44.13112" lon="6.11565">
        <ele>789</ele>
        <time>2022-03-03T08:46:23.000Z</time>
      </trkpt>
      <trkpt lat="44.13111" lon="6.11565">
        <ele>789</ele>
        <time>2022-03-03T08:46:24.000Z</time>
      </trkpt>
      <trkpt lat="44.1311" lon="6.11564">
        <ele>789</ele>
        <time>2022-03-03T08:46:25.000Z</time>
      </trkpt>
      <trkpt lat="44.13109" lon="6.11563">
        <ele>789</ele>
        <time>2022-03-03T08:46:26.000Z</time>
      </trkpt>
      <trkpt lat="44.13109" lon="6.11562">
        <ele>789</ele>
        <time>2022-03-03T08:46:27.000Z</time>
      </trkpt>
      <trkpt lat="44.13108" lon="6.11561">
        <ele>789</ele>
        <time>2022-03-03T08:46:28.000Z</time>
      </trkpt>
      <trkpt lat="44.13107" lon="6.11561">
        <ele>789</ele>
        <time>2022-03-03T08:46:29.000Z</time>
      </trkpt>
      <trkpt lat="44.13106" lon="6.1156">
        <ele>789</ele>
        <time>2022-03-03T08:46:30.000Z</time>
      </trkpt>
      <trkpt lat="44.13105" lon="6.11559">
        <ele>790</ele>
        <time>2022-03-03T08:46:31.000Z</time>
      </trkpt>
      <trkpt lat="44.13104" lon="6.11559">
        <ele>790</ele>
        <time>2022-03-03T08:46:32.000Z</time>
      </trkpt>
      <trkpt lat="44.13103" lon="6.11558">
        <ele>790</ele>
        <time>2022-03-03T08:46:33.000Z</time>
      </trkpt>
      <trkpt lat="44.13102" lon="6.11557">
        <ele>790</ele>
        <time>2022-03-03T08:46:34.000Z</time>
      </trkpt>
      <trkpt lat="44.13102" lon="6.11556">
        <ele>790</ele>
        <time>2022-03-03T08:46:35.000Z</time>
      </trkpt>
      <trkpt lat="44.13101" lon="6.11555">
        <ele>790</ele>
        <time>2022-03-03T08:46:36.000Z</time>
      </trkpt>
      <trkpt lat="44.131" lon="6.11554">
        <ele>791</ele>
        <time>2022-03-03T08:46:37.000Z</time>
      </trkpt>
      <trkpt lat="44.13099" lon="6.11553">
        <ele>791</ele>
        <time>2022-03-03T08:46:38.000Z</time>
      </trkpt>
      <trkpt lat="44.13098" lon="6.11552">
        <ele>791</ele>
        <time>2022-03-03T08:46:39.000Z</time>
      </trkpt>
      <trkpt lat="44.13097" lon="6.11551">
        <ele>791</ele>
        <time>2022-03-03T08:46:40.000Z</time>
      </trkpt>
      <trkpt lat="44.13097" lon="6.1155">
        <ele>791</ele>
        <time>2022-03-03T08:46:41.000Z</time>
      </trkpt>
      <trkpt lat="44.13096" lon="6.11549">
        <ele>791</ele>
        <time>2022-03-03T08:46:42.000Z</time>
      </trkpt>
      <trkpt lat="44.13095" lon="6.11548">
        <ele>791</ele>
        <time>2022-03-03T08:46:43.000Z</time>
      </trkpt>
      <trkpt lat="44.13094" lon="6.11547">
        <ele>791</ele>
        <time>2022-03-03T08:46:44.000Z</time>
      </trkpt>
      <trkpt lat="44.13093" lon="6.11546">
        <ele>791</ele>
        <time>2022-03-03T08:46:45.000Z</time>
      </trkpt>
      <trkpt lat="44.13092" lon="6.11545">
        <ele>792</ele>
        <time>2022-03-03T08:46:46.000Z</time>
      </trkpt>
      <trkpt lat="44.13092" lon="6.11544">
        <ele>792</ele>
        <time>2022-03-03T08:46:47.000Z</time>
      </trkpt>
      <trkpt lat="44.13091" lon="6.11542">
        <ele>792</ele>
        <time>2022-03-03T08:46:48.000Z</time>
      </trkpt>
      <trkpt lat="44.1309" lon="6.11541">
        <ele>792</ele>
        <time>2022-03-03T08:46:49.000Z</time>
      </trkpt>
      <trkpt lat="44.1309" lon="6.1154">
        <ele>792</ele>
        <time>2022-03-03T08:46:50.000Z</time>
      </trkpt>
      <trkpt lat="44.13089" lon="6.11538">
        <ele>792</ele>
        <time>2022-03-03T08:46:51.000Z</time>
      </trkpt>
      <trkpt lat="44.13089" lon="6.11537">
        <ele>792</ele>
        <time>2022-03-03T08:46:52.000Z</time>
      </trkpt>
      <trkpt lat="44.13088" lon="6.11535">
        <ele>792</ele>
        <time>2022-03-03T08:46:53.000Z</time>
      </trkpt>
      <trkpt lat="44.13088" lon="6.11534">
        <ele>792</ele>
        <time>2022-03-03T08:46:54.000Z</time>
      </trkpt>
      <trkpt lat="44.13087" lon="6.11532">
        <ele>792</ele>
        <time>2022-03-03T08:46:55.000Z</time>
      </trkpt>
      <trkpt lat="44.13087" lon="6.11531">
        <ele>792</ele>
        <time>2022-03-03T08:46:56.000Z</time>
      </trkpt>
      <trkpt lat="44.13086" lon="6.11529">
        <ele>792</ele>
        <time>2022-03-03T08:46:57.000Z</time>
      </trkpt>
      <trkpt lat="44.13086" lon="6.11528">
        <ele>792</ele>
        <time>2022-03-03T08:46:58.000Z</time>
      </trkpt>
      <trkpt lat="44.13086" lon="6.11526">
        <ele>792</ele>
        <time>2022-03-03T08:46:59.000Z</time>
      </trkpt>
      <trkpt lat="44.13086" lon="6.11524">
        <ele>792</ele>
        <time>2022-03-03T08:47:00.000Z</time>
      </trkpt>
      <trkpt lat="44.13086" lon="6.11522">
        <ele>792</ele>
        <time>2022-03-03T08:47:01.000Z</time>
      </trkpt>
      <trkpt lat="44.13085" lon="6.11521">
        <ele>792</ele>
        <time>2022-03-03T08:47:02.000Z</time>
      </trkpt>
      <trkpt lat="44.13085" lon="6.11519">
        <ele>792</ele>
        <time>2022-03-03T08:47:03.000Z</time>
      </trkpt>
      <trkpt lat="44.13085" lon="6.11518">
        <ele>792</ele>
        <time>2022-03-03T08:47:04.000Z</time>
      </trkpt>
      <trkpt lat="44.13085" lon="6.11516">
        <ele>793</ele>
        <time>2022-03-03T08:47:05.000Z</time>
      </trkpt>
      <trkpt lat="44.13085" lon="6.11514">
        <ele>793</ele>
        <time>2022-03-03T08:47:06.000Z</time>
      </trkpt>
      <trkpt lat="44.13085" lon="6.11513">
        <ele>793</ele>
        <time>2022-03-03T08:47:07.000Z</time>
      </trkpt>
      <trkpt lat="44.13085" lon="6.11511">
        <ele>793</ele>
        <time>2022-03-03T08:47:08.000Z</time>
      </trkpt>
      <trkpt lat="44.13085" lon="6.1151">
        <ele>793</ele>
        <time>2022-03-03T08:47:09.000Z</time>
      </trkpt>
      <trkpt lat="44.13085" lon="6.11508">
        <ele>793</ele>
        <time>2022-03-03T08:47:10.000Z</time>
      </trkpt>
      <trkpt lat="44.13085" lon="6.11506">
        <ele>793</ele>
        <time>2022-03-03T08:47:11.000Z</time>
      </trkpt>
      <trkpt lat="44.13085" lon="6.11504">
        <ele>793</ele>
        <time>2022-03-03T08:47:12.000Z</time>
      </trkpt>
      <trkpt lat="44.13085" lon="6.11503">
        <ele>793</ele>
        <time>2022-03-03T08:47:13.000Z</time>
      </trkpt>
      <trkpt lat="44.13086" lon="6.11503">
        <ele>793</ele>
        <time>2022-03-03T08:47:14.000Z</time>
      </trkpt>
      <trkpt lat="44.13086" lon="6.11503">
        <ele>793</ele>
        <time>2022-03-03T08:47:15.000Z</time>
      </trkpt>
      <trkpt lat="44.13086" lon="6.11503">
        <ele>793</ele>
        <time>2022-03-03T08:47:16.000Z</time>
      </trkpt>
      <trkpt lat="44.13086" lon="6.11503">
        <ele>793</ele>
        <time>2022-03-03T08:47:17.000Z</time>
      </trkpt>
      <trkpt lat="44.13086" lon="6.11503">
        <ele>793</ele>
        <time>2022-03-03T08:47:18.000Z</time>
      </trkpt>
      <trkpt lat="44.13086" lon="6.11503">
        <ele>793</ele>
        <time>2022-03-03T08:47:19.000Z</time>
      </trkpt>
      <trkpt lat="44.13086" lon="6.11503">
        <ele>793</ele>
        <time>2022-03-03T08:47:20.000Z</time>
      </trkpt>
      <trkpt lat="44.13086" lon="6.11503">
        <ele>793</ele>
        <time>2022-03-03T08:47:21.000Z</time>
      </trkpt>
      <trkpt lat="44.13086" lon="6.11503">
        <ele>793</ele>
        <time>2022-03-03T08:47:22.000Z</time>
      </trkpt>
      <trkpt lat="44.13086" lon="6.11503">
        <ele>793</ele>
        <time>2022-03-03T08:47:23.000Z</time>
      </trkpt>
      <trkpt lat="44.13085" lon="6.11503">
        <ele>793</ele>
        <time>2022-03-03T08:47:24.000Z</time>
      </trkpt>
      <trkpt lat="44.13085" lon="6.11503">
        <ele>793</ele>
        <time>2022-03-03T08:47:25.000Z</time>
      </trkpt>
      <trkpt lat="44.13086" lon="6.11503">
        <ele>793</ele>
        <time>2022-03-03T08:47:26.000Z</time>
      </trkpt>
      <trkpt lat="44.13086" lon="6.11503">
        <ele>793</ele>
        <time>2022-03-03T08:47:27.000Z</time>
      </trkpt>
      <trkpt lat="44.13086" lon="6.11503">
        <ele>793</ele>
        <time>2022-03-03T08:47:28.000Z</time>
      </trkpt>
      <trkpt lat="44.13086" lon="6.11503">
        <ele>793</ele>
        <time>2022-03-03T08:47:29.000Z</time>
      </trkpt>
      <trkpt lat="44.13086" lon="6.11503">
        <ele>793</ele>
        <time>2022-03-03T08:47:30.000Z</time>
      </trkpt>
      <trkpt lat="44.13086" lon="6.11503">
        <ele>793</ele>
        <time>2022-03-03T08:47:31.000Z</time>
      </trkpt>
      <trkpt lat="44.13086" lon="6.11503">
        <ele>793</ele>
        <time>2022-03-03T08:47:32.000Z</time>
      </trkpt>
      <trkpt lat="44.13086" lon="6.11503">
        <ele>794</ele>
        <time>2022-03-03T08:47:33.000Z</time>
      </trkpt>
      <trkpt lat="44.13086" lon="6.11503">
        <ele>794</ele>
        <time>2022-03-03T08:47:34.000Z</time>
      </trkpt>
      <trkpt lat="44.13086" lon="6.11502">
        <ele>794</ele>
        <time>2022-03-03T08:47:35.000Z</time>
      </trkpt>
      <trkpt lat="44.13086" lon="6.11502">
        <ele>794</ele>
        <time>2022-03-03T08:47:36.000Z</time>
      </trkpt>
      <trkpt lat="44.13086" lon="6.11502">
        <ele>794</ele>
        <time>2022-03-03T08:47:37.000Z</time>
      </trkpt>
      <trkpt lat="44.13086" lon="6.11502">
        <ele>794</ele>
        <time>2022-03-03T08:47:38.000Z</time>
      </trkpt>
      <trkpt lat="44.13086" lon="6.11502">
        <ele>794</ele>
        <time>2022-03-03T08:47:39.000Z</time>
      </trkpt>
      <trkpt lat="44.13086" lon="6.11502">
        <ele>794</ele>
        <time>2022-03-03T08:47:40.000Z</time>
      </trkpt>
      <trkpt lat="44.13086" lon="6.11502">
        <ele>794</ele>
        <time>2022-03-03T08:47:41.000Z</time>
      </trkpt>
      <trkpt lat="44.13086" lon="6.11502">
        <ele>794</ele>
        <time>2022-03-03T08:47:42.000Z</time>
      </trkpt>
      <trkpt lat="44.13086" lon="6.11502">
        <ele>794</ele>
        <time>2022-03-03T08:47:43.000Z</time>
      </trkpt>
      <trkpt lat="44.13086" lon="6.11502">
        <ele>794</ele>
        <time>2022-03-03T08:47:44.000Z</time>
      </trkpt>
      <trkpt lat="44.13086" lon="6.11502">
        <ele>794</ele>
        <time>2022-03-03T08:47:45.000Z</time>
      </trkpt>
      <trkpt lat="44.13086" lon="6.11502">
        <ele>794</ele>
        <time>2022-03-03T08:47:46.000Z</time>
      </trkpt>
      <trkpt lat="44.13086" lon="6.11501">
        <ele>794</ele>
        <time>2022-03-03T08:47:47.000Z</time>
      </trkpt>
      <trkpt lat="44.13086" lon="6.115">
        <ele>794</ele>
        <time>2022-03-03T08:47:48.000Z</time>
      </trkpt>
      <trkpt lat="44.13086" lon="6.11499">
        <ele>794</ele>
        <time>2022-03-03T08:47:49.000Z</time>
      </trkpt>
      <trkpt lat="44.13086" lon="6.11498">
        <ele>794</ele>
        <time>2022-03-03T08:47:50.000Z</time>
      </trkpt>
      <trkpt lat="44.13086" lon="6.11498">
        <ele>794</ele>
        <time>2022-03-03T08:47:51.000Z</time>
      </trkpt>
      <trkpt lat="44.13086" lon="6.11497">
        <ele>794</ele>
        <time>2022-03-03T08:47:52.000Z</time>
      </trkpt>
      <trkpt lat="44.13086" lon="6.11496">
        <ele>794</ele>
        <time>2022-03-03T08:47:53.000Z</time>
      </trkpt>
      <trkpt lat="44.13087" lon="6.11495">
        <ele>794</ele>
        <time>2022-03-03T08:47:54.000Z</time>
      </trkpt>
      <trkpt lat="44.13087" lon="6.11493">
        <ele>794</ele>
        <time>2022-03-03T08:47:55.000Z</time>
      </trkpt>
      <trkpt lat="44.13087" lon="6.11492">
        <ele>795</ele>
        <time>2022-03-03T08:47:56.000Z</time>
      </trkpt>
      <trkpt lat="44.13087" lon="6.11491">
        <ele>795</ele>
        <time>2022-03-03T08:47:57.000Z</time>
      </trkpt>
      <trkpt lat="44.13087" lon="6.11489">
        <ele>795</ele>
        <time>2022-03-03T08:47:58.000Z</time>
      </trkpt>
      <trkpt lat="44.13087" lon="6.11488">
        <ele>795</ele>
        <time>2022-03-03T08:47:59.000Z</time>
      </trkpt>
      <trkpt lat="44.13088" lon="6.11486">
        <ele>795</ele>
        <time>2022-03-03T08:48:00.000Z</time>
      </trkpt>
      <trkpt lat="44.13088" lon="6.11485">
        <ele>795</ele>
        <time>2022-03-03T08:48:01.000Z</time>
      </trkpt>
      <trkpt lat="44.13088" lon="6.11484">
        <ele>795</ele>
        <time>2022-03-03T08:48:02.000Z</time>
      </trkpt>
      <trkpt lat="44.13088" lon="6.11482">
        <ele>795</ele>
        <time>2022-03-03T08:48:03.000Z</time>
      </trkpt>
      <trkpt lat="44.13089" lon="6.11481">
        <ele>795</ele>
        <time>2022-03-03T08:48:04.000Z</time>
      </trkpt>
      <trkpt lat="44.13088" lon="6.11479">
        <ele>795</ele>
        <time>2022-03-03T08:48:05.000Z</time>
      </trkpt>
      <trkpt lat="44.13089" lon="6.11478">
        <ele>795</ele>
        <time>2022-03-03T08:48:06.000Z</time>
      </trkpt>
      <trkpt lat="44.13089" lon="6.11477">
        <ele>795</ele>
        <time>2022-03-03T08:48:07.000Z</time>
      </trkpt>
      <trkpt lat="44.13089" lon="6.11475">
        <ele>795</ele>
        <time>2022-03-03T08:48:08.000Z</time>
      </trkpt>
      <trkpt lat="44.13089" lon="6.11474">
        <ele>795</ele>
        <time>2022-03-03T08:48:09.000Z</time>
      </trkpt>
      <trkpt lat="44.13089" lon="6.11473">
        <ele>795</ele>
        <time>2022-03-03T08:48:10.000Z</time>
      </trkpt>
      <trkpt lat="44.13089" lon="6.11472">
        <ele>795</ele>
        <time>2022-03-03T08:48:11.000Z</time>
      </trkpt>
      <trkpt lat="44.1309" lon="6.11471">
        <ele>795</ele>
        <time>2022-03-03T08:48:12.000Z</time>
      </trkpt>
      <trkpt lat="44.1309" lon="6.11469">
        <ele>795</ele>
        <time>2022-03-03T08:48:13.000Z</time>
      </trkpt>
      <trkpt lat="44.1309" lon="6.11468">
        <ele>795</ele>
        <time>2022-03-03T08:48:14.000Z</time>
      </trkpt>
      <trkpt lat="44.1309" lon="6.11466">
        <ele>795</ele>
        <time>2022-03-03T08:48:15.000Z</time>
      </trkpt>
      <trkpt lat="44.1309" lon="6.11464">
        <ele>795</ele>
        <time>2022-03-03T08:48:16.000Z</time>
      </trkpt>
      <trkpt lat="44.1309" lon="6.11463">
        <ele>795</ele>
        <time>2022-03-03T08:48:17.000Z</time>
      </trkpt>
      <trkpt lat="44.1309" lon="6.11462">
        <ele>795</ele>
        <time>2022-03-03T08:48:18.000Z</time>
      </trkpt>
      <trkpt lat="44.1309" lon="6.1146">
        <ele>795</ele>
        <time>2022-03-03T08:48:19.000Z</time>
      </trkpt>
      <trkpt lat="44.1309" lon="6.11459">
        <ele>795</ele>
        <time>2022-03-03T08:48:20.000Z</time>
      </trkpt>
      <trkpt lat="44.1309" lon="6.11457">
        <ele>795</ele>
        <time>2022-03-03T08:48:21.000Z</time>
      </trkpt>
      <trkpt lat="44.1309" lon="6.11456">
        <ele>795</ele>
        <time>2022-03-03T08:48:22.000Z</time>
      </trkpt>
      <trkpt lat="44.1309" lon="6.11455">
        <ele>795</ele>
        <time>2022-03-03T08:48:23.000Z</time>
      </trkpt>
      <trkpt lat="44.1309" lon="6.11454">
        <ele>795</ele>
        <time>2022-03-03T08:48:24.000Z</time>
      </trkpt>
      <trkpt lat="44.1309" lon="6.11452">
        <ele>795</ele>
        <time>2022-03-03T08:48:25.000Z</time>
      </trkpt>
      <trkpt lat="44.1309" lon="6.11451">
        <ele>795</ele>
        <time>2022-03-03T08:48:26.000Z</time>
      </trkpt>
      <trkpt lat="44.13091" lon="6.11449">
        <ele>795</ele>
        <time>2022-03-03T08:48:27.000Z</time>
      </trkpt>
      <trkpt lat="44.13091" lon="6.11448">
        <ele>796</ele>
        <time>2022-03-03T08:48:28.000Z</time>
      </trkpt>
      <trkpt lat="44.13091" lon="6.11447">
        <ele>796</ele>
        <time>2022-03-03T08:48:29.000Z</time>
      </trkpt>
      <trkpt lat="44.13091" lon="6.11446">
        <ele>796</ele>
        <time>2022-03-03T08:48:30.000Z</time>
      </trkpt>
      <trkpt lat="44.13091" lon="6.11445">
        <ele>796</ele>
        <time>2022-03-03T08:48:31.000Z</time>
      </trkpt>
      <trkpt lat="44.13091" lon="6.11445">
        <ele>796</ele>
        <time>2022-03-03T08:48:32.000Z</time>
      </trkpt>
      <trkpt lat="44.13091" lon="6.11445">
        <ele>796</ele>
        <time>2022-03-03T08:48:33.000Z</time>
      </trkpt>
      <trkpt lat="44.13091" lon="6.11445">
        <ele>796</ele>
        <time>2022-03-03T08:48:34.000Z</time>
      </trkpt>
      <trkpt lat="44.13091" lon="6.11445">
        <ele>796</ele>
        <time>2022-03-03T08:48:35.000Z</time>
      </trkpt>
      <trkpt lat="44.13091" lon="6.11445">
        <ele>796</ele>
        <time>2022-03-03T08:48:36.000Z</time>
      </trkpt>
      <trkpt lat="44.13091" lon="6.11445">
        <ele>796</ele>
        <time>2022-03-03T08:48:37.000Z</time>
      </trkpt>
      <trkpt lat="44.13091" lon="6.11445">
        <ele>796</ele>
        <time>2022-03-03T08:48:38.000Z</time>
      </trkpt>
      <trkpt lat="44.13091" lon="6.11445">
        <ele>796</ele>
        <time>2022-03-03T08:48:39.000Z</time>
      </trkpt>
      <trkpt lat="44.13091" lon="6.11445">
        <ele>796</ele>
        <time>2022-03-03T08:48:40.000Z</time>
      </trkpt>
      <trkpt lat="44.13091" lon="6.11445">
        <ele>796</ele>
        <time>2022-03-03T08:48:41.000Z</time>
      </trkpt>
      <trkpt lat="44.13091" lon="6.11445">
        <ele>796</ele>
        <time>2022-03-03T08:48:42.000Z</time>
      </trkpt>
      <trkpt lat="44.13091" lon="6.11445">
        <ele>796</ele>
        <time>2022-03-03T08:48:43.000Z</time>
      </trkpt>
      <trkpt lat="44.13091" lon="6.11445">
        <ele>796</ele>
        <time>2022-03-03T08:48:44.000Z</time>
      </trkpt>
      <trkpt lat="44.13091" lon="6.11444">
        <ele>796</ele>
        <time>2022-03-03T08:48:45.000Z</time>
      </trkpt>
      <trkpt lat="44.13091" lon="6.11444">
        <ele>796</ele>
        <time>2022-03-03T08:48:46.000Z</time>
      </trkpt>
      <trkpt lat="44.13092" lon="6.11443">
        <ele>796</ele>
        <time>2022-03-03T08:48:47.000Z</time>
      </trkpt>
      <trkpt lat="44.13092" lon="6.11443">
        <ele>796</ele>
        <time>2022-03-03T08:48:48.000Z</time>
      </trkpt>
      <trkpt lat="44.13091" lon="6.11443">
        <ele>796</ele>
        <time>2022-03-03T08:48:49.000Z</time>
      </trkpt>
      <trkpt lat="44.13091" lon="6.11442">
        <ele>796</ele>
        <time>2022-03-03T08:48:50.000Z</time>
      </trkpt>
      <trkpt lat="44.13091" lon="6.11442">
        <ele>796</ele>
        <time>2022-03-03T08:48:51.000Z</time>
      </trkpt>
      <trkpt lat="44.13091" lon="6.11442">
        <ele>796</ele>
        <time>2022-03-03T08:48:52.000Z</time>
      </trkpt>
      <trkpt lat="44.13091" lon="6.11442">
        <ele>796</ele>
        <time>2022-03-03T08:48:53.000Z</time>
      </trkpt>
      <trkpt lat="44.13091" lon="6.11442">
        <ele>796</ele>
        <time>2022-03-03T08:48:54.000Z</time>
      </trkpt>
      <trkpt lat="44.13091" lon="6.11442">
        <ele>796</ele>
        <time>2022-03-03T08:48:55.000Z</time>
      </trkpt>
      <trkpt lat="44.13091" lon="6.11442">
        <ele>796</ele>
        <time>2022-03-03T08:48:56.000Z</time>
      </trkpt>
      <trkpt lat="44.13091" lon="6.11442">
        <ele>796</ele>
        <time>2022-03-03T08:48:57.000Z</time>
      </trkpt>
      <trkpt lat="44.13091" lon="6.11442">
        <ele>796</ele>
        <time>2022-03-03T08:48:58.000Z</time>
      </trkpt>
      <trkpt lat="44.13091" lon="6.11442">
        <ele>796</ele>
        <time>2022-03-03T08:48:59.000Z</time>
      </trkpt>
      <trkpt lat="44.13091" lon="6.11441">
        <ele>796</ele>
        <time>2022-03-03T08:49:00.000Z</time>
      </trkpt>
      <trkpt lat="44.13091" lon="6.1144">
        <ele>796</ele>
        <time>2022-03-03T08:49:01.000Z</time>
      </trkpt>
      <trkpt lat="44.13091" lon="6.11438">
        <ele>796</ele>
        <time>2022-03-03T08:49:02.000Z</time>
      </trkpt>
      <trkpt lat="44.13091" lon="6.11437">
        <ele>796</ele>
        <time>2022-03-03T08:49:03.000Z</time>
      </trkpt>
      <trkpt lat="44.13091" lon="6.11436">
        <ele>796</ele>
        <time>2022-03-03T08:49:04.000Z</time>
      </trkpt>
      <trkpt lat="44.13091" lon="6.11434">
        <ele>797</ele>
        <time>2022-03-03T08:49:05.000Z</time>
      </trkpt>
      <trkpt lat="44.13091" lon="6.11433">
        <ele>797</ele>
        <time>2022-03-03T08:49:06.000Z</time>
      </trkpt>
      <trkpt lat="44.13091" lon="6.11432">
        <ele>797</ele>
        <time>2022-03-03T08:49:07.000Z</time>
      </trkpt>
      <trkpt lat="44.13091" lon="6.1143">
        <ele>797</ele>
        <time>2022-03-03T08:49:08.000Z</time>
      </trkpt>
      <trkpt lat="44.13091" lon="6.11429">
        <ele>797</ele>
        <time>2022-03-03T08:49:09.000Z</time>
      </trkpt>
      <trkpt lat="44.13091" lon="6.11428">
        <ele>797</ele>
        <time>2022-03-03T08:49:10.000Z</time>
      </trkpt>
      <trkpt lat="44.13091" lon="6.11426">
        <ele>797</ele>
        <time>2022-03-03T08:49:11.000Z</time>
      </trkpt>
      <trkpt lat="44.13091" lon="6.11425">
        <ele>797</ele>
        <time>2022-03-03T08:49:12.000Z</time>
      </trkpt>
      <trkpt lat="44.13091" lon="6.11424">
        <ele>797</ele>
        <time>2022-03-03T08:49:13.000Z</time>
      </trkpt>
      <trkpt lat="44.13091" lon="6.11422">
        <ele>797</ele>
        <time>2022-03-03T08:49:14.000Z</time>
      </trkpt>
      <trkpt lat="44.13091" lon="6.11421">
        <ele>797</ele>
        <time>2022-03-03T08:49:15.000Z</time>
      </trkpt>
      <trkpt lat="44.13091" lon="6.1142">
        <ele>797</ele>
        <time>2022-03-03T08:49:16.000Z</time>
      </trkpt>
      <trkpt lat="44.13091" lon="6.11418">
        <ele>797</ele>
        <time>2022-03-03T08:49:17.000Z</time>
      </trkpt>
      <trkpt lat="44.13091" lon="6.11417">
        <ele>797</ele>
        <time>2022-03-03T08:49:18.000Z</time>
      </trkpt>
      <trkpt lat="44.13091" lon="6.11416">
        <ele>797</ele>
        <time>2022-03-03T08:49:19.000Z</time>
      </trkpt>
      <trkpt lat="44.13092" lon="6.11414">
        <ele>797</ele>
        <time>2022-03-03T08:49:20.000Z</time>
      </trkpt>
      <trkpt lat="44.13092" lon="6.11413">
        <ele>797</ele>
        <time>2022-03-03T08:49:21.000Z</time>
      </trkpt>
      <trkpt lat="44.13092" lon="6.11411">
        <ele>797</ele>
        <time>2022-03-03T08:49:22.000Z</time>
      </trkpt>
      <trkpt lat="44.13092" lon="6.1141">
        <ele>797</ele>
        <time>2022-03-03T08:49:23.000Z</time>
      </trkpt>
      <trkpt lat="44.13092" lon="6.11408">
        <ele>797</ele>
        <time>2022-03-03T08:49:24.000Z</time>
      </trkpt>
      <trkpt lat="44.13092" lon="6.11407">
        <ele>797</ele>
        <time>2022-03-03T08:49:25.000Z</time>
      </trkpt>
      <trkpt lat="44.13092" lon="6.11405">
        <ele>797</ele>
        <time>2022-03-03T08:49:26.000Z</time>
      </trkpt>
      <trkpt lat="44.13092" lon="6.11403">
        <ele>797</ele>
        <time>2022-03-03T08:49:27.000Z</time>
      </trkpt>
      <trkpt lat="44.13092" lon="6.11402">
        <ele>797</ele>
        <time>2022-03-03T08:49:28.000Z</time>
      </trkpt>
      <trkpt lat="44.13092" lon="6.11401">
        <ele>797</ele>
        <time>2022-03-03T08:49:29.000Z</time>
      </trkpt>
      <trkpt lat="44.13093" lon="6.11399">
        <ele>797</ele>
        <time>2022-03-03T08:49:30.000Z</time>
      </trkpt>
      <trkpt lat="44.13093" lon="6.11398">
        <ele>797</ele>
        <time>2022-03-03T08:49:31.000Z</time>
      </trkpt>
      <trkpt lat="44.13093" lon="6.11396">
        <ele>798</ele>
        <time>2022-03-03T08:49:32.000Z</time>
      </trkpt>
      <trkpt lat="44.13093" lon="6.11395">
        <ele>798</ele>
        <time>2022-03-03T08:49:33.000Z</time>
      </trkpt>
      <trkpt lat="44.13093" lon="6.11394">
        <ele>798</ele>
        <time>2022-03-03T08:49:34.000Z</time>
      </trkpt>
      <trkpt lat="44.13094" lon="6.11392">
        <ele>798</ele>
        <time>2022-03-03T08:49:35.000Z</time>
      </trkpt>
      <trkpt lat="44.13094" lon="6.11391">
        <ele>798</ele>
        <time>2022-03-03T08:49:36.000Z</time>
      </trkpt>
      <trkpt lat="44.13094" lon="6.1139">
        <ele>798</ele>
        <time>2022-03-03T08:49:37.000Z</time>
      </trkpt>
      <trkpt lat="44.13094" lon="6.11388">
        <ele>798</ele>
        <time>2022-03-03T08:49:38.000Z</time>
      </trkpt>
      <trkpt lat="44.13094" lon="6.11387">
        <ele>798</ele>
        <time>2022-03-03T08:49:39.000Z</time>
      </trkpt>
      <trkpt lat="44.13094" lon="6.11385">
        <ele>798</ele>
        <time>2022-03-03T08:49:40.000Z</time>
      </trkpt>
      <trkpt lat="44.13095" lon="6.11384">
        <ele>798</ele>
        <time>2022-03-03T08:49:41.000Z</time>
      </trkpt>
      <trkpt lat="44.13095" lon="6.11383">
        <ele>798</ele>
        <time>2022-03-03T08:49:42.000Z</time>
      </trkpt>
      <trkpt lat="44.13094" lon="6.11381">
        <ele>798</ele>
        <time>2022-03-03T08:49:43.000Z</time>
      </trkpt>
      <trkpt lat="44.13094" lon="6.11379">
        <ele>798</ele>
        <time>2022-03-03T08:49:44.000Z</time>
      </trkpt>
      <trkpt lat="44.13094" lon="6.11378">
        <ele>798</ele>
        <time>2022-03-03T08:49:45.000Z</time>
      </trkpt>
      <trkpt lat="44.13094" lon="6.11376">
        <ele>799</ele>
        <time>2022-03-03T08:49:46.000Z</time>
      </trkpt>
      <trkpt lat="44.13095" lon="6.11375">
        <ele>799</ele>
        <time>2022-03-03T08:49:47.000Z</time>
      </trkpt>
      <trkpt lat="44.13095" lon="6.11373">
        <ele>799</ele>
        <time>2022-03-03T08:49:48.000Z</time>
      </trkpt>
      <trkpt lat="44.13095" lon="6.11371">
        <ele>799</ele>
        <time>2022-03-03T08:49:49.000Z</time>
      </trkpt>
      <trkpt lat="44.13095" lon="6.1137">
        <ele>799</ele>
        <time>2022-03-03T08:49:50.000Z</time>
      </trkpt>
      <trkpt lat="44.13095" lon="6.11368">
        <ele>799</ele>
        <time>2022-03-03T08:49:51.000Z</time>
      </trkpt>
      <trkpt lat="44.13095" lon="6.11366">
        <ele>799</ele>
        <time>2022-03-03T08:49:52.000Z</time>
      </trkpt>
      <trkpt lat="44.13095" lon="6.11365">
        <ele>799</ele>
        <time>2022-03-03T08:49:53.000Z</time>
      </trkpt>
      <trkpt lat="44.13095" lon="6.11364">
        <ele>799</ele>
        <time>2022-03-03T08:49:54.000Z</time>
      </trkpt>
      <trkpt lat="44.13095" lon="6.11362">
        <ele>800</ele>
        <time>2022-03-03T08:49:55.000Z</time>
      </trkpt>
      <trkpt lat="44.13095" lon="6.11361">
        <ele>800</ele>
        <time>2022-03-03T08:49:56.000Z</time>
      </trkpt>
      <trkpt lat="44.13096" lon="6.11359">
        <ele>800</ele>
        <time>2022-03-03T08:49:57.000Z</time>
      </trkpt>
      <trkpt lat="44.13096" lon="6.11358">
        <ele>800</ele>
        <time>2022-03-03T08:49:58.000Z</time>
      </trkpt>
      <trkpt lat="44.13095" lon="6.11357">
        <ele>800</ele>
        <time>2022-03-03T08:49:59.000Z</time>
      </trkpt>
      <trkpt lat="44.13095" lon="6.11355">
        <ele>800</ele>
        <time>2022-03-03T08:50:00.000Z</time>
      </trkpt>
      <trkpt lat="44.13095" lon="6.11353">
        <ele>800</ele>
        <time>2022-03-03T08:50:01.000Z</time>
      </trkpt>
      <trkpt lat="44.13095" lon="6.11352">
        <ele>800</ele>
        <time>2022-03-03T08:50:02.000Z</time>
      </trkpt>
      <trkpt lat="44.13095" lon="6.1135">
        <ele>800</ele>
        <time>2022-03-03T08:50:03.000Z</time>
      </trkpt>
      <trkpt lat="44.13096" lon="6.11349">
        <ele>800</ele>
        <time>2022-03-03T08:50:04.000Z</time>
      </trkpt>
      <trkpt lat="44.13096" lon="6.11348">
        <ele>801</ele>
        <time>2022-03-03T08:50:05.000Z</time>
      </trkpt>
      <trkpt lat="44.13096" lon="6.11347">
        <ele>801</ele>
        <time>2022-03-03T08:50:06.000Z</time>
      </trkpt>
      <trkpt lat="44.13096" lon="6.11346">
        <ele>801</ele>
        <time>2022-03-03T08:50:07.000Z</time>
      </trkpt>
      <trkpt lat="44.13096" lon="6.11344">
        <ele>801</ele>
        <time>2022-03-03T08:50:08.000Z</time>
      </trkpt>
      <trkpt lat="44.13096" lon="6.11343">
        <ele>801</ele>
        <time>2022-03-03T08:50:09.000Z</time>
      </trkpt>
      <trkpt lat="44.13096" lon="6.11342">
        <ele>802</ele>
        <time>2022-03-03T08:50:10.000Z</time>
      </trkpt>
      <trkpt lat="44.13096" lon="6.11341">
        <ele>802</ele>
        <time>2022-03-03T08:50:11.000Z</time>
      </trkpt>
      <trkpt lat="44.13096" lon="6.11341">
        <ele>802</ele>
        <time>2022-03-03T08:50:12.000Z</time>
      </trkpt>
      <trkpt lat="44.13096" lon="6.1134">
        <ele>802</ele>
        <time>2022-03-03T08:50:13.000Z</time>
      </trkpt>
      <trkpt lat="44.13096" lon="6.11338">
        <ele>802</ele>
        <time>2022-03-03T08:50:14.000Z</time>
      </trkpt>
      <trkpt lat="44.13096" lon="6.11337">
        <ele>802</ele>
        <time>2022-03-03T08:50:15.000Z</time>
      </trkpt>
      <trkpt lat="44.13096" lon="6.11336">
        <ele>802</ele>
        <time>2022-03-03T08:50:16.000Z</time>
      </trkpt>
      <trkpt lat="44.13096" lon="6.11334">
        <ele>802</ele>
        <time>2022-03-03T08:50:17.000Z</time>
      </trkpt>
      <trkpt lat="44.13096" lon="6.11333">
        <ele>802</ele>
        <time>2022-03-03T08:50:18.000Z</time>
      </trkpt>
      <trkpt lat="44.13096" lon="6.11331">
        <ele>802</ele>
        <time>2022-03-03T08:50:19.000Z</time>
      </trkpt>
      <trkpt lat="44.13096" lon="6.1133">
        <ele>802</ele>
        <time>2022-03-03T08:50:20.000Z</time>
      </trkpt>
      <trkpt lat="44.13096" lon="6.11329">
        <ele>802</ele>
        <time>2022-03-03T08:50:21.000Z</time>
      </trkpt>
      <trkpt lat="44.13096" lon="6.11327">
        <ele>802</ele>
        <time>2022-03-03T08:50:22.000Z</time>
      </trkpt>
      <trkpt lat="44.13096" lon="6.11326">
        <ele>802</ele>
        <time>2022-03-03T08:50:23.000Z</time>
      </trkpt>
      <trkpt lat="44.13096" lon="6.11325">
        <ele>802</ele>
        <time>2022-03-03T08:50:24.000Z</time>
      </trkpt>
      <trkpt lat="44.13096" lon="6.11324">
        <ele>803</ele>
        <time>2022-03-03T08:50:25.000Z</time>
      </trkpt>
      <trkpt lat="44.13096" lon="6.11322">
        <ele>803</ele>
        <time>2022-03-03T08:50:26.000Z</time>
      </trkpt>
      <trkpt lat="44.13096" lon="6.11321">
        <ele>803</ele>
        <time>2022-03-03T08:50:27.000Z</time>
      </trkpt>
      <trkpt lat="44.13096" lon="6.11319">
        <ele>803</ele>
        <time>2022-03-03T08:50:28.000Z</time>
      </trkpt>
      <trkpt lat="44.13096" lon="6.11318">
        <ele>803</ele>
        <time>2022-03-03T08:50:29.000Z</time>
      </trkpt>
      <trkpt lat="44.13096" lon="6.11317">
        <ele>803</ele>
        <time>2022-03-03T08:50:30.000Z</time>
      </trkpt>
      <trkpt lat="44.13096" lon="6.11315">
        <ele>803</ele>
        <time>2022-03-03T08:50:31.000Z</time>
      </trkpt>
      <trkpt lat="44.13096" lon="6.11314">
        <ele>803</ele>
        <time>2022-03-03T08:50:32.000Z</time>
      </trkpt>
      <trkpt lat="44.13096" lon="6.11313">
        <ele>803</ele>
        <time>2022-03-03T08:50:33.000Z</time>
      </trkpt>
      <trkpt lat="44.13096" lon="6.11311">
        <ele>803</ele>
        <time>2022-03-03T08:50:34.000Z</time>
      </trkpt>
      <trkpt lat="44.13096" lon="6.1131">
        <ele>803</ele>
        <time>2022-03-03T08:50:35.000Z</time>
      </trkpt>
      <trkpt lat="44.13096" lon="6.11309">
        <ele>804</ele>
        <time>2022-03-03T08:50:36.000Z</time>
      </trkpt>
      <trkpt lat="44.13096" lon="6.11307">
        <ele>804</ele>
        <time>2022-03-03T08:50:37.000Z</time>
      </trkpt>
      <trkpt lat="44.13096" lon="6.11306">
        <ele>804</ele>
        <time>2022-03-03T08:50:38.000Z</time>
      </trkpt>
      <trkpt lat="44.13097" lon="6.11305">
        <ele>804</ele>
        <time>2022-03-03T08:50:39.000Z</time>
      </trkpt>
      <trkpt lat="44.13096" lon="6.11304">
        <ele>804</ele>
        <time>2022-03-03T08:50:40.000Z</time>
      </trkpt>
      <trkpt lat="44.13096" lon="6.11302">
        <ele>805</ele>
        <time>2022-03-03T08:50:41.000Z</time>
      </trkpt>
      <trkpt lat="44.13096" lon="6.11301">
        <ele>805</ele>
        <time>2022-03-03T08:50:42.000Z</time>
      </trkpt>
      <trkpt lat="44.13096" lon="6.113">
        <ele>805</ele>
        <time>2022-03-03T08:50:43.000Z</time>
      </trkpt>
      <trkpt lat="44.13096" lon="6.11298">
        <ele>805</ele>
        <time>2022-03-03T08:50:44.000Z</time>
      </trkpt>
      <trkpt lat="44.13096" lon="6.11297">
        <ele>805</ele>
        <time>2022-03-03T08:50:45.000Z</time>
      </trkpt>
      <trkpt lat="44.13096" lon="6.11296">
        <ele>805</ele>
        <time>2022-03-03T08:50:46.000Z</time>
      </trkpt>
      <trkpt lat="44.13096" lon="6.11295">
        <ele>805</ele>
        <time>2022-03-03T08:50:47.000Z</time>
      </trkpt>
      <trkpt lat="44.13096" lon="6.11293">
        <ele>806</ele>
        <time>2022-03-03T08:50:48.000Z</time>
      </trkpt>
      <trkpt lat="44.13095" lon="6.11292">
        <ele>806</ele>
        <time>2022-03-03T08:50:49.000Z</time>
      </trkpt>
      <trkpt lat="44.13095" lon="6.1129">
        <ele>806</ele>
        <time>2022-03-03T08:50:50.000Z</time>
      </trkpt>
      <trkpt lat="44.13095" lon="6.11289">
        <ele>806</ele>
        <time>2022-03-03T08:50:51.000Z</time>
      </trkpt>
      <trkpt lat="44.13095" lon="6.11288">
        <ele>806</ele>
        <time>2022-03-03T08:50:52.000Z</time>
      </trkpt>
      <trkpt lat="44.13095" lon="6.11286">
        <ele>806</ele>
        <time>2022-03-03T08:50:53.000Z</time>
      </trkpt>
      <trkpt lat="44.13095" lon="6.11285">
        <ele>807</ele>
        <time>2022-03-03T08:50:54.000Z</time>
      </trkpt>
      <trkpt lat="44.13095" lon="6.11284">
        <ele>807</ele>
        <time>2022-03-03T08:50:55.000Z</time>
      </trkpt>
      <trkpt lat="44.13095" lon="6.11283">
        <ele>807</ele>
        <time>2022-03-03T08:50:56.000Z</time>
      </trkpt>
      <trkpt lat="44.13095" lon="6.11281">
        <ele>807</ele>
        <time>2022-03-03T08:50:57.000Z</time>
      </trkpt>
      <trkpt lat="44.13095" lon="6.1128">
        <ele>807</ele>
        <time>2022-03-03T08:50:58.000Z</time>
      </trkpt>
      <trkpt lat="44.13095" lon="6.11278">
        <ele>807</ele>
        <time>2022-03-03T08:50:59.000Z</time>
      </trkpt>
      <trkpt lat="44.13095" lon="6.11277">
        <ele>807</ele>
        <time>2022-03-03T08:51:00.000Z</time>
      </trkpt>
      <trkpt lat="44.13094" lon="6.11276">
        <ele>807</ele>
        <time>2022-03-03T08:51:01.000Z</time>
      </trkpt>
      <trkpt lat="44.13094" lon="6.11275">
        <ele>807</ele>
        <time>2022-03-03T08:51:02.000Z</time>
      </trkpt>
      <trkpt lat="44.13094" lon="6.11274">
        <ele>807</ele>
        <time>2022-03-03T08:51:03.000Z</time>
      </trkpt>
      <trkpt lat="44.13093" lon="6.11272">
        <ele>807</ele>
        <time>2022-03-03T08:51:04.000Z</time>
      </trkpt>
      <trkpt lat="44.13093" lon="6.11271">
        <ele>807</ele>
        <time>2022-03-03T08:51:05.000Z</time>
      </trkpt>
      <trkpt lat="44.13093" lon="6.1127">
        <ele>807</ele>
        <time>2022-03-03T08:51:06.000Z</time>
      </trkpt>
      <trkpt lat="44.13093" lon="6.11268">
        <ele>808</ele>
        <time>2022-03-03T08:51:07.000Z</time>
      </trkpt>
      <trkpt lat="44.13093" lon="6.11267">
        <ele>808</ele>
        <time>2022-03-03T08:51:08.000Z</time>
      </trkpt>
      <trkpt lat="44.13093" lon="6.11266">
        <ele>808</ele>
        <time>2022-03-03T08:51:09.000Z</time>
      </trkpt>
      <trkpt lat="44.13093" lon="6.11264">
        <ele>808</ele>
        <time>2022-03-03T08:51:10.000Z</time>
      </trkpt>
      <trkpt lat="44.13092" lon="6.11263">
        <ele>808</ele>
        <time>2022-03-03T08:51:11.000Z</time>
      </trkpt>
      <trkpt lat="44.13092" lon="6.11262">
        <ele>808</ele>
        <time>2022-03-03T08:51:12.000Z</time>
      </trkpt>
      <trkpt lat="44.13092" lon="6.1126">
        <ele>808</ele>
        <time>2022-03-03T08:51:13.000Z</time>
      </trkpt>
      <trkpt lat="44.13091" lon="6.11259">
        <ele>808</ele>
        <time>2022-03-03T08:51:14.000Z</time>
      </trkpt>
      <trkpt lat="44.13091" lon="6.11258">
        <ele>808</ele>
        <time>2022-03-03T08:51:15.000Z</time>
      </trkpt>
      <trkpt lat="44.13091" lon="6.11256">
        <ele>808</ele>
        <time>2022-03-03T08:51:16.000Z</time>
      </trkpt>
      <trkpt lat="44.13091" lon="6.11255">
        <ele>808</ele>
        <time>2022-03-03T08:51:17.000Z</time>
      </trkpt>
      <trkpt lat="44.1309" lon="6.11253">
        <ele>808</ele>
        <time>2022-03-03T08:51:18.000Z</time>
      </trkpt>
      <trkpt lat="44.1309" lon="6.11252">
        <ele>808</ele>
        <time>2022-03-03T08:51:19.000Z</time>
      </trkpt>
      <trkpt lat="44.1309" lon="6.1125">
        <ele>808</ele>
        <time>2022-03-03T08:51:20.000Z</time>
      </trkpt>
      <trkpt lat="44.13089" lon="6.11248">
        <ele>808</ele>
        <time>2022-03-03T08:51:21.000Z</time>
      </trkpt>
      <trkpt lat="44.13089" lon="6.11247">
        <ele>808</ele>
        <time>2022-03-03T08:51:22.000Z</time>
      </trkpt>
      <trkpt lat="44.13089" lon="6.11245">
        <ele>808</ele>
        <time>2022-03-03T08:51:23.000Z</time>
      </trkpt>
      <trkpt lat="44.13089" lon="6.11243">
        <ele>808</ele>
        <time>2022-03-03T08:51:24.000Z</time>
      </trkpt>
      <trkpt lat="44.1309" lon="6.11242">
        <ele>808</ele>
        <time>2022-03-03T08:51:25.000Z</time>
      </trkpt>
      <trkpt lat="44.1309" lon="6.11241">
        <ele>808</ele>
        <time>2022-03-03T08:51:26.000Z</time>
      </trkpt>
      <trkpt lat="44.1309" lon="6.11239">
        <ele>808</ele>
        <time>2022-03-03T08:51:27.000Z</time>
      </trkpt>
      <trkpt lat="44.13089" lon="6.11238">
        <ele>808</ele>
        <time>2022-03-03T08:51:28.000Z</time>
      </trkpt>
      <trkpt lat="44.1309" lon="6.11236">
        <ele>809</ele>
        <time>2022-03-03T08:51:29.000Z</time>
      </trkpt>
      <trkpt lat="44.1309" lon="6.11235">
        <ele>809</ele>
        <time>2022-03-03T08:51:30.000Z</time>
      </trkpt>
      <trkpt lat="44.1309" lon="6.11233">
        <ele>809</ele>
        <time>2022-03-03T08:51:31.000Z</time>
      </trkpt>
      <trkpt lat="44.1309" lon="6.11232">
        <ele>809</ele>
        <time>2022-03-03T08:51:32.000Z</time>
      </trkpt>
      <trkpt lat="44.13091" lon="6.1123">
        <ele>809</ele>
        <time>2022-03-03T08:51:33.000Z</time>
      </trkpt>
      <trkpt lat="44.13091" lon="6.11229">
        <ele>809</ele>
        <time>2022-03-03T08:51:34.000Z</time>
      </trkpt>
      <trkpt lat="44.13091" lon="6.11228">
        <ele>809</ele>
        <time>2022-03-03T08:51:35.000Z</time>
      </trkpt>
      <trkpt lat="44.13091" lon="6.11227">
        <ele>809</ele>
        <time>2022-03-03T08:51:36.000Z</time>
      </trkpt>
      <trkpt lat="44.13092" lon="6.11225">
        <ele>809</ele>
        <time>2022-03-03T08:51:37.000Z</time>
      </trkpt>
      <trkpt lat="44.13092" lon="6.11224">
        <ele>810</ele>
        <time>2022-03-03T08:51:38.000Z</time>
      </trkpt>
      <trkpt lat="44.13092" lon="6.11222">
        <ele>810</ele>
        <time>2022-03-03T08:51:39.000Z</time>
      </trkpt>
      <trkpt lat="44.13093" lon="6.11221">
        <ele>810</ele>
        <time>2022-03-03T08:51:40.000Z</time>
      </trkpt>
      <trkpt lat="44.13093" lon="6.11219">
        <ele>810</ele>
        <time>2022-03-03T08:51:41.000Z</time>
      </trkpt>
      <trkpt lat="44.13094" lon="6.11218">
        <ele>810</ele>
        <time>2022-03-03T08:51:42.000Z</time>
      </trkpt>
      <trkpt lat="44.13094" lon="6.11217">
        <ele>810</ele>
        <time>2022-03-03T08:51:43.000Z</time>
      </trkpt>
      <trkpt lat="44.13095" lon="6.11215">
        <ele>810</ele>
        <time>2022-03-03T08:51:44.000Z</time>
      </trkpt>
      <trkpt lat="44.13095" lon="6.11214">
        <ele>811</ele>
        <time>2022-03-03T08:51:45.000Z</time>
      </trkpt>
      <trkpt lat="44.13095" lon="6.11213">
        <ele>811</ele>
        <time>2022-03-03T08:51:46.000Z</time>
      </trkpt>
      <trkpt lat="44.13095" lon="6.11212">
        <ele>811</ele>
        <time>2022-03-03T08:51:47.000Z</time>
      </trkpt>
      <trkpt lat="44.13096" lon="6.1121">
        <ele>811</ele>
        <time>2022-03-03T08:51:48.000Z</time>
      </trkpt>
      <trkpt lat="44.13096" lon="6.11208">
        <ele>811</ele>
        <time>2022-03-03T08:51:49.000Z</time>
      </trkpt>
      <trkpt lat="44.13096" lon="6.11207">
        <ele>811</ele>
        <time>2022-03-03T08:51:50.000Z</time>
      </trkpt>
      <trkpt lat="44.13097" lon="6.11206">
        <ele>812</ele>
        <time>2022-03-03T08:51:51.000Z</time>
      </trkpt>
      <trkpt lat="44.13097" lon="6.11204">
        <ele>812</ele>
        <time>2022-03-03T08:51:52.000Z</time>
      </trkpt>
      <trkpt lat="44.13097" lon="6.11203">
        <ele>812</ele>
        <time>2022-03-03T08:51:53.000Z</time>
      </trkpt>
      <trkpt lat="44.13098" lon="6.11202">
        <ele>812</ele>
        <time>2022-03-03T08:51:54.000Z</time>
      </trkpt>
      <trkpt lat="44.13098" lon="6.11201">
        <ele>812</ele>
        <time>2022-03-03T08:51:55.000Z</time>
      </trkpt>
      <trkpt lat="44.13099" lon="6.11199">
        <ele>812</ele>
        <time>2022-03-03T08:51:56.000Z</time>
      </trkpt>
      <trkpt lat="44.13099" lon="6.11198">
        <ele>813</ele>
        <time>2022-03-03T08:51:57.000Z</time>
      </trkpt>
      <trkpt lat="44.13099" lon="6.11197">
        <ele>813</ele>
        <time>2022-03-03T08:51:58.000Z</time>
      </trkpt>
      <trkpt lat="44.13099" lon="6.11195">
        <ele>813</ele>
        <time>2022-03-03T08:51:59.000Z</time>
      </trkpt>
      <trkpt lat="44.13099" lon="6.11194">
        <ele>813</ele>
        <time>2022-03-03T08:52:00.000Z</time>
      </trkpt>
      <trkpt lat="44.131" lon="6.11193">
        <ele>814</ele>
        <time>2022-03-03T08:52:01.000Z</time>
      </trkpt>
      <trkpt lat="44.131" lon="6.11191">
        <ele>814</ele>
        <time>2022-03-03T08:52:02.000Z</time>
      </trkpt>
      <trkpt lat="44.131" lon="6.1119">
        <ele>814</ele>
        <time>2022-03-03T08:52:03.000Z</time>
      </trkpt>
      <trkpt lat="44.131" lon="6.11189">
        <ele>814</ele>
        <time>2022-03-03T08:52:04.000Z</time>
      </trkpt>
      <trkpt lat="44.131" lon="6.11188">
        <ele>815</ele>
        <time>2022-03-03T08:52:05.000Z</time>
      </trkpt>
      <trkpt lat="44.131" lon="6.11187">
        <ele>815</ele>
        <time>2022-03-03T08:52:06.000Z</time>
      </trkpt>
      <trkpt lat="44.13101" lon="6.11185">
        <ele>815</ele>
        <time>2022-03-03T08:52:07.000Z</time>
      </trkpt>
      <trkpt lat="44.13101" lon="6.11184">
        <ele>815</ele>
        <time>2022-03-03T08:52:08.000Z</time>
      </trkpt>
      <trkpt lat="44.13101" lon="6.11183">
        <ele>816</ele>
        <time>2022-03-03T08:52:09.000Z</time>
      </trkpt>
      <trkpt lat="44.13101" lon="6.11181">
        <ele>816</ele>
        <time>2022-03-03T08:52:10.000Z</time>
      </trkpt>
      <trkpt lat="44.13101" lon="6.1118">
        <ele>816</ele>
        <time>2022-03-03T08:52:11.000Z</time>
      </trkpt>
      <trkpt lat="44.13101" lon="6.11179">
        <ele>816</ele>
        <time>2022-03-03T08:52:12.000Z</time>
      </trkpt>
      <trkpt lat="44.13101" lon="6.11178">
        <ele>816</ele>
        <time>2022-03-03T08:52:13.000Z</time>
      </trkpt>
      <trkpt lat="44.13101" lon="6.11176">
        <ele>816</ele>
        <time>2022-03-03T08:52:14.000Z</time>
      </trkpt>
      <trkpt lat="44.13101" lon="6.11175">
        <ele>816</ele>
        <time>2022-03-03T08:52:15.000Z</time>
      </trkpt>
      <trkpt lat="44.13101" lon="6.11174">
        <ele>817</ele>
        <time>2022-03-03T08:52:16.000Z</time>
      </trkpt>
      <trkpt lat="44.13101" lon="6.11173">
        <ele>817</ele>
        <time>2022-03-03T08:52:17.000Z</time>
      </trkpt>
      <trkpt lat="44.131" lon="6.11171">
        <ele>817</ele>
        <time>2022-03-03T08:52:18.000Z</time>
      </trkpt>
      <trkpt lat="44.131" lon="6.1117">
        <ele>817</ele>
        <time>2022-03-03T08:52:19.000Z</time>
      </trkpt>
      <trkpt lat="44.131" lon="6.11169">
        <ele>817</ele>
        <time>2022-03-03T08:52:20.000Z</time>
      </trkpt>
      <trkpt lat="44.131" lon="6.11168">
        <ele>817</ele>
        <time>2022-03-03T08:52:21.000Z</time>
      </trkpt>
      <trkpt lat="44.13099" lon="6.11166">
        <ele>817</ele>
        <time>2022-03-03T08:52:22.000Z</time>
      </trkpt>
      <trkpt lat="44.13099" lon="6.11165">
        <ele>817</ele>
        <time>2022-03-03T08:52:23.000Z</time>
      </trkpt>
      <trkpt lat="44.13099" lon="6.11164">
        <ele>818</ele>
        <time>2022-03-03T08:52:24.000Z</time>
      </trkpt>
      <trkpt lat="44.13098" lon="6.11163">
        <ele>818</ele>
        <time>2022-03-03T08:52:25.000Z</time>
      </trkpt>
      <trkpt lat="44.13098" lon="6.11161">
        <ele>818</ele>
        <time>2022-03-03T08:52:26.000Z</time>
      </trkpt>
      <trkpt lat="44.13098" lon="6.1116">
        <ele>818</ele>
        <time>2022-03-03T08:52:27.000Z</time>
      </trkpt>
      <trkpt lat="44.13098" lon="6.11159">
        <ele>818</ele>
        <time>2022-03-03T08:52:28.000Z</time>
      </trkpt>
      <trkpt lat="44.13097" lon="6.11157">
        <ele>818</ele>
        <time>2022-03-03T08:52:29.000Z</time>
      </trkpt>
      <trkpt lat="44.13097" lon="6.11156">
        <ele>818</ele>
        <time>2022-03-03T08:52:30.000Z</time>
      </trkpt>
      <trkpt lat="44.13097" lon="6.11154">
        <ele>818</ele>
        <time>2022-03-03T08:52:31.000Z</time>
      </trkpt>
      <trkpt lat="44.13097" lon="6.11153">
        <ele>818</ele>
        <time>2022-03-03T08:52:32.000Z</time>
      </trkpt>
      <trkpt lat="44.13097" lon="6.11151">
        <ele>818</ele>
        <time>2022-03-03T08:52:33.000Z</time>
      </trkpt>
      <trkpt lat="44.13096" lon="6.1115">
        <ele>818</ele>
        <time>2022-03-03T08:52:34.000Z</time>
      </trkpt>
      <trkpt lat="44.13096" lon="6.11148">
        <ele>818</ele>
        <time>2022-03-03T08:52:35.000Z</time>
      </trkpt>
      <trkpt lat="44.13096" lon="6.11147">
        <ele>818</ele>
        <time>2022-03-03T08:52:36.000Z</time>
      </trkpt>
      <trkpt lat="44.13096" lon="6.11146">
        <ele>817</ele>
        <time>2022-03-03T08:52:37.000Z</time>
      </trkpt>
      <trkpt lat="44.13096" lon="6.11144">
        <ele>817</ele>
        <time>2022-03-03T08:52:38.000Z</time>
      </trkpt>
      <trkpt lat="44.13096" lon="6.11143">
        <ele>817</ele>
        <time>2022-03-03T08:52:39.000Z</time>
      </trkpt>
      <trkpt lat="44.13096" lon="6.11141">
        <ele>817</ele>
        <time>2022-03-03T08:52:40.000Z</time>
      </trkpt>
      <trkpt lat="44.13096" lon="6.1114">
        <ele>817</ele>
        <time>2022-03-03T08:52:41.000Z</time>
      </trkpt>
      <trkpt lat="44.13096" lon="6.11138">
        <ele>818</ele>
        <time>2022-03-03T08:52:42.000Z</time>
      </trkpt>
      <trkpt lat="44.13096" lon="6.11137">
        <ele>818</ele>
        <time>2022-03-03T08:52:43.000Z</time>
      </trkpt>
      <trkpt lat="44.13096" lon="6.11136">
        <ele>818</ele>
        <time>2022-03-03T08:52:44.000Z</time>
      </trkpt>
      <trkpt lat="44.13096" lon="6.11134">
        <ele>818</ele>
        <time>2022-03-03T08:52:45.000Z</time>
      </trkpt>
      <trkpt lat="44.13097" lon="6.11133">
        <ele>818</ele>
        <time>2022-03-03T08:52:46.000Z</time>
      </trkpt>
      <trkpt lat="44.13097" lon="6.11131">
        <ele>818</ele>
        <time>2022-03-03T08:52:47.000Z</time>
      </trkpt>
      <trkpt lat="44.13097" lon="6.1113">
        <ele>818</ele>
        <time>2022-03-03T08:52:48.000Z</time>
      </trkpt>
      <trkpt lat="44.13097" lon="6.11129">
        <ele>818</ele>
        <time>2022-03-03T08:52:49.000Z</time>
      </trkpt>
      <trkpt lat="44.13097" lon="6.11127">
        <ele>818</ele>
        <time>2022-03-03T08:52:50.000Z</time>
      </trkpt>
      <trkpt lat="44.13097" lon="6.11125">
        <ele>818</ele>
        <time>2022-03-03T08:52:51.000Z</time>
      </trkpt>
      <trkpt lat="44.13097" lon="6.11124">
        <ele>818</ele>
        <time>2022-03-03T08:52:52.000Z</time>
      </trkpt>
      <trkpt lat="44.13097" lon="6.11122">
        <ele>818</ele>
        <time>2022-03-03T08:52:53.000Z</time>
      </trkpt>
      <trkpt lat="44.13097" lon="6.11121">
        <ele>818</ele>
        <time>2022-03-03T08:52:54.000Z</time>
      </trkpt>
      <trkpt lat="44.13097" lon="6.11119">
        <ele>818</ele>
        <time>2022-03-03T08:52:55.000Z</time>
      </trkpt>
      <trkpt lat="44.13097" lon="6.11117">
        <ele>819</ele>
        <time>2022-03-03T08:52:56.000Z</time>
      </trkpt>
      <trkpt lat="44.13097" lon="6.11116">
        <ele>819</ele>
        <time>2022-03-03T08:52:57.000Z</time>
      </trkpt>
      <trkpt lat="44.13097" lon="6.11115">
        <ele>819</ele>
        <time>2022-03-03T08:52:58.000Z</time>
      </trkpt>
      <trkpt lat="44.13098" lon="6.11113">
        <ele>819</ele>
        <time>2022-03-03T08:52:59.000Z</time>
      </trkpt>
      <trkpt lat="44.13098" lon="6.11111">
        <ele>819</ele>
        <time>2022-03-03T08:53:00.000Z</time>
      </trkpt>
      <trkpt lat="44.13098" lon="6.1111">
        <ele>819</ele>
        <time>2022-03-03T08:53:01.000Z</time>
      </trkpt>
      <trkpt lat="44.13098" lon="6.11109">
        <ele>819</ele>
        <time>2022-03-03T08:53:02.000Z</time>
      </trkpt>
      <trkpt lat="44.13098" lon="6.11107">
        <ele>819</ele>
        <time>2022-03-03T08:53:03.000Z</time>
      </trkpt>
      <trkpt lat="44.13099" lon="6.11106">
        <ele>819</ele>
        <time>2022-03-03T08:53:04.000Z</time>
      </trkpt>
      <trkpt lat="44.13099" lon="6.11104">
        <ele>819</ele>
        <time>2022-03-03T08:53:05.000Z</time>
      </trkpt>
      <trkpt lat="44.13099" lon="6.11103">
        <ele>819</ele>
        <time>2022-03-03T08:53:06.000Z</time>
      </trkpt>
      <trkpt lat="44.13099" lon="6.11102">
        <ele>819</ele>
        <time>2022-03-03T08:53:07.000Z</time>
      </trkpt>
      <trkpt lat="44.13099" lon="6.111">
        <ele>819</ele>
        <time>2022-03-03T08:53:08.000Z</time>
      </trkpt>
      <trkpt lat="44.131" lon="6.11099">
        <ele>819</ele>
        <time>2022-03-03T08:53:09.000Z</time>
      </trkpt>
      <trkpt lat="44.131" lon="6.11097">
        <ele>820</ele>
        <time>2022-03-03T08:53:10.000Z</time>
      </trkpt>
      <trkpt lat="44.131" lon="6.11096">
        <ele>820</ele>
        <time>2022-03-03T08:53:11.000Z</time>
      </trkpt>
      <trkpt lat="44.131" lon="6.11095">
        <ele>820</ele>
        <time>2022-03-03T08:53:12.000Z</time>
      </trkpt>
      <trkpt lat="44.131" lon="6.11093">
        <ele>820</ele>
        <time>2022-03-03T08:53:13.000Z</time>
      </trkpt>
      <trkpt lat="44.13101" lon="6.11092">
        <ele>820</ele>
        <time>2022-03-03T08:53:14.000Z</time>
      </trkpt>
      <trkpt lat="44.13101" lon="6.1109">
        <ele>820</ele>
        <time>2022-03-03T08:53:15.000Z</time>
      </trkpt>
      <trkpt lat="44.13101" lon="6.11089">
        <ele>820</ele>
        <time>2022-03-03T08:53:16.000Z</time>
      </trkpt>
      <trkpt lat="44.13102" lon="6.11088">
        <ele>820</ele>
        <time>2022-03-03T08:53:17.000Z</time>
      </trkpt>
      <trkpt lat="44.13102" lon="6.11087">
        <ele>820</ele>
        <time>2022-03-03T08:53:18.000Z</time>
      </trkpt>
      <trkpt lat="44.13102" lon="6.11085">
        <ele>820</ele>
        <time>2022-03-03T08:53:19.000Z</time>
      </trkpt>
      <trkpt lat="44.13103" lon="6.11084">
        <ele>821</ele>
        <time>2022-03-03T08:53:20.000Z</time>
      </trkpt>
      <trkpt lat="44.13103" lon="6.11083">
        <ele>821</ele>
        <time>2022-03-03T08:53:21.000Z</time>
      </trkpt>
      <trkpt lat="44.13104" lon="6.11083">
        <ele>821</ele>
        <time>2022-03-03T08:53:22.000Z</time>
      </trkpt>
      <trkpt lat="44.13105" lon="6.11083">
        <ele>821</ele>
        <time>2022-03-03T08:53:23.000Z</time>
      </trkpt>
      <trkpt lat="44.13106" lon="6.11083">
        <ele>821</ele>
        <time>2022-03-03T08:53:24.000Z</time>
      </trkpt>
      <trkpt lat="44.13106" lon="6.11083">
        <ele>821</ele>
        <time>2022-03-03T08:53:25.000Z</time>
      </trkpt>
      <trkpt lat="44.13107" lon="6.11083">
        <ele>821</ele>
        <time>2022-03-03T08:53:26.000Z</time>
      </trkpt>
      <trkpt lat="44.13108" lon="6.11084">
        <ele>822</ele>
        <time>2022-03-03T08:53:27.000Z</time>
      </trkpt>
      <trkpt lat="44.13108" lon="6.11085">
        <ele>822</ele>
        <time>2022-03-03T08:53:28.000Z</time>
      </trkpt>
      <trkpt lat="44.13108" lon="6.11086">
        <ele>822</ele>
        <time>2022-03-03T08:53:29.000Z</time>
      </trkpt>
      <trkpt lat="44.13109" lon="6.11087">
        <ele>822</ele>
        <time>2022-03-03T08:53:30.000Z</time>
      </trkpt>
      <trkpt lat="44.13109" lon="6.11088">
        <ele>822</ele>
        <time>2022-03-03T08:53:31.000Z</time>
      </trkpt>
      <trkpt lat="44.13109" lon="6.11089">
        <ele>822</ele>
        <time>2022-03-03T08:53:32.000Z</time>
      </trkpt>
      <trkpt lat="44.13109" lon="6.11091">
        <ele>822</ele>
        <time>2022-03-03T08:53:33.000Z</time>
      </trkpt>
      <trkpt lat="44.13109" lon="6.11092">
        <ele>822</ele>
        <time>2022-03-03T08:53:34.000Z</time>
      </trkpt>
      <trkpt lat="44.1311" lon="6.11093">
        <ele>822</ele>
        <time>2022-03-03T08:53:35.000Z</time>
      </trkpt>
      <trkpt lat="44.1311" lon="6.11095">
        <ele>822</ele>
        <time>2022-03-03T08:53:36.000Z</time>
      </trkpt>
      <trkpt lat="44.1311" lon="6.11096">
        <ele>822</ele>
        <time>2022-03-03T08:53:37.000Z</time>
      </trkpt>
      <trkpt lat="44.1311" lon="6.11098">
        <ele>822</ele>
        <time>2022-03-03T08:53:38.000Z</time>
      </trkpt>
      <trkpt lat="44.1311" lon="6.11099">
        <ele>822</ele>
        <time>2022-03-03T08:53:39.000Z</time>
      </trkpt>
      <trkpt lat="44.1311" lon="6.11101">
        <ele>822</ele>
        <time>2022-03-03T08:53:40.000Z</time>
      </trkpt>
      <trkpt lat="44.1311" lon="6.11102">
        <ele>822</ele>
        <time>2022-03-03T08:53:41.000Z</time>
      </trkpt>
      <trkpt lat="44.1311" lon="6.11104">
        <ele>822</ele>
        <time>2022-03-03T08:53:42.000Z</time>
      </trkpt>
      <trkpt lat="44.1311" lon="6.11105">
        <ele>823</ele>
        <time>2022-03-03T08:53:43.000Z</time>
      </trkpt>
      <trkpt lat="44.1311" lon="6.11107">
        <ele>823</ele>
        <time>2022-03-03T08:53:44.000Z</time>
      </trkpt>
      <trkpt lat="44.1311" lon="6.11108">
        <ele>823</ele>
        <time>2022-03-03T08:53:45.000Z</time>
      </trkpt>
      <trkpt lat="44.1311" lon="6.1111">
        <ele>823</ele>
        <time>2022-03-03T08:53:46.000Z</time>
      </trkpt>
      <trkpt lat="44.1311" lon="6.11111">
        <ele>823</ele>
        <time>2022-03-03T08:53:47.000Z</time>
      </trkpt>
      <trkpt lat="44.1311" lon="6.11112">
        <ele>823</ele>
        <time>2022-03-03T08:53:48.000Z</time>
      </trkpt>
      <trkpt lat="44.1311" lon="6.11114">
        <ele>823</ele>
        <time>2022-03-03T08:53:49.000Z</time>
      </trkpt>
      <trkpt lat="44.1311" lon="6.11115">
        <ele>823</ele>
        <time>2022-03-03T08:53:50.000Z</time>
      </trkpt>
      <trkpt lat="44.1311" lon="6.11116">
        <ele>823</ele>
        <time>2022-03-03T08:53:51.000Z</time>
      </trkpt>
      <trkpt lat="44.1311" lon="6.11118">
        <ele>823</ele>
        <time>2022-03-03T08:53:52.000Z</time>
      </trkpt>
      <trkpt lat="44.13111" lon="6.1112">
        <ele>823</ele>
        <time>2022-03-03T08:53:53.000Z</time>
      </trkpt>
      <trkpt lat="44.13111" lon="6.11121">
        <ele>823</ele>
        <time>2022-03-03T08:53:54.000Z</time>
      </trkpt>
      <trkpt lat="44.13111" lon="6.11122">
        <ele>823</ele>
        <time>2022-03-03T08:53:55.000Z</time>
      </trkpt>
      <trkpt lat="44.13111" lon="6.11123">
        <ele>824</ele>
        <time>2022-03-03T08:53:56.000Z</time>
      </trkpt>
      <trkpt lat="44.13111" lon="6.11124">
        <ele>824</ele>
        <time>2022-03-03T08:53:57.000Z</time>
      </trkpt>
      <trkpt lat="44.13111" lon="6.11124">
        <ele>824</ele>
        <time>2022-03-03T08:53:58.000Z</time>
      </trkpt>
      <trkpt lat="44.13111" lon="6.11124">
        <ele>824</ele>
        <time>2022-03-03T08:53:59.000Z</time>
      </trkpt>
      <trkpt lat="44.13112" lon="6.11124">
        <ele>824</ele>
        <time>2022-03-03T08:54:00.000Z</time>
      </trkpt>
      <trkpt lat="44.13112" lon="6.11124">
        <ele>824</ele>
        <time>2022-03-03T08:54:01.000Z</time>
      </trkpt>
      <trkpt lat="44.13112" lon="6.11125">
        <ele>824</ele>
        <time>2022-03-03T08:54:02.000Z</time>
      </trkpt>
      <trkpt lat="44.13112" lon="6.11126">
        <ele>824</ele>
        <time>2022-03-03T08:54:03.000Z</time>
      </trkpt>
      <trkpt lat="44.13112" lon="6.11127">
        <ele>824</ele>
        <time>2022-03-03T08:54:04.000Z</time>
      </trkpt>
      <trkpt lat="44.13113" lon="6.11128">
        <ele>824</ele>
        <time>2022-03-03T08:54:05.000Z</time>
      </trkpt>
      <trkpt lat="44.13113" lon="6.11129">
        <ele>824</ele>
        <time>2022-03-03T08:54:06.000Z</time>
      </trkpt>
      <trkpt lat="44.13113" lon="6.11131">
        <ele>824</ele>
        <time>2022-03-03T08:54:07.000Z</time>
      </trkpt>
      <trkpt lat="44.13113" lon="6.11132">
        <ele>824</ele>
        <time>2022-03-03T08:54:08.000Z</time>
      </trkpt>
      <trkpt lat="44.13114" lon="6.11133">
        <ele>824</ele>
        <time>2022-03-03T08:54:09.000Z</time>
      </trkpt>
      <trkpt lat="44.13115" lon="6.11134">
        <ele>824</ele>
        <time>2022-03-03T08:54:10.000Z</time>
      </trkpt>
      <trkpt lat="44.13115" lon="6.11136">
        <ele>824</ele>
        <time>2022-03-03T08:54:11.000Z</time>
      </trkpt>
      <trkpt lat="44.13116" lon="6.11137">
        <ele>824</ele>
        <time>2022-03-03T08:54:12.000Z</time>
      </trkpt>
      <trkpt lat="44.13116" lon="6.11138">
        <ele>824</ele>
        <time>2022-03-03T08:54:13.000Z</time>
      </trkpt>
      <trkpt lat="44.13117" lon="6.11139">
        <ele>825</ele>
        <time>2022-03-03T08:54:14.000Z</time>
      </trkpt>
      <trkpt lat="44.13118" lon="6.1114">
        <ele>825</ele>
        <time>2022-03-03T08:54:15.000Z</time>
      </trkpt>
      <trkpt lat="44.13118" lon="6.11141">
        <ele>825</ele>
        <time>2022-03-03T08:54:16.000Z</time>
      </trkpt>
      <trkpt lat="44.13119" lon="6.11143">
        <ele>825</ele>
        <time>2022-03-03T08:54:17.000Z</time>
      </trkpt>
      <trkpt lat="44.13119" lon="6.11144">
        <ele>825</ele>
        <time>2022-03-03T08:54:18.000Z</time>
      </trkpt>
      <trkpt lat="44.1312" lon="6.11145">
        <ele>826</ele>
        <time>2022-03-03T08:54:19.000Z</time>
      </trkpt>
      <trkpt lat="44.13121" lon="6.11146">
        <ele>826</ele>
        <time>2022-03-03T08:54:20.000Z</time>
      </trkpt>
      <trkpt lat="44.13121" lon="6.11148">
        <ele>826</ele>
        <time>2022-03-03T08:54:21.000Z</time>
      </trkpt>
      <trkpt lat="44.13122" lon="6.11149">
        <ele>826</ele>
        <time>2022-03-03T08:54:22.000Z</time>
      </trkpt>
      <trkpt lat="44.13123" lon="6.1115">
        <ele>826</ele>
        <time>2022-03-03T08:54:23.000Z</time>
      </trkpt>
      <trkpt lat="44.13123" lon="6.11151">
        <ele>826</ele>
        <time>2022-03-03T08:54:24.000Z</time>
      </trkpt>
      <trkpt lat="44.13124" lon="6.11152">
        <ele>827</ele>
        <time>2022-03-03T08:54:25.000Z</time>
      </trkpt>
      <trkpt lat="44.13125" lon="6.11153">
        <ele>827</ele>
        <time>2022-03-03T08:54:26.000Z</time>
      </trkpt>
      <trkpt lat="44.13125" lon="6.11154">
        <ele>827</ele>
        <time>2022-03-03T08:54:27.000Z</time>
      </trkpt>
      <trkpt lat="44.13126" lon="6.11155">
        <ele>827</ele>
        <time>2022-03-03T08:54:28.000Z</time>
      </trkpt>
      <trkpt lat="44.13127" lon="6.11156">
        <ele>827</ele>
        <time>2022-03-03T08:54:29.000Z</time>
      </trkpt>
      <trkpt lat="44.13127" lon="6.11157">
        <ele>828</ele>
        <time>2022-03-03T08:54:30.000Z</time>
      </trkpt>
      <trkpt lat="44.13128" lon="6.11158">
        <ele>828</ele>
        <time>2022-03-03T08:54:31.000Z</time>
      </trkpt>
      <trkpt lat="44.13129" lon="6.11159">
        <ele>828</ele>
        <time>2022-03-03T08:54:32.000Z</time>
      </trkpt>
      <trkpt lat="44.13129" lon="6.1116">
        <ele>828</ele>
        <time>2022-03-03T08:54:33.000Z</time>
      </trkpt>
      <trkpt lat="44.1313" lon="6.11161">
        <ele>828</ele>
        <time>2022-03-03T08:54:34.000Z</time>
      </trkpt>
      <trkpt lat="44.13131" lon="6.11162">
        <ele>828</ele>
        <time>2022-03-03T08:54:35.000Z</time>
      </trkpt>
      <trkpt lat="44.13131" lon="6.11163">
        <ele>828</ele>
        <time>2022-03-03T08:54:36.000Z</time>
      </trkpt>
      <trkpt lat="44.13131" lon="6.11164">
        <ele>829</ele>
        <time>2022-03-03T08:54:37.000Z</time>
      </trkpt>
      <trkpt lat="44.13132" lon="6.11164">
        <ele>829</ele>
        <time>2022-03-03T08:54:38.000Z</time>
      </trkpt>
      <trkpt lat="44.13132" lon="6.11164">
        <ele>829</ele>
        <time>2022-03-03T08:54:39.000Z</time>
      </trkpt>
      <trkpt lat="44.13132" lon="6.11164">
        <ele>829</ele>
        <time>2022-03-03T08:54:40.000Z</time>
      </trkpt>
      <trkpt lat="44.13132" lon="6.11164">
        <ele>829</ele>
        <time>2022-03-03T08:54:41.000Z</time>
      </trkpt>
      <trkpt lat="44.13132" lon="6.11164">
        <ele>829</ele>
        <time>2022-03-03T08:54:42.000Z</time>
      </trkpt>
      <trkpt lat="44.13132" lon="6.11164">
        <ele>829</ele>
        <time>2022-03-03T08:54:43.000Z</time>
      </trkpt>
      <trkpt lat="44.13132" lon="6.11164">
        <ele>829</ele>
        <time>2022-03-03T08:54:44.000Z</time>
      </trkpt>
      <trkpt lat="44.13132" lon="6.11164">
        <ele>829</ele>
        <time>2022-03-03T08:54:45.000Z</time>
      </trkpt>
      <trkpt lat="44.13132" lon="6.11164">
        <ele>829</ele>
        <time>2022-03-03T08:54:46.000Z</time>
      </trkpt>
      <trkpt lat="44.13132" lon="6.11164">
        <ele>829</ele>
        <time>2022-03-03T08:54:47.000Z</time>
      </trkpt>
      <trkpt lat="44.13132" lon="6.11164">
        <ele>829</ele>
        <time>2022-03-03T08:54:48.000Z</time>
      </trkpt>
      <trkpt lat="44.13132" lon="6.11164">
        <ele>829</ele>
        <time>2022-03-03T08:54:49.000Z</time>
      </trkpt>
      <trkpt lat="44.13131" lon="6.11164">
        <ele>830</ele>
        <time>2022-03-03T08:54:50.000Z</time>
      </trkpt>
      <trkpt lat="44.13131" lon="6.11164">
        <ele>830</ele>
        <time>2022-03-03T08:54:51.000Z</time>
      </trkpt>
      <trkpt lat="44.13131" lon="6.11164">
        <ele>830</ele>
        <time>2022-03-03T08:54:52.000Z</time>
      </trkpt>
      <trkpt lat="44.13131" lon="6.11164">
        <ele>830</ele>
        <time>2022-03-03T08:54:53.000Z</time>
      </trkpt>
      <trkpt lat="44.13131" lon="6.11164">
        <ele>830</ele>
        <time>2022-03-03T08:54:54.000Z</time>
      </trkpt>
      <trkpt lat="44.13131" lon="6.11164">
        <ele>830</ele>
        <time>2022-03-03T08:54:55.000Z</time>
      </trkpt>
      <trkpt lat="44.13131" lon="6.11165">
        <ele>830</ele>
        <time>2022-03-03T08:54:56.000Z</time>
      </trkpt>
      <trkpt lat="44.13131" lon="6.11166">
        <ele>830</ele>
        <time>2022-03-03T08:54:57.000Z</time>
      </trkpt>
      <trkpt lat="44.13132" lon="6.11167">
        <ele>830</ele>
        <time>2022-03-03T08:54:58.000Z</time>
      </trkpt>
      <trkpt lat="44.13132" lon="6.11168">
        <ele>830</ele>
        <time>2022-03-03T08:54:59.000Z</time>
      </trkpt>
      <trkpt lat="44.13133" lon="6.11169">
        <ele>830</ele>
        <time>2022-03-03T08:55:00.000Z</time>
      </trkpt>
      <trkpt lat="44.13133" lon="6.1117">
        <ele>831</ele>
        <time>2022-03-03T08:55:01.000Z</time>
      </trkpt>
      <trkpt lat="44.13134" lon="6.11171">
        <ele>831</ele>
        <time>2022-03-03T08:55:02.000Z</time>
      </trkpt>
      <trkpt lat="44.13134" lon="6.11173">
        <ele>831</ele>
        <time>2022-03-03T08:55:03.000Z</time>
      </trkpt>
      <trkpt lat="44.13135" lon="6.11174">
        <ele>831</ele>
        <time>2022-03-03T08:55:04.000Z</time>
      </trkpt>
      <trkpt lat="44.13135" lon="6.11175">
        <ele>831</ele>
        <time>2022-03-03T08:55:05.000Z</time>
      </trkpt>
      <trkpt lat="44.13136" lon="6.11177">
        <ele>832</ele>
        <time>2022-03-03T08:55:06.000Z</time>
      </trkpt>
      <trkpt lat="44.13136" lon="6.11178">
        <ele>832</ele>
        <time>2022-03-03T08:55:07.000Z</time>
      </trkpt>
      <trkpt lat="44.13136" lon="6.11179">
        <ele>832</ele>
        <time>2022-03-03T08:55:08.000Z</time>
      </trkpt>
      <trkpt lat="44.13137" lon="6.1118">
        <ele>832</ele>
        <time>2022-03-03T08:55:09.000Z</time>
      </trkpt>
      <trkpt lat="44.13137" lon="6.11182">
        <ele>832</ele>
        <time>2022-03-03T08:55:10.000Z</time>
      </trkpt>
      <trkpt lat="44.13138" lon="6.11183">
        <ele>832</ele>
        <time>2022-03-03T08:55:11.000Z</time>
      </trkpt>
      <trkpt lat="44.13138" lon="6.11184">
        <ele>833</ele>
        <time>2022-03-03T08:55:12.000Z</time>
      </trkpt>
      <trkpt lat="44.13138" lon="6.11186">
        <ele>833</ele>
        <time>2022-03-03T08:55:13.000Z</time>
      </trkpt>
      <trkpt lat="44.13138" lon="6.11187">
        <ele>833</ele>
        <time>2022-03-03T08:55:14.000Z</time>
      </trkpt>
      <trkpt lat="44.13139" lon="6.11189">
        <ele>833</ele>
        <time>2022-03-03T08:55:15.000Z</time>
      </trkpt>
      <trkpt lat="44.13139" lon="6.1119">
        <ele>833</ele>
        <time>2022-03-03T08:55:16.000Z</time>
      </trkpt>
      <trkpt lat="44.13139" lon="6.11192">
        <ele>833</ele>
        <time>2022-03-03T08:55:17.000Z</time>
      </trkpt>
      <trkpt lat="44.1314" lon="6.11193">
        <ele>834</ele>
        <time>2022-03-03T08:55:18.000Z</time>
      </trkpt>
      <trkpt lat="44.1314" lon="6.11195">
        <ele>834</ele>
        <time>2022-03-03T08:55:19.000Z</time>
      </trkpt>
      <trkpt lat="44.1314" lon="6.11196">
        <ele>834</ele>
        <time>2022-03-03T08:55:20.000Z</time>
      </trkpt>
      <trkpt lat="44.1314" lon="6.11198">
        <ele>834</ele>
        <time>2022-03-03T08:55:21.000Z</time>
      </trkpt>
      <trkpt lat="44.1314" lon="6.11199">
        <ele>834</ele>
        <time>2022-03-03T08:55:22.000Z</time>
      </trkpt>
      <trkpt lat="44.13141" lon="6.112">
        <ele>834</ele>
        <time>2022-03-03T08:55:23.000Z</time>
      </trkpt>
      <trkpt lat="44.13141" lon="6.11202">
        <ele>834</ele>
        <time>2022-03-03T08:55:24.000Z</time>
      </trkpt>
      <trkpt lat="44.13141" lon="6.11203">
        <ele>835</ele>
        <time>2022-03-03T08:55:25.000Z</time>
      </trkpt>
      <trkpt lat="44.13141" lon="6.11205">
        <ele>835</ele>
        <time>2022-03-03T08:55:26.000Z</time>
      </trkpt>
      <trkpt lat="44.13141" lon="6.11206">
        <ele>835</ele>
        <time>2022-03-03T08:55:27.000Z</time>
      </trkpt>
      <trkpt lat="44.13141" lon="6.11207">
        <ele>835</ele>
        <time>2022-03-03T08:55:28.000Z</time>
      </trkpt>
      <trkpt lat="44.13142" lon="6.11209">
        <ele>835</ele>
        <time>2022-03-03T08:55:29.000Z</time>
      </trkpt>
      <trkpt lat="44.13142" lon="6.1121">
        <ele>835</ele>
        <time>2022-03-03T08:55:30.000Z</time>
      </trkpt>
      <trkpt lat="44.13142" lon="6.11211">
        <ele>835</ele>
        <time>2022-03-03T08:55:31.000Z</time>
      </trkpt>
      <trkpt lat="44.13142" lon="6.11213">
        <ele>835</ele>
        <time>2022-03-03T08:55:32.000Z</time>
      </trkpt>
      <trkpt lat="44.13142" lon="6.11214">
        <ele>835</ele>
        <time>2022-03-03T08:55:33.000Z</time>
      </trkpt>
      <trkpt lat="44.13143" lon="6.11216">
        <ele>835</ele>
        <time>2022-03-03T08:55:34.000Z</time>
      </trkpt>
      <trkpt lat="44.13143" lon="6.11217">
        <ele>835</ele>
        <time>2022-03-03T08:55:35.000Z</time>
      </trkpt>
      <trkpt lat="44.13143" lon="6.11218">
        <ele>835</ele>
        <time>2022-03-03T08:55:36.000Z</time>
      </trkpt>
      <trkpt lat="44.13143" lon="6.1122">
        <ele>835</ele>
        <time>2022-03-03T08:55:37.000Z</time>
      </trkpt>
      <trkpt lat="44.13143" lon="6.11222">
        <ele>835</ele>
        <time>2022-03-03T08:55:38.000Z</time>
      </trkpt>
      <trkpt lat="44.13144" lon="6.11223">
        <ele>835</ele>
        <time>2022-03-03T08:55:39.000Z</time>
      </trkpt>
      <trkpt lat="44.13144" lon="6.11224">
        <ele>836</ele>
        <time>2022-03-03T08:55:40.000Z</time>
      </trkpt>
      <trkpt lat="44.13144" lon="6.11226">
        <ele>836</ele>
        <time>2022-03-03T08:55:41.000Z</time>
      </trkpt>
      <trkpt lat="44.13144" lon="6.11227">
        <ele>836</ele>
        <time>2022-03-03T08:55:42.000Z</time>
      </trkpt>
      <trkpt lat="44.13144" lon="6.11228">
        <ele>836</ele>
        <time>2022-03-03T08:55:43.000Z</time>
      </trkpt>
      <trkpt lat="44.13144" lon="6.1123">
        <ele>836</ele>
        <time>2022-03-03T08:55:44.000Z</time>
      </trkpt>
      <trkpt lat="44.13144" lon="6.11231">
        <ele>836</ele>
        <time>2022-03-03T08:55:45.000Z</time>
      </trkpt>
      <trkpt lat="44.13144" lon="6.11232">
        <ele>836</ele>
        <time>2022-03-03T08:55:46.000Z</time>
      </trkpt>
      <trkpt lat="44.13145" lon="6.11234">
        <ele>836</ele>
        <time>2022-03-03T08:55:47.000Z</time>
      </trkpt>
      <trkpt lat="44.13145" lon="6.11235">
        <ele>836</ele>
        <time>2022-03-03T08:55:48.000Z</time>
      </trkpt>
      <trkpt lat="44.13145" lon="6.11237">
        <ele>836</ele>
        <time>2022-03-03T08:55:49.000Z</time>
      </trkpt>
      <trkpt lat="44.13145" lon="6.11238">
        <ele>837</ele>
        <time>2022-03-03T08:55:50.000Z</time>
      </trkpt>
      <trkpt lat="44.13145" lon="6.1124">
        <ele>837</ele>
        <time>2022-03-03T08:55:51.000Z</time>
      </trkpt>
      <trkpt lat="44.13146" lon="6.11241">
        <ele>837</ele>
        <time>2022-03-03T08:55:52.000Z</time>
      </trkpt>
      <trkpt lat="44.13146" lon="6.11242">
        <ele>837</ele>
        <time>2022-03-03T08:55:53.000Z</time>
      </trkpt>
      <trkpt lat="44.13146" lon="6.11244">
        <ele>837</ele>
        <time>2022-03-03T08:55:54.000Z</time>
      </trkpt>
      <trkpt lat="44.13147" lon="6.11245">
        <ele>837</ele>
        <time>2022-03-03T08:55:55.000Z</time>
      </trkpt>
      <trkpt lat="44.13147" lon="6.11247">
        <ele>837</ele>
        <time>2022-03-03T08:55:56.000Z</time>
      </trkpt>
      <trkpt lat="44.13147" lon="6.11248">
        <ele>837</ele>
        <time>2022-03-03T08:55:57.000Z</time>
      </trkpt>
      <trkpt lat="44.13148" lon="6.1125">
        <ele>837</ele>
        <time>2022-03-03T08:55:58.000Z</time>
      </trkpt>
      <trkpt lat="44.13148" lon="6.11251">
        <ele>837</ele>
        <time>2022-03-03T08:55:59.000Z</time>
      </trkpt>
      <trkpt lat="44.13148" lon="6.11252">
        <ele>837</ele>
        <time>2022-03-03T08:56:00.000Z</time>
      </trkpt>
      <trkpt lat="44.13149" lon="6.11254">
        <ele>838</ele>
        <time>2022-03-03T08:56:01.000Z</time>
      </trkpt>
      <trkpt lat="44.13149" lon="6.11255">
        <ele>838</ele>
        <time>2022-03-03T08:56:02.000Z</time>
      </trkpt>
      <trkpt lat="44.13149" lon="6.11256">
        <ele>838</ele>
        <time>2022-03-03T08:56:03.000Z</time>
      </trkpt>
      <trkpt lat="44.1315" lon="6.11258">
        <ele>838</ele>
        <time>2022-03-03T08:56:04.000Z</time>
      </trkpt>
      <trkpt lat="44.1315" lon="6.11259">
        <ele>838</ele>
        <time>2022-03-03T08:56:05.000Z</time>
      </trkpt>
      <trkpt lat="44.1315" lon="6.11261">
        <ele>838</ele>
        <time>2022-03-03T08:56:06.000Z</time>
      </trkpt>
      <trkpt lat="44.13151" lon="6.11262">
        <ele>838</ele>
        <time>2022-03-03T08:56:07.000Z</time>
      </trkpt>
      <trkpt lat="44.13151" lon="6.11263">
        <ele>838</ele>
        <time>2022-03-03T08:56:08.000Z</time>
      </trkpt>
      <trkpt lat="44.13151" lon="6.11264">
        <ele>838</ele>
        <time>2022-03-03T08:56:09.000Z</time>
      </trkpt>
      <trkpt lat="44.13152" lon="6.11266">
        <ele>838</ele>
        <time>2022-03-03T08:56:10.000Z</time>
      </trkpt>
      <trkpt lat="44.13152" lon="6.11267">
        <ele>838</ele>
        <time>2022-03-03T08:56:11.000Z</time>
      </trkpt>
      <trkpt lat="44.13153" lon="6.11267">
        <ele>838</ele>
        <time>2022-03-03T08:56:12.000Z</time>
      </trkpt>
      <trkpt lat="44.13153" lon="6.11269">
        <ele>838</ele>
        <time>2022-03-03T08:56:13.000Z</time>
      </trkpt>
      <trkpt lat="44.13154" lon="6.1127">
        <ele>839</ele>
        <time>2022-03-03T08:56:14.000Z</time>
      </trkpt>
      <trkpt lat="44.13154" lon="6.11271">
        <ele>839</ele>
        <time>2022-03-03T08:56:15.000Z</time>
      </trkpt>
      <trkpt lat="44.13155" lon="6.11272">
        <ele>839</ele>
        <time>2022-03-03T08:56:16.000Z</time>
      </trkpt>
      <trkpt lat="44.13155" lon="6.11273">
        <ele>839</ele>
        <time>2022-03-03T08:56:17.000Z</time>
      </trkpt>
      <trkpt lat="44.13156" lon="6.11274">
        <ele>839</ele>
        <time>2022-03-03T08:56:18.000Z</time>
      </trkpt>
      <trkpt lat="44.13156" lon="6.11276">
        <ele>839</ele>
        <time>2022-03-03T08:56:19.000Z</time>
      </trkpt>
      <trkpt lat="44.13157" lon="6.11277">
        <ele>839</ele>
        <time>2022-03-03T08:56:20.000Z</time>
      </trkpt>
      <trkpt lat="44.13157" lon="6.11278">
        <ele>839</ele>
        <time>2022-03-03T08:56:21.000Z</time>
      </trkpt>
      <trkpt lat="44.13158" lon="6.11279">
        <ele>839</ele>
        <time>2022-03-03T08:56:22.000Z</time>
      </trkpt>
      <trkpt lat="44.13158" lon="6.11281">
        <ele>839</ele>
        <time>2022-03-03T08:56:23.000Z</time>
      </trkpt>
      <trkpt lat="44.13159" lon="6.11282">
        <ele>839</ele>
        <time>2022-03-03T08:56:24.000Z</time>
      </trkpt>
      <trkpt lat="44.13159" lon="6.11283">
        <ele>839</ele>
        <time>2022-03-03T08:56:25.000Z</time>
      </trkpt>
      <trkpt lat="44.1316" lon="6.11284">
        <ele>839</ele>
        <time>2022-03-03T08:56:26.000Z</time>
      </trkpt>
      <trkpt lat="44.1316" lon="6.11286">
        <ele>839</ele>
        <time>2022-03-03T08:56:27.000Z</time>
      </trkpt>
      <trkpt lat="44.13161" lon="6.11287">
        <ele>839</ele>
        <time>2022-03-03T08:56:28.000Z</time>
      </trkpt>
      <trkpt lat="44.13161" lon="6.11288">
        <ele>839</ele>
        <time>2022-03-03T08:56:29.000Z</time>
      </trkpt>
      <trkpt lat="44.13162" lon="6.11289">
        <ele>840</ele>
        <time>2022-03-03T08:56:30.000Z</time>
      </trkpt>
      <trkpt lat="44.13162" lon="6.11291">
        <ele>840</ele>
        <time>2022-03-03T08:56:31.000Z</time>
      </trkpt>
      <trkpt lat="44.13163" lon="6.11292">
        <ele>840</ele>
        <time>2022-03-03T08:56:32.000Z</time>
      </trkpt>
      <trkpt lat="44.13163" lon="6.11293">
        <ele>840</ele>
        <time>2022-03-03T08:56:33.000Z</time>
      </trkpt>
      <trkpt lat="44.13163" lon="6.11295">
        <ele>840</ele>
        <time>2022-03-03T08:56:34.000Z</time>
      </trkpt>
      <trkpt lat="44.13164" lon="6.11297">
        <ele>840</ele>
        <time>2022-03-03T08:56:35.000Z</time>
      </trkpt>
      <trkpt lat="44.13164" lon="6.11298">
        <ele>840</ele>
        <time>2022-03-03T08:56:36.000Z</time>
      </trkpt>
      <trkpt lat="44.13165" lon="6.11299">
        <ele>840</ele>
        <time>2022-03-03T08:56:37.000Z</time>
      </trkpt>
      <trkpt lat="44.13165" lon="6.11301">
        <ele>840</ele>
        <time>2022-03-03T08:56:38.000Z</time>
      </trkpt>
      <trkpt lat="44.13165" lon="6.11302">
        <ele>840</ele>
        <time>2022-03-03T08:56:39.000Z</time>
      </trkpt>
      <trkpt lat="44.13166" lon="6.11304">
        <ele>840</ele>
        <time>2022-03-03T08:56:40.000Z</time>
      </trkpt>
      <trkpt lat="44.13166" lon="6.11305">
        <ele>840</ele>
        <time>2022-03-03T08:56:41.000Z</time>
      </trkpt>
      <trkpt lat="44.13166" lon="6.11307">
        <ele>840</ele>
        <time>2022-03-03T08:56:42.000Z</time>
      </trkpt>
      <trkpt lat="44.13167" lon="6.11308">
        <ele>840</ele>
        <time>2022-03-03T08:56:43.000Z</time>
      </trkpt>
      <trkpt lat="44.13167" lon="6.11309">
        <ele>841</ele>
        <time>2022-03-03T08:56:44.000Z</time>
      </trkpt>
      <trkpt lat="44.13167" lon="6.11311">
        <ele>841</ele>
        <time>2022-03-03T08:56:45.000Z</time>
      </trkpt>
      <trkpt lat="44.13168" lon="6.11313">
        <ele>841</ele>
        <time>2022-03-03T08:56:46.000Z</time>
      </trkpt>
      <trkpt lat="44.13168" lon="6.11314">
        <ele>841</ele>
        <time>2022-03-03T08:56:47.000Z</time>
      </trkpt>
      <trkpt lat="44.13168" lon="6.11315">
        <ele>841</ele>
        <time>2022-03-03T08:56:48.000Z</time>
      </trkpt>
      <trkpt lat="44.13169" lon="6.11317">
        <ele>841</ele>
        <time>2022-03-03T08:56:49.000Z</time>
      </trkpt>
      <trkpt lat="44.13169" lon="6.11319">
        <ele>841</ele>
        <time>2022-03-03T08:56:50.000Z</time>
      </trkpt>
      <trkpt lat="44.1317" lon="6.1132">
        <ele>841</ele>
        <time>2022-03-03T08:56:51.000Z</time>
      </trkpt>
      <trkpt lat="44.1317" lon="6.11321">
        <ele>841</ele>
        <time>2022-03-03T08:56:52.000Z</time>
      </trkpt>
      <trkpt lat="44.1317" lon="6.11322">
        <ele>841</ele>
        <time>2022-03-03T08:56:53.000Z</time>
      </trkpt>
      <trkpt lat="44.13171" lon="6.11323">
        <ele>842</ele>
        <time>2022-03-03T08:56:54.000Z</time>
      </trkpt>
      <trkpt lat="44.13172" lon="6.11324">
        <ele>842</ele>
        <time>2022-03-03T08:56:55.000Z</time>
      </trkpt>
      <trkpt lat="44.13172" lon="6.11324">
        <ele>842</ele>
        <time>2022-03-03T08:56:56.000Z</time>
      </trkpt>
      <trkpt lat="44.13172" lon="6.11324">
        <ele>842</ele>
        <time>2022-03-03T08:56:57.000Z</time>
      </trkpt>
      <trkpt lat="44.13172" lon="6.11325">
        <ele>842</ele>
        <time>2022-03-03T08:56:58.000Z</time>
      </trkpt>
      <trkpt lat="44.13172" lon="6.11325">
        <ele>842</ele>
        <time>2022-03-03T08:56:59.000Z</time>
      </trkpt>
      <trkpt lat="44.13172" lon="6.11325">
        <ele>842</ele>
        <time>2022-03-03T08:57:00.000Z</time>
      </trkpt>
      <trkpt lat="44.13172" lon="6.11325">
        <ele>842</ele>
        <time>2022-03-03T08:57:01.000Z</time>
      </trkpt>
      <trkpt lat="44.13172" lon="6.11325">
        <ele>842</ele>
        <time>2022-03-03T08:57:02.000Z</time>
      </trkpt>
      <trkpt lat="44.13172" lon="6.11325">
        <ele>842</ele>
        <time>2022-03-03T08:57:03.000Z</time>
      </trkpt>
      <trkpt lat="44.13172" lon="6.11325">
        <ele>842</ele>
        <time>2022-03-03T08:57:04.000Z</time>
      </trkpt>
      <trkpt lat="44.13172" lon="6.11325">
        <ele>842</ele>
        <time>2022-03-03T08:57:05.000Z</time>
      </trkpt>
      <trkpt lat="44.13172" lon="6.11325">
        <ele>842</ele>
        <time>2022-03-03T08:57:06.000Z</time>
      </trkpt>
      <trkpt lat="44.13172" lon="6.11325">
        <ele>842</ele>
        <time>2022-03-03T08:57:07.000Z</time>
      </trkpt>
      <trkpt lat="44.13172" lon="6.11325">
        <ele>842</ele>
        <time>2022-03-03T08:57:08.000Z</time>
      </trkpt>
      <trkpt lat="44.13172" lon="6.11325">
        <ele>842</ele>
        <time>2022-03-03T08:57:09.000Z</time>
      </trkpt>
      <trkpt lat="44.13172" lon="6.11325">
        <ele>842</ele>
        <time>2022-03-03T08:57:10.000Z</time>
      </trkpt>
      <trkpt lat="44.13172" lon="6.11325">
        <ele>842</ele>
        <time>2022-03-03T08:57:11.000Z</time>
      </trkpt>
      <trkpt lat="44.13172" lon="6.11325">
        <ele>842</ele>
        <time>2022-03-03T08:57:12.000Z</time>
      </trkpt>
      <trkpt lat="44.13172" lon="6.11325">
        <ele>842</ele>
        <time>2022-03-03T08:57:13.000Z</time>
      </trkpt>
      <trkpt lat="44.13172" lon="6.11326">
        <ele>842</ele>
        <time>2022-03-03T08:57:14.000Z</time>
      </trkpt>
      <trkpt lat="44.13172" lon="6.11325">
        <ele>842</ele>
        <time>2022-03-03T08:57:15.000Z</time>
      </trkpt>
      <trkpt lat="44.13172" lon="6.11325">
        <ele>842</ele>
        <time>2022-03-03T08:57:16.000Z</time>
      </trkpt>
      <trkpt lat="44.13172" lon="6.11325">
        <ele>842</ele>
        <time>2022-03-03T08:57:17.000Z</time>
      </trkpt>
      <trkpt lat="44.13172" lon="6.11325">
        <ele>842</ele>
        <time>2022-03-03T08:57:18.000Z</time>
      </trkpt>
      <trkpt lat="44.13171" lon="6.11325">
        <ele>842</ele>
        <time>2022-03-03T08:57:19.000Z</time>
      </trkpt>
      <trkpt lat="44.13171" lon="6.11325">
        <ele>843</ele>
        <time>2022-03-03T08:57:20.000Z</time>
      </trkpt>
      <trkpt lat="44.13171" lon="6.11325">
        <ele>843</ele>
        <time>2022-03-03T08:57:21.000Z</time>
      </trkpt>
      <trkpt lat="44.13171" lon="6.11325">
        <ele>843</ele>
        <time>2022-03-03T08:57:22.000Z</time>
      </trkpt>
      <trkpt lat="44.13171" lon="6.11324">
        <ele>843</ele>
        <time>2022-03-03T08:57:23.000Z</time>
      </trkpt>
      <trkpt lat="44.13171" lon="6.11325">
        <ele>843</ele>
        <time>2022-03-03T08:57:24.000Z</time>
      </trkpt>
      <trkpt lat="44.13171" lon="6.11325">
        <ele>843</ele>
        <time>2022-03-03T08:57:25.000Z</time>
      </trkpt>
      <trkpt lat="44.13172" lon="6.11324">
        <ele>843</ele>
        <time>2022-03-03T08:57:26.000Z</time>
      </trkpt>
      <trkpt lat="44.13171" lon="6.11324">
        <ele>843</ele>
        <time>2022-03-03T08:57:27.000Z</time>
      </trkpt>
      <trkpt lat="44.13171" lon="6.11325">
        <ele>842</ele>
        <time>2022-03-03T08:57:28.000Z</time>
      </trkpt>
      <trkpt lat="44.13171" lon="6.11325">
        <ele>842</ele>
        <time>2022-03-03T08:57:29.000Z</time>
      </trkpt>
      <trkpt lat="44.13171" lon="6.11325">
        <ele>842</ele>
        <time>2022-03-03T08:57:30.000Z</time>
      </trkpt>
      <trkpt lat="44.13172" lon="6.11325">
        <ele>842</ele>
        <time>2022-03-03T08:57:31.000Z</time>
      </trkpt>
      <trkpt lat="44.13172" lon="6.11325">
        <ele>842</ele>
        <time>2022-03-03T08:57:32.000Z</time>
      </trkpt>
      <trkpt lat="44.13172" lon="6.11325">
        <ele>842</ele>
        <time>2022-03-03T08:57:33.000Z</time>
      </trkpt>
      <trkpt lat="44.13172" lon="6.11325">
        <ele>842</ele>
        <time>2022-03-03T08:57:34.000Z</time>
      </trkpt>
      <trkpt lat="44.13172" lon="6.11325">
        <ele>842</ele>
        <time>2022-03-03T08:57:35.000Z</time>
      </trkpt>
      <trkpt lat="44.13172" lon="6.11325">
        <ele>842</ele>
        <time>2022-03-03T08:57:36.000Z</time>
      </trkpt>
      <trkpt lat="44.13172" lon="6.11325">
        <ele>842</ele>
        <time>2022-03-03T08:57:37.000Z</time>
      </trkpt>
      <trkpt lat="44.13172" lon="6.11325">
        <ele>842</ele>
        <time>2022-03-03T08:57:38.000Z</time>
      </trkpt>
      <trkpt lat="44.13172" lon="6.11325">
        <ele>842</ele>
        <time>2022-03-03T08:57:39.000Z</time>
      </trkpt>
      <trkpt lat="44.13172" lon="6.11325">
        <ele>842</ele>
        <time>2022-03-03T08:57:40.000Z</time>
      </trkpt>
      <trkpt lat="44.13172" lon="6.11325">
        <ele>842</ele>
        <time>2022-03-03T08:57:41.000Z</time>
      </trkpt>
      <trkpt lat="44.13172" lon="6.11325">
        <ele>842</ele>
        <time>2022-03-03T08:57:42.000Z</time>
      </trkpt>
      <trkpt lat="44.13172" lon="6.11325">
        <ele>843</ele>
        <time>2022-03-03T08:57:43.000Z</time>
      </trkpt>
      <trkpt lat="44.13172" lon="6.11325">
        <ele>843</ele>
        <time>2022-03-03T08:57:44.000Z</time>
      </trkpt>
      <trkpt lat="44.13172" lon="6.11325">
        <ele>843</ele>
        <time>2022-03-03T08:57:45.000Z</time>
      </trkpt>
      <trkpt lat="44.13172" lon="6.11325">
        <ele>843</ele>
        <time>2022-03-03T08:57:46.000Z</time>
      </trkpt>
      <trkpt lat="44.13172" lon="6.11325">
        <ele>842</ele>
        <time>2022-03-03T08:57:47.000Z</time>
      </trkpt>
      <trkpt lat="44.13172" lon="6.11324">
        <ele>843</ele>
        <time>2022-03-03T08:57:48.000Z</time>
      </trkpt>
      <trkpt lat="44.13172" lon="6.11325">
        <ele>843</ele>
        <time>2022-03-03T08:57:49.000Z</time>
      </trkpt>
      <trkpt lat="44.13172" lon="6.11325">
        <ele>843</ele>
        <time>2022-03-03T08:57:50.000Z</time>
      </trkpt>
      <trkpt lat="44.13172" lon="6.11325">
        <ele>842</ele>
        <time>2022-03-03T08:57:51.000Z</time>
      </trkpt>
      <trkpt lat="44.13172" lon="6.11325">
        <ele>842</ele>
        <time>2022-03-03T08:57:52.000Z</time>
      </trkpt>
      <trkpt lat="44.13172" lon="6.11325">
        <ele>842</ele>
        <time>2022-03-03T08:57:53.000Z</time>
      </trkpt>
      <trkpt lat="44.13172" lon="6.11325">
        <ele>842</ele>
        <time>2022-03-03T08:57:54.000Z</time>
      </trkpt>
      <trkpt lat="44.13172" lon="6.11325">
        <ele>842</ele>
        <time>2022-03-03T08:57:55.000Z</time>
      </trkpt>
      <trkpt lat="44.13172" lon="6.11324">
        <ele>842</ele>
        <time>2022-03-03T08:57:56.000Z</time>
      </trkpt>
      <trkpt lat="44.13172" lon="6.11324">
        <ele>842</ele>
        <time>2022-03-03T08:57:57.000Z</time>
      </trkpt>
      <trkpt lat="44.13171" lon="6.11324">
        <ele>843</ele>
        <time>2022-03-03T08:57:58.000Z</time>
      </trkpt>
      <trkpt lat="44.13171" lon="6.11324">
        <ele>843</ele>
        <time>2022-03-03T08:57:59.000Z</time>
      </trkpt>
      <trkpt lat="44.13171" lon="6.11324">
        <ele>843</ele>
        <time>2022-03-03T08:58:00.000Z</time>
      </trkpt>
      <trkpt lat="44.13171" lon="6.11324">
        <ele>843</ele>
        <time>2022-03-03T08:58:01.000Z</time>
      </trkpt>
      <trkpt lat="44.13171" lon="6.11324">
        <ele>843</ele>
        <time>2022-03-03T08:58:02.000Z</time>
      </trkpt>
      <trkpt lat="44.13171" lon="6.11324">
        <ele>843</ele>
        <time>2022-03-03T08:58:03.000Z</time>
      </trkpt>
      <trkpt lat="44.13171" lon="6.11325">
        <ele>842</ele>
        <time>2022-03-03T08:58:04.000Z</time>
      </trkpt>
      <trkpt lat="44.13171" lon="6.11325">
        <ele>842</ele>
        <time>2022-03-03T08:58:05.000Z</time>
      </trkpt>
      <trkpt lat="44.13171" lon="6.11325">
        <ele>842</ele>
        <time>2022-03-03T08:58:06.000Z</time>
      </trkpt>
      <trkpt lat="44.13171" lon="6.11325">
        <ele>842</ele>
        <time>2022-03-03T08:58:07.000Z</time>
      </trkpt>
      <trkpt lat="44.13171" lon="6.11325">
        <ele>842</ele>
        <time>2022-03-03T08:58:08.000Z</time>
      </trkpt>
      <trkpt lat="44.13171" lon="6.11325">
        <ele>842</ele>
        <time>2022-03-03T08:58:09.000Z</time>
      </trkpt>
      <trkpt lat="44.13172" lon="6.11325">
        <ele>842</ele>
        <time>2022-03-03T08:58:10.000Z</time>
      </trkpt>
      <trkpt lat="44.13172" lon="6.11326">
        <ele>843</ele>
        <time>2022-03-03T08:58:11.000Z</time>
      </trkpt>
      <trkpt lat="44.13173" lon="6.11326">
        <ele>843</ele>
        <time>2022-03-03T08:58:12.000Z</time>
      </trkpt>
      <trkpt lat="44.13174" lon="6.11326">
        <ele>843</ele>
        <time>2022-03-03T08:58:13.000Z</time>
      </trkpt>
      <trkpt lat="44.13175" lon="6.11326">
        <ele>843</ele>
        <time>2022-03-03T08:58:14.000Z</time>
      </trkpt>
      <trkpt lat="44.13176" lon="6.11326">
        <ele>843</ele>
        <time>2022-03-03T08:58:15.000Z</time>
      </trkpt>
      <trkpt lat="44.13177" lon="6.11326">
        <ele>843</ele>
        <time>2022-03-03T08:58:16.000Z</time>
      </trkpt>
      <trkpt lat="44.13177" lon="6.11326">
        <ele>843</ele>
        <time>2022-03-03T08:58:17.000Z</time>
      </trkpt>
      <trkpt lat="44.13178" lon="6.11325">
        <ele>843</ele>
        <time>2022-03-03T08:58:18.000Z</time>
      </trkpt>
      <trkpt lat="44.13179" lon="6.11325">
        <ele>843</ele>
        <time>2022-03-03T08:58:19.000Z</time>
      </trkpt>
      <trkpt lat="44.1318" lon="6.11324">
        <ele>843</ele>
        <time>2022-03-03T08:58:20.000Z</time>
      </trkpt>
      <trkpt lat="44.13181" lon="6.11324">
        <ele>843</ele>
        <time>2022-03-03T08:58:21.000Z</time>
      </trkpt>
      <trkpt lat="44.13181" lon="6.11323">
        <ele>843</ele>
        <time>2022-03-03T08:58:22.000Z</time>
      </trkpt>
      <trkpt lat="44.13182" lon="6.11323">
        <ele>843</ele>
        <time>2022-03-03T08:58:23.000Z</time>
      </trkpt>
      <trkpt lat="44.13182" lon="6.11323">
        <ele>843</ele>
        <time>2022-03-03T08:58:24.000Z</time>
      </trkpt>
      <trkpt lat="44.13182" lon="6.11323">
        <ele>843</ele>
        <time>2022-03-03T08:58:25.000Z</time>
      </trkpt>
      <trkpt lat="44.13182" lon="6.11323">
        <ele>843</ele>
        <time>2022-03-03T08:58:26.000Z</time>
      </trkpt>
      <trkpt lat="44.13182" lon="6.11323">
        <ele>843</ele>
        <time>2022-03-03T08:58:27.000Z</time>
      </trkpt>
      <trkpt lat="44.13182" lon="6.11323">
        <ele>843</ele>
        <time>2022-03-03T08:58:28.000Z</time>
      </trkpt>
      <trkpt lat="44.13182" lon="6.11323">
        <ele>843</ele>
        <time>2022-03-03T08:58:29.000Z</time>
      </trkpt>
      <trkpt lat="44.13182" lon="6.11322">
        <ele>843</ele>
        <time>2022-03-03T08:58:30.000Z</time>
      </trkpt>
      <trkpt lat="44.13182" lon="6.11322">
        <ele>843</ele>
        <time>2022-03-03T08:58:31.000Z</time>
      </trkpt>
      <trkpt lat="44.13182" lon="6.11322">
        <ele>843</ele>
        <time>2022-03-03T08:58:32.000Z</time>
      </trkpt>
      <trkpt lat="44.13182" lon="6.11322">
        <ele>843</ele>
        <time>2022-03-03T08:58:33.000Z</time>
      </trkpt>
      <trkpt lat="44.13182" lon="6.11322">
        <ele>843</ele>
        <time>2022-03-03T08:58:34.000Z</time>
      </trkpt>
      <trkpt lat="44.13183" lon="6.11323">
        <ele>843</ele>
        <time>2022-03-03T08:58:35.000Z</time>
      </trkpt>
      <trkpt lat="44.13183" lon="6.11322">
        <ele>843</ele>
        <time>2022-03-03T08:58:36.000Z</time>
      </trkpt>
      <trkpt lat="44.13183" lon="6.11323">
        <ele>843</ele>
        <time>2022-03-03T08:58:37.000Z</time>
      </trkpt>
      <trkpt lat="44.13183" lon="6.11323">
        <ele>843</ele>
        <time>2022-03-03T08:58:38.000Z</time>
      </trkpt>
      <trkpt lat="44.13183" lon="6.11323">
        <ele>843</ele>
        <time>2022-03-03T08:58:39.000Z</time>
      </trkpt>
      <trkpt lat="44.13183" lon="6.11323">
        <ele>843</ele>
        <time>2022-03-03T08:58:40.000Z</time>
      </trkpt>
      <trkpt lat="44.13183" lon="6.11323">
        <ele>843</ele>
        <time>2022-03-03T08:58:41.000Z</time>
      </trkpt>
      <trkpt lat="44.13183" lon="6.11322">
        <ele>843</ele>
        <time>2022-03-03T08:58:42.000Z</time>
      </trkpt>
      <trkpt lat="44.13183" lon="6.11322">
        <ele>843</ele>
        <time>2022-03-03T08:58:43.000Z</time>
      </trkpt>
      <trkpt lat="44.13183" lon="6.11322">
        <ele>843</ele>
        <time>2022-03-03T08:58:44.000Z</time>
      </trkpt>
      <trkpt lat="44.13183" lon="6.11322">
        <ele>843</ele>
        <time>2022-03-03T08:58:45.000Z</time>
      </trkpt>
      <trkpt lat="44.13183" lon="6.11322">
        <ele>843</ele>
        <time>2022-03-03T08:58:46.000Z</time>
      </trkpt>
      <trkpt lat="44.13183" lon="6.11321">
        <ele>843</ele>
        <time>2022-03-03T08:58:47.000Z</time>
      </trkpt>
      <trkpt lat="44.13184" lon="6.1132">
        <ele>843</ele>
        <time>2022-03-03T08:58:48.000Z</time>
      </trkpt>
      <trkpt lat="44.13184" lon="6.11319">
        <ele>843</ele>
        <time>2022-03-03T08:58:49.000Z</time>
      </trkpt>
      <trkpt lat="44.13184" lon="6.11319">
        <ele>843</ele>
        <time>2022-03-03T08:58:50.000Z</time>
      </trkpt>
      <trkpt lat="44.13184" lon="6.11319">
        <ele>843</ele>
        <time>2022-03-03T08:58:51.000Z</time>
      </trkpt>
      <trkpt lat="44.13184" lon="6.11319">
        <ele>843</ele>
        <time>2022-03-03T08:58:52.000Z</time>
      </trkpt>
      <trkpt lat="44.13184" lon="6.11319">
        <ele>843</ele>
        <time>2022-03-03T08:58:53.000Z</time>
      </trkpt>
      <trkpt lat="44.13184" lon="6.11319">
        <ele>843</ele>
        <time>2022-03-03T08:58:54.000Z</time>
      </trkpt>
      <trkpt lat="44.13184" lon="6.11319">
        <ele>843</ele>
        <time>2022-03-03T08:58:55.000Z</time>
      </trkpt>
      <trkpt lat="44.13184" lon="6.11319">
        <ele>843</ele>
        <time>2022-03-03T08:58:56.000Z</time>
      </trkpt>
      <trkpt lat="44.13184" lon="6.11319">
        <ele>843</ele>
        <time>2022-03-03T08:58:57.000Z</time>
      </trkpt>
      <trkpt lat="44.13184" lon="6.11319">
        <ele>843</ele>
        <time>2022-03-03T08:58:58.000Z</time>
      </trkpt>
      <trkpt lat="44.13184" lon="6.11319">
        <ele>843</ele>
        <time>2022-03-03T08:58:59.000Z</time>
      </trkpt>
      <trkpt lat="44.13184" lon="6.11319">
        <ele>843</ele>
        <time>2022-03-03T08:59:00.000Z</time>
      </trkpt>
      <trkpt lat="44.13184" lon="6.11319">
        <ele>843</ele>
        <time>2022-03-03T08:59:01.000Z</time>
      </trkpt>
      <trkpt lat="44.13184" lon="6.11319">
        <ele>843</ele>
        <time>2022-03-03T08:59:02.000Z</time>
      </trkpt>
      <trkpt lat="44.13184" lon="6.11319">
        <ele>843</ele>
        <time>2022-03-03T08:59:03.000Z</time>
      </trkpt>
      <trkpt lat="44.13184" lon="6.11319">
        <ele>843</ele>
        <time>2022-03-03T08:59:04.000Z</time>
      </trkpt>
      <trkpt lat="44.13184" lon="6.11319">
        <ele>843</ele>
        <time>2022-03-03T08:59:05.000Z</time>
      </trkpt>
      <trkpt lat="44.13184" lon="6.11319">
        <ele>843</ele>
        <time>2022-03-03T08:59:06.000Z</time>
      </trkpt>
      <trkpt lat="44.13184" lon="6.11319">
        <ele>843</ele>
        <time>2022-03-03T08:59:07.000Z</time>
      </trkpt>
      <trkpt lat="44.13184" lon="6.11319">
        <ele>843</ele>
        <time>2022-03-03T08:59:08.000Z</time>
      </trkpt>
      <trkpt lat="44.13184" lon="6.11319">
        <ele>843</ele>
        <time>2022-03-03T08:59:09.000Z</time>
      </trkpt>
      <trkpt lat="44.13184" lon="6.11319">
        <ele>843</ele>
        <time>2022-03-03T08:59:10.000Z</time>
      </trkpt>
      <trkpt lat="44.13184" lon="6.11319">
        <ele>843</ele>
        <time>2022-03-03T08:59:11.000Z</time>
      </trkpt>
      <trkpt lat="44.13184" lon="6.11319">
        <ele>843</ele>
        <time>2022-03-03T08:59:12.000Z</time>
      </trkpt>
      <trkpt lat="44.13184" lon="6.11319">
        <ele>843</ele>
        <time>2022-03-03T08:59:13.000Z</time>
      </trkpt>
      <trkpt lat="44.13184" lon="6.11319">
        <ele>843</ele>
        <time>2022-03-03T08:59:14.000Z</time>
      </trkpt>
      <trkpt lat="44.13184" lon="6.11319">
        <ele>843</ele>
        <time>2022-03-03T08:59:15.000Z</time>
      </trkpt>
      <trkpt lat="44.13184" lon="6.11319">
        <ele>843</ele>
        <time>2022-03-03T08:59:16.000Z</time>
      </trkpt>
      <trkpt lat="44.13184" lon="6.11319">
        <ele>843</ele>
        <time>2022-03-03T08:59:17.000Z</time>
      </trkpt>
      <trkpt lat="44.13184" lon="6.11318">
        <ele>843</ele>
        <time>2022-03-03T08:59:18.000Z</time>
      </trkpt>
      <trkpt lat="44.13185" lon="6.11318">
        <ele>843</ele>
        <time>2022-03-03T08:59:19.000Z</time>
      </trkpt>
      <trkpt lat="44.13185" lon="6.11317">
        <ele>843</ele>
        <time>2022-03-03T08:59:20.000Z</time>
      </trkpt>
      <trkpt lat="44.13186" lon="6.11316">
        <ele>843</ele>
        <time>2022-03-03T08:59:21.000Z</time>
      </trkpt>
      <trkpt lat="44.13186" lon="6.11315">
        <ele>844</ele>
        <time>2022-03-03T08:59:22.000Z</time>
      </trkpt>
      <trkpt lat="44.13187" lon="6.11314">
        <ele>844</ele>
        <time>2022-03-03T08:59:23.000Z</time>
      </trkpt>
      <trkpt lat="44.13187" lon="6.11313">
        <ele>844</ele>
        <time>2022-03-03T08:59:24.000Z</time>
      </trkpt>
      <trkpt lat="44.13188" lon="6.11312">
        <ele>844</ele>
        <time>2022-03-03T08:59:25.000Z</time>
      </trkpt>
      <trkpt lat="44.13189" lon="6.1131">
        <ele>844</ele>
        <time>2022-03-03T08:59:26.000Z</time>
      </trkpt>
      <trkpt lat="44.13189" lon="6.11309">
        <ele>844</ele>
        <time>2022-03-03T08:59:27.000Z</time>
      </trkpt>
      <trkpt lat="44.1319" lon="6.11308">
        <ele>844</ele>
        <time>2022-03-03T08:59:28.000Z</time>
      </trkpt>
      <trkpt lat="44.13191" lon="6.11307">
        <ele>845</ele>
        <time>2022-03-03T08:59:29.000Z</time>
      </trkpt>
      <trkpt lat="44.13191" lon="6.11307">
        <ele>845</ele>
        <time>2022-03-03T08:59:30.000Z</time>
      </trkpt>
      <trkpt lat="44.13192" lon="6.11306">
        <ele>845</ele>
        <time>2022-03-03T08:59:31.000Z</time>
      </trkpt>
      <trkpt lat="44.13193" lon="6.11305">
        <ele>845</ele>
        <time>2022-03-03T08:59:32.000Z</time>
      </trkpt>
      <trkpt lat="44.13194" lon="6.11304">
        <ele>845</ele>
        <time>2022-03-03T08:59:33.000Z</time>
      </trkpt>
      <trkpt lat="44.13194" lon="6.11303">
        <ele>845</ele>
        <time>2022-03-03T08:59:34.000Z</time>
      </trkpt>
      <trkpt lat="44.13195" lon="6.11302">
        <ele>845</ele>
        <time>2022-03-03T08:59:35.000Z</time>
      </trkpt>
      <trkpt lat="44.13195" lon="6.11301">
        <ele>846</ele>
        <time>2022-03-03T08:59:36.000Z</time>
      </trkpt>
      <trkpt lat="44.13196" lon="6.113">
        <ele>846</ele>
        <time>2022-03-03T08:59:37.000Z</time>
      </trkpt>
      <trkpt lat="44.13197" lon="6.11299">
        <ele>846</ele>
        <time>2022-03-03T08:59:38.000Z</time>
      </trkpt>
      <trkpt lat="44.13197" lon="6.11298">
        <ele>846</ele>
        <time>2022-03-03T08:59:39.000Z</time>
      </trkpt>
      <trkpt lat="44.13198" lon="6.11298">
        <ele>846</ele>
        <time>2022-03-03T08:59:40.000Z</time>
      </trkpt>
      <trkpt lat="44.13199" lon="6.11297">
        <ele>846</ele>
        <time>2022-03-03T08:59:41.000Z</time>
      </trkpt>
      <trkpt lat="44.132" lon="6.11297">
        <ele>846</ele>
        <time>2022-03-03T08:59:42.000Z</time>
      </trkpt>
      <trkpt lat="44.132" lon="6.11296">
        <ele>846</ele>
        <time>2022-03-03T08:59:43.000Z</time>
      </trkpt>
      <trkpt lat="44.13201" lon="6.11295">
        <ele>846</ele>
        <time>2022-03-03T08:59:44.000Z</time>
      </trkpt>
      <trkpt lat="44.13202" lon="6.11294">
        <ele>846</ele>
        <time>2022-03-03T08:59:45.000Z</time>
      </trkpt>
      <trkpt lat="44.13203" lon="6.11294">
        <ele>846</ele>
        <time>2022-03-03T08:59:46.000Z</time>
      </trkpt>
      <trkpt lat="44.13204" lon="6.11293">
        <ele>847</ele>
        <time>2022-03-03T08:59:47.000Z</time>
      </trkpt>
      <trkpt lat="44.13205" lon="6.11292">
        <ele>847</ele>
        <time>2022-03-03T08:59:48.000Z</time>
      </trkpt>
      <trkpt lat="44.13206" lon="6.11292">
        <ele>847</ele>
        <time>2022-03-03T08:59:49.000Z</time>
      </trkpt>
      <trkpt lat="44.13206" lon="6.11291">
        <ele>847</ele>
        <time>2022-03-03T08:59:50.000Z</time>
      </trkpt>
      <trkpt lat="44.13207" lon="6.1129">
        <ele>847</ele>
        <time>2022-03-03T08:59:51.000Z</time>
      </trkpt>
      <trkpt lat="44.13208" lon="6.11289">
        <ele>847</ele>
        <time>2022-03-03T08:59:52.000Z</time>
      </trkpt>
      <trkpt lat="44.13208" lon="6.11289">
        <ele>847</ele>
        <time>2022-03-03T08:59:53.000Z</time>
      </trkpt>
      <trkpt lat="44.13209" lon="6.11287">
        <ele>847</ele>
        <time>2022-03-03T08:59:54.000Z</time>
      </trkpt>
      <trkpt lat="44.1321" lon="6.11286">
        <ele>847</ele>
        <time>2022-03-03T08:59:55.000Z</time>
      </trkpt>
      <trkpt lat="44.13211" lon="6.11285">
        <ele>847</ele>
        <time>2022-03-03T08:59:56.000Z</time>
      </trkpt>
      <trkpt lat="44.13212" lon="6.11285">
        <ele>847</ele>
        <time>2022-03-03T08:59:57.000Z</time>
      </trkpt>
      <trkpt lat="44.13212" lon="6.11283">
        <ele>847</ele>
        <time>2022-03-03T08:59:58.000Z</time>
      </trkpt>
      <trkpt lat="44.13213" lon="6.11282">
        <ele>847</ele>
        <time>2022-03-03T08:59:59.000Z</time>
      </trkpt>
      <trkpt lat="44.13214" lon="6.11281">
        <ele>847</ele>
        <time>2022-03-03T09:00:00.000Z</time>
      </trkpt>
      <trkpt lat="44.13215" lon="6.1128">
        <ele>847</ele>
        <time>2022-03-03T09:00:01.000Z</time>
      </trkpt>
      <trkpt lat="44.13215" lon="6.1128">
        <ele>847</ele>
        <time>2022-03-03T09:00:02.000Z</time>
      </trkpt>
      <trkpt lat="44.13216" lon="6.11278">
        <ele>847</ele>
        <time>2022-03-03T09:00:03.000Z</time>
      </trkpt>
      <trkpt lat="44.13217" lon="6.11277">
        <ele>847</ele>
        <time>2022-03-03T09:00:04.000Z</time>
      </trkpt>
      <trkpt lat="44.13218" lon="6.11277">
        <ele>847</ele>
        <time>2022-03-03T09:00:05.000Z</time>
      </trkpt>
      <trkpt lat="44.13219" lon="6.11276">
        <ele>847</ele>
        <time>2022-03-03T09:00:06.000Z</time>
      </trkpt>
      <trkpt lat="44.1322" lon="6.11274">
        <ele>848</ele>
        <time>2022-03-03T09:00:07.000Z</time>
      </trkpt>
      <trkpt lat="44.1322" lon="6.11274">
        <ele>847</ele>
        <time>2022-03-03T09:00:08.000Z</time>
      </trkpt>
      <trkpt lat="44.13221" lon="6.11272">
        <ele>848</ele>
        <time>2022-03-03T09:00:09.000Z</time>
      </trkpt>
      <trkpt lat="44.13222" lon="6.11271">
        <ele>848</ele>
        <time>2022-03-03T09:00:10.000Z</time>
      </trkpt>
      <trkpt lat="44.13223" lon="6.1127">
        <ele>848</ele>
        <time>2022-03-03T09:00:11.000Z</time>
      </trkpt>
      <trkpt lat="44.13223" lon="6.11269">
        <ele>848</ele>
        <time>2022-03-03T09:00:12.000Z</time>
      </trkpt>
      <trkpt lat="44.13224" lon="6.11268">
        <ele>848</ele>
        <time>2022-03-03T09:00:13.000Z</time>
      </trkpt>
      <trkpt lat="44.13225" lon="6.11267">
        <ele>848</ele>
        <time>2022-03-03T09:00:14.000Z</time>
      </trkpt>
      <trkpt lat="44.13225" lon="6.11266">
        <ele>848</ele>
        <time>2022-03-03T09:00:15.000Z</time>
      </trkpt>
      <trkpt lat="44.13226" lon="6.11264">
        <ele>848</ele>
        <time>2022-03-03T09:00:16.000Z</time>
      </trkpt>
      <trkpt lat="44.13226" lon="6.11263">
        <ele>848</ele>
        <time>2022-03-03T09:00:17.000Z</time>
      </trkpt>
      <trkpt lat="44.13227" lon="6.11262">
        <ele>848</ele>
        <time>2022-03-03T09:00:18.000Z</time>
      </trkpt>
      <trkpt lat="44.13227" lon="6.1126">
        <ele>848</ele>
        <time>2022-03-03T09:00:19.000Z</time>
      </trkpt>
      <trkpt lat="44.13227" lon="6.11259">
        <ele>848</ele>
        <time>2022-03-03T09:00:20.000Z</time>
      </trkpt>
      <trkpt lat="44.13228" lon="6.11258">
        <ele>848</ele>
        <time>2022-03-03T09:00:21.000Z</time>
      </trkpt>
      <trkpt lat="44.13228" lon="6.11256">
        <ele>849</ele>
        <time>2022-03-03T09:00:22.000Z</time>
      </trkpt>
      <trkpt lat="44.13228" lon="6.11255">
        <ele>849</ele>
        <time>2022-03-03T09:00:23.000Z</time>
      </trkpt>
      <trkpt lat="44.13229" lon="6.11253">
        <ele>849</ele>
        <time>2022-03-03T09:00:24.000Z</time>
      </trkpt>
      <trkpt lat="44.13229" lon="6.11252">
        <ele>849</ele>
        <time>2022-03-03T09:00:25.000Z</time>
      </trkpt>
      <trkpt lat="44.13229" lon="6.11251">
        <ele>849</ele>
        <time>2022-03-03T09:00:26.000Z</time>
      </trkpt>
      <trkpt lat="44.1323" lon="6.1125">
        <ele>849</ele>
        <time>2022-03-03T09:00:27.000Z</time>
      </trkpt>
      <trkpt lat="44.1323" lon="6.1125">
        <ele>849</ele>
        <time>2022-03-03T09:00:28.000Z</time>
      </trkpt>
      <trkpt lat="44.1323" lon="6.1125">
        <ele>849</ele>
        <time>2022-03-03T09:00:29.000Z</time>
      </trkpt>
      <trkpt lat="44.1323" lon="6.1125">
        <ele>850</ele>
        <time>2022-03-03T09:00:30.000Z</time>
      </trkpt>
      <trkpt lat="44.1323" lon="6.1125">
        <ele>850</ele>
        <time>2022-03-03T09:00:31.000Z</time>
      </trkpt>
      <trkpt lat="44.1323" lon="6.1125">
        <ele>850</ele>
        <time>2022-03-03T09:00:32.000Z</time>
      </trkpt>
      <trkpt lat="44.1323" lon="6.1125">
        <ele>850</ele>
        <time>2022-03-03T09:00:33.000Z</time>
      </trkpt>
      <trkpt lat="44.1323" lon="6.11249">
        <ele>850</ele>
        <time>2022-03-03T09:00:34.000Z</time>
      </trkpt>
      <trkpt lat="44.13231" lon="6.11249">
        <ele>850</ele>
        <time>2022-03-03T09:00:35.000Z</time>
      </trkpt>
      <trkpt lat="44.13231" lon="6.11249">
        <ele>850</ele>
        <time>2022-03-03T09:00:36.000Z</time>
      </trkpt>
      <trkpt lat="44.13231" lon="6.11249">
        <ele>850</ele>
        <time>2022-03-03T09:00:37.000Z</time>
      </trkpt>
      <trkpt lat="44.13231" lon="6.11249">
        <ele>850</ele>
        <time>2022-03-03T09:00:38.000Z</time>
      </trkpt>
      <trkpt lat="44.13231" lon="6.11249">
        <ele>850</ele>
        <time>2022-03-03T09:00:39.000Z</time>
      </trkpt>
      <trkpt lat="44.13231" lon="6.11249">
        <ele>850</ele>
        <time>2022-03-03T09:00:40.000Z</time>
      </trkpt>
      <trkpt lat="44.13231" lon="6.11249">
        <ele>850</ele>
        <time>2022-03-03T09:00:41.000Z</time>
      </trkpt>
      <trkpt lat="44.13231" lon="6.11249">
        <ele>850</ele>
        <time>2022-03-03T09:00:42.000Z</time>
      </trkpt>
      <trkpt lat="44.13231" lon="6.11249">
        <ele>850</ele>
        <time>2022-03-03T09:00:43.000Z</time>
      </trkpt>
      <trkpt lat="44.13231" lon="6.11249">
        <ele>850</ele>
        <time>2022-03-03T09:00:44.000Z</time>
      </trkpt>
      <trkpt lat="44.13231" lon="6.11249">
        <ele>850</ele>
        <time>2022-03-03T09:00:45.000Z</time>
      </trkpt>
      <trkpt lat="44.13231" lon="6.11249">
        <ele>850</ele>
        <time>2022-03-03T09:00:46.000Z</time>
      </trkpt>
      <trkpt lat="44.13231" lon="6.11249">
        <ele>850</ele>
        <time>2022-03-03T09:00:47.000Z</time>
      </trkpt>
      <trkpt lat="44.13231" lon="6.11249">
        <ele>850</ele>
        <time>2022-03-03T09:00:48.000Z</time>
      </trkpt>
      <trkpt lat="44.13231" lon="6.11249">
        <ele>850</ele>
        <time>2022-03-03T09:00:49.000Z</time>
      </trkpt>
      <trkpt lat="44.13231" lon="6.11248">
        <ele>850</ele>
        <time>2022-03-03T09:00:50.000Z</time>
      </trkpt>
      <trkpt lat="44.13231" lon="6.11248">
        <ele>850</ele>
        <time>2022-03-03T09:00:51.000Z</time>
      </trkpt>
      <trkpt lat="44.1323" lon="6.11247">
        <ele>850</ele>
        <time>2022-03-03T09:00:52.000Z</time>
      </trkpt>
      <trkpt lat="44.1323" lon="6.11247">
        <ele>850</ele>
        <time>2022-03-03T09:00:53.000Z</time>
      </trkpt>
      <trkpt lat="44.1323" lon="6.11247">
        <ele>850</ele>
        <time>2022-03-03T09:00:54.000Z</time>
      </trkpt>
      <trkpt lat="44.1323" lon="6.11247">
        <ele>850</ele>
        <time>2022-03-03T09:00:55.000Z</time>
      </trkpt>
      <trkpt lat="44.1323" lon="6.11247">
        <ele>850</ele>
        <time>2022-03-03T09:00:56.000Z</time>
      </trkpt>
      <trkpt lat="44.1323" lon="6.11247">
        <ele>850</ele>
        <time>2022-03-03T09:00:57.000Z</time>
      </trkpt>
      <trkpt lat="44.1323" lon="6.11247">
        <ele>850</ele>
        <time>2022-03-03T09:00:58.000Z</time>
      </trkpt>
      <trkpt lat="44.1323" lon="6.11247">
        <ele>850</ele>
        <time>2022-03-03T09:00:59.000Z</time>
      </trkpt>
      <trkpt lat="44.1323" lon="6.11247">
        <ele>850</ele>
        <time>2022-03-03T09:01:00.000Z</time>
      </trkpt>
      <trkpt lat="44.1323" lon="6.11247">
        <ele>850</ele>
        <time>2022-03-03T09:01:01.000Z</time>
      </trkpt>
      <trkpt lat="44.1323" lon="6.11247">
        <ele>850</ele>
        <time>2022-03-03T09:01:02.000Z</time>
      </trkpt>
      <trkpt lat="44.1323" lon="6.11247">
        <ele>850</ele>
        <time>2022-03-03T09:01:03.000Z</time>
      </trkpt>
      <trkpt lat="44.1323" lon="6.11247">
        <ele>850</ele>
        <time>2022-03-03T09:01:04.000Z</time>
      </trkpt>
      <trkpt lat="44.1323" lon="6.11247">
        <ele>850</ele>
        <time>2022-03-03T09:01:05.000Z</time>
      </trkpt>
      <trkpt lat="44.1323" lon="6.11247">
        <ele>850</ele>
        <time>2022-03-03T09:01:06.000Z</time>
      </trkpt>
      <trkpt lat="44.1323" lon="6.11247">
        <ele>850</ele>
        <time>2022-03-03T09:01:07.000Z</time>
      </trkpt>
      <trkpt lat="44.1323" lon="6.11247">
        <ele>850</ele>
        <time>2022-03-03T09:01:08.000Z</time>
      </trkpt>
      <trkpt lat="44.1323" lon="6.11247">
        <ele>850</ele>
        <time>2022-03-03T09:01:09.000Z</time>
      </trkpt>
      <trkpt lat="44.1323" lon="6.11247">
        <ele>850</ele>
        <time>2022-03-03T09:01:10.000Z</time>
      </trkpt>
      <trkpt lat="44.1323" lon="6.11247">
        <ele>850</ele>
        <time>2022-03-03T09:01:11.000Z</time>
      </trkpt>
      <trkpt lat="44.1323" lon="6.11247">
        <ele>850</ele>
        <time>2022-03-03T09:01:12.000Z</time>
      </trkpt>
      <trkpt lat="44.1323" lon="6.11247">
        <ele>850</ele>
        <time>2022-03-03T09:01:13.000Z</time>
      </trkpt>
      <trkpt lat="44.1323" lon="6.11247">
        <ele>850</ele>
        <time>2022-03-03T09:01:14.000Z</time>
      </trkpt>
      <trkpt lat="44.1323" lon="6.11247">
        <ele>850</ele>
        <time>2022-03-03T09:01:15.000Z</time>
      </trkpt>
      <trkpt lat="44.13231" lon="6.11247">
        <ele>850</ele>
        <time>2022-03-03T09:01:16.000Z</time>
      </trkpt>
      <trkpt lat="44.13231" lon="6.11247">
        <ele>850</ele>
        <time>2022-03-03T09:01:17.000Z</time>
      </trkpt>
      <trkpt lat="44.13231" lon="6.11247">
        <ele>850</ele>
        <time>2022-03-03T09:01:18.000Z</time>
      </trkpt>
      <trkpt lat="44.13231" lon="6.11247">
        <ele>850</ele>
        <time>2022-03-03T09:01:19.000Z</time>
      </trkpt>
      <trkpt lat="44.13231" lon="6.11247">
        <ele>850</ele>
        <time>2022-03-03T09:01:20.000Z</time>
      </trkpt>
      <trkpt lat="44.13231" lon="6.11247">
        <ele>850</ele>
        <time>2022-03-03T09:01:21.000Z</time>
      </trkpt>
      <trkpt lat="44.1323" lon="6.11247">
        <ele>850</ele>
        <time>2022-03-03T09:01:22.000Z</time>
      </trkpt>
      <trkpt lat="44.1323" lon="6.11247">
        <ele>850</ele>
        <time>2022-03-03T09:01:23.000Z</time>
      </trkpt>
      <trkpt lat="44.1323" lon="6.11248">
        <ele>850</ele>
        <time>2022-03-03T09:01:24.000Z</time>
      </trkpt>
      <trkpt lat="44.1323" lon="6.11248">
        <ele>850</ele>
        <time>2022-03-03T09:01:25.000Z</time>
      </trkpt>
      <trkpt lat="44.1323" lon="6.11248">
        <ele>850</ele>
        <time>2022-03-03T09:01:26.000Z</time>
      </trkpt>
      <trkpt lat="44.1323" lon="6.11248">
        <ele>850</ele>
        <time>2022-03-03T09:01:27.000Z</time>
      </trkpt>
      <trkpt lat="44.1323" lon="6.11248">
        <ele>850</ele>
        <time>2022-03-03T09:01:28.000Z</time>
      </trkpt>
      <trkpt lat="44.1323" lon="6.11248">
        <ele>850</ele>
        <time>2022-03-03T09:01:29.000Z</time>
      </trkpt>
      <trkpt lat="44.1323" lon="6.11248">
        <ele>850</ele>
        <time>2022-03-03T09:01:30.000Z</time>
      </trkpt>
      <trkpt lat="44.1323" lon="6.11248">
        <ele>850</ele>
        <time>2022-03-03T09:01:31.000Z</time>
      </trkpt>
      <trkpt lat="44.1323" lon="6.11248">
        <ele>850</ele>
        <time>2022-03-03T09:01:32.000Z</time>
      </trkpt>
      <trkpt lat="44.1323" lon="6.11248">
        <ele>850</ele>
        <time>2022-03-03T09:01:33.000Z</time>
      </trkpt>
      <trkpt lat="44.1323" lon="6.11248">
        <ele>850</ele>
        <time>2022-03-03T09:01:34.000Z</time>
      </trkpt>
      <trkpt lat="44.13231" lon="6.11247">
        <ele>850</ele>
        <time>2022-03-03T09:01:35.000Z</time>
      </trkpt>
      <trkpt lat="44.13231" lon="6.11246">
        <ele>850</ele>
        <time>2022-03-03T09:01:36.000Z</time>
      </trkpt>
      <trkpt lat="44.13231" lon="6.11245">
        <ele>851</ele>
        <time>2022-03-03T09:01:37.000Z</time>
      </trkpt>
      <trkpt lat="44.13231" lon="6.11244">
        <ele>851</ele>
        <time>2022-03-03T09:01:38.000Z</time>
      </trkpt>
      <trkpt lat="44.13231" lon="6.11243">
        <ele>851</ele>
        <time>2022-03-03T09:01:39.000Z</time>
      </trkpt>
      <trkpt lat="44.13231" lon="6.11242">
        <ele>851</ele>
        <time>2022-03-03T09:01:40.000Z</time>
      </trkpt>
      <trkpt lat="44.13232" lon="6.11241">
        <ele>851</ele>
        <time>2022-03-03T09:01:41.000Z</time>
      </trkpt>
      <trkpt lat="44.13232" lon="6.1124">
        <ele>851</ele>
        <time>2022-03-03T09:01:42.000Z</time>
      </trkpt>
      <trkpt lat="44.13233" lon="6.11239">
        <ele>851</ele>
        <time>2022-03-03T09:01:43.000Z</time>
      </trkpt>
      <trkpt lat="44.13234" lon="6.11239">
        <ele>851</ele>
        <time>2022-03-03T09:01:44.000Z</time>
      </trkpt>
      <trkpt lat="44.13235" lon="6.11239">
        <ele>851</ele>
        <time>2022-03-03T09:01:45.000Z</time>
      </trkpt>
      <trkpt lat="44.13235" lon="6.11238">
        <ele>851</ele>
        <time>2022-03-03T09:01:46.000Z</time>
      </trkpt>
      <trkpt lat="44.13236" lon="6.11238">
        <ele>851</ele>
        <time>2022-03-03T09:01:47.000Z</time>
      </trkpt>
      <trkpt lat="44.13236" lon="6.11238">
        <ele>851</ele>
        <time>2022-03-03T09:01:48.000Z</time>
      </trkpt>
      <trkpt lat="44.13237" lon="6.11237">
        <ele>850</ele>
        <time>2022-03-03T09:01:49.000Z</time>
      </trkpt>
      <trkpt lat="44.13238" lon="6.11237">
        <ele>850</ele>
        <time>2022-03-03T09:01:50.000Z</time>
      </trkpt>
      <trkpt lat="44.13239" lon="6.11236">
        <ele>850</ele>
        <time>2022-03-03T09:01:51.000Z</time>
      </trkpt>
      <trkpt lat="44.1324" lon="6.11236">
        <ele>850</ele>
        <time>2022-03-03T09:01:52.000Z</time>
      </trkpt>
      <trkpt lat="44.13241" lon="6.11235">
        <ele>850</ele>
        <time>2022-03-03T09:01:53.000Z</time>
      </trkpt>
      <trkpt lat="44.13242" lon="6.11234">
        <ele>850</ele>
        <time>2022-03-03T09:01:54.000Z</time>
      </trkpt>
      <trkpt lat="44.13242" lon="6.11234">
        <ele>850</ele>
        <time>2022-03-03T09:01:55.000Z</time>
      </trkpt>
      <trkpt lat="44.13243" lon="6.11233">
        <ele>850</ele>
        <time>2022-03-03T09:01:56.000Z</time>
      </trkpt>
      <trkpt lat="44.13244" lon="6.11232">
        <ele>850</ele>
        <time>2022-03-03T09:01:57.000Z</time>
      </trkpt>
      <trkpt lat="44.13245" lon="6.11231">
        <ele>850</ele>
        <time>2022-03-03T09:01:58.000Z</time>
      </trkpt>
      <trkpt lat="44.13245" lon="6.11231">
        <ele>849</ele>
        <time>2022-03-03T09:01:59.000Z</time>
      </trkpt>
      <trkpt lat="44.13246" lon="6.11229">
        <ele>849</ele>
        <time>2022-03-03T09:02:00.000Z</time>
      </trkpt>
      <trkpt lat="44.13247" lon="6.11228">
        <ele>849</ele>
        <time>2022-03-03T09:02:01.000Z</time>
      </trkpt>
      <trkpt lat="44.13248" lon="6.11227">
        <ele>849</ele>
        <time>2022-03-03T09:02:02.000Z</time>
      </trkpt>
      <trkpt lat="44.13248" lon="6.11227">
        <ele>849</ele>
        <time>2022-03-03T09:02:03.000Z</time>
      </trkpt>
      <trkpt lat="44.13249" lon="6.11226">
        <ele>849</ele>
        <time>2022-03-03T09:02:04.000Z</time>
      </trkpt>
      <trkpt lat="44.1325" lon="6.11225">
        <ele>849</ele>
        <time>2022-03-03T09:02:05.000Z</time>
      </trkpt>
      <trkpt lat="44.13251" lon="6.11224">
        <ele>849</ele>
        <time>2022-03-03T09:02:06.000Z</time>
      </trkpt>
      <trkpt lat="44.13251" lon="6.11223">
        <ele>848</ele>
        <time>2022-03-03T09:02:07.000Z</time>
      </trkpt>
      <trkpt lat="44.13252" lon="6.11222">
        <ele>848</ele>
        <time>2022-03-03T09:02:08.000Z</time>
      </trkpt>
      <trkpt lat="44.13253" lon="6.11221">
        <ele>848</ele>
        <time>2022-03-03T09:02:09.000Z</time>
      </trkpt>
      <trkpt lat="44.13253" lon="6.1122">
        <ele>848</ele>
        <time>2022-03-03T09:02:10.000Z</time>
      </trkpt>
      <trkpt lat="44.13254" lon="6.11219">
        <ele>848</ele>
        <time>2022-03-03T09:02:11.000Z</time>
      </trkpt>
      <trkpt lat="44.13255" lon="6.11218">
        <ele>848</ele>
        <time>2022-03-03T09:02:12.000Z</time>
      </trkpt>
      <trkpt lat="44.13256" lon="6.11217">
        <ele>848</ele>
        <time>2022-03-03T09:02:13.000Z</time>
      </trkpt>
      <trkpt lat="44.13257" lon="6.11216">
        <ele>848</ele>
        <time>2022-03-03T09:02:14.000Z</time>
      </trkpt>
      <trkpt lat="44.13258" lon="6.11215">
        <ele>847</ele>
        <time>2022-03-03T09:02:15.000Z</time>
      </trkpt>
      <trkpt lat="44.13259" lon="6.11215">
        <ele>847</ele>
        <time>2022-03-03T09:02:16.000Z</time>
      </trkpt>
      <trkpt lat="44.1326" lon="6.11214">
        <ele>847</ele>
        <time>2022-03-03T09:02:17.000Z</time>
      </trkpt>
      <trkpt lat="44.13261" lon="6.11213">
        <ele>847</ele>
        <time>2022-03-03T09:02:18.000Z</time>
      </trkpt>
      <trkpt lat="44.13262" lon="6.11212">
        <ele>847</ele>
        <time>2022-03-03T09:02:19.000Z</time>
      </trkpt>
      <trkpt lat="44.13263" lon="6.11211">
        <ele>847</ele>
        <time>2022-03-03T09:02:20.000Z</time>
      </trkpt>
      <trkpt lat="44.13263" lon="6.1121">
        <ele>847</ele>
        <time>2022-03-03T09:02:21.000Z</time>
      </trkpt>
      <trkpt lat="44.13264" lon="6.11209">
        <ele>846</ele>
        <time>2022-03-03T09:02:22.000Z</time>
      </trkpt>
      <trkpt lat="44.13265" lon="6.11208">
        <ele>846</ele>
        <time>2022-03-03T09:02:23.000Z</time>
      </trkpt>
      <trkpt lat="44.13266" lon="6.11207">
        <ele>846</ele>
        <time>2022-03-03T09:02:24.000Z</time>
      </trkpt>
      <trkpt lat="44.13267" lon="6.11206">
        <ele>846</ele>
        <time>2022-03-03T09:02:25.000Z</time>
      </trkpt>
      <trkpt lat="44.13268" lon="6.11204">
        <ele>846</ele>
        <time>2022-03-03T09:02:26.000Z</time>
      </trkpt>
      <trkpt lat="44.13268" lon="6.11203">
        <ele>846</ele>
        <time>2022-03-03T09:02:27.000Z</time>
      </trkpt>
      <trkpt lat="44.13269" lon="6.11202">
        <ele>846</ele>
        <time>2022-03-03T09:02:28.000Z</time>
      </trkpt>
      <trkpt lat="44.1327" lon="6.11201">
        <ele>846</ele>
        <time>2022-03-03T09:02:29.000Z</time>
      </trkpt>
      <trkpt lat="44.13271" lon="6.112">
        <ele>846</ele>
        <time>2022-03-03T09:02:30.000Z</time>
      </trkpt>
      <trkpt lat="44.13272" lon="6.11199">
        <ele>846</ele>
        <time>2022-03-03T09:02:31.000Z</time>
      </trkpt>
      <trkpt lat="44.13272" lon="6.11198">
        <ele>845</ele>
        <time>2022-03-03T09:02:32.000Z</time>
      </trkpt>
      <trkpt lat="44.13273" lon="6.11196">
        <ele>845</ele>
        <time>2022-03-03T09:02:33.000Z</time>
      </trkpt>
      <trkpt lat="44.13274" lon="6.11195">
        <ele>845</ele>
        <time>2022-03-03T09:02:34.000Z</time>
      </trkpt>
      <trkpt lat="44.13275" lon="6.11194">
        <ele>845</ele>
        <time>2022-03-03T09:02:35.000Z</time>
      </trkpt>
      <trkpt lat="44.13276" lon="6.11193">
        <ele>845</ele>
        <time>2022-03-03T09:02:36.000Z</time>
      </trkpt>
      <trkpt lat="44.13276" lon="6.11192">
        <ele>846</ele>
        <time>2022-03-03T09:02:37.000Z</time>
      </trkpt>
      <trkpt lat="44.13277" lon="6.1119">
        <ele>846</ele>
        <time>2022-03-03T09:02:38.000Z</time>
      </trkpt>
      <trkpt lat="44.13278" lon="6.11189">
        <ele>846</ele>
        <time>2022-03-03T09:02:39.000Z</time>
      </trkpt>
      <trkpt lat="44.13278" lon="6.11187">
        <ele>846</ele>
        <time>2022-03-03T09:02:40.000Z</time>
      </trkpt>
      <trkpt lat="44.13279" lon="6.11186">
        <ele>846</ele>
        <time>2022-03-03T09:02:41.000Z</time>
      </trkpt>
      <trkpt lat="44.1328" lon="6.11185">
        <ele>846</ele>
        <time>2022-03-03T09:02:42.000Z</time>
      </trkpt>
      <trkpt lat="44.13281" lon="6.11183">
        <ele>845</ele>
        <time>2022-03-03T09:02:43.000Z</time>
      </trkpt>
      <trkpt lat="44.13282" lon="6.11182">
        <ele>845</ele>
        <time>2022-03-03T09:02:44.000Z</time>
      </trkpt>
      <trkpt lat="44.13283" lon="6.11181">
        <ele>845</ele>
        <time>2022-03-03T09:02:45.000Z</time>
      </trkpt>
      <trkpt lat="44.13283" lon="6.1118">
        <ele>845</ele>
        <time>2022-03-03T09:02:46.000Z</time>
      </trkpt>
      <trkpt lat="44.13284" lon="6.11178">
        <ele>845</ele>
        <time>2022-03-03T09:02:47.000Z</time>
      </trkpt>
      <trkpt lat="44.13285" lon="6.11177">
        <ele>845</ele>
        <time>2022-03-03T09:02:48.000Z</time>
      </trkpt>
      <trkpt lat="44.13286" lon="6.11176">
        <ele>845</ele>
        <time>2022-03-03T09:02:49.000Z</time>
      </trkpt>
      <trkpt lat="44.13286" lon="6.11175">
        <ele>845</ele>
        <time>2022-03-03T09:02:50.000Z</time>
      </trkpt>
      <trkpt lat="44.13287" lon="6.11173">
        <ele>845</ele>
        <time>2022-03-03T09:02:51.000Z</time>
      </trkpt>
      <trkpt lat="44.13288" lon="6.11172">
        <ele>845</ele>
        <time>2022-03-03T09:02:52.000Z</time>
      </trkpt>
      <trkpt lat="44.13289" lon="6.11171">
        <ele>845</ele>
        <time>2022-03-03T09:02:53.000Z</time>
      </trkpt>
      <trkpt lat="44.1329" lon="6.1117">
        <ele>845</ele>
        <time>2022-03-03T09:02:54.000Z</time>
      </trkpt>
      <trkpt lat="44.13291" lon="6.11169">
        <ele>845</ele>
        <time>2022-03-03T09:02:55.000Z</time>
      </trkpt>
      <trkpt lat="44.13292" lon="6.11168">
        <ele>845</ele>
        <time>2022-03-03T09:02:56.000Z</time>
      </trkpt>
      <trkpt lat="44.13292" lon="6.11167">
        <ele>844</ele>
        <time>2022-03-03T09:02:57.000Z</time>
      </trkpt>
      <trkpt lat="44.13293" lon="6.11166">
        <ele>844</ele>
        <time>2022-03-03T09:02:58.000Z</time>
      </trkpt>
      <trkpt lat="44.13294" lon="6.11165">
        <ele>844</ele>
        <time>2022-03-03T09:02:59.000Z</time>
      </trkpt>
      <trkpt lat="44.13295" lon="6.11163">
        <ele>844</ele>
        <time>2022-03-03T09:03:00.000Z</time>
      </trkpt>
      <trkpt lat="44.13295" lon="6.11162">
        <ele>844</ele>
        <time>2022-03-03T09:03:01.000Z</time>
      </trkpt>
      <trkpt lat="44.13296" lon="6.11161">
        <ele>844</ele>
        <time>2022-03-03T09:03:02.000Z</time>
      </trkpt>
      <trkpt lat="44.13297" lon="6.1116">
        <ele>844</ele>
        <time>2022-03-03T09:03:03.000Z</time>
      </trkpt>
      <trkpt lat="44.13298" lon="6.11158">
        <ele>844</ele>
        <time>2022-03-03T09:03:04.000Z</time>
      </trkpt>
      <trkpt lat="44.13299" lon="6.11157">
        <ele>844</ele>
        <time>2022-03-03T09:03:05.000Z</time>
      </trkpt>
      <trkpt lat="44.133" lon="6.11156">
        <ele>844</ele>
        <time>2022-03-03T09:03:06.000Z</time>
      </trkpt>
      <trkpt lat="44.133" lon="6.11155">
        <ele>844</ele>
        <time>2022-03-03T09:03:07.000Z</time>
      </trkpt>
      <trkpt lat="44.13301" lon="6.11154">
        <ele>844</ele>
        <time>2022-03-03T09:03:08.000Z</time>
      </trkpt>
      <trkpt lat="44.13302" lon="6.11153">
        <ele>844</ele>
        <time>2022-03-03T09:03:09.000Z</time>
      </trkpt>
      <trkpt lat="44.13303" lon="6.11151">
        <ele>844</ele>
        <time>2022-03-03T09:03:10.000Z</time>
      </trkpt>
      <trkpt lat="44.13304" lon="6.1115">
        <ele>844</ele>
        <time>2022-03-03T09:03:11.000Z</time>
      </trkpt>
      <trkpt lat="44.13305" lon="6.1115">
        <ele>844</ele>
        <time>2022-03-03T09:03:12.000Z</time>
      </trkpt>
      <trkpt lat="44.13306" lon="6.11149">
        <ele>844</ele>
        <time>2022-03-03T09:03:13.000Z</time>
      </trkpt>
      <trkpt lat="44.13307" lon="6.11148">
        <ele>844</ele>
        <time>2022-03-03T09:03:14.000Z</time>
      </trkpt>
      <trkpt lat="44.13308" lon="6.11147">
        <ele>844</ele>
        <time>2022-03-03T09:03:15.000Z</time>
      </trkpt>
      <trkpt lat="44.13309" lon="6.11146">
        <ele>844</ele>
        <time>2022-03-03T09:03:16.000Z</time>
      </trkpt>
      <trkpt lat="44.1331" lon="6.11145">
        <ele>844</ele>
        <time>2022-03-03T09:03:17.000Z</time>
      </trkpt>
      <trkpt lat="44.13311" lon="6.11143">
        <ele>844</ele>
        <time>2022-03-03T09:03:18.000Z</time>
      </trkpt>
      <trkpt lat="44.13312" lon="6.11142">
        <ele>844</ele>
        <time>2022-03-03T09:03:19.000Z</time>
      </trkpt>
      <trkpt lat="44.13313" lon="6.11141">
        <ele>844</ele>
        <time>2022-03-03T09:03:20.000Z</time>
      </trkpt>
      <trkpt lat="44.13314" lon="6.1114">
        <ele>844</ele>
        <time>2022-03-03T09:03:21.000Z</time>
      </trkpt>
      <trkpt lat="44.13315" lon="6.11139">
        <ele>844</ele>
        <time>2022-03-03T09:03:22.000Z</time>
      </trkpt>
      <trkpt lat="44.13316" lon="6.11138">
        <ele>844</ele>
        <time>2022-03-03T09:03:23.000Z</time>
      </trkpt>
      <trkpt lat="44.13317" lon="6.11137">
        <ele>844</ele>
        <time>2022-03-03T09:03:24.000Z</time>
      </trkpt>
      <trkpt lat="44.13318" lon="6.11136">
        <ele>844</ele>
        <time>2022-03-03T09:03:25.000Z</time>
      </trkpt>
      <trkpt lat="44.13319" lon="6.11135">
        <ele>844</ele>
        <time>2022-03-03T09:03:26.000Z</time>
      </trkpt>
      <trkpt lat="44.1332" lon="6.11134">
        <ele>844</ele>
        <time>2022-03-03T09:03:27.000Z</time>
      </trkpt>
      <trkpt lat="44.1332" lon="6.11133">
        <ele>844</ele>
        <time>2022-03-03T09:03:28.000Z</time>
      </trkpt>
      <trkpt lat="44.13321" lon="6.11132">
        <ele>844</ele>
        <time>2022-03-03T09:03:29.000Z</time>
      </trkpt>
      <trkpt lat="44.13322" lon="6.11131">
        <ele>844</ele>
        <time>2022-03-03T09:03:30.000Z</time>
      </trkpt>
      <trkpt lat="44.13323" lon="6.1113">
        <ele>844</ele>
        <time>2022-03-03T09:03:31.000Z</time>
      </trkpt>
      <trkpt lat="44.13324" lon="6.11129">
        <ele>845</ele>
        <time>2022-03-03T09:03:32.000Z</time>
      </trkpt>
      <trkpt lat="44.13325" lon="6.11128">
        <ele>845</ele>
        <time>2022-03-03T09:03:33.000Z</time>
      </trkpt>
      <trkpt lat="44.13326" lon="6.11127">
        <ele>845</ele>
        <time>2022-03-03T09:03:34.000Z</time>
      </trkpt>
      <trkpt lat="44.13328" lon="6.11126">
        <ele>845</ele>
        <time>2022-03-03T09:03:35.000Z</time>
      </trkpt>
      <trkpt lat="44.13329" lon="6.11126">
        <ele>845</ele>
        <time>2022-03-03T09:03:36.000Z</time>
      </trkpt>
      <trkpt lat="44.1333" lon="6.11125">
        <ele>845</ele>
        <time>2022-03-03T09:03:37.000Z</time>
      </trkpt>
      <trkpt lat="44.13331" lon="6.11124">
        <ele>845</ele>
        <time>2022-03-03T09:03:38.000Z</time>
      </trkpt>
      <trkpt lat="44.13332" lon="6.11123">
        <ele>845</ele>
        <time>2022-03-03T09:03:39.000Z</time>
      </trkpt>
      <trkpt lat="44.13333" lon="6.11123">
        <ele>845</ele>
        <time>2022-03-03T09:03:40.000Z</time>
      </trkpt>
      <trkpt lat="44.13334" lon="6.11122">
        <ele>845</ele>
        <time>2022-03-03T09:03:41.000Z</time>
      </trkpt>
      <trkpt lat="44.13335" lon="6.11121">
        <ele>845</ele>
        <time>2022-03-03T09:03:42.000Z</time>
      </trkpt>
      <trkpt lat="44.13336" lon="6.1112">
        <ele>845</ele>
        <time>2022-03-03T09:03:43.000Z</time>
      </trkpt>
      <trkpt lat="44.13337" lon="6.11119">
        <ele>846</ele>
        <time>2022-03-03T09:03:44.000Z</time>
      </trkpt>
      <trkpt lat="44.13338" lon="6.11118">
        <ele>846</ele>
        <time>2022-03-03T09:03:45.000Z</time>
      </trkpt>
      <trkpt lat="44.13339" lon="6.11117">
        <ele>845</ele>
        <time>2022-03-03T09:03:46.000Z</time>
      </trkpt>
      <trkpt lat="44.13339" lon="6.11116">
        <ele>845</ele>
        <time>2022-03-03T09:03:47.000Z</time>
      </trkpt>
      <trkpt lat="44.13341" lon="6.11115">
        <ele>845</ele>
        <time>2022-03-03T09:03:48.000Z</time>
      </trkpt>
      <trkpt lat="44.13341" lon="6.11114">
        <ele>845</ele>
        <time>2022-03-03T09:03:49.000Z</time>
      </trkpt>
      <trkpt lat="44.13342" lon="6.11113">
        <ele>845</ele>
        <time>2022-03-03T09:03:50.000Z</time>
      </trkpt>
      <trkpt lat="44.13343" lon="6.11112">
        <ele>845</ele>
        <time>2022-03-03T09:03:51.000Z</time>
      </trkpt>
      <trkpt lat="44.13343" lon="6.11111">
        <ele>846</ele>
        <time>2022-03-03T09:03:52.000Z</time>
      </trkpt>
      <trkpt lat="44.13344" lon="6.1111">
        <ele>846</ele>
        <time>2022-03-03T09:03:53.000Z</time>
      </trkpt>
      <trkpt lat="44.13345" lon="6.1111">
        <ele>846</ele>
        <time>2022-03-03T09:03:54.000Z</time>
      </trkpt>
      <trkpt lat="44.13346" lon="6.1111">
        <ele>846</ele>
        <time>2022-03-03T09:03:55.000Z</time>
      </trkpt>
      <trkpt lat="44.13347" lon="6.11109">
        <ele>846</ele>
        <time>2022-03-03T09:03:56.000Z</time>
      </trkpt>
      <trkpt lat="44.13348" lon="6.11108">
        <ele>846</ele>
        <time>2022-03-03T09:03:57.000Z</time>
      </trkpt>
      <trkpt lat="44.13349" lon="6.11108">
        <ele>846</ele>
        <time>2022-03-03T09:03:58.000Z</time>
      </trkpt>
      <trkpt lat="44.1335" lon="6.11107">
        <ele>846</ele>
        <time>2022-03-03T09:03:59.000Z</time>
      </trkpt>
      <trkpt lat="44.13351" lon="6.11107">
        <ele>846</ele>
        <time>2022-03-03T09:04:00.000Z</time>
      </trkpt>
      <trkpt lat="44.13351" lon="6.11106">
        <ele>846</ele>
        <time>2022-03-03T09:04:01.000Z</time>
      </trkpt>
      <trkpt lat="44.13352" lon="6.11105">
        <ele>847</ele>
        <time>2022-03-03T09:04:02.000Z</time>
      </trkpt>
      <trkpt lat="44.13353" lon="6.11104">
        <ele>847</ele>
        <time>2022-03-03T09:04:03.000Z</time>
      </trkpt>
      <trkpt lat="44.13353" lon="6.11103">
        <ele>847</ele>
        <time>2022-03-03T09:04:04.000Z</time>
      </trkpt>
      <trkpt lat="44.13354" lon="6.11102">
        <ele>847</ele>
        <time>2022-03-03T09:04:05.000Z</time>
      </trkpt>
      <trkpt lat="44.13354" lon="6.11101">
        <ele>847</ele>
        <time>2022-03-03T09:04:06.000Z</time>
      </trkpt>
      <trkpt lat="44.13355" lon="6.11101">
        <ele>847</ele>
        <time>2022-03-03T09:04:07.000Z</time>
      </trkpt>
      <trkpt lat="44.13355" lon="6.111">
        <ele>848</ele>
        <time>2022-03-03T09:04:08.000Z</time>
      </trkpt>
      <trkpt lat="44.13356" lon="6.11099">
        <ele>848</ele>
        <time>2022-03-03T09:04:09.000Z</time>
      </trkpt>
      <trkpt lat="44.13357" lon="6.11098">
        <ele>848</ele>
        <time>2022-03-03T09:04:10.000Z</time>
      </trkpt>
      <trkpt lat="44.13358" lon="6.11098">
        <ele>848</ele>
        <time>2022-03-03T09:04:11.000Z</time>
      </trkpt>
      <trkpt lat="44.13358" lon="6.11097">
        <ele>848</ele>
        <time>2022-03-03T09:04:12.000Z</time>
      </trkpt>
      <trkpt lat="44.13359" lon="6.11097">
        <ele>848</ele>
        <time>2022-03-03T09:04:13.000Z</time>
      </trkpt>
      <trkpt lat="44.1336" lon="6.11096">
        <ele>848</ele>
        <time>2022-03-03T09:04:14.000Z</time>
      </trkpt>
      <trkpt lat="44.1336" lon="6.11096">
        <ele>849</ele>
        <time>2022-03-03T09:04:15.000Z</time>
      </trkpt>
      <trkpt lat="44.13361" lon="6.11095">
        <ele>849</ele>
        <time>2022-03-03T09:04:16.000Z</time>
      </trkpt>
      <trkpt lat="44.13362" lon="6.11095">
        <ele>849</ele>
        <time>2022-03-03T09:04:17.000Z</time>
      </trkpt>
      <trkpt lat="44.13362" lon="6.11094">
        <ele>849</ele>
        <time>2022-03-03T09:04:18.000Z</time>
      </trkpt>
      <trkpt lat="44.13363" lon="6.11093">
        <ele>849</ele>
        <time>2022-03-03T09:04:19.000Z</time>
      </trkpt>
      <trkpt lat="44.13363" lon="6.11092">
        <ele>849</ele>
        <time>2022-03-03T09:04:20.000Z</time>
      </trkpt>
      <trkpt lat="44.13364" lon="6.11092">
        <ele>850</ele>
        <time>2022-03-03T09:04:21.000Z</time>
      </trkpt>
      <trkpt lat="44.13364" lon="6.11091">
        <ele>850</ele>
        <time>2022-03-03T09:04:22.000Z</time>
      </trkpt>
      <trkpt lat="44.13365" lon="6.1109">
        <ele>850</ele>
        <time>2022-03-03T09:04:23.000Z</time>
      </trkpt>
      <trkpt lat="44.13365" lon="6.11089">
        <ele>850</ele>
        <time>2022-03-03T09:04:24.000Z</time>
      </trkpt>
      <trkpt lat="44.13366" lon="6.11089">
        <ele>850</ele>
        <time>2022-03-03T09:04:25.000Z</time>
      </trkpt>
      <trkpt lat="44.13367" lon="6.11088">
        <ele>851</ele>
        <time>2022-03-03T09:04:26.000Z</time>
      </trkpt>
      <trkpt lat="44.13367" lon="6.11088">
        <ele>851</ele>
        <time>2022-03-03T09:04:27.000Z</time>
      </trkpt>
      <trkpt lat="44.13368" lon="6.11087">
        <ele>851</ele>
        <time>2022-03-03T09:04:28.000Z</time>
      </trkpt>
      <trkpt lat="44.13369" lon="6.11087">
        <ele>851</ele>
        <time>2022-03-03T09:04:29.000Z</time>
      </trkpt>
      <trkpt lat="44.1337" lon="6.11088">
        <ele>851</ele>
        <time>2022-03-03T09:04:30.000Z</time>
      </trkpt>
      <trkpt lat="44.13371" lon="6.11088">
        <ele>851</ele>
        <time>2022-03-03T09:04:31.000Z</time>
      </trkpt>
      <trkpt lat="44.13371" lon="6.11089">
        <ele>851</ele>
        <time>2022-03-03T09:04:32.000Z</time>
      </trkpt>
      <trkpt lat="44.13372" lon="6.11089">
        <ele>851</ele>
        <time>2022-03-03T09:04:33.000Z</time>
      </trkpt>
      <trkpt lat="44.13372" lon="6.1109">
        <ele>851</ele>
        <time>2022-03-03T09:04:34.000Z</time>
      </trkpt>
      <trkpt lat="44.13373" lon="6.11091">
        <ele>851</ele>
        <time>2022-03-03T09:04:35.000Z</time>
      </trkpt>
      <trkpt lat="44.13374" lon="6.11092">
        <ele>851</ele>
        <time>2022-03-03T09:04:36.000Z</time>
      </trkpt>
      <trkpt lat="44.13375" lon="6.11093">
        <ele>851</ele>
        <time>2022-03-03T09:04:37.000Z</time>
      </trkpt>
      <trkpt lat="44.13375" lon="6.11094">
        <ele>851</ele>
        <time>2022-03-03T09:04:38.000Z</time>
      </trkpt>
      <trkpt lat="44.13376" lon="6.11096">
        <ele>851</ele>
        <time>2022-03-03T09:04:39.000Z</time>
      </trkpt>
      <trkpt lat="44.13376" lon="6.11097">
        <ele>851</ele>
        <time>2022-03-03T09:04:40.000Z</time>
      </trkpt>
      <trkpt lat="44.13377" lon="6.11098">
        <ele>851</ele>
        <time>2022-03-03T09:04:41.000Z</time>
      </trkpt>
      <trkpt lat="44.13377" lon="6.11098">
        <ele>851</ele>
        <time>2022-03-03T09:04:42.000Z</time>
      </trkpt>
      <trkpt lat="44.13377" lon="6.111">
        <ele>851</ele>
        <time>2022-03-03T09:04:43.000Z</time>
      </trkpt>
      <trkpt lat="44.13378" lon="6.111">
        <ele>851</ele>
        <time>2022-03-03T09:04:44.000Z</time>
      </trkpt>
      <trkpt lat="44.13378" lon="6.11101">
        <ele>851</ele>
        <time>2022-03-03T09:04:45.000Z</time>
      </trkpt>
      <trkpt lat="44.13378" lon="6.11102">
        <ele>851</ele>
        <time>2022-03-03T09:04:46.000Z</time>
      </trkpt>
      <trkpt lat="44.13378" lon="6.11102">
        <ele>851</ele>
        <time>2022-03-03T09:04:47.000Z</time>
      </trkpt>
      <trkpt lat="44.13378" lon="6.11102">
        <ele>851</ele>
        <time>2022-03-03T09:04:48.000Z</time>
      </trkpt>
      <trkpt lat="44.13379" lon="6.11102">
        <ele>851</ele>
        <time>2022-03-03T09:04:49.000Z</time>
      </trkpt>
      <trkpt lat="44.13379" lon="6.11102">
        <ele>851</ele>
        <time>2022-03-03T09:04:50.000Z</time>
      </trkpt>
      <trkpt lat="44.13379" lon="6.11103">
        <ele>851</ele>
        <time>2022-03-03T09:04:51.000Z</time>
      </trkpt>
      <trkpt lat="44.13379" lon="6.11103">
        <ele>851</ele>
        <time>2022-03-03T09:04:52.000Z</time>
      </trkpt>
      <trkpt lat="44.13379" lon="6.11104">
        <ele>851</ele>
        <time>2022-03-03T09:04:53.000Z</time>
      </trkpt>
      <trkpt lat="44.13379" lon="6.11104">
        <ele>851</ele>
        <time>2022-03-03T09:04:54.000Z</time>
      </trkpt>
      <trkpt lat="44.13379" lon="6.11105">
        <ele>851</ele>
        <time>2022-03-03T09:04:55.000Z</time>
      </trkpt>
      <trkpt lat="44.1338" lon="6.11105">
        <ele>852</ele>
        <time>2022-03-03T09:04:56.000Z</time>
      </trkpt>
      <trkpt lat="44.1338" lon="6.11106">
        <ele>852</ele>
        <time>2022-03-03T09:04:57.000Z</time>
      </trkpt>
      <trkpt lat="44.13381" lon="6.11106">
        <ele>852</ele>
        <time>2022-03-03T09:04:58.000Z</time>
      </trkpt>
      <trkpt lat="44.13381" lon="6.11107">
        <ele>852</ele>
        <time>2022-03-03T09:04:59.000Z</time>
      </trkpt>
      <trkpt lat="44.13381" lon="6.11108">
        <ele>852</ele>
        <time>2022-03-03T09:05:00.000Z</time>
      </trkpt>
      <trkpt lat="44.13381" lon="6.11109">
        <ele>852</ele>
        <time>2022-03-03T09:05:01.000Z</time>
      </trkpt>
      <trkpt lat="44.13382" lon="6.11111">
        <ele>852</ele>
        <time>2022-03-03T09:05:02.000Z</time>
      </trkpt>
      <trkpt lat="44.13382" lon="6.11112">
        <ele>852</ele>
        <time>2022-03-03T09:05:03.000Z</time>
      </trkpt>
      <trkpt lat="44.13383" lon="6.11113">
        <ele>852</ele>
        <time>2022-03-03T09:05:04.000Z</time>
      </trkpt>
      <trkpt lat="44.13383" lon="6.11113">
        <ele>852</ele>
        <time>2022-03-03T09:05:05.000Z</time>
      </trkpt>
      <trkpt lat="44.13383" lon="6.11114">
        <ele>852</ele>
        <time>2022-03-03T09:05:06.000Z</time>
      </trkpt>
      <trkpt lat="44.13383" lon="6.11115">
        <ele>852</ele>
        <time>2022-03-03T09:05:07.000Z</time>
      </trkpt>
      <trkpt lat="44.13384" lon="6.11116">
        <ele>852</ele>
        <time>2022-03-03T09:05:08.000Z</time>
      </trkpt>
      <trkpt lat="44.13385" lon="6.11117">
        <ele>852</ele>
        <time>2022-03-03T09:05:09.000Z</time>
      </trkpt>
      <trkpt lat="44.13385" lon="6.11118">
        <ele>852</ele>
        <time>2022-03-03T09:05:10.000Z</time>
      </trkpt>
      <trkpt lat="44.13385" lon="6.11119">
        <ele>852</ele>
        <time>2022-03-03T09:05:11.000Z</time>
      </trkpt>
      <trkpt lat="44.13386" lon="6.1112">
        <ele>852</ele>
        <time>2022-03-03T09:05:12.000Z</time>
      </trkpt>
      <trkpt lat="44.13386" lon="6.11122">
        <ele>852</ele>
        <time>2022-03-03T09:05:13.000Z</time>
      </trkpt>
      <trkpt lat="44.13386" lon="6.11123">
        <ele>852</ele>
        <time>2022-03-03T09:05:14.000Z</time>
      </trkpt>
      <trkpt lat="44.13386" lon="6.11124">
        <ele>852</ele>
        <time>2022-03-03T09:05:15.000Z</time>
      </trkpt>
      <trkpt lat="44.13387" lon="6.11125">
        <ele>852</ele>
        <time>2022-03-03T09:05:16.000Z</time>
      </trkpt>
      <trkpt lat="44.13387" lon="6.11127">
        <ele>852</ele>
        <time>2022-03-03T09:05:17.000Z</time>
      </trkpt>
      <trkpt lat="44.13387" lon="6.11128">
        <ele>852</ele>
        <time>2022-03-03T09:05:18.000Z</time>
      </trkpt>
      <trkpt lat="44.13387" lon="6.1113">
        <ele>852</ele>
        <time>2022-03-03T09:05:19.000Z</time>
      </trkpt>
      <trkpt lat="44.13387" lon="6.11131">
        <ele>852</ele>
        <time>2022-03-03T09:05:20.000Z</time>
      </trkpt>
      <trkpt lat="44.13387" lon="6.11133">
        <ele>852</ele>
        <time>2022-03-03T09:05:21.000Z</time>
      </trkpt>
      <trkpt lat="44.13388" lon="6.11134">
        <ele>852</ele>
        <time>2022-03-03T09:05:22.000Z</time>
      </trkpt>
      <trkpt lat="44.13388" lon="6.11135">
        <ele>852</ele>
        <time>2022-03-03T09:05:23.000Z</time>
      </trkpt>
      <trkpt lat="44.13388" lon="6.11136">
        <ele>852</ele>
        <time>2022-03-03T09:05:24.000Z</time>
      </trkpt>
      <trkpt lat="44.13388" lon="6.11138">
        <ele>852</ele>
        <time>2022-03-03T09:05:25.000Z</time>
      </trkpt>
      <trkpt lat="44.13388" lon="6.11139">
        <ele>852</ele>
        <time>2022-03-03T09:05:26.000Z</time>
      </trkpt>
      <trkpt lat="44.13388" lon="6.1114">
        <ele>852</ele>
        <time>2022-03-03T09:05:27.000Z</time>
      </trkpt>
      <trkpt lat="44.13388" lon="6.11142">
        <ele>852</ele>
        <time>2022-03-03T09:05:28.000Z</time>
      </trkpt>
      <trkpt lat="44.13388" lon="6.11143">
        <ele>852</ele>
        <time>2022-03-03T09:05:29.000Z</time>
      </trkpt>
      <trkpt lat="44.13389" lon="6.11144">
        <ele>852</ele>
        <time>2022-03-03T09:05:30.000Z</time>
      </trkpt>
      <trkpt lat="44.13389" lon="6.11145">
        <ele>852</ele>
        <time>2022-03-03T09:05:31.000Z</time>
      </trkpt>
      <trkpt lat="44.13389" lon="6.11146">
        <ele>852</ele>
        <time>2022-03-03T09:05:32.000Z</time>
      </trkpt>
      <trkpt lat="44.13389" lon="6.11148">
        <ele>852</ele>
        <time>2022-03-03T09:05:33.000Z</time>
      </trkpt>
      <trkpt lat="44.1339" lon="6.11149">
        <ele>852</ele>
        <time>2022-03-03T09:05:34.000Z</time>
      </trkpt>
      <trkpt lat="44.1339" lon="6.1115">
        <ele>852</ele>
        <time>2022-03-03T09:05:35.000Z</time>
      </trkpt>
      <trkpt lat="44.1339" lon="6.11151">
        <ele>852</ele>
        <time>2022-03-03T09:05:36.000Z</time>
      </trkpt>
      <trkpt lat="44.13391" lon="6.11152">
        <ele>852</ele>
        <time>2022-03-03T09:05:37.000Z</time>
      </trkpt>
      <trkpt lat="44.13391" lon="6.11153">
        <ele>852</ele>
        <time>2022-03-03T09:05:38.000Z</time>
      </trkpt>
      <trkpt lat="44.13391" lon="6.11154">
        <ele>852</ele>
        <time>2022-03-03T09:05:39.000Z</time>
      </trkpt>
      <trkpt lat="44.13391" lon="6.11155">
        <ele>852</ele>
        <time>2022-03-03T09:05:40.000Z</time>
      </trkpt>
      <trkpt lat="44.13391" lon="6.11156">
        <ele>853</ele>
        <time>2022-03-03T09:05:41.000Z</time>
      </trkpt>
      <trkpt lat="44.13391" lon="6.11157">
        <ele>853</ele>
        <time>2022-03-03T09:05:42.000Z</time>
      </trkpt>
      <trkpt lat="44.13392" lon="6.11159">
        <ele>853</ele>
        <time>2022-03-03T09:05:43.000Z</time>
      </trkpt>
      <trkpt lat="44.13392" lon="6.1116">
        <ele>853</ele>
        <time>2022-03-03T09:05:44.000Z</time>
      </trkpt>
      <trkpt lat="44.13392" lon="6.11161">
        <ele>853</ele>
        <time>2022-03-03T09:05:45.000Z</time>
      </trkpt>
      <trkpt lat="44.13392" lon="6.11162">
        <ele>853</ele>
        <time>2022-03-03T09:05:46.000Z</time>
      </trkpt>
      <trkpt lat="44.13392" lon="6.11163">
        <ele>853</ele>
        <time>2022-03-03T09:05:47.000Z</time>
      </trkpt>
      <trkpt lat="44.13393" lon="6.11164">
        <ele>853</ele>
        <time>2022-03-03T09:05:48.000Z</time>
      </trkpt>
      <trkpt lat="44.13393" lon="6.11165">
        <ele>854</ele>
        <time>2022-03-03T09:05:49.000Z</time>
      </trkpt>
      <trkpt lat="44.13393" lon="6.11167">
        <ele>854</ele>
        <time>2022-03-03T09:05:50.000Z</time>
      </trkpt>
      <trkpt lat="44.13393" lon="6.11168">
        <ele>854</ele>
        <time>2022-03-03T09:05:51.000Z</time>
      </trkpt>
      <trkpt lat="44.13394" lon="6.11169">
        <ele>854</ele>
        <time>2022-03-03T09:05:52.000Z</time>
      </trkpt>
      <trkpt lat="44.13394" lon="6.1117">
        <ele>854</ele>
        <time>2022-03-03T09:05:53.000Z</time>
      </trkpt>
      <trkpt lat="44.13394" lon="6.11171">
        <ele>854</ele>
        <time>2022-03-03T09:05:54.000Z</time>
      </trkpt>
      <trkpt lat="44.13394" lon="6.11172">
        <ele>854</ele>
        <time>2022-03-03T09:05:55.000Z</time>
      </trkpt>
      <trkpt lat="44.13394" lon="6.11173">
        <ele>854</ele>
        <time>2022-03-03T09:05:56.000Z</time>
      </trkpt>
      <trkpt lat="44.13395" lon="6.11174">
        <ele>855</ele>
        <time>2022-03-03T09:05:57.000Z</time>
      </trkpt>
      <trkpt lat="44.13395" lon="6.11175">
        <ele>855</ele>
        <time>2022-03-03T09:05:58.000Z</time>
      </trkpt>
      <trkpt lat="44.13395" lon="6.11177">
        <ele>855</ele>
        <time>2022-03-03T09:05:59.000Z</time>
      </trkpt>
      <trkpt lat="44.13395" lon="6.11178">
        <ele>855</ele>
        <time>2022-03-03T09:06:00.000Z</time>
      </trkpt>
      <trkpt lat="44.13395" lon="6.11178">
        <ele>855</ele>
        <time>2022-03-03T09:06:01.000Z</time>
      </trkpt>
      <trkpt lat="44.13395" lon="6.11179">
        <ele>855</ele>
        <time>2022-03-03T09:06:02.000Z</time>
      </trkpt>
      <trkpt lat="44.13396" lon="6.1118">
        <ele>855</ele>
        <time>2022-03-03T09:06:03.000Z</time>
      </trkpt>
      <trkpt lat="44.13396" lon="6.11181">
        <ele>855</ele>
        <time>2022-03-03T09:06:04.000Z</time>
      </trkpt>
      <trkpt lat="44.13396" lon="6.11182">
        <ele>855</ele>
        <time>2022-03-03T09:06:05.000Z</time>
      </trkpt>
      <trkpt lat="44.13396" lon="6.11183">
        <ele>855</ele>
        <time>2022-03-03T09:06:06.000Z</time>
      </trkpt>
      <trkpt lat="44.13396" lon="6.11184">
        <ele>856</ele>
        <time>2022-03-03T09:06:07.000Z</time>
      </trkpt>
      <trkpt lat="44.13397" lon="6.11185">
        <ele>856</ele>
        <time>2022-03-03T09:06:08.000Z</time>
      </trkpt>
      <trkpt lat="44.13397" lon="6.11186">
        <ele>856</ele>
        <time>2022-03-03T09:06:09.000Z</time>
      </trkpt>
      <trkpt lat="44.13397" lon="6.11187">
        <ele>856</ele>
        <time>2022-03-03T09:06:10.000Z</time>
      </trkpt>
      <trkpt lat="44.13397" lon="6.11189">
        <ele>856</ele>
        <time>2022-03-03T09:06:11.000Z</time>
      </trkpt>
      <trkpt lat="44.13397" lon="6.11189">
        <ele>856</ele>
        <time>2022-03-03T09:06:12.000Z</time>
      </trkpt>
      <trkpt lat="44.13397" lon="6.1119">
        <ele>856</ele>
        <time>2022-03-03T09:06:13.000Z</time>
      </trkpt>
      <trkpt lat="44.13397" lon="6.11191">
        <ele>856</ele>
        <time>2022-03-03T09:06:14.000Z</time>
      </trkpt>
      <trkpt lat="44.13398" lon="6.11193">
        <ele>856</ele>
        <time>2022-03-03T09:06:15.000Z</time>
      </trkpt>
      <trkpt lat="44.13398" lon="6.11194">
        <ele>856</ele>
        <time>2022-03-03T09:06:16.000Z</time>
      </trkpt>
      <trkpt lat="44.13398" lon="6.11194">
        <ele>857</ele>
        <time>2022-03-03T09:06:17.000Z</time>
      </trkpt>
      <trkpt lat="44.13398" lon="6.11195">
        <ele>857</ele>
        <time>2022-03-03T09:06:18.000Z</time>
      </trkpt>
      <trkpt lat="44.13398" lon="6.11196">
        <ele>857</ele>
        <time>2022-03-03T09:06:19.000Z</time>
      </trkpt>
      <trkpt lat="44.13399" lon="6.11197">
        <ele>857</ele>
        <time>2022-03-03T09:06:20.000Z</time>
      </trkpt>
      <trkpt lat="44.13399" lon="6.11198">
        <ele>857</ele>
        <time>2022-03-03T09:06:21.000Z</time>
      </trkpt>
      <trkpt lat="44.13399" lon="6.11199">
        <ele>857</ele>
        <time>2022-03-03T09:06:22.000Z</time>
      </trkpt>
      <trkpt lat="44.13399" lon="6.112">
        <ele>857</ele>
        <time>2022-03-03T09:06:23.000Z</time>
      </trkpt>
      <trkpt lat="44.13399" lon="6.11201">
        <ele>857</ele>
        <time>2022-03-03T09:06:24.000Z</time>
      </trkpt>
      <trkpt lat="44.13399" lon="6.11203">
        <ele>857</ele>
        <time>2022-03-03T09:06:25.000Z</time>
      </trkpt>
      <trkpt lat="44.134" lon="6.11204">
        <ele>857</ele>
        <time>2022-03-03T09:06:26.000Z</time>
      </trkpt>
      <trkpt lat="44.134" lon="6.11205">
        <ele>858</ele>
        <time>2022-03-03T09:06:27.000Z</time>
      </trkpt>
      <trkpt lat="44.134" lon="6.11206">
        <ele>858</ele>
        <time>2022-03-03T09:06:28.000Z</time>
      </trkpt>
      <trkpt lat="44.134" lon="6.11207">
        <ele>858</ele>
        <time>2022-03-03T09:06:29.000Z</time>
      </trkpt>
      <trkpt lat="44.134" lon="6.11208">
        <ele>858</ele>
        <time>2022-03-03T09:06:30.000Z</time>
      </trkpt>
      <trkpt lat="44.13401" lon="6.11209">
        <ele>858</ele>
        <time>2022-03-03T09:06:31.000Z</time>
      </trkpt>
      <trkpt lat="44.13401" lon="6.1121">
        <ele>858</ele>
        <time>2022-03-03T09:06:32.000Z</time>
      </trkpt>
      <trkpt lat="44.13401" lon="6.11211">
        <ele>858</ele>
        <time>2022-03-03T09:06:33.000Z</time>
      </trkpt>
      <trkpt lat="44.13402" lon="6.11212">
        <ele>858</ele>
        <time>2022-03-03T09:06:34.000Z</time>
      </trkpt>
      <trkpt lat="44.13402" lon="6.11213">
        <ele>859</ele>
        <time>2022-03-03T09:06:35.000Z</time>
      </trkpt>
      <trkpt lat="44.13402" lon="6.11214">
        <ele>859</ele>
        <time>2022-03-03T09:06:36.000Z</time>
      </trkpt>
      <trkpt lat="44.13403" lon="6.11216">
        <ele>859</ele>
        <time>2022-03-03T09:06:37.000Z</time>
      </trkpt>
      <trkpt lat="44.13403" lon="6.11216">
        <ele>859</ele>
        <time>2022-03-03T09:06:38.000Z</time>
      </trkpt>
      <trkpt lat="44.13403" lon="6.11217">
        <ele>859</ele>
        <time>2022-03-03T09:06:39.000Z</time>
      </trkpt>
      <trkpt lat="44.13404" lon="6.11218">
        <ele>859</ele>
        <time>2022-03-03T09:06:40.000Z</time>
      </trkpt>
      <trkpt lat="44.13404" lon="6.11219">
        <ele>859</ele>
        <time>2022-03-03T09:06:41.000Z</time>
      </trkpt>
      <trkpt lat="44.13404" lon="6.1122">
        <ele>860</ele>
        <time>2022-03-03T09:06:42.000Z</time>
      </trkpt>
      <trkpt lat="44.13405" lon="6.11221">
        <ele>860</ele>
        <time>2022-03-03T09:06:43.000Z</time>
      </trkpt>
      <trkpt lat="44.13405" lon="6.11222">
        <ele>860</ele>
        <time>2022-03-03T09:06:44.000Z</time>
      </trkpt>
      <trkpt lat="44.13405" lon="6.11223">
        <ele>860</ele>
        <time>2022-03-03T09:06:45.000Z</time>
      </trkpt>
      <trkpt lat="44.13406" lon="6.11224">
        <ele>860</ele>
        <time>2022-03-03T09:06:46.000Z</time>
      </trkpt>
      <trkpt lat="44.13406" lon="6.11225">
        <ele>860</ele>
        <time>2022-03-03T09:06:47.000Z</time>
      </trkpt>
      <trkpt lat="44.13406" lon="6.11226">
        <ele>860</ele>
        <time>2022-03-03T09:06:48.000Z</time>
      </trkpt>
      <trkpt lat="44.13407" lon="6.11228">
        <ele>860</ele>
        <time>2022-03-03T09:06:49.000Z</time>
      </trkpt>
      <trkpt lat="44.13407" lon="6.11228">
        <ele>860</ele>
        <time>2022-03-03T09:06:50.000Z</time>
      </trkpt>
      <trkpt lat="44.13408" lon="6.11229">
        <ele>861</ele>
        <time>2022-03-03T09:06:51.000Z</time>
      </trkpt>
      <trkpt lat="44.13409" lon="6.1123">
        <ele>861</ele>
        <time>2022-03-03T09:06:52.000Z</time>
      </trkpt>
      <trkpt lat="44.13409" lon="6.11231">
        <ele>861</ele>
        <time>2022-03-03T09:06:53.000Z</time>
      </trkpt>
      <trkpt lat="44.1341" lon="6.11232">
        <ele>861</ele>
        <time>2022-03-03T09:06:54.000Z</time>
      </trkpt>
      <trkpt lat="44.1341" lon="6.11233">
        <ele>861</ele>
        <time>2022-03-03T09:06:55.000Z</time>
      </trkpt>
      <trkpt lat="44.13411" lon="6.11234">
        <ele>861</ele>
        <time>2022-03-03T09:06:56.000Z</time>
      </trkpt>
      <trkpt lat="44.13411" lon="6.11236">
        <ele>862</ele>
        <time>2022-03-03T09:06:57.000Z</time>
      </trkpt>
      <trkpt lat="44.13412" lon="6.11238">
        <ele>862</ele>
        <time>2022-03-03T09:06:58.000Z</time>
      </trkpt>
      <trkpt lat="44.13412" lon="6.11239">
        <ele>862</ele>
        <time>2022-03-03T09:06:59.000Z</time>
      </trkpt>
      <trkpt lat="44.13412" lon="6.1124">
        <ele>862</ele>
        <time>2022-03-03T09:07:00.000Z</time>
      </trkpt>
      <trkpt lat="44.13413" lon="6.11241">
        <ele>862</ele>
        <time>2022-03-03T09:07:01.000Z</time>
      </trkpt>
      <trkpt lat="44.13413" lon="6.11242">
        <ele>862</ele>
        <time>2022-03-03T09:07:02.000Z</time>
      </trkpt>
      <trkpt lat="44.13413" lon="6.11244">
        <ele>862</ele>
        <time>2022-03-03T09:07:03.000Z</time>
      </trkpt>
      <trkpt lat="44.13414" lon="6.11245">
        <ele>862</ele>
        <time>2022-03-03T09:07:04.000Z</time>
      </trkpt>
      <trkpt lat="44.13415" lon="6.11246">
        <ele>862</ele>
        <time>2022-03-03T09:07:05.000Z</time>
      </trkpt>
      <trkpt lat="44.13415" lon="6.11247">
        <ele>863</ele>
        <time>2022-03-03T09:07:06.000Z</time>
      </trkpt>
      <trkpt lat="44.13416" lon="6.11248">
        <ele>863</ele>
        <time>2022-03-03T09:07:07.000Z</time>
      </trkpt>
      <trkpt lat="44.13417" lon="6.11249">
        <ele>863</ele>
        <time>2022-03-03T09:07:08.000Z</time>
      </trkpt>
      <trkpt lat="44.13417" lon="6.1125">
        <ele>863</ele>
        <time>2022-03-03T09:07:09.000Z</time>
      </trkpt>
      <trkpt lat="44.13418" lon="6.11251">
        <ele>863</ele>
        <time>2022-03-03T09:07:10.000Z</time>
      </trkpt>
      <trkpt lat="44.13419" lon="6.11251">
        <ele>863</ele>
        <time>2022-03-03T09:07:11.000Z</time>
      </trkpt>
      <trkpt lat="44.13419" lon="6.11252">
        <ele>863</ele>
        <time>2022-03-03T09:07:12.000Z</time>
      </trkpt>
      <trkpt lat="44.1342" lon="6.11253">
        <ele>863</ele>
        <time>2022-03-03T09:07:13.000Z</time>
      </trkpt>
      <trkpt lat="44.13421" lon="6.11253">
        <ele>864</ele>
        <time>2022-03-03T09:07:14.000Z</time>
      </trkpt>
      <trkpt lat="44.13421" lon="6.11253">
        <ele>864</ele>
        <time>2022-03-03T09:07:15.000Z</time>
      </trkpt>
      <trkpt lat="44.13422" lon="6.11254">
        <ele>864</ele>
        <time>2022-03-03T09:07:16.000Z</time>
      </trkpt>
      <trkpt lat="44.13423" lon="6.11254">
        <ele>864</ele>
        <time>2022-03-03T09:07:17.000Z</time>
      </trkpt>
      <trkpt lat="44.13424" lon="6.11255">
        <ele>864</ele>
        <time>2022-03-03T09:07:18.000Z</time>
      </trkpt>
      <trkpt lat="44.13425" lon="6.11255">
        <ele>864</ele>
        <time>2022-03-03T09:07:19.000Z</time>
      </trkpt>
      <trkpt lat="44.13426" lon="6.11255">
        <ele>864</ele>
        <time>2022-03-03T09:07:20.000Z</time>
      </trkpt>
      <trkpt lat="44.13427" lon="6.11255">
        <ele>865</ele>
        <time>2022-03-03T09:07:21.000Z</time>
      </trkpt>
      <trkpt lat="44.13427" lon="6.11255">
        <ele>865</ele>
        <time>2022-03-03T09:07:22.000Z</time>
      </trkpt>
      <trkpt lat="44.13428" lon="6.11255">
        <ele>865</ele>
        <time>2022-03-03T09:07:23.000Z</time>
      </trkpt>
      <trkpt lat="44.13429" lon="6.11255">
        <ele>865</ele>
        <time>2022-03-03T09:07:24.000Z</time>
      </trkpt>
      <trkpt lat="44.1343" lon="6.11255">
        <ele>865</ele>
        <time>2022-03-03T09:07:25.000Z</time>
      </trkpt>
      <trkpt lat="44.1343" lon="6.11255">
        <ele>865</ele>
        <time>2022-03-03T09:07:26.000Z</time>
      </trkpt>
      <trkpt lat="44.13431" lon="6.11255">
        <ele>865</ele>
        <time>2022-03-03T09:07:27.000Z</time>
      </trkpt>
      <trkpt lat="44.13432" lon="6.11255">
        <ele>866</ele>
        <time>2022-03-03T09:07:28.000Z</time>
      </trkpt>
      <trkpt lat="44.13433" lon="6.11254">
        <ele>866</ele>
        <time>2022-03-03T09:07:29.000Z</time>
      </trkpt>
      <trkpt lat="44.13434" lon="6.11254">
        <ele>866</ele>
        <time>2022-03-03T09:07:30.000Z</time>
      </trkpt>
      <trkpt lat="44.13435" lon="6.11254">
        <ele>866</ele>
        <time>2022-03-03T09:07:31.000Z</time>
      </trkpt>
      <trkpt lat="44.13435" lon="6.11254">
        <ele>866</ele>
        <time>2022-03-03T09:07:32.000Z</time>
      </trkpt>
      <trkpt lat="44.13436" lon="6.11253">
        <ele>867</ele>
        <time>2022-03-03T09:07:33.000Z</time>
      </trkpt>
      <trkpt lat="44.13437" lon="6.11253">
        <ele>867</ele>
        <time>2022-03-03T09:07:34.000Z</time>
      </trkpt>
      <trkpt lat="44.13437" lon="6.11253">
        <ele>867</ele>
        <time>2022-03-03T09:07:35.000Z</time>
      </trkpt>
      <trkpt lat="44.13438" lon="6.11252">
        <ele>867</ele>
        <time>2022-03-03T09:07:36.000Z</time>
      </trkpt>
      <trkpt lat="44.13438" lon="6.11252">
        <ele>867</ele>
        <time>2022-03-03T09:07:37.000Z</time>
      </trkpt>
      <trkpt lat="44.13439" lon="6.11252">
        <ele>867</ele>
        <time>2022-03-03T09:07:38.000Z</time>
      </trkpt>
      <trkpt lat="44.1344" lon="6.11251">
        <ele>868</ele>
        <time>2022-03-03T09:07:39.000Z</time>
      </trkpt>
      <trkpt lat="44.1344" lon="6.11251">
        <ele>868</ele>
        <time>2022-03-03T09:07:40.000Z</time>
      </trkpt>
      <trkpt lat="44.1344" lon="6.11251">
        <ele>868</ele>
        <time>2022-03-03T09:07:41.000Z</time>
      </trkpt>
      <trkpt lat="44.13441" lon="6.1125">
        <ele>868</ele>
        <time>2022-03-03T09:07:42.000Z</time>
      </trkpt>
      <trkpt lat="44.13441" lon="6.1125">
        <ele>868</ele>
        <time>2022-03-03T09:07:43.000Z</time>
      </trkpt>
      <trkpt lat="44.13441" lon="6.11249">
        <ele>868</ele>
        <time>2022-03-03T09:07:44.000Z</time>
      </trkpt>
      <trkpt lat="44.13442" lon="6.11249">
        <ele>868</ele>
        <time>2022-03-03T09:07:45.000Z</time>
      </trkpt>
      <trkpt lat="44.13442" lon="6.11248">
        <ele>869</ele>
        <time>2022-03-03T09:07:46.000Z</time>
      </trkpt>
      <trkpt lat="44.13442" lon="6.11248">
        <ele>869</ele>
        <time>2022-03-03T09:07:47.000Z</time>
      </trkpt>
      <trkpt lat="44.13443" lon="6.11247">
        <ele>869</ele>
        <time>2022-03-03T09:07:48.000Z</time>
      </trkpt>
      <trkpt lat="44.13444" lon="6.11247">
        <ele>869</ele>
        <time>2022-03-03T09:07:49.000Z</time>
      </trkpt>
      <trkpt lat="44.13444" lon="6.11247">
        <ele>870</ele>
        <time>2022-03-03T09:07:50.000Z</time>
      </trkpt>
      <trkpt lat="44.13444" lon="6.11247">
        <ele>870</ele>
        <time>2022-03-03T09:07:51.000Z</time>
      </trkpt>
      <trkpt lat="44.13444" lon="6.11246">
        <ele>870</ele>
        <time>2022-03-03T09:07:52.000Z</time>
      </trkpt>
      <trkpt lat="44.13444" lon="6.11246">
        <ele>870</ele>
        <time>2022-03-03T09:07:53.000Z</time>
      </trkpt>
      <trkpt lat="44.13444" lon="6.11246">
        <ele>870</ele>
        <time>2022-03-03T09:07:54.000Z</time>
      </trkpt>
      <trkpt lat="44.13444" lon="6.11246">
        <ele>870</ele>
        <time>2022-03-03T09:07:55.000Z</time>
      </trkpt>
      <trkpt lat="44.13444" lon="6.11246">
        <ele>870</ele>
        <time>2022-03-03T09:07:56.000Z</time>
      </trkpt>
      <trkpt lat="44.13444" lon="6.11246">
        <ele>870</ele>
        <time>2022-03-03T09:07:57.000Z</time>
      </trkpt>
      <trkpt lat="44.13444" lon="6.11246">
        <ele>870</ele>
        <time>2022-03-03T09:07:58.000Z</time>
      </trkpt>
      <trkpt lat="44.13444" lon="6.11246">
        <ele>870</ele>
        <time>2022-03-03T09:07:59.000Z</time>
      </trkpt>
      <trkpt lat="44.13444" lon="6.11246">
        <ele>870</ele>
        <time>2022-03-03T09:08:00.000Z</time>
      </trkpt>
      <trkpt lat="44.13444" lon="6.11246">
        <ele>870</ele>
        <time>2022-03-03T09:08:01.000Z</time>
      </trkpt>
      <trkpt lat="44.13444" lon="6.11246">
        <ele>870</ele>
        <time>2022-03-03T09:08:02.000Z</time>
      </trkpt>
      <trkpt lat="44.13444" lon="6.11246">
        <ele>871</ele>
        <time>2022-03-03T09:08:03.000Z</time>
      </trkpt>
      <trkpt lat="44.13444" lon="6.11246">
        <ele>871</ele>
        <time>2022-03-03T09:08:04.000Z</time>
      </trkpt>
      <trkpt lat="44.13444" lon="6.11246">
        <ele>871</ele>
        <time>2022-03-03T09:08:05.000Z</time>
      </trkpt>
      <trkpt lat="44.13444" lon="6.11246">
        <ele>871</ele>
        <time>2022-03-03T09:08:06.000Z</time>
      </trkpt>
      <trkpt lat="44.13444" lon="6.11246">
        <ele>871</ele>
        <time>2022-03-03T09:08:07.000Z</time>
      </trkpt>
      <trkpt lat="44.13444" lon="6.11246">
        <ele>871</ele>
        <time>2022-03-03T09:08:08.000Z</time>
      </trkpt>
      <trkpt lat="44.13444" lon="6.11246">
        <ele>871</ele>
        <time>2022-03-03T09:08:09.000Z</time>
      </trkpt>
      <trkpt lat="44.13444" lon="6.11246">
        <ele>871</ele>
        <time>2022-03-03T09:08:10.000Z</time>
      </trkpt>
      <trkpt lat="44.13444" lon="6.11246">
        <ele>871</ele>
        <time>2022-03-03T09:08:11.000Z</time>
      </trkpt>
      <trkpt lat="44.13444" lon="6.11246">
        <ele>871</ele>
        <time>2022-03-03T09:08:12.000Z</time>
      </trkpt>
      <trkpt lat="44.13444" lon="6.11246">
        <ele>871</ele>
        <time>2022-03-03T09:08:13.000Z</time>
      </trkpt>
      <trkpt lat="44.13444" lon="6.11246">
        <ele>871</ele>
        <time>2022-03-03T09:08:14.000Z</time>
      </trkpt>
      <trkpt lat="44.13444" lon="6.11246">
        <ele>871</ele>
        <time>2022-03-03T09:08:15.000Z</time>
      </trkpt>
      <trkpt lat="44.13444" lon="6.11246">
        <ele>871</ele>
        <time>2022-03-03T09:08:16.000Z</time>
      </trkpt>
      <trkpt lat="44.13444" lon="6.11246">
        <ele>871</ele>
        <time>2022-03-03T09:08:17.000Z</time>
      </trkpt>
      <trkpt lat="44.13444" lon="6.11245">
        <ele>871</ele>
        <time>2022-03-03T09:08:18.000Z</time>
      </trkpt>
      <trkpt lat="44.13444" lon="6.11245">
        <ele>871</ele>
        <time>2022-03-03T09:08:19.000Z</time>
      </trkpt>
      <trkpt lat="44.13444" lon="6.11245">
        <ele>871</ele>
        <time>2022-03-03T09:08:20.000Z</time>
      </trkpt>
      <trkpt lat="44.13444" lon="6.11245">
        <ele>871</ele>
        <time>2022-03-03T09:08:21.000Z</time>
      </trkpt>
      <trkpt lat="44.13444" lon="6.11245">
        <ele>871</ele>
        <time>2022-03-03T09:08:22.000Z</time>
      </trkpt>
      <trkpt lat="44.13444" lon="6.11245">
        <ele>871</ele>
        <time>2022-03-03T09:08:23.000Z</time>
      </trkpt>
      <trkpt lat="44.13444" lon="6.11245">
        <ele>871</ele>
        <time>2022-03-03T09:08:24.000Z</time>
      </trkpt>
      <trkpt lat="44.13444" lon="6.11245">
        <ele>871</ele>
        <time>2022-03-03T09:08:25.000Z</time>
      </trkpt>
      <trkpt lat="44.13444" lon="6.11245">
        <ele>871</ele>
        <time>2022-03-03T09:08:26.000Z</time>
      </trkpt>
      <trkpt lat="44.13444" lon="6.11246">
        <ele>871</ele>
        <time>2022-03-03T09:08:27.000Z</time>
      </trkpt>
      <trkpt lat="44.13444" lon="6.11246">
        <ele>871</ele>
        <time>2022-03-03T09:08:28.000Z</time>
      </trkpt>
      <trkpt lat="44.13444" lon="6.11246">
        <ele>871</ele>
        <time>2022-03-03T09:08:29.000Z</time>
      </trkpt>
      <trkpt lat="44.13444" lon="6.11246">
        <ele>871</ele>
        <time>2022-03-03T09:08:30.000Z</time>
      </trkpt>
      <trkpt lat="44.13444" lon="6.11246">
        <ele>871</ele>
        <time>2022-03-03T09:08:31.000Z</time>
      </trkpt>
      <trkpt lat="44.13444" lon="6.11246">
        <ele>871</ele>
        <time>2022-03-03T09:08:32.000Z</time>
      </trkpt>
      <trkpt lat="44.13444" lon="6.11246">
        <ele>871</ele>
        <time>2022-03-03T09:08:33.000Z</time>
      </trkpt>
      <trkpt lat="44.13444" lon="6.11246">
        <ele>871</ele>
        <time>2022-03-03T09:08:34.000Z</time>
      </trkpt>
      <trkpt lat="44.13444" lon="6.11246">
        <ele>871</ele>
        <time>2022-03-03T09:08:35.000Z</time>
      </trkpt>
      <trkpt lat="44.13444" lon="6.11246">
        <ele>871</ele>
        <time>2022-03-03T09:08:36.000Z</time>
      </trkpt>
      <trkpt lat="44.13444" lon="6.11246">
        <ele>871</ele>
        <time>2022-03-03T09:08:37.000Z</time>
      </trkpt>
      <trkpt lat="44.13444" lon="6.11246">
        <ele>871</ele>
        <time>2022-03-03T09:08:38.000Z</time>
      </trkpt>
      <trkpt lat="44.13444" lon="6.11246">
        <ele>871</ele>
        <time>2022-03-03T09:08:39.000Z</time>
      </trkpt>
      <trkpt lat="44.13444" lon="6.11245">
        <ele>871</ele>
        <time>2022-03-03T09:08:40.000Z</time>
      </trkpt>
      <trkpt lat="44.13444" lon="6.11245">
        <ele>871</ele>
        <time>2022-03-03T09:08:41.000Z</time>
      </trkpt>
      <trkpt lat="44.13444" lon="6.11245">
        <ele>871</ele>
        <time>2022-03-03T09:08:42.000Z</time>
      </trkpt>
      <trkpt lat="44.13444" lon="6.11245">
        <ele>871</ele>
        <time>2022-03-03T09:08:43.000Z</time>
      </trkpt>
      <trkpt lat="44.13444" lon="6.11245">
        <ele>871</ele>
        <time>2022-03-03T09:08:44.000Z</time>
      </trkpt>
      <trkpt lat="44.13444" lon="6.11245">
        <ele>871</ele>
        <time>2022-03-03T09:08:45.000Z</time>
      </trkpt>
      <trkpt lat="44.13444" lon="6.11245">
        <ele>871</ele>
        <time>2022-03-03T09:08:46.000Z</time>
      </trkpt>
      <trkpt lat="44.13444" lon="6.11245">
        <ele>871</ele>
        <time>2022-03-03T09:08:47.000Z</time>
      </trkpt>
      <trkpt lat="44.13444" lon="6.11245">
        <ele>871</ele>
        <time>2022-03-03T09:08:48.000Z</time>
      </trkpt>
      <trkpt lat="44.13444" lon="6.11245">
        <ele>871</ele>
        <time>2022-03-03T09:08:49.000Z</time>
      </trkpt>
      <trkpt lat="44.13444" lon="6.11245">
        <ele>871</ele>
        <time>2022-03-03T09:08:50.000Z</time>
      </trkpt>
      <trkpt lat="44.13444" lon="6.11245">
        <ele>871</ele>
        <time>2022-03-03T09:08:51.000Z</time>
      </trkpt>
      <trkpt lat="44.13444" lon="6.11245">
        <ele>871</ele>
        <time>2022-03-03T09:08:52.000Z</time>
      </trkpt>
      <trkpt lat="44.13444" lon="6.11245">
        <ele>871</ele>
        <time>2022-03-03T09:08:53.000Z</time>
      </trkpt>
      <trkpt lat="44.13444" lon="6.11245">
        <ele>871</ele>
        <time>2022-03-03T09:08:54.000Z</time>
      </trkpt>
      <trkpt lat="44.13444" lon="6.11245">
        <ele>871</ele>
        <time>2022-03-03T09:08:55.000Z</time>
      </trkpt>
      <trkpt lat="44.13444" lon="6.11245">
        <ele>871</ele>
        <time>2022-03-03T09:08:56.000Z</time>
      </trkpt>
      <trkpt lat="44.13444" lon="6.11245">
        <ele>871</ele>
        <time>2022-03-03T09:08:57.000Z</time>
      </trkpt>
      <trkpt lat="44.13444" lon="6.11245">
        <ele>871</ele>
        <time>2022-03-03T09:08:58.000Z</time>
      </trkpt>
      <trkpt lat="44.13444" lon="6.11245">
        <ele>871</ele>
        <time>2022-03-03T09:08:59.000Z</time>
      </trkpt>
      <trkpt lat="44.13444" lon="6.11245">
        <ele>871</ele>
        <time>2022-03-03T09:09:00.000Z</time>
      </trkpt>
      <trkpt lat="44.13444" lon="6.11245">
        <ele>871</ele>
        <time>2022-03-03T09:09:01.000Z</time>
      </trkpt>
      <trkpt lat="44.13444" lon="6.11245">
        <ele>871</ele>
        <time>2022-03-03T09:09:02.000Z</time>
      </trkpt>
      <trkpt lat="44.13444" lon="6.11246">
        <ele>871</ele>
        <time>2022-03-03T09:09:03.000Z</time>
      </trkpt>
      <trkpt lat="44.13444" lon="6.11245">
        <ele>871</ele>
        <time>2022-03-03T09:09:04.000Z</time>
      </trkpt>
      <trkpt lat="44.13444" lon="6.11245">
        <ele>871</ele>
        <time>2022-03-03T09:09:05.000Z</time>
      </trkpt>
      <trkpt lat="44.13444" lon="6.11245">
        <ele>871</ele>
        <time>2022-03-03T09:09:06.000Z</time>
      </trkpt>
      <trkpt lat="44.13444" lon="6.11245">
        <ele>871</ele>
        <time>2022-03-03T09:09:07.000Z</time>
      </trkpt>
      <trkpt lat="44.13444" lon="6.11245">
        <ele>871</ele>
        <time>2022-03-03T09:09:08.000Z</time>
      </trkpt>
      <trkpt lat="44.13444" lon="6.11245">
        <ele>871</ele>
        <time>2022-03-03T09:09:09.000Z</time>
      </trkpt>
      <trkpt lat="44.13444" lon="6.11245">
        <ele>871</ele>
        <time>2022-03-03T09:09:10.000Z</time>
      </trkpt>
      <trkpt lat="44.13444" lon="6.11245">
        <ele>871</ele>
        <time>2022-03-03T09:09:11.000Z</time>
      </trkpt>
      <trkpt lat="44.13444" lon="6.11245">
        <ele>871</ele>
        <time>2022-03-03T09:09:12.000Z</time>
      </trkpt>
      <trkpt lat="44.13444" lon="6.11245">
        <ele>871</ele>
        <time>2022-03-03T09:09:13.000Z</time>
      </trkpt>
      <trkpt lat="44.13444" lon="6.11245">
        <ele>871</ele>
        <time>2022-03-03T09:09:14.000Z</time>
      </trkpt>
      <trkpt lat="44.13444" lon="6.11245">
        <ele>871</ele>
        <time>2022-03-03T09:09:15.000Z</time>
      </trkpt>
      <trkpt lat="44.13444" lon="6.11245">
        <ele>871</ele>
        <time>2022-03-03T09:09:16.000Z</time>
      </trkpt>
      <trkpt lat="44.13444" lon="6.11245">
        <ele>871</ele>
        <time>2022-03-03T09:09:17.000Z</time>
      </trkpt>
      <trkpt lat="44.13444" lon="6.11245">
        <ele>871</ele>
        <time>2022-03-03T09:09:18.000Z</time>
      </trkpt>
      <trkpt lat="44.13444" lon="6.11245">
        <ele>871</ele>
        <time>2022-03-03T09:09:19.000Z</time>
      </trkpt>
      <trkpt lat="44.13444" lon="6.11245">
        <ele>871</ele>
        <time>2022-03-03T09:09:20.000Z</time>
      </trkpt>
      <trkpt lat="44.13444" lon="6.11245">
        <ele>871</ele>
        <time>2022-03-03T09:09:21.000Z</time>
      </trkpt>
      <trkpt lat="44.13444" lon="6.11245">
        <ele>871</ele>
        <time>2022-03-03T09:09:22.000Z</time>
      </trkpt>
      <trkpt lat="44.13444" lon="6.11245">
        <ele>871</ele>
        <time>2022-03-03T09:09:23.000Z</time>
      </trkpt>
      <trkpt lat="44.13444" lon="6.11245">
        <ele>871</ele>
        <time>2022-03-03T09:09:24.000Z</time>
      </trkpt>
      <trkpt lat="44.13444" lon="6.11245">
        <ele>871</ele>
        <time>2022-03-03T09:09:25.000Z</time>
      </trkpt>
      <trkpt lat="44.13444" lon="6.11245">
        <ele>871</ele>
        <time>2022-03-03T09:09:26.000Z</time>
      </trkpt>
      <trkpt lat="44.13444" lon="6.11245">
        <ele>871</ele>
        <time>2022-03-03T09:09:27.000Z</time>
      </trkpt>
      <trkpt lat="44.13444" lon="6.11245">
        <ele>871</ele>
        <time>2022-03-03T09:09:28.000Z</time>
      </trkpt>
      <trkpt lat="44.13444" lon="6.11245">
        <ele>871</ele>
        <time>2022-03-03T09:09:29.000Z</time>
      </trkpt>
      <trkpt lat="44.13444" lon="6.11245">
        <ele>871</ele>
        <time>2022-03-03T09:09:30.000Z</time>
      </trkpt>
      <trkpt lat="44.13444" lon="6.11245">
        <ele>871</ele>
        <time>2022-03-03T09:09:31.000Z</time>
      </trkpt>
      <trkpt lat="44.13444" lon="6.11245">
        <ele>871</ele>
        <time>2022-03-03T09:09:32.000Z</time>
      </trkpt>
      <trkpt lat="44.13444" lon="6.11245">
        <ele>871</ele>
        <time>2022-03-03T09:09:33.000Z</time>
      </trkpt>
      <trkpt lat="44.13444" lon="6.11245">
        <ele>871</ele>
        <time>2022-03-03T09:09:34.000Z</time>
      </trkpt>
      <trkpt lat="44.13444" lon="6.11245">
        <ele>871</ele>
        <time>2022-03-03T09:09:35.000Z</time>
      </trkpt>
      <trkpt lat="44.13444" lon="6.11245">
        <ele>871</ele>
        <time>2022-03-03T09:09:36.000Z</time>
      </trkpt>
      <trkpt lat="44.13444" lon="6.11245">
        <ele>871</ele>
        <time>2022-03-03T09:09:37.000Z</time>
      </trkpt>
      <trkpt lat="44.13444" lon="6.11246">
        <ele>871</ele>
        <time>2022-03-03T09:09:38.000Z</time>
      </trkpt>
      <trkpt lat="44.13444" lon="6.11246">
        <ele>871</ele>
        <time>2022-03-03T09:09:39.000Z</time>
      </trkpt>
      <trkpt lat="44.13444" lon="6.11246">
        <ele>871</ele>
        <time>2022-03-03T09:09:40.000Z</time>
      </trkpt>
      <trkpt lat="44.13444" lon="6.11246">
        <ele>871</ele>
        <time>2022-03-03T09:09:41.000Z</time>
      </trkpt>
      <trkpt lat="44.13444" lon="6.11246">
        <ele>871</ele>
        <time>2022-03-03T09:09:42.000Z</time>
      </trkpt>
      <trkpt lat="44.13444" lon="6.11246">
        <ele>871</ele>
        <time>2022-03-03T09:09:43.000Z</time>
      </trkpt>
      <trkpt lat="44.13444" lon="6.11246">
        <ele>871</ele>
        <time>2022-03-03T09:09:44.000Z</time>
      </trkpt>
      <trkpt lat="44.13444" lon="6.11246">
        <ele>871</ele>
        <time>2022-03-03T09:09:45.000Z</time>
      </trkpt>
      <trkpt lat="44.13444" lon="6.11246">
        <ele>871</ele>
        <time>2022-03-03T09:09:46.000Z</time>
      </trkpt>
      <trkpt lat="44.13444" lon="6.11246">
        <ele>871</ele>
        <time>2022-03-03T09:09:47.000Z</time>
      </trkpt>
      <trkpt lat="44.13444" lon="6.11246">
        <ele>871</ele>
        <time>2022-03-03T09:09:48.000Z</time>
      </trkpt>
      <trkpt lat="44.13444" lon="6.11246">
        <ele>871</ele>
        <time>2022-03-03T09:09:49.000Z</time>
      </trkpt>
      <trkpt lat="44.13444" lon="6.11246">
        <ele>871</ele>
        <time>2022-03-03T09:09:50.000Z</time>
      </trkpt>
      <trkpt lat="44.13444" lon="6.11245">
        <ele>871</ele>
        <time>2022-03-03T09:09:51.000Z</time>
      </trkpt>
      <trkpt lat="44.13444" lon="6.11245">
        <ele>871</ele>
        <time>2022-03-03T09:09:52.000Z</time>
      </trkpt>
      <trkpt lat="44.13444" lon="6.11245">
        <ele>871</ele>
        <time>2022-03-03T09:09:53.000Z</time>
      </trkpt>
      <trkpt lat="44.13444" lon="6.11245">
        <ele>871</ele>
        <time>2022-03-03T09:09:54.000Z</time>
      </trkpt>
      <trkpt lat="44.13444" lon="6.11245">
        <ele>871</ele>
        <time>2022-03-03T09:09:55.000Z</time>
      </trkpt>
      <trkpt lat="44.13444" lon="6.11245">
        <ele>871</ele>
        <time>2022-03-03T09:09:56.000Z</time>
      </trkpt>
      <trkpt lat="44.13444" lon="6.11245">
        <ele>871</ele>
        <time>2022-03-03T09:09:57.000Z</time>
      </trkpt>
      <trkpt lat="44.13444" lon="6.11245">
        <ele>871</ele>
        <time>2022-03-03T09:09:58.000Z</time>
      </trkpt>
      <trkpt lat="44.13444" lon="6.11245">
        <ele>871</ele>
        <time>2022-03-03T09:09:59.000Z</time>
      </trkpt>
      <trkpt lat="44.13444" lon="6.11245">
        <ele>871</ele>
        <time>2022-03-03T09:10:00.000Z</time>
      </trkpt>
      <trkpt lat="44.13444" lon="6.11245">
        <ele>871</ele>
        <time>2022-03-03T09:10:01.000Z</time>
      </trkpt>
      <trkpt lat="44.13444" lon="6.11245">
        <ele>871</ele>
        <time>2022-03-03T09:10:02.000Z</time>
      </trkpt>
      <trkpt lat="44.13444" lon="6.11245">
        <ele>871</ele>
        <time>2022-03-03T09:10:03.000Z</time>
      </trkpt>
      <trkpt lat="44.13444" lon="6.11245">
        <ele>871</ele>
        <time>2022-03-03T09:10:04.000Z</time>
      </trkpt>
      <trkpt lat="44.13444" lon="6.11245">
        <ele>871</ele>
        <time>2022-03-03T09:10:05.000Z</time>
      </trkpt>
      <trkpt lat="44.13444" lon="6.11245">
        <ele>871</ele>
        <time>2022-03-03T09:10:06.000Z</time>
      </trkpt>
      <trkpt lat="44.13444" lon="6.11245">
        <ele>871</ele>
        <time>2022-03-03T09:10:07.000Z</time>
      </trkpt>
      <trkpt lat="44.13444" lon="6.11245">
        <ele>871</ele>
        <time>2022-03-03T09:10:08.000Z</time>
      </trkpt>
      <trkpt lat="44.13444" lon="6.11245">
        <ele>871</ele>
        <time>2022-03-03T09:10:09.000Z</time>
      </trkpt>
      <trkpt lat="44.13444" lon="6.11245">
        <ele>871</ele>
        <time>2022-03-03T09:10:10.000Z</time>
      </trkpt>
      <trkpt lat="44.13444" lon="6.11245">
        <ele>871</ele>
        <time>2022-03-03T09:10:11.000Z</time>
      </trkpt>
      <trkpt lat="44.13444" lon="6.11245">
        <ele>871</ele>
        <time>2022-03-03T09:10:12.000Z</time>
      </trkpt>
      <trkpt lat="44.13444" lon="6.11245">
        <ele>871</ele>
        <time>2022-03-03T09:10:13.000Z</time>
      </trkpt>
      <trkpt lat="44.13444" lon="6.11245">
        <ele>871</ele>
        <time>2022-03-03T09:10:14.000Z</time>
      </trkpt>
      <trkpt lat="44.13444" lon="6.11245">
        <ele>871</ele>
        <time>2022-03-03T09:10:15.000Z</time>
      </trkpt>
      <trkpt lat="44.13444" lon="6.11245">
        <ele>871</ele>
        <time>2022-03-03T09:10:16.000Z</time>
      </trkpt>
      <trkpt lat="44.13444" lon="6.11245">
        <ele>871</ele>
        <time>2022-03-03T09:10:17.000Z</time>
      </trkpt>
      <trkpt lat="44.13444" lon="6.11245">
        <ele>871</ele>
        <time>2022-03-03T09:10:18.000Z</time>
      </trkpt>
      <trkpt lat="44.13444" lon="6.11245">
        <ele>871</ele>
        <time>2022-03-03T09:10:19.000Z</time>
      </trkpt>
      <trkpt lat="44.13444" lon="6.11245">
        <ele>871</ele>
        <time>2022-03-03T09:10:20.000Z</time>
      </trkpt>
      <trkpt lat="44.13444" lon="6.11245">
        <ele>871</ele>
        <time>2022-03-03T09:10:21.000Z</time>
      </trkpt>
      <trkpt lat="44.13444" lon="6.11245">
        <ele>871</ele>
        <time>2022-03-03T09:10:22.000Z</time>
      </trkpt>
      <trkpt lat="44.13444" lon="6.11245">
        <ele>871</ele>
        <time>2022-03-03T09:10:23.000Z</time>
      </trkpt>
      <trkpt lat="44.13444" lon="6.11245">
        <ele>871</ele>
        <time>2022-03-03T09:10:24.000Z</time>
      </trkpt>
      <trkpt lat="44.13444" lon="6.11245">
        <ele>871</ele>
        <time>2022-03-03T09:10:25.000Z</time>
      </trkpt>
      <trkpt lat="44.13444" lon="6.11245">
        <ele>871</ele>
        <time>2022-03-03T09:10:26.000Z</time>
      </trkpt>
      <trkpt lat="44.13444" lon="6.11245">
        <ele>871</ele>
        <time>2022-03-03T09:10:27.000Z</time>
      </trkpt>
      <trkpt lat="44.13444" lon="6.11245">
        <ele>871</ele>
        <time>2022-03-03T09:10:28.000Z</time>
      </trkpt>
      <trkpt lat="44.13444" lon="6.11245">
        <ele>871</ele>
        <time>2022-03-03T09:10:29.000Z</time>
      </trkpt>
      <trkpt lat="44.13444" lon="6.11245">
        <ele>871</ele>
        <time>2022-03-03T09:10:30.000Z</time>
      </trkpt>
      <trkpt lat="44.13444" lon="6.11245">
        <ele>871</ele>
        <time>2022-03-03T09:10:31.000Z</time>
      </trkpt>
      <trkpt lat="44.13444" lon="6.11245">
        <ele>871</ele>
        <time>2022-03-03T09:10:32.000Z</time>
      </trkpt>
      <trkpt lat="44.13444" lon="6.11245">
        <ele>871</ele>
        <time>2022-03-03T09:10:33.000Z</time>
      </trkpt>
      <trkpt lat="44.13444" lon="6.11245">
        <ele>871</ele>
        <time>2022-03-03T09:10:34.000Z</time>
      </trkpt>
      <trkpt lat="44.13444" lon="6.11245">
        <ele>871</ele>
        <time>2022-03-03T09:10:35.000Z</time>
      </trkpt>
      <trkpt lat="44.13444" lon="6.11245">
        <ele>871</ele>
        <time>2022-03-03T09:10:36.000Z</time>
      </trkpt>
      <trkpt lat="44.13444" lon="6.11245">
        <ele>871</ele>
        <time>2022-03-03T09:10:37.000Z</time>
      </trkpt>
      <trkpt lat="44.13444" lon="6.11246">
        <ele>871</ele>
        <time>2022-03-03T09:10:38.000Z</time>
      </trkpt>
      <trkpt lat="44.13444" lon="6.11246">
        <ele>871</ele>
        <time>2022-03-03T09:10:39.000Z</time>
      </trkpt>
      <trkpt lat="44.13444" lon="6.11246">
        <ele>871</ele>
        <time>2022-03-03T09:10:40.000Z</time>
      </trkpt>
      <trkpt lat="44.13444" lon="6.11246">
        <ele>871</ele>
        <time>2022-03-03T09:10:41.000Z</time>
      </trkpt>
      <trkpt lat="44.13444" lon="6.11246">
        <ele>871</ele>
        <time>2022-03-03T09:10:42.000Z</time>
      </trkpt>
      <trkpt lat="44.13444" lon="6.11246">
        <ele>871</ele>
        <time>2022-03-03T09:10:43.000Z</time>
      </trkpt>
      <trkpt lat="44.13444" lon="6.11246">
        <ele>871</ele>
        <time>2022-03-03T09:10:44.000Z</time>
      </trkpt>
      <trkpt lat="44.13444" lon="6.11246">
        <ele>871</ele>
        <time>2022-03-03T09:10:45.000Z</time>
      </trkpt>
      <trkpt lat="44.13444" lon="6.11246">
        <ele>871</ele>
        <time>2022-03-03T09:10:46.000Z</time>
      </trkpt>
      <trkpt lat="44.13444" lon="6.11246">
        <ele>871</ele>
        <time>2022-03-03T09:10:47.000Z</time>
      </trkpt>
      <trkpt lat="44.13444" lon="6.11246">
        <ele>871</ele>
        <time>2022-03-03T09:10:48.000Z</time>
      </trkpt>
      <trkpt lat="44.13444" lon="6.11246">
        <ele>871</ele>
        <time>2022-03-03T09:10:49.000Z</time>
      </trkpt>
      <trkpt lat="44.13444" lon="6.11246">
        <ele>871</ele>
        <time>2022-03-03T09:10:50.000Z</time>
      </trkpt>
      <trkpt lat="44.13444" lon="6.11246">
        <ele>871</ele>
        <time>2022-03-03T09:10:51.000Z</time>
      </trkpt>
      <trkpt lat="44.13444" lon="6.11246">
        <ele>871</ele>
        <time>2022-03-03T09:10:52.000Z</time>
      </trkpt>
      <trkpt lat="44.13444" lon="6.11246">
        <ele>871</ele>
        <time>2022-03-03T09:10:53.000Z</time>
      </trkpt>
      <trkpt lat="44.13444" lon="6.11246">
        <ele>871</ele>
        <time>2022-03-03T09:10:54.000Z</time>
      </trkpt>
      <trkpt lat="44.13444" lon="6.11246">
        <ele>871</ele>
        <time>2022-03-03T09:10:55.000Z</time>
      </trkpt>
      <trkpt lat="44.13444" lon="6.11246">
        <ele>871</ele>
        <time>2022-03-03T09:10:56.000Z</time>
      </trkpt>
      <trkpt lat="44.13444" lon="6.11246">
        <ele>871</ele>
        <time>2022-03-03T09:10:57.000Z</time>
      </trkpt>
      <trkpt lat="44.13444" lon="6.11246">
        <ele>871</ele>
        <time>2022-03-03T09:10:58.000Z</time>
      </trkpt>
      <trkpt lat="44.13444" lon="6.11246">
        <ele>871</ele>
        <time>2022-03-03T09:10:59.000Z</time>
      </trkpt>
      <trkpt lat="44.13444" lon="6.11246">
        <ele>871</ele>
        <time>2022-03-03T09:11:00.000Z</time>
      </trkpt>
      <trkpt lat="44.13444" lon="6.11246">
        <ele>871</ele>
        <time>2022-03-03T09:11:01.000Z</time>
      </trkpt>
      <trkpt lat="44.13444" lon="6.11246">
        <ele>871</ele>
        <time>2022-03-03T09:11:02.000Z</time>
      </trkpt>
      <trkpt lat="44.13444" lon="6.11246">
        <ele>871</ele>
        <time>2022-03-03T09:11:03.000Z</time>
      </trkpt>
      <trkpt lat="44.13444" lon="6.11246">
        <ele>871</ele>
        <time>2022-03-03T09:11:04.000Z</time>
      </trkpt>
      <trkpt lat="44.13444" lon="6.11246">
        <ele>871</ele>
        <time>2022-03-03T09:11:05.000Z</time>
      </trkpt>
      <trkpt lat="44.13444" lon="6.11246">
        <ele>872</ele>
        <time>2022-03-03T09:11:06.000Z</time>
      </trkpt>
      <trkpt lat="44.13445" lon="6.11246">
        <ele>872</ele>
        <time>2022-03-03T09:11:07.000Z</time>
      </trkpt>
      <trkpt lat="44.13445" lon="6.11246">
        <ele>872</ele>
        <time>2022-03-03T09:11:08.000Z</time>
      </trkpt>
      <trkpt lat="44.13445" lon="6.11246">
        <ele>872</ele>
        <time>2022-03-03T09:11:09.000Z</time>
      </trkpt>
      <trkpt lat="44.13444" lon="6.11246">
        <ele>872</ele>
        <time>2022-03-03T09:11:10.000Z</time>
      </trkpt>
      <trkpt lat="44.13445" lon="6.11246">
        <ele>872</ele>
        <time>2022-03-03T09:11:11.000Z</time>
      </trkpt>
      <trkpt lat="44.13445" lon="6.11246">
        <ele>872</ele>
        <time>2022-03-03T09:11:12.000Z</time>
      </trkpt>
      <trkpt lat="44.13445" lon="6.11246">
        <ele>872</ele>
        <time>2022-03-03T09:11:13.000Z</time>
      </trkpt>
      <trkpt lat="44.13445" lon="6.11246">
        <ele>872</ele>
        <time>2022-03-03T09:11:14.000Z</time>
      </trkpt>
      <trkpt lat="44.13445" lon="6.11246">
        <ele>872</ele>
        <time>2022-03-03T09:11:15.000Z</time>
      </trkpt>
      <trkpt lat="44.13445" lon="6.11246">
        <ele>872</ele>
        <time>2022-03-03T09:11:16.000Z</time>
      </trkpt>
      <trkpt lat="44.13445" lon="6.11246">
        <ele>872</ele>
        <time>2022-03-03T09:11:17.000Z</time>
      </trkpt>
      <trkpt lat="44.13445" lon="6.11246">
        <ele>872</ele>
        <time>2022-03-03T09:11:18.000Z</time>
      </trkpt>
      <trkpt lat="44.13444" lon="6.11246">
        <ele>872</ele>
        <time>2022-03-03T09:11:19.000Z</time>
      </trkpt>
      <trkpt lat="44.13444" lon="6.11246">
        <ele>872</ele>
        <time>2022-03-03T09:11:20.000Z</time>
      </trkpt>
      <trkpt lat="44.13444" lon="6.11246">
        <ele>872</ele>
        <time>2022-03-03T09:11:21.000Z</time>
      </trkpt>
      <trkpt lat="44.13444" lon="6.11246">
        <ele>872</ele>
        <time>2022-03-03T09:11:22.000Z</time>
      </trkpt>
      <trkpt lat="44.13444" lon="6.11246">
        <ele>872</ele>
        <time>2022-03-03T09:11:23.000Z</time>
      </trkpt>
      <trkpt lat="44.13444" lon="6.11246">
        <ele>872</ele>
        <time>2022-03-03T09:11:24.000Z</time>
      </trkpt>
      <trkpt lat="44.13444" lon="6.11246">
        <ele>872</ele>
        <time>2022-03-03T09:11:25.000Z</time>
      </trkpt>
      <trkpt lat="44.13445" lon="6.11246">
        <ele>872</ele>
        <time>2022-03-03T09:11:26.000Z</time>
      </trkpt>
      <trkpt lat="44.13445" lon="6.11247">
        <ele>872</ele>
        <time>2022-03-03T09:11:27.000Z</time>
      </trkpt>
      <trkpt lat="44.13444" lon="6.11247">
        <ele>872</ele>
        <time>2022-03-03T09:11:28.000Z</time>
      </trkpt>
      <trkpt lat="44.13444" lon="6.11247">
        <ele>872</ele>
        <time>2022-03-03T09:11:29.000Z</time>
      </trkpt>
      <trkpt lat="44.13444" lon="6.11246">
        <ele>872</ele>
        <time>2022-03-03T09:11:30.000Z</time>
      </trkpt>
      <trkpt lat="44.13444" lon="6.11246">
        <ele>872</ele>
        <time>2022-03-03T09:11:31.000Z</time>
      </trkpt>
      <trkpt lat="44.13444" lon="6.11246">
        <ele>872</ele>
        <time>2022-03-03T09:11:32.000Z</time>
      </trkpt>
      <trkpt lat="44.13444" lon="6.11247">
        <ele>872</ele>
        <time>2022-03-03T09:11:33.000Z</time>
      </trkpt>
      <trkpt lat="44.13444" lon="6.11247">
        <ele>872</ele>
        <time>2022-03-03T09:11:34.000Z</time>
      </trkpt>
      <trkpt lat="44.13444" lon="6.11247">
        <ele>872</ele>
        <time>2022-03-03T09:11:35.000Z</time>
      </trkpt>
      <trkpt lat="44.13444" lon="6.11246">
        <ele>872</ele>
        <time>2022-03-03T09:11:36.000Z</time>
      </trkpt>
      <trkpt lat="44.13444" lon="6.11246">
        <ele>872</ele>
        <time>2022-03-03T09:11:37.000Z</time>
      </trkpt>
      <trkpt lat="44.13444" lon="6.11246">
        <ele>872</ele>
        <time>2022-03-03T09:11:38.000Z</time>
      </trkpt>
      <trkpt lat="44.13444" lon="6.11246">
        <ele>872</ele>
        <time>2022-03-03T09:11:39.000Z</time>
      </trkpt>
      <trkpt lat="44.13444" lon="6.11246">
        <ele>872</ele>
        <time>2022-03-03T09:11:40.000Z</time>
      </trkpt>
      <trkpt lat="44.13445" lon="6.11247">
        <ele>872</ele>
        <time>2022-03-03T09:11:41.000Z</time>
      </trkpt>
      <trkpt lat="44.13446" lon="6.11247">
        <ele>872</ele>
        <time>2022-03-03T09:11:42.000Z</time>
      </trkpt>
      <trkpt lat="44.13447" lon="6.11248">
        <ele>872</ele>
        <time>2022-03-03T09:11:43.000Z</time>
      </trkpt>
      <trkpt lat="44.13447" lon="6.11248">
        <ele>872</ele>
        <time>2022-03-03T09:11:44.000Z</time>
      </trkpt>
      <trkpt lat="44.13448" lon="6.11249">
        <ele>872</ele>
        <time>2022-03-03T09:11:45.000Z</time>
      </trkpt>
      <trkpt lat="44.13449" lon="6.11249">
        <ele>872</ele>
        <time>2022-03-03T09:11:46.000Z</time>
      </trkpt>
      <trkpt lat="44.1345" lon="6.11249">
        <ele>872</ele>
        <time>2022-03-03T09:11:47.000Z</time>
      </trkpt>
      <trkpt lat="44.13451" lon="6.1125">
        <ele>872</ele>
        <time>2022-03-03T09:11:48.000Z</time>
      </trkpt>
      <trkpt lat="44.13452" lon="6.1125">
        <ele>872</ele>
        <time>2022-03-03T09:11:49.000Z</time>
      </trkpt>
      <trkpt lat="44.13453" lon="6.11251">
        <ele>872</ele>
        <time>2022-03-03T09:11:50.000Z</time>
      </trkpt>
      <trkpt lat="44.13454" lon="6.11251">
        <ele>872</ele>
        <time>2022-03-03T09:11:51.000Z</time>
      </trkpt>
      <trkpt lat="44.13455" lon="6.11252">
        <ele>872</ele>
        <time>2022-03-03T09:11:52.000Z</time>
      </trkpt>
      <trkpt lat="44.13455" lon="6.11252">
        <ele>872</ele>
        <time>2022-03-03T09:11:53.000Z</time>
      </trkpt>
      <trkpt lat="44.13456" lon="6.11252">
        <ele>872</ele>
        <time>2022-03-03T09:11:54.000Z</time>
      </trkpt>
      <trkpt lat="44.13457" lon="6.11253">
        <ele>872</ele>
        <time>2022-03-03T09:11:55.000Z</time>
      </trkpt>
      <trkpt lat="44.13458" lon="6.11253">
        <ele>872</ele>
        <time>2022-03-03T09:11:56.000Z</time>
      </trkpt>
      <trkpt lat="44.13459" lon="6.11253">
        <ele>872</ele>
        <time>2022-03-03T09:11:57.000Z</time>
      </trkpt>
      <trkpt lat="44.1346" lon="6.11253">
        <ele>872</ele>
        <time>2022-03-03T09:11:58.000Z</time>
      </trkpt>
      <trkpt lat="44.1346" lon="6.11253">
        <ele>872</ele>
        <time>2022-03-03T09:11:59.000Z</time>
      </trkpt>
      <trkpt lat="44.13461" lon="6.11253">
        <ele>872</ele>
        <time>2022-03-03T09:12:00.000Z</time>
      </trkpt>
      <trkpt lat="44.13462" lon="6.11253">
        <ele>872</ele>
        <time>2022-03-03T09:12:01.000Z</time>
      </trkpt>
      <trkpt lat="44.13463" lon="6.11253">
        <ele>872</ele>
        <time>2022-03-03T09:12:02.000Z</time>
      </trkpt>
      <trkpt lat="44.13464" lon="6.11253">
        <ele>872</ele>
        <time>2022-03-03T09:12:03.000Z</time>
      </trkpt>
      <trkpt lat="44.13465" lon="6.11253">
        <ele>872</ele>
        <time>2022-03-03T09:12:04.000Z</time>
      </trkpt>
      <trkpt lat="44.13466" lon="6.11252">
        <ele>872</ele>
        <time>2022-03-03T09:12:05.000Z</time>
      </trkpt>
      <trkpt lat="44.13467" lon="6.11252">
        <ele>872</ele>
        <time>2022-03-03T09:12:06.000Z</time>
      </trkpt>
      <trkpt lat="44.13468" lon="6.11252">
        <ele>872</ele>
        <time>2022-03-03T09:12:07.000Z</time>
      </trkpt>
      <trkpt lat="44.13469" lon="6.11251">
        <ele>872</ele>
        <time>2022-03-03T09:12:08.000Z</time>
      </trkpt>
      <trkpt lat="44.1347" lon="6.11251">
        <ele>872</ele>
        <time>2022-03-03T09:12:09.000Z</time>
      </trkpt>
      <trkpt lat="44.13471" lon="6.11251">
        <ele>872</ele>
        <time>2022-03-03T09:12:10.000Z</time>
      </trkpt>
      <trkpt lat="44.13471" lon="6.11251">
        <ele>872</ele>
        <time>2022-03-03T09:12:11.000Z</time>
      </trkpt>
      <trkpt lat="44.13472" lon="6.11251">
        <ele>872</ele>
        <time>2022-03-03T09:12:12.000Z</time>
      </trkpt>
      <trkpt lat="44.13473" lon="6.1125">
        <ele>872</ele>
        <time>2022-03-03T09:12:13.000Z</time>
      </trkpt>
      <trkpt lat="44.13474" lon="6.11251">
        <ele>873</ele>
        <time>2022-03-03T09:12:14.000Z</time>
      </trkpt>
      <trkpt lat="44.13475" lon="6.1125">
        <ele>873</ele>
        <time>2022-03-03T09:12:15.000Z</time>
      </trkpt>
      <trkpt lat="44.13476" lon="6.1125">
        <ele>873</ele>
        <time>2022-03-03T09:12:16.000Z</time>
      </trkpt>
      <trkpt lat="44.13476" lon="6.1125">
        <ele>873</ele>
        <time>2022-03-03T09:12:17.000Z</time>
      </trkpt>
      <trkpt lat="44.13477" lon="6.1125">
        <ele>873</ele>
        <time>2022-03-03T09:12:18.000Z</time>
      </trkpt>
      <trkpt lat="44.13477" lon="6.1125">
        <ele>873</ele>
        <time>2022-03-03T09:12:19.000Z</time>
      </trkpt>
      <trkpt lat="44.13478" lon="6.1125">
        <ele>873</ele>
        <time>2022-03-03T09:12:20.000Z</time>
      </trkpt>
      <trkpt lat="44.13479" lon="6.1125">
        <ele>874</ele>
        <time>2022-03-03T09:12:21.000Z</time>
      </trkpt>
      <trkpt lat="44.1348" lon="6.11249">
        <ele>874</ele>
        <time>2022-03-03T09:12:22.000Z</time>
      </trkpt>
      <trkpt lat="44.1348" lon="6.11249">
        <ele>874</ele>
        <time>2022-03-03T09:12:23.000Z</time>
      </trkpt>
      <trkpt lat="44.13481" lon="6.11249">
        <ele>874</ele>
        <time>2022-03-03T09:12:24.000Z</time>
      </trkpt>
      <trkpt lat="44.13482" lon="6.11248">
        <ele>874</ele>
        <time>2022-03-03T09:12:25.000Z</time>
      </trkpt>
      <trkpt lat="44.13483" lon="6.11248">
        <ele>874</ele>
        <time>2022-03-03T09:12:26.000Z</time>
      </trkpt>
      <trkpt lat="44.13483" lon="6.11248">
        <ele>874</ele>
        <time>2022-03-03T09:12:27.000Z</time>
      </trkpt>
      <trkpt lat="44.13484" lon="6.11247">
        <ele>874</ele>
        <time>2022-03-03T09:12:28.000Z</time>
      </trkpt>
      <trkpt lat="44.13485" lon="6.11246">
        <ele>874</ele>
        <time>2022-03-03T09:12:29.000Z</time>
      </trkpt>
      <trkpt lat="44.13486" lon="6.11246">
        <ele>874</ele>
        <time>2022-03-03T09:12:30.000Z</time>
      </trkpt>
      <trkpt lat="44.13487" lon="6.11246">
        <ele>874</ele>
        <time>2022-03-03T09:12:31.000Z</time>
      </trkpt>
      <trkpt lat="44.13487" lon="6.11246">
        <ele>874</ele>
        <time>2022-03-03T09:12:32.000Z</time>
      </trkpt>
      <trkpt lat="44.13488" lon="6.11246">
        <ele>874</ele>
        <time>2022-03-03T09:12:33.000Z</time>
      </trkpt>
      <trkpt lat="44.13489" lon="6.11246">
        <ele>874</ele>
        <time>2022-03-03T09:12:34.000Z</time>
      </trkpt>
      <trkpt lat="44.1349" lon="6.11246">
        <ele>874</ele>
        <time>2022-03-03T09:12:35.000Z</time>
      </trkpt>
      <trkpt lat="44.13491" lon="6.11246">
        <ele>875</ele>
        <time>2022-03-03T09:12:36.000Z</time>
      </trkpt>
      <trkpt lat="44.13492" lon="6.11245">
        <ele>875</ele>
        <time>2022-03-03T09:12:37.000Z</time>
      </trkpt>
      <trkpt lat="44.13493" lon="6.11245">
        <ele>875</ele>
        <time>2022-03-03T09:12:38.000Z</time>
      </trkpt>
      <trkpt lat="44.13494" lon="6.11245">
        <ele>875</ele>
        <time>2022-03-03T09:12:39.000Z</time>
      </trkpt>
      <trkpt lat="44.13495" lon="6.11244">
        <ele>875</ele>
        <time>2022-03-03T09:12:40.000Z</time>
      </trkpt>
      <trkpt lat="44.13496" lon="6.11244">
        <ele>875</ele>
        <time>2022-03-03T09:12:41.000Z</time>
      </trkpt>
      <trkpt lat="44.13497" lon="6.11244">
        <ele>875</ele>
        <time>2022-03-03T09:12:42.000Z</time>
      </trkpt>
      <trkpt lat="44.13498" lon="6.11243">
        <ele>875</ele>
        <time>2022-03-03T09:12:43.000Z</time>
      </trkpt>
      <trkpt lat="44.13499" lon="6.11243">
        <ele>875</ele>
        <time>2022-03-03T09:12:44.000Z</time>
      </trkpt>
      <trkpt lat="44.13499" lon="6.11243">
        <ele>875</ele>
        <time>2022-03-03T09:12:45.000Z</time>
      </trkpt>
      <trkpt lat="44.135" lon="6.11243">
        <ele>875</ele>
        <time>2022-03-03T09:12:46.000Z</time>
      </trkpt>
      <trkpt lat="44.13501" lon="6.11242">
        <ele>875</ele>
        <time>2022-03-03T09:12:47.000Z</time>
      </trkpt>
      <trkpt lat="44.13502" lon="6.11242">
        <ele>875</ele>
        <time>2022-03-03T09:12:48.000Z</time>
      </trkpt>
      <trkpt lat="44.13503" lon="6.11241">
        <ele>875</ele>
        <time>2022-03-03T09:12:49.000Z</time>
      </trkpt>
      <trkpt lat="44.13504" lon="6.11241">
        <ele>875</ele>
        <time>2022-03-03T09:12:50.000Z</time>
      </trkpt>
      <trkpt lat="44.13505" lon="6.11241">
        <ele>875</ele>
        <time>2022-03-03T09:12:51.000Z</time>
      </trkpt>
      <trkpt lat="44.13505" lon="6.1124">
        <ele>875</ele>
        <time>2022-03-03T09:12:52.000Z</time>
      </trkpt>
      <trkpt lat="44.13506" lon="6.1124">
        <ele>876</ele>
        <time>2022-03-03T09:12:53.000Z</time>
      </trkpt>
      <trkpt lat="44.13507" lon="6.1124">
        <ele>876</ele>
        <time>2022-03-03T09:12:54.000Z</time>
      </trkpt>
      <trkpt lat="44.13508" lon="6.11239">
        <ele>876</ele>
        <time>2022-03-03T09:12:55.000Z</time>
      </trkpt>
      <trkpt lat="44.13509" lon="6.11239">
        <ele>876</ele>
        <time>2022-03-03T09:12:56.000Z</time>
      </trkpt>
      <trkpt lat="44.1351" lon="6.11239">
        <ele>876</ele>
        <time>2022-03-03T09:12:57.000Z</time>
      </trkpt>
      <trkpt lat="44.13511" lon="6.11239">
        <ele>876</ele>
        <time>2022-03-03T09:12:58.000Z</time>
      </trkpt>
      <trkpt lat="44.13512" lon="6.11238">
        <ele>876</ele>
        <time>2022-03-03T09:12:59.000Z</time>
      </trkpt>
      <trkpt lat="44.13513" lon="6.11238">
        <ele>876</ele>
        <time>2022-03-03T09:13:00.000Z</time>
      </trkpt>
      <trkpt lat="44.13514" lon="6.11238">
        <ele>876</ele>
        <time>2022-03-03T09:13:01.000Z</time>
      </trkpt>
      <trkpt lat="44.13515" lon="6.11237">
        <ele>877</ele>
        <time>2022-03-03T09:13:02.000Z</time>
      </trkpt>
      <trkpt lat="44.13516" lon="6.11237">
        <ele>877</ele>
        <time>2022-03-03T09:13:03.000Z</time>
      </trkpt>
      <trkpt lat="44.13517" lon="6.11237">
        <ele>877</ele>
        <time>2022-03-03T09:13:04.000Z</time>
      </trkpt>
      <trkpt lat="44.13518" lon="6.11236">
        <ele>877</ele>
        <time>2022-03-03T09:13:05.000Z</time>
      </trkpt>
      <trkpt lat="44.13519" lon="6.11236">
        <ele>877</ele>
        <time>2022-03-03T09:13:06.000Z</time>
      </trkpt>
      <trkpt lat="44.13519" lon="6.11236">
        <ele>877</ele>
        <time>2022-03-03T09:13:07.000Z</time>
      </trkpt>
      <trkpt lat="44.1352" lon="6.11235">
        <ele>877</ele>
        <time>2022-03-03T09:13:08.000Z</time>
      </trkpt>
      <trkpt lat="44.13521" lon="6.11235">
        <ele>877</ele>
        <time>2022-03-03T09:13:09.000Z</time>
      </trkpt>
      <trkpt lat="44.13522" lon="6.11235">
        <ele>877</ele>
        <time>2022-03-03T09:13:10.000Z</time>
      </trkpt>
      <trkpt lat="44.13523" lon="6.11234">
        <ele>877</ele>
        <time>2022-03-03T09:13:11.000Z</time>
      </trkpt>
      <trkpt lat="44.13524" lon="6.11234">
        <ele>878</ele>
        <time>2022-03-03T09:13:12.000Z</time>
      </trkpt>
      <trkpt lat="44.13525" lon="6.11234">
        <ele>878</ele>
        <time>2022-03-03T09:13:13.000Z</time>
      </trkpt>
      <trkpt lat="44.13526" lon="6.11234">
        <ele>878</ele>
        <time>2022-03-03T09:13:14.000Z</time>
      </trkpt>
      <trkpt lat="44.13527" lon="6.11233">
        <ele>878</ele>
        <time>2022-03-03T09:13:15.000Z</time>
      </trkpt>
      <trkpt lat="44.13528" lon="6.11233">
        <ele>878</ele>
        <time>2022-03-03T09:13:16.000Z</time>
      </trkpt>
      <trkpt lat="44.13528" lon="6.11233">
        <ele>878</ele>
        <time>2022-03-03T09:13:17.000Z</time>
      </trkpt>
      <trkpt lat="44.13529" lon="6.11232">
        <ele>878</ele>
        <time>2022-03-03T09:13:18.000Z</time>
      </trkpt>
      <trkpt lat="44.1353" lon="6.11232">
        <ele>878</ele>
        <time>2022-03-03T09:13:19.000Z</time>
      </trkpt>
      <trkpt lat="44.13531" lon="6.11231">
        <ele>878</ele>
        <time>2022-03-03T09:13:20.000Z</time>
      </trkpt>
      <trkpt lat="44.13532" lon="6.11231">
        <ele>878</ele>
        <time>2022-03-03T09:13:21.000Z</time>
      </trkpt>
      <trkpt lat="44.13533" lon="6.1123">
        <ele>878</ele>
        <time>2022-03-03T09:13:22.000Z</time>
      </trkpt>
      <trkpt lat="44.13534" lon="6.11229">
        <ele>878</ele>
        <time>2022-03-03T09:13:23.000Z</time>
      </trkpt>
      <trkpt lat="44.13535" lon="6.11229">
        <ele>879</ele>
        <time>2022-03-03T09:13:24.000Z</time>
      </trkpt>
      <trkpt lat="44.13536" lon="6.11228">
        <ele>879</ele>
        <time>2022-03-03T09:13:25.000Z</time>
      </trkpt>
      <trkpt lat="44.13536" lon="6.11228">
        <ele>879</ele>
        <time>2022-03-03T09:13:26.000Z</time>
      </trkpt>
      <trkpt lat="44.13537" lon="6.11227">
        <ele>879</ele>
        <time>2022-03-03T09:13:27.000Z</time>
      </trkpt>
      <trkpt lat="44.13538" lon="6.11227">
        <ele>879</ele>
        <time>2022-03-03T09:13:28.000Z</time>
      </trkpt>
      <trkpt lat="44.13539" lon="6.11226">
        <ele>879</ele>
        <time>2022-03-03T09:13:29.000Z</time>
      </trkpt>
      <trkpt lat="44.1354" lon="6.11226">
        <ele>879</ele>
        <time>2022-03-03T09:13:30.000Z</time>
      </trkpt>
      <trkpt lat="44.13541" lon="6.11225">
        <ele>879</ele>
        <time>2022-03-03T09:13:31.000Z</time>
      </trkpt>
      <trkpt lat="44.13542" lon="6.11225">
        <ele>879</ele>
        <time>2022-03-03T09:13:32.000Z</time>
      </trkpt>
      <trkpt lat="44.13543" lon="6.11224">
        <ele>879</ele>
        <time>2022-03-03T09:13:33.000Z</time>
      </trkpt>
      <trkpt lat="44.13544" lon="6.11224">
        <ele>879</ele>
        <time>2022-03-03T09:13:34.000Z</time>
      </trkpt>
      <trkpt lat="44.13545" lon="6.11223">
        <ele>879</ele>
        <time>2022-03-03T09:13:35.000Z</time>
      </trkpt>
      <trkpt lat="44.13545" lon="6.11223">
        <ele>879</ele>
        <time>2022-03-03T09:13:36.000Z</time>
      </trkpt>
      <trkpt lat="44.13546" lon="6.11222">
        <ele>880</ele>
        <time>2022-03-03T09:13:37.000Z</time>
      </trkpt>
      <trkpt lat="44.13547" lon="6.11222">
        <ele>880</ele>
        <time>2022-03-03T09:13:38.000Z</time>
      </trkpt>
      <trkpt lat="44.13548" lon="6.11221">
        <ele>880</ele>
        <time>2022-03-03T09:13:39.000Z</time>
      </trkpt>
      <trkpt lat="44.13549" lon="6.1122">
        <ele>880</ele>
        <time>2022-03-03T09:13:40.000Z</time>
      </trkpt>
      <trkpt lat="44.1355" lon="6.1122">
        <ele>880</ele>
        <time>2022-03-03T09:13:41.000Z</time>
      </trkpt>
      <trkpt lat="44.1355" lon="6.11219">
        <ele>880</ele>
        <time>2022-03-03T09:13:42.000Z</time>
      </trkpt>
      <trkpt lat="44.13551" lon="6.11219">
        <ele>880</ele>
        <time>2022-03-03T09:13:43.000Z</time>
      </trkpt>
      <trkpt lat="44.13552" lon="6.11218">
        <ele>880</ele>
        <time>2022-03-03T09:13:44.000Z</time>
      </trkpt>
      <trkpt lat="44.13553" lon="6.11218">
        <ele>880</ele>
        <time>2022-03-03T09:13:45.000Z</time>
      </trkpt>
      <trkpt lat="44.13554" lon="6.11217">
        <ele>880</ele>
        <time>2022-03-03T09:13:46.000Z</time>
      </trkpt>
      <trkpt lat="44.13555" lon="6.11216">
        <ele>880</ele>
        <time>2022-03-03T09:13:47.000Z</time>
      </trkpt>
      <trkpt lat="44.13555" lon="6.11216">
        <ele>880</ele>
        <time>2022-03-03T09:13:48.000Z</time>
      </trkpt>
      <trkpt lat="44.13556" lon="6.11215">
        <ele>880</ele>
        <time>2022-03-03T09:13:49.000Z</time>
      </trkpt>
      <trkpt lat="44.13557" lon="6.11214">
        <ele>881</ele>
        <time>2022-03-03T09:13:50.000Z</time>
      </trkpt>
      <trkpt lat="44.13558" lon="6.11213">
        <ele>881</ele>
        <time>2022-03-03T09:13:51.000Z</time>
      </trkpt>
      <trkpt lat="44.13558" lon="6.11213">
        <ele>881</ele>
        <time>2022-03-03T09:13:52.000Z</time>
      </trkpt>
      <trkpt lat="44.1356" lon="6.11212">
        <ele>881</ele>
        <time>2022-03-03T09:13:53.000Z</time>
      </trkpt>
      <trkpt lat="44.13561" lon="6.11212">
        <ele>881</ele>
        <time>2022-03-03T09:13:54.000Z</time>
      </trkpt>
      <trkpt lat="44.13561" lon="6.11212">
        <ele>881</ele>
        <time>2022-03-03T09:13:55.000Z</time>
      </trkpt>
      <trkpt lat="44.13562" lon="6.11211">
        <ele>881</ele>
        <time>2022-03-03T09:13:56.000Z</time>
      </trkpt>
      <trkpt lat="44.13563" lon="6.11211">
        <ele>881</ele>
        <time>2022-03-03T09:13:57.000Z</time>
      </trkpt>
      <trkpt lat="44.13564" lon="6.1121">
        <ele>881</ele>
        <time>2022-03-03T09:13:58.000Z</time>
      </trkpt>
      <trkpt lat="44.13565" lon="6.1121">
        <ele>881</ele>
        <time>2022-03-03T09:13:59.000Z</time>
      </trkpt>
      <trkpt lat="44.13566" lon="6.11209">
        <ele>881</ele>
        <time>2022-03-03T09:14:00.000Z</time>
      </trkpt>
      <trkpt lat="44.13567" lon="6.11208">
        <ele>881</ele>
        <time>2022-03-03T09:14:01.000Z</time>
      </trkpt>
      <trkpt lat="44.13567" lon="6.11208">
        <ele>881</ele>
        <time>2022-03-03T09:14:02.000Z</time>
      </trkpt>
      <trkpt lat="44.13568" lon="6.11207">
        <ele>881</ele>
        <time>2022-03-03T09:14:03.000Z</time>
      </trkpt>
      <trkpt lat="44.13569" lon="6.11206">
        <ele>881</ele>
        <time>2022-03-03T09:14:04.000Z</time>
      </trkpt>
      <trkpt lat="44.1357" lon="6.11206">
        <ele>881</ele>
        <time>2022-03-03T09:14:05.000Z</time>
      </trkpt>
      <trkpt lat="44.13571" lon="6.11205">
        <ele>881</ele>
        <time>2022-03-03T09:14:06.000Z</time>
      </trkpt>
      <trkpt lat="44.13572" lon="6.11204">
        <ele>882</ele>
        <time>2022-03-03T09:14:07.000Z</time>
      </trkpt>
      <trkpt lat="44.13572" lon="6.11204">
        <ele>882</ele>
        <time>2022-03-03T09:14:08.000Z</time>
      </trkpt>
      <trkpt lat="44.13573" lon="6.11203">
        <ele>882</ele>
        <time>2022-03-03T09:14:09.000Z</time>
      </trkpt>
      <trkpt lat="44.13574" lon="6.11202">
        <ele>882</ele>
        <time>2022-03-03T09:14:10.000Z</time>
      </trkpt>
      <trkpt lat="44.13575" lon="6.11202">
        <ele>882</ele>
        <time>2022-03-03T09:14:11.000Z</time>
      </trkpt>
      <trkpt lat="44.13576" lon="6.11201">
        <ele>882</ele>
        <time>2022-03-03T09:14:12.000Z</time>
      </trkpt>
      <trkpt lat="44.13577" lon="6.112">
        <ele>882</ele>
        <time>2022-03-03T09:14:13.000Z</time>
      </trkpt>
      <trkpt lat="44.13578" lon="6.112">
        <ele>882</ele>
        <time>2022-03-03T09:14:14.000Z</time>
      </trkpt>
      <trkpt lat="44.13578" lon="6.11199">
        <ele>882</ele>
        <time>2022-03-03T09:14:15.000Z</time>
      </trkpt>
      <trkpt lat="44.13579" lon="6.11198">
        <ele>882</ele>
        <time>2022-03-03T09:14:16.000Z</time>
      </trkpt>
      <trkpt lat="44.1358" lon="6.11198">
        <ele>882</ele>
        <time>2022-03-03T09:14:17.000Z</time>
      </trkpt>
      <trkpt lat="44.13581" lon="6.11197">
        <ele>882</ele>
        <time>2022-03-03T09:14:18.000Z</time>
      </trkpt>
      <trkpt lat="44.13582" lon="6.11196">
        <ele>882</ele>
        <time>2022-03-03T09:14:19.000Z</time>
      </trkpt>
      <trkpt lat="44.13583" lon="6.11196">
        <ele>882</ele>
        <time>2022-03-03T09:14:20.000Z</time>
      </trkpt>
      <trkpt lat="44.13583" lon="6.11195">
        <ele>882</ele>
        <time>2022-03-03T09:14:21.000Z</time>
      </trkpt>
      <trkpt lat="44.13584" lon="6.11194">
        <ele>883</ele>
        <time>2022-03-03T09:14:22.000Z</time>
      </trkpt>
      <trkpt lat="44.13585" lon="6.11193">
        <ele>883</ele>
        <time>2022-03-03T09:14:23.000Z</time>
      </trkpt>
      <trkpt lat="44.13586" lon="6.11193">
        <ele>883</ele>
        <time>2022-03-03T09:14:24.000Z</time>
      </trkpt>
      <trkpt lat="44.13587" lon="6.11192">
        <ele>883</ele>
        <time>2022-03-03T09:14:25.000Z</time>
      </trkpt>
      <trkpt lat="44.13587" lon="6.1119">
        <ele>883</ele>
        <time>2022-03-03T09:14:26.000Z</time>
      </trkpt>
      <trkpt lat="44.13588" lon="6.1119">
        <ele>883</ele>
        <time>2022-03-03T09:14:27.000Z</time>
      </trkpt>
      <trkpt lat="44.13588" lon="6.11189">
        <ele>883</ele>
        <time>2022-03-03T09:14:28.000Z</time>
      </trkpt>
      <trkpt lat="44.13589" lon="6.11188">
        <ele>883</ele>
        <time>2022-03-03T09:14:29.000Z</time>
      </trkpt>
      <trkpt lat="44.1359" lon="6.11187">
        <ele>883</ele>
        <time>2022-03-03T09:14:30.000Z</time>
      </trkpt>
      <trkpt lat="44.13591" lon="6.11187">
        <ele>883</ele>
        <time>2022-03-03T09:14:31.000Z</time>
      </trkpt>
      <trkpt lat="44.13592" lon="6.11186">
        <ele>883</ele>
        <time>2022-03-03T09:14:32.000Z</time>
      </trkpt>
      <trkpt lat="44.13593" lon="6.11185">
        <ele>884</ele>
        <time>2022-03-03T09:14:33.000Z</time>
      </trkpt>
      <trkpt lat="44.13593" lon="6.11184">
        <ele>884</ele>
        <time>2022-03-03T09:14:34.000Z</time>
      </trkpt>
      <trkpt lat="44.13594" lon="6.11183">
        <ele>884</ele>
        <time>2022-03-03T09:14:35.000Z</time>
      </trkpt>
      <trkpt lat="44.13595" lon="6.11182">
        <ele>884</ele>
        <time>2022-03-03T09:14:36.000Z</time>
      </trkpt>
      <trkpt lat="44.13596" lon="6.11181">
        <ele>884</ele>
        <time>2022-03-03T09:14:37.000Z</time>
      </trkpt>
      <trkpt lat="44.13596" lon="6.1118">
        <ele>884</ele>
        <time>2022-03-03T09:14:38.000Z</time>
      </trkpt>
      <trkpt lat="44.13597" lon="6.11179">
        <ele>884</ele>
        <time>2022-03-03T09:14:39.000Z</time>
      </trkpt>
      <trkpt lat="44.13598" lon="6.11178">
        <ele>885</ele>
        <time>2022-03-03T09:14:40.000Z</time>
      </trkpt>
      <trkpt lat="44.13598" lon="6.11177">
        <ele>885</ele>
        <time>2022-03-03T09:14:41.000Z</time>
      </trkpt>
      <trkpt lat="44.13599" lon="6.11176">
        <ele>885</ele>
        <time>2022-03-03T09:14:42.000Z</time>
      </trkpt>
      <trkpt lat="44.136" lon="6.11176">
        <ele>885</ele>
        <time>2022-03-03T09:14:43.000Z</time>
      </trkpt>
      <trkpt lat="44.13601" lon="6.11175">
        <ele>885</ele>
        <time>2022-03-03T09:14:44.000Z</time>
      </trkpt>
      <trkpt lat="44.13602" lon="6.11174">
        <ele>885</ele>
        <time>2022-03-03T09:14:45.000Z</time>
      </trkpt>
      <trkpt lat="44.13603" lon="6.11173">
        <ele>885</ele>
        <time>2022-03-03T09:14:46.000Z</time>
      </trkpt>
      <trkpt lat="44.13603" lon="6.11173">
        <ele>885</ele>
        <time>2022-03-03T09:14:47.000Z</time>
      </trkpt>
      <trkpt lat="44.13604" lon="6.11171">
        <ele>885</ele>
        <time>2022-03-03T09:14:48.000Z</time>
      </trkpt>
      <trkpt lat="44.13605" lon="6.1117">
        <ele>885</ele>
        <time>2022-03-03T09:14:49.000Z</time>
      </trkpt>
      <trkpt lat="44.13606" lon="6.1117">
        <ele>885</ele>
        <time>2022-03-03T09:14:50.000Z</time>
      </trkpt>
      <trkpt lat="44.13606" lon="6.11169">
        <ele>885</ele>
        <time>2022-03-03T09:14:51.000Z</time>
      </trkpt>
      <trkpt lat="44.13607" lon="6.11168">
        <ele>885</ele>
        <time>2022-03-03T09:14:52.000Z</time>
      </trkpt>
      <trkpt lat="44.13608" lon="6.11167">
        <ele>885</ele>
        <time>2022-03-03T09:14:53.000Z</time>
      </trkpt>
      <trkpt lat="44.13608" lon="6.11166">
        <ele>885</ele>
        <time>2022-03-03T09:14:54.000Z</time>
      </trkpt>
      <trkpt lat="44.13609" lon="6.11165">
        <ele>885</ele>
        <time>2022-03-03T09:14:55.000Z</time>
      </trkpt>
      <trkpt lat="44.1361" lon="6.11164">
        <ele>885</ele>
        <time>2022-03-03T09:14:56.000Z</time>
      </trkpt>
      <trkpt lat="44.13611" lon="6.11163">
        <ele>885</ele>
        <time>2022-03-03T09:14:57.000Z</time>
      </trkpt>
      <trkpt lat="44.13611" lon="6.11163">
        <ele>885</ele>
        <time>2022-03-03T09:14:58.000Z</time>
      </trkpt>
      <trkpt lat="44.13612" lon="6.11161">
        <ele>885</ele>
        <time>2022-03-03T09:14:59.000Z</time>
      </trkpt>
      <trkpt lat="44.13613" lon="6.11161">
        <ele>885</ele>
        <time>2022-03-03T09:15:00.000Z</time>
      </trkpt>
      <trkpt lat="44.13614" lon="6.1116">
        <ele>885</ele>
        <time>2022-03-03T09:15:01.000Z</time>
      </trkpt>
      <trkpt lat="44.13614" lon="6.11159">
        <ele>886</ele>
        <time>2022-03-03T09:15:02.000Z</time>
      </trkpt>
      <trkpt lat="44.13615" lon="6.11158">
        <ele>886</ele>
        <time>2022-03-03T09:15:03.000Z</time>
      </trkpt>
      <trkpt lat="44.13616" lon="6.11158">
        <ele>886</ele>
        <time>2022-03-03T09:15:04.000Z</time>
      </trkpt>
      <trkpt lat="44.13617" lon="6.11157">
        <ele>886</ele>
        <time>2022-03-03T09:15:05.000Z</time>
      </trkpt>
      <trkpt lat="44.13618" lon="6.11156">
        <ele>886</ele>
        <time>2022-03-03T09:15:06.000Z</time>
      </trkpt>
      <trkpt lat="44.13618" lon="6.11155">
        <ele>886</ele>
        <time>2022-03-03T09:15:07.000Z</time>
      </trkpt>
      <trkpt lat="44.13619" lon="6.11154">
        <ele>886</ele>
        <time>2022-03-03T09:15:08.000Z</time>
      </trkpt>
      <trkpt lat="44.1362" lon="6.11153">
        <ele>886</ele>
        <time>2022-03-03T09:15:09.000Z</time>
      </trkpt>
      <trkpt lat="44.1362" lon="6.11152">
        <ele>886</ele>
        <time>2022-03-03T09:15:10.000Z</time>
      </trkpt>
      <trkpt lat="44.13621" lon="6.11152">
        <ele>886</ele>
        <time>2022-03-03T09:15:11.000Z</time>
      </trkpt>
      <trkpt lat="44.13622" lon="6.11151">
        <ele>886</ele>
        <time>2022-03-03T09:15:12.000Z</time>
      </trkpt>
      <trkpt lat="44.13623" lon="6.1115">
        <ele>887</ele>
        <time>2022-03-03T09:15:13.000Z</time>
      </trkpt>
      <trkpt lat="44.13623" lon="6.11149">
        <ele>887</ele>
        <time>2022-03-03T09:15:14.000Z</time>
      </trkpt>
      <trkpt lat="44.13624" lon="6.11148">
        <ele>887</ele>
        <time>2022-03-03T09:15:15.000Z</time>
      </trkpt>
      <trkpt lat="44.13625" lon="6.11148">
        <ele>887</ele>
        <time>2022-03-03T09:15:16.000Z</time>
      </trkpt>
      <trkpt lat="44.13625" lon="6.11147">
        <ele>887</ele>
        <time>2022-03-03T09:15:17.000Z</time>
      </trkpt>
      <trkpt lat="44.13626" lon="6.11146">
        <ele>887</ele>
        <time>2022-03-03T09:15:18.000Z</time>
      </trkpt>
      <trkpt lat="44.13627" lon="6.11145">
        <ele>887</ele>
        <time>2022-03-03T09:15:19.000Z</time>
      </trkpt>
      <trkpt lat="44.13628" lon="6.11144">
        <ele>887</ele>
        <time>2022-03-03T09:15:20.000Z</time>
      </trkpt>
      <trkpt lat="44.13629" lon="6.11143">
        <ele>887</ele>
        <time>2022-03-03T09:15:21.000Z</time>
      </trkpt>
      <trkpt lat="44.13629" lon="6.11142">
        <ele>887</ele>
        <time>2022-03-03T09:15:22.000Z</time>
      </trkpt>
      <trkpt lat="44.1363" lon="6.11141">
        <ele>887</ele>
        <time>2022-03-03T09:15:23.000Z</time>
      </trkpt>
      <trkpt lat="44.13631" lon="6.1114">
        <ele>887</ele>
        <time>2022-03-03T09:15:24.000Z</time>
      </trkpt>
      <trkpt lat="44.13631" lon="6.11139">
        <ele>887</ele>
        <time>2022-03-03T09:15:25.000Z</time>
      </trkpt>
      <trkpt lat="44.13632" lon="6.11138">
        <ele>887</ele>
        <time>2022-03-03T09:15:26.000Z</time>
      </trkpt>
      <trkpt lat="44.13633" lon="6.11138">
        <ele>887</ele>
        <time>2022-03-03T09:15:27.000Z</time>
      </trkpt>
      <trkpt lat="44.13633" lon="6.11137">
        <ele>887</ele>
        <time>2022-03-03T09:15:28.000Z</time>
      </trkpt>
      <trkpt lat="44.13634" lon="6.11136">
        <ele>887</ele>
        <time>2022-03-03T09:15:29.000Z</time>
      </trkpt>
      <trkpt lat="44.13635" lon="6.11135">
        <ele>888</ele>
        <time>2022-03-03T09:15:30.000Z</time>
      </trkpt>
      <trkpt lat="44.13636" lon="6.11134">
        <ele>888</ele>
        <time>2022-03-03T09:15:31.000Z</time>
      </trkpt>
      <trkpt lat="44.13636" lon="6.11134">
        <ele>888</ele>
        <time>2022-03-03T09:15:32.000Z</time>
      </trkpt>
      <trkpt lat="44.13637" lon="6.11133">
        <ele>888</ele>
        <time>2022-03-03T09:15:33.000Z</time>
      </trkpt>
      <trkpt lat="44.13638" lon="6.11132">
        <ele>888</ele>
        <time>2022-03-03T09:15:34.000Z</time>
      </trkpt>
      <trkpt lat="44.13638" lon="6.11131">
        <ele>888</ele>
        <time>2022-03-03T09:15:35.000Z</time>
      </trkpt>
      <trkpt lat="44.13639" lon="6.1113">
        <ele>888</ele>
        <time>2022-03-03T09:15:36.000Z</time>
      </trkpt>
      <trkpt lat="44.1364" lon="6.1113">
        <ele>889</ele>
        <time>2022-03-03T09:15:37.000Z</time>
      </trkpt>
      <trkpt lat="44.1364" lon="6.11128">
        <ele>889</ele>
        <time>2022-03-03T09:15:38.000Z</time>
      </trkpt>
      <trkpt lat="44.13641" lon="6.11128">
        <ele>889</ele>
        <time>2022-03-03T09:15:39.000Z</time>
      </trkpt>
      <trkpt lat="44.13642" lon="6.11127">
        <ele>889</ele>
        <time>2022-03-03T09:15:40.000Z</time>
      </trkpt>
      <trkpt lat="44.13643" lon="6.11126">
        <ele>889</ele>
        <time>2022-03-03T09:15:41.000Z</time>
      </trkpt>
      <trkpt lat="44.13643" lon="6.11125">
        <ele>890</ele>
        <time>2022-03-03T09:15:42.000Z</time>
      </trkpt>
      <trkpt lat="44.13644" lon="6.11124">
        <ele>890</ele>
        <time>2022-03-03T09:15:43.000Z</time>
      </trkpt>
      <trkpt lat="44.13645" lon="6.11123">
        <ele>890</ele>
        <time>2022-03-03T09:15:44.000Z</time>
      </trkpt>
      <trkpt lat="44.13645" lon="6.11123">
        <ele>890</ele>
        <time>2022-03-03T09:15:45.000Z</time>
      </trkpt>
      <trkpt lat="44.13646" lon="6.11122">
        <ele>890</ele>
        <time>2022-03-03T09:15:46.000Z</time>
      </trkpt>
      <trkpt lat="44.13647" lon="6.11121">
        <ele>890</ele>
        <time>2022-03-03T09:15:47.000Z</time>
      </trkpt>
      <trkpt lat="44.13647" lon="6.1112">
        <ele>890</ele>
        <time>2022-03-03T09:15:48.000Z</time>
      </trkpt>
      <trkpt lat="44.13648" lon="6.1112">
        <ele>890</ele>
        <time>2022-03-03T09:15:49.000Z</time>
      </trkpt>
      <trkpt lat="44.13649" lon="6.11119">
        <ele>890</ele>
        <time>2022-03-03T09:15:50.000Z</time>
      </trkpt>
      <trkpt lat="44.13649" lon="6.11118">
        <ele>890</ele>
        <time>2022-03-03T09:15:51.000Z</time>
      </trkpt>
      <trkpt lat="44.1365" lon="6.11117">
        <ele>891</ele>
        <time>2022-03-03T09:15:52.000Z</time>
      </trkpt>
      <trkpt lat="44.13651" lon="6.11116">
        <ele>891</ele>
        <time>2022-03-03T09:15:53.000Z</time>
      </trkpt>
      <trkpt lat="44.13651" lon="6.11115">
        <ele>891</ele>
        <time>2022-03-03T09:15:54.000Z</time>
      </trkpt>
      <trkpt lat="44.13652" lon="6.11114">
        <ele>891</ele>
        <time>2022-03-03T09:15:55.000Z</time>
      </trkpt>
      <trkpt lat="44.13652" lon="6.11113">
        <ele>891</ele>
        <time>2022-03-03T09:15:56.000Z</time>
      </trkpt>
      <trkpt lat="44.13653" lon="6.11113">
        <ele>891</ele>
        <time>2022-03-03T09:15:57.000Z</time>
      </trkpt>
      <trkpt lat="44.13653" lon="6.11112">
        <ele>891</ele>
        <time>2022-03-03T09:15:58.000Z</time>
      </trkpt>
      <trkpt lat="44.13654" lon="6.11111">
        <ele>891</ele>
        <time>2022-03-03T09:15:59.000Z</time>
      </trkpt>
      <trkpt lat="44.13655" lon="6.1111">
        <ele>891</ele>
        <time>2022-03-03T09:16:00.000Z</time>
      </trkpt>
      <trkpt lat="44.13655" lon="6.11109">
        <ele>891</ele>
        <time>2022-03-03T09:16:01.000Z</time>
      </trkpt>
      <trkpt lat="44.13656" lon="6.11108">
        <ele>891</ele>
        <time>2022-03-03T09:16:02.000Z</time>
      </trkpt>
      <trkpt lat="44.13657" lon="6.11108">
        <ele>891</ele>
        <time>2022-03-03T09:16:03.000Z</time>
      </trkpt>
      <trkpt lat="44.13657" lon="6.11107">
        <ele>892</ele>
        <time>2022-03-03T09:16:04.000Z</time>
      </trkpt>
      <trkpt lat="44.13658" lon="6.11106">
        <ele>892</ele>
        <time>2022-03-03T09:16:05.000Z</time>
      </trkpt>
      <trkpt lat="44.13658" lon="6.11105">
        <ele>892</ele>
        <time>2022-03-03T09:16:06.000Z</time>
      </trkpt>
      <trkpt lat="44.13659" lon="6.11104">
        <ele>892</ele>
        <time>2022-03-03T09:16:07.000Z</time>
      </trkpt>
      <trkpt lat="44.1366" lon="6.11103">
        <ele>892</ele>
        <time>2022-03-03T09:16:08.000Z</time>
      </trkpt>
      <trkpt lat="44.1366" lon="6.11102">
        <ele>892</ele>
        <time>2022-03-03T09:16:09.000Z</time>
      </trkpt>
      <trkpt lat="44.13661" lon="6.11102">
        <ele>892</ele>
        <time>2022-03-03T09:16:10.000Z</time>
      </trkpt>
      <trkpt lat="44.13661" lon="6.11101">
        <ele>892</ele>
        <time>2022-03-03T09:16:11.000Z</time>
      </trkpt>
      <trkpt lat="44.13662" lon="6.111">
        <ele>892</ele>
        <time>2022-03-03T09:16:12.000Z</time>
      </trkpt>
      <trkpt lat="44.13662" lon="6.111">
        <ele>892</ele>
        <time>2022-03-03T09:16:13.000Z</time>
      </trkpt>
      <trkpt lat="44.13663" lon="6.11099">
        <ele>892</ele>
        <time>2022-03-03T09:16:14.000Z</time>
      </trkpt>
      <trkpt lat="44.13664" lon="6.11098">
        <ele>892</ele>
        <time>2022-03-03T09:16:15.000Z</time>
      </trkpt>
      <trkpt lat="44.13664" lon="6.11097">
        <ele>893</ele>
        <time>2022-03-03T09:16:16.000Z</time>
      </trkpt>
      <trkpt lat="44.13665" lon="6.11097">
        <ele>893</ele>
        <time>2022-03-03T09:16:17.000Z</time>
      </trkpt>
      <trkpt lat="44.13666" lon="6.11096">
        <ele>893</ele>
        <time>2022-03-03T09:16:18.000Z</time>
      </trkpt>
      <trkpt lat="44.13666" lon="6.11095">
        <ele>893</ele>
        <time>2022-03-03T09:16:19.000Z</time>
      </trkpt>
      <trkpt lat="44.13667" lon="6.11094">
        <ele>893</ele>
        <time>2022-03-03T09:16:20.000Z</time>
      </trkpt>
      <trkpt lat="44.13668" lon="6.11094">
        <ele>893</ele>
        <time>2022-03-03T09:16:21.000Z</time>
      </trkpt>
      <trkpt lat="44.13668" lon="6.11093">
        <ele>893</ele>
        <time>2022-03-03T09:16:22.000Z</time>
      </trkpt>
      <trkpt lat="44.13669" lon="6.11092">
        <ele>894</ele>
        <time>2022-03-03T09:16:23.000Z</time>
      </trkpt>
      <trkpt lat="44.13669" lon="6.11091">
        <ele>894</ele>
        <time>2022-03-03T09:16:24.000Z</time>
      </trkpt>
      <trkpt lat="44.1367" lon="6.1109">
        <ele>894</ele>
        <time>2022-03-03T09:16:25.000Z</time>
      </trkpt>
      <trkpt lat="44.1367" lon="6.11089">
        <ele>894</ele>
        <time>2022-03-03T09:16:26.000Z</time>
      </trkpt>
      <trkpt lat="44.13671" lon="6.11089">
        <ele>894</ele>
        <time>2022-03-03T09:16:27.000Z</time>
      </trkpt>
      <trkpt lat="44.13671" lon="6.11088">
        <ele>894</ele>
        <time>2022-03-03T09:16:28.000Z</time>
      </trkpt>
      <trkpt lat="44.13672" lon="6.11087">
        <ele>895</ele>
        <time>2022-03-03T09:16:29.000Z</time>
      </trkpt>
      <trkpt lat="44.13673" lon="6.11086">
        <ele>895</ele>
        <time>2022-03-03T09:16:30.000Z</time>
      </trkpt>
      <trkpt lat="44.13673" lon="6.11085">
        <ele>895</ele>
        <time>2022-03-03T09:16:31.000Z</time>
      </trkpt>
      <trkpt lat="44.13674" lon="6.11085">
        <ele>895</ele>
        <time>2022-03-03T09:16:32.000Z</time>
      </trkpt>
      <trkpt lat="44.13675" lon="6.11084">
        <ele>895</ele>
        <time>2022-03-03T09:16:33.000Z</time>
      </trkpt>
      <trkpt lat="44.13675" lon="6.11083">
        <ele>895</ele>
        <time>2022-03-03T09:16:34.000Z</time>
      </trkpt>
      <trkpt lat="44.13676" lon="6.11082">
        <ele>895</ele>
        <time>2022-03-03T09:16:35.000Z</time>
      </trkpt>
      <trkpt lat="44.13676" lon="6.11082">
        <ele>896</ele>
        <time>2022-03-03T09:16:36.000Z</time>
      </trkpt>
      <trkpt lat="44.13677" lon="6.11081">
        <ele>896</ele>
        <time>2022-03-03T09:16:37.000Z</time>
      </trkpt>
      <trkpt lat="44.13678" lon="6.1108">
        <ele>896</ele>
        <time>2022-03-03T09:16:38.000Z</time>
      </trkpt>
      <trkpt lat="44.13678" lon="6.11079">
        <ele>896</ele>
        <time>2022-03-03T09:16:39.000Z</time>
      </trkpt>
      <trkpt lat="44.13679" lon="6.11078">
        <ele>896</ele>
        <time>2022-03-03T09:16:40.000Z</time>
      </trkpt>
      <trkpt lat="44.13679" lon="6.11077">
        <ele>896</ele>
        <time>2022-03-03T09:16:41.000Z</time>
      </trkpt>
      <trkpt lat="44.1368" lon="6.11077">
        <ele>896</ele>
        <time>2022-03-03T09:16:42.000Z</time>
      </trkpt>
      <trkpt lat="44.1368" lon="6.11076">
        <ele>896</ele>
        <time>2022-03-03T09:16:43.000Z</time>
      </trkpt>
      <trkpt lat="44.13681" lon="6.11075">
        <ele>897</ele>
        <time>2022-03-03T09:16:44.000Z</time>
      </trkpt>
      <trkpt lat="44.13682" lon="6.11074">
        <ele>897</ele>
        <time>2022-03-03T09:16:45.000Z</time>
      </trkpt>
      <trkpt lat="44.13682" lon="6.11074">
        <ele>897</ele>
        <time>2022-03-03T09:16:46.000Z</time>
      </trkpt>
      <trkpt lat="44.13683" lon="6.11073">
        <ele>897</ele>
        <time>2022-03-03T09:16:47.000Z</time>
      </trkpt>
      <trkpt lat="44.13684" lon="6.11072">
        <ele>897</ele>
        <time>2022-03-03T09:16:48.000Z</time>
      </trkpt>
      <trkpt lat="44.13684" lon="6.11072">
        <ele>897</ele>
        <time>2022-03-03T09:16:49.000Z</time>
      </trkpt>
      <trkpt lat="44.13685" lon="6.11071">
        <ele>897</ele>
        <time>2022-03-03T09:16:50.000Z</time>
      </trkpt>
      <trkpt lat="44.13686" lon="6.1107">
        <ele>897</ele>
        <time>2022-03-03T09:16:51.000Z</time>
      </trkpt>
      <trkpt lat="44.13686" lon="6.11069">
        <ele>897</ele>
        <time>2022-03-03T09:16:52.000Z</time>
      </trkpt>
      <trkpt lat="44.13687" lon="6.11068">
        <ele>898</ele>
        <time>2022-03-03T09:16:53.000Z</time>
      </trkpt>
      <trkpt lat="44.13688" lon="6.11068">
        <ele>898</ele>
        <time>2022-03-03T09:16:54.000Z</time>
      </trkpt>
      <trkpt lat="44.13688" lon="6.11067">
        <ele>898</ele>
        <time>2022-03-03T09:16:55.000Z</time>
      </trkpt>
      <trkpt lat="44.13689" lon="6.11066">
        <ele>898</ele>
        <time>2022-03-03T09:16:56.000Z</time>
      </trkpt>
      <trkpt lat="44.13689" lon="6.11065">
        <ele>898</ele>
        <time>2022-03-03T09:16:57.000Z</time>
      </trkpt>
      <trkpt lat="44.1369" lon="6.11064">
        <ele>898</ele>
        <time>2022-03-03T09:16:58.000Z</time>
      </trkpt>
      <trkpt lat="44.13691" lon="6.11063">
        <ele>898</ele>
        <time>2022-03-03T09:16:59.000Z</time>
      </trkpt>
      <trkpt lat="44.13691" lon="6.11062">
        <ele>898</ele>
        <time>2022-03-03T09:17:00.000Z</time>
      </trkpt>
      <trkpt lat="44.13692" lon="6.11061">
        <ele>899</ele>
        <time>2022-03-03T09:17:01.000Z</time>
      </trkpt>
      <trkpt lat="44.13693" lon="6.1106">
        <ele>899</ele>
        <time>2022-03-03T09:17:02.000Z</time>
      </trkpt>
      <trkpt lat="44.13693" lon="6.1106">
        <ele>899</ele>
        <time>2022-03-03T09:17:03.000Z</time>
      </trkpt>
      <trkpt lat="44.13694" lon="6.11059">
        <ele>899</ele>
        <time>2022-03-03T09:17:04.000Z</time>
      </trkpt>
      <trkpt lat="44.13695" lon="6.11058">
        <ele>899</ele>
        <time>2022-03-03T09:17:05.000Z</time>
      </trkpt>
      <trkpt lat="44.13695" lon="6.11057">
        <ele>899</ele>
        <time>2022-03-03T09:17:06.000Z</time>
      </trkpt>
      <trkpt lat="44.13696" lon="6.11056">
        <ele>899</ele>
        <time>2022-03-03T09:17:07.000Z</time>
      </trkpt>
      <trkpt lat="44.13697" lon="6.11055">
        <ele>900</ele>
        <time>2022-03-03T09:17:08.000Z</time>
      </trkpt>
      <trkpt lat="44.13697" lon="6.11054">
        <ele>900</ele>
        <time>2022-03-03T09:17:09.000Z</time>
      </trkpt>
      <trkpt lat="44.13698" lon="6.11053">
        <ele>900</ele>
        <time>2022-03-03T09:17:10.000Z</time>
      </trkpt>
      <trkpt lat="44.13699" lon="6.11052">
        <ele>900</ele>
        <time>2022-03-03T09:17:11.000Z</time>
      </trkpt>
      <trkpt lat="44.137" lon="6.11051">
        <ele>900</ele>
        <time>2022-03-03T09:17:12.000Z</time>
      </trkpt>
      <trkpt lat="44.137" lon="6.11051">
        <ele>900</ele>
        <time>2022-03-03T09:17:13.000Z</time>
      </trkpt>
      <trkpt lat="44.13701" lon="6.1105">
        <ele>900</ele>
        <time>2022-03-03T09:17:14.000Z</time>
      </trkpt>
      <trkpt lat="44.13702" lon="6.11049">
        <ele>900</ele>
        <time>2022-03-03T09:17:15.000Z</time>
      </trkpt>
      <trkpt lat="44.13703" lon="6.11049">
        <ele>900</ele>
        <time>2022-03-03T09:17:16.000Z</time>
      </trkpt>
      <trkpt lat="44.13703" lon="6.11048">
        <ele>900</ele>
        <time>2022-03-03T09:17:17.000Z</time>
      </trkpt>
      <trkpt lat="44.13704" lon="6.11047">
        <ele>900</ele>
        <time>2022-03-03T09:17:18.000Z</time>
      </trkpt>
      <trkpt lat="44.13705" lon="6.11047">
        <ele>900</ele>
        <time>2022-03-03T09:17:19.000Z</time>
      </trkpt>
      <trkpt lat="44.13706" lon="6.11046">
        <ele>900</ele>
        <time>2022-03-03T09:17:20.000Z</time>
      </trkpt>
      <trkpt lat="44.13706" lon="6.11045">
        <ele>901</ele>
        <time>2022-03-03T09:17:21.000Z</time>
      </trkpt>
      <trkpt lat="44.13707" lon="6.11044">
        <ele>901</ele>
        <time>2022-03-03T09:17:22.000Z</time>
      </trkpt>
      <trkpt lat="44.13707" lon="6.11044">
        <ele>901</ele>
        <time>2022-03-03T09:17:23.000Z</time>
      </trkpt>
      <trkpt lat="44.13708" lon="6.11043">
        <ele>901</ele>
        <time>2022-03-03T09:17:24.000Z</time>
      </trkpt>
      <trkpt lat="44.13709" lon="6.11042">
        <ele>901</ele>
        <time>2022-03-03T09:17:25.000Z</time>
      </trkpt>
      <trkpt lat="44.13709" lon="6.11041">
        <ele>901</ele>
        <time>2022-03-03T09:17:26.000Z</time>
      </trkpt>
      <trkpt lat="44.1371" lon="6.11041">
        <ele>901</ele>
        <time>2022-03-03T09:17:27.000Z</time>
      </trkpt>
      <trkpt lat="44.13711" lon="6.11041">
        <ele>901</ele>
        <time>2022-03-03T09:17:28.000Z</time>
      </trkpt>
      <trkpt lat="44.13712" lon="6.1104">
        <ele>901</ele>
        <time>2022-03-03T09:17:29.000Z</time>
      </trkpt>
      <trkpt lat="44.13712" lon="6.1104">
        <ele>901</ele>
        <time>2022-03-03T09:17:30.000Z</time>
      </trkpt>
      <trkpt lat="44.13713" lon="6.11039">
        <ele>901</ele>
        <time>2022-03-03T09:17:31.000Z</time>
      </trkpt>
      <trkpt lat="44.13714" lon="6.11039">
        <ele>901</ele>
        <time>2022-03-03T09:17:32.000Z</time>
      </trkpt>
      <trkpt lat="44.13714" lon="6.11038">
        <ele>901</ele>
        <time>2022-03-03T09:17:33.000Z</time>
      </trkpt>
      <trkpt lat="44.13715" lon="6.11037">
        <ele>901</ele>
        <time>2022-03-03T09:17:34.000Z</time>
      </trkpt>
      <trkpt lat="44.13715" lon="6.11036">
        <ele>901</ele>
        <time>2022-03-03T09:17:35.000Z</time>
      </trkpt>
      <trkpt lat="44.13716" lon="6.11036">
        <ele>901</ele>
        <time>2022-03-03T09:17:36.000Z</time>
      </trkpt>
      <trkpt lat="44.13717" lon="6.11035">
        <ele>901</ele>
        <time>2022-03-03T09:17:37.000Z</time>
      </trkpt>
      <trkpt lat="44.13717" lon="6.11034">
        <ele>902</ele>
        <time>2022-03-03T09:17:38.000Z</time>
      </trkpt>
      <trkpt lat="44.13718" lon="6.11033">
        <ele>902</ele>
        <time>2022-03-03T09:17:39.000Z</time>
      </trkpt>
      <trkpt lat="44.13719" lon="6.11032">
        <ele>902</ele>
        <time>2022-03-03T09:17:40.000Z</time>
      </trkpt>
      <trkpt lat="44.13719" lon="6.11031">
        <ele>902</ele>
        <time>2022-03-03T09:17:41.000Z</time>
      </trkpt>
      <trkpt lat="44.1372" lon="6.1103">
        <ele>902</ele>
        <time>2022-03-03T09:17:42.000Z</time>
      </trkpt>
      <trkpt lat="44.1372" lon="6.11029">
        <ele>902</ele>
        <time>2022-03-03T09:17:43.000Z</time>
      </trkpt>
      <trkpt lat="44.13721" lon="6.11028">
        <ele>903</ele>
        <time>2022-03-03T09:17:44.000Z</time>
      </trkpt>
      <trkpt lat="44.13722" lon="6.11027">
        <ele>903</ele>
        <time>2022-03-03T09:17:45.000Z</time>
      </trkpt>
      <trkpt lat="44.13722" lon="6.11027">
        <ele>903</ele>
        <time>2022-03-03T09:17:46.000Z</time>
      </trkpt>
      <trkpt lat="44.13723" lon="6.11026">
        <ele>903</ele>
        <time>2022-03-03T09:17:47.000Z</time>
      </trkpt>
      <trkpt lat="44.13724" lon="6.11025">
        <ele>903</ele>
        <time>2022-03-03T09:17:48.000Z</time>
      </trkpt>
      <trkpt lat="44.13724" lon="6.11025">
        <ele>903</ele>
        <time>2022-03-03T09:17:49.000Z</time>
      </trkpt>
      <trkpt lat="44.13725" lon="6.11024">
        <ele>904</ele>
        <time>2022-03-03T09:17:50.000Z</time>
      </trkpt>
      <trkpt lat="44.13725" lon="6.11023">
        <ele>904</ele>
        <time>2022-03-03T09:17:51.000Z</time>
      </trkpt>
      <trkpt lat="44.13725" lon="6.11022">
        <ele>904</ele>
        <time>2022-03-03T09:17:52.000Z</time>
      </trkpt>
      <trkpt lat="44.13726" lon="6.11021">
        <ele>904</ele>
        <time>2022-03-03T09:17:53.000Z</time>
      </trkpt>
      <trkpt lat="44.13726" lon="6.1102">
        <ele>904</ele>
        <time>2022-03-03T09:17:54.000Z</time>
      </trkpt>
      <trkpt lat="44.13727" lon="6.11019">
        <ele>905</ele>
        <time>2022-03-03T09:17:55.000Z</time>
      </trkpt>
      <trkpt lat="44.13727" lon="6.11018">
        <ele>905</ele>
        <time>2022-03-03T09:17:56.000Z</time>
      </trkpt>
      <trkpt lat="44.13727" lon="6.11017">
        <ele>905</ele>
        <time>2022-03-03T09:17:57.000Z</time>
      </trkpt>
      <trkpt lat="44.13727" lon="6.11016">
        <ele>905</ele>
        <time>2022-03-03T09:17:58.000Z</time>
      </trkpt>
      <trkpt lat="44.13728" lon="6.11015">
        <ele>905</ele>
        <time>2022-03-03T09:17:59.000Z</time>
      </trkpt>
      <trkpt lat="44.13728" lon="6.11015">
        <ele>905</ele>
        <time>2022-03-03T09:18:00.000Z</time>
      </trkpt>
      <trkpt lat="44.13729" lon="6.11014">
        <ele>905</ele>
        <time>2022-03-03T09:18:01.000Z</time>
      </trkpt>
      <trkpt lat="44.13729" lon="6.11013">
        <ele>906</ele>
        <time>2022-03-03T09:18:02.000Z</time>
      </trkpt>
      <trkpt lat="44.1373" lon="6.11013">
        <ele>906</ele>
        <time>2022-03-03T09:18:03.000Z</time>
      </trkpt>
      <trkpt lat="44.13731" lon="6.11012">
        <ele>906</ele>
        <time>2022-03-03T09:18:04.000Z</time>
      </trkpt>
      <trkpt lat="44.13732" lon="6.11012">
        <ele>906</ele>
        <time>2022-03-03T09:18:05.000Z</time>
      </trkpt>
      <trkpt lat="44.13732" lon="6.11011">
        <ele>906</ele>
        <time>2022-03-03T09:18:06.000Z</time>
      </trkpt>
      <trkpt lat="44.13733" lon="6.1101">
        <ele>906</ele>
        <time>2022-03-03T09:18:07.000Z</time>
      </trkpt>
      <trkpt lat="44.13733" lon="6.1101">
        <ele>906</ele>
        <time>2022-03-03T09:18:08.000Z</time>
      </trkpt>
      <trkpt lat="44.13734" lon="6.11009">
        <ele>906</ele>
        <time>2022-03-03T09:18:09.000Z</time>
      </trkpt>
      <trkpt lat="44.13735" lon="6.11008">
        <ele>906</ele>
        <time>2022-03-03T09:18:10.000Z</time>
      </trkpt>
      <trkpt lat="44.13735" lon="6.11008">
        <ele>906</ele>
        <time>2022-03-03T09:18:11.000Z</time>
      </trkpt>
      <trkpt lat="44.13736" lon="6.11007">
        <ele>906</ele>
        <time>2022-03-03T09:18:12.000Z</time>
      </trkpt>
      <trkpt lat="44.13737" lon="6.11006">
        <ele>906</ele>
        <time>2022-03-03T09:18:13.000Z</time>
      </trkpt>
      <trkpt lat="44.13737" lon="6.11005">
        <ele>907</ele>
        <time>2022-03-03T09:18:14.000Z</time>
      </trkpt>
      <trkpt lat="44.13738" lon="6.11004">
        <ele>907</ele>
        <time>2022-03-03T09:18:15.000Z</time>
      </trkpt>
      <trkpt lat="44.13739" lon="6.11003">
        <ele>907</ele>
        <time>2022-03-03T09:18:16.000Z</time>
      </trkpt>
      <trkpt lat="44.13739" lon="6.11003">
        <ele>907</ele>
        <time>2022-03-03T09:18:17.000Z</time>
      </trkpt>
      <trkpt lat="44.1374" lon="6.11002">
        <ele>907</ele>
        <time>2022-03-03T09:18:18.000Z</time>
      </trkpt>
      <trkpt lat="44.13741" lon="6.11001">
        <ele>907</ele>
        <time>2022-03-03T09:18:19.000Z</time>
      </trkpt>
      <trkpt lat="44.13741" lon="6.11">
        <ele>907</ele>
        <time>2022-03-03T09:18:20.000Z</time>
      </trkpt>
      <trkpt lat="44.13742" lon="6.10999">
        <ele>907</ele>
        <time>2022-03-03T09:18:21.000Z</time>
      </trkpt>
      <trkpt lat="44.13743" lon="6.10999">
        <ele>907</ele>
        <time>2022-03-03T09:18:22.000Z</time>
      </trkpt>
      <trkpt lat="44.13743" lon="6.10998">
        <ele>907</ele>
        <time>2022-03-03T09:18:23.000Z</time>
      </trkpt>
      <trkpt lat="44.13744" lon="6.10997">
        <ele>907</ele>
        <time>2022-03-03T09:18:24.000Z</time>
      </trkpt>
      <trkpt lat="44.13744" lon="6.10996">
        <ele>908</ele>
        <time>2022-03-03T09:18:25.000Z</time>
      </trkpt>
      <trkpt lat="44.13745" lon="6.10995">
        <ele>908</ele>
        <time>2022-03-03T09:18:26.000Z</time>
      </trkpt>
      <trkpt lat="44.13746" lon="6.10994">
        <ele>908</ele>
        <time>2022-03-03T09:18:27.000Z</time>
      </trkpt>
      <trkpt lat="44.13746" lon="6.10993">
        <ele>908</ele>
        <time>2022-03-03T09:18:28.000Z</time>
      </trkpt>
      <trkpt lat="44.13747" lon="6.10993">
        <ele>908</ele>
        <time>2022-03-03T09:18:29.000Z</time>
      </trkpt>
      <trkpt lat="44.13747" lon="6.10992">
        <ele>908</ele>
        <time>2022-03-03T09:18:30.000Z</time>
      </trkpt>
      <trkpt lat="44.13748" lon="6.10991">
        <ele>908</ele>
        <time>2022-03-03T09:18:31.000Z</time>
      </trkpt>
      <trkpt lat="44.13748" lon="6.1099">
        <ele>908</ele>
        <time>2022-03-03T09:18:32.000Z</time>
      </trkpt>
      <trkpt lat="44.13749" lon="6.10989">
        <ele>908</ele>
        <time>2022-03-03T09:18:33.000Z</time>
      </trkpt>
      <trkpt lat="44.13749" lon="6.10988">
        <ele>908</ele>
        <time>2022-03-03T09:18:34.000Z</time>
      </trkpt>
      <trkpt lat="44.1375" lon="6.10987">
        <ele>908</ele>
        <time>2022-03-03T09:18:35.000Z</time>
      </trkpt>
      <trkpt lat="44.13751" lon="6.10986">
        <ele>909</ele>
        <time>2022-03-03T09:18:36.000Z</time>
      </trkpt>
      <trkpt lat="44.13751" lon="6.10985">
        <ele>909</ele>
        <time>2022-03-03T09:18:37.000Z</time>
      </trkpt>
      <trkpt lat="44.13752" lon="6.10985">
        <ele>909</ele>
        <time>2022-03-03T09:18:38.000Z</time>
      </trkpt>
      <trkpt lat="44.13752" lon="6.10984">
        <ele>909</ele>
        <time>2022-03-03T09:18:39.000Z</time>
      </trkpt>
      <trkpt lat="44.13753" lon="6.10983">
        <ele>909</ele>
        <time>2022-03-03T09:18:40.000Z</time>
      </trkpt>
      <trkpt lat="44.13753" lon="6.10982">
        <ele>909</ele>
        <time>2022-03-03T09:18:41.000Z</time>
      </trkpt>
      <trkpt lat="44.13754" lon="6.10981">
        <ele>909</ele>
        <time>2022-03-03T09:18:42.000Z</time>
      </trkpt>
      <trkpt lat="44.13755" lon="6.1098">
        <ele>909</ele>
        <time>2022-03-03T09:18:43.000Z</time>
      </trkpt>
      <trkpt lat="44.13755" lon="6.1098">
        <ele>909</ele>
        <time>2022-03-03T09:18:44.000Z</time>
      </trkpt>
      <trkpt lat="44.13756" lon="6.10979">
        <ele>909</ele>
        <time>2022-03-03T09:18:45.000Z</time>
      </trkpt>
      <trkpt lat="44.13757" lon="6.10978">
        <ele>909</ele>
        <time>2022-03-03T09:18:46.000Z</time>
      </trkpt>
      <trkpt lat="44.13758" lon="6.10977">
        <ele>909</ele>
        <time>2022-03-03T09:18:47.000Z</time>
      </trkpt>
      <trkpt lat="44.13758" lon="6.10976">
        <ele>909</ele>
        <time>2022-03-03T09:18:48.000Z</time>
      </trkpt>
      <trkpt lat="44.13759" lon="6.10975">
        <ele>909</ele>
        <time>2022-03-03T09:18:49.000Z</time>
      </trkpt>
      <trkpt lat="44.13759" lon="6.10975">
        <ele>909</ele>
        <time>2022-03-03T09:18:50.000Z</time>
      </trkpt>
      <trkpt lat="44.1376" lon="6.10974">
        <ele>909</ele>
        <time>2022-03-03T09:18:51.000Z</time>
      </trkpt>
      <trkpt lat="44.13761" lon="6.10973">
        <ele>910</ele>
        <time>2022-03-03T09:18:52.000Z</time>
      </trkpt>
      <trkpt lat="44.13761" lon="6.10972">
        <ele>910</ele>
        <time>2022-03-03T09:18:53.000Z</time>
      </trkpt>
      <trkpt lat="44.13762" lon="6.10971">
        <ele>910</ele>
        <time>2022-03-03T09:18:54.000Z</time>
      </trkpt>
      <trkpt lat="44.13763" lon="6.1097">
        <ele>910</ele>
        <time>2022-03-03T09:18:55.000Z</time>
      </trkpt>
      <trkpt lat="44.13763" lon="6.10969">
        <ele>910</ele>
        <time>2022-03-03T09:18:56.000Z</time>
      </trkpt>
      <trkpt lat="44.13763" lon="6.10968">
        <ele>910</ele>
        <time>2022-03-03T09:18:57.000Z</time>
      </trkpt>
      <trkpt lat="44.13764" lon="6.10968">
        <ele>910</ele>
        <time>2022-03-03T09:18:58.000Z</time>
      </trkpt>
      <trkpt lat="44.13765" lon="6.10967">
        <ele>910</ele>
        <time>2022-03-03T09:18:59.000Z</time>
      </trkpt>
      <trkpt lat="44.13766" lon="6.10966">
        <ele>910</ele>
        <time>2022-03-03T09:19:00.000Z</time>
      </trkpt>
      <trkpt lat="44.13766" lon="6.10965">
        <ele>910</ele>
        <time>2022-03-03T09:19:01.000Z</time>
      </trkpt>
      <trkpt lat="44.13767" lon="6.10964">
        <ele>911</ele>
        <time>2022-03-03T09:19:02.000Z</time>
      </trkpt>
      <trkpt lat="44.13767" lon="6.10963">
        <ele>911</ele>
        <time>2022-03-03T09:19:03.000Z</time>
      </trkpt>
      <trkpt lat="44.13768" lon="6.10962">
        <ele>911</ele>
        <time>2022-03-03T09:19:04.000Z</time>
      </trkpt>
      <trkpt lat="44.13769" lon="6.10961">
        <ele>911</ele>
        <time>2022-03-03T09:19:05.000Z</time>
      </trkpt>
      <trkpt lat="44.13769" lon="6.1096">
        <ele>911</ele>
        <time>2022-03-03T09:19:06.000Z</time>
      </trkpt>
      <trkpt lat="44.1377" lon="6.10959">
        <ele>911</ele>
        <time>2022-03-03T09:19:07.000Z</time>
      </trkpt>
      <trkpt lat="44.1377" lon="6.10958">
        <ele>911</ele>
        <time>2022-03-03T09:19:08.000Z</time>
      </trkpt>
      <trkpt lat="44.13771" lon="6.10958">
        <ele>912</ele>
        <time>2022-03-03T09:19:09.000Z</time>
      </trkpt>
      <trkpt lat="44.13771" lon="6.10957">
        <ele>912</ele>
        <time>2022-03-03T09:19:10.000Z</time>
      </trkpt>
      <trkpt lat="44.13772" lon="6.10956">
        <ele>912</ele>
        <time>2022-03-03T09:19:11.000Z</time>
      </trkpt>
      <trkpt lat="44.13773" lon="6.10955">
        <ele>912</ele>
        <time>2022-03-03T09:19:12.000Z</time>
      </trkpt>
      <trkpt lat="44.13773" lon="6.10954">
        <ele>912</ele>
        <time>2022-03-03T09:19:13.000Z</time>
      </trkpt>
      <trkpt lat="44.13774" lon="6.10953">
        <ele>912</ele>
        <time>2022-03-03T09:19:14.000Z</time>
      </trkpt>
      <trkpt lat="44.13774" lon="6.10953">
        <ele>912</ele>
        <time>2022-03-03T09:19:15.000Z</time>
      </trkpt>
      <trkpt lat="44.13775" lon="6.10951">
        <ele>912</ele>
        <time>2022-03-03T09:19:16.000Z</time>
      </trkpt>
      <trkpt lat="44.13775" lon="6.10951">
        <ele>913</ele>
        <time>2022-03-03T09:19:17.000Z</time>
      </trkpt>
      <trkpt lat="44.13776" lon="6.1095">
        <ele>913</ele>
        <time>2022-03-03T09:19:18.000Z</time>
      </trkpt>
      <trkpt lat="44.13776" lon="6.10949">
        <ele>913</ele>
        <time>2022-03-03T09:19:19.000Z</time>
      </trkpt>
      <trkpt lat="44.13777" lon="6.10948">
        <ele>913</ele>
        <time>2022-03-03T09:19:20.000Z</time>
      </trkpt>
      <trkpt lat="44.13778" lon="6.10947">
        <ele>913</ele>
        <time>2022-03-03T09:19:21.000Z</time>
      </trkpt>
      <trkpt lat="44.13778" lon="6.10946">
        <ele>913</ele>
        <time>2022-03-03T09:19:22.000Z</time>
      </trkpt>
      <trkpt lat="44.13779" lon="6.10945">
        <ele>913</ele>
        <time>2022-03-03T09:19:23.000Z</time>
      </trkpt>
      <trkpt lat="44.1378" lon="6.10944">
        <ele>913</ele>
        <time>2022-03-03T09:19:24.000Z</time>
      </trkpt>
      <trkpt lat="44.1378" lon="6.10943">
        <ele>913</ele>
        <time>2022-03-03T09:19:25.000Z</time>
      </trkpt>
      <trkpt lat="44.13781" lon="6.10942">
        <ele>913</ele>
        <time>2022-03-03T09:19:26.000Z</time>
      </trkpt>
      <trkpt lat="44.13781" lon="6.10941">
        <ele>913</ele>
        <time>2022-03-03T09:19:27.000Z</time>
      </trkpt>
      <trkpt lat="44.13782" lon="6.1094">
        <ele>913</ele>
        <time>2022-03-03T09:19:28.000Z</time>
      </trkpt>
      <trkpt lat="44.13783" lon="6.10939">
        <ele>913</ele>
        <time>2022-03-03T09:19:29.000Z</time>
      </trkpt>
      <trkpt lat="44.13783" lon="6.10938">
        <ele>913</ele>
        <time>2022-03-03T09:19:30.000Z</time>
      </trkpt>
      <trkpt lat="44.13784" lon="6.10937">
        <ele>913</ele>
        <time>2022-03-03T09:19:31.000Z</time>
      </trkpt>
      <trkpt lat="44.13784" lon="6.10936">
        <ele>914</ele>
        <time>2022-03-03T09:19:32.000Z</time>
      </trkpt>
      <trkpt lat="44.13785" lon="6.10935">
        <ele>914</ele>
        <time>2022-03-03T09:19:33.000Z</time>
      </trkpt>
      <trkpt lat="44.13785" lon="6.10934">
        <ele>914</ele>
        <time>2022-03-03T09:19:34.000Z</time>
      </trkpt>
      <trkpt lat="44.13786" lon="6.10933">
        <ele>914</ele>
        <time>2022-03-03T09:19:35.000Z</time>
      </trkpt>
      <trkpt lat="44.13787" lon="6.10932">
        <ele>914</ele>
        <time>2022-03-03T09:19:36.000Z</time>
      </trkpt>
      <trkpt lat="44.13787" lon="6.10931">
        <ele>914</ele>
        <time>2022-03-03T09:19:37.000Z</time>
      </trkpt>
      <trkpt lat="44.13788" lon="6.1093">
        <ele>914</ele>
        <time>2022-03-03T09:19:38.000Z</time>
      </trkpt>
      <trkpt lat="44.13788" lon="6.10929">
        <ele>914</ele>
        <time>2022-03-03T09:19:39.000Z</time>
      </trkpt>
      <trkpt lat="44.13789" lon="6.10928">
        <ele>914</ele>
        <time>2022-03-03T09:19:40.000Z</time>
      </trkpt>
      <trkpt lat="44.13789" lon="6.10927">
        <ele>914</ele>
        <time>2022-03-03T09:19:41.000Z</time>
      </trkpt>
      <trkpt lat="44.1379" lon="6.10926">
        <ele>915</ele>
        <time>2022-03-03T09:19:42.000Z</time>
      </trkpt>
      <trkpt lat="44.13791" lon="6.10925">
        <ele>915</ele>
        <time>2022-03-03T09:19:43.000Z</time>
      </trkpt>
      <trkpt lat="44.13791" lon="6.10924">
        <ele>915</ele>
        <time>2022-03-03T09:19:44.000Z</time>
      </trkpt>
      <trkpt lat="44.13792" lon="6.10923">
        <ele>915</ele>
        <time>2022-03-03T09:19:45.000Z</time>
      </trkpt>
      <trkpt lat="44.13792" lon="6.10923">
        <ele>915</ele>
        <time>2022-03-03T09:19:46.000Z</time>
      </trkpt>
      <trkpt lat="44.13793" lon="6.10921">
        <ele>915</ele>
        <time>2022-03-03T09:19:47.000Z</time>
      </trkpt>
      <trkpt lat="44.13794" lon="6.10921">
        <ele>915</ele>
        <time>2022-03-03T09:19:48.000Z</time>
      </trkpt>
      <trkpt lat="44.13794" lon="6.1092">
        <ele>915</ele>
        <time>2022-03-03T09:19:49.000Z</time>
      </trkpt>
      <trkpt lat="44.13795" lon="6.10919">
        <ele>915</ele>
        <time>2022-03-03T09:19:50.000Z</time>
      </trkpt>
      <trkpt lat="44.13796" lon="6.10918">
        <ele>915</ele>
        <time>2022-03-03T09:19:51.000Z</time>
      </trkpt>
      <trkpt lat="44.13796" lon="6.10917">
        <ele>915</ele>
        <time>2022-03-03T09:19:52.000Z</time>
      </trkpt>
      <trkpt lat="44.13797" lon="6.10916">
        <ele>916</ele>
        <time>2022-03-03T09:19:53.000Z</time>
      </trkpt>
      <trkpt lat="44.13798" lon="6.10916">
        <ele>916</ele>
        <time>2022-03-03T09:19:54.000Z</time>
      </trkpt>
      <trkpt lat="44.13798" lon="6.10915">
        <ele>916</ele>
        <time>2022-03-03T09:19:55.000Z</time>
      </trkpt>
      <trkpt lat="44.13799" lon="6.10914">
        <ele>916</ele>
        <time>2022-03-03T09:19:56.000Z</time>
      </trkpt>
      <trkpt lat="44.13799" lon="6.10913">
        <ele>916</ele>
        <time>2022-03-03T09:19:57.000Z</time>
      </trkpt>
      <trkpt lat="44.138" lon="6.10912">
        <ele>916</ele>
        <time>2022-03-03T09:19:58.000Z</time>
      </trkpt>
      <trkpt lat="44.138" lon="6.10911">
        <ele>916</ele>
        <time>2022-03-03T09:19:59.000Z</time>
      </trkpt>
      <trkpt lat="44.13799" lon="6.10911">
        <ele>916</ele>
        <time>2022-03-03T09:20:00.000Z</time>
      </trkpt>
      <trkpt lat="44.13799" lon="6.1091">
        <ele>916</ele>
        <time>2022-03-03T09:20:01.000Z</time>
      </trkpt>
      <trkpt lat="44.13798" lon="6.10909">
        <ele>917</ele>
        <time>2022-03-03T09:20:02.000Z</time>
      </trkpt>
      <trkpt lat="44.13797" lon="6.10908">
        <ele>917</ele>
        <time>2022-03-03T09:20:03.000Z</time>
      </trkpt>
      <trkpt lat="44.13797" lon="6.10907">
        <ele>917</ele>
        <time>2022-03-03T09:20:04.000Z</time>
      </trkpt>
      <trkpt lat="44.13796" lon="6.10907">
        <ele>917</ele>
        <time>2022-03-03T09:20:05.000Z</time>
      </trkpt>
      <trkpt lat="44.13796" lon="6.10905">
        <ele>917</ele>
        <time>2022-03-03T09:20:06.000Z</time>
      </trkpt>
      <trkpt lat="44.13795" lon="6.10904">
        <ele>917</ele>
        <time>2022-03-03T09:20:07.000Z</time>
      </trkpt>
      <trkpt lat="44.13795" lon="6.10904">
        <ele>918</ele>
        <time>2022-03-03T09:20:08.000Z</time>
      </trkpt>
      <trkpt lat="44.13794" lon="6.10903">
        <ele>918</ele>
        <time>2022-03-03T09:20:09.000Z</time>
      </trkpt>
      <trkpt lat="44.13794" lon="6.10903">
        <ele>918</ele>
        <time>2022-03-03T09:20:10.000Z</time>
      </trkpt>
      <trkpt lat="44.13793" lon="6.10902">
        <ele>918</ele>
        <time>2022-03-03T09:20:11.000Z</time>
      </trkpt>
      <trkpt lat="44.13792" lon="6.10901">
        <ele>918</ele>
        <time>2022-03-03T09:20:12.000Z</time>
      </trkpt>
      <trkpt lat="44.13791" lon="6.10901">
        <ele>918</ele>
        <time>2022-03-03T09:20:13.000Z</time>
      </trkpt>
      <trkpt lat="44.1379" lon="6.109">
        <ele>918</ele>
        <time>2022-03-03T09:20:14.000Z</time>
      </trkpt>
      <trkpt lat="44.1379" lon="6.10899">
        <ele>919</ele>
        <time>2022-03-03T09:20:15.000Z</time>
      </trkpt>
      <trkpt lat="44.13789" lon="6.10899">
        <ele>919</ele>
        <time>2022-03-03T09:20:16.000Z</time>
      </trkpt>
      <trkpt lat="44.13788" lon="6.10898">
        <ele>919</ele>
        <time>2022-03-03T09:20:17.000Z</time>
      </trkpt>
      <trkpt lat="44.13787" lon="6.10897">
        <ele>919</ele>
        <time>2022-03-03T09:20:18.000Z</time>
      </trkpt>
      <trkpt lat="44.13786" lon="6.10897">
        <ele>919</ele>
        <time>2022-03-03T09:20:19.000Z</time>
      </trkpt>
      <trkpt lat="44.13786" lon="6.10896">
        <ele>919</ele>
        <time>2022-03-03T09:20:20.000Z</time>
      </trkpt>
      <trkpt lat="44.13785" lon="6.10895">
        <ele>919</ele>
        <time>2022-03-03T09:20:21.000Z</time>
      </trkpt>
      <trkpt lat="44.13784" lon="6.10894">
        <ele>919</ele>
        <time>2022-03-03T09:20:22.000Z</time>
      </trkpt>
      <trkpt lat="44.13783" lon="6.10893">
        <ele>919</ele>
        <time>2022-03-03T09:20:23.000Z</time>
      </trkpt>
      <trkpt lat="44.13782" lon="6.10893">
        <ele>920</ele>
        <time>2022-03-03T09:20:24.000Z</time>
      </trkpt>
      <trkpt lat="44.13782" lon="6.10892">
        <ele>920</ele>
        <time>2022-03-03T09:20:25.000Z</time>
      </trkpt>
      <trkpt lat="44.13781" lon="6.10891">
        <ele>920</ele>
        <time>2022-03-03T09:20:26.000Z</time>
      </trkpt>
      <trkpt lat="44.1378" lon="6.1089">
        <ele>920</ele>
        <time>2022-03-03T09:20:27.000Z</time>
      </trkpt>
      <trkpt lat="44.13779" lon="6.1089">
        <ele>920</ele>
        <time>2022-03-03T09:20:28.000Z</time>
      </trkpt>
      <trkpt lat="44.13779" lon="6.10889">
        <ele>920</ele>
        <time>2022-03-03T09:20:29.000Z</time>
      </trkpt>
      <trkpt lat="44.13778" lon="6.10888">
        <ele>920</ele>
        <time>2022-03-03T09:20:30.000Z</time>
      </trkpt>
      <trkpt lat="44.13777" lon="6.10888">
        <ele>920</ele>
        <time>2022-03-03T09:20:31.000Z</time>
      </trkpt>
      <trkpt lat="44.13776" lon="6.10887">
        <ele>920</ele>
        <time>2022-03-03T09:20:32.000Z</time>
      </trkpt>
      <trkpt lat="44.13775" lon="6.10886">
        <ele>920</ele>
        <time>2022-03-03T09:20:33.000Z</time>
      </trkpt>
      <trkpt lat="44.13775" lon="6.10886">
        <ele>920</ele>
        <time>2022-03-03T09:20:34.000Z</time>
      </trkpt>
      <trkpt lat="44.13774" lon="6.10885">
        <ele>920</ele>
        <time>2022-03-03T09:20:35.000Z</time>
      </trkpt>
      <trkpt lat="44.13773" lon="6.10884">
        <ele>921</ele>
        <time>2022-03-03T09:20:36.000Z</time>
      </trkpt>
      <trkpt lat="44.13772" lon="6.10883">
        <ele>921</ele>
        <time>2022-03-03T09:20:37.000Z</time>
      </trkpt>
      <trkpt lat="44.13772" lon="6.10882">
        <ele>921</ele>
        <time>2022-03-03T09:20:38.000Z</time>
      </trkpt>
      <trkpt lat="44.13771" lon="6.10881">
        <ele>921</ele>
        <time>2022-03-03T09:20:39.000Z</time>
      </trkpt>
      <trkpt lat="44.1377" lon="6.10881">
        <ele>921</ele>
        <time>2022-03-03T09:20:40.000Z</time>
      </trkpt>
      <trkpt lat="44.1377" lon="6.1088">
        <ele>921</ele>
        <time>2022-03-03T09:20:41.000Z</time>
      </trkpt>
      <trkpt lat="44.13769" lon="6.10879">
        <ele>921</ele>
        <time>2022-03-03T09:20:42.000Z</time>
      </trkpt>
      <trkpt lat="44.13768" lon="6.10879">
        <ele>921</ele>
        <time>2022-03-03T09:20:43.000Z</time>
      </trkpt>
      <trkpt lat="44.13767" lon="6.10878">
        <ele>921</ele>
        <time>2022-03-03T09:20:44.000Z</time>
      </trkpt>
      <trkpt lat="44.13766" lon="6.10878">
        <ele>921</ele>
        <time>2022-03-03T09:20:45.000Z</time>
      </trkpt>
      <trkpt lat="44.13765" lon="6.10877">
        <ele>921</ele>
        <time>2022-03-03T09:20:46.000Z</time>
      </trkpt>
      <trkpt lat="44.13765" lon="6.10876">
        <ele>922</ele>
        <time>2022-03-03T09:20:47.000Z</time>
      </trkpt>
      <trkpt lat="44.13764" lon="6.10875">
        <ele>922</ele>
        <time>2022-03-03T09:20:48.000Z</time>
      </trkpt>
      <trkpt lat="44.13763" lon="6.10874">
        <ele>922</ele>
        <time>2022-03-03T09:20:49.000Z</time>
      </trkpt>
      <trkpt lat="44.13763" lon="6.10874">
        <ele>922</ele>
        <time>2022-03-03T09:20:50.000Z</time>
      </trkpt>
      <trkpt lat="44.13762" lon="6.10873">
        <ele>922</ele>
        <time>2022-03-03T09:20:51.000Z</time>
      </trkpt>
      <trkpt lat="44.13761" lon="6.10872">
        <ele>922</ele>
        <time>2022-03-03T09:20:52.000Z</time>
      </trkpt>
      <trkpt lat="44.1376" lon="6.10871">
        <ele>922</ele>
        <time>2022-03-03T09:20:53.000Z</time>
      </trkpt>
      <trkpt lat="44.1376" lon="6.1087">
        <ele>922</ele>
        <time>2022-03-03T09:20:54.000Z</time>
      </trkpt>
      <trkpt lat="44.13759" lon="6.1087">
        <ele>923</ele>
        <time>2022-03-03T09:20:55.000Z</time>
      </trkpt>
      <trkpt lat="44.13758" lon="6.10869">
        <ele>923</ele>
        <time>2022-03-03T09:20:56.000Z</time>
      </trkpt>
      <trkpt lat="44.13758" lon="6.10868">
        <ele>923</ele>
        <time>2022-03-03T09:20:57.000Z</time>
      </trkpt>
      <trkpt lat="44.13757" lon="6.10867">
        <ele>923</ele>
        <time>2022-03-03T09:20:58.000Z</time>
      </trkpt>
      <trkpt lat="44.13756" lon="6.10867">
        <ele>923</ele>
        <time>2022-03-03T09:20:59.000Z</time>
      </trkpt>
      <trkpt lat="44.13755" lon="6.10866">
        <ele>923</ele>
        <time>2022-03-03T09:21:00.000Z</time>
      </trkpt>
      <trkpt lat="44.13755" lon="6.10865">
        <ele>923</ele>
        <time>2022-03-03T09:21:01.000Z</time>
      </trkpt>
      <trkpt lat="44.13754" lon="6.10864">
        <ele>923</ele>
        <time>2022-03-03T09:21:02.000Z</time>
      </trkpt>
      <trkpt lat="44.13754" lon="6.10863">
        <ele>923</ele>
        <time>2022-03-03T09:21:03.000Z</time>
      </trkpt>
      <trkpt lat="44.13754" lon="6.10863">
        <ele>923</ele>
        <time>2022-03-03T09:21:04.000Z</time>
      </trkpt>
      <trkpt lat="44.13754" lon="6.10863">
        <ele>924</ele>
        <time>2022-03-03T09:21:05.000Z</time>
      </trkpt>
      <trkpt lat="44.13754" lon="6.10863">
        <ele>924</ele>
        <time>2022-03-03T09:21:06.000Z</time>
      </trkpt>
      <trkpt lat="44.13754" lon="6.10863">
        <ele>924</ele>
        <time>2022-03-03T09:21:07.000Z</time>
      </trkpt>
      <trkpt lat="44.13754" lon="6.10862">
        <ele>924</ele>
        <time>2022-03-03T09:21:08.000Z</time>
      </trkpt>
      <trkpt lat="44.13754" lon="6.10862">
        <ele>924</ele>
        <time>2022-03-03T09:21:09.000Z</time>
      </trkpt>
      <trkpt lat="44.13754" lon="6.10862">
        <ele>924</ele>
        <time>2022-03-03T09:21:10.000Z</time>
      </trkpt>
      <trkpt lat="44.13753" lon="6.10862">
        <ele>924</ele>
        <time>2022-03-03T09:21:11.000Z</time>
      </trkpt>
      <trkpt lat="44.13753" lon="6.10862">
        <ele>924</ele>
        <time>2022-03-03T09:21:12.000Z</time>
      </trkpt>
      <trkpt lat="44.13753" lon="6.10862">
        <ele>924</ele>
        <time>2022-03-03T09:21:13.000Z</time>
      </trkpt>
      <trkpt lat="44.13753" lon="6.10862">
        <ele>924</ele>
        <time>2022-03-03T09:21:14.000Z</time>
      </trkpt>
      <trkpt lat="44.13753" lon="6.10862">
        <ele>924</ele>
        <time>2022-03-03T09:21:15.000Z</time>
      </trkpt>
      <trkpt lat="44.13753" lon="6.10862">
        <ele>924</ele>
        <time>2022-03-03T09:21:16.000Z</time>
      </trkpt>
      <trkpt lat="44.13753" lon="6.10862">
        <ele>924</ele>
        <time>2022-03-03T09:21:17.000Z</time>
      </trkpt>
      <trkpt lat="44.13753" lon="6.10862">
        <ele>924</ele>
        <time>2022-03-03T09:21:18.000Z</time>
      </trkpt>
      <trkpt lat="44.13753" lon="6.10862">
        <ele>924</ele>
        <time>2022-03-03T09:21:19.000Z</time>
      </trkpt>
      <trkpt lat="44.13753" lon="6.10862">
        <ele>924</ele>
        <time>2022-03-03T09:21:20.000Z</time>
      </trkpt>
      <trkpt lat="44.13753" lon="6.10862">
        <ele>924</ele>
        <time>2022-03-03T09:21:21.000Z</time>
      </trkpt>
      <trkpt lat="44.13753" lon="6.10862">
        <ele>924</ele>
        <time>2022-03-03T09:21:22.000Z</time>
      </trkpt>
      <trkpt lat="44.13753" lon="6.10862">
        <ele>924</ele>
        <time>2022-03-03T09:21:23.000Z</time>
      </trkpt>
      <trkpt lat="44.13753" lon="6.10862">
        <ele>924</ele>
        <time>2022-03-03T09:21:24.000Z</time>
      </trkpt>
      <trkpt lat="44.13753" lon="6.10862">
        <ele>924</ele>
        <time>2022-03-03T09:21:25.000Z</time>
      </trkpt>
      <trkpt lat="44.13753" lon="6.10862">
        <ele>924</ele>
        <time>2022-03-03T09:21:26.000Z</time>
      </trkpt>
      <trkpt lat="44.13753" lon="6.10862">
        <ele>924</ele>
        <time>2022-03-03T09:21:27.000Z</time>
      </trkpt>
      <trkpt lat="44.13753" lon="6.10862">
        <ele>924</ele>
        <time>2022-03-03T09:21:28.000Z</time>
      </trkpt>
      <trkpt lat="44.13753" lon="6.10862">
        <ele>924</ele>
        <time>2022-03-03T09:21:29.000Z</time>
      </trkpt>
      <trkpt lat="44.13753" lon="6.10862">
        <ele>924</ele>
        <time>2022-03-03T09:21:30.000Z</time>
      </trkpt>
      <trkpt lat="44.13753" lon="6.10862">
        <ele>924</ele>
        <time>2022-03-03T09:21:31.000Z</time>
      </trkpt>
      <trkpt lat="44.13753" lon="6.10862">
        <ele>924</ele>
        <time>2022-03-03T09:21:32.000Z</time>
      </trkpt>
      <trkpt lat="44.13753" lon="6.10862">
        <ele>924</ele>
        <time>2022-03-03T09:21:33.000Z</time>
      </trkpt>
      <trkpt lat="44.13753" lon="6.10862">
        <ele>924</ele>
        <time>2022-03-03T09:21:34.000Z</time>
      </trkpt>
      <trkpt lat="44.13753" lon="6.10862">
        <ele>924</ele>
        <time>2022-03-03T09:21:35.000Z</time>
      </trkpt>
      <trkpt lat="44.13753" lon="6.10862">
        <ele>924</ele>
        <time>2022-03-03T09:21:36.000Z</time>
      </trkpt>
      <trkpt lat="44.13753" lon="6.10862">
        <ele>924</ele>
        <time>2022-03-03T09:21:37.000Z</time>
      </trkpt>
      <trkpt lat="44.13753" lon="6.10862">
        <ele>924</ele>
        <time>2022-03-03T09:21:38.000Z</time>
      </trkpt>
      <trkpt lat="44.13753" lon="6.10862">
        <ele>924</ele>
        <time>2022-03-03T09:21:39.000Z</time>
      </trkpt>
      <trkpt lat="44.13753" lon="6.10862">
        <ele>924</ele>
        <time>2022-03-03T09:21:40.000Z</time>
      </trkpt>
      <trkpt lat="44.13753" lon="6.10862">
        <ele>924</ele>
        <time>2022-03-03T09:21:41.000Z</time>
      </trkpt>
      <trkpt lat="44.13753" lon="6.10862">
        <ele>924</ele>
        <time>2022-03-03T09:21:42.000Z</time>
      </trkpt>
      <trkpt lat="44.13753" lon="6.10862">
        <ele>924</ele>
        <time>2022-03-03T09:21:43.000Z</time>
      </trkpt>
      <trkpt lat="44.13753" lon="6.10862">
        <ele>924</ele>
        <time>2022-03-03T09:21:44.000Z</time>
      </trkpt>
      <trkpt lat="44.13753" lon="6.10862">
        <ele>924</ele>
        <time>2022-03-03T09:21:45.000Z</time>
      </trkpt>
      <trkpt lat="44.13753" lon="6.10862">
        <ele>924</ele>
        <time>2022-03-03T09:21:46.000Z</time>
      </trkpt>
      <trkpt lat="44.13753" lon="6.10862">
        <ele>924</ele>
        <time>2022-03-03T09:21:47.000Z</time>
      </trkpt>
      <trkpt lat="44.13753" lon="6.10862">
        <ele>924</ele>
        <time>2022-03-03T09:21:48.000Z</time>
      </trkpt>
      <trkpt lat="44.13753" lon="6.10862">
        <ele>924</ele>
        <time>2022-03-03T09:21:49.000Z</time>
      </trkpt>
      <trkpt lat="44.13753" lon="6.10862">
        <ele>924</ele>
        <time>2022-03-03T09:21:50.000Z</time>
      </trkpt>
      <trkpt lat="44.13753" lon="6.10863">
        <ele>924</ele>
        <time>2022-03-03T09:21:51.000Z</time>
      </trkpt>
      <trkpt lat="44.13753" lon="6.10863">
        <ele>924</ele>
        <time>2022-03-03T09:21:52.000Z</time>
      </trkpt>
      <trkpt lat="44.13753" lon="6.10863">
        <ele>924</ele>
        <time>2022-03-03T09:21:53.000Z</time>
      </trkpt>
      <trkpt lat="44.13753" lon="6.10863">
        <ele>924</ele>
        <time>2022-03-03T09:21:54.000Z</time>
      </trkpt>
      <trkpt lat="44.13753" lon="6.10863">
        <ele>924</ele>
        <time>2022-03-03T09:21:55.000Z</time>
      </trkpt>
      <trkpt lat="44.13753" lon="6.10862">
        <ele>924</ele>
        <time>2022-03-03T09:21:56.000Z</time>
      </trkpt>
      <trkpt lat="44.13753" lon="6.10862">
        <ele>924</ele>
        <time>2022-03-03T09:21:57.000Z</time>
      </trkpt>
      <trkpt lat="44.13753" lon="6.10862">
        <ele>924</ele>
        <time>2022-03-03T09:21:58.000Z</time>
      </trkpt>
      <trkpt lat="44.13753" lon="6.10862">
        <ele>924</ele>
        <time>2022-03-03T09:21:59.000Z</time>
      </trkpt>
      <trkpt lat="44.13753" lon="6.10862">
        <ele>924</ele>
        <time>2022-03-03T09:22:00.000Z</time>
      </trkpt>
      <trkpt lat="44.13753" lon="6.10862">
        <ele>924</ele>
        <time>2022-03-03T09:22:01.000Z</time>
      </trkpt>
      <trkpt lat="44.13753" lon="6.10862">
        <ele>924</ele>
        <time>2022-03-03T09:22:02.000Z</time>
      </trkpt>
      <trkpt lat="44.13753" lon="6.10862">
        <ele>924</ele>
        <time>2022-03-03T09:22:03.000Z</time>
      </trkpt>
      <trkpt lat="44.13754" lon="6.10862">
        <ele>924</ele>
        <time>2022-03-03T09:22:04.000Z</time>
      </trkpt>
      <trkpt lat="44.13754" lon="6.10862">
        <ele>924</ele>
        <time>2022-03-03T09:22:05.000Z</time>
      </trkpt>
      <trkpt lat="44.13754" lon="6.10862">
        <ele>924</ele>
        <time>2022-03-03T09:22:06.000Z</time>
      </trkpt>
      <trkpt lat="44.13754" lon="6.10862">
        <ele>924</ele>
        <time>2022-03-03T09:22:07.000Z</time>
      </trkpt>
      <trkpt lat="44.13754" lon="6.10862">
        <ele>924</ele>
        <time>2022-03-03T09:22:08.000Z</time>
      </trkpt>
      <trkpt lat="44.13754" lon="6.10862">
        <ele>924</ele>
        <time>2022-03-03T09:22:09.000Z</time>
      </trkpt>
      <trkpt lat="44.13754" lon="6.10862">
        <ele>924</ele>
        <time>2022-03-03T09:22:10.000Z</time>
      </trkpt>
      <trkpt lat="44.13754" lon="6.10862">
        <ele>924</ele>
        <time>2022-03-03T09:22:11.000Z</time>
      </trkpt>
      <trkpt lat="44.13754" lon="6.10862">
        <ele>924</ele>
        <time>2022-03-03T09:22:12.000Z</time>
      </trkpt>
      <trkpt lat="44.13754" lon="6.10862">
        <ele>924</ele>
        <time>2022-03-03T09:22:13.000Z</time>
      </trkpt>
      <trkpt lat="44.13754" lon="6.10862">
        <ele>924</ele>
        <time>2022-03-03T09:22:14.000Z</time>
      </trkpt>
      <trkpt lat="44.13754" lon="6.10862">
        <ele>924</ele>
        <time>2022-03-03T09:22:15.000Z</time>
      </trkpt>
      <trkpt lat="44.13754" lon="6.10862">
        <ele>924</ele>
        <time>2022-03-03T09:22:16.000Z</time>
      </trkpt>
      <trkpt lat="44.13754" lon="6.10862">
        <ele>924</ele>
        <time>2022-03-03T09:22:17.000Z</time>
      </trkpt>
      <trkpt lat="44.13754" lon="6.10862">
        <ele>924</ele>
        <time>2022-03-03T09:22:18.000Z</time>
      </trkpt>
      <trkpt lat="44.13754" lon="6.10862">
        <ele>924</ele>
        <time>2022-03-03T09:22:19.000Z</time>
      </trkpt>
      <trkpt lat="44.13754" lon="6.10862">
        <ele>924</ele>
        <time>2022-03-03T09:22:20.000Z</time>
      </trkpt>
      <trkpt lat="44.13754" lon="6.10862">
        <ele>924</ele>
        <time>2022-03-03T09:22:21.000Z</time>
      </trkpt>
      <trkpt lat="44.13754" lon="6.10862">
        <ele>924</ele>
        <time>2022-03-03T09:22:22.000Z</time>
      </trkpt>
      <trkpt lat="44.13754" lon="6.10862">
        <ele>924</ele>
        <time>2022-03-03T09:22:23.000Z</time>
      </trkpt>
      <trkpt lat="44.13754" lon="6.10862">
        <ele>924</ele>
        <time>2022-03-03T09:22:24.000Z</time>
      </trkpt>
      <trkpt lat="44.13754" lon="6.10862">
        <ele>924</ele>
        <time>2022-03-03T09:22:25.000Z</time>
      </trkpt>
      <trkpt lat="44.13754" lon="6.10862">
        <ele>924</ele>
        <time>2022-03-03T09:22:26.000Z</time>
      </trkpt>
      <trkpt lat="44.13754" lon="6.10862">
        <ele>924</ele>
        <time>2022-03-03T09:22:27.000Z</time>
      </trkpt>
      <trkpt lat="44.13754" lon="6.10862">
        <ele>924</ele>
        <time>2022-03-03T09:22:28.000Z</time>
      </trkpt>
      <trkpt lat="44.13754" lon="6.10862">
        <ele>924</ele>
        <time>2022-03-03T09:22:29.000Z</time>
      </trkpt>
      <trkpt lat="44.13754" lon="6.10862">
        <ele>924</ele>
        <time>2022-03-03T09:22:30.000Z</time>
      </trkpt>
      <trkpt lat="44.13754" lon="6.10862">
        <ele>924</ele>
        <time>2022-03-03T09:22:31.000Z</time>
      </trkpt>
      <trkpt lat="44.13754" lon="6.10862">
        <ele>924</ele>
        <time>2022-03-03T09:22:32.000Z</time>
      </trkpt>
      <trkpt lat="44.13754" lon="6.10862">
        <ele>924</ele>
        <time>2022-03-03T09:22:33.000Z</time>
      </trkpt>
      <trkpt lat="44.13754" lon="6.10862">
        <ele>924</ele>
        <time>2022-03-03T09:22:34.000Z</time>
      </trkpt>
      <trkpt lat="44.13754" lon="6.10862">
        <ele>924</ele>
        <time>2022-03-03T09:22:35.000Z</time>
      </trkpt>
      <trkpt lat="44.13754" lon="6.10862">
        <ele>924</ele>
        <time>2022-03-03T09:22:36.000Z</time>
      </trkpt>
      <trkpt lat="44.13754" lon="6.10862">
        <ele>924</ele>
        <time>2022-03-03T09:22:37.000Z</time>
      </trkpt>
      <trkpt lat="44.13754" lon="6.10862">
        <ele>924</ele>
        <time>2022-03-03T09:22:38.000Z</time>
      </trkpt>
      <trkpt lat="44.13754" lon="6.10862">
        <ele>924</ele>
        <time>2022-03-03T09:22:39.000Z</time>
      </trkpt>
      <trkpt lat="44.13754" lon="6.10862">
        <ele>924</ele>
        <time>2022-03-03T09:22:40.000Z</time>
      </trkpt>
      <trkpt lat="44.13754" lon="6.10862">
        <ele>924</ele>
        <time>2022-03-03T09:22:41.000Z</time>
      </trkpt>
      <trkpt lat="44.13754" lon="6.10862">
        <ele>924</ele>
        <time>2022-03-03T09:22:42.000Z</time>
      </trkpt>
      <trkpt lat="44.13754" lon="6.10862">
        <ele>924</ele>
        <time>2022-03-03T09:22:43.000Z</time>
      </trkpt>
      <trkpt lat="44.13754" lon="6.10862">
        <ele>924</ele>
        <time>2022-03-03T09:22:44.000Z</time>
      </trkpt>
      <trkpt lat="44.13754" lon="6.10862">
        <ele>924</ele>
        <time>2022-03-03T09:22:45.000Z</time>
      </trkpt>
      <trkpt lat="44.13754" lon="6.10862">
        <ele>924</ele>
        <time>2022-03-03T09:22:46.000Z</time>
      </trkpt>
      <trkpt lat="44.13754" lon="6.10862">
        <ele>924</ele>
        <time>2022-03-03T09:22:47.000Z</time>
      </trkpt>
      <trkpt lat="44.13754" lon="6.10862">
        <ele>924</ele>
        <time>2022-03-03T09:22:48.000Z</time>
      </trkpt>
      <trkpt lat="44.13754" lon="6.10862">
        <ele>924</ele>
        <time>2022-03-03T09:22:49.000Z</time>
      </trkpt>
      <trkpt lat="44.13754" lon="6.10862">
        <ele>924</ele>
        <time>2022-03-03T09:22:50.000Z</time>
      </trkpt>
      <trkpt lat="44.13754" lon="6.10862">
        <ele>924</ele>
        <time>2022-03-03T09:22:51.000Z</time>
      </trkpt>
      <trkpt lat="44.13754" lon="6.10862">
        <ele>924</ele>
        <time>2022-03-03T09:22:52.000Z</time>
      </trkpt>
      <trkpt lat="44.13754" lon="6.10862">
        <ele>924</ele>
        <time>2022-03-03T09:22:53.000Z</time>
      </trkpt>
      <trkpt lat="44.13754" lon="6.10862">
        <ele>924</ele>
        <time>2022-03-03T09:22:54.000Z</time>
      </trkpt>
      <trkpt lat="44.13754" lon="6.10862">
        <ele>924</ele>
        <time>2022-03-03T09:22:55.000Z</time>
      </trkpt>
      <trkpt lat="44.13754" lon="6.10862">
        <ele>924</ele>
        <time>2022-03-03T09:22:56.000Z</time>
      </trkpt>
      <trkpt lat="44.13754" lon="6.10862">
        <ele>924</ele>
        <time>2022-03-03T09:22:57.000Z</time>
      </trkpt>
      <trkpt lat="44.13754" lon="6.10862">
        <ele>924</ele>
        <time>2022-03-03T09:22:58.000Z</time>
      </trkpt>
      <trkpt lat="44.13754" lon="6.10862">
        <ele>924</ele>
        <time>2022-03-03T09:22:59.000Z</time>
      </trkpt>
      <trkpt lat="44.13754" lon="6.10862">
        <ele>924</ele>
        <time>2022-03-03T09:23:00.000Z</time>
      </trkpt>
      <trkpt lat="44.13754" lon="6.10862">
        <ele>924</ele>
        <time>2022-03-03T09:23:01.000Z</time>
      </trkpt>
      <trkpt lat="44.13754" lon="6.10862">
        <ele>924</ele>
        <time>2022-03-03T09:23:02.000Z</time>
      </trkpt>
      <trkpt lat="44.13754" lon="6.10862">
        <ele>924</ele>
        <time>2022-03-03T09:23:03.000Z</time>
      </trkpt>
      <trkpt lat="44.13754" lon="6.10862">
        <ele>924</ele>
        <time>2022-03-03T09:23:04.000Z</time>
      </trkpt>
      <trkpt lat="44.13754" lon="6.10862">
        <ele>924</ele>
        <time>2022-03-03T09:23:05.000Z</time>
      </trkpt>
      <trkpt lat="44.13754" lon="6.10862">
        <ele>924</ele>
        <time>2022-03-03T09:23:06.000Z</time>
      </trkpt>
      <trkpt lat="44.13754" lon="6.10862">
        <ele>924</ele>
        <time>2022-03-03T09:23:07.000Z</time>
      </trkpt>
      <trkpt lat="44.13754" lon="6.10862">
        <ele>924</ele>
        <time>2022-03-03T09:23:08.000Z</time>
      </trkpt>
      <trkpt lat="44.13754" lon="6.10862">
        <ele>924</ele>
        <time>2022-03-03T09:23:09.000Z</time>
      </trkpt>
      <trkpt lat="44.13754" lon="6.10862">
        <ele>924</ele>
        <time>2022-03-03T09:23:10.000Z</time>
      </trkpt>
      <trkpt lat="44.13754" lon="6.10862">
        <ele>924</ele>
        <time>2022-03-03T09:23:11.000Z</time>
      </trkpt>
      <trkpt lat="44.13754" lon="6.10862">
        <ele>924</ele>
        <time>2022-03-03T09:23:12.000Z</time>
      </trkpt>
      <trkpt lat="44.13754" lon="6.10862">
        <ele>924</ele>
        <time>2022-03-03T09:23:13.000Z</time>
      </trkpt>
      <trkpt lat="44.13754" lon="6.10862">
        <ele>924</ele>
        <time>2022-03-03T09:23:14.000Z</time>
      </trkpt>
      <trkpt lat="44.13754" lon="6.10862">
        <ele>924</ele>
        <time>2022-03-03T09:23:15.000Z</time>
      </trkpt>
      <trkpt lat="44.13754" lon="6.10862">
        <ele>924</ele>
        <time>2022-03-03T09:23:16.000Z</time>
      </trkpt>
      <trkpt lat="44.13754" lon="6.10862">
        <ele>924</ele>
        <time>2022-03-03T09:23:17.000Z</time>
      </trkpt>
      <trkpt lat="44.13754" lon="6.10862">
        <ele>924</ele>
        <time>2022-03-03T09:23:18.000Z</time>
      </trkpt>
      <trkpt lat="44.13754" lon="6.10862">
        <ele>924</ele>
        <time>2022-03-03T09:23:19.000Z</time>
      </trkpt>
      <trkpt lat="44.13754" lon="6.10862">
        <ele>924</ele>
        <time>2022-03-03T09:23:20.000Z</time>
      </trkpt>
      <trkpt lat="44.13754" lon="6.10862">
        <ele>924</ele>
        <time>2022-03-03T09:23:21.000Z</time>
      </trkpt>
      <trkpt lat="44.13754" lon="6.10862">
        <ele>924</ele>
        <time>2022-03-03T09:23:22.000Z</time>
      </trkpt>
      <trkpt lat="44.13754" lon="6.10862">
        <ele>924</ele>
        <time>2022-03-03T09:23:23.000Z</time>
      </trkpt>
      <trkpt lat="44.13754" lon="6.10862">
        <ele>924</ele>
        <time>2022-03-03T09:23:24.000Z</time>
      </trkpt>
      <trkpt lat="44.13754" lon="6.10862">
        <ele>924</ele>
        <time>2022-03-03T09:23:25.000Z</time>
      </trkpt>
      <trkpt lat="44.13754" lon="6.10862">
        <ele>924</ele>
        <time>2022-03-03T09:23:26.000Z</time>
      </trkpt>
      <trkpt lat="44.13754" lon="6.10862">
        <ele>924</ele>
        <time>2022-03-03T09:23:27.000Z</time>
      </trkpt>
      <trkpt lat="44.13754" lon="6.10862">
        <ele>924</ele>
        <time>2022-03-03T09:23:28.000Z</time>
      </trkpt>
      <trkpt lat="44.13754" lon="6.10862">
        <ele>924</ele>
        <time>2022-03-03T09:23:29.000Z</time>
      </trkpt>
      <trkpt lat="44.13754" lon="6.10862">
        <ele>924</ele>
        <time>2022-03-03T09:23:30.000Z</time>
      </trkpt>
      <trkpt lat="44.13754" lon="6.10862">
        <ele>924</ele>
        <time>2022-03-03T09:23:31.000Z</time>
      </trkpt>
      <trkpt lat="44.13754" lon="6.10862">
        <ele>924</ele>
        <time>2022-03-03T09:23:32.000Z</time>
      </trkpt>
      <trkpt lat="44.13754" lon="6.10862">
        <ele>924</ele>
        <time>2022-03-03T09:23:33.000Z</time>
      </trkpt>
      <trkpt lat="44.13754" lon="6.10862">
        <ele>924</ele>
        <time>2022-03-03T09:23:34.000Z</time>
      </trkpt>
      <trkpt lat="44.13754" lon="6.10862">
        <ele>924</ele>
        <time>2022-03-03T09:23:35.000Z</time>
      </trkpt>
      <trkpt lat="44.13754" lon="6.10862">
        <ele>924</ele>
        <time>2022-03-03T09:23:36.000Z</time>
      </trkpt>
      <trkpt lat="44.13754" lon="6.10862">
        <ele>924</ele>
        <time>2022-03-03T09:23:37.000Z</time>
      </trkpt>
      <trkpt lat="44.13754" lon="6.10862">
        <ele>924</ele>
        <time>2022-03-03T09:23:38.000Z</time>
      </trkpt>
      <trkpt lat="44.13754" lon="6.10862">
        <ele>924</ele>
        <time>2022-03-03T09:23:39.000Z</time>
      </trkpt>
      <trkpt lat="44.13754" lon="6.10862">
        <ele>924</ele>
        <time>2022-03-03T09:23:40.000Z</time>
      </trkpt>
      <trkpt lat="44.13754" lon="6.10863">
        <ele>924</ele>
        <time>2022-03-03T09:23:41.000Z</time>
      </trkpt>
      <trkpt lat="44.13755" lon="6.10863">
        <ele>923</ele>
        <time>2022-03-03T09:23:42.000Z</time>
      </trkpt>
      <trkpt lat="44.13754" lon="6.10863">
        <ele>923</ele>
        <time>2022-03-03T09:23:43.000Z</time>
      </trkpt>
      <trkpt lat="44.13753" lon="6.10862">
        <ele>923</ele>
        <time>2022-03-03T09:23:44.000Z</time>
      </trkpt>
      <trkpt lat="44.13752" lon="6.10861">
        <ele>923</ele>
        <time>2022-03-03T09:23:45.000Z</time>
      </trkpt>
      <trkpt lat="44.13752" lon="6.1086">
        <ele>924</ele>
        <time>2022-03-03T09:23:46.000Z</time>
      </trkpt>
      <trkpt lat="44.13751" lon="6.10859">
        <ele>924</ele>
        <time>2022-03-03T09:23:47.000Z</time>
      </trkpt>
      <trkpt lat="44.1375" lon="6.10859">
        <ele>924</ele>
        <time>2022-03-03T09:23:48.000Z</time>
      </trkpt>
      <trkpt lat="44.13749" lon="6.10858">
        <ele>924</ele>
        <time>2022-03-03T09:23:49.000Z</time>
      </trkpt>
      <trkpt lat="44.13749" lon="6.10857">
        <ele>924</ele>
        <time>2022-03-03T09:23:50.000Z</time>
      </trkpt>
      <trkpt lat="44.13748" lon="6.10857">
        <ele>924</ele>
        <time>2022-03-03T09:23:51.000Z</time>
      </trkpt>
      <trkpt lat="44.13747" lon="6.10856">
        <ele>924</ele>
        <time>2022-03-03T09:23:52.000Z</time>
      </trkpt>
      <trkpt lat="44.13747" lon="6.10855">
        <ele>924</ele>
        <time>2022-03-03T09:23:53.000Z</time>
      </trkpt>
      <trkpt lat="44.13746" lon="6.10854">
        <ele>924</ele>
        <time>2022-03-03T09:23:54.000Z</time>
      </trkpt>
      <trkpt lat="44.13745" lon="6.10854">
        <ele>924</ele>
        <time>2022-03-03T09:23:55.000Z</time>
      </trkpt>
      <trkpt lat="44.13744" lon="6.10853">
        <ele>924</ele>
        <time>2022-03-03T09:23:56.000Z</time>
      </trkpt>
      <trkpt lat="44.13743" lon="6.10852">
        <ele>924</ele>
        <time>2022-03-03T09:23:57.000Z</time>
      </trkpt>
      <trkpt lat="44.13743" lon="6.10851">
        <ele>924</ele>
        <time>2022-03-03T09:23:58.000Z</time>
      </trkpt>
      <trkpt lat="44.13742" lon="6.1085">
        <ele>924</ele>
        <time>2022-03-03T09:23:59.000Z</time>
      </trkpt>
      <trkpt lat="44.13741" lon="6.1085">
        <ele>924</ele>
        <time>2022-03-03T09:24:00.000Z</time>
      </trkpt>
      <trkpt lat="44.1374" lon="6.10849">
        <ele>924</ele>
        <time>2022-03-03T09:24:01.000Z</time>
      </trkpt>
      <trkpt lat="44.13739" lon="6.10848">
        <ele>924</ele>
        <time>2022-03-03T09:24:02.000Z</time>
      </trkpt>
      <trkpt lat="44.13739" lon="6.10846">
        <ele>924</ele>
        <time>2022-03-03T09:24:03.000Z</time>
      </trkpt>
      <trkpt lat="44.13738" lon="6.10845">
        <ele>924</ele>
        <time>2022-03-03T09:24:04.000Z</time>
      </trkpt>
      <trkpt lat="44.13737" lon="6.10843">
        <ele>924</ele>
        <time>2022-03-03T09:24:05.000Z</time>
      </trkpt>
      <trkpt lat="44.13737" lon="6.10842">
        <ele>924</ele>
        <time>2022-03-03T09:24:06.000Z</time>
      </trkpt>
      <trkpt lat="44.13737" lon="6.1084">
        <ele>924</ele>
        <time>2022-03-03T09:24:07.000Z</time>
      </trkpt>
      <trkpt lat="44.13736" lon="6.10839">
        <ele>924</ele>
        <time>2022-03-03T09:24:08.000Z</time>
      </trkpt>
      <trkpt lat="44.13735" lon="6.10837">
        <ele>924</ele>
        <time>2022-03-03T09:24:09.000Z</time>
      </trkpt>
      <trkpt lat="44.13735" lon="6.10836">
        <ele>924</ele>
        <time>2022-03-03T09:24:10.000Z</time>
      </trkpt>
      <trkpt lat="44.13734" lon="6.10835">
        <ele>925</ele>
        <time>2022-03-03T09:24:11.000Z</time>
      </trkpt>
      <trkpt lat="44.13733" lon="6.10834">
        <ele>925</ele>
        <time>2022-03-03T09:24:12.000Z</time>
      </trkpt>
      <trkpt lat="44.13733" lon="6.10832">
        <ele>925</ele>
        <time>2022-03-03T09:24:13.000Z</time>
      </trkpt>
      <trkpt lat="44.13733" lon="6.10831">
        <ele>925</ele>
        <time>2022-03-03T09:24:14.000Z</time>
      </trkpt>
      <trkpt lat="44.13732" lon="6.1083">
        <ele>925</ele>
        <time>2022-03-03T09:24:15.000Z</time>
      </trkpt>
      <trkpt lat="44.13731" lon="6.10828">
        <ele>925</ele>
        <time>2022-03-03T09:24:16.000Z</time>
      </trkpt>
      <trkpt lat="44.13731" lon="6.10827">
        <ele>925</ele>
        <time>2022-03-03T09:24:17.000Z</time>
      </trkpt>
      <trkpt lat="44.1373" lon="6.10826">
        <ele>925</ele>
        <time>2022-03-03T09:24:18.000Z</time>
      </trkpt>
      <trkpt lat="44.1373" lon="6.10825">
        <ele>925</ele>
        <time>2022-03-03T09:24:19.000Z</time>
      </trkpt>
      <trkpt lat="44.13729" lon="6.10823">
        <ele>925</ele>
        <time>2022-03-03T09:24:20.000Z</time>
      </trkpt>
      <trkpt lat="44.13729" lon="6.10822">
        <ele>925</ele>
        <time>2022-03-03T09:24:21.000Z</time>
      </trkpt>
      <trkpt lat="44.13728" lon="6.10821">
        <ele>925</ele>
        <time>2022-03-03T09:24:22.000Z</time>
      </trkpt>
      <trkpt lat="44.13728" lon="6.10819">
        <ele>925</ele>
        <time>2022-03-03T09:24:23.000Z</time>
      </trkpt>
      <trkpt lat="44.13728" lon="6.10818">
        <ele>925</ele>
        <time>2022-03-03T09:24:24.000Z</time>
      </trkpt>
      <trkpt lat="44.13727" lon="6.10817">
        <ele>925</ele>
        <time>2022-03-03T09:24:25.000Z</time>
      </trkpt>
      <trkpt lat="44.13727" lon="6.10816">
        <ele>925</ele>
        <time>2022-03-03T09:24:26.000Z</time>
      </trkpt>
      <trkpt lat="44.13726" lon="6.10815">
        <ele>925</ele>
        <time>2022-03-03T09:24:27.000Z</time>
      </trkpt>
      <trkpt lat="44.13726" lon="6.10813">
        <ele>925</ele>
        <time>2022-03-03T09:24:28.000Z</time>
      </trkpt>
      <trkpt lat="44.13725" lon="6.10812">
        <ele>925</ele>
        <time>2022-03-03T09:24:29.000Z</time>
      </trkpt>
      <trkpt lat="44.13725" lon="6.10811">
        <ele>925</ele>
        <time>2022-03-03T09:24:30.000Z</time>
      </trkpt>
      <trkpt lat="44.13725" lon="6.10809">
        <ele>925</ele>
        <time>2022-03-03T09:24:31.000Z</time>
      </trkpt>
      <trkpt lat="44.13724" lon="6.10808">
        <ele>925</ele>
        <time>2022-03-03T09:24:32.000Z</time>
      </trkpt>
      <trkpt lat="44.13724" lon="6.10807">
        <ele>925</ele>
        <time>2022-03-03T09:24:33.000Z</time>
      </trkpt>
      <trkpt lat="44.13724" lon="6.10805">
        <ele>925</ele>
        <time>2022-03-03T09:24:34.000Z</time>
      </trkpt>
      <trkpt lat="44.13724" lon="6.10804">
        <ele>925</ele>
        <time>2022-03-03T09:24:35.000Z</time>
      </trkpt>
      <trkpt lat="44.13723" lon="6.10803">
        <ele>925</ele>
        <time>2022-03-03T09:24:36.000Z</time>
      </trkpt>
      <trkpt lat="44.13723" lon="6.10801">
        <ele>925</ele>
        <time>2022-03-03T09:24:37.000Z</time>
      </trkpt>
      <trkpt lat="44.13723" lon="6.108">
        <ele>925</ele>
        <time>2022-03-03T09:24:38.000Z</time>
      </trkpt>
      <trkpt lat="44.13722" lon="6.10799">
        <ele>925</ele>
        <time>2022-03-03T09:24:39.000Z</time>
      </trkpt>
      <trkpt lat="44.13722" lon="6.10798">
        <ele>925</ele>
        <time>2022-03-03T09:24:40.000Z</time>
      </trkpt>
      <trkpt lat="44.13722" lon="6.10797">
        <ele>925</ele>
        <time>2022-03-03T09:24:41.000Z</time>
      </trkpt>
      <trkpt lat="44.13721" lon="6.10795">
        <ele>925</ele>
        <time>2022-03-03T09:24:42.000Z</time>
      </trkpt>
      <trkpt lat="44.13721" lon="6.10794">
        <ele>925</ele>
        <time>2022-03-03T09:24:43.000Z</time>
      </trkpt>
      <trkpt lat="44.13721" lon="6.10793">
        <ele>925</ele>
        <time>2022-03-03T09:24:44.000Z</time>
      </trkpt>
      <trkpt lat="44.13721" lon="6.10792">
        <ele>925</ele>
        <time>2022-03-03T09:24:45.000Z</time>
      </trkpt>
      <trkpt lat="44.1372" lon="6.10791">
        <ele>925</ele>
        <time>2022-03-03T09:24:46.000Z</time>
      </trkpt>
      <trkpt lat="44.1372" lon="6.10789">
        <ele>925</ele>
        <time>2022-03-03T09:24:47.000Z</time>
      </trkpt>
      <trkpt lat="44.13719" lon="6.10788">
        <ele>925</ele>
        <time>2022-03-03T09:24:48.000Z</time>
      </trkpt>
      <trkpt lat="44.13719" lon="6.10787">
        <ele>925</ele>
        <time>2022-03-03T09:24:49.000Z</time>
      </trkpt>
      <trkpt lat="44.13719" lon="6.10785">
        <ele>925</ele>
        <time>2022-03-03T09:24:50.000Z</time>
      </trkpt>
      <trkpt lat="44.13718" lon="6.10784">
        <ele>925</ele>
        <time>2022-03-03T09:24:51.000Z</time>
      </trkpt>
      <trkpt lat="44.13718" lon="6.10783">
        <ele>925</ele>
        <time>2022-03-03T09:24:52.000Z</time>
      </trkpt>
      <trkpt lat="44.13717" lon="6.10782">
        <ele>925</ele>
        <time>2022-03-03T09:24:53.000Z</time>
      </trkpt>
      <trkpt lat="44.13717" lon="6.10781">
        <ele>925</ele>
        <time>2022-03-03T09:24:54.000Z</time>
      </trkpt>
      <trkpt lat="44.13716" lon="6.1078">
        <ele>925</ele>
        <time>2022-03-03T09:24:55.000Z</time>
      </trkpt>
      <trkpt lat="44.13716" lon="6.10779">
        <ele>925</ele>
        <time>2022-03-03T09:24:56.000Z</time>
      </trkpt>
      <trkpt lat="44.13716" lon="6.10778">
        <ele>925</ele>
        <time>2022-03-03T09:24:57.000Z</time>
      </trkpt>
      <trkpt lat="44.13715" lon="6.10776">
        <ele>925</ele>
        <time>2022-03-03T09:24:58.000Z</time>
      </trkpt>
      <trkpt lat="44.13715" lon="6.10775">
        <ele>925</ele>
        <time>2022-03-03T09:24:59.000Z</time>
      </trkpt>
      <trkpt lat="44.13715" lon="6.10774">
        <ele>925</ele>
        <time>2022-03-03T09:25:00.000Z</time>
      </trkpt>
      <trkpt lat="44.13714" lon="6.10773">
        <ele>925</ele>
        <time>2022-03-03T09:25:01.000Z</time>
      </trkpt>
      <trkpt lat="44.13714" lon="6.10772">
        <ele>925</ele>
        <time>2022-03-03T09:25:02.000Z</time>
      </trkpt>
      <trkpt lat="44.13713" lon="6.1077">
        <ele>925</ele>
        <time>2022-03-03T09:25:03.000Z</time>
      </trkpt>
      <trkpt lat="44.13713" lon="6.10769">
        <ele>925</ele>
        <time>2022-03-03T09:25:04.000Z</time>
      </trkpt>
      <trkpt lat="44.13712" lon="6.10768">
        <ele>925</ele>
        <time>2022-03-03T09:25:05.000Z</time>
      </trkpt>
      <trkpt lat="44.13712" lon="6.10767">
        <ele>925</ele>
        <time>2022-03-03T09:25:06.000Z</time>
      </trkpt>
      <trkpt lat="44.13711" lon="6.10766">
        <ele>926</ele>
        <time>2022-03-03T09:25:07.000Z</time>
      </trkpt>
      <trkpt lat="44.13711" lon="6.10765">
        <ele>925</ele>
        <time>2022-03-03T09:25:08.000Z</time>
      </trkpt>
      <trkpt lat="44.1371" lon="6.10764">
        <ele>926</ele>
        <time>2022-03-03T09:25:09.000Z</time>
      </trkpt>
      <trkpt lat="44.13709" lon="6.10762">
        <ele>926</ele>
        <time>2022-03-03T09:25:10.000Z</time>
      </trkpt>
      <trkpt lat="44.13709" lon="6.10761">
        <ele>926</ele>
        <time>2022-03-03T09:25:11.000Z</time>
      </trkpt>
      <trkpt lat="44.13708" lon="6.1076">
        <ele>926</ele>
        <time>2022-03-03T09:25:12.000Z</time>
      </trkpt>
      <trkpt lat="44.13707" lon="6.10759">
        <ele>926</ele>
        <time>2022-03-03T09:25:13.000Z</time>
      </trkpt>
      <trkpt lat="44.13707" lon="6.10758">
        <ele>926</ele>
        <time>2022-03-03T09:25:14.000Z</time>
      </trkpt>
      <trkpt lat="44.13706" lon="6.10757">
        <ele>926</ele>
        <time>2022-03-03T09:25:15.000Z</time>
      </trkpt>
      <trkpt lat="44.13705" lon="6.10756">
        <ele>926</ele>
        <time>2022-03-03T09:25:16.000Z</time>
      </trkpt>
      <trkpt lat="44.13704" lon="6.10755">
        <ele>926</ele>
        <time>2022-03-03T09:25:17.000Z</time>
      </trkpt>
      <trkpt lat="44.13704" lon="6.10755">
        <ele>926</ele>
        <time>2022-03-03T09:25:18.000Z</time>
      </trkpt>
      <trkpt lat="44.13703" lon="6.10754">
        <ele>926</ele>
        <time>2022-03-03T09:25:19.000Z</time>
      </trkpt>
      <trkpt lat="44.13702" lon="6.10752">
        <ele>926</ele>
        <time>2022-03-03T09:25:20.000Z</time>
      </trkpt>
      <trkpt lat="44.13702" lon="6.10752">
        <ele>926</ele>
        <time>2022-03-03T09:25:21.000Z</time>
      </trkpt>
      <trkpt lat="44.13701" lon="6.1075">
        <ele>926</ele>
        <time>2022-03-03T09:25:22.000Z</time>
      </trkpt>
      <trkpt lat="44.13701" lon="6.10749">
        <ele>927</ele>
        <time>2022-03-03T09:25:23.000Z</time>
      </trkpt>
      <trkpt lat="44.137" lon="6.10749">
        <ele>927</ele>
        <time>2022-03-03T09:25:24.000Z</time>
      </trkpt>
      <trkpt lat="44.13699" lon="6.10747">
        <ele>927</ele>
        <time>2022-03-03T09:25:25.000Z</time>
      </trkpt>
      <trkpt lat="44.13699" lon="6.10746">
        <ele>927</ele>
        <time>2022-03-03T09:25:26.000Z</time>
      </trkpt>
      <trkpt lat="44.13698" lon="6.10745">
        <ele>927</ele>
        <time>2022-03-03T09:25:27.000Z</time>
      </trkpt>
      <trkpt lat="44.13697" lon="6.10744">
        <ele>927</ele>
        <time>2022-03-03T09:25:28.000Z</time>
      </trkpt>
      <trkpt lat="44.13697" lon="6.10743">
        <ele>927</ele>
        <time>2022-03-03T09:25:29.000Z</time>
      </trkpt>
      <trkpt lat="44.13696" lon="6.10742">
        <ele>927</ele>
        <time>2022-03-03T09:25:30.000Z</time>
      </trkpt>
      <trkpt lat="44.13696" lon="6.10741">
        <ele>927</ele>
        <time>2022-03-03T09:25:31.000Z</time>
      </trkpt>
      <trkpt lat="44.13695" lon="6.1074">
        <ele>927</ele>
        <time>2022-03-03T09:25:32.000Z</time>
      </trkpt>
      <trkpt lat="44.13695" lon="6.10739">
        <ele>927</ele>
        <time>2022-03-03T09:25:33.000Z</time>
      </trkpt>
      <trkpt lat="44.13694" lon="6.10738">
        <ele>928</ele>
        <time>2022-03-03T09:25:34.000Z</time>
      </trkpt>
      <trkpt lat="44.13694" lon="6.10737">
        <ele>928</ele>
        <time>2022-03-03T09:25:35.000Z</time>
      </trkpt>
      <trkpt lat="44.13693" lon="6.10736">
        <ele>928</ele>
        <time>2022-03-03T09:25:36.000Z</time>
      </trkpt>
      <trkpt lat="44.13692" lon="6.10735">
        <ele>928</ele>
        <time>2022-03-03T09:25:37.000Z</time>
      </trkpt>
      <trkpt lat="44.13692" lon="6.10734">
        <ele>928</ele>
        <time>2022-03-03T09:25:38.000Z</time>
      </trkpt>
      <trkpt lat="44.13691" lon="6.10733">
        <ele>928</ele>
        <time>2022-03-03T09:25:39.000Z</time>
      </trkpt>
      <trkpt lat="44.13691" lon="6.10732">
        <ele>929</ele>
        <time>2022-03-03T09:25:40.000Z</time>
      </trkpt>
      <trkpt lat="44.1369" lon="6.10731">
        <ele>929</ele>
        <time>2022-03-03T09:25:41.000Z</time>
      </trkpt>
      <trkpt lat="44.1369" lon="6.1073">
        <ele>929</ele>
        <time>2022-03-03T09:25:42.000Z</time>
      </trkpt>
      <trkpt lat="44.13689" lon="6.10729">
        <ele>929</ele>
        <time>2022-03-03T09:25:43.000Z</time>
      </trkpt>
      <trkpt lat="44.13688" lon="6.10728">
        <ele>929</ele>
        <time>2022-03-03T09:25:44.000Z</time>
      </trkpt>
      <trkpt lat="44.13688" lon="6.10727">
        <ele>929</ele>
        <time>2022-03-03T09:25:45.000Z</time>
      </trkpt>
      <trkpt lat="44.13688" lon="6.10726">
        <ele>929</ele>
        <time>2022-03-03T09:25:46.000Z</time>
      </trkpt>
      <trkpt lat="44.13688" lon="6.10724">
        <ele>929</ele>
        <time>2022-03-03T09:25:47.000Z</time>
      </trkpt>
      <trkpt lat="44.13688" lon="6.10723">
        <ele>929</ele>
        <time>2022-03-03T09:25:48.000Z</time>
      </trkpt>
      <trkpt lat="44.13687" lon="6.10722">
        <ele>930</ele>
        <time>2022-03-03T09:25:49.000Z</time>
      </trkpt>
      <trkpt lat="44.13687" lon="6.10722">
        <ele>930</ele>
        <time>2022-03-03T09:25:50.000Z</time>
      </trkpt>
      <trkpt lat="44.13687" lon="6.10721">
        <ele>930</ele>
        <time>2022-03-03T09:25:51.000Z</time>
      </trkpt>
      <trkpt lat="44.13687" lon="6.10721">
        <ele>930</ele>
        <time>2022-03-03T09:25:52.000Z</time>
      </trkpt>
      <trkpt lat="44.13687" lon="6.10721">
        <ele>930</ele>
        <time>2022-03-03T09:25:53.000Z</time>
      </trkpt>
      <trkpt lat="44.13688" lon="6.10721">
        <ele>930</ele>
        <time>2022-03-03T09:25:54.000Z</time>
      </trkpt>
      <trkpt lat="44.13688" lon="6.10721">
        <ele>930</ele>
        <time>2022-03-03T09:25:55.000Z</time>
      </trkpt>
      <trkpt lat="44.13688" lon="6.10721">
        <ele>930</ele>
        <time>2022-03-03T09:25:56.000Z</time>
      </trkpt>
      <trkpt lat="44.13688" lon="6.10721">
        <ele>930</ele>
        <time>2022-03-03T09:25:57.000Z</time>
      </trkpt>
      <trkpt lat="44.13687" lon="6.10721">
        <ele>930</ele>
        <time>2022-03-03T09:25:58.000Z</time>
      </trkpt>
      <trkpt lat="44.13687" lon="6.10721">
        <ele>930</ele>
        <time>2022-03-03T09:25:59.000Z</time>
      </trkpt>
      <trkpt lat="44.13687" lon="6.10721">
        <ele>930</ele>
        <time>2022-03-03T09:26:00.000Z</time>
      </trkpt>
      <trkpt lat="44.13688" lon="6.10721">
        <ele>930</ele>
        <time>2022-03-03T09:26:01.000Z</time>
      </trkpt>
      <trkpt lat="44.13688" lon="6.10721">
        <ele>930</ele>
        <time>2022-03-03T09:26:02.000Z</time>
      </trkpt>
      <trkpt lat="44.13688" lon="6.10721">
        <ele>930</ele>
        <time>2022-03-03T09:26:03.000Z</time>
      </trkpt>
      <trkpt lat="44.13688" lon="6.10721">
        <ele>930</ele>
        <time>2022-03-03T09:26:04.000Z</time>
      </trkpt>
      <trkpt lat="44.13688" lon="6.10721">
        <ele>930</ele>
        <time>2022-03-03T09:26:05.000Z</time>
      </trkpt>
      <trkpt lat="44.13688" lon="6.10721">
        <ele>930</ele>
        <time>2022-03-03T09:26:06.000Z</time>
      </trkpt>
      <trkpt lat="44.13688" lon="6.10721">
        <ele>930</ele>
        <time>2022-03-03T09:26:07.000Z</time>
      </trkpt>
      <trkpt lat="44.13688" lon="6.10721">
        <ele>930</ele>
        <time>2022-03-03T09:26:08.000Z</time>
      </trkpt>
      <trkpt lat="44.13688" lon="6.10721">
        <ele>930</ele>
        <time>2022-03-03T09:26:09.000Z</time>
      </trkpt>
      <trkpt lat="44.13688" lon="6.10721">
        <ele>930</ele>
        <time>2022-03-03T09:26:10.000Z</time>
      </trkpt>
      <trkpt lat="44.13688" lon="6.10721">
        <ele>930</ele>
        <time>2022-03-03T09:26:11.000Z</time>
      </trkpt>
      <trkpt lat="44.13688" lon="6.10721">
        <ele>930</ele>
        <time>2022-03-03T09:26:12.000Z</time>
      </trkpt>
      <trkpt lat="44.13688" lon="6.10721">
        <ele>930</ele>
        <time>2022-03-03T09:26:13.000Z</time>
      </trkpt>
      <trkpt lat="44.13688" lon="6.10721">
        <ele>930</ele>
        <time>2022-03-03T09:26:14.000Z</time>
      </trkpt>
      <trkpt lat="44.13688" lon="6.10721">
        <ele>930</ele>
        <time>2022-03-03T09:26:15.000Z</time>
      </trkpt>
      <trkpt lat="44.13688" lon="6.10721">
        <ele>930</ele>
        <time>2022-03-03T09:26:16.000Z</time>
      </trkpt>
      <trkpt lat="44.13688" lon="6.10721">
        <ele>930</ele>
        <time>2022-03-03T09:26:17.000Z</time>
      </trkpt>
      <trkpt lat="44.13688" lon="6.10721">
        <ele>930</ele>
        <time>2022-03-03T09:26:18.000Z</time>
      </trkpt>
      <trkpt lat="44.13688" lon="6.10721">
        <ele>930</ele>
        <time>2022-03-03T09:26:19.000Z</time>
      </trkpt>
      <trkpt lat="44.13688" lon="6.10721">
        <ele>930</ele>
        <time>2022-03-03T09:26:20.000Z</time>
      </trkpt>
      <trkpt lat="44.13688" lon="6.10721">
        <ele>930</ele>
        <time>2022-03-03T09:26:21.000Z</time>
      </trkpt>
      <trkpt lat="44.13688" lon="6.10721">
        <ele>930</ele>
        <time>2022-03-03T09:26:22.000Z</time>
      </trkpt>
      <trkpt lat="44.13688" lon="6.10721">
        <ele>930</ele>
        <time>2022-03-03T09:26:23.000Z</time>
      </trkpt>
      <trkpt lat="44.13688" lon="6.10721">
        <ele>930</ele>
        <time>2022-03-03T09:26:24.000Z</time>
      </trkpt>
      <trkpt lat="44.13688" lon="6.10721">
        <ele>930</ele>
        <time>2022-03-03T09:26:25.000Z</time>
      </trkpt>
      <trkpt lat="44.13688" lon="6.10721">
        <ele>930</ele>
        <time>2022-03-03T09:26:26.000Z</time>
      </trkpt>
      <trkpt lat="44.13688" lon="6.1072">
        <ele>930</ele>
        <time>2022-03-03T09:26:27.000Z</time>
      </trkpt>
      <trkpt lat="44.13688" lon="6.1072">
        <ele>930</ele>
        <time>2022-03-03T09:26:28.000Z</time>
      </trkpt>
      <trkpt lat="44.13688" lon="6.1072">
        <ele>930</ele>
        <time>2022-03-03T09:26:29.000Z</time>
      </trkpt>
      <trkpt lat="44.13688" lon="6.1072">
        <ele>930</ele>
        <time>2022-03-03T09:26:30.000Z</time>
      </trkpt>
      <trkpt lat="44.13688" lon="6.1072">
        <ele>930</ele>
        <time>2022-03-03T09:26:31.000Z</time>
      </trkpt>
      <trkpt lat="44.13688" lon="6.1072">
        <ele>930</ele>
        <time>2022-03-03T09:26:32.000Z</time>
      </trkpt>
      <trkpt lat="44.13688" lon="6.1072">
        <ele>930</ele>
        <time>2022-03-03T09:26:33.000Z</time>
      </trkpt>
      <trkpt lat="44.13688" lon="6.1072">
        <ele>930</ele>
        <time>2022-03-03T09:26:34.000Z</time>
      </trkpt>
      <trkpt lat="44.13688" lon="6.1072">
        <ele>930</ele>
        <time>2022-03-03T09:26:35.000Z</time>
      </trkpt>
      <trkpt lat="44.13688" lon="6.10721">
        <ele>930</ele>
        <time>2022-03-03T09:26:36.000Z</time>
      </trkpt>
      <trkpt lat="44.13688" lon="6.10721">
        <ele>930</ele>
        <time>2022-03-03T09:26:37.000Z</time>
      </trkpt>
      <trkpt lat="44.13688" lon="6.10721">
        <ele>930</ele>
        <time>2022-03-03T09:26:38.000Z</time>
      </trkpt>
      <trkpt lat="44.13688" lon="6.10721">
        <ele>930</ele>
        <time>2022-03-03T09:26:39.000Z</time>
      </trkpt>
      <trkpt lat="44.13688" lon="6.10721">
        <ele>930</ele>
        <time>2022-03-03T09:26:40.000Z</time>
      </trkpt>
      <trkpt lat="44.13688" lon="6.10721">
        <ele>930</ele>
        <time>2022-03-03T09:26:41.000Z</time>
      </trkpt>
      <trkpt lat="44.13688" lon="6.10721">
        <ele>930</ele>
        <time>2022-03-03T09:26:42.000Z</time>
      </trkpt>
      <trkpt lat="44.13688" lon="6.10721">
        <ele>930</ele>
        <time>2022-03-03T09:26:43.000Z</time>
      </trkpt>
      <trkpt lat="44.13688" lon="6.10721">
        <ele>930</ele>
        <time>2022-03-03T09:26:44.000Z</time>
      </trkpt>
      <trkpt lat="44.13688" lon="6.10721">
        <ele>930</ele>
        <time>2022-03-03T09:26:45.000Z</time>
      </trkpt>
      <trkpt lat="44.13688" lon="6.10721">
        <ele>930</ele>
        <time>2022-03-03T09:26:46.000Z</time>
      </trkpt>
      <trkpt lat="44.13688" lon="6.10721">
        <ele>930</ele>
        <time>2022-03-03T09:26:47.000Z</time>
      </trkpt>
      <trkpt lat="44.13689" lon="6.10721">
        <ele>930</ele>
        <time>2022-03-03T09:26:48.000Z</time>
      </trkpt>
      <trkpt lat="44.13689" lon="6.10721">
        <ele>930</ele>
        <time>2022-03-03T09:26:49.000Z</time>
      </trkpt>
      <trkpt lat="44.13689" lon="6.10721">
        <ele>930</ele>
        <time>2022-03-03T09:26:50.000Z</time>
      </trkpt>
      <trkpt lat="44.13689" lon="6.10721">
        <ele>930</ele>
        <time>2022-03-03T09:26:51.000Z</time>
      </trkpt>
      <trkpt lat="44.13689" lon="6.10721">
        <ele>930</ele>
        <time>2022-03-03T09:26:52.000Z</time>
      </trkpt>
      <trkpt lat="44.13689" lon="6.10721">
        <ele>930</ele>
        <time>2022-03-03T09:26:53.000Z</time>
      </trkpt>
      <trkpt lat="44.13689" lon="6.10721">
        <ele>930</ele>
        <time>2022-03-03T09:26:54.000Z</time>
      </trkpt>
      <trkpt lat="44.13689" lon="6.10721">
        <ele>930</ele>
        <time>2022-03-03T09:26:55.000Z</time>
      </trkpt>
      <trkpt lat="44.13689" lon="6.10721">
        <ele>930</ele>
        <time>2022-03-03T09:26:56.000Z</time>
      </trkpt>
      <trkpt lat="44.13689" lon="6.10721">
        <ele>930</ele>
        <time>2022-03-03T09:26:57.000Z</time>
      </trkpt>
      <trkpt lat="44.13689" lon="6.10721">
        <ele>930</ele>
        <time>2022-03-03T09:26:58.000Z</time>
      </trkpt>
      <trkpt lat="44.13689" lon="6.10721">
        <ele>930</ele>
        <time>2022-03-03T09:26:59.000Z</time>
      </trkpt>
      <trkpt lat="44.13688" lon="6.10721">
        <ele>930</ele>
        <time>2022-03-03T09:27:00.000Z</time>
      </trkpt>
      <trkpt lat="44.13689" lon="6.10721">
        <ele>930</ele>
        <time>2022-03-03T09:27:01.000Z</time>
      </trkpt>
      <trkpt lat="44.13689" lon="6.10721">
        <ele>930</ele>
        <time>2022-03-03T09:27:02.000Z</time>
      </trkpt>
      <trkpt lat="44.13689" lon="6.10721">
        <ele>930</ele>
        <time>2022-03-03T09:27:03.000Z</time>
      </trkpt>
      <trkpt lat="44.13689" lon="6.10721">
        <ele>930</ele>
        <time>2022-03-03T09:27:04.000Z</time>
      </trkpt>
      <trkpt lat="44.13689" lon="6.10721">
        <ele>930</ele>
        <time>2022-03-03T09:27:05.000Z</time>
      </trkpt>
      <trkpt lat="44.13689" lon="6.10721">
        <ele>930</ele>
        <time>2022-03-03T09:27:06.000Z</time>
      </trkpt>
      <trkpt lat="44.13689" lon="6.10721">
        <ele>930</ele>
        <time>2022-03-03T09:27:07.000Z</time>
      </trkpt>
      <trkpt lat="44.13688" lon="6.1072">
        <ele>930</ele>
        <time>2022-03-03T09:27:08.000Z</time>
      </trkpt>
      <trkpt lat="44.13688" lon="6.1072">
        <ele>930</ele>
        <time>2022-03-03T09:27:09.000Z</time>
      </trkpt>
      <trkpt lat="44.13688" lon="6.1072">
        <ele>930</ele>
        <time>2022-03-03T09:27:10.000Z</time>
      </trkpt>
      <trkpt lat="44.13688" lon="6.1072">
        <ele>930</ele>
        <time>2022-03-03T09:27:11.000Z</time>
      </trkpt>
      <trkpt lat="44.13689" lon="6.1072">
        <ele>930</ele>
        <time>2022-03-03T09:27:12.000Z</time>
      </trkpt>
      <trkpt lat="44.13689" lon="6.1072">
        <ele>930</ele>
        <time>2022-03-03T09:27:13.000Z</time>
      </trkpt>
      <trkpt lat="44.13688" lon="6.1072">
        <ele>930</ele>
        <time>2022-03-03T09:27:14.000Z</time>
      </trkpt>
      <trkpt lat="44.13688" lon="6.10719">
        <ele>930</ele>
        <time>2022-03-03T09:27:15.000Z</time>
      </trkpt>
      <trkpt lat="44.13688" lon="6.10718">
        <ele>930</ele>
        <time>2022-03-03T09:27:16.000Z</time>
      </trkpt>
      <trkpt lat="44.13688" lon="6.10717">
        <ele>930</ele>
        <time>2022-03-03T09:27:17.000Z</time>
      </trkpt>
      <trkpt lat="44.13687" lon="6.10716">
        <ele>931</ele>
        <time>2022-03-03T09:27:18.000Z</time>
      </trkpt>
      <trkpt lat="44.13687" lon="6.10715">
        <ele>931</ele>
        <time>2022-03-03T09:27:19.000Z</time>
      </trkpt>
      <trkpt lat="44.13688" lon="6.10714">
        <ele>931</ele>
        <time>2022-03-03T09:27:20.000Z</time>
      </trkpt>
      <trkpt lat="44.13688" lon="6.10713">
        <ele>931</ele>
        <time>2022-03-03T09:27:21.000Z</time>
      </trkpt>
      <trkpt lat="44.13688" lon="6.10712">
        <ele>931</ele>
        <time>2022-03-03T09:27:22.000Z</time>
      </trkpt>
      <trkpt lat="44.13688" lon="6.10711">
        <ele>931</ele>
        <time>2022-03-03T09:27:23.000Z</time>
      </trkpt>
      <trkpt lat="44.13688" lon="6.1071">
        <ele>931</ele>
        <time>2022-03-03T09:27:24.000Z</time>
      </trkpt>
      <trkpt lat="44.13689" lon="6.10709">
        <ele>931</ele>
        <time>2022-03-03T09:27:25.000Z</time>
      </trkpt>
      <trkpt lat="44.13689" lon="6.10708">
        <ele>931</ele>
        <time>2022-03-03T09:27:26.000Z</time>
      </trkpt>
      <trkpt lat="44.13689" lon="6.10707">
        <ele>931</ele>
        <time>2022-03-03T09:27:27.000Z</time>
      </trkpt>
      <trkpt lat="44.13689" lon="6.10706">
        <ele>931</ele>
        <time>2022-03-03T09:27:28.000Z</time>
      </trkpt>
      <trkpt lat="44.1369" lon="6.10705">
        <ele>931</ele>
        <time>2022-03-03T09:27:29.000Z</time>
      </trkpt>
      <trkpt lat="44.1369" lon="6.10704">
        <ele>931</ele>
        <time>2022-03-03T09:27:30.000Z</time>
      </trkpt>
      <trkpt lat="44.1369" lon="6.10703">
        <ele>931</ele>
        <time>2022-03-03T09:27:31.000Z</time>
      </trkpt>
      <trkpt lat="44.1369" lon="6.10702">
        <ele>932</ele>
        <time>2022-03-03T09:27:32.000Z</time>
      </trkpt>
      <trkpt lat="44.1369" lon="6.10701">
        <ele>932</ele>
        <time>2022-03-03T09:27:33.000Z</time>
      </trkpt>
      <trkpt lat="44.13691" lon="6.10699">
        <ele>932</ele>
        <time>2022-03-03T09:27:34.000Z</time>
      </trkpt>
      <trkpt lat="44.13691" lon="6.10698">
        <ele>932</ele>
        <time>2022-03-03T09:27:35.000Z</time>
      </trkpt>
      <trkpt lat="44.13691" lon="6.10697">
        <ele>932</ele>
        <time>2022-03-03T09:27:36.000Z</time>
      </trkpt>
      <trkpt lat="44.13691" lon="6.10696">
        <ele>932</ele>
        <time>2022-03-03T09:27:37.000Z</time>
      </trkpt>
      <trkpt lat="44.13691" lon="6.10695">
        <ele>932</ele>
        <time>2022-03-03T09:27:38.000Z</time>
      </trkpt>
      <trkpt lat="44.13691" lon="6.10694">
        <ele>932</ele>
        <time>2022-03-03T09:27:39.000Z</time>
      </trkpt>
      <trkpt lat="44.13691" lon="6.10692">
        <ele>932</ele>
        <time>2022-03-03T09:27:40.000Z</time>
      </trkpt>
      <trkpt lat="44.13692" lon="6.10691">
        <ele>932</ele>
        <time>2022-03-03T09:27:41.000Z</time>
      </trkpt>
      <trkpt lat="44.13692" lon="6.1069">
        <ele>932</ele>
        <time>2022-03-03T09:27:42.000Z</time>
      </trkpt>
      <trkpt lat="44.13692" lon="6.10689">
        <ele>933</ele>
        <time>2022-03-03T09:27:43.000Z</time>
      </trkpt>
      <trkpt lat="44.13692" lon="6.10687">
        <ele>933</ele>
        <time>2022-03-03T09:27:44.000Z</time>
      </trkpt>
      <trkpt lat="44.13692" lon="6.10686">
        <ele>933</ele>
        <time>2022-03-03T09:27:45.000Z</time>
      </trkpt>
      <trkpt lat="44.13693" lon="6.10685">
        <ele>933</ele>
        <time>2022-03-03T09:27:46.000Z</time>
      </trkpt>
      <trkpt lat="44.13693" lon="6.10684">
        <ele>933</ele>
        <time>2022-03-03T09:27:47.000Z</time>
      </trkpt>
      <trkpt lat="44.13693" lon="6.10683">
        <ele>933</ele>
        <time>2022-03-03T09:27:48.000Z</time>
      </trkpt>
      <trkpt lat="44.13693" lon="6.10681">
        <ele>933</ele>
        <time>2022-03-03T09:27:49.000Z</time>
      </trkpt>
      <trkpt lat="44.13693" lon="6.1068">
        <ele>933</ele>
        <time>2022-03-03T09:27:50.000Z</time>
      </trkpt>
      <trkpt lat="44.13693" lon="6.10679">
        <ele>933</ele>
        <time>2022-03-03T09:27:51.000Z</time>
      </trkpt>
      <trkpt lat="44.13693" lon="6.10678">
        <ele>933</ele>
        <time>2022-03-03T09:27:52.000Z</time>
      </trkpt>
      <trkpt lat="44.13693" lon="6.10676">
        <ele>933</ele>
        <time>2022-03-03T09:27:53.000Z</time>
      </trkpt>
      <trkpt lat="44.13693" lon="6.10676">
        <ele>933</ele>
        <time>2022-03-03T09:27:54.000Z</time>
      </trkpt>
      <trkpt lat="44.13693" lon="6.10674">
        <ele>934</ele>
        <time>2022-03-03T09:27:55.000Z</time>
      </trkpt>
      <trkpt lat="44.13693" lon="6.10673">
        <ele>934</ele>
        <time>2022-03-03T09:27:56.000Z</time>
      </trkpt>
      <trkpt lat="44.13693" lon="6.10672">
        <ele>934</ele>
        <time>2022-03-03T09:27:57.000Z</time>
      </trkpt>
      <trkpt lat="44.13693" lon="6.10671">
        <ele>934</ele>
        <time>2022-03-03T09:27:58.000Z</time>
      </trkpt>
      <trkpt lat="44.13693" lon="6.1067">
        <ele>934</ele>
        <time>2022-03-03T09:27:59.000Z</time>
      </trkpt>
      <trkpt lat="44.13693" lon="6.10669">
        <ele>934</ele>
        <time>2022-03-03T09:28:00.000Z</time>
      </trkpt>
      <trkpt lat="44.13693" lon="6.10668">
        <ele>935</ele>
        <time>2022-03-03T09:28:01.000Z</time>
      </trkpt>
      <trkpt lat="44.13693" lon="6.10666">
        <ele>935</ele>
        <time>2022-03-03T09:28:02.000Z</time>
      </trkpt>
      <trkpt lat="44.13693" lon="6.10666">
        <ele>935</ele>
        <time>2022-03-03T09:28:03.000Z</time>
      </trkpt>
      <trkpt lat="44.13693" lon="6.10664">
        <ele>935</ele>
        <time>2022-03-03T09:28:04.000Z</time>
      </trkpt>
      <trkpt lat="44.13693" lon="6.10663">
        <ele>935</ele>
        <time>2022-03-03T09:28:05.000Z</time>
      </trkpt>
      <trkpt lat="44.13693" lon="6.10662">
        <ele>935</ele>
        <time>2022-03-03T09:28:06.000Z</time>
      </trkpt>
      <trkpt lat="44.13693" lon="6.10661">
        <ele>936</ele>
        <time>2022-03-03T09:28:07.000Z</time>
      </trkpt>
      <trkpt lat="44.13693" lon="6.1066">
        <ele>936</ele>
        <time>2022-03-03T09:28:08.000Z</time>
      </trkpt>
      <trkpt lat="44.13693" lon="6.10659">
        <ele>936</ele>
        <time>2022-03-03T09:28:09.000Z</time>
      </trkpt>
      <trkpt lat="44.13693" lon="6.10658">
        <ele>936</ele>
        <time>2022-03-03T09:28:10.000Z</time>
      </trkpt>
      <trkpt lat="44.13693" lon="6.10657">
        <ele>936</ele>
        <time>2022-03-03T09:28:11.000Z</time>
      </trkpt>
      <trkpt lat="44.13693" lon="6.10656">
        <ele>937</ele>
        <time>2022-03-03T09:28:12.000Z</time>
      </trkpt>
      <trkpt lat="44.13693" lon="6.10655">
        <ele>937</ele>
        <time>2022-03-03T09:28:13.000Z</time>
      </trkpt>
      <trkpt lat="44.13693" lon="6.10654">
        <ele>937</ele>
        <time>2022-03-03T09:28:14.000Z</time>
      </trkpt>
      <trkpt lat="44.13694" lon="6.10652">
        <ele>937</ele>
        <time>2022-03-03T09:28:15.000Z</time>
      </trkpt>
      <trkpt lat="44.13694" lon="6.10651">
        <ele>937</ele>
        <time>2022-03-03T09:28:16.000Z</time>
      </trkpt>
      <trkpt lat="44.13694" lon="6.1065">
        <ele>937</ele>
        <time>2022-03-03T09:28:17.000Z</time>
      </trkpt>
      <trkpt lat="44.13694" lon="6.10648">
        <ele>937</ele>
        <time>2022-03-03T09:28:18.000Z</time>
      </trkpt>
      <trkpt lat="44.13694" lon="6.10647">
        <ele>938</ele>
        <time>2022-03-03T09:28:19.000Z</time>
      </trkpt>
      <trkpt lat="44.13694" lon="6.10646">
        <ele>938</ele>
        <time>2022-03-03T09:28:20.000Z</time>
      </trkpt>
      <trkpt lat="44.13694" lon="6.10645">
        <ele>938</ele>
        <time>2022-03-03T09:28:21.000Z</time>
      </trkpt>
      <trkpt lat="44.13694" lon="6.10644">
        <ele>938</ele>
        <time>2022-03-03T09:28:22.000Z</time>
      </trkpt>
      <trkpt lat="44.13694" lon="6.10643">
        <ele>938</ele>
        <time>2022-03-03T09:28:23.000Z</time>
      </trkpt>
      <trkpt lat="44.13694" lon="6.10641">
        <ele>938</ele>
        <time>2022-03-03T09:28:24.000Z</time>
      </trkpt>
      <trkpt lat="44.13694" lon="6.1064">
        <ele>939</ele>
        <time>2022-03-03T09:28:25.000Z</time>
      </trkpt>
      <trkpt lat="44.13694" lon="6.10639">
        <ele>939</ele>
        <time>2022-03-03T09:28:26.000Z</time>
      </trkpt>
      <trkpt lat="44.13695" lon="6.10638">
        <ele>939</ele>
        <time>2022-03-03T09:28:27.000Z</time>
      </trkpt>
      <trkpt lat="44.13695" lon="6.10637">
        <ele>939</ele>
        <time>2022-03-03T09:28:28.000Z</time>
      </trkpt>
      <trkpt lat="44.13695" lon="6.10636">
        <ele>939</ele>
        <time>2022-03-03T09:28:29.000Z</time>
      </trkpt>
      <trkpt lat="44.13695" lon="6.10634">
        <ele>939</ele>
        <time>2022-03-03T09:28:30.000Z</time>
      </trkpt>
      <trkpt lat="44.13695" lon="6.10633">
        <ele>939</ele>
        <time>2022-03-03T09:28:31.000Z</time>
      </trkpt>
      <trkpt lat="44.13695" lon="6.10632">
        <ele>939</ele>
        <time>2022-03-03T09:28:32.000Z</time>
      </trkpt>
      <trkpt lat="44.13695" lon="6.10631">
        <ele>940</ele>
        <time>2022-03-03T09:28:33.000Z</time>
      </trkpt>
      <trkpt lat="44.13695" lon="6.1063">
        <ele>940</ele>
        <time>2022-03-03T09:28:34.000Z</time>
      </trkpt>
      <trkpt lat="44.13695" lon="6.10629">
        <ele>940</ele>
        <time>2022-03-03T09:28:35.000Z</time>
      </trkpt>
      <trkpt lat="44.13695" lon="6.10627">
        <ele>940</ele>
        <time>2022-03-03T09:28:36.000Z</time>
      </trkpt>
      <trkpt lat="44.13695" lon="6.10626">
        <ele>940</ele>
        <time>2022-03-03T09:28:37.000Z</time>
      </trkpt>
      <trkpt lat="44.13695" lon="6.10625">
        <ele>940</ele>
        <time>2022-03-03T09:28:38.000Z</time>
      </trkpt>
      <trkpt lat="44.13695" lon="6.10624">
        <ele>941</ele>
        <time>2022-03-03T09:28:39.000Z</time>
      </trkpt>
      <trkpt lat="44.13696" lon="6.10623">
        <ele>941</ele>
        <time>2022-03-03T09:28:40.000Z</time>
      </trkpt>
      <trkpt lat="44.13696" lon="6.10622">
        <ele>941</ele>
        <time>2022-03-03T09:28:41.000Z</time>
      </trkpt>
      <trkpt lat="44.13696" lon="6.1062">
        <ele>941</ele>
        <time>2022-03-03T09:28:42.000Z</time>
      </trkpt>
      <trkpt lat="44.13696" lon="6.10619">
        <ele>941</ele>
        <time>2022-03-03T09:28:43.000Z</time>
      </trkpt>
      <trkpt lat="44.13696" lon="6.10618">
        <ele>941</ele>
        <time>2022-03-03T09:28:44.000Z</time>
      </trkpt>
      <trkpt lat="44.13696" lon="6.10617">
        <ele>942</ele>
        <time>2022-03-03T09:28:45.000Z</time>
      </trkpt>
      <trkpt lat="44.13697" lon="6.10616">
        <ele>942</ele>
        <time>2022-03-03T09:28:46.000Z</time>
      </trkpt>
      <trkpt lat="44.13697" lon="6.10615">
        <ele>942</ele>
        <time>2022-03-03T09:28:47.000Z</time>
      </trkpt>
      <trkpt lat="44.13697" lon="6.10614">
        <ele>942</ele>
        <time>2022-03-03T09:28:48.000Z</time>
      </trkpt>
      <trkpt lat="44.13697" lon="6.10612">
        <ele>942</ele>
        <time>2022-03-03T09:28:49.000Z</time>
      </trkpt>
      <trkpt lat="44.13697" lon="6.10611">
        <ele>942</ele>
        <time>2022-03-03T09:28:50.000Z</time>
      </trkpt>
      <trkpt lat="44.13697" lon="6.1061">
        <ele>942</ele>
        <time>2022-03-03T09:28:51.000Z</time>
      </trkpt>
      <trkpt lat="44.13698" lon="6.10609">
        <ele>942</ele>
        <time>2022-03-03T09:28:52.000Z</time>
      </trkpt>
      <trkpt lat="44.13698" lon="6.10608">
        <ele>942</ele>
        <time>2022-03-03T09:28:53.000Z</time>
      </trkpt>
      <trkpt lat="44.13698" lon="6.10607">
        <ele>943</ele>
        <time>2022-03-03T09:28:54.000Z</time>
      </trkpt>
      <trkpt lat="44.13698" lon="6.10606">
        <ele>943</ele>
        <time>2022-03-03T09:28:55.000Z</time>
      </trkpt>
      <trkpt lat="44.13698" lon="6.10606">
        <ele>943</ele>
        <time>2022-03-03T09:28:56.000Z</time>
      </trkpt>
      <trkpt lat="44.13698" lon="6.10606">
        <ele>943</ele>
        <time>2022-03-03T09:28:57.000Z</time>
      </trkpt>
      <trkpt lat="44.13698" lon="6.10606">
        <ele>943</ele>
        <time>2022-03-03T09:28:58.000Z</time>
      </trkpt>
      <trkpt lat="44.13698" lon="6.10606">
        <ele>943</ele>
        <time>2022-03-03T09:28:59.000Z</time>
      </trkpt>
      <trkpt lat="44.13698" lon="6.10605">
        <ele>943</ele>
        <time>2022-03-03T09:29:00.000Z</time>
      </trkpt>
      <trkpt lat="44.13698" lon="6.10604">
        <ele>943</ele>
        <time>2022-03-03T09:29:01.000Z</time>
      </trkpt>
      <trkpt lat="44.13699" lon="6.10603">
        <ele>943</ele>
        <time>2022-03-03T09:29:02.000Z</time>
      </trkpt>
      <trkpt lat="44.13699" lon="6.10602">
        <ele>943</ele>
        <time>2022-03-03T09:29:03.000Z</time>
      </trkpt>
      <trkpt lat="44.13699" lon="6.10601">
        <ele>943</ele>
        <time>2022-03-03T09:29:04.000Z</time>
      </trkpt>
      <trkpt lat="44.137" lon="6.10599">
        <ele>943</ele>
        <time>2022-03-03T09:29:05.000Z</time>
      </trkpt>
      <trkpt lat="44.137" lon="6.10598">
        <ele>944</ele>
        <time>2022-03-03T09:29:06.000Z</time>
      </trkpt>
      <trkpt lat="44.137" lon="6.10597">
        <ele>944</ele>
        <time>2022-03-03T09:29:07.000Z</time>
      </trkpt>
      <trkpt lat="44.13701" lon="6.10596">
        <ele>944</ele>
        <time>2022-03-03T09:29:08.000Z</time>
      </trkpt>
      <trkpt lat="44.13701" lon="6.10595">
        <ele>944</ele>
        <time>2022-03-03T09:29:09.000Z</time>
      </trkpt>
      <trkpt lat="44.13702" lon="6.10593">
        <ele>944</ele>
        <time>2022-03-03T09:29:10.000Z</time>
      </trkpt>
      <trkpt lat="44.13702" lon="6.10592">
        <ele>944</ele>
        <time>2022-03-03T09:29:11.000Z</time>
      </trkpt>
      <trkpt lat="44.13702" lon="6.10591">
        <ele>944</ele>
        <time>2022-03-03T09:29:12.000Z</time>
      </trkpt>
      <trkpt lat="44.13703" lon="6.1059">
        <ele>944</ele>
        <time>2022-03-03T09:29:13.000Z</time>
      </trkpt>
      <trkpt lat="44.13703" lon="6.10589">
        <ele>944</ele>
        <time>2022-03-03T09:29:14.000Z</time>
      </trkpt>
      <trkpt lat="44.13704" lon="6.10587">
        <ele>944</ele>
        <time>2022-03-03T09:29:15.000Z</time>
      </trkpt>
      <trkpt lat="44.13704" lon="6.10586">
        <ele>944</ele>
        <time>2022-03-03T09:29:16.000Z</time>
      </trkpt>
      <trkpt lat="44.13705" lon="6.10585">
        <ele>944</ele>
        <time>2022-03-03T09:29:17.000Z</time>
      </trkpt>
      <trkpt lat="44.13705" lon="6.10584">
        <ele>944</ele>
        <time>2022-03-03T09:29:18.000Z</time>
      </trkpt>
      <trkpt lat="44.13705" lon="6.10583">
        <ele>944</ele>
        <time>2022-03-03T09:29:19.000Z</time>
      </trkpt>
      <trkpt lat="44.13705" lon="6.10582">
        <ele>944</ele>
        <time>2022-03-03T09:29:20.000Z</time>
      </trkpt>
      <trkpt lat="44.13706" lon="6.1058">
        <ele>945</ele>
        <time>2022-03-03T09:29:21.000Z</time>
      </trkpt>
      <trkpt lat="44.13706" lon="6.10579">
        <ele>945</ele>
        <time>2022-03-03T09:29:22.000Z</time>
      </trkpt>
      <trkpt lat="44.13707" lon="6.10578">
        <ele>945</ele>
        <time>2022-03-03T09:29:23.000Z</time>
      </trkpt>
      <trkpt lat="44.13707" lon="6.10576">
        <ele>945</ele>
        <time>2022-03-03T09:29:24.000Z</time>
      </trkpt>
      <trkpt lat="44.13707" lon="6.10575">
        <ele>945</ele>
        <time>2022-03-03T09:29:25.000Z</time>
      </trkpt>
      <trkpt lat="44.13708" lon="6.10574">
        <ele>945</ele>
        <time>2022-03-03T09:29:26.000Z</time>
      </trkpt>
      <trkpt lat="44.13708" lon="6.10573">
        <ele>945</ele>
        <time>2022-03-03T09:29:27.000Z</time>
      </trkpt>
      <trkpt lat="44.13709" lon="6.10572">
        <ele>945</ele>
        <time>2022-03-03T09:29:28.000Z</time>
      </trkpt>
      <trkpt lat="44.13709" lon="6.10571">
        <ele>945</ele>
        <time>2022-03-03T09:29:29.000Z</time>
      </trkpt>
      <trkpt lat="44.13709" lon="6.10569">
        <ele>946</ele>
        <time>2022-03-03T09:29:30.000Z</time>
      </trkpt>
      <trkpt lat="44.1371" lon="6.10568">
        <ele>946</ele>
        <time>2022-03-03T09:29:31.000Z</time>
      </trkpt>
      <trkpt lat="44.1371" lon="6.10567">
        <ele>946</ele>
        <time>2022-03-03T09:29:32.000Z</time>
      </trkpt>
      <trkpt lat="44.1371" lon="6.10566">
        <ele>946</ele>
        <time>2022-03-03T09:29:33.000Z</time>
      </trkpt>
      <trkpt lat="44.13711" lon="6.10565">
        <ele>946</ele>
        <time>2022-03-03T09:29:34.000Z</time>
      </trkpt>
      <trkpt lat="44.13711" lon="6.10564">
        <ele>946</ele>
        <time>2022-03-03T09:29:35.000Z</time>
      </trkpt>
      <trkpt lat="44.13712" lon="6.10563">
        <ele>947</ele>
        <time>2022-03-03T09:29:36.000Z</time>
      </trkpt>
      <trkpt lat="44.13712" lon="6.10562">
        <ele>947</ele>
        <time>2022-03-03T09:29:37.000Z</time>
      </trkpt>
      <trkpt lat="44.13712" lon="6.10561">
        <ele>947</ele>
        <time>2022-03-03T09:29:38.000Z</time>
      </trkpt>
      <trkpt lat="44.13713" lon="6.1056">
        <ele>947</ele>
        <time>2022-03-03T09:29:39.000Z</time>
      </trkpt>
      <trkpt lat="44.13713" lon="6.10558">
        <ele>947</ele>
        <time>2022-03-03T09:29:40.000Z</time>
      </trkpt>
      <trkpt lat="44.13714" lon="6.10558">
        <ele>947</ele>
        <time>2022-03-03T09:29:41.000Z</time>
      </trkpt>
      <trkpt lat="44.13714" lon="6.10556">
        <ele>947</ele>
        <time>2022-03-03T09:29:42.000Z</time>
      </trkpt>
      <trkpt lat="44.13715" lon="6.10555">
        <ele>947</ele>
        <time>2022-03-03T09:29:43.000Z</time>
      </trkpt>
      <trkpt lat="44.13715" lon="6.10554">
        <ele>947</ele>
        <time>2022-03-03T09:29:44.000Z</time>
      </trkpt>
      <trkpt lat="44.13715" lon="6.10553">
        <ele>947</ele>
        <time>2022-03-03T09:29:45.000Z</time>
      </trkpt>
      <trkpt lat="44.13716" lon="6.10552">
        <ele>948</ele>
        <time>2022-03-03T09:29:46.000Z</time>
      </trkpt>
      <trkpt lat="44.13716" lon="6.10551">
        <ele>948</ele>
        <time>2022-03-03T09:29:47.000Z</time>
      </trkpt>
      <trkpt lat="44.13716" lon="6.1055">
        <ele>948</ele>
        <time>2022-03-03T09:29:48.000Z</time>
      </trkpt>
      <trkpt lat="44.13717" lon="6.10549">
        <ele>948</ele>
        <time>2022-03-03T09:29:49.000Z</time>
      </trkpt>
      <trkpt lat="44.13717" lon="6.10548">
        <ele>948</ele>
        <time>2022-03-03T09:29:50.000Z</time>
      </trkpt>
      <trkpt lat="44.13718" lon="6.10547">
        <ele>948</ele>
        <time>2022-03-03T09:29:51.000Z</time>
      </trkpt>
      <trkpt lat="44.13718" lon="6.10546">
        <ele>948</ele>
        <time>2022-03-03T09:29:52.000Z</time>
      </trkpt>
      <trkpt lat="44.13718" lon="6.10545">
        <ele>948</ele>
        <time>2022-03-03T09:29:53.000Z</time>
      </trkpt>
      <trkpt lat="44.13719" lon="6.10544">
        <ele>948</ele>
        <time>2022-03-03T09:29:54.000Z</time>
      </trkpt>
      <trkpt lat="44.13719" lon="6.10543">
        <ele>949</ele>
        <time>2022-03-03T09:29:55.000Z</time>
      </trkpt>
      <trkpt lat="44.1372" lon="6.10542">
        <ele>949</ele>
        <time>2022-03-03T09:29:56.000Z</time>
      </trkpt>
      <trkpt lat="44.1372" lon="6.10541">
        <ele>949</ele>
        <time>2022-03-03T09:29:57.000Z</time>
      </trkpt>
      <trkpt lat="44.13721" lon="6.10541">
        <ele>949</ele>
        <time>2022-03-03T09:29:58.000Z</time>
      </trkpt>
      <trkpt lat="44.13721" lon="6.10541">
        <ele>949</ele>
        <time>2022-03-03T09:29:59.000Z</time>
      </trkpt>
      <trkpt lat="44.13721" lon="6.1054">
        <ele>949</ele>
        <time>2022-03-03T09:30:00.000Z</time>
      </trkpt>
      <trkpt lat="44.13721" lon="6.1054">
        <ele>949</ele>
        <time>2022-03-03T09:30:01.000Z</time>
      </trkpt>
      <trkpt lat="44.13721" lon="6.1054">
        <ele>949</ele>
        <time>2022-03-03T09:30:02.000Z</time>
      </trkpt>
      <trkpt lat="44.13721" lon="6.1054">
        <ele>949</ele>
        <time>2022-03-03T09:30:03.000Z</time>
      </trkpt>
      <trkpt lat="44.13721" lon="6.1054">
        <ele>949</ele>
        <time>2022-03-03T09:30:04.000Z</time>
      </trkpt>
      <trkpt lat="44.13721" lon="6.1054">
        <ele>949</ele>
        <time>2022-03-03T09:30:05.000Z</time>
      </trkpt>
      <trkpt lat="44.13722" lon="6.10539">
        <ele>949</ele>
        <time>2022-03-03T09:30:06.000Z</time>
      </trkpt>
      <trkpt lat="44.13722" lon="6.10538">
        <ele>949</ele>
        <time>2022-03-03T09:30:07.000Z</time>
      </trkpt>
      <trkpt lat="44.13722" lon="6.10537">
        <ele>949</ele>
        <time>2022-03-03T09:30:08.000Z</time>
      </trkpt>
      <trkpt lat="44.13722" lon="6.10536">
        <ele>949</ele>
        <time>2022-03-03T09:30:09.000Z</time>
      </trkpt>
      <trkpt lat="44.13723" lon="6.10534">
        <ele>949</ele>
        <time>2022-03-03T09:30:10.000Z</time>
      </trkpt>
      <trkpt lat="44.13723" lon="6.10533">
        <ele>949</ele>
        <time>2022-03-03T09:30:11.000Z</time>
      </trkpt>
      <trkpt lat="44.13723" lon="6.10532">
        <ele>949</ele>
        <time>2022-03-03T09:30:12.000Z</time>
      </trkpt>
      <trkpt lat="44.13723" lon="6.10531">
        <ele>949</ele>
        <time>2022-03-03T09:30:13.000Z</time>
      </trkpt>
      <trkpt lat="44.13724" lon="6.1053">
        <ele>949</ele>
        <time>2022-03-03T09:30:14.000Z</time>
      </trkpt>
      <trkpt lat="44.13724" lon="6.10529">
        <ele>949</ele>
        <time>2022-03-03T09:30:15.000Z</time>
      </trkpt>
      <trkpt lat="44.13724" lon="6.10528">
        <ele>949</ele>
        <time>2022-03-03T09:30:16.000Z</time>
      </trkpt>
      <trkpt lat="44.13725" lon="6.10527">
        <ele>949</ele>
        <time>2022-03-03T09:30:17.000Z</time>
      </trkpt>
      <trkpt lat="44.13725" lon="6.10526">
        <ele>950</ele>
        <time>2022-03-03T09:30:18.000Z</time>
      </trkpt>
      <trkpt lat="44.13725" lon="6.10525">
        <ele>950</ele>
        <time>2022-03-03T09:30:19.000Z</time>
      </trkpt>
      <trkpt lat="44.13726" lon="6.10524">
        <ele>950</ele>
        <time>2022-03-03T09:30:20.000Z</time>
      </trkpt>
      <trkpt lat="44.13726" lon="6.10523">
        <ele>950</ele>
        <time>2022-03-03T09:30:21.000Z</time>
      </trkpt>
      <trkpt lat="44.13727" lon="6.10522">
        <ele>950</ele>
        <time>2022-03-03T09:30:22.000Z</time>
      </trkpt>
      <trkpt lat="44.13727" lon="6.10521">
        <ele>950</ele>
        <time>2022-03-03T09:30:23.000Z</time>
      </trkpt>
      <trkpt lat="44.13728" lon="6.10521">
        <ele>950</ele>
        <time>2022-03-03T09:30:24.000Z</time>
      </trkpt>
      <trkpt lat="44.13728" lon="6.1052">
        <ele>950</ele>
        <time>2022-03-03T09:30:25.000Z</time>
      </trkpt>
      <trkpt lat="44.13728" lon="6.10519">
        <ele>950</ele>
        <time>2022-03-03T09:30:26.000Z</time>
      </trkpt>
      <trkpt lat="44.13729" lon="6.10518">
        <ele>950</ele>
        <time>2022-03-03T09:30:27.000Z</time>
      </trkpt>
      <trkpt lat="44.13729" lon="6.10517">
        <ele>950</ele>
        <time>2022-03-03T09:30:28.000Z</time>
      </trkpt>
      <trkpt lat="44.13729" lon="6.10516">
        <ele>950</ele>
        <time>2022-03-03T09:30:29.000Z</time>
      </trkpt>
      <trkpt lat="44.1373" lon="6.10515">
        <ele>951</ele>
        <time>2022-03-03T09:30:30.000Z</time>
      </trkpt>
      <trkpt lat="44.1373" lon="6.10513">
        <ele>951</ele>
        <time>2022-03-03T09:30:31.000Z</time>
      </trkpt>
      <trkpt lat="44.1373" lon="6.10513">
        <ele>951</ele>
        <time>2022-03-03T09:30:32.000Z</time>
      </trkpt>
      <trkpt lat="44.13731" lon="6.10512">
        <ele>951</ele>
        <time>2022-03-03T09:30:33.000Z</time>
      </trkpt>
      <trkpt lat="44.13731" lon="6.10511">
        <ele>951</ele>
        <time>2022-03-03T09:30:34.000Z</time>
      </trkpt>
      <trkpt lat="44.13732" lon="6.1051">
        <ele>951</ele>
        <time>2022-03-03T09:30:35.000Z</time>
      </trkpt>
      <trkpt lat="44.13732" lon="6.10509">
        <ele>951</ele>
        <time>2022-03-03T09:30:36.000Z</time>
      </trkpt>
      <trkpt lat="44.13732" lon="6.10508">
        <ele>951</ele>
        <time>2022-03-03T09:30:37.000Z</time>
      </trkpt>
      <trkpt lat="44.13733" lon="6.10507">
        <ele>951</ele>
        <time>2022-03-03T09:30:38.000Z</time>
      </trkpt>
      <trkpt lat="44.13733" lon="6.10506">
        <ele>951</ele>
        <time>2022-03-03T09:30:39.000Z</time>
      </trkpt>
      <trkpt lat="44.13734" lon="6.10506">
        <ele>951</ele>
        <time>2022-03-03T09:30:40.000Z</time>
      </trkpt>
      <trkpt lat="44.13734" lon="6.10504">
        <ele>952</ele>
        <time>2022-03-03T09:30:41.000Z</time>
      </trkpt>
      <trkpt lat="44.13734" lon="6.10503">
        <ele>952</ele>
        <time>2022-03-03T09:30:42.000Z</time>
      </trkpt>
      <trkpt lat="44.13735" lon="6.10502">
        <ele>952</ele>
        <time>2022-03-03T09:30:43.000Z</time>
      </trkpt>
      <trkpt lat="44.13735" lon="6.10501">
        <ele>952</ele>
        <time>2022-03-03T09:30:44.000Z</time>
      </trkpt>
      <trkpt lat="44.13735" lon="6.105">
        <ele>952</ele>
        <time>2022-03-03T09:30:45.000Z</time>
      </trkpt>
      <trkpt lat="44.13736" lon="6.10499">
        <ele>952</ele>
        <time>2022-03-03T09:30:46.000Z</time>
      </trkpt>
      <trkpt lat="44.13736" lon="6.10498">
        <ele>952</ele>
        <time>2022-03-03T09:30:47.000Z</time>
      </trkpt>
      <trkpt lat="44.13737" lon="6.10497">
        <ele>952</ele>
        <time>2022-03-03T09:30:48.000Z</time>
      </trkpt>
      <trkpt lat="44.13737" lon="6.10496">
        <ele>952</ele>
        <time>2022-03-03T09:30:49.000Z</time>
      </trkpt>
      <trkpt lat="44.13737" lon="6.10495">
        <ele>953</ele>
        <time>2022-03-03T09:30:50.000Z</time>
      </trkpt>
      <trkpt lat="44.13738" lon="6.10494">
        <ele>953</ele>
        <time>2022-03-03T09:30:51.000Z</time>
      </trkpt>
      <trkpt lat="44.13738" lon="6.10493">
        <ele>953</ele>
        <time>2022-03-03T09:30:52.000Z</time>
      </trkpt>
      <trkpt lat="44.13738" lon="6.10492">
        <ele>953</ele>
        <time>2022-03-03T09:30:53.000Z</time>
      </trkpt>
      <trkpt lat="44.13739" lon="6.10491">
        <ele>953</ele>
        <time>2022-03-03T09:30:54.000Z</time>
      </trkpt>
      <trkpt lat="44.1374" lon="6.1049">
        <ele>953</ele>
        <time>2022-03-03T09:30:55.000Z</time>
      </trkpt>
      <trkpt lat="44.1374" lon="6.10489">
        <ele>953</ele>
        <time>2022-03-03T09:30:56.000Z</time>
      </trkpt>
      <trkpt lat="44.1374" lon="6.10488">
        <ele>954</ele>
        <time>2022-03-03T09:30:57.000Z</time>
      </trkpt>
      <trkpt lat="44.13741" lon="6.10487">
        <ele>954</ele>
        <time>2022-03-03T09:30:58.000Z</time>
      </trkpt>
      <trkpt lat="44.13742" lon="6.10486">
        <ele>954</ele>
        <time>2022-03-03T09:30:59.000Z</time>
      </trkpt>
      <trkpt lat="44.13742" lon="6.10485">
        <ele>954</ele>
        <time>2022-03-03T09:31:00.000Z</time>
      </trkpt>
      <trkpt lat="44.13743" lon="6.10484">
        <ele>954</ele>
        <time>2022-03-03T09:31:01.000Z</time>
      </trkpt>
      <trkpt lat="44.13743" lon="6.10483">
        <ele>954</ele>
        <time>2022-03-03T09:31:02.000Z</time>
      </trkpt>
      <trkpt lat="44.13744" lon="6.10482">
        <ele>954</ele>
        <time>2022-03-03T09:31:03.000Z</time>
      </trkpt>
      <trkpt lat="44.13745" lon="6.10481">
        <ele>955</ele>
        <time>2022-03-03T09:31:04.000Z</time>
      </trkpt>
      <trkpt lat="44.13746" lon="6.10481">
        <ele>955</ele>
        <time>2022-03-03T09:31:05.000Z</time>
      </trkpt>
      <trkpt lat="44.13746" lon="6.1048">
        <ele>955</ele>
        <time>2022-03-03T09:31:06.000Z</time>
      </trkpt>
      <trkpt lat="44.13747" lon="6.10479">
        <ele>955</ele>
        <time>2022-03-03T09:31:07.000Z</time>
      </trkpt>
      <trkpt lat="44.13748" lon="6.10479">
        <ele>955</ele>
        <time>2022-03-03T09:31:08.000Z</time>
      </trkpt>
      <trkpt lat="44.13749" lon="6.10478">
        <ele>955</ele>
        <time>2022-03-03T09:31:09.000Z</time>
      </trkpt>
      <trkpt lat="44.13749" lon="6.10477">
        <ele>955</ele>
        <time>2022-03-03T09:31:10.000Z</time>
      </trkpt>
      <trkpt lat="44.1375" lon="6.10476">
        <ele>955</ele>
        <time>2022-03-03T09:31:11.000Z</time>
      </trkpt>
      <trkpt lat="44.13751" lon="6.10476">
        <ele>955</ele>
        <time>2022-03-03T09:31:12.000Z</time>
      </trkpt>
      <trkpt lat="44.13752" lon="6.10475">
        <ele>955</ele>
        <time>2022-03-03T09:31:13.000Z</time>
      </trkpt>
      <trkpt lat="44.13753" lon="6.10474">
        <ele>955</ele>
        <time>2022-03-03T09:31:14.000Z</time>
      </trkpt>
      <trkpt lat="44.13754" lon="6.10474">
        <ele>955</ele>
        <time>2022-03-03T09:31:15.000Z</time>
      </trkpt>
      <trkpt lat="44.13755" lon="6.10473">
        <ele>955</ele>
        <time>2022-03-03T09:31:16.000Z</time>
      </trkpt>
      <trkpt lat="44.13755" lon="6.10472">
        <ele>955</ele>
        <time>2022-03-03T09:31:17.000Z</time>
      </trkpt>
      <trkpt lat="44.13756" lon="6.10471">
        <ele>955</ele>
        <time>2022-03-03T09:31:18.000Z</time>
      </trkpt>
      <trkpt lat="44.13757" lon="6.10471">
        <ele>956</ele>
        <time>2022-03-03T09:31:19.000Z</time>
      </trkpt>
      <trkpt lat="44.13758" lon="6.1047">
        <ele>956</ele>
        <time>2022-03-03T09:31:20.000Z</time>
      </trkpt>
      <trkpt lat="44.13759" lon="6.10469">
        <ele>956</ele>
        <time>2022-03-03T09:31:21.000Z</time>
      </trkpt>
      <trkpt lat="44.1376" lon="6.10469">
        <ele>956</ele>
        <time>2022-03-03T09:31:22.000Z</time>
      </trkpt>
      <trkpt lat="44.1376" lon="6.10468">
        <ele>956</ele>
        <time>2022-03-03T09:31:23.000Z</time>
      </trkpt>
      <trkpt lat="44.13761" lon="6.10467">
        <ele>956</ele>
        <time>2022-03-03T09:31:24.000Z</time>
      </trkpt>
      <trkpt lat="44.13762" lon="6.10467">
        <ele>956</ele>
        <time>2022-03-03T09:31:25.000Z</time>
      </trkpt>
      <trkpt lat="44.13763" lon="6.10466">
        <ele>956</ele>
        <time>2022-03-03T09:31:26.000Z</time>
      </trkpt>
      <trkpt lat="44.13764" lon="6.10465">
        <ele>957</ele>
        <time>2022-03-03T09:31:27.000Z</time>
      </trkpt>
      <trkpt lat="44.13765" lon="6.10465">
        <ele>957</ele>
        <time>2022-03-03T09:31:28.000Z</time>
      </trkpt>
      <trkpt lat="44.13766" lon="6.10464">
        <ele>957</ele>
        <time>2022-03-03T09:31:29.000Z</time>
      </trkpt>
      <trkpt lat="44.13766" lon="6.10463">
        <ele>957</ele>
        <time>2022-03-03T09:31:30.000Z</time>
      </trkpt>
      <trkpt lat="44.13767" lon="6.10462">
        <ele>957</ele>
        <time>2022-03-03T09:31:31.000Z</time>
      </trkpt>
      <trkpt lat="44.13768" lon="6.10462">
        <ele>957</ele>
        <time>2022-03-03T09:31:32.000Z</time>
      </trkpt>
      <trkpt lat="44.13769" lon="6.10461">
        <ele>957</ele>
        <time>2022-03-03T09:31:33.000Z</time>
      </trkpt>
      <trkpt lat="44.1377" lon="6.10461">
        <ele>957</ele>
        <time>2022-03-03T09:31:34.000Z</time>
      </trkpt>
      <trkpt lat="44.13771" lon="6.1046">
        <ele>957</ele>
        <time>2022-03-03T09:31:35.000Z</time>
      </trkpt>
      <trkpt lat="44.13772" lon="6.1046">
        <ele>957</ele>
        <time>2022-03-03T09:31:36.000Z</time>
      </trkpt>
      <trkpt lat="44.13773" lon="6.10459">
        <ele>957</ele>
        <time>2022-03-03T09:31:37.000Z</time>
      </trkpt>
      <trkpt lat="44.13774" lon="6.10458">
        <ele>957</ele>
        <time>2022-03-03T09:31:38.000Z</time>
      </trkpt>
      <trkpt lat="44.13774" lon="6.10458">
        <ele>957</ele>
        <time>2022-03-03T09:31:39.000Z</time>
      </trkpt>
      <trkpt lat="44.13775" lon="6.10457">
        <ele>957</ele>
        <time>2022-03-03T09:31:40.000Z</time>
      </trkpt>
      <trkpt lat="44.13776" lon="6.10456">
        <ele>957</ele>
        <time>2022-03-03T09:31:41.000Z</time>
      </trkpt>
      <trkpt lat="44.13777" lon="6.10456">
        <ele>957</ele>
        <time>2022-03-03T09:31:42.000Z</time>
      </trkpt>
      <trkpt lat="44.13778" lon="6.10455">
        <ele>957</ele>
        <time>2022-03-03T09:31:43.000Z</time>
      </trkpt>
      <trkpt lat="44.13779" lon="6.10454">
        <ele>957</ele>
        <time>2022-03-03T09:31:44.000Z</time>
      </trkpt>
      <trkpt lat="44.13779" lon="6.10454">
        <ele>957</ele>
        <time>2022-03-03T09:31:45.000Z</time>
      </trkpt>
      <trkpt lat="44.13781" lon="6.10453">
        <ele>958</ele>
        <time>2022-03-03T09:31:46.000Z</time>
      </trkpt>
      <trkpt lat="44.13781" lon="6.10453">
        <ele>958</ele>
        <time>2022-03-03T09:31:47.000Z</time>
      </trkpt>
      <trkpt lat="44.13782" lon="6.10453">
        <ele>958</ele>
        <time>2022-03-03T09:31:48.000Z</time>
      </trkpt>
      <trkpt lat="44.13783" lon="6.10452">
        <ele>958</ele>
        <time>2022-03-03T09:31:49.000Z</time>
      </trkpt>
      <trkpt lat="44.13784" lon="6.10452">
        <ele>958</ele>
        <time>2022-03-03T09:31:50.000Z</time>
      </trkpt>
      <trkpt lat="44.13785" lon="6.10452">
        <ele>958</ele>
        <time>2022-03-03T09:31:51.000Z</time>
      </trkpt>
      <trkpt lat="44.13786" lon="6.10453">
        <ele>958</ele>
        <time>2022-03-03T09:31:52.000Z</time>
      </trkpt>
      <trkpt lat="44.13787" lon="6.10453">
        <ele>958</ele>
        <time>2022-03-03T09:31:53.000Z</time>
      </trkpt>
      <trkpt lat="44.13788" lon="6.10453">
        <ele>959</ele>
        <time>2022-03-03T09:31:54.000Z</time>
      </trkpt>
      <trkpt lat="44.13789" lon="6.10454">
        <ele>959</ele>
        <time>2022-03-03T09:31:55.000Z</time>
      </trkpt>
      <trkpt lat="44.1379" lon="6.10454">
        <ele>959</ele>
        <time>2022-03-03T09:31:56.000Z</time>
      </trkpt>
      <trkpt lat="44.1379" lon="6.10455">
        <ele>959</ele>
        <time>2022-03-03T09:31:57.000Z</time>
      </trkpt>
      <trkpt lat="44.13791" lon="6.10455">
        <ele>959</ele>
        <time>2022-03-03T09:31:58.000Z</time>
      </trkpt>
      <trkpt lat="44.13792" lon="6.10457">
        <ele>959</ele>
        <time>2022-03-03T09:31:59.000Z</time>
      </trkpt>
      <trkpt lat="44.13792" lon="6.10457">
        <ele>959</ele>
        <time>2022-03-03T09:32:00.000Z</time>
      </trkpt>
      <trkpt lat="44.13793" lon="6.10458">
        <ele>959</ele>
        <time>2022-03-03T09:32:01.000Z</time>
      </trkpt>
      <trkpt lat="44.13794" lon="6.10459">
        <ele>959</ele>
        <time>2022-03-03T09:32:02.000Z</time>
      </trkpt>
      <trkpt lat="44.13794" lon="6.1046">
        <ele>959</ele>
        <time>2022-03-03T09:32:03.000Z</time>
      </trkpt>
      <trkpt lat="44.13795" lon="6.10461">
        <ele>959</ele>
        <time>2022-03-03T09:32:04.000Z</time>
      </trkpt>
      <trkpt lat="44.13796" lon="6.10462">
        <ele>960</ele>
        <time>2022-03-03T09:32:05.000Z</time>
      </trkpt>
      <trkpt lat="44.13797" lon="6.10463">
        <ele>960</ele>
        <time>2022-03-03T09:32:06.000Z</time>
      </trkpt>
      <trkpt lat="44.13797" lon="6.10463">
        <ele>960</ele>
        <time>2022-03-03T09:32:07.000Z</time>
      </trkpt>
      <trkpt lat="44.13798" lon="6.10465">
        <ele>960</ele>
        <time>2022-03-03T09:32:08.000Z</time>
      </trkpt>
      <trkpt lat="44.13798" lon="6.10465">
        <ele>960</ele>
        <time>2022-03-03T09:32:09.000Z</time>
      </trkpt>
      <trkpt lat="44.13799" lon="6.10466">
        <ele>961</ele>
        <time>2022-03-03T09:32:10.000Z</time>
      </trkpt>
      <trkpt lat="44.138" lon="6.10467">
        <ele>961</ele>
        <time>2022-03-03T09:32:11.000Z</time>
      </trkpt>
      <trkpt lat="44.138" lon="6.10468">
        <ele>961</ele>
        <time>2022-03-03T09:32:12.000Z</time>
      </trkpt>
      <trkpt lat="44.13801" lon="6.10469">
        <ele>961</ele>
        <time>2022-03-03T09:32:13.000Z</time>
      </trkpt>
      <trkpt lat="44.13802" lon="6.10471">
        <ele>961</ele>
        <time>2022-03-03T09:32:14.000Z</time>
      </trkpt>
      <trkpt lat="44.13802" lon="6.10471">
        <ele>961</ele>
        <time>2022-03-03T09:32:15.000Z</time>
      </trkpt>
      <trkpt lat="44.13803" lon="6.10472">
        <ele>962</ele>
        <time>2022-03-03T09:32:16.000Z</time>
      </trkpt>
      <trkpt lat="44.13803" lon="6.10473">
        <ele>962</ele>
        <time>2022-03-03T09:32:17.000Z</time>
      </trkpt>
      <trkpt lat="44.13804" lon="6.10474">
        <ele>962</ele>
        <time>2022-03-03T09:32:18.000Z</time>
      </trkpt>
      <trkpt lat="44.13804" lon="6.10475">
        <ele>962</ele>
        <time>2022-03-03T09:32:19.000Z</time>
      </trkpt>
      <trkpt lat="44.13805" lon="6.10476">
        <ele>962</ele>
        <time>2022-03-03T09:32:20.000Z</time>
      </trkpt>
      <trkpt lat="44.13806" lon="6.10477">
        <ele>962</ele>
        <time>2022-03-03T09:32:21.000Z</time>
      </trkpt>
      <trkpt lat="44.13806" lon="6.10478">
        <ele>963</ele>
        <time>2022-03-03T09:32:22.000Z</time>
      </trkpt>
      <trkpt lat="44.13807" lon="6.10479">
        <ele>963</ele>
        <time>2022-03-03T09:32:23.000Z</time>
      </trkpt>
      <trkpt lat="44.13807" lon="6.1048">
        <ele>963</ele>
        <time>2022-03-03T09:32:24.000Z</time>
      </trkpt>
      <trkpt lat="44.13808" lon="6.10481">
        <ele>963</ele>
        <time>2022-03-03T09:32:25.000Z</time>
      </trkpt>
      <trkpt lat="44.13808" lon="6.10482">
        <ele>963</ele>
        <time>2022-03-03T09:32:26.000Z</time>
      </trkpt>
      <trkpt lat="44.13809" lon="6.10483">
        <ele>963</ele>
        <time>2022-03-03T09:32:27.000Z</time>
      </trkpt>
      <trkpt lat="44.13809" lon="6.10484">
        <ele>964</ele>
        <time>2022-03-03T09:32:28.000Z</time>
      </trkpt>
      <trkpt lat="44.1381" lon="6.10485">
        <ele>964</ele>
        <time>2022-03-03T09:32:29.000Z</time>
      </trkpt>
      <trkpt lat="44.1381" lon="6.10486">
        <ele>964</ele>
        <time>2022-03-03T09:32:30.000Z</time>
      </trkpt>
      <trkpt lat="44.13811" lon="6.10487">
        <ele>964</ele>
        <time>2022-03-03T09:32:31.000Z</time>
      </trkpt>
      <trkpt lat="44.13811" lon="6.10488">
        <ele>964</ele>
        <time>2022-03-03T09:32:32.000Z</time>
      </trkpt>
      <trkpt lat="44.13812" lon="6.10489">
        <ele>964</ele>
        <time>2022-03-03T09:32:33.000Z</time>
      </trkpt>
      <trkpt lat="44.13812" lon="6.1049">
        <ele>965</ele>
        <time>2022-03-03T09:32:34.000Z</time>
      </trkpt>
      <trkpt lat="44.13812" lon="6.10491">
        <ele>965</ele>
        <time>2022-03-03T09:32:35.000Z</time>
      </trkpt>
      <trkpt lat="44.13813" lon="6.10492">
        <ele>965</ele>
        <time>2022-03-03T09:32:36.000Z</time>
      </trkpt>
      <trkpt lat="44.13813" lon="6.10493">
        <ele>965</ele>
        <time>2022-03-03T09:32:37.000Z</time>
      </trkpt>
      <trkpt lat="44.13814" lon="6.10494">
        <ele>965</ele>
        <time>2022-03-03T09:32:38.000Z</time>
      </trkpt>
      <trkpt lat="44.13814" lon="6.10495">
        <ele>965</ele>
        <time>2022-03-03T09:32:39.000Z</time>
      </trkpt>
      <trkpt lat="44.13815" lon="6.10496">
        <ele>965</ele>
        <time>2022-03-03T09:32:40.000Z</time>
      </trkpt>
      <trkpt lat="44.13815" lon="6.10497">
        <ele>966</ele>
        <time>2022-03-03T09:32:41.000Z</time>
      </trkpt>
      <trkpt lat="44.13815" lon="6.10498">
        <ele>966</ele>
        <time>2022-03-03T09:32:42.000Z</time>
      </trkpt>
      <trkpt lat="44.13816" lon="6.10499">
        <ele>966</ele>
        <time>2022-03-03T09:32:43.000Z</time>
      </trkpt>
      <trkpt lat="44.13816" lon="6.105">
        <ele>966</ele>
        <time>2022-03-03T09:32:44.000Z</time>
      </trkpt>
      <trkpt lat="44.13817" lon="6.10501">
        <ele>966</ele>
        <time>2022-03-03T09:32:45.000Z</time>
      </trkpt>
      <trkpt lat="44.13817" lon="6.10502">
        <ele>966</ele>
        <time>2022-03-03T09:32:46.000Z</time>
      </trkpt>
      <trkpt lat="44.13817" lon="6.10503">
        <ele>966</ele>
        <time>2022-03-03T09:32:47.000Z</time>
      </trkpt>
      <trkpt lat="44.13818" lon="6.10504">
        <ele>966</ele>
        <time>2022-03-03T09:32:48.000Z</time>
      </trkpt>
      <trkpt lat="44.13818" lon="6.10505">
        <ele>966</ele>
        <time>2022-03-03T09:32:49.000Z</time>
      </trkpt>
      <trkpt lat="44.13819" lon="6.10506">
        <ele>966</ele>
        <time>2022-03-03T09:32:50.000Z</time>
      </trkpt>
      <trkpt lat="44.1382" lon="6.10507">
        <ele>966</ele>
        <time>2022-03-03T09:32:51.000Z</time>
      </trkpt>
      <trkpt lat="44.1382" lon="6.10508">
        <ele>966</ele>
        <time>2022-03-03T09:32:52.000Z</time>
      </trkpt>
      <trkpt lat="44.13821" lon="6.10509">
        <ele>967</ele>
        <time>2022-03-03T09:32:53.000Z</time>
      </trkpt>
      <trkpt lat="44.13821" lon="6.1051">
        <ele>967</ele>
        <time>2022-03-03T09:32:54.000Z</time>
      </trkpt>
      <trkpt lat="44.13822" lon="6.10511">
        <ele>967</ele>
        <time>2022-03-03T09:32:55.000Z</time>
      </trkpt>
      <trkpt lat="44.13822" lon="6.10512">
        <ele>967</ele>
        <time>2022-03-03T09:32:56.000Z</time>
      </trkpt>
      <trkpt lat="44.13823" lon="6.10513">
        <ele>967</ele>
        <time>2022-03-03T09:32:57.000Z</time>
      </trkpt>
      <trkpt lat="44.13824" lon="6.10514">
        <ele>967</ele>
        <time>2022-03-03T09:32:58.000Z</time>
      </trkpt>
      <trkpt lat="44.13824" lon="6.10515">
        <ele>967</ele>
        <time>2022-03-03T09:32:59.000Z</time>
      </trkpt>
      <trkpt lat="44.13824" lon="6.10516">
        <ele>968</ele>
        <time>2022-03-03T09:33:00.000Z</time>
      </trkpt>
      <trkpt lat="44.13825" lon="6.10518">
        <ele>968</ele>
        <time>2022-03-03T09:33:01.000Z</time>
      </trkpt>
      <trkpt lat="44.13825" lon="6.10519">
        <ele>968</ele>
        <time>2022-03-03T09:33:02.000Z</time>
      </trkpt>
      <trkpt lat="44.13826" lon="6.1052">
        <ele>968</ele>
        <time>2022-03-03T09:33:03.000Z</time>
      </trkpt>
      <trkpt lat="44.13826" lon="6.10521">
        <ele>968</ele>
        <time>2022-03-03T09:33:04.000Z</time>
      </trkpt>
      <trkpt lat="44.13827" lon="6.10521">
        <ele>968</ele>
        <time>2022-03-03T09:33:05.000Z</time>
      </trkpt>
      <trkpt lat="44.13828" lon="6.10523">
        <ele>968</ele>
        <time>2022-03-03T09:33:06.000Z</time>
      </trkpt>
      <trkpt lat="44.13828" lon="6.10524">
        <ele>968</ele>
        <time>2022-03-03T09:33:07.000Z</time>
      </trkpt>
      <trkpt lat="44.13829" lon="6.10525">
        <ele>968</ele>
        <time>2022-03-03T09:33:08.000Z</time>
      </trkpt>
      <trkpt lat="44.1383" lon="6.10526">
        <ele>968</ele>
        <time>2022-03-03T09:33:09.000Z</time>
      </trkpt>
      <trkpt lat="44.1383" lon="6.10527">
        <ele>969</ele>
        <time>2022-03-03T09:33:10.000Z</time>
      </trkpt>
      <trkpt lat="44.13831" lon="6.10527">
        <ele>969</ele>
        <time>2022-03-03T09:33:11.000Z</time>
      </trkpt>
      <trkpt lat="44.13832" lon="6.10529">
        <ele>969</ele>
        <time>2022-03-03T09:33:12.000Z</time>
      </trkpt>
      <trkpt lat="44.13832" lon="6.1053">
        <ele>969</ele>
        <time>2022-03-03T09:33:13.000Z</time>
      </trkpt>
      <trkpt lat="44.13833" lon="6.1053">
        <ele>969</ele>
        <time>2022-03-03T09:33:14.000Z</time>
      </trkpt>
      <trkpt lat="44.13834" lon="6.10532">
        <ele>969</ele>
        <time>2022-03-03T09:33:15.000Z</time>
      </trkpt>
      <trkpt lat="44.13834" lon="6.10533">
        <ele>969</ele>
        <time>2022-03-03T09:33:16.000Z</time>
      </trkpt>
      <trkpt lat="44.13835" lon="6.10534">
        <ele>969</ele>
        <time>2022-03-03T09:33:17.000Z</time>
      </trkpt>
      <trkpt lat="44.13836" lon="6.10535">
        <ele>969</ele>
        <time>2022-03-03T09:33:18.000Z</time>
      </trkpt>
      <trkpt lat="44.13836" lon="6.10536">
        <ele>969</ele>
        <time>2022-03-03T09:33:19.000Z</time>
      </trkpt>
      <trkpt lat="44.13837" lon="6.10536">
        <ele>969</ele>
        <time>2022-03-03T09:33:20.000Z</time>
      </trkpt>
      <trkpt lat="44.13838" lon="6.10537">
        <ele>969</ele>
        <time>2022-03-03T09:33:21.000Z</time>
      </trkpt>
      <trkpt lat="44.13839" lon="6.10538">
        <ele>969</ele>
        <time>2022-03-03T09:33:22.000Z</time>
      </trkpt>
      <trkpt lat="44.13839" lon="6.10539">
        <ele>969</ele>
        <time>2022-03-03T09:33:23.000Z</time>
      </trkpt>
      <trkpt lat="44.1384" lon="6.1054">
        <ele>969</ele>
        <time>2022-03-03T09:33:24.000Z</time>
      </trkpt>
      <trkpt lat="44.13841" lon="6.10541">
        <ele>969</ele>
        <time>2022-03-03T09:33:25.000Z</time>
      </trkpt>
      <trkpt lat="44.13842" lon="6.10542">
        <ele>970</ele>
        <time>2022-03-03T09:33:26.000Z</time>
      </trkpt>
      <trkpt lat="44.13842" lon="6.10543">
        <ele>970</ele>
        <time>2022-03-03T09:33:27.000Z</time>
      </trkpt>
      <trkpt lat="44.13843" lon="6.10543">
        <ele>970</ele>
        <time>2022-03-03T09:33:28.000Z</time>
      </trkpt>
      <trkpt lat="44.13844" lon="6.10544">
        <ele>970</ele>
        <time>2022-03-03T09:33:29.000Z</time>
      </trkpt>
      <trkpt lat="44.13845" lon="6.10545">
        <ele>970</ele>
        <time>2022-03-03T09:33:30.000Z</time>
      </trkpt>
      <trkpt lat="44.13845" lon="6.10546">
        <ele>970</ele>
        <time>2022-03-03T09:33:31.000Z</time>
      </trkpt>
      <trkpt lat="44.13846" lon="6.10547">
        <ele>970</ele>
        <time>2022-03-03T09:33:32.000Z</time>
      </trkpt>
      <trkpt lat="44.13847" lon="6.10548">
        <ele>970</ele>
        <time>2022-03-03T09:33:33.000Z</time>
      </trkpt>
      <trkpt lat="44.13847" lon="6.10549">
        <ele>970</ele>
        <time>2022-03-03T09:33:34.000Z</time>
      </trkpt>
      <trkpt lat="44.13848" lon="6.1055">
        <ele>970</ele>
        <time>2022-03-03T09:33:35.000Z</time>
      </trkpt>
      <trkpt lat="44.13849" lon="6.10551">
        <ele>970</ele>
        <time>2022-03-03T09:33:36.000Z</time>
      </trkpt>
      <trkpt lat="44.1385" lon="6.10551">
        <ele>970</ele>
        <time>2022-03-03T09:33:37.000Z</time>
      </trkpt>
      <trkpt lat="44.13851" lon="6.10552">
        <ele>970</ele>
        <time>2022-03-03T09:33:38.000Z</time>
      </trkpt>
      <trkpt lat="44.13851" lon="6.10553">
        <ele>970</ele>
        <time>2022-03-03T09:33:39.000Z</time>
      </trkpt>
      <trkpt lat="44.13852" lon="6.10554">
        <ele>970</ele>
        <time>2022-03-03T09:33:40.000Z</time>
      </trkpt>
      <trkpt lat="44.13853" lon="6.10555">
        <ele>970</ele>
        <time>2022-03-03T09:33:41.000Z</time>
      </trkpt>
      <trkpt lat="44.13853" lon="6.10555">
        <ele>970</ele>
        <time>2022-03-03T09:33:42.000Z</time>
      </trkpt>
      <trkpt lat="44.13854" lon="6.10556">
        <ele>970</ele>
        <time>2022-03-03T09:33:43.000Z</time>
      </trkpt>
      <trkpt lat="44.13855" lon="6.10557">
        <ele>970</ele>
        <time>2022-03-03T09:33:44.000Z</time>
      </trkpt>
      <trkpt lat="44.13855" lon="6.10557">
        <ele>971</ele>
        <time>2022-03-03T09:33:45.000Z</time>
      </trkpt>
      <trkpt lat="44.13856" lon="6.10558">
        <ele>971</ele>
        <time>2022-03-03T09:33:46.000Z</time>
      </trkpt>
      <trkpt lat="44.13857" lon="6.10559">
        <ele>971</ele>
        <time>2022-03-03T09:33:47.000Z</time>
      </trkpt>
      <trkpt lat="44.13858" lon="6.1056">
        <ele>971</ele>
        <time>2022-03-03T09:33:48.000Z</time>
      </trkpt>
      <trkpt lat="44.13858" lon="6.1056">
        <ele>971</ele>
        <time>2022-03-03T09:33:49.000Z</time>
      </trkpt>
      <trkpt lat="44.13859" lon="6.10561">
        <ele>971</ele>
        <time>2022-03-03T09:33:50.000Z</time>
      </trkpt>
      <trkpt lat="44.1386" lon="6.10562">
        <ele>971</ele>
        <time>2022-03-03T09:33:51.000Z</time>
      </trkpt>
      <trkpt lat="44.1386" lon="6.10563">
        <ele>971</ele>
        <time>2022-03-03T09:33:52.000Z</time>
      </trkpt>
      <trkpt lat="44.13861" lon="6.10563">
        <ele>971</ele>
        <time>2022-03-03T09:33:53.000Z</time>
      </trkpt>
      <trkpt lat="44.13862" lon="6.10564">
        <ele>971</ele>
        <time>2022-03-03T09:33:54.000Z</time>
      </trkpt>
      <trkpt lat="44.13862" lon="6.10565">
        <ele>972</ele>
        <time>2022-03-03T09:33:55.000Z</time>
      </trkpt>
      <trkpt lat="44.13863" lon="6.10565">
        <ele>972</ele>
        <time>2022-03-03T09:33:56.000Z</time>
      </trkpt>
      <trkpt lat="44.13864" lon="6.10566">
        <ele>972</ele>
        <time>2022-03-03T09:33:57.000Z</time>
      </trkpt>
      <trkpt lat="44.13864" lon="6.10567">
        <ele>972</ele>
        <time>2022-03-03T09:33:58.000Z</time>
      </trkpt>
      <trkpt lat="44.13865" lon="6.10567">
        <ele>972</ele>
        <time>2022-03-03T09:33:59.000Z</time>
      </trkpt>
      <trkpt lat="44.13865" lon="6.10568">
        <ele>972</ele>
        <time>2022-03-03T09:34:00.000Z</time>
      </trkpt>
      <trkpt lat="44.13866" lon="6.10568">
        <ele>972</ele>
        <time>2022-03-03T09:34:01.000Z</time>
      </trkpt>
      <trkpt lat="44.13867" lon="6.10569">
        <ele>972</ele>
        <time>2022-03-03T09:34:02.000Z</time>
      </trkpt>
      <trkpt lat="44.13867" lon="6.10569">
        <ele>973</ele>
        <time>2022-03-03T09:34:03.000Z</time>
      </trkpt>
      <trkpt lat="44.13868" lon="6.1057">
        <ele>973</ele>
        <time>2022-03-03T09:34:04.000Z</time>
      </trkpt>
      <trkpt lat="44.13869" lon="6.1057">
        <ele>973</ele>
        <time>2022-03-03T09:34:05.000Z</time>
      </trkpt>
      <trkpt lat="44.13869" lon="6.10571">
        <ele>973</ele>
        <time>2022-03-03T09:34:06.000Z</time>
      </trkpt>
      <trkpt lat="44.1387" lon="6.10572">
        <ele>973</ele>
        <time>2022-03-03T09:34:07.000Z</time>
      </trkpt>
      <trkpt lat="44.13871" lon="6.10572">
        <ele>973</ele>
        <time>2022-03-03T09:34:08.000Z</time>
      </trkpt>
      <trkpt lat="44.13871" lon="6.10573">
        <ele>974</ele>
        <time>2022-03-03T09:34:09.000Z</time>
      </trkpt>
      <trkpt lat="44.13872" lon="6.10574">
        <ele>974</ele>
        <time>2022-03-03T09:34:10.000Z</time>
      </trkpt>
      <trkpt lat="44.13872" lon="6.10574">
        <ele>974</ele>
        <time>2022-03-03T09:34:11.000Z</time>
      </trkpt>
      <trkpt lat="44.13873" lon="6.10574">
        <ele>974</ele>
        <time>2022-03-03T09:34:12.000Z</time>
      </trkpt>
      <trkpt lat="44.13874" lon="6.10574">
        <ele>974</ele>
        <time>2022-03-03T09:34:13.000Z</time>
      </trkpt>
      <trkpt lat="44.13875" lon="6.10574">
        <ele>975</ele>
        <time>2022-03-03T09:34:14.000Z</time>
      </trkpt>
      <trkpt lat="44.13875" lon="6.10574">
        <ele>975</ele>
        <time>2022-03-03T09:34:15.000Z</time>
      </trkpt>
      <trkpt lat="44.13876" lon="6.10574">
        <ele>975</ele>
        <time>2022-03-03T09:34:16.000Z</time>
      </trkpt>
      <trkpt lat="44.13877" lon="6.10573">
        <ele>975</ele>
        <time>2022-03-03T09:34:17.000Z</time>
      </trkpt>
      <trkpt lat="44.13877" lon="6.10573">
        <ele>975</ele>
        <time>2022-03-03T09:34:18.000Z</time>
      </trkpt>
      <trkpt lat="44.13878" lon="6.10573">
        <ele>975</ele>
        <time>2022-03-03T09:34:19.000Z</time>
      </trkpt>
      <trkpt lat="44.13879" lon="6.10572">
        <ele>975</ele>
        <time>2022-03-03T09:34:20.000Z</time>
      </trkpt>
      <trkpt lat="44.1388" lon="6.10572">
        <ele>976</ele>
        <time>2022-03-03T09:34:21.000Z</time>
      </trkpt>
      <trkpt lat="44.1388" lon="6.10571">
        <ele>976</ele>
        <time>2022-03-03T09:34:22.000Z</time>
      </trkpt>
      <trkpt lat="44.13881" lon="6.10571">
        <ele>976</ele>
        <time>2022-03-03T09:34:23.000Z</time>
      </trkpt>
      <trkpt lat="44.13882" lon="6.1057">
        <ele>976</ele>
        <time>2022-03-03T09:34:24.000Z</time>
      </trkpt>
      <trkpt lat="44.13882" lon="6.10569">
        <ele>976</ele>
        <time>2022-03-03T09:34:25.000Z</time>
      </trkpt>
      <trkpt lat="44.13883" lon="6.10569">
        <ele>976</ele>
        <time>2022-03-03T09:34:26.000Z</time>
      </trkpt>
      <trkpt lat="44.13883" lon="6.10568">
        <ele>976</ele>
        <time>2022-03-03T09:34:27.000Z</time>
      </trkpt>
      <trkpt lat="44.13884" lon="6.10567">
        <ele>976</ele>
        <time>2022-03-03T09:34:28.000Z</time>
      </trkpt>
      <trkpt lat="44.13884" lon="6.10566">
        <ele>976</ele>
        <time>2022-03-03T09:34:29.000Z</time>
      </trkpt>
      <trkpt lat="44.13885" lon="6.10565">
        <ele>977</ele>
        <time>2022-03-03T09:34:30.000Z</time>
      </trkpt>
      <trkpt lat="44.13885" lon="6.10564">
        <ele>977</ele>
        <time>2022-03-03T09:34:31.000Z</time>
      </trkpt>
      <trkpt lat="44.13885" lon="6.10563">
        <ele>977</ele>
        <time>2022-03-03T09:34:32.000Z</time>
      </trkpt>
      <trkpt lat="44.13886" lon="6.10562">
        <ele>977</ele>
        <time>2022-03-03T09:34:33.000Z</time>
      </trkpt>
      <trkpt lat="44.13886" lon="6.10561">
        <ele>977</ele>
        <time>2022-03-03T09:34:34.000Z</time>
      </trkpt>
      <trkpt lat="44.13887" lon="6.1056">
        <ele>977</ele>
        <time>2022-03-03T09:34:35.000Z</time>
      </trkpt>
      <trkpt lat="44.13887" lon="6.10559">
        <ele>977</ele>
        <time>2022-03-03T09:34:36.000Z</time>
      </trkpt>
      <trkpt lat="44.13887" lon="6.10558">
        <ele>977</ele>
        <time>2022-03-03T09:34:37.000Z</time>
      </trkpt>
      <trkpt lat="44.13887" lon="6.10557">
        <ele>977</ele>
        <time>2022-03-03T09:34:38.000Z</time>
      </trkpt>
      <trkpt lat="44.13888" lon="6.10556">
        <ele>977</ele>
        <time>2022-03-03T09:34:39.000Z</time>
      </trkpt>
      <trkpt lat="44.13888" lon="6.10555">
        <ele>978</ele>
        <time>2022-03-03T09:34:40.000Z</time>
      </trkpt>
      <trkpt lat="44.13888" lon="6.10554">
        <ele>978</ele>
        <time>2022-03-03T09:34:41.000Z</time>
      </trkpt>
      <trkpt lat="44.13888" lon="6.10553">
        <ele>978</ele>
        <time>2022-03-03T09:34:42.000Z</time>
      </trkpt>
      <trkpt lat="44.13888" lon="6.10552">
        <ele>978</ele>
        <time>2022-03-03T09:34:43.000Z</time>
      </trkpt>
      <trkpt lat="44.13887" lon="6.10551">
        <ele>978</ele>
        <time>2022-03-03T09:34:44.000Z</time>
      </trkpt>
      <trkpt lat="44.13887" lon="6.1055">
        <ele>978</ele>
        <time>2022-03-03T09:34:45.000Z</time>
      </trkpt>
      <trkpt lat="44.13887" lon="6.10549">
        <ele>978</ele>
        <time>2022-03-03T09:34:46.000Z</time>
      </trkpt>
      <trkpt lat="44.13887" lon="6.10548">
        <ele>979</ele>
        <time>2022-03-03T09:34:47.000Z</time>
      </trkpt>
      <trkpt lat="44.13887" lon="6.10547">
        <ele>979</ele>
        <time>2022-03-03T09:34:48.000Z</time>
      </trkpt>
      <trkpt lat="44.13886" lon="6.10546">
        <ele>979</ele>
        <time>2022-03-03T09:34:49.000Z</time>
      </trkpt>
      <trkpt lat="44.13886" lon="6.10545">
        <ele>979</ele>
        <time>2022-03-03T09:34:50.000Z</time>
      </trkpt>
      <trkpt lat="44.13885" lon="6.10544">
        <ele>979</ele>
        <time>2022-03-03T09:34:51.000Z</time>
      </trkpt>
      <trkpt lat="44.13885" lon="6.10543">
        <ele>979</ele>
        <time>2022-03-03T09:34:52.000Z</time>
      </trkpt>
      <trkpt lat="44.13885" lon="6.10543">
        <ele>980</ele>
        <time>2022-03-03T09:34:53.000Z</time>
      </trkpt>
      <trkpt lat="44.13884" lon="6.10541">
        <ele>980</ele>
        <time>2022-03-03T09:34:54.000Z</time>
      </trkpt>
      <trkpt lat="44.13884" lon="6.1054">
        <ele>980</ele>
        <time>2022-03-03T09:34:55.000Z</time>
      </trkpt>
      <trkpt lat="44.13883" lon="6.10539">
        <ele>980</ele>
        <time>2022-03-03T09:34:56.000Z</time>
      </trkpt>
      <trkpt lat="44.13883" lon="6.10538">
        <ele>980</ele>
        <time>2022-03-03T09:34:57.000Z</time>
      </trkpt>
      <trkpt lat="44.13882" lon="6.10538">
        <ele>980</ele>
        <time>2022-03-03T09:34:58.000Z</time>
      </trkpt>
      <trkpt lat="44.13882" lon="6.10536">
        <ele>980</ele>
        <time>2022-03-03T09:34:59.000Z</time>
      </trkpt>
      <trkpt lat="44.13881" lon="6.10536">
        <ele>980</ele>
        <time>2022-03-03T09:35:00.000Z</time>
      </trkpt>
      <trkpt lat="44.13881" lon="6.10534">
        <ele>981</ele>
        <time>2022-03-03T09:35:01.000Z</time>
      </trkpt>
      <trkpt lat="44.13881" lon="6.10533">
        <ele>981</ele>
        <time>2022-03-03T09:35:02.000Z</time>
      </trkpt>
      <trkpt lat="44.13881" lon="6.10533">
        <ele>981</ele>
        <time>2022-03-03T09:35:03.000Z</time>
      </trkpt>
      <trkpt lat="44.13881" lon="6.10531">
        <ele>981</ele>
        <time>2022-03-03T09:35:04.000Z</time>
      </trkpt>
      <trkpt lat="44.13881" lon="6.1053">
        <ele>981</ele>
        <time>2022-03-03T09:35:05.000Z</time>
      </trkpt>
      <trkpt lat="44.13881" lon="6.10529">
        <ele>981</ele>
        <time>2022-03-03T09:35:06.000Z</time>
      </trkpt>
      <trkpt lat="44.13881" lon="6.10528">
        <ele>981</ele>
        <time>2022-03-03T09:35:07.000Z</time>
      </trkpt>
      <trkpt lat="44.13881" lon="6.10527">
        <ele>981</ele>
        <time>2022-03-03T09:35:08.000Z</time>
      </trkpt>
      <trkpt lat="44.13881" lon="6.10527">
        <ele>982</ele>
        <time>2022-03-03T09:35:09.000Z</time>
      </trkpt>
      <trkpt lat="44.13881" lon="6.10526">
        <ele>982</ele>
        <time>2022-03-03T09:35:10.000Z</time>
      </trkpt>
      <trkpt lat="44.13881" lon="6.10525">
        <ele>982</ele>
        <time>2022-03-03T09:35:11.000Z</time>
      </trkpt>
      <trkpt lat="44.13881" lon="6.10524">
        <ele>982</ele>
        <time>2022-03-03T09:35:12.000Z</time>
      </trkpt>
      <trkpt lat="44.13881" lon="6.10524">
        <ele>982</ele>
        <time>2022-03-03T09:35:13.000Z</time>
      </trkpt>
      <trkpt lat="44.13881" lon="6.10524">
        <ele>982</ele>
        <time>2022-03-03T09:35:14.000Z</time>
      </trkpt>
      <trkpt lat="44.13882" lon="6.10524">
        <ele>982</ele>
        <time>2022-03-03T09:35:15.000Z</time>
      </trkpt>
      <trkpt lat="44.13881" lon="6.10524">
        <ele>982</ele>
        <time>2022-03-03T09:35:16.000Z</time>
      </trkpt>
      <trkpt lat="44.13881" lon="6.10524">
        <ele>982</ele>
        <time>2022-03-03T09:35:17.000Z</time>
      </trkpt>
      <trkpt lat="44.13881" lon="6.10524">
        <ele>982</ele>
        <time>2022-03-03T09:35:18.000Z</time>
      </trkpt>
      <trkpt lat="44.13881" lon="6.10524">
        <ele>982</ele>
        <time>2022-03-03T09:35:19.000Z</time>
      </trkpt>
      <trkpt lat="44.13882" lon="6.10524">
        <ele>982</ele>
        <time>2022-03-03T09:35:20.000Z</time>
      </trkpt>
      <trkpt lat="44.13882" lon="6.10524">
        <ele>982</ele>
        <time>2022-03-03T09:35:21.000Z</time>
      </trkpt>
      <trkpt lat="44.13882" lon="6.10524">
        <ele>982</ele>
        <time>2022-03-03T09:35:22.000Z</time>
      </trkpt>
      <trkpt lat="44.13882" lon="6.10524">
        <ele>982</ele>
        <time>2022-03-03T09:35:23.000Z</time>
      </trkpt>
      <trkpt lat="44.13882" lon="6.10524">
        <ele>982</ele>
        <time>2022-03-03T09:35:24.000Z</time>
      </trkpt>
      <trkpt lat="44.13882" lon="6.10524">
        <ele>982</ele>
        <time>2022-03-03T09:35:25.000Z</time>
      </trkpt>
      <trkpt lat="44.13882" lon="6.10524">
        <ele>982</ele>
        <time>2022-03-03T09:35:26.000Z</time>
      </trkpt>
      <trkpt lat="44.13882" lon="6.10524">
        <ele>982</ele>
        <time>2022-03-03T09:35:27.000Z</time>
      </trkpt>
      <trkpt lat="44.13882" lon="6.10524">
        <ele>983</ele>
        <time>2022-03-03T09:35:28.000Z</time>
      </trkpt>
      <trkpt lat="44.13882" lon="6.10524">
        <ele>983</ele>
        <time>2022-03-03T09:35:29.000Z</time>
      </trkpt>
      <trkpt lat="44.13881" lon="6.10524">
        <ele>983</ele>
        <time>2022-03-03T09:35:30.000Z</time>
      </trkpt>
      <trkpt lat="44.13881" lon="6.10524">
        <ele>983</ele>
        <time>2022-03-03T09:35:31.000Z</time>
      </trkpt>
      <trkpt lat="44.13881" lon="6.10524">
        <ele>983</ele>
        <time>2022-03-03T09:35:32.000Z</time>
      </trkpt>
      <trkpt lat="44.13881" lon="6.10524">
        <ele>983</ele>
        <time>2022-03-03T09:35:33.000Z</time>
      </trkpt>
      <trkpt lat="44.13882" lon="6.10524">
        <ele>983</ele>
        <time>2022-03-03T09:35:34.000Z</time>
      </trkpt>
      <trkpt lat="44.13882" lon="6.10524">
        <ele>983</ele>
        <time>2022-03-03T09:35:35.000Z</time>
      </trkpt>
      <trkpt lat="44.13882" lon="6.10524">
        <ele>983</ele>
        <time>2022-03-03T09:35:36.000Z</time>
      </trkpt>
      <trkpt lat="44.13882" lon="6.10524">
        <ele>983</ele>
        <time>2022-03-03T09:35:37.000Z</time>
      </trkpt>
      <trkpt lat="44.13882" lon="6.10524">
        <ele>983</ele>
        <time>2022-03-03T09:35:38.000Z</time>
      </trkpt>
      <trkpt lat="44.13882" lon="6.10524">
        <ele>983</ele>
        <time>2022-03-03T09:35:39.000Z</time>
      </trkpt>
      <trkpt lat="44.13882" lon="6.10524">
        <ele>983</ele>
        <time>2022-03-03T09:35:40.000Z</time>
      </trkpt>
      <trkpt lat="44.13882" lon="6.10524">
        <ele>983</ele>
        <time>2022-03-03T09:35:41.000Z</time>
      </trkpt>
      <trkpt lat="44.13882" lon="6.10524">
        <ele>983</ele>
        <time>2022-03-03T09:35:42.000Z</time>
      </trkpt>
      <trkpt lat="44.13882" lon="6.10523">
        <ele>983</ele>
        <time>2022-03-03T09:35:43.000Z</time>
      </trkpt>
      <trkpt lat="44.13882" lon="6.10523">
        <ele>983</ele>
        <time>2022-03-03T09:35:44.000Z</time>
      </trkpt>
      <trkpt lat="44.13882" lon="6.10523">
        <ele>983</ele>
        <time>2022-03-03T09:35:45.000Z</time>
      </trkpt>
      <trkpt lat="44.13882" lon="6.10523">
        <ele>983</ele>
        <time>2022-03-03T09:35:46.000Z</time>
      </trkpt>
      <trkpt lat="44.13882" lon="6.10523">
        <ele>983</ele>
        <time>2022-03-03T09:35:47.000Z</time>
      </trkpt>
      <trkpt lat="44.13882" lon="6.10523">
        <ele>983</ele>
        <time>2022-03-03T09:35:48.000Z</time>
      </trkpt>
      <trkpt lat="44.13882" lon="6.10523">
        <ele>983</ele>
        <time>2022-03-03T09:35:49.000Z</time>
      </trkpt>
      <trkpt lat="44.13882" lon="6.10523">
        <ele>983</ele>
        <time>2022-03-03T09:35:50.000Z</time>
      </trkpt>
      <trkpt lat="44.13882" lon="6.10523">
        <ele>983</ele>
        <time>2022-03-03T09:35:51.000Z</time>
      </trkpt>
      <trkpt lat="44.13882" lon="6.10523">
        <ele>983</ele>
        <time>2022-03-03T09:35:52.000Z</time>
      </trkpt>
      <trkpt lat="44.13882" lon="6.10523">
        <ele>983</ele>
        <time>2022-03-03T09:35:53.000Z</time>
      </trkpt>
      <trkpt lat="44.13882" lon="6.10523">
        <ele>983</ele>
        <time>2022-03-03T09:35:54.000Z</time>
      </trkpt>
      <trkpt lat="44.13882" lon="6.10523">
        <ele>983</ele>
        <time>2022-03-03T09:35:55.000Z</time>
      </trkpt>
      <trkpt lat="44.13882" lon="6.10523">
        <ele>983</ele>
        <time>2022-03-03T09:35:56.000Z</time>
      </trkpt>
      <trkpt lat="44.13882" lon="6.10523">
        <ele>983</ele>
        <time>2022-03-03T09:35:57.000Z</time>
      </trkpt>
      <trkpt lat="44.13882" lon="6.10523">
        <ele>983</ele>
        <time>2022-03-03T09:35:58.000Z</time>
      </trkpt>
      <trkpt lat="44.13882" lon="6.10523">
        <ele>983</ele>
        <time>2022-03-03T09:35:59.000Z</time>
      </trkpt>
      <trkpt lat="44.13882" lon="6.10523">
        <ele>983</ele>
        <time>2022-03-03T09:36:00.000Z</time>
      </trkpt>
      <trkpt lat="44.13882" lon="6.10523">
        <ele>983</ele>
        <time>2022-03-03T09:36:01.000Z</time>
      </trkpt>
      <trkpt lat="44.13882" lon="6.10523">
        <ele>983</ele>
        <time>2022-03-03T09:36:02.000Z</time>
      </trkpt>
      <trkpt lat="44.13882" lon="6.10523">
        <ele>983</ele>
        <time>2022-03-03T09:36:03.000Z</time>
      </trkpt>
      <trkpt lat="44.13882" lon="6.10523">
        <ele>983</ele>
        <time>2022-03-03T09:36:04.000Z</time>
      </trkpt>
      <trkpt lat="44.13882" lon="6.10523">
        <ele>983</ele>
        <time>2022-03-03T09:36:05.000Z</time>
      </trkpt>
      <trkpt lat="44.13882" lon="6.10523">
        <ele>983</ele>
        <time>2022-03-03T09:36:06.000Z</time>
      </trkpt>
      <trkpt lat="44.13882" lon="6.10523">
        <ele>983</ele>
        <time>2022-03-03T09:36:07.000Z</time>
      </trkpt>
      <trkpt lat="44.13882" lon="6.10523">
        <ele>983</ele>
        <time>2022-03-03T09:36:08.000Z</time>
      </trkpt>
      <trkpt lat="44.13882" lon="6.10523">
        <ele>983</ele>
        <time>2022-03-03T09:36:09.000Z</time>
      </trkpt>
      <trkpt lat="44.13882" lon="6.10523">
        <ele>983</ele>
        <time>2022-03-03T09:36:10.000Z</time>
      </trkpt>
      <trkpt lat="44.13882" lon="6.10523">
        <ele>983</ele>
        <time>2022-03-03T09:36:11.000Z</time>
      </trkpt>
      <trkpt lat="44.13882" lon="6.10523">
        <ele>983</ele>
        <time>2022-03-03T09:36:12.000Z</time>
      </trkpt>
      <trkpt lat="44.13882" lon="6.10523">
        <ele>983</ele>
        <time>2022-03-03T09:36:13.000Z</time>
      </trkpt>
      <trkpt lat="44.13882" lon="6.10523">
        <ele>983</ele>
        <time>2022-03-03T09:36:14.000Z</time>
      </trkpt>
      <trkpt lat="44.13882" lon="6.10523">
        <ele>983</ele>
        <time>2022-03-03T09:36:15.000Z</time>
      </trkpt>
      <trkpt lat="44.13882" lon="6.10523">
        <ele>983</ele>
        <time>2022-03-03T09:36:16.000Z</time>
      </trkpt>
      <trkpt lat="44.13882" lon="6.10523">
        <ele>983</ele>
        <time>2022-03-03T09:36:17.000Z</time>
      </trkpt>
      <trkpt lat="44.13882" lon="6.10523">
        <ele>983</ele>
        <time>2022-03-03T09:36:18.000Z</time>
      </trkpt>
      <trkpt lat="44.13882" lon="6.10523">
        <ele>983</ele>
        <time>2022-03-03T09:36:19.000Z</time>
      </trkpt>
      <trkpt lat="44.13882" lon="6.10523">
        <ele>983</ele>
        <time>2022-03-03T09:36:20.000Z</time>
      </trkpt>
      <trkpt lat="44.13882" lon="6.10523">
        <ele>983</ele>
        <time>2022-03-03T09:36:21.000Z</time>
      </trkpt>
      <trkpt lat="44.13882" lon="6.10523">
        <ele>983</ele>
        <time>2022-03-03T09:36:22.000Z</time>
      </trkpt>
      <trkpt lat="44.13882" lon="6.10523">
        <ele>983</ele>
        <time>2022-03-03T09:36:23.000Z</time>
      </trkpt>
      <trkpt lat="44.13882" lon="6.10523">
        <ele>983</ele>
        <time>2022-03-03T09:36:24.000Z</time>
      </trkpt>
      <trkpt lat="44.13882" lon="6.10523">
        <ele>983</ele>
        <time>2022-03-03T09:36:25.000Z</time>
      </trkpt>
      <trkpt lat="44.13882" lon="6.10523">
        <ele>983</ele>
        <time>2022-03-03T09:36:26.000Z</time>
      </trkpt>
      <trkpt lat="44.13882" lon="6.10523">
        <ele>983</ele>
        <time>2022-03-03T09:36:27.000Z</time>
      </trkpt>
      <trkpt lat="44.13882" lon="6.10524">
        <ele>983</ele>
        <time>2022-03-03T09:36:28.000Z</time>
      </trkpt>
      <trkpt lat="44.13882" lon="6.10524">
        <ele>983</ele>
        <time>2022-03-03T09:36:29.000Z</time>
      </trkpt>
      <trkpt lat="44.13882" lon="6.10524">
        <ele>983</ele>
        <time>2022-03-03T09:36:30.000Z</time>
      </trkpt>
      <trkpt lat="44.13882" lon="6.10524">
        <ele>983</ele>
        <time>2022-03-03T09:36:31.000Z</time>
      </trkpt>
      <trkpt lat="44.13882" lon="6.10524">
        <ele>983</ele>
        <time>2022-03-03T09:36:32.000Z</time>
      </trkpt>
      <trkpt lat="44.13882" lon="6.10524">
        <ele>983</ele>
        <time>2022-03-03T09:36:33.000Z</time>
      </trkpt>
      <trkpt lat="44.13882" lon="6.10524">
        <ele>983</ele>
        <time>2022-03-03T09:36:34.000Z</time>
      </trkpt>
      <trkpt lat="44.13882" lon="6.10523">
        <ele>983</ele>
        <time>2022-03-03T09:36:35.000Z</time>
      </trkpt>
      <trkpt lat="44.13882" lon="6.10523">
        <ele>983</ele>
        <time>2022-03-03T09:36:36.000Z</time>
      </trkpt>
      <trkpt lat="44.13882" lon="6.10523">
        <ele>983</ele>
        <time>2022-03-03T09:36:37.000Z</time>
      </trkpt>
      <trkpt lat="44.13882" lon="6.10523">
        <ele>983</ele>
        <time>2022-03-03T09:36:38.000Z</time>
      </trkpt>
      <trkpt lat="44.13882" lon="6.10523">
        <ele>983</ele>
        <time>2022-03-03T09:36:39.000Z</time>
      </trkpt>
      <trkpt lat="44.13882" lon="6.10523">
        <ele>983</ele>
        <time>2022-03-03T09:36:40.000Z</time>
      </trkpt>
      <trkpt lat="44.13882" lon="6.10523">
        <ele>983</ele>
        <time>2022-03-03T09:36:41.000Z</time>
      </trkpt>
      <trkpt lat="44.13882" lon="6.10523">
        <ele>983</ele>
        <time>2022-03-03T09:36:42.000Z</time>
      </trkpt>
      <trkpt lat="44.13882" lon="6.10523">
        <ele>983</ele>
        <time>2022-03-03T09:36:43.000Z</time>
      </trkpt>
      <trkpt lat="44.13882" lon="6.10523">
        <ele>983</ele>
        <time>2022-03-03T09:36:44.000Z</time>
      </trkpt>
      <trkpt lat="44.13882" lon="6.10523">
        <ele>983</ele>
        <time>2022-03-03T09:36:45.000Z</time>
      </trkpt>
      <trkpt lat="44.13882" lon="6.10523">
        <ele>983</ele>
        <time>2022-03-03T09:36:46.000Z</time>
      </trkpt>
      <trkpt lat="44.13882" lon="6.10523">
        <ele>983</ele>
        <time>2022-03-03T09:36:47.000Z</time>
      </trkpt>
      <trkpt lat="44.13882" lon="6.10523">
        <ele>983</ele>
        <time>2022-03-03T09:36:48.000Z</time>
      </trkpt>
      <trkpt lat="44.13882" lon="6.10523">
        <ele>983</ele>
        <time>2022-03-03T09:36:49.000Z</time>
      </trkpt>
      <trkpt lat="44.13882" lon="6.10523">
        <ele>983</ele>
        <time>2022-03-03T09:36:50.000Z</time>
      </trkpt>
      <trkpt lat="44.13882" lon="6.10523">
        <ele>983</ele>
        <time>2022-03-03T09:36:51.000Z</time>
      </trkpt>
      <trkpt lat="44.13882" lon="6.10523">
        <ele>983</ele>
        <time>2022-03-03T09:36:52.000Z</time>
      </trkpt>
      <trkpt lat="44.13882" lon="6.10523">
        <ele>983</ele>
        <time>2022-03-03T09:36:53.000Z</time>
      </trkpt>
      <trkpt lat="44.13882" lon="6.10523">
        <ele>983</ele>
        <time>2022-03-03T09:36:54.000Z</time>
      </trkpt>
      <trkpt lat="44.13882" lon="6.10523">
        <ele>983</ele>
        <time>2022-03-03T09:36:55.000Z</time>
      </trkpt>
      <trkpt lat="44.13882" lon="6.10523">
        <ele>983</ele>
        <time>2022-03-03T09:36:56.000Z</time>
      </trkpt>
      <trkpt lat="44.13882" lon="6.10523">
        <ele>983</ele>
        <time>2022-03-03T09:36:57.000Z</time>
      </trkpt>
      <trkpt lat="44.13882" lon="6.10523">
        <ele>983</ele>
        <time>2022-03-03T09:36:58.000Z</time>
      </trkpt>
      <trkpt lat="44.13882" lon="6.10523">
        <ele>983</ele>
        <time>2022-03-03T09:36:59.000Z</time>
      </trkpt>
      <trkpt lat="44.13882" lon="6.10523">
        <ele>983</ele>
        <time>2022-03-03T09:37:00.000Z</time>
      </trkpt>
      <trkpt lat="44.13882" lon="6.10523">
        <ele>983</ele>
        <time>2022-03-03T09:37:01.000Z</time>
      </trkpt>
      <trkpt lat="44.13882" lon="6.10523">
        <ele>983</ele>
        <time>2022-03-03T09:37:02.000Z</time>
      </trkpt>
      <trkpt lat="44.13882" lon="6.10523">
        <ele>983</ele>
        <time>2022-03-03T09:37:03.000Z</time>
      </trkpt>
      <trkpt lat="44.13882" lon="6.10523">
        <ele>983</ele>
        <time>2022-03-03T09:37:04.000Z</time>
      </trkpt>
      <trkpt lat="44.13882" lon="6.10523">
        <ele>983</ele>
        <time>2022-03-03T09:37:05.000Z</time>
      </trkpt>
      <trkpt lat="44.13882" lon="6.10523">
        <ele>983</ele>
        <time>2022-03-03T09:37:06.000Z</time>
      </trkpt>
      <trkpt lat="44.13883" lon="6.10523">
        <ele>983</ele>
        <time>2022-03-03T09:37:07.000Z</time>
      </trkpt>
      <trkpt lat="44.13883" lon="6.10523">
        <ele>983</ele>
        <time>2022-03-03T09:37:08.000Z</time>
      </trkpt>
      <trkpt lat="44.13882" lon="6.10523">
        <ele>983</ele>
        <time>2022-03-03T09:37:09.000Z</time>
      </trkpt>
      <trkpt lat="44.13882" lon="6.10523">
        <ele>983</ele>
        <time>2022-03-03T09:37:10.000Z</time>
      </trkpt>
      <trkpt lat="44.13882" lon="6.10523">
        <ele>983</ele>
        <time>2022-03-03T09:37:11.000Z</time>
      </trkpt>
      <trkpt lat="44.13882" lon="6.10523">
        <ele>983</ele>
        <time>2022-03-03T09:37:12.000Z</time>
      </trkpt>
      <trkpt lat="44.13882" lon="6.10523">
        <ele>983</ele>
        <time>2022-03-03T09:37:13.000Z</time>
      </trkpt>
      <trkpt lat="44.13882" lon="6.10523">
        <ele>983</ele>
        <time>2022-03-03T09:37:14.000Z</time>
      </trkpt>
      <trkpt lat="44.13882" lon="6.10523">
        <ele>983</ele>
        <time>2022-03-03T09:37:15.000Z</time>
      </trkpt>
      <trkpt lat="44.13882" lon="6.10523">
        <ele>983</ele>
        <time>2022-03-03T09:37:16.000Z</time>
      </trkpt>
      <trkpt lat="44.13882" lon="6.10523">
        <ele>983</ele>
        <time>2022-03-03T09:37:17.000Z</time>
      </trkpt>
      <trkpt lat="44.13882" lon="6.10523">
        <ele>983</ele>
        <time>2022-03-03T09:37:18.000Z</time>
      </trkpt>
      <trkpt lat="44.13883" lon="6.10523">
        <ele>983</ele>
        <time>2022-03-03T09:37:19.000Z</time>
      </trkpt>
      <trkpt lat="44.13882" lon="6.10523">
        <ele>983</ele>
        <time>2022-03-03T09:37:20.000Z</time>
      </trkpt>
      <trkpt lat="44.13882" lon="6.10523">
        <ele>983</ele>
        <time>2022-03-03T09:37:21.000Z</time>
      </trkpt>
      <trkpt lat="44.13882" lon="6.10523">
        <ele>983</ele>
        <time>2022-03-03T09:37:22.000Z</time>
      </trkpt>
      <trkpt lat="44.13882" lon="6.10523">
        <ele>983</ele>
        <time>2022-03-03T09:37:23.000Z</time>
      </trkpt>
      <trkpt lat="44.13882" lon="6.10523">
        <ele>983</ele>
        <time>2022-03-03T09:37:24.000Z</time>
      </trkpt>
      <trkpt lat="44.13882" lon="6.10523">
        <ele>983</ele>
        <time>2022-03-03T09:37:25.000Z</time>
      </trkpt>
      <trkpt lat="44.13882" lon="6.10523">
        <ele>983</ele>
        <time>2022-03-03T09:37:26.000Z</time>
      </trkpt>
      <trkpt lat="44.13882" lon="6.10522">
        <ele>983</ele>
        <time>2022-03-03T09:37:27.000Z</time>
      </trkpt>
      <trkpt lat="44.13883" lon="6.10522">
        <ele>983</ele>
        <time>2022-03-03T09:37:28.000Z</time>
      </trkpt>
      <trkpt lat="44.13883" lon="6.10522">
        <ele>983</ele>
        <time>2022-03-03T09:37:29.000Z</time>
      </trkpt>
      <trkpt lat="44.13884" lon="6.10521">
        <ele>983</ele>
        <time>2022-03-03T09:37:30.000Z</time>
      </trkpt>
      <trkpt lat="44.13884" lon="6.10521">
        <ele>984</ele>
        <time>2022-03-03T09:37:31.000Z</time>
      </trkpt>
      <trkpt lat="44.13885" lon="6.1052">
        <ele>984</ele>
        <time>2022-03-03T09:37:32.000Z</time>
      </trkpt>
      <trkpt lat="44.13886" lon="6.1052">
        <ele>984</ele>
        <time>2022-03-03T09:37:33.000Z</time>
      </trkpt>
      <trkpt lat="44.13886" lon="6.1052">
        <ele>984</ele>
        <time>2022-03-03T09:37:34.000Z</time>
      </trkpt>
      <trkpt lat="44.13887" lon="6.10519">
        <ele>984</ele>
        <time>2022-03-03T09:37:35.000Z</time>
      </trkpt>
      <trkpt lat="44.13888" lon="6.10519">
        <ele>984</ele>
        <time>2022-03-03T09:37:36.000Z</time>
      </trkpt>
      <trkpt lat="44.13889" lon="6.10518">
        <ele>984</ele>
        <time>2022-03-03T09:37:37.000Z</time>
      </trkpt>
      <trkpt lat="44.13889" lon="6.10518">
        <ele>984</ele>
        <time>2022-03-03T09:37:38.000Z</time>
      </trkpt>
      <trkpt lat="44.1389" lon="6.10517">
        <ele>984</ele>
        <time>2022-03-03T09:37:39.000Z</time>
      </trkpt>
      <trkpt lat="44.13891" lon="6.10516">
        <ele>985</ele>
        <time>2022-03-03T09:37:40.000Z</time>
      </trkpt>
      <trkpt lat="44.13891" lon="6.10516">
        <ele>985</ele>
        <time>2022-03-03T09:37:41.000Z</time>
      </trkpt>
      <trkpt lat="44.13892" lon="6.10515">
        <ele>985</ele>
        <time>2022-03-03T09:37:42.000Z</time>
      </trkpt>
      <trkpt lat="44.13893" lon="6.10515">
        <ele>985</ele>
        <time>2022-03-03T09:37:43.000Z</time>
      </trkpt>
      <trkpt lat="44.13893" lon="6.10514">
        <ele>985</ele>
        <time>2022-03-03T09:37:44.000Z</time>
      </trkpt>
      <trkpt lat="44.13894" lon="6.10514">
        <ele>985</ele>
        <time>2022-03-03T09:37:45.000Z</time>
      </trkpt>
      <trkpt lat="44.13894" lon="6.10513">
        <ele>985</ele>
        <time>2022-03-03T09:37:46.000Z</time>
      </trkpt>
      <trkpt lat="44.13895" lon="6.10512">
        <ele>985</ele>
        <time>2022-03-03T09:37:47.000Z</time>
      </trkpt>
      <trkpt lat="44.13896" lon="6.10511">
        <ele>985</ele>
        <time>2022-03-03T09:37:48.000Z</time>
      </trkpt>
      <trkpt lat="44.13896" lon="6.10511">
        <ele>985</ele>
        <time>2022-03-03T09:37:49.000Z</time>
      </trkpt>
      <trkpt lat="44.13897" lon="6.1051">
        <ele>985</ele>
        <time>2022-03-03T09:37:50.000Z</time>
      </trkpt>
      <trkpt lat="44.13897" lon="6.10509">
        <ele>985</ele>
        <time>2022-03-03T09:37:51.000Z</time>
      </trkpt>
      <trkpt lat="44.13898" lon="6.10509">
        <ele>986</ele>
        <time>2022-03-03T09:37:52.000Z</time>
      </trkpt>
      <trkpt lat="44.13899" lon="6.10508">
        <ele>986</ele>
        <time>2022-03-03T09:37:53.000Z</time>
      </trkpt>
      <trkpt lat="44.13899" lon="6.10507">
        <ele>986</ele>
        <time>2022-03-03T09:37:54.000Z</time>
      </trkpt>
      <trkpt lat="44.139" lon="6.10506">
        <ele>986</ele>
        <time>2022-03-03T09:37:55.000Z</time>
      </trkpt>
      <trkpt lat="44.139" lon="6.10505">
        <ele>986</ele>
        <time>2022-03-03T09:37:56.000Z</time>
      </trkpt>
      <trkpt lat="44.139" lon="6.10504">
        <ele>986</ele>
        <time>2022-03-03T09:37:57.000Z</time>
      </trkpt>
      <trkpt lat="44.13901" lon="6.10504">
        <ele>986</ele>
        <time>2022-03-03T09:37:58.000Z</time>
      </trkpt>
      <trkpt lat="44.13901" lon="6.10502">
        <ele>986</ele>
        <time>2022-03-03T09:37:59.000Z</time>
      </trkpt>
      <trkpt lat="44.13902" lon="6.10502">
        <ele>986</ele>
        <time>2022-03-03T09:38:00.000Z</time>
      </trkpt>
      <trkpt lat="44.13902" lon="6.10501">
        <ele>987</ele>
        <time>2022-03-03T09:38:01.000Z</time>
      </trkpt>
      <trkpt lat="44.13902" lon="6.105">
        <ele>987</ele>
        <time>2022-03-03T09:38:02.000Z</time>
      </trkpt>
      <trkpt lat="44.13903" lon="6.10499">
        <ele>987</ele>
        <time>2022-03-03T09:38:03.000Z</time>
      </trkpt>
      <trkpt lat="44.13903" lon="6.10498">
        <ele>987</ele>
        <time>2022-03-03T09:38:04.000Z</time>
      </trkpt>
      <trkpt lat="44.13903" lon="6.10497">
        <ele>987</ele>
        <time>2022-03-03T09:38:05.000Z</time>
      </trkpt>
      <trkpt lat="44.13903" lon="6.10497">
        <ele>987</ele>
        <time>2022-03-03T09:38:06.000Z</time>
      </trkpt>
      <trkpt lat="44.13904" lon="6.10495">
        <ele>987</ele>
        <time>2022-03-03T09:38:07.000Z</time>
      </trkpt>
      <trkpt lat="44.13904" lon="6.10495">
        <ele>988</ele>
        <time>2022-03-03T09:38:08.000Z</time>
      </trkpt>
      <trkpt lat="44.13904" lon="6.10494">
        <ele>988</ele>
        <time>2022-03-03T09:38:09.000Z</time>
      </trkpt>
      <trkpt lat="44.13904" lon="6.10492">
        <ele>988</ele>
        <time>2022-03-03T09:38:10.000Z</time>
      </trkpt>
      <trkpt lat="44.13905" lon="6.10492">
        <ele>988</ele>
        <time>2022-03-03T09:38:11.000Z</time>
      </trkpt>
      <trkpt lat="44.13905" lon="6.1049">
        <ele>988</ele>
        <time>2022-03-03T09:38:12.000Z</time>
      </trkpt>
      <trkpt lat="44.13905" lon="6.10489">
        <ele>988</ele>
        <time>2022-03-03T09:38:13.000Z</time>
      </trkpt>
      <trkpt lat="44.13905" lon="6.10488">
        <ele>988</ele>
        <time>2022-03-03T09:38:14.000Z</time>
      </trkpt>
      <trkpt lat="44.13905" lon="6.10487">
        <ele>989</ele>
        <time>2022-03-03T09:38:15.000Z</time>
      </trkpt>
      <trkpt lat="44.13905" lon="6.10486">
        <ele>989</ele>
        <time>2022-03-03T09:38:16.000Z</time>
      </trkpt>
      <trkpt lat="44.13905" lon="6.10485">
        <ele>989</ele>
        <time>2022-03-03T09:38:17.000Z</time>
      </trkpt>
      <trkpt lat="44.13905" lon="6.10484">
        <ele>989</ele>
        <time>2022-03-03T09:38:18.000Z</time>
      </trkpt>
      <trkpt lat="44.13905" lon="6.10484">
        <ele>989</ele>
        <time>2022-03-03T09:38:19.000Z</time>
      </trkpt>
      <trkpt lat="44.13906" lon="6.10482">
        <ele>989</ele>
        <time>2022-03-03T09:38:20.000Z</time>
      </trkpt>
      <trkpt lat="44.13906" lon="6.10481">
        <ele>989</ele>
        <time>2022-03-03T09:38:21.000Z</time>
      </trkpt>
      <trkpt lat="44.13906" lon="6.10481">
        <ele>990</ele>
        <time>2022-03-03T09:38:22.000Z</time>
      </trkpt>
      <trkpt lat="44.13906" lon="6.10479">
        <ele>990</ele>
        <time>2022-03-03T09:38:23.000Z</time>
      </trkpt>
      <trkpt lat="44.13906" lon="6.10479">
        <ele>990</ele>
        <time>2022-03-03T09:38:24.000Z</time>
      </trkpt>
      <trkpt lat="44.13906" lon="6.10478">
        <ele>990</ele>
        <time>2022-03-03T09:38:25.000Z</time>
      </trkpt>
      <trkpt lat="44.13907" lon="6.10477">
        <ele>990</ele>
        <time>2022-03-03T09:38:26.000Z</time>
      </trkpt>
      <trkpt lat="44.13907" lon="6.10476">
        <ele>990</ele>
        <time>2022-03-03T09:38:27.000Z</time>
      </trkpt>
      <trkpt lat="44.13907" lon="6.10474">
        <ele>990</ele>
        <time>2022-03-03T09:38:28.000Z</time>
      </trkpt>
      <trkpt lat="44.13907" lon="6.10474">
        <ele>990</ele>
        <time>2022-03-03T09:38:29.000Z</time>
      </trkpt>
      <trkpt lat="44.13907" lon="6.10473">
        <ele>991</ele>
        <time>2022-03-03T09:38:30.000Z</time>
      </trkpt>
      <trkpt lat="44.13907" lon="6.10472">
        <ele>991</ele>
        <time>2022-03-03T09:38:31.000Z</time>
      </trkpt>
      <trkpt lat="44.13907" lon="6.10471">
        <ele>991</ele>
        <time>2022-03-03T09:38:32.000Z</time>
      </trkpt>
      <trkpt lat="44.13907" lon="6.1047">
        <ele>991</ele>
        <time>2022-03-03T09:38:33.000Z</time>
      </trkpt>
      <trkpt lat="44.13907" lon="6.10469">
        <ele>991</ele>
        <time>2022-03-03T09:38:34.000Z</time>
      </trkpt>
      <trkpt lat="44.13908" lon="6.10469">
        <ele>992</ele>
        <time>2022-03-03T09:38:35.000Z</time>
      </trkpt>
      <trkpt lat="44.13908" lon="6.10468">
        <ele>992</ele>
        <time>2022-03-03T09:38:36.000Z</time>
      </trkpt>
      <trkpt lat="44.13908" lon="6.10467">
        <ele>992</ele>
        <time>2022-03-03T09:38:37.000Z</time>
      </trkpt>
      <trkpt lat="44.13908" lon="6.10466">
        <ele>992</ele>
        <time>2022-03-03T09:38:38.000Z</time>
      </trkpt>
      <trkpt lat="44.13909" lon="6.10465">
        <ele>992</ele>
        <time>2022-03-03T09:38:39.000Z</time>
      </trkpt>
      <trkpt lat="44.13909" lon="6.10464">
        <ele>992</ele>
        <time>2022-03-03T09:38:40.000Z</time>
      </trkpt>
      <trkpt lat="44.13909" lon="6.10463">
        <ele>992</ele>
        <time>2022-03-03T09:38:41.000Z</time>
      </trkpt>
      <trkpt lat="44.13909" lon="6.10462">
        <ele>992</ele>
        <time>2022-03-03T09:38:42.000Z</time>
      </trkpt>
      <trkpt lat="44.1391" lon="6.10461">
        <ele>992</ele>
        <time>2022-03-03T09:38:43.000Z</time>
      </trkpt>
      <trkpt lat="44.1391" lon="6.1046">
        <ele>993</ele>
        <time>2022-03-03T09:38:44.000Z</time>
      </trkpt>
      <trkpt lat="44.1391" lon="6.1046">
        <ele>993</ele>
        <time>2022-03-03T09:38:45.000Z</time>
      </trkpt>
      <trkpt lat="44.13911" lon="6.10459">
        <ele>993</ele>
        <time>2022-03-03T09:38:46.000Z</time>
      </trkpt>
      <trkpt lat="44.13911" lon="6.10458">
        <ele>993</ele>
        <time>2022-03-03T09:38:47.000Z</time>
      </trkpt>
      <trkpt lat="44.13911" lon="6.10457">
        <ele>993</ele>
        <time>2022-03-03T09:38:48.000Z</time>
      </trkpt>
      <trkpt lat="44.13911" lon="6.10456">
        <ele>993</ele>
        <time>2022-03-03T09:38:49.000Z</time>
      </trkpt>
      <trkpt lat="44.13912" lon="6.10455">
        <ele>993</ele>
        <time>2022-03-03T09:38:50.000Z</time>
      </trkpt>
      <trkpt lat="44.13912" lon="6.10454">
        <ele>993</ele>
        <time>2022-03-03T09:38:51.000Z</time>
      </trkpt>
      <trkpt lat="44.13912" lon="6.10454">
        <ele>994</ele>
        <time>2022-03-03T09:38:52.000Z</time>
      </trkpt>
      <trkpt lat="44.13913" lon="6.10452">
        <ele>994</ele>
        <time>2022-03-03T09:38:53.000Z</time>
      </trkpt>
      <trkpt lat="44.13913" lon="6.10452">
        <ele>994</ele>
        <time>2022-03-03T09:38:54.000Z</time>
      </trkpt>
      <trkpt lat="44.13913" lon="6.10451">
        <ele>994</ele>
        <time>2022-03-03T09:38:55.000Z</time>
      </trkpt>
      <trkpt lat="44.13913" lon="6.10449">
        <ele>994</ele>
        <time>2022-03-03T09:38:56.000Z</time>
      </trkpt>
      <trkpt lat="44.13914" lon="6.10449">
        <ele>994</ele>
        <time>2022-03-03T09:38:57.000Z</time>
      </trkpt>
      <trkpt lat="44.13914" lon="6.10447">
        <ele>994</ele>
        <time>2022-03-03T09:38:58.000Z</time>
      </trkpt>
      <trkpt lat="44.13914" lon="6.10447">
        <ele>994</ele>
        <time>2022-03-03T09:38:59.000Z</time>
      </trkpt>
      <trkpt lat="44.13914" lon="6.10445">
        <ele>995</ele>
        <time>2022-03-03T09:39:00.000Z</time>
      </trkpt>
      <trkpt lat="44.13914" lon="6.10445">
        <ele>995</ele>
        <time>2022-03-03T09:39:01.000Z</time>
      </trkpt>
      <trkpt lat="44.13915" lon="6.10444">
        <ele>995</ele>
        <time>2022-03-03T09:39:02.000Z</time>
      </trkpt>
      <trkpt lat="44.13915" lon="6.10443">
        <ele>995</ele>
        <time>2022-03-03T09:39:03.000Z</time>
      </trkpt>
      <trkpt lat="44.13915" lon="6.10442">
        <ele>995</ele>
        <time>2022-03-03T09:39:04.000Z</time>
      </trkpt>
      <trkpt lat="44.13916" lon="6.10441">
        <ele>995</ele>
        <time>2022-03-03T09:39:05.000Z</time>
      </trkpt>
      <trkpt lat="44.13916" lon="6.1044">
        <ele>995</ele>
        <time>2022-03-03T09:39:06.000Z</time>
      </trkpt>
      <trkpt lat="44.13916" lon="6.10439">
        <ele>995</ele>
        <time>2022-03-03T09:39:07.000Z</time>
      </trkpt>
      <trkpt lat="44.13917" lon="6.10438">
        <ele>996</ele>
        <time>2022-03-03T09:39:08.000Z</time>
      </trkpt>
      <trkpt lat="44.13917" lon="6.10438">
        <ele>996</ele>
        <time>2022-03-03T09:39:09.000Z</time>
      </trkpt>
      <trkpt lat="44.13917" lon="6.10436">
        <ele>996</ele>
        <time>2022-03-03T09:39:10.000Z</time>
      </trkpt>
      <trkpt lat="44.13917" lon="6.10436">
        <ele>996</ele>
        <time>2022-03-03T09:39:11.000Z</time>
      </trkpt>
      <trkpt lat="44.13918" lon="6.10435">
        <ele>996</ele>
        <time>2022-03-03T09:39:12.000Z</time>
      </trkpt>
      <trkpt lat="44.13918" lon="6.10433">
        <ele>997</ele>
        <time>2022-03-03T09:39:13.000Z</time>
      </trkpt>
      <trkpt lat="44.13918" lon="6.10432">
        <ele>997</ele>
        <time>2022-03-03T09:39:14.000Z</time>
      </trkpt>
      <trkpt lat="44.13918" lon="6.10431">
        <ele>997</ele>
        <time>2022-03-03T09:39:15.000Z</time>
      </trkpt>
      <trkpt lat="44.13918" lon="6.10431">
        <ele>997</ele>
        <time>2022-03-03T09:39:16.000Z</time>
      </trkpt>
      <trkpt lat="44.13919" lon="6.1043">
        <ele>997</ele>
        <time>2022-03-03T09:39:17.000Z</time>
      </trkpt>
      <trkpt lat="44.13919" lon="6.10429">
        <ele>997</ele>
        <time>2022-03-03T09:39:18.000Z</time>
      </trkpt>
      <trkpt lat="44.13919" lon="6.10428">
        <ele>997</ele>
        <time>2022-03-03T09:39:19.000Z</time>
      </trkpt>
      <trkpt lat="44.13919" lon="6.10427">
        <ele>997</ele>
        <time>2022-03-03T09:39:20.000Z</time>
      </trkpt>
      <trkpt lat="44.1392" lon="6.10426">
        <ele>998</ele>
        <time>2022-03-03T09:39:21.000Z</time>
      </trkpt>
      <trkpt lat="44.1392" lon="6.10425">
        <ele>998</ele>
        <time>2022-03-03T09:39:22.000Z</time>
      </trkpt>
      <trkpt lat="44.1392" lon="6.10424">
        <ele>998</ele>
        <time>2022-03-03T09:39:23.000Z</time>
      </trkpt>
      <trkpt lat="44.1392" lon="6.10423">
        <ele>998</ele>
        <time>2022-03-03T09:39:24.000Z</time>
      </trkpt>
      <trkpt lat="44.13921" lon="6.10423">
        <ele>998</ele>
        <time>2022-03-03T09:39:25.000Z</time>
      </trkpt>
      <trkpt lat="44.13921" lon="6.10422">
        <ele>998</ele>
        <time>2022-03-03T09:39:26.000Z</time>
      </trkpt>
      <trkpt lat="44.13921" lon="6.10421">
        <ele>998</ele>
        <time>2022-03-03T09:39:27.000Z</time>
      </trkpt>
      <trkpt lat="44.13921" lon="6.1042">
        <ele>999</ele>
        <time>2022-03-03T09:39:28.000Z</time>
      </trkpt>
      <trkpt lat="44.13921" lon="6.10419">
        <ele>999</ele>
        <time>2022-03-03T09:39:29.000Z</time>
      </trkpt>
      <trkpt lat="44.13921" lon="6.10419">
        <ele>999</ele>
        <time>2022-03-03T09:39:30.000Z</time>
      </trkpt>
      <trkpt lat="44.13921" lon="6.10419">
        <ele>999</ele>
        <time>2022-03-03T09:39:31.000Z</time>
      </trkpt>
      <trkpt lat="44.13921" lon="6.10419">
        <ele>999</ele>
        <time>2022-03-03T09:39:32.000Z</time>
      </trkpt>
      <trkpt lat="44.13921" lon="6.10419">
        <ele>999</ele>
        <time>2022-03-03T09:39:33.000Z</time>
      </trkpt>
      <trkpt lat="44.13921" lon="6.10419">
        <ele>999</ele>
        <time>2022-03-03T09:39:34.000Z</time>
      </trkpt>
      <trkpt lat="44.13921" lon="6.10419">
        <ele>999</ele>
        <time>2022-03-03T09:39:35.000Z</time>
      </trkpt>
      <trkpt lat="44.13922" lon="6.10419">
        <ele>999</ele>
        <time>2022-03-03T09:39:36.000Z</time>
      </trkpt>
      <trkpt lat="44.13922" lon="6.10419">
        <ele>999</ele>
        <time>2022-03-03T09:39:37.000Z</time>
      </trkpt>
      <trkpt lat="44.13922" lon="6.10419">
        <ele>999</ele>
        <time>2022-03-03T09:39:38.000Z</time>
      </trkpt>
      <trkpt lat="44.13922" lon="6.10419">
        <ele>999</ele>
        <time>2022-03-03T09:39:39.000Z</time>
      </trkpt>
      <trkpt lat="44.13922" lon="6.10419">
        <ele>999</ele>
        <time>2022-03-03T09:39:40.000Z</time>
      </trkpt>
      <trkpt lat="44.13922" lon="6.10419">
        <ele>999</ele>
        <time>2022-03-03T09:39:41.000Z</time>
      </trkpt>
      <trkpt lat="44.13922" lon="6.10419">
        <ele>999</ele>
        <time>2022-03-03T09:39:42.000Z</time>
      </trkpt>
      <trkpt lat="44.13922" lon="6.10419">
        <ele>999</ele>
        <time>2022-03-03T09:39:43.000Z</time>
      </trkpt>
      <trkpt lat="44.13922" lon="6.10419">
        <ele>999</ele>
        <time>2022-03-03T09:39:44.000Z</time>
      </trkpt>
      <trkpt lat="44.13922" lon="6.10419">
        <ele>999</ele>
        <time>2022-03-03T09:39:45.000Z</time>
      </trkpt>
      <trkpt lat="44.13922" lon="6.10419">
        <ele>999</ele>
        <time>2022-03-03T09:39:46.000Z</time>
      </trkpt>
      <trkpt lat="44.13922" lon="6.10419">
        <ele>999</ele>
        <time>2022-03-03T09:39:47.000Z</time>
      </trkpt>
      <trkpt lat="44.13922" lon="6.10419">
        <ele>999</ele>
        <time>2022-03-03T09:39:48.000Z</time>
      </trkpt>
      <trkpt lat="44.13922" lon="6.10418">
        <ele>999</ele>
        <time>2022-03-03T09:39:49.000Z</time>
      </trkpt>
      <trkpt lat="44.13922" lon="6.10418">
        <ele>999</ele>
        <time>2022-03-03T09:39:50.000Z</time>
      </trkpt>
      <trkpt lat="44.13922" lon="6.10418">
        <ele>999</ele>
        <time>2022-03-03T09:39:51.000Z</time>
      </trkpt>
      <trkpt lat="44.13922" lon="6.10418">
        <ele>999</ele>
        <time>2022-03-03T09:39:52.000Z</time>
      </trkpt>
      <trkpt lat="44.13922" lon="6.10418">
        <ele>999</ele>
        <time>2022-03-03T09:39:53.000Z</time>
      </trkpt>
      <trkpt lat="44.13922" lon="6.10418">
        <ele>1000</ele>
        <time>2022-03-03T09:39:54.000Z</time>
      </trkpt>
      <trkpt lat="44.13922" lon="6.10418">
        <ele>1000</ele>
        <time>2022-03-03T09:39:55.000Z</time>
      </trkpt>
      <trkpt lat="44.13922" lon="6.10418">
        <ele>1000</ele>
        <time>2022-03-03T09:39:56.000Z</time>
      </trkpt>
      <trkpt lat="44.13922" lon="6.10418">
        <ele>1000</ele>
        <time>2022-03-03T09:39:57.000Z</time>
      </trkpt>
      <trkpt lat="44.13922" lon="6.10417">
        <ele>1000</ele>
        <time>2022-03-03T09:39:58.000Z</time>
      </trkpt>
      <trkpt lat="44.13923" lon="6.10416">
        <ele>1000</ele>
        <time>2022-03-03T09:39:59.000Z</time>
      </trkpt>
      <trkpt lat="44.13923" lon="6.10416">
        <ele>1000</ele>
        <time>2022-03-03T09:40:00.000Z</time>
      </trkpt>
      <trkpt lat="44.13923" lon="6.10415">
        <ele>1000</ele>
        <time>2022-03-03T09:40:01.000Z</time>
      </trkpt>
      <trkpt lat="44.13924" lon="6.10414">
        <ele>1000</ele>
        <time>2022-03-03T09:40:02.000Z</time>
      </trkpt>
      <trkpt lat="44.13924" lon="6.10413">
        <ele>1000</ele>
        <time>2022-03-03T09:40:03.000Z</time>
      </trkpt>
      <trkpt lat="44.13924" lon="6.10412">
        <ele>1000</ele>
        <time>2022-03-03T09:40:04.000Z</time>
      </trkpt>
      <trkpt lat="44.13924" lon="6.10411">
        <ele>1000</ele>
        <time>2022-03-03T09:40:05.000Z</time>
      </trkpt>
      <trkpt lat="44.13925" lon="6.1041">
        <ele>1000</ele>
        <time>2022-03-03T09:40:06.000Z</time>
      </trkpt>
      <trkpt lat="44.13925" lon="6.10409">
        <ele>1001</ele>
        <time>2022-03-03T09:40:07.000Z</time>
      </trkpt>
      <trkpt lat="44.13925" lon="6.10408">
        <ele>1001</ele>
        <time>2022-03-03T09:40:08.000Z</time>
      </trkpt>
      <trkpt lat="44.13925" lon="6.10407">
        <ele>1001</ele>
        <time>2022-03-03T09:40:09.000Z</time>
      </trkpt>
      <trkpt lat="44.13926" lon="6.10406">
        <ele>1001</ele>
        <time>2022-03-03T09:40:10.000Z</time>
      </trkpt>
      <trkpt lat="44.13926" lon="6.10406">
        <ele>1001</ele>
        <time>2022-03-03T09:40:11.000Z</time>
      </trkpt>
      <trkpt lat="44.13926" lon="6.10404">
        <ele>1001</ele>
        <time>2022-03-03T09:40:12.000Z</time>
      </trkpt>
      <trkpt lat="44.13927" lon="6.10403">
        <ele>1001</ele>
        <time>2022-03-03T09:40:13.000Z</time>
      </trkpt>
      <trkpt lat="44.13927" lon="6.10403">
        <ele>1001</ele>
        <time>2022-03-03T09:40:14.000Z</time>
      </trkpt>
      <trkpt lat="44.13927" lon="6.10401">
        <ele>1002</ele>
        <time>2022-03-03T09:40:15.000Z</time>
      </trkpt>
      <trkpt lat="44.13927" lon="6.10401">
        <ele>1002</ele>
        <time>2022-03-03T09:40:16.000Z</time>
      </trkpt>
      <trkpt lat="44.13928" lon="6.10399">
        <ele>1002</ele>
        <time>2022-03-03T09:40:17.000Z</time>
      </trkpt>
      <trkpt lat="44.13928" lon="6.10398">
        <ele>1002</ele>
        <time>2022-03-03T09:40:18.000Z</time>
      </trkpt>
      <trkpt lat="44.13928" lon="6.10398">
        <ele>1002</ele>
        <time>2022-03-03T09:40:19.000Z</time>
      </trkpt>
      <trkpt lat="44.13929" lon="6.10396">
        <ele>1002</ele>
        <time>2022-03-03T09:40:20.000Z</time>
      </trkpt>
      <trkpt lat="44.13929" lon="6.10396">
        <ele>1003</ele>
        <time>2022-03-03T09:40:21.000Z</time>
      </trkpt>
      <trkpt lat="44.13929" lon="6.10395">
        <ele>1003</ele>
        <time>2022-03-03T09:40:22.000Z</time>
      </trkpt>
      <trkpt lat="44.1393" lon="6.10394">
        <ele>1003</ele>
        <time>2022-03-03T09:40:23.000Z</time>
      </trkpt>
      <trkpt lat="44.1393" lon="6.10393">
        <ele>1003</ele>
        <time>2022-03-03T09:40:24.000Z</time>
      </trkpt>
      <trkpt lat="44.1393" lon="6.10392">
        <ele>1003</ele>
        <time>2022-03-03T09:40:25.000Z</time>
      </trkpt>
      <trkpt lat="44.13931" lon="6.10391">
        <ele>1003</ele>
        <time>2022-03-03T09:40:26.000Z</time>
      </trkpt>
      <trkpt lat="44.13931" lon="6.1039">
        <ele>1003</ele>
        <time>2022-03-03T09:40:27.000Z</time>
      </trkpt>
      <trkpt lat="44.13931" lon="6.10389">
        <ele>1004</ele>
        <time>2022-03-03T09:40:28.000Z</time>
      </trkpt>
      <trkpt lat="44.13932" lon="6.10388">
        <ele>1004</ele>
        <time>2022-03-03T09:40:29.000Z</time>
      </trkpt>
      <trkpt lat="44.13932" lon="6.10387">
        <ele>1004</ele>
        <time>2022-03-03T09:40:30.000Z</time>
      </trkpt>
      <trkpt lat="44.13933" lon="6.10386">
        <ele>1004</ele>
        <time>2022-03-03T09:40:31.000Z</time>
      </trkpt>
      <trkpt lat="44.13933" lon="6.10385">
        <ele>1004</ele>
        <time>2022-03-03T09:40:32.000Z</time>
      </trkpt>
      <trkpt lat="44.13933" lon="6.10384">
        <ele>1004</ele>
        <time>2022-03-03T09:40:33.000Z</time>
      </trkpt>
      <trkpt lat="44.13934" lon="6.10383">
        <ele>1004</ele>
        <time>2022-03-03T09:40:34.000Z</time>
      </trkpt>
      <trkpt lat="44.13934" lon="6.10382">
        <ele>1004</ele>
        <time>2022-03-03T09:40:35.000Z</time>
      </trkpt>
      <trkpt lat="44.13934" lon="6.10381">
        <ele>1005</ele>
        <time>2022-03-03T09:40:36.000Z</time>
      </trkpt>
      <trkpt lat="44.13935" lon="6.10381">
        <ele>1005</ele>
        <time>2022-03-03T09:40:37.000Z</time>
      </trkpt>
      <trkpt lat="44.13935" lon="6.10379">
        <ele>1005</ele>
        <time>2022-03-03T09:40:38.000Z</time>
      </trkpt>
      <trkpt lat="44.13935" lon="6.10379">
        <ele>1005</ele>
        <time>2022-03-03T09:40:39.000Z</time>
      </trkpt>
      <trkpt lat="44.13935" lon="6.10377">
        <ele>1005</ele>
        <time>2022-03-03T09:40:40.000Z</time>
      </trkpt>
      <trkpt lat="44.13936" lon="6.10376">
        <ele>1005</ele>
        <time>2022-03-03T09:40:41.000Z</time>
      </trkpt>
      <trkpt lat="44.13936" lon="6.10375">
        <ele>1006</ele>
        <time>2022-03-03T09:40:42.000Z</time>
      </trkpt>
      <trkpt lat="44.13936" lon="6.10374">
        <ele>1006</ele>
        <time>2022-03-03T09:40:43.000Z</time>
      </trkpt>
      <trkpt lat="44.13936" lon="6.10373">
        <ele>1006</ele>
        <time>2022-03-03T09:40:44.000Z</time>
      </trkpt>
      <trkpt lat="44.13936" lon="6.10372">
        <ele>1006</ele>
        <time>2022-03-03T09:40:45.000Z</time>
      </trkpt>
      <trkpt lat="44.13936" lon="6.10371">
        <ele>1006</ele>
        <time>2022-03-03T09:40:46.000Z</time>
      </trkpt>
      <trkpt lat="44.13936" lon="6.1037">
        <ele>1006</ele>
        <time>2022-03-03T09:40:47.000Z</time>
      </trkpt>
      <trkpt lat="44.13937" lon="6.10369">
        <ele>1006</ele>
        <time>2022-03-03T09:40:48.000Z</time>
      </trkpt>
      <trkpt lat="44.13937" lon="6.10368">
        <ele>1006</ele>
        <time>2022-03-03T09:40:49.000Z</time>
      </trkpt>
      <trkpt lat="44.13937" lon="6.10367">
        <ele>1007</ele>
        <time>2022-03-03T09:40:50.000Z</time>
      </trkpt>
      <trkpt lat="44.13938" lon="6.10366">
        <ele>1007</ele>
        <time>2022-03-03T09:40:51.000Z</time>
      </trkpt>
      <trkpt lat="44.13938" lon="6.10365">
        <ele>1007</ele>
        <time>2022-03-03T09:40:52.000Z</time>
      </trkpt>
      <trkpt lat="44.13938" lon="6.10364">
        <ele>1007</ele>
        <time>2022-03-03T09:40:53.000Z</time>
      </trkpt>
      <trkpt lat="44.13938" lon="6.10363">
        <ele>1007</ele>
        <time>2022-03-03T09:40:54.000Z</time>
      </trkpt>
      <trkpt lat="44.13938" lon="6.10362">
        <ele>1007</ele>
        <time>2022-03-03T09:40:55.000Z</time>
      </trkpt>
      <trkpt lat="44.13938" lon="6.10361">
        <ele>1008</ele>
        <time>2022-03-03T09:40:56.000Z</time>
      </trkpt>
      <trkpt lat="44.13939" lon="6.1036">
        <ele>1008</ele>
        <time>2022-03-03T09:40:57.000Z</time>
      </trkpt>
      <trkpt lat="44.13939" lon="6.10359">
        <ele>1008</ele>
        <time>2022-03-03T09:40:58.000Z</time>
      </trkpt>
      <trkpt lat="44.1394" lon="6.10358">
        <ele>1008</ele>
        <time>2022-03-03T09:40:59.000Z</time>
      </trkpt>
      <trkpt lat="44.1394" lon="6.10357">
        <ele>1008</ele>
        <time>2022-03-03T09:41:00.000Z</time>
      </trkpt>
      <trkpt lat="44.13941" lon="6.10356">
        <ele>1008</ele>
        <time>2022-03-03T09:41:01.000Z</time>
      </trkpt>
      <trkpt lat="44.13941" lon="6.10355">
        <ele>1008</ele>
        <time>2022-03-03T09:41:02.000Z</time>
      </trkpt>
      <trkpt lat="44.13941" lon="6.10354">
        <ele>1008</ele>
        <time>2022-03-03T09:41:03.000Z</time>
      </trkpt>
      <trkpt lat="44.13942" lon="6.10353">
        <ele>1009</ele>
        <time>2022-03-03T09:41:04.000Z</time>
      </trkpt>
      <trkpt lat="44.13943" lon="6.10352">
        <ele>1009</ele>
        <time>2022-03-03T09:41:05.000Z</time>
      </trkpt>
      <trkpt lat="44.13943" lon="6.10351">
        <ele>1009</ele>
        <time>2022-03-03T09:41:06.000Z</time>
      </trkpt>
      <trkpt lat="44.13944" lon="6.10351">
        <ele>1009</ele>
        <time>2022-03-03T09:41:07.000Z</time>
      </trkpt>
      <trkpt lat="44.13944" lon="6.1035">
        <ele>1009</ele>
        <time>2022-03-03T09:41:08.000Z</time>
      </trkpt>
      <trkpt lat="44.13945" lon="6.10349">
        <ele>1009</ele>
        <time>2022-03-03T09:41:09.000Z</time>
      </trkpt>
      <trkpt lat="44.13945" lon="6.10349">
        <ele>1009</ele>
        <time>2022-03-03T09:41:10.000Z</time>
      </trkpt>
      <trkpt lat="44.13946" lon="6.10348">
        <ele>1009</ele>
        <time>2022-03-03T09:41:11.000Z</time>
      </trkpt>
      <trkpt lat="44.13947" lon="6.10347">
        <ele>1009</ele>
        <time>2022-03-03T09:41:12.000Z</time>
      </trkpt>
      <trkpt lat="44.13947" lon="6.10346">
        <ele>1009</ele>
        <time>2022-03-03T09:41:13.000Z</time>
      </trkpt>
      <trkpt lat="44.13948" lon="6.10345">
        <ele>1009</ele>
        <time>2022-03-03T09:41:14.000Z</time>
      </trkpt>
      <trkpt lat="44.13949" lon="6.10345">
        <ele>1009</ele>
        <time>2022-03-03T09:41:15.000Z</time>
      </trkpt>
      <trkpt lat="44.13949" lon="6.10344">
        <ele>1009</ele>
        <time>2022-03-03T09:41:16.000Z</time>
      </trkpt>
      <trkpt lat="44.1395" lon="6.10343">
        <ele>1010</ele>
        <time>2022-03-03T09:41:17.000Z</time>
      </trkpt>
      <trkpt lat="44.13951" lon="6.10342">
        <ele>1010</ele>
        <time>2022-03-03T09:41:18.000Z</time>
      </trkpt>
      <trkpt lat="44.13951" lon="6.10341">
        <ele>1010</ele>
        <time>2022-03-03T09:41:19.000Z</time>
      </trkpt>
      <trkpt lat="44.13951" lon="6.1034">
        <ele>1010</ele>
        <time>2022-03-03T09:41:20.000Z</time>
      </trkpt>
      <trkpt lat="44.13952" lon="6.10339">
        <ele>1010</ele>
        <time>2022-03-03T09:41:21.000Z</time>
      </trkpt>
      <trkpt lat="44.13952" lon="6.10338">
        <ele>1010</ele>
        <time>2022-03-03T09:41:22.000Z</time>
      </trkpt>
      <trkpt lat="44.13953" lon="6.10338">
        <ele>1010</ele>
        <time>2022-03-03T09:41:23.000Z</time>
      </trkpt>
      <trkpt lat="44.13954" lon="6.10337">
        <ele>1011</ele>
        <time>2022-03-03T09:41:24.000Z</time>
      </trkpt>
      <trkpt lat="44.13954" lon="6.10336">
        <ele>1011</ele>
        <time>2022-03-03T09:41:25.000Z</time>
      </trkpt>
      <trkpt lat="44.13955" lon="6.10336">
        <ele>1011</ele>
        <time>2022-03-03T09:41:26.000Z</time>
      </trkpt>
      <trkpt lat="44.13955" lon="6.10335">
        <ele>1011</ele>
        <time>2022-03-03T09:41:27.000Z</time>
      </trkpt>
      <trkpt lat="44.13956" lon="6.10334">
        <ele>1011</ele>
        <time>2022-03-03T09:41:28.000Z</time>
      </trkpt>
      <trkpt lat="44.13957" lon="6.10333">
        <ele>1011</ele>
        <time>2022-03-03T09:41:29.000Z</time>
      </trkpt>
      <trkpt lat="44.13957" lon="6.10332">
        <ele>1011</ele>
        <time>2022-03-03T09:41:30.000Z</time>
      </trkpt>
      <trkpt lat="44.13958" lon="6.10331">
        <ele>1011</ele>
        <time>2022-03-03T09:41:31.000Z</time>
      </trkpt>
      <trkpt lat="44.13959" lon="6.10331">
        <ele>1011</ele>
        <time>2022-03-03T09:41:32.000Z</time>
      </trkpt>
      <trkpt lat="44.13959" lon="6.1033">
        <ele>1011</ele>
        <time>2022-03-03T09:41:33.000Z</time>
      </trkpt>
      <trkpt lat="44.1396" lon="6.10329">
        <ele>1011</ele>
        <time>2022-03-03T09:41:34.000Z</time>
      </trkpt>
      <trkpt lat="44.1396" lon="6.10329">
        <ele>1012</ele>
        <time>2022-03-03T09:41:35.000Z</time>
      </trkpt>
      <trkpt lat="44.13961" lon="6.10328">
        <ele>1012</ele>
        <time>2022-03-03T09:41:36.000Z</time>
      </trkpt>
      <trkpt lat="44.13962" lon="6.10327">
        <ele>1012</ele>
        <time>2022-03-03T09:41:37.000Z</time>
      </trkpt>
      <trkpt lat="44.13962" lon="6.10326">
        <ele>1012</ele>
        <time>2022-03-03T09:41:38.000Z</time>
      </trkpt>
      <trkpt lat="44.13963" lon="6.10326">
        <ele>1012</ele>
        <time>2022-03-03T09:41:39.000Z</time>
      </trkpt>
      <trkpt lat="44.13964" lon="6.10324">
        <ele>1012</ele>
        <time>2022-03-03T09:41:40.000Z</time>
      </trkpt>
      <trkpt lat="44.13964" lon="6.10324">
        <ele>1013</ele>
        <time>2022-03-03T09:41:41.000Z</time>
      </trkpt>
      <trkpt lat="44.13965" lon="6.10323">
        <ele>1013</ele>
        <time>2022-03-03T09:41:42.000Z</time>
      </trkpt>
      <trkpt lat="44.13965" lon="6.10322">
        <ele>1013</ele>
        <time>2022-03-03T09:41:43.000Z</time>
      </trkpt>
      <trkpt lat="44.13966" lon="6.10321">
        <ele>1013</ele>
        <time>2022-03-03T09:41:44.000Z</time>
      </trkpt>
      <trkpt lat="44.13966" lon="6.1032">
        <ele>1013</ele>
        <time>2022-03-03T09:41:45.000Z</time>
      </trkpt>
      <trkpt lat="44.13967" lon="6.10319">
        <ele>1013</ele>
        <time>2022-03-03T09:41:46.000Z</time>
      </trkpt>
      <trkpt lat="44.13967" lon="6.10318">
        <ele>1013</ele>
        <time>2022-03-03T09:41:47.000Z</time>
      </trkpt>
      <trkpt lat="44.13968" lon="6.10317">
        <ele>1013</ele>
        <time>2022-03-03T09:41:48.000Z</time>
      </trkpt>
      <trkpt lat="44.13969" lon="6.10317">
        <ele>1014</ele>
        <time>2022-03-03T09:41:49.000Z</time>
      </trkpt>
      <trkpt lat="44.13969" lon="6.10316">
        <ele>1014</ele>
        <time>2022-03-03T09:41:50.000Z</time>
      </trkpt>
      <trkpt lat="44.1397" lon="6.10315">
        <ele>1014</ele>
        <time>2022-03-03T09:41:51.000Z</time>
      </trkpt>
      <trkpt lat="44.1397" lon="6.10314">
        <ele>1014</ele>
        <time>2022-03-03T09:41:52.000Z</time>
      </trkpt>
      <trkpt lat="44.13971" lon="6.10313">
        <ele>1014</ele>
        <time>2022-03-03T09:41:53.000Z</time>
      </trkpt>
      <trkpt lat="44.13971" lon="6.10312">
        <ele>1014</ele>
        <time>2022-03-03T09:41:54.000Z</time>
      </trkpt>
      <trkpt lat="44.13972" lon="6.10311">
        <ele>1014</ele>
        <time>2022-03-03T09:41:55.000Z</time>
      </trkpt>
      <trkpt lat="44.13973" lon="6.1031">
        <ele>1015</ele>
        <time>2022-03-03T09:41:56.000Z</time>
      </trkpt>
      <trkpt lat="44.13973" lon="6.10309">
        <ele>1015</ele>
        <time>2022-03-03T09:41:57.000Z</time>
      </trkpt>
      <trkpt lat="44.13974" lon="6.10308">
        <ele>1015</ele>
        <time>2022-03-03T09:41:58.000Z</time>
      </trkpt>
      <trkpt lat="44.13974" lon="6.10307">
        <ele>1015</ele>
        <time>2022-03-03T09:41:59.000Z</time>
      </trkpt>
      <trkpt lat="44.13975" lon="6.10307">
        <ele>1015</ele>
        <time>2022-03-03T09:42:00.000Z</time>
      </trkpt>
      <trkpt lat="44.13976" lon="6.10306">
        <ele>1015</ele>
        <time>2022-03-03T09:42:01.000Z</time>
      </trkpt>
      <trkpt lat="44.13976" lon="6.10305">
        <ele>1015</ele>
        <time>2022-03-03T09:42:02.000Z</time>
      </trkpt>
      <trkpt lat="44.13977" lon="6.10304">
        <ele>1016</ele>
        <time>2022-03-03T09:42:03.000Z</time>
      </trkpt>
      <trkpt lat="44.13977" lon="6.10303">
        <ele>1016</ele>
        <time>2022-03-03T09:42:04.000Z</time>
      </trkpt>
      <trkpt lat="44.13977" lon="6.10302">
        <ele>1016</ele>
        <time>2022-03-03T09:42:05.000Z</time>
      </trkpt>
      <trkpt lat="44.13978" lon="6.10301">
        <ele>1016</ele>
        <time>2022-03-03T09:42:06.000Z</time>
      </trkpt>
      <trkpt lat="44.13979" lon="6.103">
        <ele>1016</ele>
        <time>2022-03-03T09:42:07.000Z</time>
      </trkpt>
      <trkpt lat="44.13979" lon="6.103">
        <ele>1016</ele>
        <time>2022-03-03T09:42:08.000Z</time>
      </trkpt>
      <trkpt lat="44.1398" lon="6.10299">
        <ele>1016</ele>
        <time>2022-03-03T09:42:09.000Z</time>
      </trkpt>
      <trkpt lat="44.1398" lon="6.10298">
        <ele>1016</ele>
        <time>2022-03-03T09:42:10.000Z</time>
      </trkpt>
      <trkpt lat="44.13981" lon="6.10297">
        <ele>1017</ele>
        <time>2022-03-03T09:42:11.000Z</time>
      </trkpt>
      <trkpt lat="44.13982" lon="6.10296">
        <ele>1017</ele>
        <time>2022-03-03T09:42:12.000Z</time>
      </trkpt>
      <trkpt lat="44.13982" lon="6.10295">
        <ele>1017</ele>
        <time>2022-03-03T09:42:13.000Z</time>
      </trkpt>
      <trkpt lat="44.13983" lon="6.10294">
        <ele>1017</ele>
        <time>2022-03-03T09:42:14.000Z</time>
      </trkpt>
      <trkpt lat="44.13984" lon="6.10294">
        <ele>1017</ele>
        <time>2022-03-03T09:42:15.000Z</time>
      </trkpt>
      <trkpt lat="44.13985" lon="6.10293">
        <ele>1017</ele>
        <time>2022-03-03T09:42:16.000Z</time>
      </trkpt>
      <trkpt lat="44.13985" lon="6.10292">
        <ele>1017</ele>
        <time>2022-03-03T09:42:17.000Z</time>
      </trkpt>
      <trkpt lat="44.13986" lon="6.10292">
        <ele>1017</ele>
        <time>2022-03-03T09:42:18.000Z</time>
      </trkpt>
      <trkpt lat="44.13987" lon="6.10291">
        <ele>1017</ele>
        <time>2022-03-03T09:42:19.000Z</time>
      </trkpt>
      <trkpt lat="44.13987" lon="6.1029">
        <ele>1017</ele>
        <time>2022-03-03T09:42:20.000Z</time>
      </trkpt>
      <trkpt lat="44.13988" lon="6.10289">
        <ele>1017</ele>
        <time>2022-03-03T09:42:21.000Z</time>
      </trkpt>
      <trkpt lat="44.13989" lon="6.10288">
        <ele>1017</ele>
        <time>2022-03-03T09:42:22.000Z</time>
      </trkpt>
      <trkpt lat="44.13989" lon="6.10287">
        <ele>1018</ele>
        <time>2022-03-03T09:42:23.000Z</time>
      </trkpt>
      <trkpt lat="44.1399" lon="6.10287">
        <ele>1018</ele>
        <time>2022-03-03T09:42:24.000Z</time>
      </trkpt>
      <trkpt lat="44.1399" lon="6.10286">
        <ele>1018</ele>
        <time>2022-03-03T09:42:25.000Z</time>
      </trkpt>
      <trkpt lat="44.13991" lon="6.10285">
        <ele>1018</ele>
        <time>2022-03-03T09:42:26.000Z</time>
      </trkpt>
      <trkpt lat="44.13991" lon="6.10284">
        <ele>1018</ele>
        <time>2022-03-03T09:42:27.000Z</time>
      </trkpt>
      <trkpt lat="44.13992" lon="6.10283">
        <ele>1018</ele>
        <time>2022-03-03T09:42:28.000Z</time>
      </trkpt>
      <trkpt lat="44.13993" lon="6.10282">
        <ele>1018</ele>
        <time>2022-03-03T09:42:29.000Z</time>
      </trkpt>
      <trkpt lat="44.13993" lon="6.10281">
        <ele>1018</ele>
        <time>2022-03-03T09:42:30.000Z</time>
      </trkpt>
      <trkpt lat="44.13994" lon="6.10281">
        <ele>1019</ele>
        <time>2022-03-03T09:42:31.000Z</time>
      </trkpt>
      <trkpt lat="44.13995" lon="6.1028">
        <ele>1019</ele>
        <time>2022-03-03T09:42:32.000Z</time>
      </trkpt>
      <trkpt lat="44.13995" lon="6.10279">
        <ele>1019</ele>
        <time>2022-03-03T09:42:33.000Z</time>
      </trkpt>
      <trkpt lat="44.13996" lon="6.10278">
        <ele>1019</ele>
        <time>2022-03-03T09:42:34.000Z</time>
      </trkpt>
      <trkpt lat="44.13996" lon="6.10277">
        <ele>1019</ele>
        <time>2022-03-03T09:42:35.000Z</time>
      </trkpt>
      <trkpt lat="44.13997" lon="6.10276">
        <ele>1020</ele>
        <time>2022-03-03T09:42:36.000Z</time>
      </trkpt>
      <trkpt lat="44.13998" lon="6.10276">
        <ele>1020</ele>
        <time>2022-03-03T09:42:37.000Z</time>
      </trkpt>
      <trkpt lat="44.13998" lon="6.10275">
        <ele>1020</ele>
        <time>2022-03-03T09:42:38.000Z</time>
      </trkpt>
      <trkpt lat="44.13999" lon="6.10274">
        <ele>1020</ele>
        <time>2022-03-03T09:42:39.000Z</time>
      </trkpt>
      <trkpt lat="44.13999" lon="6.10273">
        <ele>1020</ele>
        <time>2022-03-03T09:42:40.000Z</time>
      </trkpt>
      <trkpt lat="44.14" lon="6.10272">
        <ele>1020</ele>
        <time>2022-03-03T09:42:41.000Z</time>
      </trkpt>
      <trkpt lat="44.14" lon="6.10271">
        <ele>1020</ele>
        <time>2022-03-03T09:42:42.000Z</time>
      </trkpt>
      <trkpt lat="44.14001" lon="6.1027">
        <ele>1020</ele>
        <time>2022-03-03T09:42:43.000Z</time>
      </trkpt>
      <trkpt lat="44.14002" lon="6.1027">
        <ele>1021</ele>
        <time>2022-03-03T09:42:44.000Z</time>
      </trkpt>
      <trkpt lat="44.14002" lon="6.10269">
        <ele>1021</ele>
        <time>2022-03-03T09:42:45.000Z</time>
      </trkpt>
      <trkpt lat="44.14003" lon="6.10268">
        <ele>1021</ele>
        <time>2022-03-03T09:42:46.000Z</time>
      </trkpt>
      <trkpt lat="44.14004" lon="6.10267">
        <ele>1021</ele>
        <time>2022-03-03T09:42:47.000Z</time>
      </trkpt>
      <trkpt lat="44.14004" lon="6.10266">
        <ele>1021</ele>
        <time>2022-03-03T09:42:48.000Z</time>
      </trkpt>
      <trkpt lat="44.14005" lon="6.10265">
        <ele>1021</ele>
        <time>2022-03-03T09:42:49.000Z</time>
      </trkpt>
      <trkpt lat="44.14006" lon="6.10265">
        <ele>1021</ele>
        <time>2022-03-03T09:42:50.000Z</time>
      </trkpt>
      <trkpt lat="44.14006" lon="6.10264">
        <ele>1021</ele>
        <time>2022-03-03T09:42:51.000Z</time>
      </trkpt>
      <trkpt lat="44.14007" lon="6.10263">
        <ele>1022</ele>
        <time>2022-03-03T09:42:52.000Z</time>
      </trkpt>
      <trkpt lat="44.14007" lon="6.10262">
        <ele>1022</ele>
        <time>2022-03-03T09:42:53.000Z</time>
      </trkpt>
      <trkpt lat="44.14008" lon="6.10261">
        <ele>1022</ele>
        <time>2022-03-03T09:42:54.000Z</time>
      </trkpt>
      <trkpt lat="44.14009" lon="6.1026">
        <ele>1022</ele>
        <time>2022-03-03T09:42:55.000Z</time>
      </trkpt>
      <trkpt lat="44.14009" lon="6.1026">
        <ele>1022</ele>
        <time>2022-03-03T09:42:56.000Z</time>
      </trkpt>
      <trkpt lat="44.1401" lon="6.10259">
        <ele>1022</ele>
        <time>2022-03-03T09:42:57.000Z</time>
      </trkpt>
      <trkpt lat="44.1401" lon="6.10259">
        <ele>1023</ele>
        <time>2022-03-03T09:42:58.000Z</time>
      </trkpt>
      <trkpt lat="44.1401" lon="6.10259">
        <ele>1023</ele>
        <time>2022-03-03T09:42:59.000Z</time>
      </trkpt>
      <trkpt lat="44.1401" lon="6.10259">
        <ele>1023</ele>
        <time>2022-03-03T09:43:00.000Z</time>
      </trkpt>
      <trkpt lat="44.1401" lon="6.10259">
        <ele>1023</ele>
        <time>2022-03-03T09:43:01.000Z</time>
      </trkpt>
      <trkpt lat="44.1401" lon="6.10259">
        <ele>1023</ele>
        <time>2022-03-03T09:43:02.000Z</time>
      </trkpt>
      <trkpt lat="44.1401" lon="6.10259">
        <ele>1023</ele>
        <time>2022-03-03T09:43:03.000Z</time>
      </trkpt>
      <trkpt lat="44.1401" lon="6.10258">
        <ele>1023</ele>
        <time>2022-03-03T09:43:04.000Z</time>
      </trkpt>
      <trkpt lat="44.1401" lon="6.10258">
        <ele>1023</ele>
        <time>2022-03-03T09:43:05.000Z</time>
      </trkpt>
      <trkpt lat="44.1401" lon="6.10258">
        <ele>1023</ele>
        <time>2022-03-03T09:43:06.000Z</time>
      </trkpt>
      <trkpt lat="44.1401" lon="6.10258">
        <ele>1023</ele>
        <time>2022-03-03T09:43:07.000Z</time>
      </trkpt>
      <trkpt lat="44.1401" lon="6.10258">
        <ele>1023</ele>
        <time>2022-03-03T09:43:08.000Z</time>
      </trkpt>
      <trkpt lat="44.1401" lon="6.10258">
        <ele>1023</ele>
        <time>2022-03-03T09:43:09.000Z</time>
      </trkpt>
      <trkpt lat="44.1401" lon="6.10258">
        <ele>1023</ele>
        <time>2022-03-03T09:43:10.000Z</time>
      </trkpt>
      <trkpt lat="44.1401" lon="6.10258">
        <ele>1023</ele>
        <time>2022-03-03T09:43:11.000Z</time>
      </trkpt>
      <trkpt lat="44.1401" lon="6.10258">
        <ele>1023</ele>
        <time>2022-03-03T09:43:12.000Z</time>
      </trkpt>
      <trkpt lat="44.1401" lon="6.10258">
        <ele>1023</ele>
        <time>2022-03-03T09:43:13.000Z</time>
      </trkpt>
      <trkpt lat="44.1401" lon="6.10258">
        <ele>1023</ele>
        <time>2022-03-03T09:43:14.000Z</time>
      </trkpt>
      <trkpt lat="44.1401" lon="6.10258">
        <ele>1023</ele>
        <time>2022-03-03T09:43:15.000Z</time>
      </trkpt>
      <trkpt lat="44.1401" lon="6.10258">
        <ele>1023</ele>
        <time>2022-03-03T09:43:16.000Z</time>
      </trkpt>
      <trkpt lat="44.1401" lon="6.10258">
        <ele>1023</ele>
        <time>2022-03-03T09:43:17.000Z</time>
      </trkpt>
      <trkpt lat="44.1401" lon="6.10258">
        <ele>1023</ele>
        <time>2022-03-03T09:43:18.000Z</time>
      </trkpt>
      <trkpt lat="44.1401" lon="6.10258">
        <ele>1023</ele>
        <time>2022-03-03T09:43:19.000Z</time>
      </trkpt>
      <trkpt lat="44.1401" lon="6.10258">
        <ele>1023</ele>
        <time>2022-03-03T09:43:20.000Z</time>
      </trkpt>
      <trkpt lat="44.1401" lon="6.10258">
        <ele>1023</ele>
        <time>2022-03-03T09:43:21.000Z</time>
      </trkpt>
      <trkpt lat="44.1401" lon="6.10258">
        <ele>1023</ele>
        <time>2022-03-03T09:43:22.000Z</time>
      </trkpt>
      <trkpt lat="44.1401" lon="6.10258">
        <ele>1023</ele>
        <time>2022-03-03T09:43:23.000Z</time>
      </trkpt>
      <trkpt lat="44.1401" lon="6.10258">
        <ele>1023</ele>
        <time>2022-03-03T09:43:24.000Z</time>
      </trkpt>
      <trkpt lat="44.1401" lon="6.10258">
        <ele>1023</ele>
        <time>2022-03-03T09:43:25.000Z</time>
      </trkpt>
      <trkpt lat="44.1401" lon="6.10258">
        <ele>1023</ele>
        <time>2022-03-03T09:43:26.000Z</time>
      </trkpt>
      <trkpt lat="44.1401" lon="6.10258">
        <ele>1023</ele>
        <time>2022-03-03T09:43:27.000Z</time>
      </trkpt>
      <trkpt lat="44.1401" lon="6.10258">
        <ele>1023</ele>
        <time>2022-03-03T09:43:28.000Z</time>
      </trkpt>
      <trkpt lat="44.1401" lon="6.10258">
        <ele>1023</ele>
        <time>2022-03-03T09:43:29.000Z</time>
      </trkpt>
      <trkpt lat="44.1401" lon="6.10258">
        <ele>1023</ele>
        <time>2022-03-03T09:43:30.000Z</time>
      </trkpt>
      <trkpt lat="44.1401" lon="6.10258">
        <ele>1023</ele>
        <time>2022-03-03T09:43:31.000Z</time>
      </trkpt>
      <trkpt lat="44.1401" lon="6.10258">
        <ele>1023</ele>
        <time>2022-03-03T09:43:32.000Z</time>
      </trkpt>
      <trkpt lat="44.1401" lon="6.10258">
        <ele>1023</ele>
        <time>2022-03-03T09:43:33.000Z</time>
      </trkpt>
      <trkpt lat="44.1401" lon="6.10258">
        <ele>1023</ele>
        <time>2022-03-03T09:43:34.000Z</time>
      </trkpt>
      <trkpt lat="44.1401" lon="6.10258">
        <ele>1023</ele>
        <time>2022-03-03T09:43:35.000Z</time>
      </trkpt>
      <trkpt lat="44.1401" lon="6.10258">
        <ele>1023</ele>
        <time>2022-03-03T09:43:36.000Z</time>
      </trkpt>
      <trkpt lat="44.1401" lon="6.10257">
        <ele>1023</ele>
        <time>2022-03-03T09:43:37.000Z</time>
      </trkpt>
      <trkpt lat="44.14011" lon="6.10256">
        <ele>1023</ele>
        <time>2022-03-03T09:43:38.000Z</time>
      </trkpt>
      <trkpt lat="44.14011" lon="6.10255">
        <ele>1023</ele>
        <time>2022-03-03T09:43:39.000Z</time>
      </trkpt>
      <trkpt lat="44.14012" lon="6.10254">
        <ele>1023</ele>
        <time>2022-03-03T09:43:40.000Z</time>
      </trkpt>
      <trkpt lat="44.14012" lon="6.10253">
        <ele>1023</ele>
        <time>2022-03-03T09:43:41.000Z</time>
      </trkpt>
      <trkpt lat="44.14013" lon="6.10253">
        <ele>1023</ele>
        <time>2022-03-03T09:43:42.000Z</time>
      </trkpt>
      <trkpt lat="44.14014" lon="6.10252">
        <ele>1024</ele>
        <time>2022-03-03T09:43:43.000Z</time>
      </trkpt>
      <trkpt lat="44.14014" lon="6.10251">
        <ele>1024</ele>
        <time>2022-03-03T09:43:44.000Z</time>
      </trkpt>
      <trkpt lat="44.14015" lon="6.1025">
        <ele>1024</ele>
        <time>2022-03-03T09:43:45.000Z</time>
      </trkpt>
      <trkpt lat="44.14015" lon="6.10249">
        <ele>1024</ele>
        <time>2022-03-03T09:43:46.000Z</time>
      </trkpt>
      <trkpt lat="44.14016" lon="6.10249">
        <ele>1024</ele>
        <time>2022-03-03T09:43:47.000Z</time>
      </trkpt>
      <trkpt lat="44.14017" lon="6.10248">
        <ele>1024</ele>
        <time>2022-03-03T09:43:48.000Z</time>
      </trkpt>
      <trkpt lat="44.14017" lon="6.10247">
        <ele>1024</ele>
        <time>2022-03-03T09:43:49.000Z</time>
      </trkpt>
      <trkpt lat="44.14018" lon="6.10246">
        <ele>1024</ele>
        <time>2022-03-03T09:43:50.000Z</time>
      </trkpt>
      <trkpt lat="44.14018" lon="6.10245">
        <ele>1024</ele>
        <time>2022-03-03T09:43:51.000Z</time>
      </trkpt>
      <trkpt lat="44.14019" lon="6.10244">
        <ele>1024</ele>
        <time>2022-03-03T09:43:52.000Z</time>
      </trkpt>
      <trkpt lat="44.14019" lon="6.10243">
        <ele>1025</ele>
        <time>2022-03-03T09:43:53.000Z</time>
      </trkpt>
      <trkpt lat="44.1402" lon="6.10242">
        <ele>1025</ele>
        <time>2022-03-03T09:43:54.000Z</time>
      </trkpt>
      <trkpt lat="44.14021" lon="6.10241">
        <ele>1025</ele>
        <time>2022-03-03T09:43:55.000Z</time>
      </trkpt>
      <trkpt lat="44.14021" lon="6.1024">
        <ele>1025</ele>
        <time>2022-03-03T09:43:56.000Z</time>
      </trkpt>
      <trkpt lat="44.14022" lon="6.10239">
        <ele>1025</ele>
        <time>2022-03-03T09:43:57.000Z</time>
      </trkpt>
      <trkpt lat="44.14022" lon="6.10238">
        <ele>1025</ele>
        <time>2022-03-03T09:43:58.000Z</time>
      </trkpt>
      <trkpt lat="44.14023" lon="6.10237">
        <ele>1025</ele>
        <time>2022-03-03T09:43:59.000Z</time>
      </trkpt>
      <trkpt lat="44.14023" lon="6.10236">
        <ele>1026</ele>
        <time>2022-03-03T09:44:00.000Z</time>
      </trkpt>
      <trkpt lat="44.14024" lon="6.10236">
        <ele>1026</ele>
        <time>2022-03-03T09:44:01.000Z</time>
      </trkpt>
      <trkpt lat="44.14025" lon="6.10234">
        <ele>1026</ele>
        <time>2022-03-03T09:44:02.000Z</time>
      </trkpt>
      <trkpt lat="44.14025" lon="6.10234">
        <ele>1026</ele>
        <time>2022-03-03T09:44:03.000Z</time>
      </trkpt>
      <trkpt lat="44.14026" lon="6.10233">
        <ele>1026</ele>
        <time>2022-03-03T09:44:04.000Z</time>
      </trkpt>
      <trkpt lat="44.14026" lon="6.10232">
        <ele>1026</ele>
        <time>2022-03-03T09:44:05.000Z</time>
      </trkpt>
      <trkpt lat="44.14027" lon="6.10231">
        <ele>1026</ele>
        <time>2022-03-03T09:44:06.000Z</time>
      </trkpt>
      <trkpt lat="44.14028" lon="6.1023">
        <ele>1026</ele>
        <time>2022-03-03T09:44:07.000Z</time>
      </trkpt>
      <trkpt lat="44.14028" lon="6.1023">
        <ele>1026</ele>
        <time>2022-03-03T09:44:08.000Z</time>
      </trkpt>
      <trkpt lat="44.14029" lon="6.10229">
        <ele>1026</ele>
        <time>2022-03-03T09:44:09.000Z</time>
      </trkpt>
      <trkpt lat="44.14029" lon="6.10228">
        <ele>1027</ele>
        <time>2022-03-03T09:44:10.000Z</time>
      </trkpt>
      <trkpt lat="44.1403" lon="6.10227">
        <ele>1027</ele>
        <time>2022-03-03T09:44:11.000Z</time>
      </trkpt>
      <trkpt lat="44.1403" lon="6.10226">
        <ele>1027</ele>
        <time>2022-03-03T09:44:12.000Z</time>
      </trkpt>
      <trkpt lat="44.14031" lon="6.10225">
        <ele>1027</ele>
        <time>2022-03-03T09:44:13.000Z</time>
      </trkpt>
      <trkpt lat="44.14032" lon="6.10225">
        <ele>1027</ele>
        <time>2022-03-03T09:44:14.000Z</time>
      </trkpt>
      <trkpt lat="44.14032" lon="6.10224">
        <ele>1028</ele>
        <time>2022-03-03T09:44:15.000Z</time>
      </trkpt>
      <trkpt lat="44.14033" lon="6.10223">
        <ele>1028</ele>
        <time>2022-03-03T09:44:16.000Z</time>
      </trkpt>
      <trkpt lat="44.14034" lon="6.10222">
        <ele>1028</ele>
        <time>2022-03-03T09:44:17.000Z</time>
      </trkpt>
      <trkpt lat="44.14034" lon="6.10221">
        <ele>1028</ele>
        <time>2022-03-03T09:44:18.000Z</time>
      </trkpt>
      <trkpt lat="44.14035" lon="6.1022">
        <ele>1028</ele>
        <time>2022-03-03T09:44:19.000Z</time>
      </trkpt>
      <trkpt lat="44.14036" lon="6.10219">
        <ele>1028</ele>
        <time>2022-03-03T09:44:20.000Z</time>
      </trkpt>
      <trkpt lat="44.14036" lon="6.10219">
        <ele>1029</ele>
        <time>2022-03-03T09:44:21.000Z</time>
      </trkpt>
      <trkpt lat="44.14037" lon="6.10218">
        <ele>1029</ele>
        <time>2022-03-03T09:44:22.000Z</time>
      </trkpt>
      <trkpt lat="44.14037" lon="6.10217">
        <ele>1029</ele>
        <time>2022-03-03T09:44:23.000Z</time>
      </trkpt>
      <trkpt lat="44.14038" lon="6.10216">
        <ele>1029</ele>
        <time>2022-03-03T09:44:24.000Z</time>
      </trkpt>
      <trkpt lat="44.14039" lon="6.10215">
        <ele>1029</ele>
        <time>2022-03-03T09:44:25.000Z</time>
      </trkpt>
      <trkpt lat="44.14039" lon="6.10215">
        <ele>1029</ele>
        <time>2022-03-03T09:44:26.000Z</time>
      </trkpt>
      <trkpt lat="44.1404" lon="6.10214">
        <ele>1029</ele>
        <time>2022-03-03T09:44:27.000Z</time>
      </trkpt>
      <trkpt lat="44.1404" lon="6.10213">
        <ele>1029</ele>
        <time>2022-03-03T09:44:28.000Z</time>
      </trkpt>
      <trkpt lat="44.14041" lon="6.10212">
        <ele>1029</ele>
        <time>2022-03-03T09:44:29.000Z</time>
      </trkpt>
      <trkpt lat="44.14042" lon="6.10211">
        <ele>1030</ele>
        <time>2022-03-03T09:44:30.000Z</time>
      </trkpt>
      <trkpt lat="44.14042" lon="6.1021">
        <ele>1030</ele>
        <time>2022-03-03T09:44:31.000Z</time>
      </trkpt>
      <trkpt lat="44.14043" lon="6.10209">
        <ele>1030</ele>
        <time>2022-03-03T09:44:32.000Z</time>
      </trkpt>
      <trkpt lat="44.14043" lon="6.10208">
        <ele>1030</ele>
        <time>2022-03-03T09:44:33.000Z</time>
      </trkpt>
      <trkpt lat="44.14044" lon="6.10207">
        <ele>1030</ele>
        <time>2022-03-03T09:44:34.000Z</time>
      </trkpt>
      <trkpt lat="44.14044" lon="6.10207">
        <ele>1031</ele>
        <time>2022-03-03T09:44:35.000Z</time>
      </trkpt>
      <trkpt lat="44.14045" lon="6.10206">
        <ele>1031</ele>
        <time>2022-03-03T09:44:36.000Z</time>
      </trkpt>
      <trkpt lat="44.14045" lon="6.10205">
        <ele>1031</ele>
        <time>2022-03-03T09:44:37.000Z</time>
      </trkpt>
      <trkpt lat="44.14046" lon="6.10204">
        <ele>1031</ele>
        <time>2022-03-03T09:44:38.000Z</time>
      </trkpt>
      <trkpt lat="44.14047" lon="6.10203">
        <ele>1032</ele>
        <time>2022-03-03T09:44:39.000Z</time>
      </trkpt>
      <trkpt lat="44.14047" lon="6.10202">
        <ele>1032</ele>
        <time>2022-03-03T09:44:40.000Z</time>
      </trkpt>
      <trkpt lat="44.14048" lon="6.10202">
        <ele>1032</ele>
        <time>2022-03-03T09:44:41.000Z</time>
      </trkpt>
      <trkpt lat="44.14049" lon="6.10201">
        <ele>1032</ele>
        <time>2022-03-03T09:44:42.000Z</time>
      </trkpt>
      <trkpt lat="44.14049" lon="6.102">
        <ele>1032</ele>
        <time>2022-03-03T09:44:43.000Z</time>
      </trkpt>
      <trkpt lat="44.1405" lon="6.10199">
        <ele>1032</ele>
        <time>2022-03-03T09:44:44.000Z</time>
      </trkpt>
      <trkpt lat="44.1405" lon="6.10198">
        <ele>1032</ele>
        <time>2022-03-03T09:44:45.000Z</time>
      </trkpt>
      <trkpt lat="44.14051" lon="6.10197">
        <ele>1032</ele>
        <time>2022-03-03T09:44:46.000Z</time>
      </trkpt>
      <trkpt lat="44.14052" lon="6.10196">
        <ele>1032</ele>
        <time>2022-03-03T09:44:47.000Z</time>
      </trkpt>
      <trkpt lat="44.14052" lon="6.10196">
        <ele>1032</ele>
        <time>2022-03-03T09:44:48.000Z</time>
      </trkpt>
      <trkpt lat="44.14053" lon="6.10195">
        <ele>1033</ele>
        <time>2022-03-03T09:44:49.000Z</time>
      </trkpt>
      <trkpt lat="44.14054" lon="6.10194">
        <ele>1033</ele>
        <time>2022-03-03T09:44:50.000Z</time>
      </trkpt>
      <trkpt lat="44.14054" lon="6.10193">
        <ele>1033</ele>
        <time>2022-03-03T09:44:51.000Z</time>
      </trkpt>
      <trkpt lat="44.14055" lon="6.10193">
        <ele>1033</ele>
        <time>2022-03-03T09:44:52.000Z</time>
      </trkpt>
      <trkpt lat="44.14056" lon="6.10192">
        <ele>1033</ele>
        <time>2022-03-03T09:44:53.000Z</time>
      </trkpt>
      <trkpt lat="44.14057" lon="6.10191">
        <ele>1033</ele>
        <time>2022-03-03T09:44:54.000Z</time>
      </trkpt>
      <trkpt lat="44.14057" lon="6.1019">
        <ele>1033</ele>
        <time>2022-03-03T09:44:55.000Z</time>
      </trkpt>
      <trkpt lat="44.14058" lon="6.10189">
        <ele>1033</ele>
        <time>2022-03-03T09:44:56.000Z</time>
      </trkpt>
      <trkpt lat="44.14058" lon="6.10189">
        <ele>1033</ele>
        <time>2022-03-03T09:44:57.000Z</time>
      </trkpt>
      <trkpt lat="44.14059" lon="6.10188">
        <ele>1033</ele>
        <time>2022-03-03T09:44:58.000Z</time>
      </trkpt>
      <trkpt lat="44.1406" lon="6.10187">
        <ele>1033</ele>
        <time>2022-03-03T09:44:59.000Z</time>
      </trkpt>
      <trkpt lat="44.14061" lon="6.10186">
        <ele>1033</ele>
        <time>2022-03-03T09:45:00.000Z</time>
      </trkpt>
      <trkpt lat="44.14061" lon="6.10185">
        <ele>1033</ele>
        <time>2022-03-03T09:45:01.000Z</time>
      </trkpt>
      <trkpt lat="44.14062" lon="6.10184">
        <ele>1034</ele>
        <time>2022-03-03T09:45:02.000Z</time>
      </trkpt>
      <trkpt lat="44.14063" lon="6.10184">
        <ele>1034</ele>
        <time>2022-03-03T09:45:03.000Z</time>
      </trkpt>
      <trkpt lat="44.14063" lon="6.10183">
        <ele>1034</ele>
        <time>2022-03-03T09:45:04.000Z</time>
      </trkpt>
      <trkpt lat="44.14064" lon="6.10182">
        <ele>1034</ele>
        <time>2022-03-03T09:45:05.000Z</time>
      </trkpt>
      <trkpt lat="44.14065" lon="6.10181">
        <ele>1034</ele>
        <time>2022-03-03T09:45:06.000Z</time>
      </trkpt>
      <trkpt lat="44.14065" lon="6.1018">
        <ele>1034</ele>
        <time>2022-03-03T09:45:07.000Z</time>
      </trkpt>
      <trkpt lat="44.14066" lon="6.10179">
        <ele>1034</ele>
        <time>2022-03-03T09:45:08.000Z</time>
      </trkpt>
      <trkpt lat="44.14066" lon="6.10179">
        <ele>1034</ele>
        <time>2022-03-03T09:45:09.000Z</time>
      </trkpt>
      <trkpt lat="44.14067" lon="6.10178">
        <ele>1034</ele>
        <time>2022-03-03T09:45:10.000Z</time>
      </trkpt>
      <trkpt lat="44.14068" lon="6.10177">
        <ele>1034</ele>
        <time>2022-03-03T09:45:11.000Z</time>
      </trkpt>
      <trkpt lat="44.14068" lon="6.10176">
        <ele>1034</ele>
        <time>2022-03-03T09:45:12.000Z</time>
      </trkpt>
      <trkpt lat="44.14069" lon="6.10175">
        <ele>1034</ele>
        <time>2022-03-03T09:45:13.000Z</time>
      </trkpt>
      <trkpt lat="44.1407" lon="6.10174">
        <ele>1035</ele>
        <time>2022-03-03T09:45:14.000Z</time>
      </trkpt>
      <trkpt lat="44.1407" lon="6.10174">
        <ele>1035</ele>
        <time>2022-03-03T09:45:15.000Z</time>
      </trkpt>
      <trkpt lat="44.14071" lon="6.10173">
        <ele>1035</ele>
        <time>2022-03-03T09:45:16.000Z</time>
      </trkpt>
      <trkpt lat="44.14072" lon="6.10172">
        <ele>1035</ele>
        <time>2022-03-03T09:45:17.000Z</time>
      </trkpt>
      <trkpt lat="44.14073" lon="6.10171">
        <ele>1035</ele>
        <time>2022-03-03T09:45:18.000Z</time>
      </trkpt>
      <trkpt lat="44.14073" lon="6.10171">
        <ele>1035</ele>
        <time>2022-03-03T09:45:19.000Z</time>
      </trkpt>
      <trkpt lat="44.14074" lon="6.1017">
        <ele>1036</ele>
        <time>2022-03-03T09:45:20.000Z</time>
      </trkpt>
      <trkpt lat="44.14075" lon="6.10169">
        <ele>1036</ele>
        <time>2022-03-03T09:45:21.000Z</time>
      </trkpt>
      <trkpt lat="44.14075" lon="6.10168">
        <ele>1036</ele>
        <time>2022-03-03T09:45:22.000Z</time>
      </trkpt>
      <trkpt lat="44.14076" lon="6.10168">
        <ele>1036</ele>
        <time>2022-03-03T09:45:23.000Z</time>
      </trkpt>
      <trkpt lat="44.14077" lon="6.10167">
        <ele>1036</ele>
        <time>2022-03-03T09:45:24.000Z</time>
      </trkpt>
      <trkpt lat="44.14077" lon="6.10166">
        <ele>1036</ele>
        <time>2022-03-03T09:45:25.000Z</time>
      </trkpt>
      <trkpt lat="44.14078" lon="6.10166">
        <ele>1036</ele>
        <time>2022-03-03T09:45:26.000Z</time>
      </trkpt>
      <trkpt lat="44.14078" lon="6.10165">
        <ele>1036</ele>
        <time>2022-03-03T09:45:27.000Z</time>
      </trkpt>
      <trkpt lat="44.14079" lon="6.10165">
        <ele>1036</ele>
        <time>2022-03-03T09:45:28.000Z</time>
      </trkpt>
      <trkpt lat="44.14079" lon="6.10165">
        <ele>1036</ele>
        <time>2022-03-03T09:45:29.000Z</time>
      </trkpt>
      <trkpt lat="44.14079" lon="6.10165">
        <ele>1036</ele>
        <time>2022-03-03T09:45:30.000Z</time>
      </trkpt>
      <trkpt lat="44.14079" lon="6.10165">
        <ele>1036</ele>
        <time>2022-03-03T09:45:31.000Z</time>
      </trkpt>
      <trkpt lat="44.14079" lon="6.10165">
        <ele>1036</ele>
        <time>2022-03-03T09:45:32.000Z</time>
      </trkpt>
      <trkpt lat="44.14079" lon="6.10165">
        <ele>1036</ele>
        <time>2022-03-03T09:45:33.000Z</time>
      </trkpt>
      <trkpt lat="44.14079" lon="6.10165">
        <ele>1036</ele>
        <time>2022-03-03T09:45:34.000Z</time>
      </trkpt>
      <trkpt lat="44.14079" lon="6.10165">
        <ele>1036</ele>
        <time>2022-03-03T09:45:35.000Z</time>
      </trkpt>
      <trkpt lat="44.14079" lon="6.10165">
        <ele>1036</ele>
        <time>2022-03-03T09:45:36.000Z</time>
      </trkpt>
      <trkpt lat="44.14079" lon="6.10165">
        <ele>1036</ele>
        <time>2022-03-03T09:45:37.000Z</time>
      </trkpt>
      <trkpt lat="44.14079" lon="6.10165">
        <ele>1037</ele>
        <time>2022-03-03T09:45:38.000Z</time>
      </trkpt>
      <trkpt lat="44.14079" lon="6.10165">
        <ele>1037</ele>
        <time>2022-03-03T09:45:39.000Z</time>
      </trkpt>
      <trkpt lat="44.14079" lon="6.10165">
        <ele>1037</ele>
        <time>2022-03-03T09:45:40.000Z</time>
      </trkpt>
      <trkpt lat="44.14079" lon="6.10165">
        <ele>1037</ele>
        <time>2022-03-03T09:45:41.000Z</time>
      </trkpt>
      <trkpt lat="44.14079" lon="6.10165">
        <ele>1037</ele>
        <time>2022-03-03T09:45:42.000Z</time>
      </trkpt>
      <trkpt lat="44.14079" lon="6.10165">
        <ele>1037</ele>
        <time>2022-03-03T09:45:43.000Z</time>
      </trkpt>
      <trkpt lat="44.14079" lon="6.10165">
        <ele>1037</ele>
        <time>2022-03-03T09:45:44.000Z</time>
      </trkpt>
      <trkpt lat="44.14079" lon="6.10164">
        <ele>1037</ele>
        <time>2022-03-03T09:45:45.000Z</time>
      </trkpt>
      <trkpt lat="44.14079" lon="6.10164">
        <ele>1037</ele>
        <time>2022-03-03T09:45:46.000Z</time>
      </trkpt>
      <trkpt lat="44.14079" lon="6.10164">
        <ele>1037</ele>
        <time>2022-03-03T09:45:47.000Z</time>
      </trkpt>
      <trkpt lat="44.14079" lon="6.10164">
        <ele>1037</ele>
        <time>2022-03-03T09:45:48.000Z</time>
      </trkpt>
      <trkpt lat="44.14079" lon="6.10164">
        <ele>1037</ele>
        <time>2022-03-03T09:45:49.000Z</time>
      </trkpt>
      <trkpt lat="44.14079" lon="6.10164">
        <ele>1037</ele>
        <time>2022-03-03T09:45:50.000Z</time>
      </trkpt>
      <trkpt lat="44.14079" lon="6.10164">
        <ele>1037</ele>
        <time>2022-03-03T09:45:51.000Z</time>
      </trkpt>
      <trkpt lat="44.14079" lon="6.10164">
        <ele>1037</ele>
        <time>2022-03-03T09:45:52.000Z</time>
      </trkpt>
      <trkpt lat="44.14079" lon="6.10164">
        <ele>1037</ele>
        <time>2022-03-03T09:45:53.000Z</time>
      </trkpt>
      <trkpt lat="44.14079" lon="6.10164">
        <ele>1037</ele>
        <time>2022-03-03T09:45:54.000Z</time>
      </trkpt>
      <trkpt lat="44.14079" lon="6.10164">
        <ele>1037</ele>
        <time>2022-03-03T09:45:55.000Z</time>
      </trkpt>
      <trkpt lat="44.14079" lon="6.10164">
        <ele>1037</ele>
        <time>2022-03-03T09:45:56.000Z</time>
      </trkpt>
      <trkpt lat="44.14079" lon="6.10164">
        <ele>1037</ele>
        <time>2022-03-03T09:45:57.000Z</time>
      </trkpt>
      <trkpt lat="44.14079" lon="6.10164">
        <ele>1037</ele>
        <time>2022-03-03T09:45:58.000Z</time>
      </trkpt>
      <trkpt lat="44.14079" lon="6.10164">
        <ele>1037</ele>
        <time>2022-03-03T09:45:59.000Z</time>
      </trkpt>
      <trkpt lat="44.14079" lon="6.10164">
        <ele>1037</ele>
        <time>2022-03-03T09:46:00.000Z</time>
      </trkpt>
      <trkpt lat="44.14079" lon="6.10164">
        <ele>1037</ele>
        <time>2022-03-03T09:46:01.000Z</time>
      </trkpt>
      <trkpt lat="44.14079" lon="6.10164">
        <ele>1037</ele>
        <time>2022-03-03T09:46:02.000Z</time>
      </trkpt>
      <trkpt lat="44.14079" lon="6.10164">
        <ele>1037</ele>
        <time>2022-03-03T09:46:03.000Z</time>
      </trkpt>
      <trkpt lat="44.14079" lon="6.10164">
        <ele>1037</ele>
        <time>2022-03-03T09:46:04.000Z</time>
      </trkpt>
      <trkpt lat="44.14079" lon="6.10164">
        <ele>1037</ele>
        <time>2022-03-03T09:46:05.000Z</time>
      </trkpt>
      <trkpt lat="44.14079" lon="6.10164">
        <ele>1037</ele>
        <time>2022-03-03T09:46:06.000Z</time>
      </trkpt>
      <trkpt lat="44.14079" lon="6.10164">
        <ele>1037</ele>
        <time>2022-03-03T09:46:07.000Z</time>
      </trkpt>
      <trkpt lat="44.14079" lon="6.10164">
        <ele>1037</ele>
        <time>2022-03-03T09:46:08.000Z</time>
      </trkpt>
      <trkpt lat="44.14079" lon="6.10164">
        <ele>1037</ele>
        <time>2022-03-03T09:46:09.000Z</time>
      </trkpt>
      <trkpt lat="44.14079" lon="6.10164">
        <ele>1037</ele>
        <time>2022-03-03T09:46:10.000Z</time>
      </trkpt>
      <trkpt lat="44.14079" lon="6.10164">
        <ele>1037</ele>
        <time>2022-03-03T09:46:11.000Z</time>
      </trkpt>
      <trkpt lat="44.14079" lon="6.10164">
        <ele>1037</ele>
        <time>2022-03-03T09:46:12.000Z</time>
      </trkpt>
      <trkpt lat="44.14079" lon="6.10164">
        <ele>1037</ele>
        <time>2022-03-03T09:46:13.000Z</time>
      </trkpt>
      <trkpt lat="44.14079" lon="6.10164">
        <ele>1037</ele>
        <time>2022-03-03T09:46:14.000Z</time>
      </trkpt>
      <trkpt lat="44.14079" lon="6.10164">
        <ele>1037</ele>
        <time>2022-03-03T09:46:15.000Z</time>
      </trkpt>
      <trkpt lat="44.14079" lon="6.10164">
        <ele>1037</ele>
        <time>2022-03-03T09:46:16.000Z</time>
      </trkpt>
      <trkpt lat="44.14079" lon="6.10164">
        <ele>1037</ele>
        <time>2022-03-03T09:46:17.000Z</time>
      </trkpt>
      <trkpt lat="44.14079" lon="6.10164">
        <ele>1037</ele>
        <time>2022-03-03T09:46:18.000Z</time>
      </trkpt>
      <trkpt lat="44.14079" lon="6.10164">
        <ele>1037</ele>
        <time>2022-03-03T09:46:19.000Z</time>
      </trkpt>
      <trkpt lat="44.14079" lon="6.10164">
        <ele>1037</ele>
        <time>2022-03-03T09:46:20.000Z</time>
      </trkpt>
      <trkpt lat="44.14079" lon="6.10164">
        <ele>1037</ele>
        <time>2022-03-03T09:46:21.000Z</time>
      </trkpt>
      <trkpt lat="44.14079" lon="6.10164">
        <ele>1037</ele>
        <time>2022-03-03T09:46:22.000Z</time>
      </trkpt>
      <trkpt lat="44.14079" lon="6.10164">
        <ele>1037</ele>
        <time>2022-03-03T09:46:23.000Z</time>
      </trkpt>
      <trkpt lat="44.14079" lon="6.10164">
        <ele>1037</ele>
        <time>2022-03-03T09:46:24.000Z</time>
      </trkpt>
      <trkpt lat="44.14079" lon="6.10164">
        <ele>1037</ele>
        <time>2022-03-03T09:46:25.000Z</time>
      </trkpt>
      <trkpt lat="44.14079" lon="6.10164">
        <ele>1037</ele>
        <time>2022-03-03T09:46:26.000Z</time>
      </trkpt>
      <trkpt lat="44.14079" lon="6.10164">
        <ele>1037</ele>
        <time>2022-03-03T09:46:27.000Z</time>
      </trkpt>
      <trkpt lat="44.14079" lon="6.10164">
        <ele>1037</ele>
        <time>2022-03-03T09:46:28.000Z</time>
      </trkpt>
      <trkpt lat="44.14079" lon="6.10164">
        <ele>1037</ele>
        <time>2022-03-03T09:46:29.000Z</time>
      </trkpt>
      <trkpt lat="44.14079" lon="6.10164">
        <ele>1037</ele>
        <time>2022-03-03T09:46:30.000Z</time>
      </trkpt>
      <trkpt lat="44.14079" lon="6.10164">
        <ele>1037</ele>
        <time>2022-03-03T09:46:31.000Z</time>
      </trkpt>
      <trkpt lat="44.14079" lon="6.10164">
        <ele>1037</ele>
        <time>2022-03-03T09:46:32.000Z</time>
      </trkpt>
      <trkpt lat="44.14079" lon="6.10164">
        <ele>1037</ele>
        <time>2022-03-03T09:46:33.000Z</time>
      </trkpt>
      <trkpt lat="44.14079" lon="6.10164">
        <ele>1037</ele>
        <time>2022-03-03T09:46:34.000Z</time>
      </trkpt>
      <trkpt lat="44.14079" lon="6.10164">
        <ele>1037</ele>
        <time>2022-03-03T09:46:35.000Z</time>
      </trkpt>
      <trkpt lat="44.14079" lon="6.10164">
        <ele>1037</ele>
        <time>2022-03-03T09:46:36.000Z</time>
      </trkpt>
      <trkpt lat="44.14079" lon="6.10164">
        <ele>1037</ele>
        <time>2022-03-03T09:46:37.000Z</time>
      </trkpt>
      <trkpt lat="44.14079" lon="6.10164">
        <ele>1037</ele>
        <time>2022-03-03T09:46:38.000Z</time>
      </trkpt>
      <trkpt lat="44.14079" lon="6.10164">
        <ele>1037</ele>
        <time>2022-03-03T09:46:39.000Z</time>
      </trkpt>
      <trkpt lat="44.1408" lon="6.10164">
        <ele>1037</ele>
        <time>2022-03-03T09:46:40.000Z</time>
      </trkpt>
      <trkpt lat="44.14081" lon="6.10164">
        <ele>1037</ele>
        <time>2022-03-03T09:46:41.000Z</time>
      </trkpt>
      <trkpt lat="44.14081" lon="6.10164">
        <ele>1037</ele>
        <time>2022-03-03T09:46:42.000Z</time>
      </trkpt>
      <trkpt lat="44.14081" lon="6.10164">
        <ele>1037</ele>
        <time>2022-03-03T09:46:43.000Z</time>
      </trkpt>
      <trkpt lat="44.14081" lon="6.10164">
        <ele>1037</ele>
        <time>2022-03-03T09:46:44.000Z</time>
      </trkpt>
      <trkpt lat="44.14081" lon="6.10164">
        <ele>1037</ele>
        <time>2022-03-03T09:46:45.000Z</time>
      </trkpt>
      <trkpt lat="44.14081" lon="6.10164">
        <ele>1037</ele>
        <time>2022-03-03T09:46:46.000Z</time>
      </trkpt>
      <trkpt lat="44.14081" lon="6.10164">
        <ele>1037</ele>
        <time>2022-03-03T09:46:47.000Z</time>
      </trkpt>
      <trkpt lat="44.14081" lon="6.10164">
        <ele>1037</ele>
        <time>2022-03-03T09:46:48.000Z</time>
      </trkpt>
      <trkpt lat="44.14081" lon="6.10164">
        <ele>1037</ele>
        <time>2022-03-03T09:46:49.000Z</time>
      </trkpt>
      <trkpt lat="44.14081" lon="6.10164">
        <ele>1037</ele>
        <time>2022-03-03T09:46:50.000Z</time>
      </trkpt>
      <trkpt lat="44.14081" lon="6.10164">
        <ele>1037</ele>
        <time>2022-03-03T09:46:51.000Z</time>
      </trkpt>
      <trkpt lat="44.14081" lon="6.10164">
        <ele>1037</ele>
        <time>2022-03-03T09:46:52.000Z</time>
      </trkpt>
      <trkpt lat="44.14081" lon="6.10164">
        <ele>1037</ele>
        <time>2022-03-03T09:46:53.000Z</time>
      </trkpt>
      <trkpt lat="44.14081" lon="6.10164">
        <ele>1037</ele>
        <time>2022-03-03T09:46:54.000Z</time>
      </trkpt>
      <trkpt lat="44.14081" lon="6.10164">
        <ele>1037</ele>
        <time>2022-03-03T09:46:55.000Z</time>
      </trkpt>
      <trkpt lat="44.14081" lon="6.10164">
        <ele>1037</ele>
        <time>2022-03-03T09:46:56.000Z</time>
      </trkpt>
      <trkpt lat="44.14081" lon="6.10164">
        <ele>1037</ele>
        <time>2022-03-03T09:46:57.000Z</time>
      </trkpt>
      <trkpt lat="44.14081" lon="6.10164">
        <ele>1037</ele>
        <time>2022-03-03T09:46:58.000Z</time>
      </trkpt>
      <trkpt lat="44.14081" lon="6.10164">
        <ele>1037</ele>
        <time>2022-03-03T09:46:59.000Z</time>
      </trkpt>
      <trkpt lat="44.14081" lon="6.10164">
        <ele>1037</ele>
        <time>2022-03-03T09:47:00.000Z</time>
      </trkpt>
      <trkpt lat="44.14081" lon="6.10164">
        <ele>1037</ele>
        <time>2022-03-03T09:47:01.000Z</time>
      </trkpt>
      <trkpt lat="44.14081" lon="6.10164">
        <ele>1037</ele>
        <time>2022-03-03T09:47:02.000Z</time>
      </trkpt>
      <trkpt lat="44.14081" lon="6.10164">
        <ele>1037</ele>
        <time>2022-03-03T09:47:03.000Z</time>
      </trkpt>
      <trkpt lat="44.14081" lon="6.10164">
        <ele>1037</ele>
        <time>2022-03-03T09:47:04.000Z</time>
      </trkpt>
      <trkpt lat="44.14081" lon="6.10164">
        <ele>1037</ele>
        <time>2022-03-03T09:47:05.000Z</time>
      </trkpt>
      <trkpt lat="44.14081" lon="6.10164">
        <ele>1037</ele>
        <time>2022-03-03T09:47:06.000Z</time>
      </trkpt>
      <trkpt lat="44.14081" lon="6.10164">
        <ele>1037</ele>
        <time>2022-03-03T09:47:07.000Z</time>
      </trkpt>
      <trkpt lat="44.14081" lon="6.10164">
        <ele>1037</ele>
        <time>2022-03-03T09:47:08.000Z</time>
      </trkpt>
      <trkpt lat="44.14081" lon="6.10163">
        <ele>1037</ele>
        <time>2022-03-03T09:47:09.000Z</time>
      </trkpt>
      <trkpt lat="44.14081" lon="6.10163">
        <ele>1037</ele>
        <time>2022-03-03T09:47:10.000Z</time>
      </trkpt>
      <trkpt lat="44.14081" lon="6.10164">
        <ele>1037</ele>
        <time>2022-03-03T09:47:11.000Z</time>
      </trkpt>
      <trkpt lat="44.14081" lon="6.10164">
        <ele>1037</ele>
        <time>2022-03-03T09:47:12.000Z</time>
      </trkpt>
      <trkpt lat="44.14081" lon="6.10163">
        <ele>1037</ele>
        <time>2022-03-03T09:47:13.000Z</time>
      </trkpt>
      <trkpt lat="44.14081" lon="6.10163">
        <ele>1037</ele>
        <time>2022-03-03T09:47:14.000Z</time>
      </trkpt>
      <trkpt lat="44.14082" lon="6.10163">
        <ele>1037</ele>
        <time>2022-03-03T09:47:15.000Z</time>
      </trkpt>
      <trkpt lat="44.14082" lon="6.10163">
        <ele>1037</ele>
        <time>2022-03-03T09:47:16.000Z</time>
      </trkpt>
      <trkpt lat="44.14082" lon="6.10163">
        <ele>1037</ele>
        <time>2022-03-03T09:47:17.000Z</time>
      </trkpt>
      <trkpt lat="44.14082" lon="6.10163">
        <ele>1037</ele>
        <time>2022-03-03T09:47:18.000Z</time>
      </trkpt>
      <trkpt lat="44.14082" lon="6.10163">
        <ele>1037</ele>
        <time>2022-03-03T09:47:19.000Z</time>
      </trkpt>
      <trkpt lat="44.14082" lon="6.10163">
        <ele>1037</ele>
        <time>2022-03-03T09:47:20.000Z</time>
      </trkpt>
      <trkpt lat="44.14082" lon="6.10163">
        <ele>1037</ele>
        <time>2022-03-03T09:47:21.000Z</time>
      </trkpt>
      <trkpt lat="44.14082" lon="6.10163">
        <ele>1037</ele>
        <time>2022-03-03T09:47:22.000Z</time>
      </trkpt>
      <trkpt lat="44.14082" lon="6.10163">
        <ele>1037</ele>
        <time>2022-03-03T09:47:23.000Z</time>
      </trkpt>
      <trkpt lat="44.14082" lon="6.10163">
        <ele>1037</ele>
        <time>2022-03-03T09:47:24.000Z</time>
      </trkpt>
      <trkpt lat="44.14082" lon="6.10163">
        <ele>1037</ele>
        <time>2022-03-03T09:47:25.000Z</time>
      </trkpt>
      <trkpt lat="44.14082" lon="6.10163">
        <ele>1037</ele>
        <time>2022-03-03T09:47:26.000Z</time>
      </trkpt>
      <trkpt lat="44.14082" lon="6.10163">
        <ele>1037</ele>
        <time>2022-03-03T09:47:27.000Z</time>
      </trkpt>
      <trkpt lat="44.14082" lon="6.10163">
        <ele>1037</ele>
        <time>2022-03-03T09:47:28.000Z</time>
      </trkpt>
      <trkpt lat="44.14082" lon="6.10163">
        <ele>1037</ele>
        <time>2022-03-03T09:47:29.000Z</time>
      </trkpt>
      <trkpt lat="44.14082" lon="6.10163">
        <ele>1037</ele>
        <time>2022-03-03T09:47:30.000Z</time>
      </trkpt>
      <trkpt lat="44.14082" lon="6.10163">
        <ele>1037</ele>
        <time>2022-03-03T09:47:31.000Z</time>
      </trkpt>
      <trkpt lat="44.14082" lon="6.10163">
        <ele>1037</ele>
        <time>2022-03-03T09:47:32.000Z</time>
      </trkpt>
      <trkpt lat="44.14082" lon="6.10163">
        <ele>1037</ele>
        <time>2022-03-03T09:47:33.000Z</time>
      </trkpt>
      <trkpt lat="44.14082" lon="6.10163">
        <ele>1037</ele>
        <time>2022-03-03T09:47:34.000Z</time>
      </trkpt>
      <trkpt lat="44.14082" lon="6.10163">
        <ele>1037</ele>
        <time>2022-03-03T09:47:35.000Z</time>
      </trkpt>
      <trkpt lat="44.14082" lon="6.10163">
        <ele>1037</ele>
        <time>2022-03-03T09:47:36.000Z</time>
      </trkpt>
      <trkpt lat="44.14082" lon="6.10163">
        <ele>1037</ele>
        <time>2022-03-03T09:47:37.000Z</time>
      </trkpt>
      <trkpt lat="44.14082" lon="6.10163">
        <ele>1037</ele>
        <time>2022-03-03T09:47:38.000Z</time>
      </trkpt>
      <trkpt lat="44.14082" lon="6.10163">
        <ele>1037</ele>
        <time>2022-03-03T09:47:39.000Z</time>
      </trkpt>
      <trkpt lat="44.14082" lon="6.10163">
        <ele>1037</ele>
        <time>2022-03-03T09:47:40.000Z</time>
      </trkpt>
      <trkpt lat="44.14082" lon="6.10163">
        <ele>1037</ele>
        <time>2022-03-03T09:47:41.000Z</time>
      </trkpt>
      <trkpt lat="44.14082" lon="6.10163">
        <ele>1037</ele>
        <time>2022-03-03T09:47:42.000Z</time>
      </trkpt>
      <trkpt lat="44.14082" lon="6.10163">
        <ele>1037</ele>
        <time>2022-03-03T09:47:43.000Z</time>
      </trkpt>
      <trkpt lat="44.14082" lon="6.10163">
        <ele>1037</ele>
        <time>2022-03-03T09:47:44.000Z</time>
      </trkpt>
      <trkpt lat="44.14082" lon="6.10163">
        <ele>1037</ele>
        <time>2022-03-03T09:47:45.000Z</time>
      </trkpt>
      <trkpt lat="44.14082" lon="6.10163">
        <ele>1037</ele>
        <time>2022-03-03T09:47:46.000Z</time>
      </trkpt>
      <trkpt lat="44.14082" lon="6.10163">
        <ele>1037</ele>
        <time>2022-03-03T09:47:47.000Z</time>
      </trkpt>
      <trkpt lat="44.14082" lon="6.10163">
        <ele>1037</ele>
        <time>2022-03-03T09:47:48.000Z</time>
      </trkpt>
      <trkpt lat="44.14082" lon="6.10163">
        <ele>1037</ele>
        <time>2022-03-03T09:47:49.000Z</time>
      </trkpt>
      <trkpt lat="44.14082" lon="6.10163">
        <ele>1037</ele>
        <time>2022-03-03T09:47:50.000Z</time>
      </trkpt>
      <trkpt lat="44.14082" lon="6.10163">
        <ele>1037</ele>
        <time>2022-03-03T09:47:51.000Z</time>
      </trkpt>
      <trkpt lat="44.14082" lon="6.10163">
        <ele>1037</ele>
        <time>2022-03-03T09:47:52.000Z</time>
      </trkpt>
      <trkpt lat="44.14082" lon="6.10163">
        <ele>1037</ele>
        <time>2022-03-03T09:47:53.000Z</time>
      </trkpt>
      <trkpt lat="44.14082" lon="6.10163">
        <ele>1037</ele>
        <time>2022-03-03T09:47:54.000Z</time>
      </trkpt>
      <trkpt lat="44.14082" lon="6.10163">
        <ele>1037</ele>
        <time>2022-03-03T09:47:55.000Z</time>
      </trkpt>
      <trkpt lat="44.14082" lon="6.10163">
        <ele>1037</ele>
        <time>2022-03-03T09:47:56.000Z</time>
      </trkpt>
      <trkpt lat="44.14082" lon="6.10163">
        <ele>1037</ele>
        <time>2022-03-03T09:47:57.000Z</time>
      </trkpt>
      <trkpt lat="44.14082" lon="6.10163">
        <ele>1037</ele>
        <time>2022-03-03T09:47:58.000Z</time>
      </trkpt>
      <trkpt lat="44.14082" lon="6.10163">
        <ele>1037</ele>
        <time>2022-03-03T09:47:59.000Z</time>
      </trkpt>
      <trkpt lat="44.14082" lon="6.10163">
        <ele>1037</ele>
        <time>2022-03-03T09:48:00.000Z</time>
      </trkpt>
      <trkpt lat="44.14082" lon="6.10163">
        <ele>1037</ele>
        <time>2022-03-03T09:48:01.000Z</time>
      </trkpt>
      <trkpt lat="44.14082" lon="6.10163">
        <ele>1037</ele>
        <time>2022-03-03T09:48:02.000Z</time>
      </trkpt>
      <trkpt lat="44.14082" lon="6.10163">
        <ele>1037</ele>
        <time>2022-03-03T09:48:03.000Z</time>
      </trkpt>
      <trkpt lat="44.14082" lon="6.10163">
        <ele>1037</ele>
        <time>2022-03-03T09:48:04.000Z</time>
      </trkpt>
      <trkpt lat="44.14082" lon="6.10163">
        <ele>1037</ele>
        <time>2022-03-03T09:48:05.000Z</time>
      </trkpt>
      <trkpt lat="44.14082" lon="6.10163">
        <ele>1037</ele>
        <time>2022-03-03T09:48:06.000Z</time>
      </trkpt>
      <trkpt lat="44.14082" lon="6.10163">
        <ele>1037</ele>
        <time>2022-03-03T09:48:07.000Z</time>
      </trkpt>
      <trkpt lat="44.14082" lon="6.10163">
        <ele>1037</ele>
        <time>2022-03-03T09:48:08.000Z</time>
      </trkpt>
      <trkpt lat="44.14082" lon="6.10163">
        <ele>1037</ele>
        <time>2022-03-03T09:48:09.000Z</time>
      </trkpt>
      <trkpt lat="44.14082" lon="6.10163">
        <ele>1037</ele>
        <time>2022-03-03T09:48:10.000Z</time>
      </trkpt>
      <trkpt lat="44.14082" lon="6.10163">
        <ele>1037</ele>
        <time>2022-03-03T09:48:11.000Z</time>
      </trkpt>
      <trkpt lat="44.14082" lon="6.10163">
        <ele>1037</ele>
        <time>2022-03-03T09:48:12.000Z</time>
      </trkpt>
      <trkpt lat="44.14082" lon="6.10163">
        <ele>1037</ele>
        <time>2022-03-03T09:48:13.000Z</time>
      </trkpt>
      <trkpt lat="44.14082" lon="6.10163">
        <ele>1037</ele>
        <time>2022-03-03T09:48:14.000Z</time>
      </trkpt>
      <trkpt lat="44.14082" lon="6.10163">
        <ele>1037</ele>
        <time>2022-03-03T09:48:15.000Z</time>
      </trkpt>
      <trkpt lat="44.14082" lon="6.10163">
        <ele>1037</ele>
        <time>2022-03-03T09:48:16.000Z</time>
      </trkpt>
      <trkpt lat="44.14082" lon="6.10163">
        <ele>1037</ele>
        <time>2022-03-03T09:48:17.000Z</time>
      </trkpt>
      <trkpt lat="44.14082" lon="6.10163">
        <ele>1037</ele>
        <time>2022-03-03T09:48:18.000Z</time>
      </trkpt>
      <trkpt lat="44.14082" lon="6.10163">
        <ele>1037</ele>
        <time>2022-03-03T09:48:19.000Z</time>
      </trkpt>
      <trkpt lat="44.14082" lon="6.10163">
        <ele>1037</ele>
        <time>2022-03-03T09:48:20.000Z</time>
      </trkpt>
      <trkpt lat="44.14082" lon="6.10163">
        <ele>1037</ele>
        <time>2022-03-03T09:48:21.000Z</time>
      </trkpt>
      <trkpt lat="44.14082" lon="6.10163">
        <ele>1037</ele>
        <time>2022-03-03T09:48:22.000Z</time>
      </trkpt>
      <trkpt lat="44.14082" lon="6.10163">
        <ele>1037</ele>
        <time>2022-03-03T09:48:23.000Z</time>
      </trkpt>
      <trkpt lat="44.14082" lon="6.10163">
        <ele>1037</ele>
        <time>2022-03-03T09:48:24.000Z</time>
      </trkpt>
      <trkpt lat="44.14082" lon="6.10163">
        <ele>1037</ele>
        <time>2022-03-03T09:48:25.000Z</time>
      </trkpt>
      <trkpt lat="44.14082" lon="6.10163">
        <ele>1037</ele>
        <time>2022-03-03T09:48:26.000Z</time>
      </trkpt>
      <trkpt lat="44.14082" lon="6.10163">
        <ele>1037</ele>
        <time>2022-03-03T09:48:27.000Z</time>
      </trkpt>
      <trkpt lat="44.14082" lon="6.10163">
        <ele>1037</ele>
        <time>2022-03-03T09:48:28.000Z</time>
      </trkpt>
      <trkpt lat="44.14082" lon="6.10163">
        <ele>1037</ele>
        <time>2022-03-03T09:48:29.000Z</time>
      </trkpt>
      <trkpt lat="44.14082" lon="6.10163">
        <ele>1037</ele>
        <time>2022-03-03T09:48:30.000Z</time>
      </trkpt>
      <trkpt lat="44.14082" lon="6.10163">
        <ele>1037</ele>
        <time>2022-03-03T09:48:31.000Z</time>
      </trkpt>
      <trkpt lat="44.14082" lon="6.10163">
        <ele>1037</ele>
        <time>2022-03-03T09:48:32.000Z</time>
      </trkpt>
      <trkpt lat="44.14082" lon="6.10163">
        <ele>1037</ele>
        <time>2022-03-03T09:48:33.000Z</time>
      </trkpt>
      <trkpt lat="44.14082" lon="6.10163">
        <ele>1037</ele>
        <time>2022-03-03T09:48:34.000Z</time>
      </trkpt>
      <trkpt lat="44.14082" lon="6.10163">
        <ele>1037</ele>
        <time>2022-03-03T09:48:35.000Z</time>
      </trkpt>
      <trkpt lat="44.14082" lon="6.10163">
        <ele>1037</ele>
        <time>2022-03-03T09:48:36.000Z</time>
      </trkpt>
      <trkpt lat="44.14082" lon="6.10163">
        <ele>1037</ele>
        <time>2022-03-03T09:48:37.000Z</time>
      </trkpt>
      <trkpt lat="44.14082" lon="6.10163">
        <ele>1037</ele>
        <time>2022-03-03T09:48:38.000Z</time>
      </trkpt>
      <trkpt lat="44.14082" lon="6.10163">
        <ele>1037</ele>
        <time>2022-03-03T09:48:39.000Z</time>
      </trkpt>
      <trkpt lat="44.14082" lon="6.10163">
        <ele>1037</ele>
        <time>2022-03-03T09:48:40.000Z</time>
      </trkpt>
      <trkpt lat="44.14082" lon="6.10163">
        <ele>1037</ele>
        <time>2022-03-03T09:48:41.000Z</time>
      </trkpt>
      <trkpt lat="44.14082" lon="6.10163">
        <ele>1037</ele>
        <time>2022-03-03T09:48:42.000Z</time>
      </trkpt>
      <trkpt lat="44.14082" lon="6.10163">
        <ele>1037</ele>
        <time>2022-03-03T09:48:43.000Z</time>
      </trkpt>
      <trkpt lat="44.14082" lon="6.10163">
        <ele>1037</ele>
        <time>2022-03-03T09:48:44.000Z</time>
      </trkpt>
      <trkpt lat="44.14082" lon="6.10163">
        <ele>1037</ele>
        <time>2022-03-03T09:48:45.000Z</time>
      </trkpt>
      <trkpt lat="44.14082" lon="6.10163">
        <ele>1037</ele>
        <time>2022-03-03T09:48:46.000Z</time>
      </trkpt>
      <trkpt lat="44.14082" lon="6.10163">
        <ele>1037</ele>
        <time>2022-03-03T09:48:47.000Z</time>
      </trkpt>
      <trkpt lat="44.14082" lon="6.10163">
        <ele>1037</ele>
        <time>2022-03-03T09:48:48.000Z</time>
      </trkpt>
      <trkpt lat="44.14082" lon="6.10163">
        <ele>1037</ele>
        <time>2022-03-03T09:48:49.000Z</time>
      </trkpt>
      <trkpt lat="44.14082" lon="6.10163">
        <ele>1037</ele>
        <time>2022-03-03T09:48:50.000Z</time>
      </trkpt>
      <trkpt lat="44.14082" lon="6.10163">
        <ele>1037</ele>
        <time>2022-03-03T09:48:51.000Z</time>
      </trkpt>
      <trkpt lat="44.14082" lon="6.10163">
        <ele>1037</ele>
        <time>2022-03-03T09:48:52.000Z</time>
      </trkpt>
      <trkpt lat="44.14082" lon="6.10163">
        <ele>1037</ele>
        <time>2022-03-03T09:48:53.000Z</time>
      </trkpt>
      <trkpt lat="44.14082" lon="6.10163">
        <ele>1037</ele>
        <time>2022-03-03T09:48:54.000Z</time>
      </trkpt>
      <trkpt lat="44.14082" lon="6.10163">
        <ele>1037</ele>
        <time>2022-03-03T09:48:55.000Z</time>
      </trkpt>
      <trkpt lat="44.14082" lon="6.10162">
        <ele>1037</ele>
        <time>2022-03-03T09:48:56.000Z</time>
      </trkpt>
      <trkpt lat="44.14083" lon="6.10161">
        <ele>1037</ele>
        <time>2022-03-03T09:48:57.000Z</time>
      </trkpt>
      <trkpt lat="44.14083" lon="6.1016">
        <ele>1037</ele>
        <time>2022-03-03T09:48:58.000Z</time>
      </trkpt>
      <trkpt lat="44.14084" lon="6.1016">
        <ele>1037</ele>
        <time>2022-03-03T09:48:59.000Z</time>
      </trkpt>
      <trkpt lat="44.14085" lon="6.10159">
        <ele>1037</ele>
        <time>2022-03-03T09:49:00.000Z</time>
      </trkpt>
      <trkpt lat="44.14085" lon="6.10158">
        <ele>1037</ele>
        <time>2022-03-03T09:49:01.000Z</time>
      </trkpt>
      <trkpt lat="44.14086" lon="6.10157">
        <ele>1037</ele>
        <time>2022-03-03T09:49:02.000Z</time>
      </trkpt>
      <trkpt lat="44.14086" lon="6.10156">
        <ele>1037</ele>
        <time>2022-03-03T09:49:03.000Z</time>
      </trkpt>
      <trkpt lat="44.14087" lon="6.10156">
        <ele>1037</ele>
        <time>2022-03-03T09:49:04.000Z</time>
      </trkpt>
      <trkpt lat="44.14087" lon="6.10155">
        <ele>1037</ele>
        <time>2022-03-03T09:49:05.000Z</time>
      </trkpt>
      <trkpt lat="44.14088" lon="6.10154">
        <ele>1037</ele>
        <time>2022-03-03T09:49:06.000Z</time>
      </trkpt>
      <trkpt lat="44.14088" lon="6.10153">
        <ele>1037</ele>
        <time>2022-03-03T09:49:07.000Z</time>
      </trkpt>
      <trkpt lat="44.14088" lon="6.10153">
        <ele>1037</ele>
        <time>2022-03-03T09:49:08.000Z</time>
      </trkpt>
      <trkpt lat="44.14088" lon="6.10153">
        <ele>1037</ele>
        <time>2022-03-03T09:49:09.000Z</time>
      </trkpt>
      <trkpt lat="44.14088" lon="6.10153">
        <ele>1037</ele>
        <time>2022-03-03T09:49:10.000Z</time>
      </trkpt>
      <trkpt lat="44.14089" lon="6.10152">
        <ele>1037</ele>
        <time>2022-03-03T09:49:11.000Z</time>
      </trkpt>
      <trkpt lat="44.14089" lon="6.10152">
        <ele>1037</ele>
        <time>2022-03-03T09:49:12.000Z</time>
      </trkpt>
      <trkpt lat="44.1409" lon="6.10151">
        <ele>1037</ele>
        <time>2022-03-03T09:49:13.000Z</time>
      </trkpt>
      <trkpt lat="44.1409" lon="6.1015">
        <ele>1037</ele>
        <time>2022-03-03T09:49:14.000Z</time>
      </trkpt>
      <trkpt lat="44.14091" lon="6.1015">
        <ele>1037</ele>
        <time>2022-03-03T09:49:15.000Z</time>
      </trkpt>
      <trkpt lat="44.14092" lon="6.10149">
        <ele>1037</ele>
        <time>2022-03-03T09:49:16.000Z</time>
      </trkpt>
      <trkpt lat="44.14092" lon="6.10148">
        <ele>1037</ele>
        <time>2022-03-03T09:49:17.000Z</time>
      </trkpt>
      <trkpt lat="44.14093" lon="6.10147">
        <ele>1037</ele>
        <time>2022-03-03T09:49:18.000Z</time>
      </trkpt>
      <trkpt lat="44.14094" lon="6.10146">
        <ele>1037</ele>
        <time>2022-03-03T09:49:19.000Z</time>
      </trkpt>
      <trkpt lat="44.14094" lon="6.10145">
        <ele>1037</ele>
        <time>2022-03-03T09:49:20.000Z</time>
      </trkpt>
      <trkpt lat="44.14095" lon="6.10144">
        <ele>1037</ele>
        <time>2022-03-03T09:49:21.000Z</time>
      </trkpt>
      <trkpt lat="44.14096" lon="6.10143">
        <ele>1037</ele>
        <time>2022-03-03T09:49:22.000Z</time>
      </trkpt>
      <trkpt lat="44.14096" lon="6.10142">
        <ele>1038</ele>
        <time>2022-03-03T09:49:23.000Z</time>
      </trkpt>
      <trkpt lat="44.14097" lon="6.10141">
        <ele>1038</ele>
        <time>2022-03-03T09:49:24.000Z</time>
      </trkpt>
      <trkpt lat="44.14098" lon="6.1014">
        <ele>1038</ele>
        <time>2022-03-03T09:49:25.000Z</time>
      </trkpt>
      <trkpt lat="44.14098" lon="6.10139">
        <ele>1038</ele>
        <time>2022-03-03T09:49:26.000Z</time>
      </trkpt>
      <trkpt lat="44.14099" lon="6.10138">
        <ele>1038</ele>
        <time>2022-03-03T09:49:27.000Z</time>
      </trkpt>
      <trkpt lat="44.141" lon="6.10137">
        <ele>1038</ele>
        <time>2022-03-03T09:49:28.000Z</time>
      </trkpt>
      <trkpt lat="44.141" lon="6.10136">
        <ele>1038</ele>
        <time>2022-03-03T09:49:29.000Z</time>
      </trkpt>
      <trkpt lat="44.14101" lon="6.10135">
        <ele>1038</ele>
        <time>2022-03-03T09:49:30.000Z</time>
      </trkpt>
      <trkpt lat="44.14102" lon="6.10134">
        <ele>1038</ele>
        <time>2022-03-03T09:49:31.000Z</time>
      </trkpt>
      <trkpt lat="44.14102" lon="6.10133">
        <ele>1038</ele>
        <time>2022-03-03T09:49:32.000Z</time>
      </trkpt>
      <trkpt lat="44.14103" lon="6.10131">
        <ele>1038</ele>
        <time>2022-03-03T09:49:33.000Z</time>
      </trkpt>
      <trkpt lat="44.14104" lon="6.1013">
        <ele>1038</ele>
        <time>2022-03-03T09:49:34.000Z</time>
      </trkpt>
      <trkpt lat="44.14104" lon="6.10129">
        <ele>1038</ele>
        <time>2022-03-03T09:49:35.000Z</time>
      </trkpt>
      <trkpt lat="44.14105" lon="6.10128">
        <ele>1038</ele>
        <time>2022-03-03T09:49:36.000Z</time>
      </trkpt>
      <trkpt lat="44.14106" lon="6.10127">
        <ele>1038</ele>
        <time>2022-03-03T09:49:37.000Z</time>
      </trkpt>
      <trkpt lat="44.14106" lon="6.10126">
        <ele>1038</ele>
        <time>2022-03-03T09:49:38.000Z</time>
      </trkpt>
      <trkpt lat="44.14107" lon="6.10125">
        <ele>1038</ele>
        <time>2022-03-03T09:49:39.000Z</time>
      </trkpt>
      <trkpt lat="44.14107" lon="6.10124">
        <ele>1038</ele>
        <time>2022-03-03T09:49:40.000Z</time>
      </trkpt>
      <trkpt lat="44.14108" lon="6.10123">
        <ele>1038</ele>
        <time>2022-03-03T09:49:41.000Z</time>
      </trkpt>
      <trkpt lat="44.14109" lon="6.10122">
        <ele>1038</ele>
        <time>2022-03-03T09:49:42.000Z</time>
      </trkpt>
      <trkpt lat="44.14109" lon="6.10121">
        <ele>1038</ele>
        <time>2022-03-03T09:49:43.000Z</time>
      </trkpt>
      <trkpt lat="44.1411" lon="6.1012">
        <ele>1038</ele>
        <time>2022-03-03T09:49:44.000Z</time>
      </trkpt>
      <trkpt lat="44.14111" lon="6.10119">
        <ele>1038</ele>
        <time>2022-03-03T09:49:45.000Z</time>
      </trkpt>
      <trkpt lat="44.14111" lon="6.10118">
        <ele>1038</ele>
        <time>2022-03-03T09:49:46.000Z</time>
      </trkpt>
      <trkpt lat="44.14112" lon="6.10117">
        <ele>1038</ele>
        <time>2022-03-03T09:49:47.000Z</time>
      </trkpt>
      <trkpt lat="44.14113" lon="6.10116">
        <ele>1038</ele>
        <time>2022-03-03T09:49:48.000Z</time>
      </trkpt>
      <trkpt lat="44.14113" lon="6.10115">
        <ele>1038</ele>
        <time>2022-03-03T09:49:49.000Z</time>
      </trkpt>
      <trkpt lat="44.14114" lon="6.10114">
        <ele>1038</ele>
        <time>2022-03-03T09:49:50.000Z</time>
      </trkpt>
      <trkpt lat="44.14115" lon="6.10113">
        <ele>1038</ele>
        <time>2022-03-03T09:49:51.000Z</time>
      </trkpt>
      <trkpt lat="44.14115" lon="6.10112">
        <ele>1038</ele>
        <time>2022-03-03T09:49:52.000Z</time>
      </trkpt>
      <trkpt lat="44.14116" lon="6.10111">
        <ele>1038</ele>
        <time>2022-03-03T09:49:53.000Z</time>
      </trkpt>
      <trkpt lat="44.14117" lon="6.1011">
        <ele>1038</ele>
        <time>2022-03-03T09:49:54.000Z</time>
      </trkpt>
      <trkpt lat="44.14117" lon="6.10109">
        <ele>1038</ele>
        <time>2022-03-03T09:49:55.000Z</time>
      </trkpt>
      <trkpt lat="44.14118" lon="6.10108">
        <ele>1038</ele>
        <time>2022-03-03T09:49:56.000Z</time>
      </trkpt>
      <trkpt lat="44.14119" lon="6.10107">
        <ele>1038</ele>
        <time>2022-03-03T09:49:57.000Z</time>
      </trkpt>
      <trkpt lat="44.14119" lon="6.10106">
        <ele>1038</ele>
        <time>2022-03-03T09:49:58.000Z</time>
      </trkpt>
      <trkpt lat="44.1412" lon="6.10105">
        <ele>1038</ele>
        <time>2022-03-03T09:49:59.000Z</time>
      </trkpt>
      <trkpt lat="44.1412" lon="6.10104">
        <ele>1038</ele>
        <time>2022-03-03T09:50:00.000Z</time>
      </trkpt>
      <trkpt lat="44.14121" lon="6.10103">
        <ele>1038</ele>
        <time>2022-03-03T09:50:01.000Z</time>
      </trkpt>
      <trkpt lat="44.14122" lon="6.10101">
        <ele>1038</ele>
        <time>2022-03-03T09:50:02.000Z</time>
      </trkpt>
      <trkpt lat="44.14123" lon="6.10101">
        <ele>1038</ele>
        <time>2022-03-03T09:50:03.000Z</time>
      </trkpt>
      <trkpt lat="44.14123" lon="6.10099">
        <ele>1038</ele>
        <time>2022-03-03T09:50:04.000Z</time>
      </trkpt>
      <trkpt lat="44.14124" lon="6.10098">
        <ele>1038</ele>
        <time>2022-03-03T09:50:05.000Z</time>
      </trkpt>
      <trkpt lat="44.14125" lon="6.10097">
        <ele>1038</ele>
        <time>2022-03-03T09:50:06.000Z</time>
      </trkpt>
      <trkpt lat="44.14126" lon="6.10096">
        <ele>1038</ele>
        <time>2022-03-03T09:50:07.000Z</time>
      </trkpt>
      <trkpt lat="44.14126" lon="6.10095">
        <ele>1038</ele>
        <time>2022-03-03T09:50:08.000Z</time>
      </trkpt>
      <trkpt lat="44.14127" lon="6.10094">
        <ele>1038</ele>
        <time>2022-03-03T09:50:09.000Z</time>
      </trkpt>
      <trkpt lat="44.14127" lon="6.10093">
        <ele>1038</ele>
        <time>2022-03-03T09:50:10.000Z</time>
      </trkpt>
      <trkpt lat="44.14128" lon="6.10092">
        <ele>1038</ele>
        <time>2022-03-03T09:50:11.000Z</time>
      </trkpt>
      <trkpt lat="44.14129" lon="6.1009">
        <ele>1038</ele>
        <time>2022-03-03T09:50:12.000Z</time>
      </trkpt>
      <trkpt lat="44.14129" lon="6.10089">
        <ele>1038</ele>
        <time>2022-03-03T09:50:13.000Z</time>
      </trkpt>
      <trkpt lat="44.1413" lon="6.10088">
        <ele>1038</ele>
        <time>2022-03-03T09:50:14.000Z</time>
      </trkpt>
      <trkpt lat="44.1413" lon="6.10087">
        <ele>1038</ele>
        <time>2022-03-03T09:50:15.000Z</time>
      </trkpt>
      <trkpt lat="44.14131" lon="6.10086">
        <ele>1038</ele>
        <time>2022-03-03T09:50:16.000Z</time>
      </trkpt>
      <trkpt lat="44.14131" lon="6.10085">
        <ele>1039</ele>
        <time>2022-03-03T09:50:17.000Z</time>
      </trkpt>
      <trkpt lat="44.14132" lon="6.10083">
        <ele>1039</ele>
        <time>2022-03-03T09:50:18.000Z</time>
      </trkpt>
      <trkpt lat="44.14132" lon="6.10083">
        <ele>1039</ele>
        <time>2022-03-03T09:50:19.000Z</time>
      </trkpt>
      <trkpt lat="44.14133" lon="6.10082">
        <ele>1039</ele>
        <time>2022-03-03T09:50:20.000Z</time>
      </trkpt>
      <trkpt lat="44.14134" lon="6.1008">
        <ele>1039</ele>
        <time>2022-03-03T09:50:21.000Z</time>
      </trkpt>
      <trkpt lat="44.14134" lon="6.1008">
        <ele>1039</ele>
        <time>2022-03-03T09:50:22.000Z</time>
      </trkpt>
      <trkpt lat="44.14135" lon="6.10079">
        <ele>1039</ele>
        <time>2022-03-03T09:50:23.000Z</time>
      </trkpt>
      <trkpt lat="44.14136" lon="6.10078">
        <ele>1039</ele>
        <time>2022-03-03T09:50:24.000Z</time>
      </trkpt>
      <trkpt lat="44.14136" lon="6.10077">
        <ele>1039</ele>
        <time>2022-03-03T09:50:25.000Z</time>
      </trkpt>
      <trkpt lat="44.14137" lon="6.10075">
        <ele>1039</ele>
        <time>2022-03-03T09:50:26.000Z</time>
      </trkpt>
      <trkpt lat="44.14138" lon="6.10074">
        <ele>1039</ele>
        <time>2022-03-03T09:50:27.000Z</time>
      </trkpt>
      <trkpt lat="44.14138" lon="6.10073">
        <ele>1039</ele>
        <time>2022-03-03T09:50:28.000Z</time>
      </trkpt>
      <trkpt lat="44.14139" lon="6.10072">
        <ele>1039</ele>
        <time>2022-03-03T09:50:29.000Z</time>
      </trkpt>
      <trkpt lat="44.14139" lon="6.10071">
        <ele>1039</ele>
        <time>2022-03-03T09:50:30.000Z</time>
      </trkpt>
      <trkpt lat="44.1414" lon="6.1007">
        <ele>1039</ele>
        <time>2022-03-03T09:50:31.000Z</time>
      </trkpt>
      <trkpt lat="44.14141" lon="6.10069">
        <ele>1039</ele>
        <time>2022-03-03T09:50:32.000Z</time>
      </trkpt>
      <trkpt lat="44.14141" lon="6.10068">
        <ele>1039</ele>
        <time>2022-03-03T09:50:33.000Z</time>
      </trkpt>
      <trkpt lat="44.14142" lon="6.10067">
        <ele>1039</ele>
        <time>2022-03-03T09:50:34.000Z</time>
      </trkpt>
      <trkpt lat="44.14142" lon="6.10066">
        <ele>1039</ele>
        <time>2022-03-03T09:50:35.000Z</time>
      </trkpt>
      <trkpt lat="44.14143" lon="6.10065">
        <ele>1040</ele>
        <time>2022-03-03T09:50:36.000Z</time>
      </trkpt>
      <trkpt lat="44.14144" lon="6.10063">
        <ele>1040</ele>
        <time>2022-03-03T09:50:37.000Z</time>
      </trkpt>
      <trkpt lat="44.14144" lon="6.10062">
        <ele>1040</ele>
        <time>2022-03-03T09:50:38.000Z</time>
      </trkpt>
      <trkpt lat="44.14145" lon="6.10061">
        <ele>1040</ele>
        <time>2022-03-03T09:50:39.000Z</time>
      </trkpt>
      <trkpt lat="44.14146" lon="6.1006">
        <ele>1040</ele>
        <time>2022-03-03T09:50:40.000Z</time>
      </trkpt>
      <trkpt lat="44.14146" lon="6.10059">
        <ele>1040</ele>
        <time>2022-03-03T09:50:41.000Z</time>
      </trkpt>
      <trkpt lat="44.14147" lon="6.10057">
        <ele>1040</ele>
        <time>2022-03-03T09:50:42.000Z</time>
      </trkpt>
      <trkpt lat="44.14148" lon="6.10056">
        <ele>1040</ele>
        <time>2022-03-03T09:50:43.000Z</time>
      </trkpt>
      <trkpt lat="44.14148" lon="6.10055">
        <ele>1040</ele>
        <time>2022-03-03T09:50:44.000Z</time>
      </trkpt>
      <trkpt lat="44.14149" lon="6.10054">
        <ele>1040</ele>
        <time>2022-03-03T09:50:45.000Z</time>
      </trkpt>
      <trkpt lat="44.1415" lon="6.10053">
        <ele>1040</ele>
        <time>2022-03-03T09:50:46.000Z</time>
      </trkpt>
      <trkpt lat="44.1415" lon="6.10052">
        <ele>1040</ele>
        <time>2022-03-03T09:50:47.000Z</time>
      </trkpt>
      <trkpt lat="44.14151" lon="6.10051">
        <ele>1041</ele>
        <time>2022-03-03T09:50:48.000Z</time>
      </trkpt>
      <trkpt lat="44.14152" lon="6.1005">
        <ele>1041</ele>
        <time>2022-03-03T09:50:49.000Z</time>
      </trkpt>
      <trkpt lat="44.14152" lon="6.10049">
        <ele>1041</ele>
        <time>2022-03-03T09:50:50.000Z</time>
      </trkpt>
      <trkpt lat="44.14153" lon="6.10048">
        <ele>1041</ele>
        <time>2022-03-03T09:50:51.000Z</time>
      </trkpt>
      <trkpt lat="44.14153" lon="6.10046">
        <ele>1041</ele>
        <time>2022-03-03T09:50:52.000Z</time>
      </trkpt>
      <trkpt lat="44.14154" lon="6.10046">
        <ele>1041</ele>
        <time>2022-03-03T09:50:53.000Z</time>
      </trkpt>
      <trkpt lat="44.14155" lon="6.10045">
        <ele>1041</ele>
        <time>2022-03-03T09:50:54.000Z</time>
      </trkpt>
      <trkpt lat="44.14155" lon="6.10044">
        <ele>1041</ele>
        <time>2022-03-03T09:50:55.000Z</time>
      </trkpt>
      <trkpt lat="44.14156" lon="6.10043">
        <ele>1041</ele>
        <time>2022-03-03T09:50:56.000Z</time>
      </trkpt>
      <trkpt lat="44.14156" lon="6.10042">
        <ele>1041</ele>
        <time>2022-03-03T09:50:57.000Z</time>
      </trkpt>
      <trkpt lat="44.14157" lon="6.1004">
        <ele>1042</ele>
        <time>2022-03-03T09:50:58.000Z</time>
      </trkpt>
      <trkpt lat="44.14158" lon="6.10039">
        <ele>1042</ele>
        <time>2022-03-03T09:50:59.000Z</time>
      </trkpt>
      <trkpt lat="44.14159" lon="6.10038">
        <ele>1042</ele>
        <time>2022-03-03T09:51:00.000Z</time>
      </trkpt>
      <trkpt lat="44.14159" lon="6.10038">
        <ele>1042</ele>
        <time>2022-03-03T09:51:01.000Z</time>
      </trkpt>
      <trkpt lat="44.1416" lon="6.10037">
        <ele>1042</ele>
        <time>2022-03-03T09:51:02.000Z</time>
      </trkpt>
      <trkpt lat="44.14161" lon="6.10036">
        <ele>1042</ele>
        <time>2022-03-03T09:51:03.000Z</time>
      </trkpt>
      <trkpt lat="44.14161" lon="6.10035">
        <ele>1042</ele>
        <time>2022-03-03T09:51:04.000Z</time>
      </trkpt>
      <trkpt lat="44.14162" lon="6.10034">
        <ele>1043</ele>
        <time>2022-03-03T09:51:05.000Z</time>
      </trkpt>
      <trkpt lat="44.14163" lon="6.10033">
        <ele>1043</ele>
        <time>2022-03-03T09:51:06.000Z</time>
      </trkpt>
      <trkpt lat="44.14163" lon="6.10032">
        <ele>1043</ele>
        <time>2022-03-03T09:51:07.000Z</time>
      </trkpt>
      <trkpt lat="44.14164" lon="6.10031">
        <ele>1043</ele>
        <time>2022-03-03T09:51:08.000Z</time>
      </trkpt>
      <trkpt lat="44.14164" lon="6.1003">
        <ele>1043</ele>
        <time>2022-03-03T09:51:09.000Z</time>
      </trkpt>
      <trkpt lat="44.14165" lon="6.10029">
        <ele>1043</ele>
        <time>2022-03-03T09:51:10.000Z</time>
      </trkpt>
      <trkpt lat="44.14166" lon="6.10028">
        <ele>1044</ele>
        <time>2022-03-03T09:51:11.000Z</time>
      </trkpt>
      <trkpt lat="44.14166" lon="6.10027">
        <ele>1044</ele>
        <time>2022-03-03T09:51:12.000Z</time>
      </trkpt>
      <trkpt lat="44.14167" lon="6.10025">
        <ele>1044</ele>
        <time>2022-03-03T09:51:13.000Z</time>
      </trkpt>
      <trkpt lat="44.14167" lon="6.10024">
        <ele>1044</ele>
        <time>2022-03-03T09:51:14.000Z</time>
      </trkpt>
      <trkpt lat="44.14168" lon="6.10023">
        <ele>1044</ele>
        <time>2022-03-03T09:51:15.000Z</time>
      </trkpt>
      <trkpt lat="44.14168" lon="6.10022">
        <ele>1044</ele>
        <time>2022-03-03T09:51:16.000Z</time>
      </trkpt>
      <trkpt lat="44.14169" lon="6.10021">
        <ele>1044</ele>
        <time>2022-03-03T09:51:17.000Z</time>
      </trkpt>
      <trkpt lat="44.14169" lon="6.1002">
        <ele>1045</ele>
        <time>2022-03-03T09:51:18.000Z</time>
      </trkpt>
      <trkpt lat="44.1417" lon="6.10018">
        <ele>1045</ele>
        <time>2022-03-03T09:51:19.000Z</time>
      </trkpt>
      <trkpt lat="44.1417" lon="6.10017">
        <ele>1045</ele>
        <time>2022-03-03T09:51:20.000Z</time>
      </trkpt>
      <trkpt lat="44.14171" lon="6.10016">
        <ele>1045</ele>
        <time>2022-03-03T09:51:21.000Z</time>
      </trkpt>
      <trkpt lat="44.14171" lon="6.10015">
        <ele>1045</ele>
        <time>2022-03-03T09:51:22.000Z</time>
      </trkpt>
      <trkpt lat="44.14172" lon="6.10013">
        <ele>1045</ele>
        <time>2022-03-03T09:51:23.000Z</time>
      </trkpt>
      <trkpt lat="44.14172" lon="6.10012">
        <ele>1045</ele>
        <time>2022-03-03T09:51:24.000Z</time>
      </trkpt>
      <trkpt lat="44.14173" lon="6.10011">
        <ele>1045</ele>
        <time>2022-03-03T09:51:25.000Z</time>
      </trkpt>
      <trkpt lat="44.14173" lon="6.1001">
        <ele>1046</ele>
        <time>2022-03-03T09:51:26.000Z</time>
      </trkpt>
      <trkpt lat="44.14174" lon="6.10009">
        <ele>1046</ele>
        <time>2022-03-03T09:51:27.000Z</time>
      </trkpt>
      <trkpt lat="44.14175" lon="6.10008">
        <ele>1046</ele>
        <time>2022-03-03T09:51:28.000Z</time>
      </trkpt>
      <trkpt lat="44.14175" lon="6.10006">
        <ele>1046</ele>
        <time>2022-03-03T09:51:29.000Z</time>
      </trkpt>
      <trkpt lat="44.14176" lon="6.10005">
        <ele>1046</ele>
        <time>2022-03-03T09:51:30.000Z</time>
      </trkpt>
      <trkpt lat="44.14176" lon="6.10005">
        <ele>1046</ele>
        <time>2022-03-03T09:51:31.000Z</time>
      </trkpt>
      <trkpt lat="44.14177" lon="6.10004">
        <ele>1047</ele>
        <time>2022-03-03T09:51:32.000Z</time>
      </trkpt>
      <trkpt lat="44.14178" lon="6.10003">
        <ele>1047</ele>
        <time>2022-03-03T09:51:33.000Z</time>
      </trkpt>
      <trkpt lat="44.14179" lon="6.10002">
        <ele>1047</ele>
        <time>2022-03-03T09:51:34.000Z</time>
      </trkpt>
      <trkpt lat="44.1418" lon="6.10002">
        <ele>1047</ele>
        <time>2022-03-03T09:51:35.000Z</time>
      </trkpt>
      <trkpt lat="44.1418" lon="6.10001">
        <ele>1047</ele>
        <time>2022-03-03T09:51:36.000Z</time>
      </trkpt>
      <trkpt lat="44.14181" lon="6.1">
        <ele>1047</ele>
        <time>2022-03-03T09:51:37.000Z</time>
      </trkpt>
      <trkpt lat="44.14182" lon="6.09999">
        <ele>1047</ele>
        <time>2022-03-03T09:51:38.000Z</time>
      </trkpt>
      <trkpt lat="44.14182" lon="6.09998">
        <ele>1048</ele>
        <time>2022-03-03T09:51:39.000Z</time>
      </trkpt>
      <trkpt lat="44.14183" lon="6.09997">
        <ele>1048</ele>
        <time>2022-03-03T09:51:40.000Z</time>
      </trkpt>
      <trkpt lat="44.14184" lon="6.09996">
        <ele>1048</ele>
        <time>2022-03-03T09:51:41.000Z</time>
      </trkpt>
      <trkpt lat="44.14184" lon="6.09995">
        <ele>1048</ele>
        <time>2022-03-03T09:51:42.000Z</time>
      </trkpt>
      <trkpt lat="44.14185" lon="6.09994">
        <ele>1048</ele>
        <time>2022-03-03T09:51:43.000Z</time>
      </trkpt>
      <trkpt lat="44.14186" lon="6.09993">
        <ele>1048</ele>
        <time>2022-03-03T09:51:44.000Z</time>
      </trkpt>
      <trkpt lat="44.14187" lon="6.09992">
        <ele>1048</ele>
        <time>2022-03-03T09:51:45.000Z</time>
      </trkpt>
      <trkpt lat="44.14188" lon="6.0999">
        <ele>1048</ele>
        <time>2022-03-03T09:51:46.000Z</time>
      </trkpt>
      <trkpt lat="44.14189" lon="6.0999">
        <ele>1048</ele>
        <time>2022-03-03T09:51:47.000Z</time>
      </trkpt>
      <trkpt lat="44.1419" lon="6.09989">
        <ele>1048</ele>
        <time>2022-03-03T09:51:48.000Z</time>
      </trkpt>
      <trkpt lat="44.14191" lon="6.09989">
        <ele>1048</ele>
        <time>2022-03-03T09:51:49.000Z</time>
      </trkpt>
      <trkpt lat="44.14192" lon="6.09988">
        <ele>1048</ele>
        <time>2022-03-03T09:51:50.000Z</time>
      </trkpt>
      <trkpt lat="44.14193" lon="6.09987">
        <ele>1048</ele>
        <time>2022-03-03T09:51:51.000Z</time>
      </trkpt>
      <trkpt lat="44.14194" lon="6.09987">
        <ele>1048</ele>
        <time>2022-03-03T09:51:52.000Z</time>
      </trkpt>
      <trkpt lat="44.14195" lon="6.09987">
        <ele>1048</ele>
        <time>2022-03-03T09:51:53.000Z</time>
      </trkpt>
      <trkpt lat="44.14196" lon="6.09986">
        <ele>1048</ele>
        <time>2022-03-03T09:51:54.000Z</time>
      </trkpt>
      <trkpt lat="44.14197" lon="6.09986">
        <ele>1049</ele>
        <time>2022-03-03T09:51:55.000Z</time>
      </trkpt>
      <trkpt lat="44.14198" lon="6.09985">
        <ele>1049</ele>
        <time>2022-03-03T09:51:56.000Z</time>
      </trkpt>
      <trkpt lat="44.14198" lon="6.09984">
        <ele>1049</ele>
        <time>2022-03-03T09:51:57.000Z</time>
      </trkpt>
      <trkpt lat="44.14199" lon="6.09984">
        <ele>1049</ele>
        <time>2022-03-03T09:51:58.000Z</time>
      </trkpt>
      <trkpt lat="44.142" lon="6.09983">
        <ele>1049</ele>
        <time>2022-03-03T09:51:59.000Z</time>
      </trkpt>
      <trkpt lat="44.14201" lon="6.09983">
        <ele>1049</ele>
        <time>2022-03-03T09:52:00.000Z</time>
      </trkpt>
      <trkpt lat="44.14201" lon="6.09982">
        <ele>1049</ele>
        <time>2022-03-03T09:52:01.000Z</time>
      </trkpt>
      <trkpt lat="44.14202" lon="6.09982">
        <ele>1049</ele>
        <time>2022-03-03T09:52:02.000Z</time>
      </trkpt>
      <trkpt lat="44.14203" lon="6.09981">
        <ele>1050</ele>
        <time>2022-03-03T09:52:03.000Z</time>
      </trkpt>
      <trkpt lat="44.14204" lon="6.09981">
        <ele>1050</ele>
        <time>2022-03-03T09:52:04.000Z</time>
      </trkpt>
      <trkpt lat="44.14205" lon="6.09981">
        <ele>1050</ele>
        <time>2022-03-03T09:52:05.000Z</time>
      </trkpt>
      <trkpt lat="44.14206" lon="6.0998">
        <ele>1050</ele>
        <time>2022-03-03T09:52:06.000Z</time>
      </trkpt>
      <trkpt lat="44.14206" lon="6.0998">
        <ele>1050</ele>
        <time>2022-03-03T09:52:07.000Z</time>
      </trkpt>
      <trkpt lat="44.14207" lon="6.0998">
        <ele>1050</ele>
        <time>2022-03-03T09:52:08.000Z</time>
      </trkpt>
      <trkpt lat="44.14208" lon="6.09979">
        <ele>1050</ele>
        <time>2022-03-03T09:52:09.000Z</time>
      </trkpt>
      <trkpt lat="44.14209" lon="6.09979">
        <ele>1050</ele>
        <time>2022-03-03T09:52:10.000Z</time>
      </trkpt>
      <trkpt lat="44.1421" lon="6.09979">
        <ele>1050</ele>
        <time>2022-03-03T09:52:11.000Z</time>
      </trkpt>
      <trkpt lat="44.14211" lon="6.09979">
        <ele>1050</ele>
        <time>2022-03-03T09:52:12.000Z</time>
      </trkpt>
      <trkpt lat="44.14211" lon="6.09979">
        <ele>1051</ele>
        <time>2022-03-03T09:52:13.000Z</time>
      </trkpt>
      <trkpt lat="44.14212" lon="6.09979">
        <ele>1051</ele>
        <time>2022-03-03T09:52:14.000Z</time>
      </trkpt>
      <trkpt lat="44.14213" lon="6.09979">
        <ele>1051</ele>
        <time>2022-03-03T09:52:15.000Z</time>
      </trkpt>
      <trkpt lat="44.14214" lon="6.09978">
        <ele>1051</ele>
        <time>2022-03-03T09:52:16.000Z</time>
      </trkpt>
      <trkpt lat="44.14215" lon="6.09978">
        <ele>1051</ele>
        <time>2022-03-03T09:52:17.000Z</time>
      </trkpt>
      <trkpt lat="44.14215" lon="6.09978">
        <ele>1051</ele>
        <time>2022-03-03T09:52:18.000Z</time>
      </trkpt>
      <trkpt lat="44.14216" lon="6.09977">
        <ele>1051</ele>
        <time>2022-03-03T09:52:19.000Z</time>
      </trkpt>
      <trkpt lat="44.14216" lon="6.09977">
        <ele>1051</ele>
        <time>2022-03-03T09:52:20.000Z</time>
      </trkpt>
      <trkpt lat="44.14217" lon="6.09976">
        <ele>1051</ele>
        <time>2022-03-03T09:52:21.000Z</time>
      </trkpt>
      <trkpt lat="44.14218" lon="6.09975">
        <ele>1052</ele>
        <time>2022-03-03T09:52:22.000Z</time>
      </trkpt>
      <trkpt lat="44.14218" lon="6.09975">
        <ele>1052</ele>
        <time>2022-03-03T09:52:23.000Z</time>
      </trkpt>
      <trkpt lat="44.14219" lon="6.09974">
        <ele>1052</ele>
        <time>2022-03-03T09:52:24.000Z</time>
      </trkpt>
      <trkpt lat="44.1422" lon="6.09973">
        <ele>1052</ele>
        <time>2022-03-03T09:52:25.000Z</time>
      </trkpt>
      <trkpt lat="44.1422" lon="6.09973">
        <ele>1052</ele>
        <time>2022-03-03T09:52:26.000Z</time>
      </trkpt>
      <trkpt lat="44.14221" lon="6.09972">
        <ele>1053</ele>
        <time>2022-03-03T09:52:27.000Z</time>
      </trkpt>
      <trkpt lat="44.14221" lon="6.09971">
        <ele>1053</ele>
        <time>2022-03-03T09:52:28.000Z</time>
      </trkpt>
      <trkpt lat="44.14222" lon="6.0997">
        <ele>1053</ele>
        <time>2022-03-03T09:52:29.000Z</time>
      </trkpt>
      <trkpt lat="44.14223" lon="6.09969">
        <ele>1053</ele>
        <time>2022-03-03T09:52:30.000Z</time>
      </trkpt>
      <trkpt lat="44.14223" lon="6.09969">
        <ele>1053</ele>
        <time>2022-03-03T09:52:31.000Z</time>
      </trkpt>
      <trkpt lat="44.14224" lon="6.09968">
        <ele>1054</ele>
        <time>2022-03-03T09:52:32.000Z</time>
      </trkpt>
      <trkpt lat="44.14224" lon="6.09967">
        <ele>1054</ele>
        <time>2022-03-03T09:52:33.000Z</time>
      </trkpt>
      <trkpt lat="44.14225" lon="6.09967">
        <ele>1054</ele>
        <time>2022-03-03T09:52:34.000Z</time>
      </trkpt>
      <trkpt lat="44.14226" lon="6.09966">
        <ele>1054</ele>
        <time>2022-03-03T09:52:35.000Z</time>
      </trkpt>
      <trkpt lat="44.14226" lon="6.09965">
        <ele>1054</ele>
        <time>2022-03-03T09:52:36.000Z</time>
      </trkpt>
      <trkpt lat="44.14227" lon="6.09964">
        <ele>1054</ele>
        <time>2022-03-03T09:52:37.000Z</time>
      </trkpt>
      <trkpt lat="44.14227" lon="6.09964">
        <ele>1055</ele>
        <time>2022-03-03T09:52:38.000Z</time>
      </trkpt>
      <trkpt lat="44.14228" lon="6.09963">
        <ele>1055</ele>
        <time>2022-03-03T09:52:39.000Z</time>
      </trkpt>
      <trkpt lat="44.14229" lon="6.09962">
        <ele>1055</ele>
        <time>2022-03-03T09:52:40.000Z</time>
      </trkpt>
      <trkpt lat="44.14229" lon="6.09962">
        <ele>1055</ele>
        <time>2022-03-03T09:52:41.000Z</time>
      </trkpt>
      <trkpt lat="44.1423" lon="6.09961">
        <ele>1055</ele>
        <time>2022-03-03T09:52:42.000Z</time>
      </trkpt>
      <trkpt lat="44.1423" lon="6.09961">
        <ele>1055</ele>
        <time>2022-03-03T09:52:43.000Z</time>
      </trkpt>
      <trkpt lat="44.14231" lon="6.0996">
        <ele>1055</ele>
        <time>2022-03-03T09:52:44.000Z</time>
      </trkpt>
      <trkpt lat="44.14232" lon="6.09959">
        <ele>1055</ele>
        <time>2022-03-03T09:52:45.000Z</time>
      </trkpt>
      <trkpt lat="44.14232" lon="6.09959">
        <ele>1055</ele>
        <time>2022-03-03T09:52:46.000Z</time>
      </trkpt>
      <trkpt lat="44.14233" lon="6.09958">
        <ele>1056</ele>
        <time>2022-03-03T09:52:47.000Z</time>
      </trkpt>
      <trkpt lat="44.14234" lon="6.09957">
        <ele>1056</ele>
        <time>2022-03-03T09:52:48.000Z</time>
      </trkpt>
      <trkpt lat="44.14234" lon="6.09957">
        <ele>1056</ele>
        <time>2022-03-03T09:52:49.000Z</time>
      </trkpt>
      <trkpt lat="44.14235" lon="6.09956">
        <ele>1056</ele>
        <time>2022-03-03T09:52:50.000Z</time>
      </trkpt>
      <trkpt lat="44.14235" lon="6.09956">
        <ele>1056</ele>
        <time>2022-03-03T09:52:51.000Z</time>
      </trkpt>
      <trkpt lat="44.14236" lon="6.09955">
        <ele>1056</ele>
        <time>2022-03-03T09:52:52.000Z</time>
      </trkpt>
      <trkpt lat="44.14237" lon="6.09954">
        <ele>1056</ele>
        <time>2022-03-03T09:52:53.000Z</time>
      </trkpt>
      <trkpt lat="44.14237" lon="6.09954">
        <ele>1057</ele>
        <time>2022-03-03T09:52:54.000Z</time>
      </trkpt>
      <trkpt lat="44.14238" lon="6.09954">
        <ele>1057</ele>
        <time>2022-03-03T09:52:55.000Z</time>
      </trkpt>
      <trkpt lat="44.14238" lon="6.09954">
        <ele>1057</ele>
        <time>2022-03-03T09:52:56.000Z</time>
      </trkpt>
      <trkpt lat="44.14238" lon="6.09954">
        <ele>1057</ele>
        <time>2022-03-03T09:52:57.000Z</time>
      </trkpt>
      <trkpt lat="44.14238" lon="6.09954">
        <ele>1057</ele>
        <time>2022-03-03T09:52:58.000Z</time>
      </trkpt>
      <trkpt lat="44.14238" lon="6.09954">
        <ele>1057</ele>
        <time>2022-03-03T09:52:59.000Z</time>
      </trkpt>
      <trkpt lat="44.14238" lon="6.09954">
        <ele>1057</ele>
        <time>2022-03-03T09:53:00.000Z</time>
      </trkpt>
      <trkpt lat="44.14238" lon="6.09954">
        <ele>1057</ele>
        <time>2022-03-03T09:53:01.000Z</time>
      </trkpt>
      <trkpt lat="44.14238" lon="6.09954">
        <ele>1057</ele>
        <time>2022-03-03T09:53:02.000Z</time>
      </trkpt>
      <trkpt lat="44.14238" lon="6.09954">
        <ele>1057</ele>
        <time>2022-03-03T09:53:03.000Z</time>
      </trkpt>
      <trkpt lat="44.14238" lon="6.09954">
        <ele>1057</ele>
        <time>2022-03-03T09:53:04.000Z</time>
      </trkpt>
      <trkpt lat="44.14238" lon="6.09954">
        <ele>1057</ele>
        <time>2022-03-03T09:53:05.000Z</time>
      </trkpt>
      <trkpt lat="44.14238" lon="6.09953">
        <ele>1057</ele>
        <time>2022-03-03T09:53:06.000Z</time>
      </trkpt>
      <trkpt lat="44.14238" lon="6.09953">
        <ele>1057</ele>
        <time>2022-03-03T09:53:07.000Z</time>
      </trkpt>
      <trkpt lat="44.14238" lon="6.09953">
        <ele>1057</ele>
        <time>2022-03-03T09:53:08.000Z</time>
      </trkpt>
      <trkpt lat="44.14238" lon="6.09953">
        <ele>1057</ele>
        <time>2022-03-03T09:53:09.000Z</time>
      </trkpt>
      <trkpt lat="44.14238" lon="6.09953">
        <ele>1057</ele>
        <time>2022-03-03T09:53:10.000Z</time>
      </trkpt>
      <trkpt lat="44.14237" lon="6.09953">
        <ele>1057</ele>
        <time>2022-03-03T09:53:11.000Z</time>
      </trkpt>
      <trkpt lat="44.14237" lon="6.09953">
        <ele>1057</ele>
        <time>2022-03-03T09:53:12.000Z</time>
      </trkpt>
      <trkpt lat="44.14237" lon="6.09953">
        <ele>1057</ele>
        <time>2022-03-03T09:53:13.000Z</time>
      </trkpt>
      <trkpt lat="44.14237" lon="6.09953">
        <ele>1057</ele>
        <time>2022-03-03T09:53:14.000Z</time>
      </trkpt>
      <trkpt lat="44.14237" lon="6.09953">
        <ele>1057</ele>
        <time>2022-03-03T09:53:15.000Z</time>
      </trkpt>
      <trkpt lat="44.14237" lon="6.09953">
        <ele>1057</ele>
        <time>2022-03-03T09:53:16.000Z</time>
      </trkpt>
      <trkpt lat="44.14237" lon="6.09953">
        <ele>1057</ele>
        <time>2022-03-03T09:53:17.000Z</time>
      </trkpt>
      <trkpt lat="44.14237" lon="6.09953">
        <ele>1057</ele>
        <time>2022-03-03T09:53:18.000Z</time>
      </trkpt>
      <trkpt lat="44.14237" lon="6.09953">
        <ele>1057</ele>
        <time>2022-03-03T09:53:19.000Z</time>
      </trkpt>
      <trkpt lat="44.14237" lon="6.09953">
        <ele>1057</ele>
        <time>2022-03-03T09:53:20.000Z</time>
      </trkpt>
      <trkpt lat="44.14237" lon="6.09953">
        <ele>1057</ele>
        <time>2022-03-03T09:53:21.000Z</time>
      </trkpt>
      <trkpt lat="44.14237" lon="6.09953">
        <ele>1057</ele>
        <time>2022-03-03T09:53:22.000Z</time>
      </trkpt>
      <trkpt lat="44.14237" lon="6.09953">
        <ele>1057</ele>
        <time>2022-03-03T09:53:23.000Z</time>
      </trkpt>
      <trkpt lat="44.14237" lon="6.09953">
        <ele>1057</ele>
        <time>2022-03-03T09:53:24.000Z</time>
      </trkpt>
      <trkpt lat="44.14237" lon="6.09953">
        <ele>1057</ele>
        <time>2022-03-03T09:53:25.000Z</time>
      </trkpt>
      <trkpt lat="44.14237" lon="6.09953">
        <ele>1057</ele>
        <time>2022-03-03T09:53:26.000Z</time>
      </trkpt>
      <trkpt lat="44.14237" lon="6.09953">
        <ele>1057</ele>
        <time>2022-03-03T09:53:27.000Z</time>
      </trkpt>
      <trkpt lat="44.14237" lon="6.09953">
        <ele>1058</ele>
        <time>2022-03-03T09:53:28.000Z</time>
      </trkpt>
      <trkpt lat="44.14237" lon="6.09953">
        <ele>1058</ele>
        <time>2022-03-03T09:53:29.000Z</time>
      </trkpt>
      <trkpt lat="44.14237" lon="6.09953">
        <ele>1058</ele>
        <time>2022-03-03T09:53:30.000Z</time>
      </trkpt>
      <trkpt lat="44.14237" lon="6.09953">
        <ele>1058</ele>
        <time>2022-03-03T09:53:31.000Z</time>
      </trkpt>
      <trkpt lat="44.14237" lon="6.09953">
        <ele>1058</ele>
        <time>2022-03-03T09:53:32.000Z</time>
      </trkpt>
      <trkpt lat="44.14237" lon="6.09953">
        <ele>1058</ele>
        <time>2022-03-03T09:53:33.000Z</time>
      </trkpt>
      <trkpt lat="44.14237" lon="6.09953">
        <ele>1058</ele>
        <time>2022-03-03T09:53:34.000Z</time>
      </trkpt>
      <trkpt lat="44.14237" lon="6.09953">
        <ele>1058</ele>
        <time>2022-03-03T09:53:35.000Z</time>
      </trkpt>
      <trkpt lat="44.14237" lon="6.09953">
        <ele>1058</ele>
        <time>2022-03-03T09:53:36.000Z</time>
      </trkpt>
      <trkpt lat="44.14237" lon="6.09953">
        <ele>1058</ele>
        <time>2022-03-03T09:53:37.000Z</time>
      </trkpt>
      <trkpt lat="44.14237" lon="6.09953">
        <ele>1058</ele>
        <time>2022-03-03T09:53:38.000Z</time>
      </trkpt>
      <trkpt lat="44.14237" lon="6.09953">
        <ele>1058</ele>
        <time>2022-03-03T09:53:39.000Z</time>
      </trkpt>
      <trkpt lat="44.14237" lon="6.09953">
        <ele>1058</ele>
        <time>2022-03-03T09:53:40.000Z</time>
      </trkpt>
      <trkpt lat="44.14237" lon="6.09953">
        <ele>1058</ele>
        <time>2022-03-03T09:53:41.000Z</time>
      </trkpt>
      <trkpt lat="44.14237" lon="6.09953">
        <ele>1058</ele>
        <time>2022-03-03T09:53:42.000Z</time>
      </trkpt>
      <trkpt lat="44.14237" lon="6.09953">
        <ele>1058</ele>
        <time>2022-03-03T09:53:43.000Z</time>
      </trkpt>
      <trkpt lat="44.14237" lon="6.09953">
        <ele>1058</ele>
        <time>2022-03-03T09:53:44.000Z</time>
      </trkpt>
      <trkpt lat="44.14237" lon="6.09953">
        <ele>1058</ele>
        <time>2022-03-03T09:53:45.000Z</time>
      </trkpt>
      <trkpt lat="44.14237" lon="6.09953">
        <ele>1058</ele>
        <time>2022-03-03T09:53:46.000Z</time>
      </trkpt>
      <trkpt lat="44.14237" lon="6.09953">
        <ele>1058</ele>
        <time>2022-03-03T09:53:47.000Z</time>
      </trkpt>
      <trkpt lat="44.14237" lon="6.09953">
        <ele>1058</ele>
        <time>2022-03-03T09:53:48.000Z</time>
      </trkpt>
      <trkpt lat="44.14237" lon="6.09953">
        <ele>1058</ele>
        <time>2022-03-03T09:53:49.000Z</time>
      </trkpt>
      <trkpt lat="44.14237" lon="6.09953">
        <ele>1058</ele>
        <time>2022-03-03T09:53:50.000Z</time>
      </trkpt>
      <trkpt lat="44.14237" lon="6.09953">
        <ele>1058</ele>
        <time>2022-03-03T09:53:51.000Z</time>
      </trkpt>
      <trkpt lat="44.14237" lon="6.09953">
        <ele>1058</ele>
        <time>2022-03-03T09:53:52.000Z</time>
      </trkpt>
      <trkpt lat="44.14237" lon="6.09953">
        <ele>1058</ele>
        <time>2022-03-03T09:53:53.000Z</time>
      </trkpt>
      <trkpt lat="44.14237" lon="6.09953">
        <ele>1058</ele>
        <time>2022-03-03T09:53:54.000Z</time>
      </trkpt>
      <trkpt lat="44.14237" lon="6.09953">
        <ele>1058</ele>
        <time>2022-03-03T09:53:55.000Z</time>
      </trkpt>
      <trkpt lat="44.14237" lon="6.09953">
        <ele>1058</ele>
        <time>2022-03-03T09:53:56.000Z</time>
      </trkpt>
      <trkpt lat="44.14237" lon="6.09953">
        <ele>1058</ele>
        <time>2022-03-03T09:53:57.000Z</time>
      </trkpt>
      <trkpt lat="44.14237" lon="6.09953">
        <ele>1058</ele>
        <time>2022-03-03T09:53:58.000Z</time>
      </trkpt>
      <trkpt lat="44.14237" lon="6.09953">
        <ele>1058</ele>
        <time>2022-03-03T09:53:59.000Z</time>
      </trkpt>
      <trkpt lat="44.14237" lon="6.09953">
        <ele>1058</ele>
        <time>2022-03-03T09:54:00.000Z</time>
      </trkpt>
      <trkpt lat="44.14237" lon="6.09953">
        <ele>1058</ele>
        <time>2022-03-03T09:54:01.000Z</time>
      </trkpt>
      <trkpt lat="44.14237" lon="6.09953">
        <ele>1058</ele>
        <time>2022-03-03T09:54:02.000Z</time>
      </trkpt>
      <trkpt lat="44.14237" lon="6.09953">
        <ele>1058</ele>
        <time>2022-03-03T09:54:03.000Z</time>
      </trkpt>
      <trkpt lat="44.14237" lon="6.09953">
        <ele>1058</ele>
        <time>2022-03-03T09:54:04.000Z</time>
      </trkpt>
      <trkpt lat="44.14237" lon="6.09953">
        <ele>1058</ele>
        <time>2022-03-03T09:54:05.000Z</time>
      </trkpt>
      <trkpt lat="44.14237" lon="6.09953">
        <ele>1058</ele>
        <time>2022-03-03T09:54:06.000Z</time>
      </trkpt>
      <trkpt lat="44.14237" lon="6.09953">
        <ele>1058</ele>
        <time>2022-03-03T09:54:07.000Z</time>
      </trkpt>
      <trkpt lat="44.14237" lon="6.09953">
        <ele>1058</ele>
        <time>2022-03-03T09:54:08.000Z</time>
      </trkpt>
      <trkpt lat="44.14237" lon="6.09953">
        <ele>1058</ele>
        <time>2022-03-03T09:54:09.000Z</time>
      </trkpt>
      <trkpt lat="44.14237" lon="6.09953">
        <ele>1058</ele>
        <time>2022-03-03T09:54:10.000Z</time>
      </trkpt>
      <trkpt lat="44.14237" lon="6.09953">
        <ele>1058</ele>
        <time>2022-03-03T09:54:11.000Z</time>
      </trkpt>
      <trkpt lat="44.14237" lon="6.09953">
        <ele>1058</ele>
        <time>2022-03-03T09:54:12.000Z</time>
      </trkpt>
      <trkpt lat="44.14237" lon="6.09953">
        <ele>1058</ele>
        <time>2022-03-03T09:54:13.000Z</time>
      </trkpt>
      <trkpt lat="44.14237" lon="6.09953">
        <ele>1058</ele>
        <time>2022-03-03T09:54:14.000Z</time>
      </trkpt>
      <trkpt lat="44.14237" lon="6.09953">
        <ele>1058</ele>
        <time>2022-03-03T09:54:15.000Z</time>
      </trkpt>
      <trkpt lat="44.14237" lon="6.09953">
        <ele>1058</ele>
        <time>2022-03-03T09:54:16.000Z</time>
      </trkpt>
      <trkpt lat="44.14237" lon="6.09953">
        <ele>1058</ele>
        <time>2022-03-03T09:54:17.000Z</time>
      </trkpt>
      <trkpt lat="44.14237" lon="6.09953">
        <ele>1058</ele>
        <time>2022-03-03T09:54:18.000Z</time>
      </trkpt>
      <trkpt lat="44.14237" lon="6.09953">
        <ele>1058</ele>
        <time>2022-03-03T09:54:19.000Z</time>
      </trkpt>
      <trkpt lat="44.14237" lon="6.09952">
        <ele>1058</ele>
        <time>2022-03-03T09:54:20.000Z</time>
      </trkpt>
      <trkpt lat="44.14237" lon="6.09952">
        <ele>1058</ele>
        <time>2022-03-03T09:54:21.000Z</time>
      </trkpt>
      <trkpt lat="44.14237" lon="6.09952">
        <ele>1058</ele>
        <time>2022-03-03T09:54:22.000Z</time>
      </trkpt>
      <trkpt lat="44.14237" lon="6.09952">
        <ele>1058</ele>
        <time>2022-03-03T09:54:23.000Z</time>
      </trkpt>
      <trkpt lat="44.14237" lon="6.09953">
        <ele>1058</ele>
        <time>2022-03-03T09:54:24.000Z</time>
      </trkpt>
      <trkpt lat="44.14237" lon="6.09953">
        <ele>1058</ele>
        <time>2022-03-03T09:54:25.000Z</time>
      </trkpt>
      <trkpt lat="44.14237" lon="6.09953">
        <ele>1058</ele>
        <time>2022-03-03T09:54:26.000Z</time>
      </trkpt>
      <trkpt lat="44.14237" lon="6.09953">
        <ele>1058</ele>
        <time>2022-03-03T09:54:27.000Z</time>
      </trkpt>
      <trkpt lat="44.14237" lon="6.09953">
        <ele>1058</ele>
        <time>2022-03-03T09:54:28.000Z</time>
      </trkpt>
      <trkpt lat="44.14237" lon="6.09953">
        <ele>1058</ele>
        <time>2022-03-03T09:54:29.000Z</time>
      </trkpt>
      <trkpt lat="44.14237" lon="6.09953">
        <ele>1058</ele>
        <time>2022-03-03T09:54:30.000Z</time>
      </trkpt>
      <trkpt lat="44.14237" lon="6.09953">
        <ele>1058</ele>
        <time>2022-03-03T09:54:31.000Z</time>
      </trkpt>
      <trkpt lat="44.14237" lon="6.09953">
        <ele>1058</ele>
        <time>2022-03-03T09:54:32.000Z</time>
      </trkpt>
      <trkpt lat="44.14237" lon="6.09953">
        <ele>1058</ele>
        <time>2022-03-03T09:54:33.000Z</time>
      </trkpt>
      <trkpt lat="44.14238" lon="6.09953">
        <ele>1058</ele>
        <time>2022-03-03T09:54:34.000Z</time>
      </trkpt>
      <trkpt lat="44.14238" lon="6.09953">
        <ele>1058</ele>
        <time>2022-03-03T09:54:35.000Z</time>
      </trkpt>
      <trkpt lat="44.14238" lon="6.09953">
        <ele>1058</ele>
        <time>2022-03-03T09:54:36.000Z</time>
      </trkpt>
      <trkpt lat="44.14238" lon="6.09953">
        <ele>1058</ele>
        <time>2022-03-03T09:54:37.000Z</time>
      </trkpt>
      <trkpt lat="44.14238" lon="6.09953">
        <ele>1058</ele>
        <time>2022-03-03T09:54:38.000Z</time>
      </trkpt>
      <trkpt lat="44.14238" lon="6.09953">
        <ele>1058</ele>
        <time>2022-03-03T09:54:39.000Z</time>
      </trkpt>
      <trkpt lat="44.14238" lon="6.09953">
        <ele>1058</ele>
        <time>2022-03-03T09:54:40.000Z</time>
      </trkpt>
      <trkpt lat="44.14238" lon="6.09953">
        <ele>1058</ele>
        <time>2022-03-03T09:54:41.000Z</time>
      </trkpt>
      <trkpt lat="44.14238" lon="6.09953">
        <ele>1058</ele>
        <time>2022-03-03T09:54:42.000Z</time>
      </trkpt>
      <trkpt lat="44.14238" lon="6.09953">
        <ele>1058</ele>
        <time>2022-03-03T09:54:43.000Z</time>
      </trkpt>
      <trkpt lat="44.14238" lon="6.09953">
        <ele>1058</ele>
        <time>2022-03-03T09:54:44.000Z</time>
      </trkpt>
      <trkpt lat="44.14238" lon="6.09953">
        <ele>1058</ele>
        <time>2022-03-03T09:54:45.000Z</time>
      </trkpt>
      <trkpt lat="44.14238" lon="6.09953">
        <ele>1058</ele>
        <time>2022-03-03T09:54:46.000Z</time>
      </trkpt>
      <trkpt lat="44.14238" lon="6.09953">
        <ele>1058</ele>
        <time>2022-03-03T09:54:47.000Z</time>
      </trkpt>
      <trkpt lat="44.14238" lon="6.09953">
        <ele>1058</ele>
        <time>2022-03-03T09:54:48.000Z</time>
      </trkpt>
      <trkpt lat="44.14238" lon="6.09953">
        <ele>1058</ele>
        <time>2022-03-03T09:54:49.000Z</time>
      </trkpt>
      <trkpt lat="44.14238" lon="6.09953">
        <ele>1058</ele>
        <time>2022-03-03T09:54:50.000Z</time>
      </trkpt>
      <trkpt lat="44.14238" lon="6.09953">
        <ele>1058</ele>
        <time>2022-03-03T09:54:51.000Z</time>
      </trkpt>
      <trkpt lat="44.14238" lon="6.09953">
        <ele>1058</ele>
        <time>2022-03-03T09:54:52.000Z</time>
      </trkpt>
      <trkpt lat="44.14238" lon="6.09953">
        <ele>1058</ele>
        <time>2022-03-03T09:54:53.000Z</time>
      </trkpt>
      <trkpt lat="44.14238" lon="6.09953">
        <ele>1058</ele>
        <time>2022-03-03T09:54:54.000Z</time>
      </trkpt>
      <trkpt lat="44.14238" lon="6.09953">
        <ele>1058</ele>
        <time>2022-03-03T09:54:55.000Z</time>
      </trkpt>
      <trkpt lat="44.14238" lon="6.09953">
        <ele>1058</ele>
        <time>2022-03-03T09:54:56.000Z</time>
      </trkpt>
      <trkpt lat="44.14238" lon="6.09953">
        <ele>1058</ele>
        <time>2022-03-03T09:54:57.000Z</time>
      </trkpt>
      <trkpt lat="44.14238" lon="6.09953">
        <ele>1058</ele>
        <time>2022-03-03T09:54:58.000Z</time>
      </trkpt>
      <trkpt lat="44.14238" lon="6.09953">
        <ele>1058</ele>
        <time>2022-03-03T09:54:59.000Z</time>
      </trkpt>
      <trkpt lat="44.14238" lon="6.09953">
        <ele>1058</ele>
        <time>2022-03-03T09:55:00.000Z</time>
      </trkpt>
      <trkpt lat="44.14238" lon="6.09953">
        <ele>1058</ele>
        <time>2022-03-03T09:55:01.000Z</time>
      </trkpt>
      <trkpt lat="44.14238" lon="6.09953">
        <ele>1058</ele>
        <time>2022-03-03T09:55:02.000Z</time>
      </trkpt>
      <trkpt lat="44.14238" lon="6.09953">
        <ele>1058</ele>
        <time>2022-03-03T09:55:03.000Z</time>
      </trkpt>
      <trkpt lat="44.14238" lon="6.09953">
        <ele>1058</ele>
        <time>2022-03-03T09:55:04.000Z</time>
      </trkpt>
      <trkpt lat="44.14238" lon="6.09953">
        <ele>1058</ele>
        <time>2022-03-03T09:55:05.000Z</time>
      </trkpt>
      <trkpt lat="44.14238" lon="6.09953">
        <ele>1058</ele>
        <time>2022-03-03T09:55:06.000Z</time>
      </trkpt>
      <trkpt lat="44.14238" lon="6.09953">
        <ele>1058</ele>
        <time>2022-03-03T09:55:07.000Z</time>
      </trkpt>
      <trkpt lat="44.14238" lon="6.09953">
        <ele>1058</ele>
        <time>2022-03-03T09:55:08.000Z</time>
      </trkpt>
      <trkpt lat="44.14238" lon="6.09953">
        <ele>1058</ele>
        <time>2022-03-03T09:55:09.000Z</time>
      </trkpt>
      <trkpt lat="44.14238" lon="6.09953">
        <ele>1058</ele>
        <time>2022-03-03T09:55:10.000Z</time>
      </trkpt>
      <trkpt lat="44.14238" lon="6.09953">
        <ele>1058</ele>
        <time>2022-03-03T09:55:11.000Z</time>
      </trkpt>
      <trkpt lat="44.14238" lon="6.09953">
        <ele>1058</ele>
        <time>2022-03-03T09:55:12.000Z</time>
      </trkpt>
      <trkpt lat="44.14238" lon="6.09953">
        <ele>1058</ele>
        <time>2022-03-03T09:55:13.000Z</time>
      </trkpt>
      <trkpt lat="44.14238" lon="6.09953">
        <ele>1058</ele>
        <time>2022-03-03T09:55:14.000Z</time>
      </trkpt>
      <trkpt lat="44.14238" lon="6.09953">
        <ele>1058</ele>
        <time>2022-03-03T09:55:15.000Z</time>
      </trkpt>
      <trkpt lat="44.14238" lon="6.09953">
        <ele>1058</ele>
        <time>2022-03-03T09:55:16.000Z</time>
      </trkpt>
      <trkpt lat="44.14238" lon="6.09953">
        <ele>1058</ele>
        <time>2022-03-03T09:55:17.000Z</time>
      </trkpt>
      <trkpt lat="44.14238" lon="6.09953">
        <ele>1058</ele>
        <time>2022-03-03T09:55:18.000Z</time>
      </trkpt>
      <trkpt lat="44.14238" lon="6.09953">
        <ele>1058</ele>
        <time>2022-03-03T09:55:19.000Z</time>
      </trkpt>
      <trkpt lat="44.14238" lon="6.09953">
        <ele>1058</ele>
        <time>2022-03-03T09:55:20.000Z</time>
      </trkpt>
      <trkpt lat="44.14238" lon="6.09953">
        <ele>1058</ele>
        <time>2022-03-03T09:55:21.000Z</time>
      </trkpt>
      <trkpt lat="44.14238" lon="6.09953">
        <ele>1058</ele>
        <time>2022-03-03T09:55:22.000Z</time>
      </trkpt>
      <trkpt lat="44.14238" lon="6.09953">
        <ele>1058</ele>
        <time>2022-03-03T09:55:23.000Z</time>
      </trkpt>
      <trkpt lat="44.14238" lon="6.09953">
        <ele>1058</ele>
        <time>2022-03-03T09:55:24.000Z</time>
      </trkpt>
      <trkpt lat="44.14238" lon="6.09953">
        <ele>1058</ele>
        <time>2022-03-03T09:55:25.000Z</time>
      </trkpt>
      <trkpt lat="44.14238" lon="6.09952">
        <ele>1058</ele>
        <time>2022-03-03T09:55:26.000Z</time>
      </trkpt>
      <trkpt lat="44.14238" lon="6.09952">
        <ele>1058</ele>
        <time>2022-03-03T09:55:27.000Z</time>
      </trkpt>
      <trkpt lat="44.14238" lon="6.09952">
        <ele>1058</ele>
        <time>2022-03-03T09:55:28.000Z</time>
      </trkpt>
      <trkpt lat="44.14238" lon="6.09952">
        <ele>1058</ele>
        <time>2022-03-03T09:55:29.000Z</time>
      </trkpt>
      <trkpt lat="44.14238" lon="6.09952">
        <ele>1058</ele>
        <time>2022-03-03T09:55:30.000Z</time>
      </trkpt>
      <trkpt lat="44.14238" lon="6.09952">
        <ele>1058</ele>
        <time>2022-03-03T09:55:31.000Z</time>
      </trkpt>
      <trkpt lat="44.14238" lon="6.09952">
        <ele>1058</ele>
        <time>2022-03-03T09:55:32.000Z</time>
      </trkpt>
      <trkpt lat="44.14238" lon="6.09952">
        <ele>1058</ele>
        <time>2022-03-03T09:55:33.000Z</time>
      </trkpt>
      <trkpt lat="44.14238" lon="6.09952">
        <ele>1058</ele>
        <time>2022-03-03T09:55:34.000Z</time>
      </trkpt>
      <trkpt lat="44.14238" lon="6.09952">
        <ele>1058</ele>
        <time>2022-03-03T09:55:35.000Z</time>
      </trkpt>
      <trkpt lat="44.14238" lon="6.09952">
        <ele>1058</ele>
        <time>2022-03-03T09:55:36.000Z</time>
      </trkpt>
      <trkpt lat="44.14238" lon="6.09952">
        <ele>1058</ele>
        <time>2022-03-03T09:55:37.000Z</time>
      </trkpt>
      <trkpt lat="44.14238" lon="6.09952">
        <ele>1058</ele>
        <time>2022-03-03T09:55:38.000Z</time>
      </trkpt>
      <trkpt lat="44.14238" lon="6.09952">
        <ele>1058</ele>
        <time>2022-03-03T09:55:39.000Z</time>
      </trkpt>
      <trkpt lat="44.14238" lon="6.09952">
        <ele>1058</ele>
        <time>2022-03-03T09:55:40.000Z</time>
      </trkpt>
      <trkpt lat="44.14238" lon="6.09952">
        <ele>1058</ele>
        <time>2022-03-03T09:55:41.000Z</time>
      </trkpt>
      <trkpt lat="44.14238" lon="6.09952">
        <ele>1058</ele>
        <time>2022-03-03T09:55:42.000Z</time>
      </trkpt>
      <trkpt lat="44.14238" lon="6.09952">
        <ele>1058</ele>
        <time>2022-03-03T09:55:43.000Z</time>
      </trkpt>
      <trkpt lat="44.14239" lon="6.09951">
        <ele>1058</ele>
        <time>2022-03-03T09:55:44.000Z</time>
      </trkpt>
      <trkpt lat="44.14239" lon="6.09951">
        <ele>1058</ele>
        <time>2022-03-03T09:55:45.000Z</time>
      </trkpt>
      <trkpt lat="44.1424" lon="6.0995">
        <ele>1058</ele>
        <time>2022-03-03T09:55:46.000Z</time>
      </trkpt>
      <trkpt lat="44.14241" lon="6.0995">
        <ele>1058</ele>
        <time>2022-03-03T09:55:47.000Z</time>
      </trkpt>
      <trkpt lat="44.14242" lon="6.09949">
        <ele>1058</ele>
        <time>2022-03-03T09:55:48.000Z</time>
      </trkpt>
      <trkpt lat="44.14243" lon="6.09948">
        <ele>1058</ele>
        <time>2022-03-03T09:55:49.000Z</time>
      </trkpt>
      <trkpt lat="44.14244" lon="6.09947">
        <ele>1058</ele>
        <time>2022-03-03T09:55:50.000Z</time>
      </trkpt>
      <trkpt lat="44.14244" lon="6.09947">
        <ele>1058</ele>
        <time>2022-03-03T09:55:51.000Z</time>
      </trkpt>
      <trkpt lat="44.14245" lon="6.09946">
        <ele>1058</ele>
        <time>2022-03-03T09:55:52.000Z</time>
      </trkpt>
      <trkpt lat="44.14246" lon="6.09946">
        <ele>1059</ele>
        <time>2022-03-03T09:55:53.000Z</time>
      </trkpt>
      <trkpt lat="44.14247" lon="6.09945">
        <ele>1059</ele>
        <time>2022-03-03T09:55:54.000Z</time>
      </trkpt>
      <trkpt lat="44.14248" lon="6.09945">
        <ele>1059</ele>
        <time>2022-03-03T09:55:55.000Z</time>
      </trkpt>
      <trkpt lat="44.14248" lon="6.09944">
        <ele>1059</ele>
        <time>2022-03-03T09:55:56.000Z</time>
      </trkpt>
      <trkpt lat="44.14249" lon="6.09944">
        <ele>1059</ele>
        <time>2022-03-03T09:55:57.000Z</time>
      </trkpt>
      <trkpt lat="44.1425" lon="6.09943">
        <ele>1059</ele>
        <time>2022-03-03T09:55:58.000Z</time>
      </trkpt>
      <trkpt lat="44.14251" lon="6.09943">
        <ele>1059</ele>
        <time>2022-03-03T09:55:59.000Z</time>
      </trkpt>
      <trkpt lat="44.14252" lon="6.09943">
        <ele>1059</ele>
        <time>2022-03-03T09:56:00.000Z</time>
      </trkpt>
      <trkpt lat="44.14253" lon="6.09942">
        <ele>1059</ele>
        <time>2022-03-03T09:56:01.000Z</time>
      </trkpt>
      <trkpt lat="44.14254" lon="6.09942">
        <ele>1059</ele>
        <time>2022-03-03T09:56:02.000Z</time>
      </trkpt>
      <trkpt lat="44.14255" lon="6.09941">
        <ele>1059</ele>
        <time>2022-03-03T09:56:03.000Z</time>
      </trkpt>
      <trkpt lat="44.14256" lon="6.09941">
        <ele>1060</ele>
        <time>2022-03-03T09:56:04.000Z</time>
      </trkpt>
      <trkpt lat="44.14257" lon="6.09941">
        <ele>1060</ele>
        <time>2022-03-03T09:56:05.000Z</time>
      </trkpt>
      <trkpt lat="44.14258" lon="6.0994">
        <ele>1060</ele>
        <time>2022-03-03T09:56:06.000Z</time>
      </trkpt>
      <trkpt lat="44.14259" lon="6.0994">
        <ele>1060</ele>
        <time>2022-03-03T09:56:07.000Z</time>
      </trkpt>
      <trkpt lat="44.1426" lon="6.09939">
        <ele>1060</ele>
        <time>2022-03-03T09:56:08.000Z</time>
      </trkpt>
      <trkpt lat="44.1426" lon="6.09938">
        <ele>1060</ele>
        <time>2022-03-03T09:56:09.000Z</time>
      </trkpt>
      <trkpt lat="44.14261" lon="6.09938">
        <ele>1061</ele>
        <time>2022-03-03T09:56:10.000Z</time>
      </trkpt>
      <trkpt lat="44.14262" lon="6.09937">
        <ele>1061</ele>
        <time>2022-03-03T09:56:11.000Z</time>
      </trkpt>
      <trkpt lat="44.14263" lon="6.09937">
        <ele>1061</ele>
        <time>2022-03-03T09:56:12.000Z</time>
      </trkpt>
      <trkpt lat="44.14264" lon="6.09936">
        <ele>1061</ele>
        <time>2022-03-03T09:56:13.000Z</time>
      </trkpt>
      <trkpt lat="44.14264" lon="6.09935">
        <ele>1061</ele>
        <time>2022-03-03T09:56:14.000Z</time>
      </trkpt>
      <trkpt lat="44.14265" lon="6.09935">
        <ele>1061</ele>
        <time>2022-03-03T09:56:15.000Z</time>
      </trkpt>
      <trkpt lat="44.14266" lon="6.09934">
        <ele>1061</ele>
        <time>2022-03-03T09:56:16.000Z</time>
      </trkpt>
      <trkpt lat="44.14267" lon="6.09933">
        <ele>1062</ele>
        <time>2022-03-03T09:56:17.000Z</time>
      </trkpt>
      <trkpt lat="44.14268" lon="6.09932">
        <ele>1062</ele>
        <time>2022-03-03T09:56:18.000Z</time>
      </trkpt>
      <trkpt lat="44.14269" lon="6.09932">
        <ele>1062</ele>
        <time>2022-03-03T09:56:19.000Z</time>
      </trkpt>
      <trkpt lat="44.14269" lon="6.09931">
        <ele>1062</ele>
        <time>2022-03-03T09:56:20.000Z</time>
      </trkpt>
      <trkpt lat="44.1427" lon="6.0993">
        <ele>1062</ele>
        <time>2022-03-03T09:56:21.000Z</time>
      </trkpt>
      <trkpt lat="44.14271" lon="6.09929">
        <ele>1062</ele>
        <time>2022-03-03T09:56:22.000Z</time>
      </trkpt>
      <trkpt lat="44.14272" lon="6.09929">
        <ele>1062</ele>
        <time>2022-03-03T09:56:23.000Z</time>
      </trkpt>
      <trkpt lat="44.14273" lon="6.09928">
        <ele>1062</ele>
        <time>2022-03-03T09:56:24.000Z</time>
      </trkpt>
      <trkpt lat="44.14274" lon="6.09927">
        <ele>1063</ele>
        <time>2022-03-03T09:56:25.000Z</time>
      </trkpt>
      <trkpt lat="44.14275" lon="6.09926">
        <ele>1063</ele>
        <time>2022-03-03T09:56:26.000Z</time>
      </trkpt>
      <trkpt lat="44.14275" lon="6.09925">
        <ele>1063</ele>
        <time>2022-03-03T09:56:27.000Z</time>
      </trkpt>
      <trkpt lat="44.14276" lon="6.09924">
        <ele>1063</ele>
        <time>2022-03-03T09:56:28.000Z</time>
      </trkpt>
      <trkpt lat="44.14277" lon="6.09923">
        <ele>1063</ele>
        <time>2022-03-03T09:56:29.000Z</time>
      </trkpt>
      <trkpt lat="44.14278" lon="6.09922">
        <ele>1064</ele>
        <time>2022-03-03T09:56:30.000Z</time>
      </trkpt>
      <trkpt lat="44.14279" lon="6.09921">
        <ele>1064</ele>
        <time>2022-03-03T09:56:31.000Z</time>
      </trkpt>
      <trkpt lat="44.14279" lon="6.0992">
        <ele>1064</ele>
        <time>2022-03-03T09:56:32.000Z</time>
      </trkpt>
      <trkpt lat="44.1428" lon="6.09919">
        <ele>1064</ele>
        <time>2022-03-03T09:56:33.000Z</time>
      </trkpt>
      <trkpt lat="44.14281" lon="6.09918">
        <ele>1064</ele>
        <time>2022-03-03T09:56:34.000Z</time>
      </trkpt>
      <trkpt lat="44.14282" lon="6.09917">
        <ele>1065</ele>
        <time>2022-03-03T09:56:35.000Z</time>
      </trkpt>
      <trkpt lat="44.14283" lon="6.09917">
        <ele>1065</ele>
        <time>2022-03-03T09:56:36.000Z</time>
      </trkpt>
      <trkpt lat="44.14283" lon="6.09916">
        <ele>1065</ele>
        <time>2022-03-03T09:56:37.000Z</time>
      </trkpt>
      <trkpt lat="44.14284" lon="6.09915">
        <ele>1065</ele>
        <time>2022-03-03T09:56:38.000Z</time>
      </trkpt>
      <trkpt lat="44.14285" lon="6.09914">
        <ele>1065</ele>
        <time>2022-03-03T09:56:39.000Z</time>
      </trkpt>
      <trkpt lat="44.14285" lon="6.09913">
        <ele>1065</ele>
        <time>2022-03-03T09:56:40.000Z</time>
      </trkpt>
      <trkpt lat="44.14286" lon="6.09912">
        <ele>1065</ele>
        <time>2022-03-03T09:56:41.000Z</time>
      </trkpt>
      <trkpt lat="44.14287" lon="6.09912">
        <ele>1065</ele>
        <time>2022-03-03T09:56:42.000Z</time>
      </trkpt>
      <trkpt lat="44.14287" lon="6.09911">
        <ele>1066</ele>
        <time>2022-03-03T09:56:43.000Z</time>
      </trkpt>
      <trkpt lat="44.14288" lon="6.0991">
        <ele>1066</ele>
        <time>2022-03-03T09:56:44.000Z</time>
      </trkpt>
      <trkpt lat="44.14289" lon="6.09909">
        <ele>1066</ele>
        <time>2022-03-03T09:56:45.000Z</time>
      </trkpt>
      <trkpt lat="44.14289" lon="6.09908">
        <ele>1066</ele>
        <time>2022-03-03T09:56:46.000Z</time>
      </trkpt>
      <trkpt lat="44.1429" lon="6.09907">
        <ele>1066</ele>
        <time>2022-03-03T09:56:47.000Z</time>
      </trkpt>
      <trkpt lat="44.1429" lon="6.09906">
        <ele>1066</ele>
        <time>2022-03-03T09:56:48.000Z</time>
      </trkpt>
      <trkpt lat="44.14291" lon="6.09905">
        <ele>1067</ele>
        <time>2022-03-03T09:56:49.000Z</time>
      </trkpt>
      <trkpt lat="44.14292" lon="6.09904">
        <ele>1067</ele>
        <time>2022-03-03T09:56:50.000Z</time>
      </trkpt>
      <trkpt lat="44.14292" lon="6.09904">
        <ele>1067</ele>
        <time>2022-03-03T09:56:51.000Z</time>
      </trkpt>
      <trkpt lat="44.14293" lon="6.09903">
        <ele>1067</ele>
        <time>2022-03-03T09:56:52.000Z</time>
      </trkpt>
      <trkpt lat="44.14293" lon="6.09902">
        <ele>1067</ele>
        <time>2022-03-03T09:56:53.000Z</time>
      </trkpt>
      <trkpt lat="44.14294" lon="6.09901">
        <ele>1067</ele>
        <time>2022-03-03T09:56:54.000Z</time>
      </trkpt>
      <trkpt lat="44.14295" lon="6.099">
        <ele>1067</ele>
        <time>2022-03-03T09:56:55.000Z</time>
      </trkpt>
      <trkpt lat="44.14295" lon="6.099">
        <ele>1068</ele>
        <time>2022-03-03T09:56:56.000Z</time>
      </trkpt>
      <trkpt lat="44.14296" lon="6.09898">
        <ele>1068</ele>
        <time>2022-03-03T09:56:57.000Z</time>
      </trkpt>
      <trkpt lat="44.14296" lon="6.09897">
        <ele>1068</ele>
        <time>2022-03-03T09:56:58.000Z</time>
      </trkpt>
      <trkpt lat="44.14297" lon="6.09897">
        <ele>1068</ele>
        <time>2022-03-03T09:56:59.000Z</time>
      </trkpt>
      <trkpt lat="44.14297" lon="6.09896">
        <ele>1068</ele>
        <time>2022-03-03T09:57:00.000Z</time>
      </trkpt>
      <trkpt lat="44.14298" lon="6.09895">
        <ele>1068</ele>
        <time>2022-03-03T09:57:01.000Z</time>
      </trkpt>
      <trkpt lat="44.14298" lon="6.09894">
        <ele>1069</ele>
        <time>2022-03-03T09:57:02.000Z</time>
      </trkpt>
      <trkpt lat="44.14299" lon="6.09893">
        <ele>1069</ele>
        <time>2022-03-03T09:57:03.000Z</time>
      </trkpt>
      <trkpt lat="44.14299" lon="6.09892">
        <ele>1069</ele>
        <time>2022-03-03T09:57:04.000Z</time>
      </trkpt>
      <trkpt lat="44.143" lon="6.09891">
        <ele>1069</ele>
        <time>2022-03-03T09:57:05.000Z</time>
      </trkpt>
      <trkpt lat="44.143" lon="6.0989">
        <ele>1069</ele>
        <time>2022-03-03T09:57:06.000Z</time>
      </trkpt>
      <trkpt lat="44.14301" lon="6.09889">
        <ele>1069</ele>
        <time>2022-03-03T09:57:07.000Z</time>
      </trkpt>
      <trkpt lat="44.14301" lon="6.09888">
        <ele>1069</ele>
        <time>2022-03-03T09:57:08.000Z</time>
      </trkpt>
      <trkpt lat="44.14302" lon="6.09887">
        <ele>1070</ele>
        <time>2022-03-03T09:57:09.000Z</time>
      </trkpt>
      <trkpt lat="44.14302" lon="6.09886">
        <ele>1070</ele>
        <time>2022-03-03T09:57:10.000Z</time>
      </trkpt>
      <trkpt lat="44.14303" lon="6.09884">
        <ele>1070</ele>
        <time>2022-03-03T09:57:11.000Z</time>
      </trkpt>
      <trkpt lat="44.14303" lon="6.09883">
        <ele>1070</ele>
        <time>2022-03-03T09:57:12.000Z</time>
      </trkpt>
      <trkpt lat="44.14303" lon="6.09882">
        <ele>1070</ele>
        <time>2022-03-03T09:57:13.000Z</time>
      </trkpt>
      <trkpt lat="44.14304" lon="6.09881">
        <ele>1070</ele>
        <time>2022-03-03T09:57:14.000Z</time>
      </trkpt>
      <trkpt lat="44.14304" lon="6.0988">
        <ele>1070</ele>
        <time>2022-03-03T09:57:15.000Z</time>
      </trkpt>
      <trkpt lat="44.14304" lon="6.09879">
        <ele>1071</ele>
        <time>2022-03-03T09:57:16.000Z</time>
      </trkpt>
      <trkpt lat="44.14304" lon="6.09877">
        <ele>1071</ele>
        <time>2022-03-03T09:57:17.000Z</time>
      </trkpt>
      <trkpt lat="44.14305" lon="6.09876">
        <ele>1071</ele>
        <time>2022-03-03T09:57:18.000Z</time>
      </trkpt>
      <trkpt lat="44.14305" lon="6.09875">
        <ele>1071</ele>
        <time>2022-03-03T09:57:19.000Z</time>
      </trkpt>
      <trkpt lat="44.14305" lon="6.09874">
        <ele>1071</ele>
        <time>2022-03-03T09:57:20.000Z</time>
      </trkpt>
      <trkpt lat="44.14306" lon="6.09873">
        <ele>1071</ele>
        <time>2022-03-03T09:57:21.000Z</time>
      </trkpt>
      <trkpt lat="44.14306" lon="6.09872">
        <ele>1071</ele>
        <time>2022-03-03T09:57:22.000Z</time>
      </trkpt>
      <trkpt lat="44.14306" lon="6.0987">
        <ele>1071</ele>
        <time>2022-03-03T09:57:23.000Z</time>
      </trkpt>
      <trkpt lat="44.14306" lon="6.09869">
        <ele>1071</ele>
        <time>2022-03-03T09:57:24.000Z</time>
      </trkpt>
      <trkpt lat="44.14306" lon="6.09868">
        <ele>1072</ele>
        <time>2022-03-03T09:57:25.000Z</time>
      </trkpt>
      <trkpt lat="44.14307" lon="6.09867">
        <ele>1072</ele>
        <time>2022-03-03T09:57:26.000Z</time>
      </trkpt>
      <trkpt lat="44.14307" lon="6.09865">
        <ele>1072</ele>
        <time>2022-03-03T09:57:27.000Z</time>
      </trkpt>
      <trkpt lat="44.14307" lon="6.09864">
        <ele>1072</ele>
        <time>2022-03-03T09:57:28.000Z</time>
      </trkpt>
      <trkpt lat="44.14308" lon="6.09863">
        <ele>1072</ele>
        <time>2022-03-03T09:57:29.000Z</time>
      </trkpt>
      <trkpt lat="44.14308" lon="6.09861">
        <ele>1072</ele>
        <time>2022-03-03T09:57:30.000Z</time>
      </trkpt>
      <trkpt lat="44.14308" lon="6.09861">
        <ele>1072</ele>
        <time>2022-03-03T09:57:31.000Z</time>
      </trkpt>
      <trkpt lat="44.14308" lon="6.09859">
        <ele>1072</ele>
        <time>2022-03-03T09:57:32.000Z</time>
      </trkpt>
      <trkpt lat="44.14309" lon="6.09858">
        <ele>1073</ele>
        <time>2022-03-03T09:57:33.000Z</time>
      </trkpt>
      <trkpt lat="44.14309" lon="6.09857">
        <ele>1073</ele>
        <time>2022-03-03T09:57:34.000Z</time>
      </trkpt>
      <trkpt lat="44.14309" lon="6.09856">
        <ele>1073</ele>
        <time>2022-03-03T09:57:35.000Z</time>
      </trkpt>
      <trkpt lat="44.1431" lon="6.09855">
        <ele>1073</ele>
        <time>2022-03-03T09:57:36.000Z</time>
      </trkpt>
      <trkpt lat="44.1431" lon="6.09854">
        <ele>1073</ele>
        <time>2022-03-03T09:57:37.000Z</time>
      </trkpt>
      <trkpt lat="44.14311" lon="6.09852">
        <ele>1073</ele>
        <time>2022-03-03T09:57:38.000Z</time>
      </trkpt>
      <trkpt lat="44.14311" lon="6.09851">
        <ele>1073</ele>
        <time>2022-03-03T09:57:39.000Z</time>
      </trkpt>
      <trkpt lat="44.14311" lon="6.0985">
        <ele>1073</ele>
        <time>2022-03-03T09:57:40.000Z</time>
      </trkpt>
      <trkpt lat="44.14312" lon="6.09849">
        <ele>1073</ele>
        <time>2022-03-03T09:57:41.000Z</time>
      </trkpt>
      <trkpt lat="44.14312" lon="6.09848">
        <ele>1073</ele>
        <time>2022-03-03T09:57:42.000Z</time>
      </trkpt>
      <trkpt lat="44.14312" lon="6.09847">
        <ele>1073</ele>
        <time>2022-03-03T09:57:43.000Z</time>
      </trkpt>
      <trkpt lat="44.14313" lon="6.09846">
        <ele>1073</ele>
        <time>2022-03-03T09:57:44.000Z</time>
      </trkpt>
      <trkpt lat="44.14313" lon="6.09845">
        <ele>1073</ele>
        <time>2022-03-03T09:57:45.000Z</time>
      </trkpt>
      <trkpt lat="44.14314" lon="6.09844">
        <ele>1073</ele>
        <time>2022-03-03T09:57:46.000Z</time>
      </trkpt>
      <trkpt lat="44.14314" lon="6.09842">
        <ele>1073</ele>
        <time>2022-03-03T09:57:47.000Z</time>
      </trkpt>
      <trkpt lat="44.14314" lon="6.09841">
        <ele>1074</ele>
        <time>2022-03-03T09:57:48.000Z</time>
      </trkpt>
      <trkpt lat="44.14315" lon="6.0984">
        <ele>1074</ele>
        <time>2022-03-03T09:57:49.000Z</time>
      </trkpt>
      <trkpt lat="44.14316" lon="6.09839">
        <ele>1074</ele>
        <time>2022-03-03T09:57:50.000Z</time>
      </trkpt>
      <trkpt lat="44.14316" lon="6.09838">
        <ele>1074</ele>
        <time>2022-03-03T09:57:51.000Z</time>
      </trkpt>
      <trkpt lat="44.14316" lon="6.09837">
        <ele>1074</ele>
        <time>2022-03-03T09:57:52.000Z</time>
      </trkpt>
      <trkpt lat="44.14317" lon="6.09836">
        <ele>1074</ele>
        <time>2022-03-03T09:57:53.000Z</time>
      </trkpt>
      <trkpt lat="44.14317" lon="6.09835">
        <ele>1074</ele>
        <time>2022-03-03T09:57:54.000Z</time>
      </trkpt>
      <trkpt lat="44.14318" lon="6.09834">
        <ele>1074</ele>
        <time>2022-03-03T09:57:55.000Z</time>
      </trkpt>
      <trkpt lat="44.14318" lon="6.09833">
        <ele>1075</ele>
        <time>2022-03-03T09:57:56.000Z</time>
      </trkpt>
      <trkpt lat="44.14319" lon="6.09832">
        <ele>1075</ele>
        <time>2022-03-03T09:57:57.000Z</time>
      </trkpt>
      <trkpt lat="44.1432" lon="6.09831">
        <ele>1075</ele>
        <time>2022-03-03T09:57:58.000Z</time>
      </trkpt>
      <trkpt lat="44.1432" lon="6.0983">
        <ele>1075</ele>
        <time>2022-03-03T09:57:59.000Z</time>
      </trkpt>
      <trkpt lat="44.14321" lon="6.0983">
        <ele>1075</ele>
        <time>2022-03-03T09:58:00.000Z</time>
      </trkpt>
      <trkpt lat="44.14321" lon="6.09829">
        <ele>1075</ele>
        <time>2022-03-03T09:58:01.000Z</time>
      </trkpt>
      <trkpt lat="44.14322" lon="6.09828">
        <ele>1075</ele>
        <time>2022-03-03T09:58:02.000Z</time>
      </trkpt>
      <trkpt lat="44.14322" lon="6.09827">
        <ele>1075</ele>
        <time>2022-03-03T09:58:03.000Z</time>
      </trkpt>
      <trkpt lat="44.14323" lon="6.09826">
        <ele>1075</ele>
        <time>2022-03-03T09:58:04.000Z</time>
      </trkpt>
      <trkpt lat="44.14323" lon="6.09826">
        <ele>1075</ele>
        <time>2022-03-03T09:58:05.000Z</time>
      </trkpt>
      <trkpt lat="44.14324" lon="6.09825">
        <ele>1076</ele>
        <time>2022-03-03T09:58:06.000Z</time>
      </trkpt>
      <trkpt lat="44.14324" lon="6.09824">
        <ele>1076</ele>
        <time>2022-03-03T09:58:07.000Z</time>
      </trkpt>
      <trkpt lat="44.14325" lon="6.09823">
        <ele>1076</ele>
        <time>2022-03-03T09:58:08.000Z</time>
      </trkpt>
      <trkpt lat="44.14326" lon="6.09822">
        <ele>1076</ele>
        <time>2022-03-03T09:58:09.000Z</time>
      </trkpt>
      <trkpt lat="44.14326" lon="6.09822">
        <ele>1076</ele>
        <time>2022-03-03T09:58:10.000Z</time>
      </trkpt>
      <trkpt lat="44.14327" lon="6.09821">
        <ele>1076</ele>
        <time>2022-03-03T09:58:11.000Z</time>
      </trkpt>
      <trkpt lat="44.14327" lon="6.0982">
        <ele>1076</ele>
        <time>2022-03-03T09:58:12.000Z</time>
      </trkpt>
      <trkpt lat="44.14328" lon="6.09819">
        <ele>1076</ele>
        <time>2022-03-03T09:58:13.000Z</time>
      </trkpt>
      <trkpt lat="44.14329" lon="6.09819">
        <ele>1076</ele>
        <time>2022-03-03T09:58:14.000Z</time>
      </trkpt>
      <trkpt lat="44.14329" lon="6.09818">
        <ele>1076</ele>
        <time>2022-03-03T09:58:15.000Z</time>
      </trkpt>
      <trkpt lat="44.1433" lon="6.09817">
        <ele>1077</ele>
        <time>2022-03-03T09:58:16.000Z</time>
      </trkpt>
      <trkpt lat="44.1433" lon="6.09816">
        <ele>1077</ele>
        <time>2022-03-03T09:58:17.000Z</time>
      </trkpt>
      <trkpt lat="44.14331" lon="6.09815">
        <ele>1077</ele>
        <time>2022-03-03T09:58:18.000Z</time>
      </trkpt>
      <trkpt lat="44.14331" lon="6.09815">
        <ele>1077</ele>
        <time>2022-03-03T09:58:19.000Z</time>
      </trkpt>
      <trkpt lat="44.14332" lon="6.09814">
        <ele>1077</ele>
        <time>2022-03-03T09:58:20.000Z</time>
      </trkpt>
      <trkpt lat="44.14332" lon="6.09813">
        <ele>1077</ele>
        <time>2022-03-03T09:58:21.000Z</time>
      </trkpt>
      <trkpt lat="44.14333" lon="6.09812">
        <ele>1077</ele>
        <time>2022-03-03T09:58:22.000Z</time>
      </trkpt>
      <trkpt lat="44.14333" lon="6.09811">
        <ele>1077</ele>
        <time>2022-03-03T09:58:23.000Z</time>
      </trkpt>
      <trkpt lat="44.14334" lon="6.0981">
        <ele>1077</ele>
        <time>2022-03-03T09:58:24.000Z</time>
      </trkpt>
      <trkpt lat="44.14334" lon="6.0981">
        <ele>1077</ele>
        <time>2022-03-03T09:58:25.000Z</time>
      </trkpt>
      <trkpt lat="44.14335" lon="6.09809">
        <ele>1077</ele>
        <time>2022-03-03T09:58:26.000Z</time>
      </trkpt>
      <trkpt lat="44.14336" lon="6.09809">
        <ele>1078</ele>
        <time>2022-03-03T09:58:27.000Z</time>
      </trkpt>
      <trkpt lat="44.14336" lon="6.09808">
        <ele>1078</ele>
        <time>2022-03-03T09:58:28.000Z</time>
      </trkpt>
      <trkpt lat="44.14336" lon="6.09808">
        <ele>1078</ele>
        <time>2022-03-03T09:58:29.000Z</time>
      </trkpt>
      <trkpt lat="44.14336" lon="6.09808">
        <ele>1078</ele>
        <time>2022-03-03T09:58:30.000Z</time>
      </trkpt>
      <trkpt lat="44.14336" lon="6.09808">
        <ele>1078</ele>
        <time>2022-03-03T09:58:31.000Z</time>
      </trkpt>
      <trkpt lat="44.14336" lon="6.09808">
        <ele>1078</ele>
        <time>2022-03-03T09:58:32.000Z</time>
      </trkpt>
      <trkpt lat="44.14336" lon="6.09808">
        <ele>1078</ele>
        <time>2022-03-03T09:58:33.000Z</time>
      </trkpt>
      <trkpt lat="44.14336" lon="6.09808">
        <ele>1078</ele>
        <time>2022-03-03T09:58:34.000Z</time>
      </trkpt>
      <trkpt lat="44.14336" lon="6.09808">
        <ele>1078</ele>
        <time>2022-03-03T09:58:35.000Z</time>
      </trkpt>
      <trkpt lat="44.14336" lon="6.09808">
        <ele>1078</ele>
        <time>2022-03-03T09:58:36.000Z</time>
      </trkpt>
      <trkpt lat="44.14336" lon="6.09808">
        <ele>1078</ele>
        <time>2022-03-03T09:58:37.000Z</time>
      </trkpt>
      <trkpt lat="44.14336" lon="6.09808">
        <ele>1078</ele>
        <time>2022-03-03T09:58:38.000Z</time>
      </trkpt>
      <trkpt lat="44.14336" lon="6.09808">
        <ele>1078</ele>
        <time>2022-03-03T09:58:39.000Z</time>
      </trkpt>
      <trkpt lat="44.14337" lon="6.09808">
        <ele>1078</ele>
        <time>2022-03-03T09:58:40.000Z</time>
      </trkpt>
      <trkpt lat="44.14337" lon="6.09808">
        <ele>1078</ele>
        <time>2022-03-03T09:58:41.000Z</time>
      </trkpt>
      <trkpt lat="44.14337" lon="6.09808">
        <ele>1078</ele>
        <time>2022-03-03T09:58:42.000Z</time>
      </trkpt>
      <trkpt lat="44.14337" lon="6.09808">
        <ele>1079</ele>
        <time>2022-03-03T09:58:43.000Z</time>
      </trkpt>
      <trkpt lat="44.14337" lon="6.09808">
        <ele>1079</ele>
        <time>2022-03-03T09:58:44.000Z</time>
      </trkpt>
      <trkpt lat="44.14337" lon="6.09808">
        <ele>1079</ele>
        <time>2022-03-03T09:58:45.000Z</time>
      </trkpt>
      <trkpt lat="44.14336" lon="6.09808">
        <ele>1079</ele>
        <time>2022-03-03T09:58:46.000Z</time>
      </trkpt>
      <trkpt lat="44.14336" lon="6.09808">
        <ele>1079</ele>
        <time>2022-03-03T09:58:47.000Z</time>
      </trkpt>
      <trkpt lat="44.14336" lon="6.09807">
        <ele>1079</ele>
        <time>2022-03-03T09:58:48.000Z</time>
      </trkpt>
      <trkpt lat="44.14336" lon="6.09807">
        <ele>1079</ele>
        <time>2022-03-03T09:58:49.000Z</time>
      </trkpt>
      <trkpt lat="44.14336" lon="6.09807">
        <ele>1079</ele>
        <time>2022-03-03T09:58:50.000Z</time>
      </trkpt>
      <trkpt lat="44.14336" lon="6.09807">
        <ele>1079</ele>
        <time>2022-03-03T09:58:51.000Z</time>
      </trkpt>
      <trkpt lat="44.14337" lon="6.09808">
        <ele>1079</ele>
        <time>2022-03-03T09:58:52.000Z</time>
      </trkpt>
      <trkpt lat="44.14336" lon="6.09808">
        <ele>1079</ele>
        <time>2022-03-03T09:58:53.000Z</time>
      </trkpt>
      <trkpt lat="44.14336" lon="6.09808">
        <ele>1079</ele>
        <time>2022-03-03T09:58:54.000Z</time>
      </trkpt>
      <trkpt lat="44.14336" lon="6.09808">
        <ele>1079</ele>
        <time>2022-03-03T09:58:55.000Z</time>
      </trkpt>
      <trkpt lat="44.14336" lon="6.09808">
        <ele>1079</ele>
        <time>2022-03-03T09:58:56.000Z</time>
      </trkpt>
      <trkpt lat="44.14336" lon="6.09808">
        <ele>1079</ele>
        <time>2022-03-03T09:58:57.000Z</time>
      </trkpt>
      <trkpt lat="44.14336" lon="6.09808">
        <ele>1079</ele>
        <time>2022-03-03T09:58:58.000Z</time>
      </trkpt>
      <trkpt lat="44.14336" lon="6.09808">
        <ele>1079</ele>
        <time>2022-03-03T09:58:59.000Z</time>
      </trkpt>
      <trkpt lat="44.14336" lon="6.09808">
        <ele>1079</ele>
        <time>2022-03-03T09:59:00.000Z</time>
      </trkpt>
      <trkpt lat="44.14336" lon="6.09808">
        <ele>1079</ele>
        <time>2022-03-03T09:59:01.000Z</time>
      </trkpt>
      <trkpt lat="44.14336" lon="6.09808">
        <ele>1079</ele>
        <time>2022-03-03T09:59:02.000Z</time>
      </trkpt>
      <trkpt lat="44.14336" lon="6.09808">
        <ele>1079</ele>
        <time>2022-03-03T09:59:03.000Z</time>
      </trkpt>
      <trkpt lat="44.14336" lon="6.09808">
        <ele>1079</ele>
        <time>2022-03-03T09:59:04.000Z</time>
      </trkpt>
      <trkpt lat="44.14336" lon="6.09808">
        <ele>1079</ele>
        <time>2022-03-03T09:59:05.000Z</time>
      </trkpt>
      <trkpt lat="44.14336" lon="6.09808">
        <ele>1079</ele>
        <time>2022-03-03T09:59:06.000Z</time>
      </trkpt>
      <trkpt lat="44.14336" lon="6.09808">
        <ele>1079</ele>
        <time>2022-03-03T09:59:07.000Z</time>
      </trkpt>
      <trkpt lat="44.14336" lon="6.09808">
        <ele>1079</ele>
        <time>2022-03-03T09:59:08.000Z</time>
      </trkpt>
      <trkpt lat="44.14337" lon="6.09808">
        <ele>1079</ele>
        <time>2022-03-03T09:59:09.000Z</time>
      </trkpt>
      <trkpt lat="44.14337" lon="6.09808">
        <ele>1079</ele>
        <time>2022-03-03T09:59:10.000Z</time>
      </trkpt>
      <trkpt lat="44.14337" lon="6.09808">
        <ele>1079</ele>
        <time>2022-03-03T09:59:11.000Z</time>
      </trkpt>
      <trkpt lat="44.14337" lon="6.09808">
        <ele>1079</ele>
        <time>2022-03-03T09:59:12.000Z</time>
      </trkpt>
      <trkpt lat="44.14337" lon="6.09808">
        <ele>1079</ele>
        <time>2022-03-03T09:59:13.000Z</time>
      </trkpt>
      <trkpt lat="44.14337" lon="6.09808">
        <ele>1079</ele>
        <time>2022-03-03T09:59:14.000Z</time>
      </trkpt>
      <trkpt lat="44.14337" lon="6.09808">
        <ele>1079</ele>
        <time>2022-03-03T09:59:15.000Z</time>
      </trkpt>
      <trkpt lat="44.14337" lon="6.09808">
        <ele>1079</ele>
        <time>2022-03-03T09:59:16.000Z</time>
      </trkpt>
      <trkpt lat="44.14337" lon="6.09808">
        <ele>1079</ele>
        <time>2022-03-03T09:59:17.000Z</time>
      </trkpt>
      <trkpt lat="44.14337" lon="6.09808">
        <ele>1079</ele>
        <time>2022-03-03T09:59:18.000Z</time>
      </trkpt>
      <trkpt lat="44.14337" lon="6.09808">
        <ele>1079</ele>
        <time>2022-03-03T09:59:19.000Z</time>
      </trkpt>
      <trkpt lat="44.14337" lon="6.09808">
        <ele>1079</ele>
        <time>2022-03-03T09:59:20.000Z</time>
      </trkpt>
      <trkpt lat="44.14337" lon="6.09808">
        <ele>1079</ele>
        <time>2022-03-03T09:59:21.000Z</time>
      </trkpt>
      <trkpt lat="44.14337" lon="6.09808">
        <ele>1079</ele>
        <time>2022-03-03T09:59:22.000Z</time>
      </trkpt>
      <trkpt lat="44.14337" lon="6.09808">
        <ele>1079</ele>
        <time>2022-03-03T09:59:23.000Z</time>
      </trkpt>
      <trkpt lat="44.14337" lon="6.09808">
        <ele>1079</ele>
        <time>2022-03-03T09:59:24.000Z</time>
      </trkpt>
      <trkpt lat="44.14337" lon="6.09808">
        <ele>1079</ele>
        <time>2022-03-03T09:59:25.000Z</time>
      </trkpt>
      <trkpt lat="44.14337" lon="6.09808">
        <ele>1079</ele>
        <time>2022-03-03T09:59:26.000Z</time>
      </trkpt>
      <trkpt lat="44.14337" lon="6.09808">
        <ele>1079</ele>
        <time>2022-03-03T09:59:27.000Z</time>
      </trkpt>
      <trkpt lat="44.14337" lon="6.09808">
        <ele>1079</ele>
        <time>2022-03-03T09:59:28.000Z</time>
      </trkpt>
      <trkpt lat="44.14337" lon="6.09808">
        <ele>1079</ele>
        <time>2022-03-03T09:59:29.000Z</time>
      </trkpt>
      <trkpt lat="44.14337" lon="6.09808">
        <ele>1079</ele>
        <time>2022-03-03T09:59:30.000Z</time>
      </trkpt>
      <trkpt lat="44.14337" lon="6.09808">
        <ele>1079</ele>
        <time>2022-03-03T09:59:31.000Z</time>
      </trkpt>
      <trkpt lat="44.14337" lon="6.09808">
        <ele>1079</ele>
        <time>2022-03-03T09:59:32.000Z</time>
      </trkpt>
      <trkpt lat="44.14337" lon="6.09808">
        <ele>1079</ele>
        <time>2022-03-03T09:59:33.000Z</time>
      </trkpt>
      <trkpt lat="44.14337" lon="6.09808">
        <ele>1079</ele>
        <time>2022-03-03T09:59:34.000Z</time>
      </trkpt>
      <trkpt lat="44.14337" lon="6.09808">
        <ele>1079</ele>
        <time>2022-03-03T09:59:35.000Z</time>
      </trkpt>
      <trkpt lat="44.14337" lon="6.09808">
        <ele>1079</ele>
        <time>2022-03-03T09:59:36.000Z</time>
      </trkpt>
      <trkpt lat="44.14337" lon="6.09808">
        <ele>1079</ele>
        <time>2022-03-03T09:59:37.000Z</time>
      </trkpt>
      <trkpt lat="44.14337" lon="6.09808">
        <ele>1079</ele>
        <time>2022-03-03T09:59:38.000Z</time>
      </trkpt>
      <trkpt lat="44.14337" lon="6.09808">
        <ele>1079</ele>
        <time>2022-03-03T09:59:39.000Z</time>
      </trkpt>
      <trkpt lat="44.14337" lon="6.09808">
        <ele>1079</ele>
        <time>2022-03-03T09:59:40.000Z</time>
      </trkpt>
      <trkpt lat="44.14337" lon="6.09808">
        <ele>1079</ele>
        <time>2022-03-03T09:59:41.000Z</time>
      </trkpt>
      <trkpt lat="44.14337" lon="6.09808">
        <ele>1079</ele>
        <time>2022-03-03T09:59:42.000Z</time>
      </trkpt>
      <trkpt lat="44.14337" lon="6.09808">
        <ele>1079</ele>
        <time>2022-03-03T09:59:43.000Z</time>
      </trkpt>
      <trkpt lat="44.14337" lon="6.09808">
        <ele>1079</ele>
        <time>2022-03-03T09:59:44.000Z</time>
      </trkpt>
      <trkpt lat="44.14337" lon="6.09808">
        <ele>1079</ele>
        <time>2022-03-03T09:59:45.000Z</time>
      </trkpt>
      <trkpt lat="44.14337" lon="6.09808">
        <ele>1079</ele>
        <time>2022-03-03T09:59:46.000Z</time>
      </trkpt>
      <trkpt lat="44.14337" lon="6.09808">
        <ele>1079</ele>
        <time>2022-03-03T09:59:47.000Z</time>
      </trkpt>
      <trkpt lat="44.14337" lon="6.09808">
        <ele>1079</ele>
        <time>2022-03-03T09:59:48.000Z</time>
      </trkpt>
      <trkpt lat="44.14337" lon="6.09808">
        <ele>1079</ele>
        <time>2022-03-03T09:59:49.000Z</time>
      </trkpt>
      <trkpt lat="44.14337" lon="6.09808">
        <ele>1079</ele>
        <time>2022-03-03T09:59:50.000Z</time>
      </trkpt>
      <trkpt lat="44.14337" lon="6.09808">
        <ele>1079</ele>
        <time>2022-03-03T09:59:51.000Z</time>
      </trkpt>
      <trkpt lat="44.14337" lon="6.09808">
        <ele>1079</ele>
        <time>2022-03-03T09:59:52.000Z</time>
      </trkpt>
      <trkpt lat="44.14337" lon="6.09808">
        <ele>1079</ele>
        <time>2022-03-03T09:59:53.000Z</time>
      </trkpt>
      <trkpt lat="44.14337" lon="6.09808">
        <ele>1079</ele>
        <time>2022-03-03T09:59:54.000Z</time>
      </trkpt>
      <trkpt lat="44.14337" lon="6.09808">
        <ele>1079</ele>
        <time>2022-03-03T09:59:55.000Z</time>
      </trkpt>
      <trkpt lat="44.14337" lon="6.09808">
        <ele>1079</ele>
        <time>2022-03-03T09:59:56.000Z</time>
      </trkpt>
      <trkpt lat="44.14337" lon="6.09808">
        <ele>1079</ele>
        <time>2022-03-03T09:59:57.000Z</time>
      </trkpt>
      <trkpt lat="44.14337" lon="6.09808">
        <ele>1079</ele>
        <time>2022-03-03T09:59:58.000Z</time>
      </trkpt>
      <trkpt lat="44.14337" lon="6.09808">
        <ele>1079</ele>
        <time>2022-03-03T09:59:59.000Z</time>
      </trkpt>
      <trkpt lat="44.14337" lon="6.09808">
        <ele>1079</ele>
        <time>2022-03-03T10:00:00.000Z</time>
      </trkpt>
      <trkpt lat="44.14337" lon="6.09808">
        <ele>1079</ele>
        <time>2022-03-03T10:00:01.000Z</time>
      </trkpt>
      <trkpt lat="44.14337" lon="6.09808">
        <ele>1079</ele>
        <time>2022-03-03T10:00:02.000Z</time>
      </trkpt>
      <trkpt lat="44.14337" lon="6.09808">
        <ele>1079</ele>
        <time>2022-03-03T10:00:03.000Z</time>
      </trkpt>
      <trkpt lat="44.14337" lon="6.09808">
        <ele>1079</ele>
        <time>2022-03-03T10:00:04.000Z</time>
      </trkpt>
      <trkpt lat="44.14337" lon="6.09808">
        <ele>1079</ele>
        <time>2022-03-03T10:00:05.000Z</time>
      </trkpt>
      <trkpt lat="44.14337" lon="6.09808">
        <ele>1079</ele>
        <time>2022-03-03T10:00:06.000Z</time>
      </trkpt>
      <trkpt lat="44.14337" lon="6.09808">
        <ele>1079</ele>
        <time>2022-03-03T10:00:07.000Z</time>
      </trkpt>
      <trkpt lat="44.14337" lon="6.09808">
        <ele>1079</ele>
        <time>2022-03-03T10:00:08.000Z</time>
      </trkpt>
      <trkpt lat="44.14337" lon="6.09808">
        <ele>1079</ele>
        <time>2022-03-03T10:00:09.000Z</time>
      </trkpt>
      <trkpt lat="44.14337" lon="6.09808">
        <ele>1079</ele>
        <time>2022-03-03T10:00:10.000Z</time>
      </trkpt>
      <trkpt lat="44.14337" lon="6.09808">
        <ele>1079</ele>
        <time>2022-03-03T10:00:11.000Z</time>
      </trkpt>
      <trkpt lat="44.14337" lon="6.09808">
        <ele>1079</ele>
        <time>2022-03-03T10:00:12.000Z</time>
      </trkpt>
      <trkpt lat="44.14337" lon="6.09808">
        <ele>1079</ele>
        <time>2022-03-03T10:00:13.000Z</time>
      </trkpt>
      <trkpt lat="44.14337" lon="6.09808">
        <ele>1079</ele>
        <time>2022-03-03T10:00:14.000Z</time>
      </trkpt>
      <trkpt lat="44.14337" lon="6.09808">
        <ele>1079</ele>
        <time>2022-03-03T10:00:15.000Z</time>
      </trkpt>
      <trkpt lat="44.14337" lon="6.09808">
        <ele>1079</ele>
        <time>2022-03-03T10:00:16.000Z</time>
      </trkpt>
      <trkpt lat="44.14337" lon="6.09808">
        <ele>1079</ele>
        <time>2022-03-03T10:00:17.000Z</time>
      </trkpt>
      <trkpt lat="44.14337" lon="6.09808">
        <ele>1079</ele>
        <time>2022-03-03T10:00:18.000Z</time>
      </trkpt>
      <trkpt lat="44.14337" lon="6.09808">
        <ele>1079</ele>
        <time>2022-03-03T10:00:19.000Z</time>
      </trkpt>
      <trkpt lat="44.14337" lon="6.09808">
        <ele>1079</ele>
        <time>2022-03-03T10:00:20.000Z</time>
      </trkpt>
      <trkpt lat="44.14337" lon="6.09808">
        <ele>1079</ele>
        <time>2022-03-03T10:00:21.000Z</time>
      </trkpt>
      <trkpt lat="44.14337" lon="6.09808">
        <ele>1079</ele>
        <time>2022-03-03T10:00:22.000Z</time>
      </trkpt>
      <trkpt lat="44.14337" lon="6.09808">
        <ele>1079</ele>
        <time>2022-03-03T10:00:23.000Z</time>
      </trkpt>
      <trkpt lat="44.14337" lon="6.09808">
        <ele>1079</ele>
        <time>2022-03-03T10:00:24.000Z</time>
      </trkpt>
      <trkpt lat="44.14337" lon="6.09808">
        <ele>1079</ele>
        <time>2022-03-03T10:00:25.000Z</time>
      </trkpt>
      <trkpt lat="44.14337" lon="6.09808">
        <ele>1079</ele>
        <time>2022-03-03T10:00:26.000Z</time>
      </trkpt>
      <trkpt lat="44.14337" lon="6.09808">
        <ele>1079</ele>
        <time>2022-03-03T10:00:27.000Z</time>
      </trkpt>
      <trkpt lat="44.14337" lon="6.09808">
        <ele>1079</ele>
        <time>2022-03-03T10:00:28.000Z</time>
      </trkpt>
      <trkpt lat="44.14337" lon="6.09808">
        <ele>1079</ele>
        <time>2022-03-03T10:00:29.000Z</time>
      </trkpt>
      <trkpt lat="44.14337" lon="6.09808">
        <ele>1079</ele>
        <time>2022-03-03T10:00:30.000Z</time>
      </trkpt>
      <trkpt lat="44.14337" lon="6.09808">
        <ele>1079</ele>
        <time>2022-03-03T10:00:31.000Z</time>
      </trkpt>
      <trkpt lat="44.14337" lon="6.09808">
        <ele>1079</ele>
        <time>2022-03-03T10:00:32.000Z</time>
      </trkpt>
      <trkpt lat="44.14337" lon="6.09808">
        <ele>1079</ele>
        <time>2022-03-03T10:00:33.000Z</time>
      </trkpt>
      <trkpt lat="44.14337" lon="6.09808">
        <ele>1079</ele>
        <time>2022-03-03T10:00:34.000Z</time>
      </trkpt>
      <trkpt lat="44.14337" lon="6.09808">
        <ele>1079</ele>
        <time>2022-03-03T10:00:35.000Z</time>
      </trkpt>
      <trkpt lat="44.14337" lon="6.09808">
        <ele>1079</ele>
        <time>2022-03-03T10:00:36.000Z</time>
      </trkpt>
      <trkpt lat="44.14337" lon="6.09808">
        <ele>1079</ele>
        <time>2022-03-03T10:00:37.000Z</time>
      </trkpt>
      <trkpt lat="44.14337" lon="6.09808">
        <ele>1079</ele>
        <time>2022-03-03T10:00:38.000Z</time>
      </trkpt>
      <trkpt lat="44.14337" lon="6.09808">
        <ele>1079</ele>
        <time>2022-03-03T10:00:39.000Z</time>
      </trkpt>
      <trkpt lat="44.14337" lon="6.09808">
        <ele>1079</ele>
        <time>2022-03-03T10:00:40.000Z</time>
      </trkpt>
      <trkpt lat="44.14337" lon="6.09808">
        <ele>1079</ele>
        <time>2022-03-03T10:00:41.000Z</time>
      </trkpt>
      <trkpt lat="44.14337" lon="6.09808">
        <ele>1079</ele>
        <time>2022-03-03T10:00:42.000Z</time>
      </trkpt>
      <trkpt lat="44.14337" lon="6.09808">
        <ele>1079</ele>
        <time>2022-03-03T10:00:43.000Z</time>
      </trkpt>
      <trkpt lat="44.14337" lon="6.09808">
        <ele>1079</ele>
        <time>2022-03-03T10:00:44.000Z</time>
      </trkpt>
      <trkpt lat="44.14337" lon="6.09808">
        <ele>1079</ele>
        <time>2022-03-03T10:00:45.000Z</time>
      </trkpt>
      <trkpt lat="44.14337" lon="6.09808">
        <ele>1079</ele>
        <time>2022-03-03T10:00:46.000Z</time>
      </trkpt>
      <trkpt lat="44.14337" lon="6.09808">
        <ele>1079</ele>
        <time>2022-03-03T10:00:47.000Z</time>
      </trkpt>
      <trkpt lat="44.14337" lon="6.09808">
        <ele>1079</ele>
        <time>2022-03-03T10:00:48.000Z</time>
      </trkpt>
      <trkpt lat="44.14337" lon="6.09808">
        <ele>1079</ele>
        <time>2022-03-03T10:00:49.000Z</time>
      </trkpt>
      <trkpt lat="44.14337" lon="6.09808">
        <ele>1079</ele>
        <time>2022-03-03T10:00:50.000Z</time>
      </trkpt>
      <trkpt lat="44.14337" lon="6.09808">
        <ele>1079</ele>
        <time>2022-03-03T10:00:51.000Z</time>
      </trkpt>
      <trkpt lat="44.14337" lon="6.09808">
        <ele>1079</ele>
        <time>2022-03-03T10:00:52.000Z</time>
      </trkpt>
      <trkpt lat="44.14337" lon="6.09808">
        <ele>1079</ele>
        <time>2022-03-03T10:00:53.000Z</time>
      </trkpt>
      <trkpt lat="44.14337" lon="6.09808">
        <ele>1079</ele>
        <time>2022-03-03T10:00:54.000Z</time>
      </trkpt>
      <trkpt lat="44.14337" lon="6.09808">
        <ele>1079</ele>
        <time>2022-03-03T10:00:55.000Z</time>
      </trkpt>
      <trkpt lat="44.14337" lon="6.09808">
        <ele>1079</ele>
        <time>2022-03-03T10:00:56.000Z</time>
      </trkpt>
      <trkpt lat="44.14337" lon="6.09808">
        <ele>1079</ele>
        <time>2022-03-03T10:00:57.000Z</time>
      </trkpt>
      <trkpt lat="44.14337" lon="6.09808">
        <ele>1079</ele>
        <time>2022-03-03T10:00:58.000Z</time>
      </trkpt>
      <trkpt lat="44.14337" lon="6.09808">
        <ele>1079</ele>
        <time>2022-03-03T10:00:59.000Z</time>
      </trkpt>
      <trkpt lat="44.14337" lon="6.09808">
        <ele>1079</ele>
        <time>2022-03-03T10:01:00.000Z</time>
      </trkpt>
      <trkpt lat="44.14337" lon="6.09808">
        <ele>1079</ele>
        <time>2022-03-03T10:01:01.000Z</time>
      </trkpt>
      <trkpt lat="44.14337" lon="6.09808">
        <ele>1079</ele>
        <time>2022-03-03T10:01:02.000Z</time>
      </trkpt>
      <trkpt lat="44.14337" lon="6.09808">
        <ele>1079</ele>
        <time>2022-03-03T10:01:03.000Z</time>
      </trkpt>
      <trkpt lat="44.14337" lon="6.09808">
        <ele>1079</ele>
        <time>2022-03-03T10:01:04.000Z</time>
      </trkpt>
      <trkpt lat="44.14337" lon="6.09808">
        <ele>1079</ele>
        <time>2022-03-03T10:01:05.000Z</time>
      </trkpt>
      <trkpt lat="44.14337" lon="6.09808">
        <ele>1079</ele>
        <time>2022-03-03T10:01:06.000Z</time>
      </trkpt>
      <trkpt lat="44.14337" lon="6.09808">
        <ele>1079</ele>
        <time>2022-03-03T10:01:07.000Z</time>
      </trkpt>
      <trkpt lat="44.14337" lon="6.09808">
        <ele>1079</ele>
        <time>2022-03-03T10:01:08.000Z</time>
      </trkpt>
      <trkpt lat="44.14337" lon="6.09808">
        <ele>1079</ele>
        <time>2022-03-03T10:01:09.000Z</time>
      </trkpt>
      <trkpt lat="44.14337" lon="6.09808">
        <ele>1079</ele>
        <time>2022-03-03T10:01:10.000Z</time>
      </trkpt>
      <trkpt lat="44.14337" lon="6.09808">
        <ele>1079</ele>
        <time>2022-03-03T10:01:11.000Z</time>
      </trkpt>
      <trkpt lat="44.14337" lon="6.09808">
        <ele>1079</ele>
        <time>2022-03-03T10:01:12.000Z</time>
      </trkpt>
      <trkpt lat="44.14337" lon="6.09808">
        <ele>1079</ele>
        <time>2022-03-03T10:01:13.000Z</time>
      </trkpt>
      <trkpt lat="44.14337" lon="6.09808">
        <ele>1079</ele>
        <time>2022-03-03T10:01:14.000Z</time>
      </trkpt>
      <trkpt lat="44.14337" lon="6.09808">
        <ele>1079</ele>
        <time>2022-03-03T10:01:15.000Z</time>
      </trkpt>
      <trkpt lat="44.14337" lon="6.09808">
        <ele>1079</ele>
        <time>2022-03-03T10:01:16.000Z</time>
      </trkpt>
      <trkpt lat="44.14337" lon="6.09808">
        <ele>1079</ele>
        <time>2022-03-03T10:01:17.000Z</time>
      </trkpt>
      <trkpt lat="44.14337" lon="6.09808">
        <ele>1079</ele>
        <time>2022-03-03T10:01:18.000Z</time>
      </trkpt>
      <trkpt lat="44.14337" lon="6.09808">
        <ele>1079</ele>
        <time>2022-03-03T10:01:19.000Z</time>
      </trkpt>
      <trkpt lat="44.14338" lon="6.09808">
        <ele>1079</ele>
        <time>2022-03-03T10:01:20.000Z</time>
      </trkpt>
      <trkpt lat="44.14338" lon="6.09808">
        <ele>1079</ele>
        <time>2022-03-03T10:01:21.000Z</time>
      </trkpt>
      <trkpt lat="44.14338" lon="6.09808">
        <ele>1079</ele>
        <time>2022-03-03T10:01:22.000Z</time>
      </trkpt>
      <trkpt lat="44.14338" lon="6.09808">
        <ele>1079</ele>
        <time>2022-03-03T10:01:23.000Z</time>
      </trkpt>
      <trkpt lat="44.14338" lon="6.09808">
        <ele>1079</ele>
        <time>2022-03-03T10:01:24.000Z</time>
      </trkpt>
      <trkpt lat="44.14338" lon="6.09808">
        <ele>1079</ele>
        <time>2022-03-03T10:01:25.000Z</time>
      </trkpt>
      <trkpt lat="44.14338" lon="6.09809">
        <ele>1079</ele>
        <time>2022-03-03T10:01:26.000Z</time>
      </trkpt>
      <trkpt lat="44.14338" lon="6.09808">
        <ele>1079</ele>
        <time>2022-03-03T10:01:27.000Z</time>
      </trkpt>
      <trkpt lat="44.14338" lon="6.09808">
        <ele>1079</ele>
        <time>2022-03-03T10:01:28.000Z</time>
      </trkpt>
      <trkpt lat="44.14338" lon="6.09808">
        <ele>1079</ele>
        <time>2022-03-03T10:01:29.000Z</time>
      </trkpt>
      <trkpt lat="44.14338" lon="6.09808">
        <ele>1079</ele>
        <time>2022-03-03T10:01:30.000Z</time>
      </trkpt>
      <trkpt lat="44.14338" lon="6.09808">
        <ele>1079</ele>
        <time>2022-03-03T10:01:31.000Z</time>
      </trkpt>
      <trkpt lat="44.14338" lon="6.09808">
        <ele>1079</ele>
        <time>2022-03-03T10:01:32.000Z</time>
      </trkpt>
      <trkpt lat="44.14338" lon="6.09808">
        <ele>1079</ele>
        <time>2022-03-03T10:01:33.000Z</time>
      </trkpt>
      <trkpt lat="44.14338" lon="6.09809">
        <ele>1079</ele>
        <time>2022-03-03T10:01:34.000Z</time>
      </trkpt>
      <trkpt lat="44.14338" lon="6.09809">
        <ele>1079</ele>
        <time>2022-03-03T10:01:35.000Z</time>
      </trkpt>
      <trkpt lat="44.14338" lon="6.09809">
        <ele>1079</ele>
        <time>2022-03-03T10:01:36.000Z</time>
      </trkpt>
      <trkpt lat="44.14338" lon="6.09808">
        <ele>1079</ele>
        <time>2022-03-03T10:01:37.000Z</time>
      </trkpt>
      <trkpt lat="44.14338" lon="6.09808">
        <ele>1079</ele>
        <time>2022-03-03T10:01:38.000Z</time>
      </trkpt>
      <trkpt lat="44.14338" lon="6.09808">
        <ele>1079</ele>
        <time>2022-03-03T10:01:39.000Z</time>
      </trkpt>
      <trkpt lat="44.14338" lon="6.09809">
        <ele>1079</ele>
        <time>2022-03-03T10:01:40.000Z</time>
      </trkpt>
      <trkpt lat="44.14338" lon="6.09809">
        <ele>1079</ele>
        <time>2022-03-03T10:01:41.000Z</time>
      </trkpt>
      <trkpt lat="44.14338" lon="6.09809">
        <ele>1079</ele>
        <time>2022-03-03T10:01:42.000Z</time>
      </trkpt>
      <trkpt lat="44.14338" lon="6.09809">
        <ele>1079</ele>
        <time>2022-03-03T10:01:43.000Z</time>
      </trkpt>
      <trkpt lat="44.14338" lon="6.09809">
        <ele>1079</ele>
        <time>2022-03-03T10:01:44.000Z</time>
      </trkpt>
      <trkpt lat="44.14338" lon="6.09808">
        <ele>1079</ele>
        <time>2022-03-03T10:01:45.000Z</time>
      </trkpt>
      <trkpt lat="44.14338" lon="6.09808">
        <ele>1079</ele>
        <time>2022-03-03T10:01:46.000Z</time>
      </trkpt>
      <trkpt lat="44.14338" lon="6.09808">
        <ele>1079</ele>
        <time>2022-03-03T10:01:47.000Z</time>
      </trkpt>
      <trkpt lat="44.14338" lon="6.09808">
        <ele>1079</ele>
        <time>2022-03-03T10:01:48.000Z</time>
      </trkpt>
      <trkpt lat="44.14338" lon="6.09808">
        <ele>1079</ele>
        <time>2022-03-03T10:01:49.000Z</time>
      </trkpt>
      <trkpt lat="44.14338" lon="6.09808">
        <ele>1079</ele>
        <time>2022-03-03T10:01:50.000Z</time>
      </trkpt>
      <trkpt lat="44.14338" lon="6.09808">
        <ele>1079</ele>
        <time>2022-03-03T10:01:51.000Z</time>
      </trkpt>
      <trkpt lat="44.14338" lon="6.09808">
        <ele>1079</ele>
        <time>2022-03-03T10:01:52.000Z</time>
      </trkpt>
      <trkpt lat="44.14338" lon="6.09808">
        <ele>1079</ele>
        <time>2022-03-03T10:01:53.000Z</time>
      </trkpt>
      <trkpt lat="44.14338" lon="6.09808">
        <ele>1079</ele>
        <time>2022-03-03T10:01:54.000Z</time>
      </trkpt>
      <trkpt lat="44.14338" lon="6.09808">
        <ele>1079</ele>
        <time>2022-03-03T10:01:55.000Z</time>
      </trkpt>
      <trkpt lat="44.14338" lon="6.09808">
        <ele>1079</ele>
        <time>2022-03-03T10:01:56.000Z</time>
      </trkpt>
      <trkpt lat="44.14338" lon="6.09808">
        <ele>1079</ele>
        <time>2022-03-03T10:01:57.000Z</time>
      </trkpt>
      <trkpt lat="44.14338" lon="6.09808">
        <ele>1079</ele>
        <time>2022-03-03T10:01:58.000Z</time>
      </trkpt>
      <trkpt lat="44.14338" lon="6.09808">
        <ele>1079</ele>
        <time>2022-03-03T10:01:59.000Z</time>
      </trkpt>
      <trkpt lat="44.14338" lon="6.09808">
        <ele>1079</ele>
        <time>2022-03-03T10:02:00.000Z</time>
      </trkpt>
      <trkpt lat="44.14338" lon="6.09808">
        <ele>1079</ele>
        <time>2022-03-03T10:02:01.000Z</time>
      </trkpt>
      <trkpt lat="44.14338" lon="6.09808">
        <ele>1079</ele>
        <time>2022-03-03T10:02:02.000Z</time>
      </trkpt>
      <trkpt lat="44.14338" lon="6.09808">
        <ele>1079</ele>
        <time>2022-03-03T10:02:03.000Z</time>
      </trkpt>
      <trkpt lat="44.14338" lon="6.09808">
        <ele>1079</ele>
        <time>2022-03-03T10:02:04.000Z</time>
      </trkpt>
      <trkpt lat="44.14337" lon="6.09808">
        <ele>1079</ele>
        <time>2022-03-03T10:02:05.000Z</time>
      </trkpt>
      <trkpt lat="44.14338" lon="6.09808">
        <ele>1079</ele>
        <time>2022-03-03T10:02:06.000Z</time>
      </trkpt>
      <trkpt lat="44.14337" lon="6.09808">
        <ele>1079</ele>
        <time>2022-03-03T10:02:07.000Z</time>
      </trkpt>
      <trkpt lat="44.14338" lon="6.09808">
        <ele>1079</ele>
        <time>2022-03-03T10:02:08.000Z</time>
      </trkpt>
      <trkpt lat="44.14338" lon="6.09808">
        <ele>1079</ele>
        <time>2022-03-03T10:02:09.000Z</time>
      </trkpt>
      <trkpt lat="44.14339" lon="6.09807">
        <ele>1079</ele>
        <time>2022-03-03T10:02:10.000Z</time>
      </trkpt>
      <trkpt lat="44.14339" lon="6.09807">
        <ele>1079</ele>
        <time>2022-03-03T10:02:11.000Z</time>
      </trkpt>
      <trkpt lat="44.1434" lon="6.09806">
        <ele>1080</ele>
        <time>2022-03-03T10:02:12.000Z</time>
      </trkpt>
      <trkpt lat="44.1434" lon="6.09805">
        <ele>1080</ele>
        <time>2022-03-03T10:02:13.000Z</time>
      </trkpt>
      <trkpt lat="44.14341" lon="6.09804">
        <ele>1080</ele>
        <time>2022-03-03T10:02:14.000Z</time>
      </trkpt>
      <trkpt lat="44.14341" lon="6.09803">
        <ele>1080</ele>
        <time>2022-03-03T10:02:15.000Z</time>
      </trkpt>
      <trkpt lat="44.14342" lon="6.09803">
        <ele>1080</ele>
        <time>2022-03-03T10:02:16.000Z</time>
      </trkpt>
      <trkpt lat="44.14342" lon="6.09802">
        <ele>1080</ele>
        <time>2022-03-03T10:02:17.000Z</time>
      </trkpt>
      <trkpt lat="44.14343" lon="6.09801">
        <ele>1080</ele>
        <time>2022-03-03T10:02:18.000Z</time>
      </trkpt>
      <trkpt lat="44.14344" lon="6.098">
        <ele>1080</ele>
        <time>2022-03-03T10:02:19.000Z</time>
      </trkpt>
      <trkpt lat="44.14344" lon="6.09799">
        <ele>1080</ele>
        <time>2022-03-03T10:02:20.000Z</time>
      </trkpt>
      <trkpt lat="44.14345" lon="6.09798">
        <ele>1080</ele>
        <time>2022-03-03T10:02:21.000Z</time>
      </trkpt>
      <trkpt lat="44.14346" lon="6.09797">
        <ele>1080</ele>
        <time>2022-03-03T10:02:22.000Z</time>
      </trkpt>
      <trkpt lat="44.14346" lon="6.09796">
        <ele>1080</ele>
        <time>2022-03-03T10:02:23.000Z</time>
      </trkpt>
      <trkpt lat="44.14347" lon="6.09796">
        <ele>1080</ele>
        <time>2022-03-03T10:02:24.000Z</time>
      </trkpt>
      <trkpt lat="44.14348" lon="6.09795">
        <ele>1080</ele>
        <time>2022-03-03T10:02:25.000Z</time>
      </trkpt>
      <trkpt lat="44.14348" lon="6.09794">
        <ele>1080</ele>
        <time>2022-03-03T10:02:26.000Z</time>
      </trkpt>
      <trkpt lat="44.14349" lon="6.09792">
        <ele>1081</ele>
        <time>2022-03-03T10:02:27.000Z</time>
      </trkpt>
      <trkpt lat="44.14349" lon="6.09792">
        <ele>1081</ele>
        <time>2022-03-03T10:02:28.000Z</time>
      </trkpt>
      <trkpt lat="44.1435" lon="6.09791">
        <ele>1081</ele>
        <time>2022-03-03T10:02:29.000Z</time>
      </trkpt>
      <trkpt lat="44.14351" lon="6.0979">
        <ele>1081</ele>
        <time>2022-03-03T10:02:30.000Z</time>
      </trkpt>
      <trkpt lat="44.14351" lon="6.0979">
        <ele>1081</ele>
        <time>2022-03-03T10:02:31.000Z</time>
      </trkpt>
      <trkpt lat="44.14352" lon="6.09789">
        <ele>1082</ele>
        <time>2022-03-03T10:02:32.000Z</time>
      </trkpt>
      <trkpt lat="44.14353" lon="6.09788">
        <ele>1082</ele>
        <time>2022-03-03T10:02:33.000Z</time>
      </trkpt>
      <trkpt lat="44.14354" lon="6.09787">
        <ele>1082</ele>
        <time>2022-03-03T10:02:34.000Z</time>
      </trkpt>
      <trkpt lat="44.14354" lon="6.09786">
        <ele>1082</ele>
        <time>2022-03-03T10:02:35.000Z</time>
      </trkpt>
      <trkpt lat="44.14355" lon="6.09785">
        <ele>1082</ele>
        <time>2022-03-03T10:02:36.000Z</time>
      </trkpt>
      <trkpt lat="44.14356" lon="6.09785">
        <ele>1082</ele>
        <time>2022-03-03T10:02:37.000Z</time>
      </trkpt>
      <trkpt lat="44.14356" lon="6.09784">
        <ele>1082</ele>
        <time>2022-03-03T10:02:38.000Z</time>
      </trkpt>
      <trkpt lat="44.14357" lon="6.09783">
        <ele>1082</ele>
        <time>2022-03-03T10:02:39.000Z</time>
      </trkpt>
      <trkpt lat="44.14358" lon="6.09782">
        <ele>1082</ele>
        <time>2022-03-03T10:02:40.000Z</time>
      </trkpt>
      <trkpt lat="44.14359" lon="6.09781">
        <ele>1083</ele>
        <time>2022-03-03T10:02:41.000Z</time>
      </trkpt>
      <trkpt lat="44.14359" lon="6.0978">
        <ele>1083</ele>
        <time>2022-03-03T10:02:42.000Z</time>
      </trkpt>
      <trkpt lat="44.1436" lon="6.09779">
        <ele>1083</ele>
        <time>2022-03-03T10:02:43.000Z</time>
      </trkpt>
      <trkpt lat="44.14361" lon="6.09779">
        <ele>1083</ele>
        <time>2022-03-03T10:02:44.000Z</time>
      </trkpt>
      <trkpt lat="44.14362" lon="6.09778">
        <ele>1083</ele>
        <time>2022-03-03T10:02:45.000Z</time>
      </trkpt>
      <trkpt lat="44.14363" lon="6.09778">
        <ele>1083</ele>
        <time>2022-03-03T10:02:46.000Z</time>
      </trkpt>
      <trkpt lat="44.14363" lon="6.09777">
        <ele>1083</ele>
        <time>2022-03-03T10:02:47.000Z</time>
      </trkpt>
      <trkpt lat="44.14364" lon="6.09776">
        <ele>1084</ele>
        <time>2022-03-03T10:02:48.000Z</time>
      </trkpt>
      <trkpt lat="44.14365" lon="6.09776">
        <ele>1084</ele>
        <time>2022-03-03T10:02:49.000Z</time>
      </trkpt>
      <trkpt lat="44.14366" lon="6.09775">
        <ele>1084</ele>
        <time>2022-03-03T10:02:50.000Z</time>
      </trkpt>
      <trkpt lat="44.14366" lon="6.09775">
        <ele>1084</ele>
        <time>2022-03-03T10:02:51.000Z</time>
      </trkpt>
      <trkpt lat="44.14367" lon="6.09774">
        <ele>1084</ele>
        <time>2022-03-03T10:02:52.000Z</time>
      </trkpt>
      <trkpt lat="44.14368" lon="6.09773">
        <ele>1084</ele>
        <time>2022-03-03T10:02:53.000Z</time>
      </trkpt>
      <trkpt lat="44.14369" lon="6.09772">
        <ele>1085</ele>
        <time>2022-03-03T10:02:54.000Z</time>
      </trkpt>
      <trkpt lat="44.14369" lon="6.09771">
        <ele>1085</ele>
        <time>2022-03-03T10:02:55.000Z</time>
      </trkpt>
      <trkpt lat="44.1437" lon="6.09771">
        <ele>1085</ele>
        <time>2022-03-03T10:02:56.000Z</time>
      </trkpt>
      <trkpt lat="44.14371" lon="6.0977">
        <ele>1085</ele>
        <time>2022-03-03T10:02:57.000Z</time>
      </trkpt>
      <trkpt lat="44.14372" lon="6.09769">
        <ele>1085</ele>
        <time>2022-03-03T10:02:58.000Z</time>
      </trkpt>
      <trkpt lat="44.14373" lon="6.09769">
        <ele>1085</ele>
        <time>2022-03-03T10:02:59.000Z</time>
      </trkpt>
      <trkpt lat="44.14373" lon="6.09768">
        <ele>1085</ele>
        <time>2022-03-03T10:03:00.000Z</time>
      </trkpt>
      <trkpt lat="44.14374" lon="6.09767">
        <ele>1086</ele>
        <time>2022-03-03T10:03:01.000Z</time>
      </trkpt>
      <trkpt lat="44.14375" lon="6.09767">
        <ele>1086</ele>
        <time>2022-03-03T10:03:02.000Z</time>
      </trkpt>
      <trkpt lat="44.14375" lon="6.09766">
        <ele>1086</ele>
        <time>2022-03-03T10:03:03.000Z</time>
      </trkpt>
      <trkpt lat="44.14376" lon="6.09765">
        <ele>1086</ele>
        <time>2022-03-03T10:03:04.000Z</time>
      </trkpt>
      <trkpt lat="44.14377" lon="6.09765">
        <ele>1086</ele>
        <time>2022-03-03T10:03:05.000Z</time>
      </trkpt>
      <trkpt lat="44.14377" lon="6.09764">
        <ele>1086</ele>
        <time>2022-03-03T10:03:06.000Z</time>
      </trkpt>
      <trkpt lat="44.14378" lon="6.09763">
        <ele>1087</ele>
        <time>2022-03-03T10:03:07.000Z</time>
      </trkpt>
      <trkpt lat="44.14379" lon="6.09763">
        <ele>1087</ele>
        <time>2022-03-03T10:03:08.000Z</time>
      </trkpt>
      <trkpt lat="44.1438" lon="6.09762">
        <ele>1087</ele>
        <time>2022-03-03T10:03:09.000Z</time>
      </trkpt>
      <trkpt lat="44.1438" lon="6.09761">
        <ele>1087</ele>
        <time>2022-03-03T10:03:10.000Z</time>
      </trkpt>
      <trkpt lat="44.14381" lon="6.0976">
        <ele>1087</ele>
        <time>2022-03-03T10:03:11.000Z</time>
      </trkpt>
      <trkpt lat="44.14382" lon="6.0976">
        <ele>1087</ele>
        <time>2022-03-03T10:03:12.000Z</time>
      </trkpt>
      <trkpt lat="44.14382" lon="6.09759">
        <ele>1088</ele>
        <time>2022-03-03T10:03:13.000Z</time>
      </trkpt>
      <trkpt lat="44.14383" lon="6.09759">
        <ele>1088</ele>
        <time>2022-03-03T10:03:14.000Z</time>
      </trkpt>
      <trkpt lat="44.14384" lon="6.09758">
        <ele>1088</ele>
        <time>2022-03-03T10:03:15.000Z</time>
      </trkpt>
      <trkpt lat="44.14384" lon="6.09757">
        <ele>1088</ele>
        <time>2022-03-03T10:03:16.000Z</time>
      </trkpt>
      <trkpt lat="44.14385" lon="6.09757">
        <ele>1088</ele>
        <time>2022-03-03T10:03:17.000Z</time>
      </trkpt>
      <trkpt lat="44.14386" lon="6.09756">
        <ele>1088</ele>
        <time>2022-03-03T10:03:18.000Z</time>
      </trkpt>
      <trkpt lat="44.14387" lon="6.09756">
        <ele>1089</ele>
        <time>2022-03-03T10:03:19.000Z</time>
      </trkpt>
      <trkpt lat="44.14387" lon="6.09755">
        <ele>1089</ele>
        <time>2022-03-03T10:03:20.000Z</time>
      </trkpt>
      <trkpt lat="44.14388" lon="6.09755">
        <ele>1089</ele>
        <time>2022-03-03T10:03:21.000Z</time>
      </trkpt>
      <trkpt lat="44.14389" lon="6.09754">
        <ele>1089</ele>
        <time>2022-03-03T10:03:22.000Z</time>
      </trkpt>
      <trkpt lat="44.14389" lon="6.09753">
        <ele>1089</ele>
        <time>2022-03-03T10:03:23.000Z</time>
      </trkpt>
      <trkpt lat="44.1439" lon="6.09753">
        <ele>1089</ele>
        <time>2022-03-03T10:03:24.000Z</time>
      </trkpt>
      <trkpt lat="44.14391" lon="6.09752">
        <ele>1090</ele>
        <time>2022-03-03T10:03:25.000Z</time>
      </trkpt>
      <trkpt lat="44.14391" lon="6.09751">
        <ele>1090</ele>
        <time>2022-03-03T10:03:26.000Z</time>
      </trkpt>
      <trkpt lat="44.14392" lon="6.0975">
        <ele>1090</ele>
        <time>2022-03-03T10:03:27.000Z</time>
      </trkpt>
      <trkpt lat="44.14393" lon="6.0975">
        <ele>1090</ele>
        <time>2022-03-03T10:03:28.000Z</time>
      </trkpt>
      <trkpt lat="44.14394" lon="6.09749">
        <ele>1090</ele>
        <time>2022-03-03T10:03:29.000Z</time>
      </trkpt>
      <trkpt lat="44.14394" lon="6.09748">
        <ele>1090</ele>
        <time>2022-03-03T10:03:30.000Z</time>
      </trkpt>
      <trkpt lat="44.14395" lon="6.09748">
        <ele>1090</ele>
        <time>2022-03-03T10:03:31.000Z</time>
      </trkpt>
      <trkpt lat="44.14396" lon="6.09747">
        <ele>1090</ele>
        <time>2022-03-03T10:03:32.000Z</time>
      </trkpt>
      <trkpt lat="44.14396" lon="6.09747">
        <ele>1090</ele>
        <time>2022-03-03T10:03:33.000Z</time>
      </trkpt>
      <trkpt lat="44.14397" lon="6.09746">
        <ele>1090</ele>
        <time>2022-03-03T10:03:34.000Z</time>
      </trkpt>
      <trkpt lat="44.14398" lon="6.09745">
        <ele>1090</ele>
        <time>2022-03-03T10:03:35.000Z</time>
      </trkpt>
      <trkpt lat="44.14398" lon="6.09745">
        <ele>1091</ele>
        <time>2022-03-03T10:03:36.000Z</time>
      </trkpt>
      <trkpt lat="44.14399" lon="6.09744">
        <ele>1091</ele>
        <time>2022-03-03T10:03:37.000Z</time>
      </trkpt>
      <trkpt lat="44.144" lon="6.09744">
        <ele>1091</ele>
        <time>2022-03-03T10:03:38.000Z</time>
      </trkpt>
      <trkpt lat="44.14401" lon="6.09743">
        <ele>1091</ele>
        <time>2022-03-03T10:03:39.000Z</time>
      </trkpt>
      <trkpt lat="44.14401" lon="6.09742">
        <ele>1091</ele>
        <time>2022-03-03T10:03:40.000Z</time>
      </trkpt>
      <trkpt lat="44.14402" lon="6.09742">
        <ele>1091</ele>
        <time>2022-03-03T10:03:41.000Z</time>
      </trkpt>
      <trkpt lat="44.14403" lon="6.09741">
        <ele>1092</ele>
        <time>2022-03-03T10:03:42.000Z</time>
      </trkpt>
      <trkpt lat="44.14403" lon="6.09741">
        <ele>1092</ele>
        <time>2022-03-03T10:03:43.000Z</time>
      </trkpt>
      <trkpt lat="44.14404" lon="6.0974">
        <ele>1092</ele>
        <time>2022-03-03T10:03:44.000Z</time>
      </trkpt>
      <trkpt lat="44.14405" lon="6.0974">
        <ele>1092</ele>
        <time>2022-03-03T10:03:45.000Z</time>
      </trkpt>
      <trkpt lat="44.14406" lon="6.09739">
        <ele>1092</ele>
        <time>2022-03-03T10:03:46.000Z</time>
      </trkpt>
      <trkpt lat="44.14406" lon="6.09739">
        <ele>1092</ele>
        <time>2022-03-03T10:03:47.000Z</time>
      </trkpt>
      <trkpt lat="44.14407" lon="6.09738">
        <ele>1092</ele>
        <time>2022-03-03T10:03:48.000Z</time>
      </trkpt>
      <trkpt lat="44.14408" lon="6.09738">
        <ele>1092</ele>
        <time>2022-03-03T10:03:49.000Z</time>
      </trkpt>
      <trkpt lat="44.14408" lon="6.09737">
        <ele>1093</ele>
        <time>2022-03-03T10:03:50.000Z</time>
      </trkpt>
      <trkpt lat="44.14409" lon="6.09737">
        <ele>1093</ele>
        <time>2022-03-03T10:03:51.000Z</time>
      </trkpt>
      <trkpt lat="44.1441" lon="6.09736">
        <ele>1093</ele>
        <time>2022-03-03T10:03:52.000Z</time>
      </trkpt>
      <trkpt lat="44.1441" lon="6.09736">
        <ele>1093</ele>
        <time>2022-03-03T10:03:53.000Z</time>
      </trkpt>
      <trkpt lat="44.14411" lon="6.09735">
        <ele>1093</ele>
        <time>2022-03-03T10:03:54.000Z</time>
      </trkpt>
      <trkpt lat="44.14411" lon="6.09734">
        <ele>1093</ele>
        <time>2022-03-03T10:03:55.000Z</time>
      </trkpt>
      <trkpt lat="44.14412" lon="6.09734">
        <ele>1093</ele>
        <time>2022-03-03T10:03:56.000Z</time>
      </trkpt>
      <trkpt lat="44.14413" lon="6.09733">
        <ele>1094</ele>
        <time>2022-03-03T10:03:57.000Z</time>
      </trkpt>
      <trkpt lat="44.14413" lon="6.09733">
        <ele>1094</ele>
        <time>2022-03-03T10:03:58.000Z</time>
      </trkpt>
      <trkpt lat="44.14414" lon="6.09732">
        <ele>1094</ele>
        <time>2022-03-03T10:03:59.000Z</time>
      </trkpt>
      <trkpt lat="44.14415" lon="6.09732">
        <ele>1094</ele>
        <time>2022-03-03T10:04:00.000Z</time>
      </trkpt>
      <trkpt lat="44.14415" lon="6.09731">
        <ele>1094</ele>
        <time>2022-03-03T10:04:01.000Z</time>
      </trkpt>
      <trkpt lat="44.14416" lon="6.09731">
        <ele>1094</ele>
        <time>2022-03-03T10:04:02.000Z</time>
      </trkpt>
      <trkpt lat="44.14417" lon="6.0973">
        <ele>1094</ele>
        <time>2022-03-03T10:04:03.000Z</time>
      </trkpt>
      <trkpt lat="44.14418" lon="6.09729">
        <ele>1094</ele>
        <time>2022-03-03T10:04:04.000Z</time>
      </trkpt>
      <trkpt lat="44.14418" lon="6.09729">
        <ele>1094</ele>
        <time>2022-03-03T10:04:05.000Z</time>
      </trkpt>
      <trkpt lat="44.14419" lon="6.09729">
        <ele>1094</ele>
        <time>2022-03-03T10:04:06.000Z</time>
      </trkpt>
      <trkpt lat="44.1442" lon="6.09728">
        <ele>1095</ele>
        <time>2022-03-03T10:04:07.000Z</time>
      </trkpt>
      <trkpt lat="44.1442" lon="6.09728">
        <ele>1095</ele>
        <time>2022-03-03T10:04:08.000Z</time>
      </trkpt>
      <trkpt lat="44.14421" lon="6.09727">
        <ele>1095</ele>
        <time>2022-03-03T10:04:09.000Z</time>
      </trkpt>
      <trkpt lat="44.14421" lon="6.09727">
        <ele>1095</ele>
        <time>2022-03-03T10:04:10.000Z</time>
      </trkpt>
      <trkpt lat="44.14422" lon="6.09726">
        <ele>1095</ele>
        <time>2022-03-03T10:04:11.000Z</time>
      </trkpt>
      <trkpt lat="44.14423" lon="6.09726">
        <ele>1095</ele>
        <time>2022-03-03T10:04:12.000Z</time>
      </trkpt>
      <trkpt lat="44.14423" lon="6.09725">
        <ele>1095</ele>
        <time>2022-03-03T10:04:13.000Z</time>
      </trkpt>
      <trkpt lat="44.14424" lon="6.09725">
        <ele>1095</ele>
        <time>2022-03-03T10:04:14.000Z</time>
      </trkpt>
      <trkpt lat="44.14424" lon="6.09724">
        <ele>1095</ele>
        <time>2022-03-03T10:04:15.000Z</time>
      </trkpt>
      <trkpt lat="44.14425" lon="6.09724">
        <ele>1095</ele>
        <time>2022-03-03T10:04:16.000Z</time>
      </trkpt>
      <trkpt lat="44.14426" lon="6.09723">
        <ele>1096</ele>
        <time>2022-03-03T10:04:17.000Z</time>
      </trkpt>
      <trkpt lat="44.14426" lon="6.09723">
        <ele>1096</ele>
        <time>2022-03-03T10:04:18.000Z</time>
      </trkpt>
      <trkpt lat="44.14427" lon="6.09722">
        <ele>1096</ele>
        <time>2022-03-03T10:04:19.000Z</time>
      </trkpt>
      <trkpt lat="44.14428" lon="6.09721">
        <ele>1096</ele>
        <time>2022-03-03T10:04:20.000Z</time>
      </trkpt>
      <trkpt lat="44.14428" lon="6.09721">
        <ele>1096</ele>
        <time>2022-03-03T10:04:21.000Z</time>
      </trkpt>
      <trkpt lat="44.14429" lon="6.0972">
        <ele>1096</ele>
        <time>2022-03-03T10:04:22.000Z</time>
      </trkpt>
      <trkpt lat="44.1443" lon="6.0972">
        <ele>1097</ele>
        <time>2022-03-03T10:04:23.000Z</time>
      </trkpt>
      <trkpt lat="44.1443" lon="6.09719">
        <ele>1097</ele>
        <time>2022-03-03T10:04:24.000Z</time>
      </trkpt>
      <trkpt lat="44.14431" lon="6.09718">
        <ele>1097</ele>
        <time>2022-03-03T10:04:25.000Z</time>
      </trkpt>
      <trkpt lat="44.14431" lon="6.09718">
        <ele>1097</ele>
        <time>2022-03-03T10:04:26.000Z</time>
      </trkpt>
      <trkpt lat="44.14432" lon="6.09717">
        <ele>1097</ele>
        <time>2022-03-03T10:04:27.000Z</time>
      </trkpt>
      <trkpt lat="44.14433" lon="6.09717">
        <ele>1097</ele>
        <time>2022-03-03T10:04:28.000Z</time>
      </trkpt>
      <trkpt lat="44.14433" lon="6.09716">
        <ele>1097</ele>
        <time>2022-03-03T10:04:29.000Z</time>
      </trkpt>
      <trkpt lat="44.14434" lon="6.09716">
        <ele>1098</ele>
        <time>2022-03-03T10:04:30.000Z</time>
      </trkpt>
      <trkpt lat="44.14435" lon="6.09715">
        <ele>1098</ele>
        <time>2022-03-03T10:04:31.000Z</time>
      </trkpt>
      <trkpt lat="44.14435" lon="6.09715">
        <ele>1098</ele>
        <time>2022-03-03T10:04:32.000Z</time>
      </trkpt>
      <trkpt lat="44.14436" lon="6.09714">
        <ele>1098</ele>
        <time>2022-03-03T10:04:33.000Z</time>
      </trkpt>
      <trkpt lat="44.14436" lon="6.09714">
        <ele>1098</ele>
        <time>2022-03-03T10:04:34.000Z</time>
      </trkpt>
      <trkpt lat="44.14437" lon="6.09713">
        <ele>1098</ele>
        <time>2022-03-03T10:04:35.000Z</time>
      </trkpt>
      <trkpt lat="44.14437" lon="6.09713">
        <ele>1098</ele>
        <time>2022-03-03T10:04:36.000Z</time>
      </trkpt>
      <trkpt lat="44.14438" lon="6.09712">
        <ele>1098</ele>
        <time>2022-03-03T10:04:37.000Z</time>
      </trkpt>
      <trkpt lat="44.14439" lon="6.09712">
        <ele>1098</ele>
        <time>2022-03-03T10:04:38.000Z</time>
      </trkpt>
      <trkpt lat="44.14439" lon="6.09711">
        <ele>1099</ele>
        <time>2022-03-03T10:04:39.000Z</time>
      </trkpt>
      <trkpt lat="44.1444" lon="6.09711">
        <ele>1099</ele>
        <time>2022-03-03T10:04:40.000Z</time>
      </trkpt>
      <trkpt lat="44.1444" lon="6.0971">
        <ele>1099</ele>
        <time>2022-03-03T10:04:41.000Z</time>
      </trkpt>
      <trkpt lat="44.14441" lon="6.0971">
        <ele>1099</ele>
        <time>2022-03-03T10:04:42.000Z</time>
      </trkpt>
      <trkpt lat="44.14441" lon="6.09709">
        <ele>1099</ele>
        <time>2022-03-03T10:04:43.000Z</time>
      </trkpt>
      <trkpt lat="44.14442" lon="6.09709">
        <ele>1099</ele>
        <time>2022-03-03T10:04:44.000Z</time>
      </trkpt>
      <trkpt lat="44.14443" lon="6.09708">
        <ele>1100</ele>
        <time>2022-03-03T10:04:45.000Z</time>
      </trkpt>
      <trkpt lat="44.14443" lon="6.09708">
        <ele>1100</ele>
        <time>2022-03-03T10:04:46.000Z</time>
      </trkpt>
      <trkpt lat="44.14444" lon="6.09707">
        <ele>1100</ele>
        <time>2022-03-03T10:04:47.000Z</time>
      </trkpt>
      <trkpt lat="44.14444" lon="6.09707">
        <ele>1100</ele>
        <time>2022-03-03T10:04:48.000Z</time>
      </trkpt>
      <trkpt lat="44.14445" lon="6.09706">
        <ele>1100</ele>
        <time>2022-03-03T10:04:49.000Z</time>
      </trkpt>
      <trkpt lat="44.14445" lon="6.09706">
        <ele>1100</ele>
        <time>2022-03-03T10:04:50.000Z</time>
      </trkpt>
      <trkpt lat="44.14446" lon="6.09706">
        <ele>1101</ele>
        <time>2022-03-03T10:04:51.000Z</time>
      </trkpt>
      <trkpt lat="44.14446" lon="6.09706">
        <ele>1101</ele>
        <time>2022-03-03T10:04:52.000Z</time>
      </trkpt>
      <trkpt lat="44.14446" lon="6.09706">
        <ele>1101</ele>
        <time>2022-03-03T10:04:53.000Z</time>
      </trkpt>
      <trkpt lat="44.14446" lon="6.09705">
        <ele>1101</ele>
        <time>2022-03-03T10:04:54.000Z</time>
      </trkpt>
      <trkpt lat="44.14446" lon="6.09705">
        <ele>1101</ele>
        <time>2022-03-03T10:04:55.000Z</time>
      </trkpt>
      <trkpt lat="44.14446" lon="6.09705">
        <ele>1101</ele>
        <time>2022-03-03T10:04:56.000Z</time>
      </trkpt>
      <trkpt lat="44.14446" lon="6.09705">
        <ele>1101</ele>
        <time>2022-03-03T10:04:57.000Z</time>
      </trkpt>
      <trkpt lat="44.14446" lon="6.09705">
        <ele>1101</ele>
        <time>2022-03-03T10:04:58.000Z</time>
      </trkpt>
      <trkpt lat="44.14446" lon="6.09705">
        <ele>1101</ele>
        <time>2022-03-03T10:04:59.000Z</time>
      </trkpt>
      <trkpt lat="44.14446" lon="6.09705">
        <ele>1101</ele>
        <time>2022-03-03T10:05:00.000Z</time>
      </trkpt>
      <trkpt lat="44.14446" lon="6.09705">
        <ele>1101</ele>
        <time>2022-03-03T10:05:01.000Z</time>
      </trkpt>
      <trkpt lat="44.14446" lon="6.09705">
        <ele>1101</ele>
        <time>2022-03-03T10:05:02.000Z</time>
      </trkpt>
      <trkpt lat="44.14446" lon="6.09705">
        <ele>1101</ele>
        <time>2022-03-03T10:05:03.000Z</time>
      </trkpt>
      <trkpt lat="44.14446" lon="6.09705">
        <ele>1102</ele>
        <time>2022-03-03T10:05:04.000Z</time>
      </trkpt>
      <trkpt lat="44.14446" lon="6.09705">
        <ele>1102</ele>
        <time>2022-03-03T10:05:05.000Z</time>
      </trkpt>
      <trkpt lat="44.14446" lon="6.09705">
        <ele>1102</ele>
        <time>2022-03-03T10:05:06.000Z</time>
      </trkpt>
      <trkpt lat="44.14446" lon="6.09704">
        <ele>1102</ele>
        <time>2022-03-03T10:05:07.000Z</time>
      </trkpt>
      <trkpt lat="44.14446" lon="6.09704">
        <ele>1102</ele>
        <time>2022-03-03T10:05:08.000Z</time>
      </trkpt>
      <trkpt lat="44.14446" lon="6.09704">
        <ele>1102</ele>
        <time>2022-03-03T10:05:09.000Z</time>
      </trkpt>
      <trkpt lat="44.14446" lon="6.09704">
        <ele>1102</ele>
        <time>2022-03-03T10:05:10.000Z</time>
      </trkpt>
      <trkpt lat="44.14446" lon="6.09705">
        <ele>1102</ele>
        <time>2022-03-03T10:05:11.000Z</time>
      </trkpt>
      <trkpt lat="44.14446" lon="6.09705">
        <ele>1102</ele>
        <time>2022-03-03T10:05:12.000Z</time>
      </trkpt>
      <trkpt lat="44.14446" lon="6.09704">
        <ele>1102</ele>
        <time>2022-03-03T10:05:13.000Z</time>
      </trkpt>
      <trkpt lat="44.14445" lon="6.09704">
        <ele>1102</ele>
        <time>2022-03-03T10:05:14.000Z</time>
      </trkpt>
      <trkpt lat="44.14446" lon="6.09704">
        <ele>1102</ele>
        <time>2022-03-03T10:05:15.000Z</time>
      </trkpt>
      <trkpt lat="44.14445" lon="6.09704">
        <ele>1102</ele>
        <time>2022-03-03T10:05:16.000Z</time>
      </trkpt>
      <trkpt lat="44.14446" lon="6.09705">
        <ele>1102</ele>
        <time>2022-03-03T10:05:17.000Z</time>
      </trkpt>
      <trkpt lat="44.14446" lon="6.09705">
        <ele>1102</ele>
        <time>2022-03-03T10:05:18.000Z</time>
      </trkpt>
      <trkpt lat="44.14446" lon="6.09705">
        <ele>1102</ele>
        <time>2022-03-03T10:05:19.000Z</time>
      </trkpt>
      <trkpt lat="44.14446" lon="6.09704">
        <ele>1102</ele>
        <time>2022-03-03T10:05:20.000Z</time>
      </trkpt>
      <trkpt lat="44.14446" lon="6.09704">
        <ele>1102</ele>
        <time>2022-03-03T10:05:21.000Z</time>
      </trkpt>
      <trkpt lat="44.14446" lon="6.09704">
        <ele>1102</ele>
        <time>2022-03-03T10:05:22.000Z</time>
      </trkpt>
      <trkpt lat="44.14446" lon="6.09704">
        <ele>1102</ele>
        <time>2022-03-03T10:05:23.000Z</time>
      </trkpt>
      <trkpt lat="44.14446" lon="6.09704">
        <ele>1102</ele>
        <time>2022-03-03T10:05:24.000Z</time>
      </trkpt>
      <trkpt lat="44.14446" lon="6.09704">
        <ele>1102</ele>
        <time>2022-03-03T10:05:25.000Z</time>
      </trkpt>
      <trkpt lat="44.14446" lon="6.09704">
        <ele>1102</ele>
        <time>2022-03-03T10:05:26.000Z</time>
      </trkpt>
      <trkpt lat="44.14446" lon="6.09704">
        <ele>1102</ele>
        <time>2022-03-03T10:05:27.000Z</time>
      </trkpt>
      <trkpt lat="44.14446" lon="6.09704">
        <ele>1102</ele>
        <time>2022-03-03T10:05:28.000Z</time>
      </trkpt>
      <trkpt lat="44.14446" lon="6.09704">
        <ele>1102</ele>
        <time>2022-03-03T10:05:29.000Z</time>
      </trkpt>
      <trkpt lat="44.14446" lon="6.09704">
        <ele>1102</ele>
        <time>2022-03-03T10:05:30.000Z</time>
      </trkpt>
      <trkpt lat="44.14446" lon="6.09704">
        <ele>1102</ele>
        <time>2022-03-03T10:05:31.000Z</time>
      </trkpt>
      <trkpt lat="44.14446" lon="6.09704">
        <ele>1102</ele>
        <time>2022-03-03T10:05:32.000Z</time>
      </trkpt>
      <trkpt lat="44.14446" lon="6.09704">
        <ele>1102</ele>
        <time>2022-03-03T10:05:33.000Z</time>
      </trkpt>
      <trkpt lat="44.14446" lon="6.09704">
        <ele>1103</ele>
        <time>2022-03-03T10:05:34.000Z</time>
      </trkpt>
      <trkpt lat="44.14446" lon="6.09704">
        <ele>1103</ele>
        <time>2022-03-03T10:05:35.000Z</time>
      </trkpt>
      <trkpt lat="44.14446" lon="6.09704">
        <ele>1103</ele>
        <time>2022-03-03T10:05:36.000Z</time>
      </trkpt>
      <trkpt lat="44.14446" lon="6.09704">
        <ele>1103</ele>
        <time>2022-03-03T10:05:37.000Z</time>
      </trkpt>
      <trkpt lat="44.14446" lon="6.09704">
        <ele>1103</ele>
        <time>2022-03-03T10:05:38.000Z</time>
      </trkpt>
      <trkpt lat="44.14446" lon="6.09704">
        <ele>1103</ele>
        <time>2022-03-03T10:05:39.000Z</time>
      </trkpt>
      <trkpt lat="44.14446" lon="6.09704">
        <ele>1103</ele>
        <time>2022-03-03T10:05:40.000Z</time>
      </trkpt>
      <trkpt lat="44.14446" lon="6.09704">
        <ele>1103</ele>
        <time>2022-03-03T10:05:41.000Z</time>
      </trkpt>
      <trkpt lat="44.14446" lon="6.09704">
        <ele>1103</ele>
        <time>2022-03-03T10:05:42.000Z</time>
      </trkpt>
      <trkpt lat="44.14446" lon="6.09704">
        <ele>1103</ele>
        <time>2022-03-03T10:05:43.000Z</time>
      </trkpt>
      <trkpt lat="44.14446" lon="6.09704">
        <ele>1103</ele>
        <time>2022-03-03T10:05:44.000Z</time>
      </trkpt>
      <trkpt lat="44.14446" lon="6.09704">
        <ele>1103</ele>
        <time>2022-03-03T10:05:45.000Z</time>
      </trkpt>
      <trkpt lat="44.14446" lon="6.09704">
        <ele>1103</ele>
        <time>2022-03-03T10:05:46.000Z</time>
      </trkpt>
      <trkpt lat="44.14446" lon="6.09704">
        <ele>1103</ele>
        <time>2022-03-03T10:05:47.000Z</time>
      </trkpt>
      <trkpt lat="44.14446" lon="6.09704">
        <ele>1103</ele>
        <time>2022-03-03T10:05:48.000Z</time>
      </trkpt>
      <trkpt lat="44.14446" lon="6.09704">
        <ele>1103</ele>
        <time>2022-03-03T10:05:49.000Z</time>
      </trkpt>
      <trkpt lat="44.14446" lon="6.09704">
        <ele>1103</ele>
        <time>2022-03-03T10:05:50.000Z</time>
      </trkpt>
      <trkpt lat="44.14446" lon="6.09704">
        <ele>1103</ele>
        <time>2022-03-03T10:05:51.000Z</time>
      </trkpt>
      <trkpt lat="44.14446" lon="6.09704">
        <ele>1103</ele>
        <time>2022-03-03T10:05:52.000Z</time>
      </trkpt>
      <trkpt lat="44.14446" lon="6.09704">
        <ele>1103</ele>
        <time>2022-03-03T10:05:53.000Z</time>
      </trkpt>
      <trkpt lat="44.14446" lon="6.09704">
        <ele>1103</ele>
        <time>2022-03-03T10:05:54.000Z</time>
      </trkpt>
      <trkpt lat="44.14446" lon="6.09704">
        <ele>1103</ele>
        <time>2022-03-03T10:05:55.000Z</time>
      </trkpt>
      <trkpt lat="44.14446" lon="6.09704">
        <ele>1103</ele>
        <time>2022-03-03T10:05:56.000Z</time>
      </trkpt>
      <trkpt lat="44.14446" lon="6.09704">
        <ele>1103</ele>
        <time>2022-03-03T10:05:57.000Z</time>
      </trkpt>
      <trkpt lat="44.14446" lon="6.09704">
        <ele>1103</ele>
        <time>2022-03-03T10:05:58.000Z</time>
      </trkpt>
      <trkpt lat="44.14446" lon="6.09704">
        <ele>1103</ele>
        <time>2022-03-03T10:05:59.000Z</time>
      </trkpt>
      <trkpt lat="44.14446" lon="6.09704">
        <ele>1103</ele>
        <time>2022-03-03T10:06:00.000Z</time>
      </trkpt>
      <trkpt lat="44.14446" lon="6.09704">
        <ele>1103</ele>
        <time>2022-03-03T10:06:01.000Z</time>
      </trkpt>
      <trkpt lat="44.14446" lon="6.09704">
        <ele>1103</ele>
        <time>2022-03-03T10:06:02.000Z</time>
      </trkpt>
      <trkpt lat="44.14446" lon="6.09704">
        <ele>1103</ele>
        <time>2022-03-03T10:06:03.000Z</time>
      </trkpt>
      <trkpt lat="44.14446" lon="6.09704">
        <ele>1103</ele>
        <time>2022-03-03T10:06:04.000Z</time>
      </trkpt>
      <trkpt lat="44.14446" lon="6.09704">
        <ele>1103</ele>
        <time>2022-03-03T10:06:05.000Z</time>
      </trkpt>
      <trkpt lat="44.14446" lon="6.09704">
        <ele>1103</ele>
        <time>2022-03-03T10:06:06.000Z</time>
      </trkpt>
      <trkpt lat="44.14446" lon="6.09704">
        <ele>1103</ele>
        <time>2022-03-03T10:06:07.000Z</time>
      </trkpt>
      <trkpt lat="44.14446" lon="6.09704">
        <ele>1103</ele>
        <time>2022-03-03T10:06:08.000Z</time>
      </trkpt>
      <trkpt lat="44.14446" lon="6.09704">
        <ele>1103</ele>
        <time>2022-03-03T10:06:09.000Z</time>
      </trkpt>
      <trkpt lat="44.14446" lon="6.09704">
        <ele>1103</ele>
        <time>2022-03-03T10:06:10.000Z</time>
      </trkpt>
      <trkpt lat="44.14446" lon="6.09704">
        <ele>1103</ele>
        <time>2022-03-03T10:06:11.000Z</time>
      </trkpt>
      <trkpt lat="44.14446" lon="6.09704">
        <ele>1103</ele>
        <time>2022-03-03T10:06:12.000Z</time>
      </trkpt>
      <trkpt lat="44.14446" lon="6.09704">
        <ele>1103</ele>
        <time>2022-03-03T10:06:13.000Z</time>
      </trkpt>
      <trkpt lat="44.14446" lon="6.09704">
        <ele>1103</ele>
        <time>2022-03-03T10:06:14.000Z</time>
      </trkpt>
      <trkpt lat="44.14447" lon="6.09704">
        <ele>1103</ele>
        <time>2022-03-03T10:06:15.000Z</time>
      </trkpt>
      <trkpt lat="44.14447" lon="6.09703">
        <ele>1103</ele>
        <time>2022-03-03T10:06:16.000Z</time>
      </trkpt>
      <trkpt lat="44.14447" lon="6.09703">
        <ele>1103</ele>
        <time>2022-03-03T10:06:17.000Z</time>
      </trkpt>
      <trkpt lat="44.14448" lon="6.09703">
        <ele>1103</ele>
        <time>2022-03-03T10:06:18.000Z</time>
      </trkpt>
      <trkpt lat="44.14448" lon="6.09704">
        <ele>1103</ele>
        <time>2022-03-03T10:06:19.000Z</time>
      </trkpt>
      <trkpt lat="44.14448" lon="6.09704">
        <ele>1103</ele>
        <time>2022-03-03T10:06:20.000Z</time>
      </trkpt>
      <trkpt lat="44.14448" lon="6.09703">
        <ele>1103</ele>
        <time>2022-03-03T10:06:21.000Z</time>
      </trkpt>
      <trkpt lat="44.14449" lon="6.09703">
        <ele>1103</ele>
        <time>2022-03-03T10:06:22.000Z</time>
      </trkpt>
      <trkpt lat="44.14449" lon="6.09702">
        <ele>1103</ele>
        <time>2022-03-03T10:06:23.000Z</time>
      </trkpt>
      <trkpt lat="44.1445" lon="6.09702">
        <ele>1103</ele>
        <time>2022-03-03T10:06:24.000Z</time>
      </trkpt>
      <trkpt lat="44.14451" lon="6.09701">
        <ele>1103</ele>
        <time>2022-03-03T10:06:25.000Z</time>
      </trkpt>
      <trkpt lat="44.14452" lon="6.09701">
        <ele>1103</ele>
        <time>2022-03-03T10:06:26.000Z</time>
      </trkpt>
      <trkpt lat="44.14452" lon="6.097">
        <ele>1104</ele>
        <time>2022-03-03T10:06:27.000Z</time>
      </trkpt>
      <trkpt lat="44.14453" lon="6.09699">
        <ele>1104</ele>
        <time>2022-03-03T10:06:28.000Z</time>
      </trkpt>
      <trkpt lat="44.14454" lon="6.09699">
        <ele>1104</ele>
        <time>2022-03-03T10:06:29.000Z</time>
      </trkpt>
      <trkpt lat="44.14454" lon="6.09698">
        <ele>1104</ele>
        <time>2022-03-03T10:06:30.000Z</time>
      </trkpt>
      <trkpt lat="44.14455" lon="6.09698">
        <ele>1104</ele>
        <time>2022-03-03T10:06:31.000Z</time>
      </trkpt>
      <trkpt lat="44.14456" lon="6.09697">
        <ele>1104</ele>
        <time>2022-03-03T10:06:32.000Z</time>
      </trkpt>
      <trkpt lat="44.14457" lon="6.09696">
        <ele>1104</ele>
        <time>2022-03-03T10:06:33.000Z</time>
      </trkpt>
      <trkpt lat="44.14457" lon="6.09696">
        <ele>1104</ele>
        <time>2022-03-03T10:06:34.000Z</time>
      </trkpt>
      <trkpt lat="44.14458" lon="6.09695">
        <ele>1104</ele>
        <time>2022-03-03T10:06:35.000Z</time>
      </trkpt>
      <trkpt lat="44.14458" lon="6.09695">
        <ele>1104</ele>
        <time>2022-03-03T10:06:36.000Z</time>
      </trkpt>
      <trkpt lat="44.14459" lon="6.09694">
        <ele>1105</ele>
        <time>2022-03-03T10:06:37.000Z</time>
      </trkpt>
      <trkpt lat="44.1446" lon="6.09694">
        <ele>1105</ele>
        <time>2022-03-03T10:06:38.000Z</time>
      </trkpt>
      <trkpt lat="44.14461" lon="6.09693">
        <ele>1105</ele>
        <time>2022-03-03T10:06:39.000Z</time>
      </trkpt>
      <trkpt lat="44.14461" lon="6.09693">
        <ele>1105</ele>
        <time>2022-03-03T10:06:40.000Z</time>
      </trkpt>
      <trkpt lat="44.14462" lon="6.09692">
        <ele>1105</ele>
        <time>2022-03-03T10:06:41.000Z</time>
      </trkpt>
      <trkpt lat="44.14463" lon="6.09691">
        <ele>1106</ele>
        <time>2022-03-03T10:06:42.000Z</time>
      </trkpt>
      <trkpt lat="44.14464" lon="6.0969">
        <ele>1106</ele>
        <time>2022-03-03T10:06:43.000Z</time>
      </trkpt>
      <trkpt lat="44.14464" lon="6.0969">
        <ele>1106</ele>
        <time>2022-03-03T10:06:44.000Z</time>
      </trkpt>
      <trkpt lat="44.14465" lon="6.09689">
        <ele>1106</ele>
        <time>2022-03-03T10:06:45.000Z</time>
      </trkpt>
      <trkpt lat="44.14466" lon="6.09689">
        <ele>1106</ele>
        <time>2022-03-03T10:06:46.000Z</time>
      </trkpt>
      <trkpt lat="44.14466" lon="6.09688">
        <ele>1106</ele>
        <time>2022-03-03T10:06:47.000Z</time>
      </trkpt>
      <trkpt lat="44.14467" lon="6.09688">
        <ele>1106</ele>
        <time>2022-03-03T10:06:48.000Z</time>
      </trkpt>
      <trkpt lat="44.14467" lon="6.09688">
        <ele>1106</ele>
        <time>2022-03-03T10:06:49.000Z</time>
      </trkpt>
      <trkpt lat="44.14469" lon="6.09686">
        <ele>1106</ele>
        <time>2022-03-03T10:06:50.000Z</time>
      </trkpt>
      <trkpt lat="44.14469" lon="6.09686">
        <ele>1106</ele>
        <time>2022-03-03T10:06:51.000Z</time>
      </trkpt>
      <trkpt lat="44.1447" lon="6.09685">
        <ele>1106</ele>
        <time>2022-03-03T10:06:52.000Z</time>
      </trkpt>
      <trkpt lat="44.14471" lon="6.09685">
        <ele>1106</ele>
        <time>2022-03-03T10:06:53.000Z</time>
      </trkpt>
      <trkpt lat="44.14471" lon="6.09685">
        <ele>1106</ele>
        <time>2022-03-03T10:06:54.000Z</time>
      </trkpt>
      <trkpt lat="44.14472" lon="6.09684">
        <ele>1107</ele>
        <time>2022-03-03T10:06:55.000Z</time>
      </trkpt>
      <trkpt lat="44.14473" lon="6.09683">
        <ele>1107</ele>
        <time>2022-03-03T10:06:56.000Z</time>
      </trkpt>
      <trkpt lat="44.14473" lon="6.09682">
        <ele>1107</ele>
        <time>2022-03-03T10:06:57.000Z</time>
      </trkpt>
      <trkpt lat="44.14474" lon="6.09682">
        <ele>1107</ele>
        <time>2022-03-03T10:06:58.000Z</time>
      </trkpt>
      <trkpt lat="44.14475" lon="6.09681">
        <ele>1107</ele>
        <time>2022-03-03T10:06:59.000Z</time>
      </trkpt>
      <trkpt lat="44.14476" lon="6.09681">
        <ele>1107</ele>
        <time>2022-03-03T10:07:00.000Z</time>
      </trkpt>
      <trkpt lat="44.14476" lon="6.0968">
        <ele>1108</ele>
        <time>2022-03-03T10:07:01.000Z</time>
      </trkpt>
      <trkpt lat="44.14477" lon="6.09679">
        <ele>1108</ele>
        <time>2022-03-03T10:07:02.000Z</time>
      </trkpt>
      <trkpt lat="44.14478" lon="6.09679">
        <ele>1108</ele>
        <time>2022-03-03T10:07:03.000Z</time>
      </trkpt>
      <trkpt lat="44.14478" lon="6.09678">
        <ele>1108</ele>
        <time>2022-03-03T10:07:04.000Z</time>
      </trkpt>
      <trkpt lat="44.14479" lon="6.09678">
        <ele>1108</ele>
        <time>2022-03-03T10:07:05.000Z</time>
      </trkpt>
      <trkpt lat="44.1448" lon="6.09677">
        <ele>1108</ele>
        <time>2022-03-03T10:07:06.000Z</time>
      </trkpt>
      <trkpt lat="44.1448" lon="6.09677">
        <ele>1109</ele>
        <time>2022-03-03T10:07:07.000Z</time>
      </trkpt>
      <trkpt lat="44.14481" lon="6.09676">
        <ele>1109</ele>
        <time>2022-03-03T10:07:08.000Z</time>
      </trkpt>
      <trkpt lat="44.14482" lon="6.09675">
        <ele>1109</ele>
        <time>2022-03-03T10:07:09.000Z</time>
      </trkpt>
      <trkpt lat="44.14482" lon="6.09675">
        <ele>1109</ele>
        <time>2022-03-03T10:07:10.000Z</time>
      </trkpt>
      <trkpt lat="44.14483" lon="6.09674">
        <ele>1109</ele>
        <time>2022-03-03T10:07:11.000Z</time>
      </trkpt>
      <trkpt lat="44.14483" lon="6.09674">
        <ele>1109</ele>
        <time>2022-03-03T10:07:12.000Z</time>
      </trkpt>
      <trkpt lat="44.14484" lon="6.09673">
        <ele>1110</ele>
        <time>2022-03-03T10:07:13.000Z</time>
      </trkpt>
      <trkpt lat="44.14484" lon="6.09673">
        <ele>1110</ele>
        <time>2022-03-03T10:07:14.000Z</time>
      </trkpt>
      <trkpt lat="44.14485" lon="6.09672">
        <ele>1110</ele>
        <time>2022-03-03T10:07:15.000Z</time>
      </trkpt>
      <trkpt lat="44.14486" lon="6.09671">
        <ele>1110</ele>
        <time>2022-03-03T10:07:16.000Z</time>
      </trkpt>
      <trkpt lat="44.14487" lon="6.09671">
        <ele>1110</ele>
        <time>2022-03-03T10:07:17.000Z</time>
      </trkpt>
      <trkpt lat="44.14487" lon="6.0967">
        <ele>1110</ele>
        <time>2022-03-03T10:07:18.000Z</time>
      </trkpt>
      <trkpt lat="44.14488" lon="6.0967">
        <ele>1111</ele>
        <time>2022-03-03T10:07:19.000Z</time>
      </trkpt>
      <trkpt lat="44.14489" lon="6.09669">
        <ele>1111</ele>
        <time>2022-03-03T10:07:20.000Z</time>
      </trkpt>
      <trkpt lat="44.1449" lon="6.09669">
        <ele>1111</ele>
        <time>2022-03-03T10:07:21.000Z</time>
      </trkpt>
      <trkpt lat="44.1449" lon="6.09668">
        <ele>1111</ele>
        <time>2022-03-03T10:07:22.000Z</time>
      </trkpt>
      <trkpt lat="44.14491" lon="6.09668">
        <ele>1111</ele>
        <time>2022-03-03T10:07:23.000Z</time>
      </trkpt>
      <trkpt lat="44.14492" lon="6.09667">
        <ele>1111</ele>
        <time>2022-03-03T10:07:24.000Z</time>
      </trkpt>
      <trkpt lat="44.14492" lon="6.09667">
        <ele>1111</ele>
        <time>2022-03-03T10:07:25.000Z</time>
      </trkpt>
      <trkpt lat="44.14493" lon="6.09666">
        <ele>1111</ele>
        <time>2022-03-03T10:07:26.000Z</time>
      </trkpt>
      <trkpt lat="44.14493" lon="6.09666">
        <ele>1112</ele>
        <time>2022-03-03T10:07:27.000Z</time>
      </trkpt>
      <trkpt lat="44.14494" lon="6.09666">
        <ele>1112</ele>
        <time>2022-03-03T10:07:28.000Z</time>
      </trkpt>
      <trkpt lat="44.14495" lon="6.09665">
        <ele>1112</ele>
        <time>2022-03-03T10:07:29.000Z</time>
      </trkpt>
      <trkpt lat="44.14496" lon="6.09665">
        <ele>1112</ele>
        <time>2022-03-03T10:07:30.000Z</time>
      </trkpt>
      <trkpt lat="44.14496" lon="6.09665">
        <ele>1112</ele>
        <time>2022-03-03T10:07:31.000Z</time>
      </trkpt>
      <trkpt lat="44.14497" lon="6.09664">
        <ele>1113</ele>
        <time>2022-03-03T10:07:32.000Z</time>
      </trkpt>
      <trkpt lat="44.14498" lon="6.09664">
        <ele>1113</ele>
        <time>2022-03-03T10:07:33.000Z</time>
      </trkpt>
      <trkpt lat="44.14498" lon="6.09664">
        <ele>1113</ele>
        <time>2022-03-03T10:07:34.000Z</time>
      </trkpt>
      <trkpt lat="44.14499" lon="6.09663">
        <ele>1113</ele>
        <time>2022-03-03T10:07:35.000Z</time>
      </trkpt>
      <trkpt lat="44.145" lon="6.09663">
        <ele>1113</ele>
        <time>2022-03-03T10:07:36.000Z</time>
      </trkpt>
      <trkpt lat="44.145" lon="6.09663">
        <ele>1113</ele>
        <time>2022-03-03T10:07:37.000Z</time>
      </trkpt>
      <trkpt lat="44.14501" lon="6.09663">
        <ele>1113</ele>
        <time>2022-03-03T10:07:38.000Z</time>
      </trkpt>
      <trkpt lat="44.14502" lon="6.09662">
        <ele>1114</ele>
        <time>2022-03-03T10:07:39.000Z</time>
      </trkpt>
      <trkpt lat="44.14502" lon="6.09662">
        <ele>1114</ele>
        <time>2022-03-03T10:07:40.000Z</time>
      </trkpt>
      <trkpt lat="44.14503" lon="6.09661">
        <ele>1114</ele>
        <time>2022-03-03T10:07:41.000Z</time>
      </trkpt>
      <trkpt lat="44.14504" lon="6.09661">
        <ele>1114</ele>
        <time>2022-03-03T10:07:42.000Z</time>
      </trkpt>
      <trkpt lat="44.14505" lon="6.0966">
        <ele>1114</ele>
        <time>2022-03-03T10:07:43.000Z</time>
      </trkpt>
      <trkpt lat="44.14505" lon="6.0966">
        <ele>1114</ele>
        <time>2022-03-03T10:07:44.000Z</time>
      </trkpt>
      <trkpt lat="44.14506" lon="6.09659">
        <ele>1114</ele>
        <time>2022-03-03T10:07:45.000Z</time>
      </trkpt>
      <trkpt lat="44.14506" lon="6.09659">
        <ele>1114</ele>
        <time>2022-03-03T10:07:46.000Z</time>
      </trkpt>
      <trkpt lat="44.14507" lon="6.09658">
        <ele>1114</ele>
        <time>2022-03-03T10:07:47.000Z</time>
      </trkpt>
      <trkpt lat="44.14508" lon="6.09658">
        <ele>1115</ele>
        <time>2022-03-03T10:07:48.000Z</time>
      </trkpt>
      <trkpt lat="44.14509" lon="6.09657">
        <ele>1115</ele>
        <time>2022-03-03T10:07:49.000Z</time>
      </trkpt>
      <trkpt lat="44.14509" lon="6.09657">
        <ele>1115</ele>
        <time>2022-03-03T10:07:50.000Z</time>
      </trkpt>
      <trkpt lat="44.1451" lon="6.09656">
        <ele>1115</ele>
        <time>2022-03-03T10:07:51.000Z</time>
      </trkpt>
      <trkpt lat="44.14511" lon="6.09656">
        <ele>1115</ele>
        <time>2022-03-03T10:07:52.000Z</time>
      </trkpt>
      <trkpt lat="44.14511" lon="6.09655">
        <ele>1115</ele>
        <time>2022-03-03T10:07:53.000Z</time>
      </trkpt>
      <trkpt lat="44.14512" lon="6.09654">
        <ele>1115</ele>
        <time>2022-03-03T10:07:54.000Z</time>
      </trkpt>
      <trkpt lat="44.14512" lon="6.09654">
        <ele>1115</ele>
        <time>2022-03-03T10:07:55.000Z</time>
      </trkpt>
      <trkpt lat="44.14513" lon="6.09653">
        <ele>1115</ele>
        <time>2022-03-03T10:07:56.000Z</time>
      </trkpt>
      <trkpt lat="44.14514" lon="6.09652">
        <ele>1115</ele>
        <time>2022-03-03T10:07:57.000Z</time>
      </trkpt>
      <trkpt lat="44.14514" lon="6.09652">
        <ele>1115</ele>
        <time>2022-03-03T10:07:58.000Z</time>
      </trkpt>
      <trkpt lat="44.14515" lon="6.09651">
        <ele>1116</ele>
        <time>2022-03-03T10:07:59.000Z</time>
      </trkpt>
      <trkpt lat="44.14515" lon="6.0965">
        <ele>1116</ele>
        <time>2022-03-03T10:08:00.000Z</time>
      </trkpt>
      <trkpt lat="44.14516" lon="6.0965">
        <ele>1116</ele>
        <time>2022-03-03T10:08:01.000Z</time>
      </trkpt>
      <trkpt lat="44.14516" lon="6.09649">
        <ele>1116</ele>
        <time>2022-03-03T10:08:02.000Z</time>
      </trkpt>
      <trkpt lat="44.14517" lon="6.09648">
        <ele>1116</ele>
        <time>2022-03-03T10:08:03.000Z</time>
      </trkpt>
      <trkpt lat="44.14518" lon="6.09648">
        <ele>1117</ele>
        <time>2022-03-03T10:08:04.000Z</time>
      </trkpt>
      <trkpt lat="44.14518" lon="6.09647">
        <ele>1117</ele>
        <time>2022-03-03T10:08:05.000Z</time>
      </trkpt>
      <trkpt lat="44.14519" lon="6.09646">
        <ele>1117</ele>
        <time>2022-03-03T10:08:06.000Z</time>
      </trkpt>
      <trkpt lat="44.14519" lon="6.09645">
        <ele>1117</ele>
        <time>2022-03-03T10:08:07.000Z</time>
      </trkpt>
      <trkpt lat="44.1452" lon="6.09644">
        <ele>1117</ele>
        <time>2022-03-03T10:08:08.000Z</time>
      </trkpt>
      <trkpt lat="44.14521" lon="6.09644">
        <ele>1117</ele>
        <time>2022-03-03T10:08:09.000Z</time>
      </trkpt>
      <trkpt lat="44.14521" lon="6.09643">
        <ele>1117</ele>
        <time>2022-03-03T10:08:10.000Z</time>
      </trkpt>
      <trkpt lat="44.14522" lon="6.09643">
        <ele>1117</ele>
        <time>2022-03-03T10:08:11.000Z</time>
      </trkpt>
      <trkpt lat="44.14523" lon="6.09642">
        <ele>1118</ele>
        <time>2022-03-03T10:08:12.000Z</time>
      </trkpt>
      <trkpt lat="44.14523" lon="6.09642">
        <ele>1118</ele>
        <time>2022-03-03T10:08:13.000Z</time>
      </trkpt>
      <trkpt lat="44.14524" lon="6.09642">
        <ele>1118</ele>
        <time>2022-03-03T10:08:14.000Z</time>
      </trkpt>
      <trkpt lat="44.14525" lon="6.09641">
        <ele>1118</ele>
        <time>2022-03-03T10:08:15.000Z</time>
      </trkpt>
      <trkpt lat="44.14525" lon="6.09641">
        <ele>1118</ele>
        <time>2022-03-03T10:08:16.000Z</time>
      </trkpt>
      <trkpt lat="44.14526" lon="6.0964">
        <ele>1118</ele>
        <time>2022-03-03T10:08:17.000Z</time>
      </trkpt>
      <trkpt lat="44.14527" lon="6.0964">
        <ele>1118</ele>
        <time>2022-03-03T10:08:18.000Z</time>
      </trkpt>
      <trkpt lat="44.14527" lon="6.0964">
        <ele>1118</ele>
        <time>2022-03-03T10:08:19.000Z</time>
      </trkpt>
      <trkpt lat="44.14528" lon="6.09639">
        <ele>1118</ele>
        <time>2022-03-03T10:08:20.000Z</time>
      </trkpt>
      <trkpt lat="44.14529" lon="6.09639">
        <ele>1119</ele>
        <time>2022-03-03T10:08:21.000Z</time>
      </trkpt>
      <trkpt lat="44.14529" lon="6.09639">
        <ele>1119</ele>
        <time>2022-03-03T10:08:22.000Z</time>
      </trkpt>
      <trkpt lat="44.1453" lon="6.09638">
        <ele>1119</ele>
        <time>2022-03-03T10:08:23.000Z</time>
      </trkpt>
      <trkpt lat="44.14531" lon="6.09638">
        <ele>1119</ele>
        <time>2022-03-03T10:08:24.000Z</time>
      </trkpt>
      <trkpt lat="44.14532" lon="6.09638">
        <ele>1119</ele>
        <time>2022-03-03T10:08:25.000Z</time>
      </trkpt>
      <trkpt lat="44.14532" lon="6.09637">
        <ele>1119</ele>
        <time>2022-03-03T10:08:26.000Z</time>
      </trkpt>
      <trkpt lat="44.14533" lon="6.09637">
        <ele>1119</ele>
        <time>2022-03-03T10:08:27.000Z</time>
      </trkpt>
      <trkpt lat="44.14534" lon="6.09637">
        <ele>1119</ele>
        <time>2022-03-03T10:08:28.000Z</time>
      </trkpt>
      <trkpt lat="44.14534" lon="6.09637">
        <ele>1120</ele>
        <time>2022-03-03T10:08:29.000Z</time>
      </trkpt>
      <trkpt lat="44.14535" lon="6.09636">
        <ele>1120</ele>
        <time>2022-03-03T10:08:30.000Z</time>
      </trkpt>
      <trkpt lat="44.14536" lon="6.09636">
        <ele>1120</ele>
        <time>2022-03-03T10:08:31.000Z</time>
      </trkpt>
      <trkpt lat="44.14537" lon="6.09636">
        <ele>1120</ele>
        <time>2022-03-03T10:08:32.000Z</time>
      </trkpt>
      <trkpt lat="44.14537" lon="6.09635">
        <ele>1120</ele>
        <time>2022-03-03T10:08:33.000Z</time>
      </trkpt>
      <trkpt lat="44.14538" lon="6.09635">
        <ele>1120</ele>
        <time>2022-03-03T10:08:34.000Z</time>
      </trkpt>
      <trkpt lat="44.14539" lon="6.09634">
        <ele>1120</ele>
        <time>2022-03-03T10:08:35.000Z</time>
      </trkpt>
      <trkpt lat="44.14539" lon="6.09633">
        <ele>1120</ele>
        <time>2022-03-03T10:08:36.000Z</time>
      </trkpt>
      <trkpt lat="44.1454" lon="6.09633">
        <ele>1121</ele>
        <time>2022-03-03T10:08:37.000Z</time>
      </trkpt>
      <trkpt lat="44.14541" lon="6.09632">
        <ele>1121</ele>
        <time>2022-03-03T10:08:38.000Z</time>
      </trkpt>
      <trkpt lat="44.14541" lon="6.09632">
        <ele>1121</ele>
        <time>2022-03-03T10:08:39.000Z</time>
      </trkpt>
      <trkpt lat="44.14542" lon="6.09631">
        <ele>1121</ele>
        <time>2022-03-03T10:08:40.000Z</time>
      </trkpt>
      <trkpt lat="44.14543" lon="6.09631">
        <ele>1121</ele>
        <time>2022-03-03T10:08:41.000Z</time>
      </trkpt>
      <trkpt lat="44.14543" lon="6.09631">
        <ele>1121</ele>
        <time>2022-03-03T10:08:42.000Z</time>
      </trkpt>
      <trkpt lat="44.14544" lon="6.09629">
        <ele>1121</ele>
        <time>2022-03-03T10:08:43.000Z</time>
      </trkpt>
      <trkpt lat="44.14545" lon="6.09629">
        <ele>1121</ele>
        <time>2022-03-03T10:08:44.000Z</time>
      </trkpt>
      <trkpt lat="44.14546" lon="6.09628">
        <ele>1122</ele>
        <time>2022-03-03T10:08:45.000Z</time>
      </trkpt>
      <trkpt lat="44.14547" lon="6.09627">
        <ele>1122</ele>
        <time>2022-03-03T10:08:46.000Z</time>
      </trkpt>
      <trkpt lat="44.14548" lon="6.09627">
        <ele>1122</ele>
        <time>2022-03-03T10:08:47.000Z</time>
      </trkpt>
      <trkpt lat="44.14548" lon="6.09626">
        <ele>1122</ele>
        <time>2022-03-03T10:08:48.000Z</time>
      </trkpt>
      <trkpt lat="44.14549" lon="6.09625">
        <ele>1122</ele>
        <time>2022-03-03T10:08:49.000Z</time>
      </trkpt>
      <trkpt lat="44.1455" lon="6.09625">
        <ele>1122</ele>
        <time>2022-03-03T10:08:50.000Z</time>
      </trkpt>
      <trkpt lat="44.14551" lon="6.09625">
        <ele>1122</ele>
        <time>2022-03-03T10:08:51.000Z</time>
      </trkpt>
      <trkpt lat="44.14552" lon="6.09624">
        <ele>1122</ele>
        <time>2022-03-03T10:08:52.000Z</time>
      </trkpt>
      <trkpt lat="44.14553" lon="6.09624">
        <ele>1123</ele>
        <time>2022-03-03T10:08:53.000Z</time>
      </trkpt>
      <trkpt lat="44.14553" lon="6.09624">
        <ele>1123</ele>
        <time>2022-03-03T10:08:54.000Z</time>
      </trkpt>
      <trkpt lat="44.14554" lon="6.09623">
        <ele>1123</ele>
        <time>2022-03-03T10:08:55.000Z</time>
      </trkpt>
      <trkpt lat="44.14555" lon="6.09623">
        <ele>1123</ele>
        <time>2022-03-03T10:08:56.000Z</time>
      </trkpt>
      <trkpt lat="44.14556" lon="6.09623">
        <ele>1123</ele>
        <time>2022-03-03T10:08:57.000Z</time>
      </trkpt>
      <trkpt lat="44.14557" lon="6.09623">
        <ele>1123</ele>
        <time>2022-03-03T10:08:58.000Z</time>
      </trkpt>
      <trkpt lat="44.14558" lon="6.09623">
        <ele>1123</ele>
        <time>2022-03-03T10:08:59.000Z</time>
      </trkpt>
      <trkpt lat="44.14558" lon="6.09623">
        <ele>1123</ele>
        <time>2022-03-03T10:09:00.000Z</time>
      </trkpt>
      <trkpt lat="44.14559" lon="6.09622">
        <ele>1124</ele>
        <time>2022-03-03T10:09:01.000Z</time>
      </trkpt>
      <trkpt lat="44.1456" lon="6.09622">
        <ele>1124</ele>
        <time>2022-03-03T10:09:02.000Z</time>
      </trkpt>
      <trkpt lat="44.14561" lon="6.09621">
        <ele>1124</ele>
        <time>2022-03-03T10:09:03.000Z</time>
      </trkpt>
      <trkpt lat="44.14562" lon="6.09621">
        <ele>1124</ele>
        <time>2022-03-03T10:09:04.000Z</time>
      </trkpt>
      <trkpt lat="44.14563" lon="6.09621">
        <ele>1124</ele>
        <time>2022-03-03T10:09:05.000Z</time>
      </trkpt>
      <trkpt lat="44.14563" lon="6.0962">
        <ele>1124</ele>
        <time>2022-03-03T10:09:06.000Z</time>
      </trkpt>
      <trkpt lat="44.14564" lon="6.0962">
        <ele>1124</ele>
        <time>2022-03-03T10:09:07.000Z</time>
      </trkpt>
      <trkpt lat="44.14565" lon="6.0962">
        <ele>1125</ele>
        <time>2022-03-03T10:09:08.000Z</time>
      </trkpt>
      <trkpt lat="44.14566" lon="6.0962">
        <ele>1125</ele>
        <time>2022-03-03T10:09:09.000Z</time>
      </trkpt>
      <trkpt lat="44.14567" lon="6.09619">
        <ele>1125</ele>
        <time>2022-03-03T10:09:10.000Z</time>
      </trkpt>
      <trkpt lat="44.14568" lon="6.09619">
        <ele>1125</ele>
        <time>2022-03-03T10:09:11.000Z</time>
      </trkpt>
      <trkpt lat="44.14568" lon="6.09619">
        <ele>1125</ele>
        <time>2022-03-03T10:09:12.000Z</time>
      </trkpt>
      <trkpt lat="44.14569" lon="6.09619">
        <ele>1125</ele>
        <time>2022-03-03T10:09:13.000Z</time>
      </trkpt>
      <trkpt lat="44.1457" lon="6.09619">
        <ele>1126</ele>
        <time>2022-03-03T10:09:14.000Z</time>
      </trkpt>
      <trkpt lat="44.14571" lon="6.09618">
        <ele>1126</ele>
        <time>2022-03-03T10:09:15.000Z</time>
      </trkpt>
      <trkpt lat="44.14571" lon="6.09618">
        <ele>1126</ele>
        <time>2022-03-03T10:09:16.000Z</time>
      </trkpt>
      <trkpt lat="44.14572" lon="6.09617">
        <ele>1126</ele>
        <time>2022-03-03T10:09:17.000Z</time>
      </trkpt>
      <trkpt lat="44.14573" lon="6.09617">
        <ele>1126</ele>
        <time>2022-03-03T10:09:18.000Z</time>
      </trkpt>
      <trkpt lat="44.14574" lon="6.09617">
        <ele>1126</ele>
        <time>2022-03-03T10:09:19.000Z</time>
      </trkpt>
      <trkpt lat="44.14575" lon="6.09616">
        <ele>1126</ele>
        <time>2022-03-03T10:09:20.000Z</time>
      </trkpt>
      <trkpt lat="44.14576" lon="6.09616">
        <ele>1126</ele>
        <time>2022-03-03T10:09:21.000Z</time>
      </trkpt>
      <trkpt lat="44.14576" lon="6.09616">
        <ele>1126</ele>
        <time>2022-03-03T10:09:22.000Z</time>
      </trkpt>
      <trkpt lat="44.14577" lon="6.09616">
        <ele>1126</ele>
        <time>2022-03-03T10:09:23.000Z</time>
      </trkpt>
      <trkpt lat="44.14578" lon="6.09615">
        <ele>1127</ele>
        <time>2022-03-03T10:09:24.000Z</time>
      </trkpt>
      <trkpt lat="44.14579" lon="6.09615">
        <ele>1127</ele>
        <time>2022-03-03T10:09:25.000Z</time>
      </trkpt>
      <trkpt lat="44.14579" lon="6.09615">
        <ele>1127</ele>
        <time>2022-03-03T10:09:26.000Z</time>
      </trkpt>
      <trkpt lat="44.14581" lon="6.09614">
        <ele>1127</ele>
        <time>2022-03-03T10:09:27.000Z</time>
      </trkpt>
      <trkpt lat="44.14581" lon="6.09613">
        <ele>1127</ele>
        <time>2022-03-03T10:09:28.000Z</time>
      </trkpt>
      <trkpt lat="44.14582" lon="6.09613">
        <ele>1127</ele>
        <time>2022-03-03T10:09:29.000Z</time>
      </trkpt>
      <trkpt lat="44.14583" lon="6.09613">
        <ele>1127</ele>
        <time>2022-03-03T10:09:30.000Z</time>
      </trkpt>
      <trkpt lat="44.14584" lon="6.09612">
        <ele>1127</ele>
        <time>2022-03-03T10:09:31.000Z</time>
      </trkpt>
      <trkpt lat="44.14585" lon="6.09612">
        <ele>1128</ele>
        <time>2022-03-03T10:09:32.000Z</time>
      </trkpt>
      <trkpt lat="44.14585" lon="6.09612">
        <ele>1128</ele>
        <time>2022-03-03T10:09:33.000Z</time>
      </trkpt>
      <trkpt lat="44.14586" lon="6.0961">
        <ele>1128</ele>
        <time>2022-03-03T10:09:34.000Z</time>
      </trkpt>
      <trkpt lat="44.14587" lon="6.0961">
        <ele>1128</ele>
        <time>2022-03-03T10:09:35.000Z</time>
      </trkpt>
      <trkpt lat="44.14588" lon="6.09609">
        <ele>1128</ele>
        <time>2022-03-03T10:09:36.000Z</time>
      </trkpt>
      <trkpt lat="44.14588" lon="6.09609">
        <ele>1128</ele>
        <time>2022-03-03T10:09:37.000Z</time>
      </trkpt>
      <trkpt lat="44.14589" lon="6.09609">
        <ele>1128</ele>
        <time>2022-03-03T10:09:38.000Z</time>
      </trkpt>
      <trkpt lat="44.1459" lon="6.09608">
        <ele>1128</ele>
        <time>2022-03-03T10:09:39.000Z</time>
      </trkpt>
      <trkpt lat="44.14591" lon="6.09608">
        <ele>1128</ele>
        <time>2022-03-03T10:09:40.000Z</time>
      </trkpt>
      <trkpt lat="44.14592" lon="6.09607">
        <ele>1128</ele>
        <time>2022-03-03T10:09:41.000Z</time>
      </trkpt>
      <trkpt lat="44.14592" lon="6.09607">
        <ele>1128</ele>
        <time>2022-03-03T10:09:42.000Z</time>
      </trkpt>
      <trkpt lat="44.14593" lon="6.09606">
        <ele>1128</ele>
        <time>2022-03-03T10:09:43.000Z</time>
      </trkpt>
      <trkpt lat="44.14593" lon="6.09606">
        <ele>1128</ele>
        <time>2022-03-03T10:09:44.000Z</time>
      </trkpt>
      <trkpt lat="44.14595" lon="6.09605">
        <ele>1128</ele>
        <time>2022-03-03T10:09:45.000Z</time>
      </trkpt>
      <trkpt lat="44.14596" lon="6.09605">
        <ele>1129</ele>
        <time>2022-03-03T10:09:46.000Z</time>
      </trkpt>
      <trkpt lat="44.14597" lon="6.09605">
        <ele>1129</ele>
        <time>2022-03-03T10:09:47.000Z</time>
      </trkpt>
      <trkpt lat="44.14598" lon="6.09605">
        <ele>1129</ele>
        <time>2022-03-03T10:09:48.000Z</time>
      </trkpt>
      <trkpt lat="44.14598" lon="6.09604">
        <ele>1129</ele>
        <time>2022-03-03T10:09:49.000Z</time>
      </trkpt>
      <trkpt lat="44.14599" lon="6.09604">
        <ele>1129</ele>
        <time>2022-03-03T10:09:50.000Z</time>
      </trkpt>
      <trkpt lat="44.146" lon="6.09603">
        <ele>1129</ele>
        <time>2022-03-03T10:09:51.000Z</time>
      </trkpt>
      <trkpt lat="44.14601" lon="6.09603">
        <ele>1129</ele>
        <time>2022-03-03T10:09:52.000Z</time>
      </trkpt>
      <trkpt lat="44.14602" lon="6.09602">
        <ele>1129</ele>
        <time>2022-03-03T10:09:53.000Z</time>
      </trkpt>
      <trkpt lat="44.14603" lon="6.09602">
        <ele>1129</ele>
        <time>2022-03-03T10:09:54.000Z</time>
      </trkpt>
      <trkpt lat="44.14604" lon="6.09602">
        <ele>1129</ele>
        <time>2022-03-03T10:09:55.000Z</time>
      </trkpt>
      <trkpt lat="44.14605" lon="6.09601">
        <ele>1129</ele>
        <time>2022-03-03T10:09:56.000Z</time>
      </trkpt>
      <trkpt lat="44.14606" lon="6.09601">
        <ele>1129</ele>
        <time>2022-03-03T10:09:57.000Z</time>
      </trkpt>
      <trkpt lat="44.14607" lon="6.096">
        <ele>1129</ele>
        <time>2022-03-03T10:09:58.000Z</time>
      </trkpt>
      <trkpt lat="44.14607" lon="6.096">
        <ele>1129</ele>
        <time>2022-03-03T10:09:59.000Z</time>
      </trkpt>
      <trkpt lat="44.14609" lon="6.09599">
        <ele>1130</ele>
        <time>2022-03-03T10:10:00.000Z</time>
      </trkpt>
      <trkpt lat="44.14609" lon="6.09599">
        <ele>1130</ele>
        <time>2022-03-03T10:10:01.000Z</time>
      </trkpt>
      <trkpt lat="44.1461" lon="6.09598">
        <ele>1130</ele>
        <time>2022-03-03T10:10:02.000Z</time>
      </trkpt>
      <trkpt lat="44.14611" lon="6.09598">
        <ele>1130</ele>
        <time>2022-03-03T10:10:03.000Z</time>
      </trkpt>
      <trkpt lat="44.14612" lon="6.09597">
        <ele>1130</ele>
        <time>2022-03-03T10:10:04.000Z</time>
      </trkpt>
      <trkpt lat="44.14612" lon="6.09597">
        <ele>1130</ele>
        <time>2022-03-03T10:10:05.000Z</time>
      </trkpt>
      <trkpt lat="44.14613" lon="6.09596">
        <ele>1130</ele>
        <time>2022-03-03T10:10:06.000Z</time>
      </trkpt>
      <trkpt lat="44.14614" lon="6.09596">
        <ele>1130</ele>
        <time>2022-03-03T10:10:07.000Z</time>
      </trkpt>
      <trkpt lat="44.14615" lon="6.09595">
        <ele>1130</ele>
        <time>2022-03-03T10:10:08.000Z</time>
      </trkpt>
      <trkpt lat="44.14616" lon="6.09594">
        <ele>1130</ele>
        <time>2022-03-03T10:10:09.000Z</time>
      </trkpt>
      <trkpt lat="44.14617" lon="6.09594">
        <ele>1130</ele>
        <time>2022-03-03T10:10:10.000Z</time>
      </trkpt>
      <trkpt lat="44.14618" lon="6.09593">
        <ele>1130</ele>
        <time>2022-03-03T10:10:11.000Z</time>
      </trkpt>
      <trkpt lat="44.14619" lon="6.09592">
        <ele>1130</ele>
        <time>2022-03-03T10:10:12.000Z</time>
      </trkpt>
      <trkpt lat="44.1462" lon="6.09591">
        <ele>1130</ele>
        <time>2022-03-03T10:10:13.000Z</time>
      </trkpt>
      <trkpt lat="44.14621" lon="6.0959">
        <ele>1130</ele>
        <time>2022-03-03T10:10:14.000Z</time>
      </trkpt>
      <trkpt lat="44.14622" lon="6.0959">
        <ele>1131</ele>
        <time>2022-03-03T10:10:15.000Z</time>
      </trkpt>
      <trkpt lat="44.14622" lon="6.0959">
        <ele>1131</ele>
        <time>2022-03-03T10:10:16.000Z</time>
      </trkpt>
      <trkpt lat="44.14623" lon="6.09588">
        <ele>1131</ele>
        <time>2022-03-03T10:10:17.000Z</time>
      </trkpt>
      <trkpt lat="44.14624" lon="6.09588">
        <ele>1131</ele>
        <time>2022-03-03T10:10:18.000Z</time>
      </trkpt>
      <trkpt lat="44.14625" lon="6.09587">
        <ele>1131</ele>
        <time>2022-03-03T10:10:19.000Z</time>
      </trkpt>
      <trkpt lat="44.14625" lon="6.09586">
        <ele>1131</ele>
        <time>2022-03-03T10:10:20.000Z</time>
      </trkpt>
      <trkpt lat="44.14626" lon="6.09585">
        <ele>1131</ele>
        <time>2022-03-03T10:10:21.000Z</time>
      </trkpt>
      <trkpt lat="44.14627" lon="6.09585">
        <ele>1131</ele>
        <time>2022-03-03T10:10:22.000Z</time>
      </trkpt>
      <trkpt lat="44.14628" lon="6.09584">
        <ele>1132</ele>
        <time>2022-03-03T10:10:23.000Z</time>
      </trkpt>
      <trkpt lat="44.14628" lon="6.09583">
        <ele>1132</ele>
        <time>2022-03-03T10:10:24.000Z</time>
      </trkpt>
      <trkpt lat="44.14628" lon="6.09583">
        <ele>1132</ele>
        <time>2022-03-03T10:10:25.000Z</time>
      </trkpt>
      <trkpt lat="44.1463" lon="6.09582">
        <ele>1132</ele>
        <time>2022-03-03T10:10:26.000Z</time>
      </trkpt>
      <trkpt lat="44.14631" lon="6.09581">
        <ele>1132</ele>
        <time>2022-03-03T10:10:27.000Z</time>
      </trkpt>
      <trkpt lat="44.14631" lon="6.0958">
        <ele>1132</ele>
        <time>2022-03-03T10:10:28.000Z</time>
      </trkpt>
      <trkpt lat="44.14632" lon="6.09579">
        <ele>1132</ele>
        <time>2022-03-03T10:10:29.000Z</time>
      </trkpt>
      <trkpt lat="44.14633" lon="6.09578">
        <ele>1132</ele>
        <time>2022-03-03T10:10:30.000Z</time>
      </trkpt>
      <trkpt lat="44.14634" lon="6.09578">
        <ele>1132</ele>
        <time>2022-03-03T10:10:31.000Z</time>
      </trkpt>
      <trkpt lat="44.14634" lon="6.09577">
        <ele>1132</ele>
        <time>2022-03-03T10:10:32.000Z</time>
      </trkpt>
      <trkpt lat="44.14635" lon="6.09576">
        <ele>1132</ele>
        <time>2022-03-03T10:10:33.000Z</time>
      </trkpt>
      <trkpt lat="44.14636" lon="6.09575">
        <ele>1132</ele>
        <time>2022-03-03T10:10:34.000Z</time>
      </trkpt>
      <trkpt lat="44.14636" lon="6.09574">
        <ele>1132</ele>
        <time>2022-03-03T10:10:35.000Z</time>
      </trkpt>
      <trkpt lat="44.14637" lon="6.09574">
        <ele>1132</ele>
        <time>2022-03-03T10:10:36.000Z</time>
      </trkpt>
      <trkpt lat="44.14638" lon="6.09573">
        <ele>1132</ele>
        <time>2022-03-03T10:10:37.000Z</time>
      </trkpt>
      <trkpt lat="44.14639" lon="6.09572">
        <ele>1132</ele>
        <time>2022-03-03T10:10:38.000Z</time>
      </trkpt>
      <trkpt lat="44.1464" lon="6.09572">
        <ele>1133</ele>
        <time>2022-03-03T10:10:39.000Z</time>
      </trkpt>
      <trkpt lat="44.1464" lon="6.09571">
        <ele>1133</ele>
        <time>2022-03-03T10:10:40.000Z</time>
      </trkpt>
      <trkpt lat="44.14641" lon="6.0957">
        <ele>1133</ele>
        <time>2022-03-03T10:10:41.000Z</time>
      </trkpt>
      <trkpt lat="44.14641" lon="6.0957">
        <ele>1133</ele>
        <time>2022-03-03T10:10:42.000Z</time>
      </trkpt>
      <trkpt lat="44.14642" lon="6.09569">
        <ele>1133</ele>
        <time>2022-03-03T10:10:43.000Z</time>
      </trkpt>
      <trkpt lat="44.14643" lon="6.09568">
        <ele>1133</ele>
        <time>2022-03-03T10:10:44.000Z</time>
      </trkpt>
      <trkpt lat="44.14644" lon="6.09567">
        <ele>1133</ele>
        <time>2022-03-03T10:10:45.000Z</time>
      </trkpt>
      <trkpt lat="44.14645" lon="6.09567">
        <ele>1134</ele>
        <time>2022-03-03T10:10:46.000Z</time>
      </trkpt>
      <trkpt lat="44.14645" lon="6.09566">
        <ele>1134</ele>
        <time>2022-03-03T10:10:47.000Z</time>
      </trkpt>
      <trkpt lat="44.14646" lon="6.09565">
        <ele>1134</ele>
        <time>2022-03-03T10:10:48.000Z</time>
      </trkpt>
      <trkpt lat="44.14647" lon="6.09565">
        <ele>1134</ele>
        <time>2022-03-03T10:10:49.000Z</time>
      </trkpt>
      <trkpt lat="44.14647" lon="6.09564">
        <ele>1134</ele>
        <time>2022-03-03T10:10:50.000Z</time>
      </trkpt>
      <trkpt lat="44.14648" lon="6.09564">
        <ele>1134</ele>
        <time>2022-03-03T10:10:51.000Z</time>
      </trkpt>
      <trkpt lat="44.14648" lon="6.09563">
        <ele>1134</ele>
        <time>2022-03-03T10:10:52.000Z</time>
      </trkpt>
      <trkpt lat="44.14649" lon="6.09562">
        <ele>1135</ele>
        <time>2022-03-03T10:10:53.000Z</time>
      </trkpt>
      <trkpt lat="44.14649" lon="6.09561">
        <ele>1135</ele>
        <time>2022-03-03T10:10:54.000Z</time>
      </trkpt>
      <trkpt lat="44.1465" lon="6.09561">
        <ele>1135</ele>
        <time>2022-03-03T10:10:55.000Z</time>
      </trkpt>
      <trkpt lat="44.14651" lon="6.0956">
        <ele>1135</ele>
        <time>2022-03-03T10:10:56.000Z</time>
      </trkpt>
      <trkpt lat="44.14651" lon="6.09559">
        <ele>1135</ele>
        <time>2022-03-03T10:10:57.000Z</time>
      </trkpt>
      <trkpt lat="44.14651" lon="6.09558">
        <ele>1136</ele>
        <time>2022-03-03T10:10:58.000Z</time>
      </trkpt>
      <trkpt lat="44.14652" lon="6.09557">
        <ele>1136</ele>
        <time>2022-03-03T10:10:59.000Z</time>
      </trkpt>
      <trkpt lat="44.14652" lon="6.09557">
        <ele>1136</ele>
        <time>2022-03-03T10:11:00.000Z</time>
      </trkpt>
      <trkpt lat="44.14652" lon="6.09556">
        <ele>1136</ele>
        <time>2022-03-03T10:11:01.000Z</time>
      </trkpt>
      <trkpt lat="44.14653" lon="6.09556">
        <ele>1136</ele>
        <time>2022-03-03T10:11:02.000Z</time>
      </trkpt>
      <trkpt lat="44.14653" lon="6.09555">
        <ele>1136</ele>
        <time>2022-03-03T10:11:03.000Z</time>
      </trkpt>
      <trkpt lat="44.14654" lon="6.09554">
        <ele>1136</ele>
        <time>2022-03-03T10:11:04.000Z</time>
      </trkpt>
      <trkpt lat="44.14654" lon="6.09553">
        <ele>1136</ele>
        <time>2022-03-03T10:11:05.000Z</time>
      </trkpt>
      <trkpt lat="44.14655" lon="6.09553">
        <ele>1136</ele>
        <time>2022-03-03T10:11:06.000Z</time>
      </trkpt>
      <trkpt lat="44.14656" lon="6.09552">
        <ele>1137</ele>
        <time>2022-03-03T10:11:07.000Z</time>
      </trkpt>
      <trkpt lat="44.14656" lon="6.09551">
        <ele>1137</ele>
        <time>2022-03-03T10:11:08.000Z</time>
      </trkpt>
      <trkpt lat="44.14657" lon="6.0955">
        <ele>1137</ele>
        <time>2022-03-03T10:11:09.000Z</time>
      </trkpt>
      <trkpt lat="44.14657" lon="6.0955">
        <ele>1137</ele>
        <time>2022-03-03T10:11:10.000Z</time>
      </trkpt>
      <trkpt lat="44.14657" lon="6.0955">
        <ele>1137</ele>
        <time>2022-03-03T10:11:11.000Z</time>
      </trkpt>
      <trkpt lat="44.14659" lon="6.09548">
        <ele>1137</ele>
        <time>2022-03-03T10:11:12.000Z</time>
      </trkpt>
      <trkpt lat="44.14659" lon="6.09548">
        <ele>1137</ele>
        <time>2022-03-03T10:11:13.000Z</time>
      </trkpt>
      <trkpt lat="44.1466" lon="6.09547">
        <ele>1137</ele>
        <time>2022-03-03T10:11:14.000Z</time>
      </trkpt>
      <trkpt lat="44.1466" lon="6.09546">
        <ele>1138</ele>
        <time>2022-03-03T10:11:15.000Z</time>
      </trkpt>
      <trkpt lat="44.14661" lon="6.09546">
        <ele>1138</ele>
        <time>2022-03-03T10:11:16.000Z</time>
      </trkpt>
      <trkpt lat="44.14661" lon="6.09545">
        <ele>1138</ele>
        <time>2022-03-03T10:11:17.000Z</time>
      </trkpt>
      <trkpt lat="44.14661" lon="6.09544">
        <ele>1138</ele>
        <time>2022-03-03T10:11:18.000Z</time>
      </trkpt>
      <trkpt lat="44.14661" lon="6.09543">
        <ele>1138</ele>
        <time>2022-03-03T10:11:19.000Z</time>
      </trkpt>
      <trkpt lat="44.14662" lon="6.09542">
        <ele>1138</ele>
        <time>2022-03-03T10:11:20.000Z</time>
      </trkpt>
      <trkpt lat="44.14662" lon="6.09542">
        <ele>1138</ele>
        <time>2022-03-03T10:11:21.000Z</time>
      </trkpt>
      <trkpt lat="44.14662" lon="6.09542">
        <ele>1138</ele>
        <time>2022-03-03T10:11:22.000Z</time>
      </trkpt>
      <trkpt lat="44.14662" lon="6.09542">
        <ele>1138</ele>
        <time>2022-03-03T10:11:23.000Z</time>
      </trkpt>
      <trkpt lat="44.14662" lon="6.09542">
        <ele>1138</ele>
        <time>2022-03-03T10:11:24.000Z</time>
      </trkpt>
      <trkpt lat="44.14662" lon="6.09542">
        <ele>1138</ele>
        <time>2022-03-03T10:11:25.000Z</time>
      </trkpt>
      <trkpt lat="44.14662" lon="6.09542">
        <ele>1138</ele>
        <time>2022-03-03T10:11:26.000Z</time>
      </trkpt>
      <trkpt lat="44.14662" lon="6.09542">
        <ele>1138</ele>
        <time>2022-03-03T10:11:27.000Z</time>
      </trkpt>
      <trkpt lat="44.14662" lon="6.09541">
        <ele>1138</ele>
        <time>2022-03-03T10:11:28.000Z</time>
      </trkpt>
      <trkpt lat="44.14662" lon="6.09541">
        <ele>1138</ele>
        <time>2022-03-03T10:11:29.000Z</time>
      </trkpt>
      <trkpt lat="44.14662" lon="6.09541">
        <ele>1138</ele>
        <time>2022-03-03T10:11:30.000Z</time>
      </trkpt>
      <trkpt lat="44.14662" lon="6.09541">
        <ele>1138</ele>
        <time>2022-03-03T10:11:31.000Z</time>
      </trkpt>
      <trkpt lat="44.14662" lon="6.09541">
        <ele>1138</ele>
        <time>2022-03-03T10:11:32.000Z</time>
      </trkpt>
      <trkpt lat="44.14662" lon="6.09541">
        <ele>1138</ele>
        <time>2022-03-03T10:11:33.000Z</time>
      </trkpt>
      <trkpt lat="44.14662" lon="6.09541">
        <ele>1138</ele>
        <time>2022-03-03T10:11:34.000Z</time>
      </trkpt>
      <trkpt lat="44.14662" lon="6.09541">
        <ele>1138</ele>
        <time>2022-03-03T10:11:35.000Z</time>
      </trkpt>
      <trkpt lat="44.14662" lon="6.09541">
        <ele>1138</ele>
        <time>2022-03-03T10:11:36.000Z</time>
      </trkpt>
      <trkpt lat="44.14662" lon="6.09541">
        <ele>1138</ele>
        <time>2022-03-03T10:11:37.000Z</time>
      </trkpt>
      <trkpt lat="44.14662" lon="6.09541">
        <ele>1138</ele>
        <time>2022-03-03T10:11:38.000Z</time>
      </trkpt>
      <trkpt lat="44.14662" lon="6.09541">
        <ele>1138</ele>
        <time>2022-03-03T10:11:39.000Z</time>
      </trkpt>
      <trkpt lat="44.14663" lon="6.09541">
        <ele>1138</ele>
        <time>2022-03-03T10:11:40.000Z</time>
      </trkpt>
      <trkpt lat="44.14663" lon="6.09541">
        <ele>1138</ele>
        <time>2022-03-03T10:11:41.000Z</time>
      </trkpt>
      <trkpt lat="44.14663" lon="6.09541">
        <ele>1138</ele>
        <time>2022-03-03T10:11:42.000Z</time>
      </trkpt>
      <trkpt lat="44.14663" lon="6.09541">
        <ele>1138</ele>
        <time>2022-03-03T10:11:43.000Z</time>
      </trkpt>
      <trkpt lat="44.14663" lon="6.09541">
        <ele>1138</ele>
        <time>2022-03-03T10:11:44.000Z</time>
      </trkpt>
      <trkpt lat="44.14663" lon="6.09541">
        <ele>1138</ele>
        <time>2022-03-03T10:11:45.000Z</time>
      </trkpt>
      <trkpt lat="44.14663" lon="6.09541">
        <ele>1138</ele>
        <time>2022-03-03T10:11:46.000Z</time>
      </trkpt>
      <trkpt lat="44.14663" lon="6.09541">
        <ele>1138</ele>
        <time>2022-03-03T10:11:47.000Z</time>
      </trkpt>
      <trkpt lat="44.14663" lon="6.09541">
        <ele>1138</ele>
        <time>2022-03-03T10:11:48.000Z</time>
      </trkpt>
      <trkpt lat="44.14663" lon="6.09541">
        <ele>1138</ele>
        <time>2022-03-03T10:11:49.000Z</time>
      </trkpt>
      <trkpt lat="44.14663" lon="6.09541">
        <ele>1138</ele>
        <time>2022-03-03T10:11:50.000Z</time>
      </trkpt>
      <trkpt lat="44.14663" lon="6.09541">
        <ele>1138</ele>
        <time>2022-03-03T10:11:51.000Z</time>
      </trkpt>
      <trkpt lat="44.14663" lon="6.09541">
        <ele>1138</ele>
        <time>2022-03-03T10:11:52.000Z</time>
      </trkpt>
      <trkpt lat="44.14663" lon="6.09541">
        <ele>1138</ele>
        <time>2022-03-03T10:11:53.000Z</time>
      </trkpt>
      <trkpt lat="44.14663" lon="6.09541">
        <ele>1138</ele>
        <time>2022-03-03T10:11:54.000Z</time>
      </trkpt>
      <trkpt lat="44.14663" lon="6.09541">
        <ele>1138</ele>
        <time>2022-03-03T10:11:55.000Z</time>
      </trkpt>
      <trkpt lat="44.14663" lon="6.09541">
        <ele>1139</ele>
        <time>2022-03-03T10:11:56.000Z</time>
      </trkpt>
      <trkpt lat="44.14663" lon="6.09541">
        <ele>1139</ele>
        <time>2022-03-03T10:11:57.000Z</time>
      </trkpt>
      <trkpt lat="44.14663" lon="6.09541">
        <ele>1139</ele>
        <time>2022-03-03T10:11:58.000Z</time>
      </trkpt>
      <trkpt lat="44.14663" lon="6.09541">
        <ele>1139</ele>
        <time>2022-03-03T10:11:59.000Z</time>
      </trkpt>
      <trkpt lat="44.14663" lon="6.09541">
        <ele>1139</ele>
        <time>2022-03-03T10:12:00.000Z</time>
      </trkpt>
      <trkpt lat="44.14663" lon="6.09541">
        <ele>1139</ele>
        <time>2022-03-03T10:12:01.000Z</time>
      </trkpt>
      <trkpt lat="44.14663" lon="6.09541">
        <ele>1139</ele>
        <time>2022-03-03T10:12:02.000Z</time>
      </trkpt>
      <trkpt lat="44.14663" lon="6.09541">
        <ele>1139</ele>
        <time>2022-03-03T10:12:03.000Z</time>
      </trkpt>
      <trkpt lat="44.14663" lon="6.09541">
        <ele>1139</ele>
        <time>2022-03-03T10:12:04.000Z</time>
      </trkpt>
      <trkpt lat="44.14663" lon="6.09541">
        <ele>1139</ele>
        <time>2022-03-03T10:12:05.000Z</time>
      </trkpt>
      <trkpt lat="44.14663" lon="6.09541">
        <ele>1139</ele>
        <time>2022-03-03T10:12:06.000Z</time>
      </trkpt>
      <trkpt lat="44.14663" lon="6.09541">
        <ele>1139</ele>
        <time>2022-03-03T10:12:07.000Z</time>
      </trkpt>
      <trkpt lat="44.14663" lon="6.09541">
        <ele>1139</ele>
        <time>2022-03-03T10:12:08.000Z</time>
      </trkpt>
      <trkpt lat="44.14663" lon="6.09541">
        <ele>1139</ele>
        <time>2022-03-03T10:12:09.000Z</time>
      </trkpt>
      <trkpt lat="44.14663" lon="6.09541">
        <ele>1139</ele>
        <time>2022-03-03T10:12:10.000Z</time>
      </trkpt>
      <trkpt lat="44.14664" lon="6.09541">
        <ele>1139</ele>
        <time>2022-03-03T10:12:11.000Z</time>
      </trkpt>
      <trkpt lat="44.14664" lon="6.09541">
        <ele>1139</ele>
        <time>2022-03-03T10:12:12.000Z</time>
      </trkpt>
      <trkpt lat="44.14663" lon="6.09541">
        <ele>1139</ele>
        <time>2022-03-03T10:12:13.000Z</time>
      </trkpt>
      <trkpt lat="44.14664" lon="6.09541">
        <ele>1139</ele>
        <time>2022-03-03T10:12:14.000Z</time>
      </trkpt>
      <trkpt lat="44.14664" lon="6.09541">
        <ele>1139</ele>
        <time>2022-03-03T10:12:15.000Z</time>
      </trkpt>
      <trkpt lat="44.14664" lon="6.09541">
        <ele>1139</ele>
        <time>2022-03-03T10:12:16.000Z</time>
      </trkpt>
      <trkpt lat="44.14664" lon="6.09541">
        <ele>1139</ele>
        <time>2022-03-03T10:12:17.000Z</time>
      </trkpt>
      <trkpt lat="44.14664" lon="6.09541">
        <ele>1139</ele>
        <time>2022-03-03T10:12:18.000Z</time>
      </trkpt>
      <trkpt lat="44.14664" lon="6.09541">
        <ele>1139</ele>
        <time>2022-03-03T10:12:19.000Z</time>
      </trkpt>
      <trkpt lat="44.14664" lon="6.09541">
        <ele>1139</ele>
        <time>2022-03-03T10:12:20.000Z</time>
      </trkpt>
      <trkpt lat="44.14664" lon="6.09541">
        <ele>1139</ele>
        <time>2022-03-03T10:12:21.000Z</time>
      </trkpt>
      <trkpt lat="44.14664" lon="6.09541">
        <ele>1139</ele>
        <time>2022-03-03T10:12:22.000Z</time>
      </trkpt>
      <trkpt lat="44.14664" lon="6.09541">
        <ele>1139</ele>
        <time>2022-03-03T10:12:23.000Z</time>
      </trkpt>
      <trkpt lat="44.14664" lon="6.09541">
        <ele>1139</ele>
        <time>2022-03-03T10:12:24.000Z</time>
      </trkpt>
      <trkpt lat="44.14664" lon="6.0954">
        <ele>1139</ele>
        <time>2022-03-03T10:12:25.000Z</time>
      </trkpt>
      <trkpt lat="44.14664" lon="6.0954">
        <ele>1139</ele>
        <time>2022-03-03T10:12:26.000Z</time>
      </trkpt>
      <trkpt lat="44.14664" lon="6.0954">
        <ele>1139</ele>
        <time>2022-03-03T10:12:27.000Z</time>
      </trkpt>
      <trkpt lat="44.14664" lon="6.0954">
        <ele>1139</ele>
        <time>2022-03-03T10:12:28.000Z</time>
      </trkpt>
      <trkpt lat="44.14664" lon="6.0954">
        <ele>1139</ele>
        <time>2022-03-03T10:12:29.000Z</time>
      </trkpt>
      <trkpt lat="44.14664" lon="6.0954">
        <ele>1139</ele>
        <time>2022-03-03T10:12:30.000Z</time>
      </trkpt>
      <trkpt lat="44.14664" lon="6.0954">
        <ele>1139</ele>
        <time>2022-03-03T10:12:31.000Z</time>
      </trkpt>
      <trkpt lat="44.14664" lon="6.0954">
        <ele>1139</ele>
        <time>2022-03-03T10:12:32.000Z</time>
      </trkpt>
      <trkpt lat="44.14664" lon="6.0954">
        <ele>1139</ele>
        <time>2022-03-03T10:12:33.000Z</time>
      </trkpt>
      <trkpt lat="44.14664" lon="6.0954">
        <ele>1139</ele>
        <time>2022-03-03T10:12:34.000Z</time>
      </trkpt>
      <trkpt lat="44.14664" lon="6.0954">
        <ele>1139</ele>
        <time>2022-03-03T10:12:35.000Z</time>
      </trkpt>
      <trkpt lat="44.14664" lon="6.0954">
        <ele>1139</ele>
        <time>2022-03-03T10:12:36.000Z</time>
      </trkpt>
      <trkpt lat="44.14664" lon="6.0954">
        <ele>1139</ele>
        <time>2022-03-03T10:12:37.000Z</time>
      </trkpt>
      <trkpt lat="44.14664" lon="6.0954">
        <ele>1139</ele>
        <time>2022-03-03T10:12:38.000Z</time>
      </trkpt>
      <trkpt lat="44.14664" lon="6.0954">
        <ele>1139</ele>
        <time>2022-03-03T10:12:39.000Z</time>
      </trkpt>
      <trkpt lat="44.14664" lon="6.0954">
        <ele>1139</ele>
        <time>2022-03-03T10:12:40.000Z</time>
      </trkpt>
      <trkpt lat="44.14664" lon="6.0954">
        <ele>1139</ele>
        <time>2022-03-03T10:12:41.000Z</time>
      </trkpt>
      <trkpt lat="44.14664" lon="6.0954">
        <ele>1139</ele>
        <time>2022-03-03T10:12:42.000Z</time>
      </trkpt>
      <trkpt lat="44.14664" lon="6.0954">
        <ele>1139</ele>
        <time>2022-03-03T10:12:43.000Z</time>
      </trkpt>
      <trkpt lat="44.14664" lon="6.0954">
        <ele>1140</ele>
        <time>2022-03-03T10:12:44.000Z</time>
      </trkpt>
      <trkpt lat="44.14664" lon="6.0954">
        <ele>1140</ele>
        <time>2022-03-03T10:12:45.000Z</time>
      </trkpt>
      <trkpt lat="44.14664" lon="6.0954">
        <ele>1140</ele>
        <time>2022-03-03T10:12:46.000Z</time>
      </trkpt>
      <trkpt lat="44.14664" lon="6.0954">
        <ele>1140</ele>
        <time>2022-03-03T10:12:47.000Z</time>
      </trkpt>
      <trkpt lat="44.14664" lon="6.0954">
        <ele>1139</ele>
        <time>2022-03-03T10:12:48.000Z</time>
      </trkpt>
      <trkpt lat="44.14664" lon="6.0954">
        <ele>1140</ele>
        <time>2022-03-03T10:12:49.000Z</time>
      </trkpt>
      <trkpt lat="44.14664" lon="6.0954">
        <ele>1140</ele>
        <time>2022-03-03T10:12:50.000Z</time>
      </trkpt>
      <trkpt lat="44.14664" lon="6.0954">
        <ele>1140</ele>
        <time>2022-03-03T10:12:51.000Z</time>
      </trkpt>
      <trkpt lat="44.14664" lon="6.0954">
        <ele>1140</ele>
        <time>2022-03-03T10:12:52.000Z</time>
      </trkpt>
      <trkpt lat="44.14664" lon="6.0954">
        <ele>1140</ele>
        <time>2022-03-03T10:12:53.000Z</time>
      </trkpt>
      <trkpt lat="44.14664" lon="6.09541">
        <ele>1140</ele>
        <time>2022-03-03T10:12:54.000Z</time>
      </trkpt>
      <trkpt lat="44.14664" lon="6.09541">
        <ele>1140</ele>
        <time>2022-03-03T10:12:55.000Z</time>
      </trkpt>
      <trkpt lat="44.14664" lon="6.09541">
        <ele>1140</ele>
        <time>2022-03-03T10:12:56.000Z</time>
      </trkpt>
      <trkpt lat="44.14664" lon="6.09541">
        <ele>1140</ele>
        <time>2022-03-03T10:12:57.000Z</time>
      </trkpt>
      <trkpt lat="44.14664" lon="6.09541">
        <ele>1140</ele>
        <time>2022-03-03T10:12:58.000Z</time>
      </trkpt>
      <trkpt lat="44.14664" lon="6.09541">
        <ele>1140</ele>
        <time>2022-03-03T10:12:59.000Z</time>
      </trkpt>
      <trkpt lat="44.14664" lon="6.09541">
        <ele>1140</ele>
        <time>2022-03-03T10:13:00.000Z</time>
      </trkpt>
      <trkpt lat="44.14664" lon="6.0954">
        <ele>1140</ele>
        <time>2022-03-03T10:13:01.000Z</time>
      </trkpt>
      <trkpt lat="44.14664" lon="6.0954">
        <ele>1140</ele>
        <time>2022-03-03T10:13:02.000Z</time>
      </trkpt>
      <trkpt lat="44.14664" lon="6.0954">
        <ele>1140</ele>
        <time>2022-03-03T10:13:03.000Z</time>
      </trkpt>
      <trkpt lat="44.14664" lon="6.0954">
        <ele>1140</ele>
        <time>2022-03-03T10:13:04.000Z</time>
      </trkpt>
      <trkpt lat="44.14664" lon="6.0954">
        <ele>1140</ele>
        <time>2022-03-03T10:13:05.000Z</time>
      </trkpt>
      <trkpt lat="44.14664" lon="6.0954">
        <ele>1140</ele>
        <time>2022-03-03T10:13:06.000Z</time>
      </trkpt>
      <trkpt lat="44.14665" lon="6.0954">
        <ele>1140</ele>
        <time>2022-03-03T10:13:07.000Z</time>
      </trkpt>
      <trkpt lat="44.14665" lon="6.09538">
        <ele>1140</ele>
        <time>2022-03-03T10:13:08.000Z</time>
      </trkpt>
      <trkpt lat="44.14665" lon="6.09538">
        <ele>1140</ele>
        <time>2022-03-03T10:13:09.000Z</time>
      </trkpt>
      <trkpt lat="44.14665" lon="6.09537">
        <ele>1140</ele>
        <time>2022-03-03T10:13:10.000Z</time>
      </trkpt>
      <trkpt lat="44.14666" lon="6.09534">
        <ele>1140</ele>
        <time>2022-03-03T10:13:11.000Z</time>
      </trkpt>
      <trkpt lat="44.14666" lon="6.09534">
        <ele>1140</ele>
        <time>2022-03-03T10:13:12.000Z</time>
      </trkpt>
      <trkpt lat="44.14666" lon="6.09533">
        <ele>1140</ele>
        <time>2022-03-03T10:13:13.000Z</time>
      </trkpt>
      <trkpt lat="44.14666" lon="6.09532">
        <ele>1140</ele>
        <time>2022-03-03T10:13:14.000Z</time>
      </trkpt>
      <trkpt lat="44.14666" lon="6.09532">
        <ele>1140</ele>
        <time>2022-03-03T10:13:15.000Z</time>
      </trkpt>
      <trkpt lat="44.14667" lon="6.0953">
        <ele>1141</ele>
        <time>2022-03-03T10:13:16.000Z</time>
      </trkpt>
      <trkpt lat="44.14667" lon="6.09529">
        <ele>1141</ele>
        <time>2022-03-03T10:13:17.000Z</time>
      </trkpt>
      <trkpt lat="44.14668" lon="6.09528">
        <ele>1141</ele>
        <time>2022-03-03T10:13:18.000Z</time>
      </trkpt>
      <trkpt lat="44.14668" lon="6.09527">
        <ele>1141</ele>
        <time>2022-03-03T10:13:19.000Z</time>
      </trkpt>
      <trkpt lat="44.14668" lon="6.09526">
        <ele>1141</ele>
        <time>2022-03-03T10:13:20.000Z</time>
      </trkpt>
      <trkpt lat="44.14669" lon="6.09526">
        <ele>1141</ele>
        <time>2022-03-03T10:13:21.000Z</time>
      </trkpt>
      <trkpt lat="44.14669" lon="6.09524">
        <ele>1141</ele>
        <time>2022-03-03T10:13:22.000Z</time>
      </trkpt>
      <trkpt lat="44.14669" lon="6.09523">
        <ele>1141</ele>
        <time>2022-03-03T10:13:23.000Z</time>
      </trkpt>
      <trkpt lat="44.1467" lon="6.09523">
        <ele>1142</ele>
        <time>2022-03-03T10:13:24.000Z</time>
      </trkpt>
      <trkpt lat="44.1467" lon="6.09522">
        <ele>1142</ele>
        <time>2022-03-03T10:13:25.000Z</time>
      </trkpt>
      <trkpt lat="44.14671" lon="6.0952">
        <ele>1142</ele>
        <time>2022-03-03T10:13:26.000Z</time>
      </trkpt>
      <trkpt lat="44.14671" lon="6.0952">
        <ele>1142</ele>
        <time>2022-03-03T10:13:27.000Z</time>
      </trkpt>
      <trkpt lat="44.14671" lon="6.09519">
        <ele>1142</ele>
        <time>2022-03-03T10:13:28.000Z</time>
      </trkpt>
      <trkpt lat="44.14672" lon="6.09517">
        <ele>1143</ele>
        <time>2022-03-03T10:13:29.000Z</time>
      </trkpt>
      <trkpt lat="44.14672" lon="6.09517">
        <ele>1143</ele>
        <time>2022-03-03T10:13:30.000Z</time>
      </trkpt>
      <trkpt lat="44.14673" lon="6.09516">
        <ele>1143</ele>
        <time>2022-03-03T10:13:31.000Z</time>
      </trkpt>
      <trkpt lat="44.14674" lon="6.09514">
        <ele>1144</ele>
        <time>2022-03-03T10:13:32.000Z</time>
      </trkpt>
      <trkpt lat="44.14674" lon="6.09514">
        <ele>1144</ele>
        <time>2022-03-03T10:13:33.000Z</time>
      </trkpt>
      <trkpt lat="44.14675" lon="6.09512">
        <ele>1144</ele>
        <time>2022-03-03T10:13:34.000Z</time>
      </trkpt>
      <trkpt lat="44.14675" lon="6.09512">
        <ele>1144</ele>
        <time>2022-03-03T10:13:35.000Z</time>
      </trkpt>
      <trkpt lat="44.14676" lon="6.09511">
        <ele>1144</ele>
        <time>2022-03-03T10:13:36.000Z</time>
      </trkpt>
      <trkpt lat="44.14676" lon="6.0951">
        <ele>1144</ele>
        <time>2022-03-03T10:13:37.000Z</time>
      </trkpt>
      <trkpt lat="44.14677" lon="6.0951">
        <ele>1145</ele>
        <time>2022-03-03T10:13:38.000Z</time>
      </trkpt>
      <trkpt lat="44.14678" lon="6.09508">
        <ele>1145</ele>
        <time>2022-03-03T10:13:39.000Z</time>
      </trkpt>
      <trkpt lat="44.14679" lon="6.09507">
        <ele>1145</ele>
        <time>2022-03-03T10:13:40.000Z</time>
      </trkpt>
      <trkpt lat="44.14679" lon="6.09507">
        <ele>1145</ele>
        <time>2022-03-03T10:13:41.000Z</time>
      </trkpt>
      <trkpt lat="44.14679" lon="6.09506">
        <ele>1145</ele>
        <time>2022-03-03T10:13:42.000Z</time>
      </trkpt>
      <trkpt lat="44.1468" lon="6.09506">
        <ele>1145</ele>
        <time>2022-03-03T10:13:43.000Z</time>
      </trkpt>
      <trkpt lat="44.14681" lon="6.09504">
        <ele>1146</ele>
        <time>2022-03-03T10:13:44.000Z</time>
      </trkpt>
      <trkpt lat="44.14681" lon="6.09504">
        <ele>1146</ele>
        <time>2022-03-03T10:13:45.000Z</time>
      </trkpt>
      <trkpt lat="44.14682" lon="6.09503">
        <ele>1146</ele>
        <time>2022-03-03T10:13:46.000Z</time>
      </trkpt>
      <trkpt lat="44.14683" lon="6.09503">
        <ele>1146</ele>
        <time>2022-03-03T10:13:47.000Z</time>
      </trkpt>
      <trkpt lat="44.14683" lon="6.09502">
        <ele>1146</ele>
        <time>2022-03-03T10:13:48.000Z</time>
      </trkpt>
      <trkpt lat="44.14684" lon="6.09501">
        <ele>1146</ele>
        <time>2022-03-03T10:13:49.000Z</time>
      </trkpt>
      <trkpt lat="44.14685" lon="6.095">
        <ele>1147</ele>
        <time>2022-03-03T10:13:50.000Z</time>
      </trkpt>
      <trkpt lat="44.14685" lon="6.095">
        <ele>1147</ele>
        <time>2022-03-03T10:13:51.000Z</time>
      </trkpt>
      <trkpt lat="44.14686" lon="6.09499">
        <ele>1147</ele>
        <time>2022-03-03T10:13:52.000Z</time>
      </trkpt>
      <trkpt lat="44.14686" lon="6.09498">
        <ele>1147</ele>
        <time>2022-03-03T10:13:53.000Z</time>
      </trkpt>
      <trkpt lat="44.14687" lon="6.09497">
        <ele>1147</ele>
        <time>2022-03-03T10:13:54.000Z</time>
      </trkpt>
      <trkpt lat="44.14687" lon="6.09496">
        <ele>1148</ele>
        <time>2022-03-03T10:13:55.000Z</time>
      </trkpt>
      <trkpt lat="44.14688" lon="6.09495">
        <ele>1148</ele>
        <time>2022-03-03T10:13:56.000Z</time>
      </trkpt>
      <trkpt lat="44.14688" lon="6.09495">
        <ele>1148</ele>
        <time>2022-03-03T10:13:57.000Z</time>
      </trkpt>
      <trkpt lat="44.14689" lon="6.09494">
        <ele>1148</ele>
        <time>2022-03-03T10:13:58.000Z</time>
      </trkpt>
      <trkpt lat="44.1469" lon="6.09493">
        <ele>1148</ele>
        <time>2022-03-03T10:13:59.000Z</time>
      </trkpt>
      <trkpt lat="44.1469" lon="6.09493">
        <ele>1149</ele>
        <time>2022-03-03T10:14:00.000Z</time>
      </trkpt>
      <trkpt lat="44.14692" lon="6.09491">
        <ele>1149</ele>
        <time>2022-03-03T10:14:01.000Z</time>
      </trkpt>
      <trkpt lat="44.14692" lon="6.09491">
        <ele>1149</ele>
        <time>2022-03-03T10:14:02.000Z</time>
      </trkpt>
      <trkpt lat="44.14693" lon="6.0949">
        <ele>1149</ele>
        <time>2022-03-03T10:14:03.000Z</time>
      </trkpt>
      <trkpt lat="44.14694" lon="6.09489">
        <ele>1149</ele>
        <time>2022-03-03T10:14:04.000Z</time>
      </trkpt>
      <trkpt lat="44.14695" lon="6.09488">
        <ele>1150</ele>
        <time>2022-03-03T10:14:05.000Z</time>
      </trkpt>
      <trkpt lat="44.14695" lon="6.09488">
        <ele>1150</ele>
        <time>2022-03-03T10:14:06.000Z</time>
      </trkpt>
      <trkpt lat="44.14696" lon="6.09487">
        <ele>1150</ele>
        <time>2022-03-03T10:14:07.000Z</time>
      </trkpt>
      <trkpt lat="44.14697" lon="6.09486">
        <ele>1150</ele>
        <time>2022-03-03T10:14:08.000Z</time>
      </trkpt>
      <trkpt lat="44.14697" lon="6.09486">
        <ele>1150</ele>
        <time>2022-03-03T10:14:09.000Z</time>
      </trkpt>
      <trkpt lat="44.14699" lon="6.09484">
        <ele>1150</ele>
        <time>2022-03-03T10:14:10.000Z</time>
      </trkpt>
      <trkpt lat="44.14699" lon="6.09484">
        <ele>1150</ele>
        <time>2022-03-03T10:14:11.000Z</time>
      </trkpt>
      <trkpt lat="44.14699" lon="6.09484">
        <ele>1150</ele>
        <time>2022-03-03T10:14:12.000Z</time>
      </trkpt>
      <trkpt lat="44.147" lon="6.09483">
        <ele>1150</ele>
        <time>2022-03-03T10:14:13.000Z</time>
      </trkpt>
      <trkpt lat="44.14701" lon="6.09482">
        <ele>1150</ele>
        <time>2022-03-03T10:14:14.000Z</time>
      </trkpt>
      <trkpt lat="44.14702" lon="6.09482">
        <ele>1150</ele>
        <time>2022-03-03T10:14:15.000Z</time>
      </trkpt>
      <trkpt lat="44.14703" lon="6.09481">
        <ele>1150</ele>
        <time>2022-03-03T10:14:16.000Z</time>
      </trkpt>
      <trkpt lat="44.14703" lon="6.0948">
        <ele>1150</ele>
        <time>2022-03-03T10:14:17.000Z</time>
      </trkpt>
      <trkpt lat="44.14704" lon="6.09479">
        <ele>1150</ele>
        <time>2022-03-03T10:14:18.000Z</time>
      </trkpt>
      <trkpt lat="44.14705" lon="6.09478">
        <ele>1150</ele>
        <time>2022-03-03T10:14:19.000Z</time>
      </trkpt>
      <trkpt lat="44.14705" lon="6.09478">
        <ele>1150</ele>
        <time>2022-03-03T10:14:20.000Z</time>
      </trkpt>
      <trkpt lat="44.14706" lon="6.09477">
        <ele>1150</ele>
        <time>2022-03-03T10:14:21.000Z</time>
      </trkpt>
      <trkpt lat="44.14707" lon="6.09476">
        <ele>1151</ele>
        <time>2022-03-03T10:14:22.000Z</time>
      </trkpt>
      <trkpt lat="44.14707" lon="6.09475">
        <ele>1151</ele>
        <time>2022-03-03T10:14:23.000Z</time>
      </trkpt>
      <trkpt lat="44.14708" lon="6.09474">
        <ele>1151</ele>
        <time>2022-03-03T10:14:24.000Z</time>
      </trkpt>
      <trkpt lat="44.14709" lon="6.09473">
        <ele>1151</ele>
        <time>2022-03-03T10:14:25.000Z</time>
      </trkpt>
      <trkpt lat="44.1471" lon="6.09473">
        <ele>1151</ele>
        <time>2022-03-03T10:14:26.000Z</time>
      </trkpt>
      <trkpt lat="44.1471" lon="6.09472">
        <ele>1151</ele>
        <time>2022-03-03T10:14:27.000Z</time>
      </trkpt>
      <trkpt lat="44.14711" lon="6.09471">
        <ele>1151</ele>
        <time>2022-03-03T10:14:28.000Z</time>
      </trkpt>
      <trkpt lat="44.14712" lon="6.0947">
        <ele>1151</ele>
        <time>2022-03-03T10:14:29.000Z</time>
      </trkpt>
      <trkpt lat="44.14712" lon="6.0947">
        <ele>1151</ele>
        <time>2022-03-03T10:14:30.000Z</time>
      </trkpt>
      <trkpt lat="44.14713" lon="6.09469">
        <ele>1151</ele>
        <time>2022-03-03T10:14:31.000Z</time>
      </trkpt>
      <trkpt lat="44.14714" lon="6.09468">
        <ele>1151</ele>
        <time>2022-03-03T10:14:32.000Z</time>
      </trkpt>
      <trkpt lat="44.14714" lon="6.09467">
        <ele>1151</ele>
        <time>2022-03-03T10:14:33.000Z</time>
      </trkpt>
      <trkpt lat="44.14715" lon="6.09466">
        <ele>1151</ele>
        <time>2022-03-03T10:14:34.000Z</time>
      </trkpt>
      <trkpt lat="44.14716" lon="6.09466">
        <ele>1152</ele>
        <time>2022-03-03T10:14:35.000Z</time>
      </trkpt>
      <trkpt lat="44.14716" lon="6.09465">
        <ele>1152</ele>
        <time>2022-03-03T10:14:36.000Z</time>
      </trkpt>
      <trkpt lat="44.14717" lon="6.09464">
        <ele>1152</ele>
        <time>2022-03-03T10:14:37.000Z</time>
      </trkpt>
      <trkpt lat="44.14718" lon="6.09463">
        <ele>1152</ele>
        <time>2022-03-03T10:14:38.000Z</time>
      </trkpt>
      <trkpt lat="44.14718" lon="6.09463">
        <ele>1152</ele>
        <time>2022-03-03T10:14:39.000Z</time>
      </trkpt>
      <trkpt lat="44.14719" lon="6.09462">
        <ele>1153</ele>
        <time>2022-03-03T10:14:40.000Z</time>
      </trkpt>
      <trkpt lat="44.1472" lon="6.09461">
        <ele>1153</ele>
        <time>2022-03-03T10:14:41.000Z</time>
      </trkpt>
      <trkpt lat="44.1472" lon="6.09461">
        <ele>1153</ele>
        <time>2022-03-03T10:14:42.000Z</time>
      </trkpt>
      <trkpt lat="44.14721" lon="6.0946">
        <ele>1153</ele>
        <time>2022-03-03T10:14:43.000Z</time>
      </trkpt>
      <trkpt lat="44.14722" lon="6.09459">
        <ele>1153</ele>
        <time>2022-03-03T10:14:44.000Z</time>
      </trkpt>
      <trkpt lat="44.14722" lon="6.09458">
        <ele>1153</ele>
        <time>2022-03-03T10:14:45.000Z</time>
      </trkpt>
      <trkpt lat="44.14723" lon="6.09457">
        <ele>1153</ele>
        <time>2022-03-03T10:14:46.000Z</time>
      </trkpt>
      <trkpt lat="44.14724" lon="6.09457">
        <ele>1153</ele>
        <time>2022-03-03T10:14:47.000Z</time>
      </trkpt>
      <trkpt lat="44.14724" lon="6.09456">
        <ele>1153</ele>
        <time>2022-03-03T10:14:48.000Z</time>
      </trkpt>
      <trkpt lat="44.14725" lon="6.09455">
        <ele>1153</ele>
        <time>2022-03-03T10:14:49.000Z</time>
      </trkpt>
      <trkpt lat="44.14726" lon="6.09454">
        <ele>1153</ele>
        <time>2022-03-03T10:14:50.000Z</time>
      </trkpt>
      <trkpt lat="44.14727" lon="6.09454">
        <ele>1154</ele>
        <time>2022-03-03T10:14:51.000Z</time>
      </trkpt>
      <trkpt lat="44.14727" lon="6.09453">
        <ele>1154</ele>
        <time>2022-03-03T10:14:52.000Z</time>
      </trkpt>
      <trkpt lat="44.14728" lon="6.09452">
        <ele>1154</ele>
        <time>2022-03-03T10:14:53.000Z</time>
      </trkpt>
      <trkpt lat="44.14729" lon="6.09451">
        <ele>1154</ele>
        <time>2022-03-03T10:14:54.000Z</time>
      </trkpt>
      <trkpt lat="44.1473" lon="6.0945">
        <ele>1154</ele>
        <time>2022-03-03T10:14:55.000Z</time>
      </trkpt>
      <trkpt lat="44.1473" lon="6.09449">
        <ele>1154</ele>
        <time>2022-03-03T10:14:56.000Z</time>
      </trkpt>
      <trkpt lat="44.14731" lon="6.09448">
        <ele>1154</ele>
        <time>2022-03-03T10:14:57.000Z</time>
      </trkpt>
      <trkpt lat="44.14731" lon="6.09447">
        <ele>1154</ele>
        <time>2022-03-03T10:14:58.000Z</time>
      </trkpt>
      <trkpt lat="44.14732" lon="6.09447">
        <ele>1154</ele>
        <time>2022-03-03T10:14:59.000Z</time>
      </trkpt>
      <trkpt lat="44.14732" lon="6.09446">
        <ele>1155</ele>
        <time>2022-03-03T10:15:00.000Z</time>
      </trkpt>
      <trkpt lat="44.14733" lon="6.09445">
        <ele>1155</ele>
        <time>2022-03-03T10:15:01.000Z</time>
      </trkpt>
      <trkpt lat="44.14733" lon="6.09444">
        <ele>1155</ele>
        <time>2022-03-03T10:15:02.000Z</time>
      </trkpt>
      <trkpt lat="44.14734" lon="6.09443">
        <ele>1155</ele>
        <time>2022-03-03T10:15:03.000Z</time>
      </trkpt>
      <trkpt lat="44.14734" lon="6.09442">
        <ele>1155</ele>
        <time>2022-03-03T10:15:04.000Z</time>
      </trkpt>
      <trkpt lat="44.14735" lon="6.09442">
        <ele>1155</ele>
        <time>2022-03-03T10:15:05.000Z</time>
      </trkpt>
      <trkpt lat="44.14735" lon="6.09441">
        <ele>1155</ele>
        <time>2022-03-03T10:15:06.000Z</time>
      </trkpt>
      <trkpt lat="44.14736" lon="6.0944">
        <ele>1155</ele>
        <time>2022-03-03T10:15:07.000Z</time>
      </trkpt>
      <trkpt lat="44.14736" lon="6.0944">
        <ele>1155</ele>
        <time>2022-03-03T10:15:08.000Z</time>
      </trkpt>
      <trkpt lat="44.14737" lon="6.0944">
        <ele>1155</ele>
        <time>2022-03-03T10:15:09.000Z</time>
      </trkpt>
      <trkpt lat="44.14737" lon="6.09439">
        <ele>1155</ele>
        <time>2022-03-03T10:15:10.000Z</time>
      </trkpt>
      <trkpt lat="44.14737" lon="6.09439">
        <ele>1155</ele>
        <time>2022-03-03T10:15:11.000Z</time>
      </trkpt>
      <trkpt lat="44.14737" lon="6.09439">
        <ele>1155</ele>
        <time>2022-03-03T10:15:12.000Z</time>
      </trkpt>
      <trkpt lat="44.14737" lon="6.09439">
        <ele>1155</ele>
        <time>2022-03-03T10:15:13.000Z</time>
      </trkpt>
      <trkpt lat="44.14737" lon="6.09439">
        <ele>1155</ele>
        <time>2022-03-03T10:15:14.000Z</time>
      </trkpt>
      <trkpt lat="44.14737" lon="6.09439">
        <ele>1155</ele>
        <time>2022-03-03T10:15:15.000Z</time>
      </trkpt>
      <trkpt lat="44.14737" lon="6.09439">
        <ele>1155</ele>
        <time>2022-03-03T10:15:16.000Z</time>
      </trkpt>
      <trkpt lat="44.14737" lon="6.09439">
        <ele>1155</ele>
        <time>2022-03-03T10:15:17.000Z</time>
      </trkpt>
      <trkpt lat="44.14737" lon="6.09439">
        <ele>1155</ele>
        <time>2022-03-03T10:15:18.000Z</time>
      </trkpt>
      <trkpt lat="44.14737" lon="6.09439">
        <ele>1156</ele>
        <time>2022-03-03T10:15:19.000Z</time>
      </trkpt>
      <trkpt lat="44.14737" lon="6.09439">
        <ele>1156</ele>
        <time>2022-03-03T10:15:20.000Z</time>
      </trkpt>
      <trkpt lat="44.14737" lon="6.09439">
        <ele>1156</ele>
        <time>2022-03-03T10:15:21.000Z</time>
      </trkpt>
      <trkpt lat="44.14737" lon="6.09439">
        <ele>1156</ele>
        <time>2022-03-03T10:15:22.000Z</time>
      </trkpt>
      <trkpt lat="44.14736" lon="6.09439">
        <ele>1156</ele>
        <time>2022-03-03T10:15:23.000Z</time>
      </trkpt>
      <trkpt lat="44.14736" lon="6.09439">
        <ele>1156</ele>
        <time>2022-03-03T10:15:24.000Z</time>
      </trkpt>
      <trkpt lat="44.14736" lon="6.09439">
        <ele>1156</ele>
        <time>2022-03-03T10:15:25.000Z</time>
      </trkpt>
      <trkpt lat="44.14737" lon="6.09439">
        <ele>1156</ele>
        <time>2022-03-03T10:15:26.000Z</time>
      </trkpt>
      <trkpt lat="44.14737" lon="6.09439">
        <ele>1156</ele>
        <time>2022-03-03T10:15:27.000Z</time>
      </trkpt>
      <trkpt lat="44.14737" lon="6.09439">
        <ele>1156</ele>
        <time>2022-03-03T10:15:28.000Z</time>
      </trkpt>
      <trkpt lat="44.14737" lon="6.09439">
        <ele>1156</ele>
        <time>2022-03-03T10:15:29.000Z</time>
      </trkpt>
      <trkpt lat="44.14737" lon="6.09439">
        <ele>1156</ele>
        <time>2022-03-03T10:15:30.000Z</time>
      </trkpt>
      <trkpt lat="44.14737" lon="6.09439">
        <ele>1156</ele>
        <time>2022-03-03T10:15:31.000Z</time>
      </trkpt>
      <trkpt lat="44.14737" lon="6.09439">
        <ele>1156</ele>
        <time>2022-03-03T10:15:32.000Z</time>
      </trkpt>
      <trkpt lat="44.14737" lon="6.09439">
        <ele>1156</ele>
        <time>2022-03-03T10:15:33.000Z</time>
      </trkpt>
      <trkpt lat="44.14737" lon="6.09439">
        <ele>1156</ele>
        <time>2022-03-03T10:15:34.000Z</time>
      </trkpt>
      <trkpt lat="44.14737" lon="6.09439">
        <ele>1156</ele>
        <time>2022-03-03T10:15:35.000Z</time>
      </trkpt>
      <trkpt lat="44.14737" lon="6.09439">
        <ele>1156</ele>
        <time>2022-03-03T10:15:36.000Z</time>
      </trkpt>
      <trkpt lat="44.14737" lon="6.09439">
        <ele>1156</ele>
        <time>2022-03-03T10:15:37.000Z</time>
      </trkpt>
      <trkpt lat="44.14737" lon="6.09439">
        <ele>1156</ele>
        <time>2022-03-03T10:15:38.000Z</time>
      </trkpt>
      <trkpt lat="44.14737" lon="6.09439">
        <ele>1156</ele>
        <time>2022-03-03T10:15:39.000Z</time>
      </trkpt>
      <trkpt lat="44.14737" lon="6.09439">
        <ele>1156</ele>
        <time>2022-03-03T10:15:40.000Z</time>
      </trkpt>
      <trkpt lat="44.14737" lon="6.09439">
        <ele>1156</ele>
        <time>2022-03-03T10:15:41.000Z</time>
      </trkpt>
      <trkpt lat="44.14737" lon="6.09439">
        <ele>1156</ele>
        <time>2022-03-03T10:15:42.000Z</time>
      </trkpt>
      <trkpt lat="44.14737" lon="6.09439">
        <ele>1156</ele>
        <time>2022-03-03T10:15:43.000Z</time>
      </trkpt>
      <trkpt lat="44.14737" lon="6.09439">
        <ele>1156</ele>
        <time>2022-03-03T10:15:44.000Z</time>
      </trkpt>
      <trkpt lat="44.14737" lon="6.09439">
        <ele>1156</ele>
        <time>2022-03-03T10:15:45.000Z</time>
      </trkpt>
      <trkpt lat="44.14737" lon="6.09439">
        <ele>1156</ele>
        <time>2022-03-03T10:15:46.000Z</time>
      </trkpt>
      <trkpt lat="44.14737" lon="6.09439">
        <ele>1156</ele>
        <time>2022-03-03T10:15:47.000Z</time>
      </trkpt>
      <trkpt lat="44.14737" lon="6.09439">
        <ele>1156</ele>
        <time>2022-03-03T10:15:48.000Z</time>
      </trkpt>
      <trkpt lat="44.14737" lon="6.09439">
        <ele>1156</ele>
        <time>2022-03-03T10:15:49.000Z</time>
      </trkpt>
      <trkpt lat="44.14737" lon="6.09439">
        <ele>1156</ele>
        <time>2022-03-03T10:15:50.000Z</time>
      </trkpt>
      <trkpt lat="44.14737" lon="6.09439">
        <ele>1156</ele>
        <time>2022-03-03T10:15:51.000Z</time>
      </trkpt>
      <trkpt lat="44.14737" lon="6.09439">
        <ele>1156</ele>
        <time>2022-03-03T10:15:52.000Z</time>
      </trkpt>
      <trkpt lat="44.14737" lon="6.09439">
        <ele>1156</ele>
        <time>2022-03-03T10:15:53.000Z</time>
      </trkpt>
      <trkpt lat="44.14737" lon="6.09439">
        <ele>1156</ele>
        <time>2022-03-03T10:15:54.000Z</time>
      </trkpt>
      <trkpt lat="44.14737" lon="6.09439">
        <ele>1156</ele>
        <time>2022-03-03T10:15:55.000Z</time>
      </trkpt>
      <trkpt lat="44.14737" lon="6.09439">
        <ele>1156</ele>
        <time>2022-03-03T10:15:56.000Z</time>
      </trkpt>
      <trkpt lat="44.14737" lon="6.09439">
        <ele>1156</ele>
        <time>2022-03-03T10:15:57.000Z</time>
      </trkpt>
      <trkpt lat="44.14737" lon="6.09439">
        <ele>1156</ele>
        <time>2022-03-03T10:15:58.000Z</time>
      </trkpt>
      <trkpt lat="44.14737" lon="6.09439">
        <ele>1156</ele>
        <time>2022-03-03T10:15:59.000Z</time>
      </trkpt>
      <trkpt lat="44.14737" lon="6.09439">
        <ele>1156</ele>
        <time>2022-03-03T10:16:00.000Z</time>
      </trkpt>
      <trkpt lat="44.14737" lon="6.09439">
        <ele>1156</ele>
        <time>2022-03-03T10:16:01.000Z</time>
      </trkpt>
      <trkpt lat="44.14737" lon="6.09439">
        <ele>1156</ele>
        <time>2022-03-03T10:16:02.000Z</time>
      </trkpt>
      <trkpt lat="44.14737" lon="6.09439">
        <ele>1156</ele>
        <time>2022-03-03T10:16:03.000Z</time>
      </trkpt>
      <trkpt lat="44.14737" lon="6.09439">
        <ele>1156</ele>
        <time>2022-03-03T10:16:04.000Z</time>
      </trkpt>
      <trkpt lat="44.14737" lon="6.09439">
        <ele>1156</ele>
        <time>2022-03-03T10:16:05.000Z</time>
      </trkpt>
      <trkpt lat="44.14737" lon="6.09439">
        <ele>1156</ele>
        <time>2022-03-03T10:16:06.000Z</time>
      </trkpt>
      <trkpt lat="44.14737" lon="6.09439">
        <ele>1156</ele>
        <time>2022-03-03T10:16:07.000Z</time>
      </trkpt>
      <trkpt lat="44.14737" lon="6.09439">
        <ele>1156</ele>
        <time>2022-03-03T10:16:08.000Z</time>
      </trkpt>
      <trkpt lat="44.14737" lon="6.09439">
        <ele>1156</ele>
        <time>2022-03-03T10:16:09.000Z</time>
      </trkpt>
      <trkpt lat="44.14737" lon="6.09439">
        <ele>1156</ele>
        <time>2022-03-03T10:16:10.000Z</time>
      </trkpt>
      <trkpt lat="44.14737" lon="6.09439">
        <ele>1156</ele>
        <time>2022-03-03T10:16:11.000Z</time>
      </trkpt>
      <trkpt lat="44.14737" lon="6.09439">
        <ele>1156</ele>
        <time>2022-03-03T10:16:12.000Z</time>
      </trkpt>
      <trkpt lat="44.14737" lon="6.09439">
        <ele>1156</ele>
        <time>2022-03-03T10:16:13.000Z</time>
      </trkpt>
      <trkpt lat="44.14737" lon="6.09439">
        <ele>1156</ele>
        <time>2022-03-03T10:16:14.000Z</time>
      </trkpt>
      <trkpt lat="44.14737" lon="6.09439">
        <ele>1156</ele>
        <time>2022-03-03T10:16:15.000Z</time>
      </trkpt>
      <trkpt lat="44.14737" lon="6.09439">
        <ele>1156</ele>
        <time>2022-03-03T10:16:16.000Z</time>
      </trkpt>
      <trkpt lat="44.14737" lon="6.09439">
        <ele>1156</ele>
        <time>2022-03-03T10:16:17.000Z</time>
      </trkpt>
      <trkpt lat="44.14737" lon="6.09439">
        <ele>1156</ele>
        <time>2022-03-03T10:16:18.000Z</time>
      </trkpt>
      <trkpt lat="44.14737" lon="6.09439">
        <ele>1156</ele>
        <time>2022-03-03T10:16:19.000Z</time>
      </trkpt>
      <trkpt lat="44.14737" lon="6.09439">
        <ele>1156</ele>
        <time>2022-03-03T10:16:20.000Z</time>
      </trkpt>
      <trkpt lat="44.14737" lon="6.09439">
        <ele>1156</ele>
        <time>2022-03-03T10:16:21.000Z</time>
      </trkpt>
      <trkpt lat="44.14737" lon="6.09439">
        <ele>1156</ele>
        <time>2022-03-03T10:16:22.000Z</time>
      </trkpt>
      <trkpt lat="44.14737" lon="6.09439">
        <ele>1156</ele>
        <time>2022-03-03T10:16:23.000Z</time>
      </trkpt>
      <trkpt lat="44.14737" lon="6.09439">
        <ele>1156</ele>
        <time>2022-03-03T10:16:24.000Z</time>
      </trkpt>
      <trkpt lat="44.14737" lon="6.09439">
        <ele>1156</ele>
        <time>2022-03-03T10:16:25.000Z</time>
      </trkpt>
      <trkpt lat="44.14737" lon="6.09439">
        <ele>1156</ele>
        <time>2022-03-03T10:16:26.000Z</time>
      </trkpt>
      <trkpt lat="44.14737" lon="6.09439">
        <ele>1156</ele>
        <time>2022-03-03T10:16:27.000Z</time>
      </trkpt>
      <trkpt lat="44.14737" lon="6.09439">
        <ele>1156</ele>
        <time>2022-03-03T10:16:28.000Z</time>
      </trkpt>
      <trkpt lat="44.14737" lon="6.09439">
        <ele>1156</ele>
        <time>2022-03-03T10:16:29.000Z</time>
      </trkpt>
      <trkpt lat="44.14737" lon="6.09439">
        <ele>1156</ele>
        <time>2022-03-03T10:16:30.000Z</time>
      </trkpt>
      <trkpt lat="44.14737" lon="6.09439">
        <ele>1156</ele>
        <time>2022-03-03T10:16:31.000Z</time>
      </trkpt>
      <trkpt lat="44.14737" lon="6.09439">
        <ele>1156</ele>
        <time>2022-03-03T10:16:32.000Z</time>
      </trkpt>
      <trkpt lat="44.14737" lon="6.09439">
        <ele>1156</ele>
        <time>2022-03-03T10:16:33.000Z</time>
      </trkpt>
      <trkpt lat="44.14737" lon="6.09439">
        <ele>1156</ele>
        <time>2022-03-03T10:16:34.000Z</time>
      </trkpt>
      <trkpt lat="44.14737" lon="6.09439">
        <ele>1156</ele>
        <time>2022-03-03T10:16:35.000Z</time>
      </trkpt>
      <trkpt lat="44.14737" lon="6.09439">
        <ele>1156</ele>
        <time>2022-03-03T10:16:36.000Z</time>
      </trkpt>
      <trkpt lat="44.14737" lon="6.09439">
        <ele>1156</ele>
        <time>2022-03-03T10:16:37.000Z</time>
      </trkpt>
      <trkpt lat="44.14737" lon="6.09439">
        <ele>1156</ele>
        <time>2022-03-03T10:16:38.000Z</time>
      </trkpt>
      <trkpt lat="44.14737" lon="6.09439">
        <ele>1156</ele>
        <time>2022-03-03T10:16:39.000Z</time>
      </trkpt>
      <trkpt lat="44.14737" lon="6.09439">
        <ele>1156</ele>
        <time>2022-03-03T10:16:40.000Z</time>
      </trkpt>
      <trkpt lat="44.14737" lon="6.09439">
        <ele>1156</ele>
        <time>2022-03-03T10:16:41.000Z</time>
      </trkpt>
      <trkpt lat="44.14737" lon="6.09439">
        <ele>1156</ele>
        <time>2022-03-03T10:16:42.000Z</time>
      </trkpt>
      <trkpt lat="44.14737" lon="6.09439">
        <ele>1156</ele>
        <time>2022-03-03T10:16:43.000Z</time>
      </trkpt>
      <trkpt lat="44.14737" lon="6.09439">
        <ele>1156</ele>
        <time>2022-03-03T10:16:44.000Z</time>
      </trkpt>
      <trkpt lat="44.14737" lon="6.09439">
        <ele>1156</ele>
        <time>2022-03-03T10:16:45.000Z</time>
      </trkpt>
      <trkpt lat="44.14737" lon="6.09439">
        <ele>1156</ele>
        <time>2022-03-03T10:16:46.000Z</time>
      </trkpt>
      <trkpt lat="44.14737" lon="6.09439">
        <ele>1156</ele>
        <time>2022-03-03T10:16:47.000Z</time>
      </trkpt>
      <trkpt lat="44.14737" lon="6.09439">
        <ele>1156</ele>
        <time>2022-03-03T10:16:48.000Z</time>
      </trkpt>
      <trkpt lat="44.14737" lon="6.09439">
        <ele>1156</ele>
        <time>2022-03-03T10:16:49.000Z</time>
      </trkpt>
      <trkpt lat="44.14737" lon="6.09439">
        <ele>1156</ele>
        <time>2022-03-03T10:16:50.000Z</time>
      </trkpt>
      <trkpt lat="44.14737" lon="6.09439">
        <ele>1156</ele>
        <time>2022-03-03T10:16:51.000Z</time>
      </trkpt>
      <trkpt lat="44.14737" lon="6.09439">
        <ele>1156</ele>
        <time>2022-03-03T10:16:52.000Z</time>
      </trkpt>
      <trkpt lat="44.14737" lon="6.09439">
        <ele>1156</ele>
        <time>2022-03-03T10:16:53.000Z</time>
      </trkpt>
      <trkpt lat="44.14737" lon="6.09439">
        <ele>1156</ele>
        <time>2022-03-03T10:16:54.000Z</time>
      </trkpt>
      <trkpt lat="44.14737" lon="6.09439">
        <ele>1156</ele>
        <time>2022-03-03T10:16:55.000Z</time>
      </trkpt>
      <trkpt lat="44.14737" lon="6.09439">
        <ele>1156</ele>
        <time>2022-03-03T10:16:56.000Z</time>
      </trkpt>
      <trkpt lat="44.14737" lon="6.09439">
        <ele>1156</ele>
        <time>2022-03-03T10:16:57.000Z</time>
      </trkpt>
      <trkpt lat="44.14737" lon="6.09439">
        <ele>1156</ele>
        <time>2022-03-03T10:16:58.000Z</time>
      </trkpt>
      <trkpt lat="44.14737" lon="6.09439">
        <ele>1156</ele>
        <time>2022-03-03T10:16:59.000Z</time>
      </trkpt>
      <trkpt lat="44.14737" lon="6.09439">
        <ele>1156</ele>
        <time>2022-03-03T10:17:00.000Z</time>
      </trkpt>
      <trkpt lat="44.14737" lon="6.09439">
        <ele>1156</ele>
        <time>2022-03-03T10:17:01.000Z</time>
      </trkpt>
      <trkpt lat="44.14737" lon="6.09439">
        <ele>1156</ele>
        <time>2022-03-03T10:17:02.000Z</time>
      </trkpt>
      <trkpt lat="44.14737" lon="6.09439">
        <ele>1156</ele>
        <time>2022-03-03T10:17:03.000Z</time>
      </trkpt>
      <trkpt lat="44.14737" lon="6.09439">
        <ele>1156</ele>
        <time>2022-03-03T10:17:04.000Z</time>
      </trkpt>
      <trkpt lat="44.14737" lon="6.09439">
        <ele>1156</ele>
        <time>2022-03-03T10:17:05.000Z</time>
      </trkpt>
      <trkpt lat="44.14737" lon="6.09439">
        <ele>1156</ele>
        <time>2022-03-03T10:17:06.000Z</time>
      </trkpt>
      <trkpt lat="44.14737" lon="6.09439">
        <ele>1156</ele>
        <time>2022-03-03T10:17:07.000Z</time>
      </trkpt>
      <trkpt lat="44.14737" lon="6.09439">
        <ele>1156</ele>
        <time>2022-03-03T10:17:08.000Z</time>
      </trkpt>
      <trkpt lat="44.14737" lon="6.09439">
        <ele>1156</ele>
        <time>2022-03-03T10:17:09.000Z</time>
      </trkpt>
      <trkpt lat="44.14737" lon="6.09439">
        <ele>1156</ele>
        <time>2022-03-03T10:17:10.000Z</time>
      </trkpt>
      <trkpt lat="44.14737" lon="6.09439">
        <ele>1156</ele>
        <time>2022-03-03T10:17:11.000Z</time>
      </trkpt>
      <trkpt lat="44.14737" lon="6.09439">
        <ele>1156</ele>
        <time>2022-03-03T10:17:12.000Z</time>
      </trkpt>
      <trkpt lat="44.14737" lon="6.09439">
        <ele>1156</ele>
        <time>2022-03-03T10:17:13.000Z</time>
      </trkpt>
      <trkpt lat="44.14737" lon="6.09439">
        <ele>1156</ele>
        <time>2022-03-03T10:17:14.000Z</time>
      </trkpt>
      <trkpt lat="44.14737" lon="6.09439">
        <ele>1156</ele>
        <time>2022-03-03T10:17:15.000Z</time>
      </trkpt>
      <trkpt lat="44.14737" lon="6.09439">
        <ele>1156</ele>
        <time>2022-03-03T10:17:16.000Z</time>
      </trkpt>
      <trkpt lat="44.14737" lon="6.09439">
        <ele>1156</ele>
        <time>2022-03-03T10:17:17.000Z</time>
      </trkpt>
      <trkpt lat="44.14737" lon="6.09439">
        <ele>1156</ele>
        <time>2022-03-03T10:17:18.000Z</time>
      </trkpt>
      <trkpt lat="44.14737" lon="6.09439">
        <ele>1156</ele>
        <time>2022-03-03T10:17:19.000Z</time>
      </trkpt>
      <trkpt lat="44.14737" lon="6.09439">
        <ele>1156</ele>
        <time>2022-03-03T10:17:20.000Z</time>
      </trkpt>
      <trkpt lat="44.14737" lon="6.09439">
        <ele>1157</ele>
        <time>2022-03-03T10:17:21.000Z</time>
      </trkpt>
      <trkpt lat="44.14737" lon="6.09439">
        <ele>1157</ele>
        <time>2022-03-03T10:17:22.000Z</time>
      </trkpt>
      <trkpt lat="44.14737" lon="6.09439">
        <ele>1157</ele>
        <time>2022-03-03T10:17:23.000Z</time>
      </trkpt>
      <trkpt lat="44.14737" lon="6.09439">
        <ele>1156</ele>
        <time>2022-03-03T10:17:24.000Z</time>
      </trkpt>
      <trkpt lat="44.14737" lon="6.09439">
        <ele>1156</ele>
        <time>2022-03-03T10:17:25.000Z</time>
      </trkpt>
      <trkpt lat="44.14737" lon="6.09439">
        <ele>1156</ele>
        <time>2022-03-03T10:17:26.000Z</time>
      </trkpt>
      <trkpt lat="44.14737" lon="6.09439">
        <ele>1157</ele>
        <time>2022-03-03T10:17:27.000Z</time>
      </trkpt>
      <trkpt lat="44.14737" lon="6.09439">
        <ele>1157</ele>
        <time>2022-03-03T10:17:28.000Z</time>
      </trkpt>
      <trkpt lat="44.14737" lon="6.09439">
        <ele>1157</ele>
        <time>2022-03-03T10:17:29.000Z</time>
      </trkpt>
      <trkpt lat="44.14737" lon="6.09439">
        <ele>1157</ele>
        <time>2022-03-03T10:17:30.000Z</time>
      </trkpt>
      <trkpt lat="44.14737" lon="6.09439">
        <ele>1157</ele>
        <time>2022-03-03T10:17:31.000Z</time>
      </trkpt>
      <trkpt lat="44.14737" lon="6.09439">
        <ele>1157</ele>
        <time>2022-03-03T10:17:32.000Z</time>
      </trkpt>
      <trkpt lat="44.14737" lon="6.09439">
        <ele>1157</ele>
        <time>2022-03-03T10:17:33.000Z</time>
      </trkpt>
      <trkpt lat="44.14737" lon="6.09439">
        <ele>1157</ele>
        <time>2022-03-03T10:17:34.000Z</time>
      </trkpt>
      <trkpt lat="44.14737" lon="6.09439">
        <ele>1157</ele>
        <time>2022-03-03T10:17:35.000Z</time>
      </trkpt>
      <trkpt lat="44.14737" lon="6.09439">
        <ele>1157</ele>
        <time>2022-03-03T10:17:36.000Z</time>
      </trkpt>
      <trkpt lat="44.14737" lon="6.09439">
        <ele>1157</ele>
        <time>2022-03-03T10:17:37.000Z</time>
      </trkpt>
      <trkpt lat="44.14737" lon="6.09439">
        <ele>1157</ele>
        <time>2022-03-03T10:17:38.000Z</time>
      </trkpt>
      <trkpt lat="44.14737" lon="6.09439">
        <ele>1157</ele>
        <time>2022-03-03T10:17:39.000Z</time>
      </trkpt>
      <trkpt lat="44.14737" lon="6.09439">
        <ele>1157</ele>
        <time>2022-03-03T10:17:40.000Z</time>
      </trkpt>
      <trkpt lat="44.14737" lon="6.09439">
        <ele>1157</ele>
        <time>2022-03-03T10:17:41.000Z</time>
      </trkpt>
      <trkpt lat="44.14737" lon="6.09439">
        <ele>1157</ele>
        <time>2022-03-03T10:17:42.000Z</time>
      </trkpt>
      <trkpt lat="44.14737" lon="6.09439">
        <ele>1157</ele>
        <time>2022-03-03T10:17:43.000Z</time>
      </trkpt>
      <trkpt lat="44.14737" lon="6.09439">
        <ele>1157</ele>
        <time>2022-03-03T10:17:44.000Z</time>
      </trkpt>
      <trkpt lat="44.14737" lon="6.09439">
        <ele>1157</ele>
        <time>2022-03-03T10:17:45.000Z</time>
      </trkpt>
      <trkpt lat="44.14737" lon="6.09439">
        <ele>1157</ele>
        <time>2022-03-03T10:17:46.000Z</time>
      </trkpt>
      <trkpt lat="44.14737" lon="6.09439">
        <ele>1157</ele>
        <time>2022-03-03T10:17:47.000Z</time>
      </trkpt>
      <trkpt lat="44.14737" lon="6.09439">
        <ele>1157</ele>
        <time>2022-03-03T10:17:48.000Z</time>
      </trkpt>
      <trkpt lat="44.14737" lon="6.09439">
        <ele>1157</ele>
        <time>2022-03-03T10:17:49.000Z</time>
      </trkpt>
      <trkpt lat="44.14737" lon="6.09439">
        <ele>1157</ele>
        <time>2022-03-03T10:17:50.000Z</time>
      </trkpt>
      <trkpt lat="44.14737" lon="6.09439">
        <ele>1157</ele>
        <time>2022-03-03T10:17:51.000Z</time>
      </trkpt>
      <trkpt lat="44.14737" lon="6.09439">
        <ele>1157</ele>
        <time>2022-03-03T10:17:52.000Z</time>
      </trkpt>
      <trkpt lat="44.14737" lon="6.09439">
        <ele>1157</ele>
        <time>2022-03-03T10:17:53.000Z</time>
      </trkpt>
      <trkpt lat="44.14737" lon="6.09439">
        <ele>1157</ele>
        <time>2022-03-03T10:17:54.000Z</time>
      </trkpt>
      <trkpt lat="44.14737" lon="6.09439">
        <ele>1157</ele>
        <time>2022-03-03T10:17:55.000Z</time>
      </trkpt>
      <trkpt lat="44.14737" lon="6.09439">
        <ele>1157</ele>
        <time>2022-03-03T10:17:56.000Z</time>
      </trkpt>
      <trkpt lat="44.14737" lon="6.09439">
        <ele>1157</ele>
        <time>2022-03-03T10:17:57.000Z</time>
      </trkpt>
      <trkpt lat="44.14737" lon="6.09439">
        <ele>1157</ele>
        <time>2022-03-03T10:17:58.000Z</time>
      </trkpt>
      <trkpt lat="44.14737" lon="6.09439">
        <ele>1157</ele>
        <time>2022-03-03T10:17:59.000Z</time>
      </trkpt>
      <trkpt lat="44.14737" lon="6.09438">
        <ele>1157</ele>
        <time>2022-03-03T10:18:00.000Z</time>
      </trkpt>
      <trkpt lat="44.14737" lon="6.09438">
        <ele>1157</ele>
        <time>2022-03-03T10:18:01.000Z</time>
      </trkpt>
      <trkpt lat="44.14737" lon="6.09439">
        <ele>1157</ele>
        <time>2022-03-03T10:18:02.000Z</time>
      </trkpt>
      <trkpt lat="44.14737" lon="6.09439">
        <ele>1157</ele>
        <time>2022-03-03T10:18:03.000Z</time>
      </trkpt>
      <trkpt lat="44.14737" lon="6.09439">
        <ele>1157</ele>
        <time>2022-03-03T10:18:04.000Z</time>
      </trkpt>
      <trkpt lat="44.14737" lon="6.09439">
        <ele>1157</ele>
        <time>2022-03-03T10:18:05.000Z</time>
      </trkpt>
      <trkpt lat="44.14737" lon="6.09439">
        <ele>1157</ele>
        <time>2022-03-03T10:18:06.000Z</time>
      </trkpt>
      <trkpt lat="44.14737" lon="6.09439">
        <ele>1157</ele>
        <time>2022-03-03T10:18:07.000Z</time>
      </trkpt>
      <trkpt lat="44.14737" lon="6.09439">
        <ele>1157</ele>
        <time>2022-03-03T10:18:08.000Z</time>
      </trkpt>
      <trkpt lat="44.14737" lon="6.09439">
        <ele>1158</ele>
        <time>2022-03-03T10:18:09.000Z</time>
      </trkpt>
      <trkpt lat="44.14737" lon="6.09439">
        <ele>1158</ele>
        <time>2022-03-03T10:18:10.000Z</time>
      </trkpt>
      <trkpt lat="44.14737" lon="6.09439">
        <ele>1158</ele>
        <time>2022-03-03T10:18:11.000Z</time>
      </trkpt>
      <trkpt lat="44.14737" lon="6.09439">
        <ele>1158</ele>
        <time>2022-03-03T10:18:12.000Z</time>
      </trkpt>
      <trkpt lat="44.14737" lon="6.09439">
        <ele>1158</ele>
        <time>2022-03-03T10:18:13.000Z</time>
      </trkpt>
      <trkpt lat="44.14737" lon="6.09439">
        <ele>1158</ele>
        <time>2022-03-03T10:18:14.000Z</time>
      </trkpt>
      <trkpt lat="44.14737" lon="6.09439">
        <ele>1158</ele>
        <time>2022-03-03T10:18:15.000Z</time>
      </trkpt>
      <trkpt lat="44.14737" lon="6.09439">
        <ele>1158</ele>
        <time>2022-03-03T10:18:16.000Z</time>
      </trkpt>
      <trkpt lat="44.14737" lon="6.09439">
        <ele>1158</ele>
        <time>2022-03-03T10:18:17.000Z</time>
      </trkpt>
      <trkpt lat="44.14737" lon="6.09439">
        <ele>1158</ele>
        <time>2022-03-03T10:18:18.000Z</time>
      </trkpt>
      <trkpt lat="44.14737" lon="6.09439">
        <ele>1158</ele>
        <time>2022-03-03T10:18:19.000Z</time>
      </trkpt>
      <trkpt lat="44.14736" lon="6.09439">
        <ele>1158</ele>
        <time>2022-03-03T10:18:20.000Z</time>
      </trkpt>
      <trkpt lat="44.14736" lon="6.09439">
        <ele>1158</ele>
        <time>2022-03-03T10:18:21.000Z</time>
      </trkpt>
      <trkpt lat="44.14736" lon="6.09439">
        <ele>1158</ele>
        <time>2022-03-03T10:18:22.000Z</time>
      </trkpt>
      <trkpt lat="44.14736" lon="6.09439">
        <ele>1158</ele>
        <time>2022-03-03T10:18:23.000Z</time>
      </trkpt>
      <trkpt lat="44.14737" lon="6.09439">
        <ele>1158</ele>
        <time>2022-03-03T10:18:24.000Z</time>
      </trkpt>
      <trkpt lat="44.14737" lon="6.09439">
        <ele>1158</ele>
        <time>2022-03-03T10:18:25.000Z</time>
      </trkpt>
      <trkpt lat="44.14737" lon="6.09439">
        <ele>1158</ele>
        <time>2022-03-03T10:18:26.000Z</time>
      </trkpt>
      <trkpt lat="44.14737" lon="6.09439">
        <ele>1158</ele>
        <time>2022-03-03T10:18:27.000Z</time>
      </trkpt>
      <trkpt lat="44.14737" lon="6.09439">
        <ele>1158</ele>
        <time>2022-03-03T10:18:28.000Z</time>
      </trkpt>
      <trkpt lat="44.14737" lon="6.09439">
        <ele>1158</ele>
        <time>2022-03-03T10:18:29.000Z</time>
      </trkpt>
      <trkpt lat="44.14737" lon="6.09439">
        <ele>1158</ele>
        <time>2022-03-03T10:18:30.000Z</time>
      </trkpt>
      <trkpt lat="44.14737" lon="6.09439">
        <ele>1158</ele>
        <time>2022-03-03T10:18:31.000Z</time>
      </trkpt>
      <trkpt lat="44.14737" lon="6.09439">
        <ele>1158</ele>
        <time>2022-03-03T10:18:32.000Z</time>
      </trkpt>
      <trkpt lat="44.14737" lon="6.09439">
        <ele>1158</ele>
        <time>2022-03-03T10:18:33.000Z</time>
      </trkpt>
      <trkpt lat="44.14736" lon="6.09439">
        <ele>1158</ele>
        <time>2022-03-03T10:18:34.000Z</time>
      </trkpt>
      <trkpt lat="44.14736" lon="6.09439">
        <ele>1158</ele>
        <time>2022-03-03T10:18:35.000Z</time>
      </trkpt>
      <trkpt lat="44.14736" lon="6.09439">
        <ele>1158</ele>
        <time>2022-03-03T10:18:36.000Z</time>
      </trkpt>
      <trkpt lat="44.14737" lon="6.09439">
        <ele>1158</ele>
        <time>2022-03-03T10:18:37.000Z</time>
      </trkpt>
      <trkpt lat="44.14737" lon="6.09439">
        <ele>1158</ele>
        <time>2022-03-03T10:18:38.000Z</time>
      </trkpt>
      <trkpt lat="44.14737" lon="6.09439">
        <ele>1158</ele>
        <time>2022-03-03T10:18:39.000Z</time>
      </trkpt>
      <trkpt lat="44.14737" lon="6.09439">
        <ele>1158</ele>
        <time>2022-03-03T10:18:40.000Z</time>
      </trkpt>
      <trkpt lat="44.14737" lon="6.09439">
        <ele>1158</ele>
        <time>2022-03-03T10:18:41.000Z</time>
      </trkpt>
      <trkpt lat="44.14737" lon="6.09439">
        <ele>1158</ele>
        <time>2022-03-03T10:18:42.000Z</time>
      </trkpt>
      <trkpt lat="44.14736" lon="6.09439">
        <ele>1158</ele>
        <time>2022-03-03T10:18:43.000Z</time>
      </trkpt>
      <trkpt lat="44.14736" lon="6.09439">
        <ele>1158</ele>
        <time>2022-03-03T10:18:44.000Z</time>
      </trkpt>
      <trkpt lat="44.14736" lon="6.09439">
        <ele>1158</ele>
        <time>2022-03-03T10:18:45.000Z</time>
      </trkpt>
      <trkpt lat="44.14736" lon="6.09439">
        <ele>1158</ele>
        <time>2022-03-03T10:18:46.000Z</time>
      </trkpt>
      <trkpt lat="44.14736" lon="6.09439">
        <ele>1158</ele>
        <time>2022-03-03T10:18:47.000Z</time>
      </trkpt>
      <trkpt lat="44.14736" lon="6.09439">
        <ele>1158</ele>
        <time>2022-03-03T10:18:48.000Z</time>
      </trkpt>
      <trkpt lat="44.14736" lon="6.09439">
        <ele>1158</ele>
        <time>2022-03-03T10:18:49.000Z</time>
      </trkpt>
      <trkpt lat="44.14736" lon="6.09439">
        <ele>1158</ele>
        <time>2022-03-03T10:18:50.000Z</time>
      </trkpt>
      <trkpt lat="44.14736" lon="6.09439">
        <ele>1158</ele>
        <time>2022-03-03T10:18:51.000Z</time>
      </trkpt>
      <trkpt lat="44.14736" lon="6.09439">
        <ele>1158</ele>
        <time>2022-03-03T10:18:52.000Z</time>
      </trkpt>
      <trkpt lat="44.14736" lon="6.09439">
        <ele>1158</ele>
        <time>2022-03-03T10:18:53.000Z</time>
      </trkpt>
      <trkpt lat="44.14736" lon="6.09439">
        <ele>1158</ele>
        <time>2022-03-03T10:18:54.000Z</time>
      </trkpt>
      <trkpt lat="44.14736" lon="6.09439">
        <ele>1158</ele>
        <time>2022-03-03T10:18:55.000Z</time>
      </trkpt>
      <trkpt lat="44.14736" lon="6.09439">
        <ele>1158</ele>
        <time>2022-03-03T10:18:56.000Z</time>
      </trkpt>
      <trkpt lat="44.14736" lon="6.09439">
        <ele>1158</ele>
        <time>2022-03-03T10:18:57.000Z</time>
      </trkpt>
      <trkpt lat="44.14736" lon="6.09439">
        <ele>1158</ele>
        <time>2022-03-03T10:18:58.000Z</time>
      </trkpt>
      <trkpt lat="44.14736" lon="6.09439">
        <ele>1158</ele>
        <time>2022-03-03T10:18:59.000Z</time>
      </trkpt>
      <trkpt lat="44.14736" lon="6.09439">
        <ele>1158</ele>
        <time>2022-03-03T10:19:00.000Z</time>
      </trkpt>
      <trkpt lat="44.14736" lon="6.09439">
        <ele>1158</ele>
        <time>2022-03-03T10:19:01.000Z</time>
      </trkpt>
      <trkpt lat="44.14736" lon="6.09439">
        <ele>1158</ele>
        <time>2022-03-03T10:19:02.000Z</time>
      </trkpt>
      <trkpt lat="44.14736" lon="6.09439">
        <ele>1158</ele>
        <time>2022-03-03T10:19:03.000Z</time>
      </trkpt>
      <trkpt lat="44.14736" lon="6.09439">
        <ele>1158</ele>
        <time>2022-03-03T10:19:04.000Z</time>
      </trkpt>
      <trkpt lat="44.14736" lon="6.09439">
        <ele>1158</ele>
        <time>2022-03-03T10:19:05.000Z</time>
      </trkpt>
      <trkpt lat="44.14736" lon="6.09439">
        <ele>1158</ele>
        <time>2022-03-03T10:19:06.000Z</time>
      </trkpt>
      <trkpt lat="44.14736" lon="6.09439">
        <ele>1158</ele>
        <time>2022-03-03T10:19:07.000Z</time>
      </trkpt>
      <trkpt lat="44.14736" lon="6.09439">
        <ele>1158</ele>
        <time>2022-03-03T10:19:08.000Z</time>
      </trkpt>
      <trkpt lat="44.14736" lon="6.09439">
        <ele>1158</ele>
        <time>2022-03-03T10:19:09.000Z</time>
      </trkpt>
      <trkpt lat="44.14736" lon="6.09439">
        <ele>1158</ele>
        <time>2022-03-03T10:19:10.000Z</time>
      </trkpt>
      <trkpt lat="44.14736" lon="6.09439">
        <ele>1158</ele>
        <time>2022-03-03T10:19:11.000Z</time>
      </trkpt>
      <trkpt lat="44.14736" lon="6.09439">
        <ele>1158</ele>
        <time>2022-03-03T10:19:12.000Z</time>
      </trkpt>
      <trkpt lat="44.14736" lon="6.09439">
        <ele>1158</ele>
        <time>2022-03-03T10:19:13.000Z</time>
      </trkpt>
      <trkpt lat="44.14736" lon="6.09439">
        <ele>1158</ele>
        <time>2022-03-03T10:19:14.000Z</time>
      </trkpt>
      <trkpt lat="44.14736" lon="6.09439">
        <ele>1158</ele>
        <time>2022-03-03T10:19:15.000Z</time>
      </trkpt>
      <trkpt lat="44.14736" lon="6.09439">
        <ele>1158</ele>
        <time>2022-03-03T10:19:16.000Z</time>
      </trkpt>
      <trkpt lat="44.14736" lon="6.09439">
        <ele>1158</ele>
        <time>2022-03-03T10:19:17.000Z</time>
      </trkpt>
      <trkpt lat="44.14736" lon="6.09439">
        <ele>1158</ele>
        <time>2022-03-03T10:19:18.000Z</time>
      </trkpt>
      <trkpt lat="44.14736" lon="6.09439">
        <ele>1158</ele>
        <time>2022-03-03T10:19:19.000Z</time>
      </trkpt>
      <trkpt lat="44.14736" lon="6.09439">
        <ele>1158</ele>
        <time>2022-03-03T10:19:20.000Z</time>
      </trkpt>
      <trkpt lat="44.14736" lon="6.09439">
        <ele>1158</ele>
        <time>2022-03-03T10:19:21.000Z</time>
      </trkpt>
      <trkpt lat="44.14736" lon="6.09439">
        <ele>1158</ele>
        <time>2022-03-03T10:19:22.000Z</time>
      </trkpt>
      <trkpt lat="44.14736" lon="6.09439">
        <ele>1158</ele>
        <time>2022-03-03T10:19:23.000Z</time>
      </trkpt>
      <trkpt lat="44.14736" lon="6.09439">
        <ele>1158</ele>
        <time>2022-03-03T10:19:24.000Z</time>
      </trkpt>
      <trkpt lat="44.14736" lon="6.09439">
        <ele>1158</ele>
        <time>2022-03-03T10:19:25.000Z</time>
      </trkpt>
      <trkpt lat="44.14736" lon="6.09439">
        <ele>1158</ele>
        <time>2022-03-03T10:19:26.000Z</time>
      </trkpt>
      <trkpt lat="44.14736" lon="6.09439">
        <ele>1158</ele>
        <time>2022-03-03T10:19:27.000Z</time>
      </trkpt>
      <trkpt lat="44.14736" lon="6.09439">
        <ele>1158</ele>
        <time>2022-03-03T10:19:28.000Z</time>
      </trkpt>
      <trkpt lat="44.14736" lon="6.09439">
        <ele>1158</ele>
        <time>2022-03-03T10:19:29.000Z</time>
      </trkpt>
      <trkpt lat="44.14736" lon="6.09438">
        <ele>1158</ele>
        <time>2022-03-03T10:19:30.000Z</time>
      </trkpt>
      <trkpt lat="44.14736" lon="6.09438">
        <ele>1158</ele>
        <time>2022-03-03T10:19:31.000Z</time>
      </trkpt>
      <trkpt lat="44.14736" lon="6.09438">
        <ele>1158</ele>
        <time>2022-03-03T10:19:32.000Z</time>
      </trkpt>
      <trkpt lat="44.14736" lon="6.09438">
        <ele>1158</ele>
        <time>2022-03-03T10:19:33.000Z</time>
      </trkpt>
      <trkpt lat="44.14736" lon="6.09438">
        <ele>1158</ele>
        <time>2022-03-03T10:19:34.000Z</time>
      </trkpt>
      <trkpt lat="44.14736" lon="6.09438">
        <ele>1158</ele>
        <time>2022-03-03T10:19:35.000Z</time>
      </trkpt>
      <trkpt lat="44.14736" lon="6.09438">
        <ele>1158</ele>
        <time>2022-03-03T10:19:36.000Z</time>
      </trkpt>
      <trkpt lat="44.14736" lon="6.09438">
        <ele>1158</ele>
        <time>2022-03-03T10:19:37.000Z</time>
      </trkpt>
      <trkpt lat="44.14735" lon="6.09438">
        <ele>1158</ele>
        <time>2022-03-03T10:19:38.000Z</time>
      </trkpt>
      <trkpt lat="44.14735" lon="6.09438">
        <ele>1158</ele>
        <time>2022-03-03T10:19:39.000Z</time>
      </trkpt>
      <trkpt lat="44.14735" lon="6.09438">
        <ele>1158</ele>
        <time>2022-03-03T10:19:40.000Z</time>
      </trkpt>
      <trkpt lat="44.14735" lon="6.09438">
        <ele>1158</ele>
        <time>2022-03-03T10:19:41.000Z</time>
      </trkpt>
      <trkpt lat="44.14735" lon="6.09438">
        <ele>1158</ele>
        <time>2022-03-03T10:19:42.000Z</time>
      </trkpt>
      <trkpt lat="44.14735" lon="6.09438">
        <ele>1158</ele>
        <time>2022-03-03T10:19:43.000Z</time>
      </trkpt>
      <trkpt lat="44.14735" lon="6.09438">
        <ele>1158</ele>
        <time>2022-03-03T10:19:44.000Z</time>
      </trkpt>
      <trkpt lat="44.14735" lon="6.09438">
        <ele>1158</ele>
        <time>2022-03-03T10:19:45.000Z</time>
      </trkpt>
      <trkpt lat="44.14735" lon="6.09438">
        <ele>1158</ele>
        <time>2022-03-03T10:19:46.000Z</time>
      </trkpt>
      <trkpt lat="44.14735" lon="6.09438">
        <ele>1158</ele>
        <time>2022-03-03T10:19:47.000Z</time>
      </trkpt>
      <trkpt lat="44.14735" lon="6.09438">
        <ele>1158</ele>
        <time>2022-03-03T10:19:48.000Z</time>
      </trkpt>
      <trkpt lat="44.14736" lon="6.09438">
        <ele>1158</ele>
        <time>2022-03-03T10:19:49.000Z</time>
      </trkpt>
      <trkpt lat="44.14736" lon="6.09438">
        <ele>1158</ele>
        <time>2022-03-03T10:19:50.000Z</time>
      </trkpt>
      <trkpt lat="44.14736" lon="6.09438">
        <ele>1158</ele>
        <time>2022-03-03T10:19:51.000Z</time>
      </trkpt>
      <trkpt lat="44.14736" lon="6.09438">
        <ele>1158</ele>
        <time>2022-03-03T10:19:52.000Z</time>
      </trkpt>
      <trkpt lat="44.14736" lon="6.09438">
        <ele>1158</ele>
        <time>2022-03-03T10:19:53.000Z</time>
      </trkpt>
      <trkpt lat="44.14736" lon="6.09438">
        <ele>1158</ele>
        <time>2022-03-03T10:19:54.000Z</time>
      </trkpt>
      <trkpt lat="44.14735" lon="6.09438">
        <ele>1158</ele>
        <time>2022-03-03T10:19:55.000Z</time>
      </trkpt>
      <trkpt lat="44.14735" lon="6.09438">
        <ele>1158</ele>
        <time>2022-03-03T10:19:56.000Z</time>
      </trkpt>
      <trkpt lat="44.14736" lon="6.09438">
        <ele>1158</ele>
        <time>2022-03-03T10:19:57.000Z</time>
      </trkpt>
      <trkpt lat="44.14736" lon="6.09438">
        <ele>1158</ele>
        <time>2022-03-03T10:19:58.000Z</time>
      </trkpt>
      <trkpt lat="44.14736" lon="6.09438">
        <ele>1158</ele>
        <time>2022-03-03T10:19:59.000Z</time>
      </trkpt>
      <trkpt lat="44.14736" lon="6.09438">
        <ele>1158</ele>
        <time>2022-03-03T10:20:00.000Z</time>
      </trkpt>
      <trkpt lat="44.14736" lon="6.09438">
        <ele>1158</ele>
        <time>2022-03-03T10:20:01.000Z</time>
      </trkpt>
      <trkpt lat="44.14736" lon="6.09438">
        <ele>1158</ele>
        <time>2022-03-03T10:20:02.000Z</time>
      </trkpt>
      <trkpt lat="44.14736" lon="6.09438">
        <ele>1158</ele>
        <time>2022-03-03T10:20:03.000Z</time>
      </trkpt>
      <trkpt lat="44.14736" lon="6.09438">
        <ele>1158</ele>
        <time>2022-03-03T10:20:04.000Z</time>
      </trkpt>
      <trkpt lat="44.14736" lon="6.09438">
        <ele>1158</ele>
        <time>2022-03-03T10:20:05.000Z</time>
      </trkpt>
      <trkpt lat="44.14736" lon="6.09438">
        <ele>1158</ele>
        <time>2022-03-03T10:20:06.000Z</time>
      </trkpt>
      <trkpt lat="44.14736" lon="6.09438">
        <ele>1158</ele>
        <time>2022-03-03T10:20:07.000Z</time>
      </trkpt>
      <trkpt lat="44.14736" lon="6.09438">
        <ele>1158</ele>
        <time>2022-03-03T10:20:08.000Z</time>
      </trkpt>
      <trkpt lat="44.14736" lon="6.09438">
        <ele>1158</ele>
        <time>2022-03-03T10:20:09.000Z</time>
      </trkpt>
      <trkpt lat="44.14736" lon="6.09438">
        <ele>1158</ele>
        <time>2022-03-03T10:20:10.000Z</time>
      </trkpt>
      <trkpt lat="44.14736" lon="6.09438">
        <ele>1158</ele>
        <time>2022-03-03T10:20:11.000Z</time>
      </trkpt>
      <trkpt lat="44.14736" lon="6.09438">
        <ele>1158</ele>
        <time>2022-03-03T10:20:12.000Z</time>
      </trkpt>
      <trkpt lat="44.14736" lon="6.09438">
        <ele>1158</ele>
        <time>2022-03-03T10:20:13.000Z</time>
      </trkpt>
      <trkpt lat="44.14736" lon="6.09438">
        <ele>1158</ele>
        <time>2022-03-03T10:20:14.000Z</time>
      </trkpt>
      <trkpt lat="44.14736" lon="6.09438">
        <ele>1158</ele>
        <time>2022-03-03T10:20:15.000Z</time>
      </trkpt>
      <trkpt lat="44.14736" lon="6.09438">
        <ele>1158</ele>
        <time>2022-03-03T10:20:16.000Z</time>
      </trkpt>
      <trkpt lat="44.14736" lon="6.09438">
        <ele>1158</ele>
        <time>2022-03-03T10:20:17.000Z</time>
      </trkpt>
      <trkpt lat="44.14736" lon="6.09438">
        <ele>1158</ele>
        <time>2022-03-03T10:20:18.000Z</time>
      </trkpt>
      <trkpt lat="44.14736" lon="6.09438">
        <ele>1158</ele>
        <time>2022-03-03T10:20:19.000Z</time>
      </trkpt>
      <trkpt lat="44.14736" lon="6.09438">
        <ele>1158</ele>
        <time>2022-03-03T10:20:20.000Z</time>
      </trkpt>
      <trkpt lat="44.14736" lon="6.09438">
        <ele>1158</ele>
        <time>2022-03-03T10:20:21.000Z</time>
      </trkpt>
      <trkpt lat="44.14736" lon="6.09438">
        <ele>1158</ele>
        <time>2022-03-03T10:20:22.000Z</time>
      </trkpt>
      <trkpt lat="44.14736" lon="6.09438">
        <ele>1158</ele>
        <time>2022-03-03T10:20:23.000Z</time>
      </trkpt>
      <trkpt lat="44.14736" lon="6.09438">
        <ele>1158</ele>
        <time>2022-03-03T10:20:24.000Z</time>
      </trkpt>
      <trkpt lat="44.14736" lon="6.09438">
        <ele>1158</ele>
        <time>2022-03-03T10:20:25.000Z</time>
      </trkpt>
      <trkpt lat="44.14736" lon="6.09438">
        <ele>1158</ele>
        <time>2022-03-03T10:20:26.000Z</time>
      </trkpt>
      <trkpt lat="44.14736" lon="6.09438">
        <ele>1158</ele>
        <time>2022-03-03T10:20:27.000Z</time>
      </trkpt>
      <trkpt lat="44.14736" lon="6.09438">
        <ele>1158</ele>
        <time>2022-03-03T10:20:28.000Z</time>
      </trkpt>
      <trkpt lat="44.14736" lon="6.09438">
        <ele>1158</ele>
        <time>2022-03-03T10:20:29.000Z</time>
      </trkpt>
      <trkpt lat="44.14736" lon="6.09438">
        <ele>1158</ele>
        <time>2022-03-03T10:20:30.000Z</time>
      </trkpt>
      <trkpt lat="44.14736" lon="6.09438">
        <ele>1158</ele>
        <time>2022-03-03T10:20:31.000Z</time>
      </trkpt>
      <trkpt lat="44.14736" lon="6.09438">
        <ele>1158</ele>
        <time>2022-03-03T10:20:32.000Z</time>
      </trkpt>
      <trkpt lat="44.14736" lon="6.09438">
        <ele>1158</ele>
        <time>2022-03-03T10:20:33.000Z</time>
      </trkpt>
      <trkpt lat="44.14736" lon="6.09438">
        <ele>1158</ele>
        <time>2022-03-03T10:20:34.000Z</time>
      </trkpt>
      <trkpt lat="44.14736" lon="6.09438">
        <ele>1158</ele>
        <time>2022-03-03T10:20:35.000Z</time>
      </trkpt>
      <trkpt lat="44.14736" lon="6.09438">
        <ele>1158</ele>
        <time>2022-03-03T10:20:36.000Z</time>
      </trkpt>
      <trkpt lat="44.14736" lon="6.09438">
        <ele>1158</ele>
        <time>2022-03-03T10:20:37.000Z</time>
      </trkpt>
      <trkpt lat="44.14736" lon="6.09438">
        <ele>1158</ele>
        <time>2022-03-03T10:20:38.000Z</time>
      </trkpt>
      <trkpt lat="44.14736" lon="6.09438">
        <ele>1158</ele>
        <time>2022-03-03T10:20:39.000Z</time>
      </trkpt>
      <trkpt lat="44.14736" lon="6.09438">
        <ele>1158</ele>
        <time>2022-03-03T10:20:40.000Z</time>
      </trkpt>
      <trkpt lat="44.14736" lon="6.09438">
        <ele>1158</ele>
        <time>2022-03-03T10:20:41.000Z</time>
      </trkpt>
      <trkpt lat="44.14737" lon="6.09438">
        <ele>1158</ele>
        <time>2022-03-03T10:20:42.000Z</time>
      </trkpt>
      <trkpt lat="44.14737" lon="6.09438">
        <ele>1158</ele>
        <time>2022-03-03T10:20:43.000Z</time>
      </trkpt>
      <trkpt lat="44.14737" lon="6.09438">
        <ele>1158</ele>
        <time>2022-03-03T10:20:44.000Z</time>
      </trkpt>
      <trkpt lat="44.14737" lon="6.09438">
        <ele>1158</ele>
        <time>2022-03-03T10:20:45.000Z</time>
      </trkpt>
      <trkpt lat="44.14737" lon="6.09438">
        <ele>1158</ele>
        <time>2022-03-03T10:20:46.000Z</time>
      </trkpt>
      <trkpt lat="44.14737" lon="6.09438">
        <ele>1158</ele>
        <time>2022-03-03T10:20:47.000Z</time>
      </trkpt>
      <trkpt lat="44.14737" lon="6.09438">
        <ele>1158</ele>
        <time>2022-03-03T10:20:48.000Z</time>
      </trkpt>
      <trkpt lat="44.14737" lon="6.09438">
        <ele>1158</ele>
        <time>2022-03-03T10:20:49.000Z</time>
      </trkpt>
      <trkpt lat="44.14737" lon="6.09438">
        <ele>1158</ele>
        <time>2022-03-03T10:20:50.000Z</time>
      </trkpt>
      <trkpt lat="44.14737" lon="6.09438">
        <ele>1158</ele>
        <time>2022-03-03T10:20:51.000Z</time>
      </trkpt>
      <trkpt lat="44.14737" lon="6.09438">
        <ele>1158</ele>
        <time>2022-03-03T10:20:52.000Z</time>
      </trkpt>
      <trkpt lat="44.14737" lon="6.09438">
        <ele>1158</ele>
        <time>2022-03-03T10:20:53.000Z</time>
      </trkpt>
      <trkpt lat="44.14737" lon="6.09438">
        <ele>1158</ele>
        <time>2022-03-03T10:20:54.000Z</time>
      </trkpt>
      <trkpt lat="44.14737" lon="6.09438">
        <ele>1158</ele>
        <time>2022-03-03T10:20:55.000Z</time>
      </trkpt>
      <trkpt lat="44.14737" lon="6.09438">
        <ele>1158</ele>
        <time>2022-03-03T10:20:56.000Z</time>
      </trkpt>
      <trkpt lat="44.14737" lon="6.09438">
        <ele>1158</ele>
        <time>2022-03-03T10:20:57.000Z</time>
      </trkpt>
      <trkpt lat="44.14737" lon="6.09438">
        <ele>1158</ele>
        <time>2022-03-03T10:20:58.000Z</time>
      </trkpt>
      <trkpt lat="44.14737" lon="6.09438">
        <ele>1158</ele>
        <time>2022-03-03T10:20:59.000Z</time>
      </trkpt>
      <trkpt lat="44.14737" lon="6.09438">
        <ele>1158</ele>
        <time>2022-03-03T10:21:00.000Z</time>
      </trkpt>
      <trkpt lat="44.14736" lon="6.09438">
        <ele>1158</ele>
        <time>2022-03-03T10:21:01.000Z</time>
      </trkpt>
      <trkpt lat="44.14737" lon="6.09438">
        <ele>1158</ele>
        <time>2022-03-03T10:21:02.000Z</time>
      </trkpt>
      <trkpt lat="44.14736" lon="6.09438">
        <ele>1158</ele>
        <time>2022-03-03T10:21:03.000Z</time>
      </trkpt>
      <trkpt lat="44.14736" lon="6.09438">
        <ele>1158</ele>
        <time>2022-03-03T10:21:04.000Z</time>
      </trkpt>
      <trkpt lat="44.14737" lon="6.09438">
        <ele>1158</ele>
        <time>2022-03-03T10:21:05.000Z</time>
      </trkpt>
      <trkpt lat="44.14736" lon="6.09438">
        <ele>1158</ele>
        <time>2022-03-03T10:21:06.000Z</time>
      </trkpt>
      <trkpt lat="44.14736" lon="6.09438">
        <ele>1158</ele>
        <time>2022-03-03T10:21:07.000Z</time>
      </trkpt>
      <trkpt lat="44.14736" lon="6.09438">
        <ele>1158</ele>
        <time>2022-03-03T10:21:08.000Z</time>
      </trkpt>
      <trkpt lat="44.14737" lon="6.09438">
        <ele>1158</ele>
        <time>2022-03-03T10:21:09.000Z</time>
      </trkpt>
      <trkpt lat="44.14737" lon="6.09438">
        <ele>1158</ele>
        <time>2022-03-03T10:21:10.000Z</time>
      </trkpt>
      <trkpt lat="44.14737" lon="6.09438">
        <ele>1158</ele>
        <time>2022-03-03T10:21:11.000Z</time>
      </trkpt>
      <trkpt lat="44.14737" lon="6.09438">
        <ele>1158</ele>
        <time>2022-03-03T10:21:12.000Z</time>
      </trkpt>
      <trkpt lat="44.14737" lon="6.09438">
        <ele>1158</ele>
        <time>2022-03-03T10:21:13.000Z</time>
      </trkpt>
      <trkpt lat="44.14737" lon="6.09438">
        <ele>1158</ele>
        <time>2022-03-03T10:21:14.000Z</time>
      </trkpt>
      <trkpt lat="44.14737" lon="6.09437">
        <ele>1158</ele>
        <time>2022-03-03T10:21:15.000Z</time>
      </trkpt>
      <trkpt lat="44.14738" lon="6.09437">
        <ele>1158</ele>
        <time>2022-03-03T10:21:16.000Z</time>
      </trkpt>
      <trkpt lat="44.14738" lon="6.09437">
        <ele>1158</ele>
        <time>2022-03-03T10:21:17.000Z</time>
      </trkpt>
      <trkpt lat="44.14739" lon="6.09436">
        <ele>1158</ele>
        <time>2022-03-03T10:21:18.000Z</time>
      </trkpt>
      <trkpt lat="44.14739" lon="6.09436">
        <ele>1158</ele>
        <time>2022-03-03T10:21:19.000Z</time>
      </trkpt>
      <trkpt lat="44.1474" lon="6.09436">
        <ele>1158</ele>
        <time>2022-03-03T10:21:20.000Z</time>
      </trkpt>
      <trkpt lat="44.1474" lon="6.09435">
        <ele>1158</ele>
        <time>2022-03-03T10:21:21.000Z</time>
      </trkpt>
      <trkpt lat="44.14741" lon="6.09435">
        <ele>1158</ele>
        <time>2022-03-03T10:21:22.000Z</time>
      </trkpt>
      <trkpt lat="44.14742" lon="6.09434">
        <ele>1158</ele>
        <time>2022-03-03T10:21:23.000Z</time>
      </trkpt>
      <trkpt lat="44.14743" lon="6.09434">
        <ele>1158</ele>
        <time>2022-03-03T10:21:24.000Z</time>
      </trkpt>
      <trkpt lat="44.14744" lon="6.09434">
        <ele>1158</ele>
        <time>2022-03-03T10:21:25.000Z</time>
      </trkpt>
      <trkpt lat="44.14744" lon="6.09434">
        <ele>1157</ele>
        <time>2022-03-03T10:21:26.000Z</time>
      </trkpt>
      <trkpt lat="44.14745" lon="6.09434">
        <ele>1157</ele>
        <time>2022-03-03T10:21:27.000Z</time>
      </trkpt>
      <trkpt lat="44.14746" lon="6.09434">
        <ele>1157</ele>
        <time>2022-03-03T10:21:28.000Z</time>
      </trkpt>
      <trkpt lat="44.14747" lon="6.09433">
        <ele>1157</ele>
        <time>2022-03-03T10:21:29.000Z</time>
      </trkpt>
      <trkpt lat="44.14748" lon="6.09433">
        <ele>1157</ele>
        <time>2022-03-03T10:21:30.000Z</time>
      </trkpt>
      <trkpt lat="44.14749" lon="6.09433">
        <ele>1157</ele>
        <time>2022-03-03T10:21:31.000Z</time>
      </trkpt>
      <trkpt lat="44.14749" lon="6.09432">
        <ele>1157</ele>
        <time>2022-03-03T10:21:32.000Z</time>
      </trkpt>
      <trkpt lat="44.1475" lon="6.09431">
        <ele>1157</ele>
        <time>2022-03-03T10:21:33.000Z</time>
      </trkpt>
      <trkpt lat="44.14751" lon="6.0943">
        <ele>1157</ele>
        <time>2022-03-03T10:21:34.000Z</time>
      </trkpt>
      <trkpt lat="44.14752" lon="6.09429">
        <ele>1157</ele>
        <time>2022-03-03T10:21:35.000Z</time>
      </trkpt>
      <trkpt lat="44.14752" lon="6.09428">
        <ele>1157</ele>
        <time>2022-03-03T10:21:36.000Z</time>
      </trkpt>
      <trkpt lat="44.14753" lon="6.09427">
        <ele>1157</ele>
        <time>2022-03-03T10:21:37.000Z</time>
      </trkpt>
      <trkpt lat="44.14753" lon="6.09426">
        <ele>1157</ele>
        <time>2022-03-03T10:21:38.000Z</time>
      </trkpt>
      <trkpt lat="44.14754" lon="6.09425">
        <ele>1157</ele>
        <time>2022-03-03T10:21:39.000Z</time>
      </trkpt>
      <trkpt lat="44.14755" lon="6.09424">
        <ele>1157</ele>
        <time>2022-03-03T10:21:40.000Z</time>
      </trkpt>
      <trkpt lat="44.14755" lon="6.09424">
        <ele>1157</ele>
        <time>2022-03-03T10:21:41.000Z</time>
      </trkpt>
      <trkpt lat="44.14756" lon="6.09423">
        <ele>1157</ele>
        <time>2022-03-03T10:21:42.000Z</time>
      </trkpt>
      <trkpt lat="44.14757" lon="6.09422">
        <ele>1157</ele>
        <time>2022-03-03T10:21:43.000Z</time>
      </trkpt>
      <trkpt lat="44.14758" lon="6.09421">
        <ele>1157</ele>
        <time>2022-03-03T10:21:44.000Z</time>
      </trkpt>
      <trkpt lat="44.14758" lon="6.09421">
        <ele>1157</ele>
        <time>2022-03-03T10:21:45.000Z</time>
      </trkpt>
      <trkpt lat="44.14759" lon="6.0942">
        <ele>1157</ele>
        <time>2022-03-03T10:21:46.000Z</time>
      </trkpt>
      <trkpt lat="44.1476" lon="6.0942">
        <ele>1157</ele>
        <time>2022-03-03T10:21:47.000Z</time>
      </trkpt>
      <trkpt lat="44.14761" lon="6.09419">
        <ele>1157</ele>
        <time>2022-03-03T10:21:48.000Z</time>
      </trkpt>
      <trkpt lat="44.14762" lon="6.09419">
        <ele>1157</ele>
        <time>2022-03-03T10:21:49.000Z</time>
      </trkpt>
      <trkpt lat="44.14762" lon="6.09418">
        <ele>1158</ele>
        <time>2022-03-03T10:21:50.000Z</time>
      </trkpt>
      <trkpt lat="44.14763" lon="6.09418">
        <ele>1158</ele>
        <time>2022-03-03T10:21:51.000Z</time>
      </trkpt>
      <trkpt lat="44.14764" lon="6.09417">
        <ele>1158</ele>
        <time>2022-03-03T10:21:52.000Z</time>
      </trkpt>
      <trkpt lat="44.14765" lon="6.09417">
        <ele>1158</ele>
        <time>2022-03-03T10:21:53.000Z</time>
      </trkpt>
      <trkpt lat="44.14766" lon="6.09417">
        <ele>1158</ele>
        <time>2022-03-03T10:21:54.000Z</time>
      </trkpt>
      <trkpt lat="44.14767" lon="6.09417">
        <ele>1158</ele>
        <time>2022-03-03T10:21:55.000Z</time>
      </trkpt>
      <trkpt lat="44.14768" lon="6.09416">
        <ele>1158</ele>
        <time>2022-03-03T10:21:56.000Z</time>
      </trkpt>
      <trkpt lat="44.14768" lon="6.09416">
        <ele>1158</ele>
        <time>2022-03-03T10:21:57.000Z</time>
      </trkpt>
      <trkpt lat="44.1477" lon="6.09416">
        <ele>1159</ele>
        <time>2022-03-03T10:21:58.000Z</time>
      </trkpt>
      <trkpt lat="44.1477" lon="6.09416">
        <ele>1159</ele>
        <time>2022-03-03T10:21:59.000Z</time>
      </trkpt>
      <trkpt lat="44.14771" lon="6.09415">
        <ele>1159</ele>
        <time>2022-03-03T10:22:00.000Z</time>
      </trkpt>
      <trkpt lat="44.14772" lon="6.09415">
        <ele>1159</ele>
        <time>2022-03-03T10:22:01.000Z</time>
      </trkpt>
      <trkpt lat="44.14773" lon="6.09414">
        <ele>1159</ele>
        <time>2022-03-03T10:22:02.000Z</time>
      </trkpt>
      <trkpt lat="44.14774" lon="6.09414">
        <ele>1159</ele>
        <time>2022-03-03T10:22:03.000Z</time>
      </trkpt>
      <trkpt lat="44.14775" lon="6.09414">
        <ele>1159</ele>
        <time>2022-03-03T10:22:04.000Z</time>
      </trkpt>
      <trkpt lat="44.14775" lon="6.09413">
        <ele>1159</ele>
        <time>2022-03-03T10:22:05.000Z</time>
      </trkpt>
      <trkpt lat="44.14776" lon="6.09413">
        <ele>1159</ele>
        <time>2022-03-03T10:22:06.000Z</time>
      </trkpt>
      <trkpt lat="44.14777" lon="6.09412">
        <ele>1159</ele>
        <time>2022-03-03T10:22:07.000Z</time>
      </trkpt>
      <trkpt lat="44.14778" lon="6.09412">
        <ele>1159</ele>
        <time>2022-03-03T10:22:08.000Z</time>
      </trkpt>
      <trkpt lat="44.14779" lon="6.09411">
        <ele>1159</ele>
        <time>2022-03-03T10:22:09.000Z</time>
      </trkpt>
      <trkpt lat="44.1478" lon="6.09411">
        <ele>1159</ele>
        <time>2022-03-03T10:22:10.000Z</time>
      </trkpt>
      <trkpt lat="44.14781" lon="6.0941">
        <ele>1160</ele>
        <time>2022-03-03T10:22:11.000Z</time>
      </trkpt>
      <trkpt lat="44.14781" lon="6.0941">
        <ele>1160</ele>
        <time>2022-03-03T10:22:12.000Z</time>
      </trkpt>
      <trkpt lat="44.14782" lon="6.09409">
        <ele>1160</ele>
        <time>2022-03-03T10:22:13.000Z</time>
      </trkpt>
      <trkpt lat="44.14783" lon="6.09408">
        <ele>1160</ele>
        <time>2022-03-03T10:22:14.000Z</time>
      </trkpt>
      <trkpt lat="44.14784" lon="6.09407">
        <ele>1160</ele>
        <time>2022-03-03T10:22:15.000Z</time>
      </trkpt>
      <trkpt lat="44.14784" lon="6.09407">
        <ele>1160</ele>
        <time>2022-03-03T10:22:16.000Z</time>
      </trkpt>
      <trkpt lat="44.14785" lon="6.09406">
        <ele>1160</ele>
        <time>2022-03-03T10:22:17.000Z</time>
      </trkpt>
      <trkpt lat="44.14786" lon="6.09405">
        <ele>1160</ele>
        <time>2022-03-03T10:22:18.000Z</time>
      </trkpt>
      <trkpt lat="44.14786" lon="6.09404">
        <ele>1160</ele>
        <time>2022-03-03T10:22:19.000Z</time>
      </trkpt>
      <trkpt lat="44.14787" lon="6.09403">
        <ele>1160</ele>
        <time>2022-03-03T10:22:20.000Z</time>
      </trkpt>
      <trkpt lat="44.14788" lon="6.09402">
        <ele>1160</ele>
        <time>2022-03-03T10:22:21.000Z</time>
      </trkpt>
      <trkpt lat="44.14789" lon="6.09401">
        <ele>1161</ele>
        <time>2022-03-03T10:22:22.000Z</time>
      </trkpt>
      <trkpt lat="44.14789" lon="6.09401">
        <ele>1161</ele>
        <time>2022-03-03T10:22:23.000Z</time>
      </trkpt>
      <trkpt lat="44.1479" lon="6.094">
        <ele>1161</ele>
        <time>2022-03-03T10:22:24.000Z</time>
      </trkpt>
      <trkpt lat="44.14791" lon="6.09399">
        <ele>1161</ele>
        <time>2022-03-03T10:22:25.000Z</time>
      </trkpt>
      <trkpt lat="44.14791" lon="6.09399">
        <ele>1161</ele>
        <time>2022-03-03T10:22:26.000Z</time>
      </trkpt>
      <trkpt lat="44.14792" lon="6.09398">
        <ele>1161</ele>
        <time>2022-03-03T10:22:27.000Z</time>
      </trkpt>
      <trkpt lat="44.14793" lon="6.09397">
        <ele>1161</ele>
        <time>2022-03-03T10:22:28.000Z</time>
      </trkpt>
      <trkpt lat="44.14794" lon="6.09397">
        <ele>1161</ele>
        <time>2022-03-03T10:22:29.000Z</time>
      </trkpt>
      <trkpt lat="44.14794" lon="6.09396">
        <ele>1161</ele>
        <time>2022-03-03T10:22:30.000Z</time>
      </trkpt>
      <trkpt lat="44.14795" lon="6.09395">
        <ele>1161</ele>
        <time>2022-03-03T10:22:31.000Z</time>
      </trkpt>
      <trkpt lat="44.14796" lon="6.09394">
        <ele>1161</ele>
        <time>2022-03-03T10:22:32.000Z</time>
      </trkpt>
      <trkpt lat="44.14796" lon="6.09394">
        <ele>1161</ele>
        <time>2022-03-03T10:22:33.000Z</time>
      </trkpt>
      <trkpt lat="44.14797" lon="6.09393">
        <ele>1162</ele>
        <time>2022-03-03T10:22:34.000Z</time>
      </trkpt>
      <trkpt lat="44.14798" lon="6.09393">
        <ele>1162</ele>
        <time>2022-03-03T10:22:35.000Z</time>
      </trkpt>
      <trkpt lat="44.14799" lon="6.09392">
        <ele>1162</ele>
        <time>2022-03-03T10:22:36.000Z</time>
      </trkpt>
      <trkpt lat="44.14799" lon="6.09391">
        <ele>1162</ele>
        <time>2022-03-03T10:22:37.000Z</time>
      </trkpt>
      <trkpt lat="44.148" lon="6.0939">
        <ele>1162</ele>
        <time>2022-03-03T10:22:38.000Z</time>
      </trkpt>
      <trkpt lat="44.14801" lon="6.09389">
        <ele>1162</ele>
        <time>2022-03-03T10:22:39.000Z</time>
      </trkpt>
      <trkpt lat="44.14802" lon="6.09389">
        <ele>1162</ele>
        <time>2022-03-03T10:22:40.000Z</time>
      </trkpt>
      <trkpt lat="44.14802" lon="6.09388">
        <ele>1163</ele>
        <time>2022-03-03T10:22:41.000Z</time>
      </trkpt>
      <trkpt lat="44.14803" lon="6.09387">
        <ele>1163</ele>
        <time>2022-03-03T10:22:42.000Z</time>
      </trkpt>
      <trkpt lat="44.14804" lon="6.09387">
        <ele>1163</ele>
        <time>2022-03-03T10:22:43.000Z</time>
      </trkpt>
      <trkpt lat="44.14804" lon="6.09386">
        <ele>1163</ele>
        <time>2022-03-03T10:22:44.000Z</time>
      </trkpt>
      <trkpt lat="44.14805" lon="6.09386">
        <ele>1163</ele>
        <time>2022-03-03T10:22:45.000Z</time>
      </trkpt>
      <trkpt lat="44.14806" lon="6.09385">
        <ele>1163</ele>
        <time>2022-03-03T10:22:46.000Z</time>
      </trkpt>
      <trkpt lat="44.14807" lon="6.09385">
        <ele>1163</ele>
        <time>2022-03-03T10:22:47.000Z</time>
      </trkpt>
      <trkpt lat="44.14808" lon="6.09385">
        <ele>1163</ele>
        <time>2022-03-03T10:22:48.000Z</time>
      </trkpt>
      <trkpt lat="44.14809" lon="6.09385">
        <ele>1163</ele>
        <time>2022-03-03T10:22:49.000Z</time>
      </trkpt>
      <trkpt lat="44.14809" lon="6.09384">
        <ele>1163</ele>
        <time>2022-03-03T10:22:50.000Z</time>
      </trkpt>
      <trkpt lat="44.1481" lon="6.09383">
        <ele>1163</ele>
        <time>2022-03-03T10:22:51.000Z</time>
      </trkpt>
      <trkpt lat="44.14811" lon="6.09383">
        <ele>1164</ele>
        <time>2022-03-03T10:22:52.000Z</time>
      </trkpt>
      <trkpt lat="44.14811" lon="6.09382">
        <ele>1164</ele>
        <time>2022-03-03T10:22:53.000Z</time>
      </trkpt>
      <trkpt lat="44.14812" lon="6.09381">
        <ele>1164</ele>
        <time>2022-03-03T10:22:54.000Z</time>
      </trkpt>
      <trkpt lat="44.14812" lon="6.09381">
        <ele>1164</ele>
        <time>2022-03-03T10:22:55.000Z</time>
      </trkpt>
      <trkpt lat="44.14813" lon="6.0938">
        <ele>1164</ele>
        <time>2022-03-03T10:22:56.000Z</time>
      </trkpt>
      <trkpt lat="44.14814" lon="6.09379">
        <ele>1164</ele>
        <time>2022-03-03T10:22:57.000Z</time>
      </trkpt>
      <trkpt lat="44.14814" lon="6.09379">
        <ele>1165</ele>
        <time>2022-03-03T10:22:58.000Z</time>
      </trkpt>
      <trkpt lat="44.14815" lon="6.09377">
        <ele>1165</ele>
        <time>2022-03-03T10:22:59.000Z</time>
      </trkpt>
      <trkpt lat="44.14815" lon="6.09377">
        <ele>1165</ele>
        <time>2022-03-03T10:23:00.000Z</time>
      </trkpt>
      <trkpt lat="44.14816" lon="6.09376">
        <ele>1165</ele>
        <time>2022-03-03T10:23:01.000Z</time>
      </trkpt>
      <trkpt lat="44.14816" lon="6.09375">
        <ele>1165</ele>
        <time>2022-03-03T10:23:02.000Z</time>
      </trkpt>
      <trkpt lat="44.14817" lon="6.09374">
        <ele>1165</ele>
        <time>2022-03-03T10:23:03.000Z</time>
      </trkpt>
      <trkpt lat="44.14817" lon="6.09373">
        <ele>1165</ele>
        <time>2022-03-03T10:23:04.000Z</time>
      </trkpt>
      <trkpt lat="44.14818" lon="6.09373">
        <ele>1166</ele>
        <time>2022-03-03T10:23:05.000Z</time>
      </trkpt>
      <trkpt lat="44.14819" lon="6.09372">
        <ele>1166</ele>
        <time>2022-03-03T10:23:06.000Z</time>
      </trkpt>
      <trkpt lat="44.14819" lon="6.09371">
        <ele>1166</ele>
        <time>2022-03-03T10:23:07.000Z</time>
      </trkpt>
      <trkpt lat="44.1482" lon="6.0937">
        <ele>1166</ele>
        <time>2022-03-03T10:23:08.000Z</time>
      </trkpt>
      <trkpt lat="44.1482" lon="6.0937">
        <ele>1166</ele>
        <time>2022-03-03T10:23:09.000Z</time>
      </trkpt>
      <trkpt lat="44.14821" lon="6.09369">
        <ele>1166</ele>
        <time>2022-03-03T10:23:10.000Z</time>
      </trkpt>
      <trkpt lat="44.14822" lon="6.09368">
        <ele>1166</ele>
        <time>2022-03-03T10:23:11.000Z</time>
      </trkpt>
      <trkpt lat="44.14822" lon="6.09368">
        <ele>1166</ele>
        <time>2022-03-03T10:23:12.000Z</time>
      </trkpt>
      <trkpt lat="44.14823" lon="6.09367">
        <ele>1166</ele>
        <time>2022-03-03T10:23:13.000Z</time>
      </trkpt>
      <trkpt lat="44.14824" lon="6.09366">
        <ele>1166</ele>
        <time>2022-03-03T10:23:14.000Z</time>
      </trkpt>
      <trkpt lat="44.14824" lon="6.09366">
        <ele>1166</ele>
        <time>2022-03-03T10:23:15.000Z</time>
      </trkpt>
      <trkpt lat="44.14825" lon="6.09365">
        <ele>1167</ele>
        <time>2022-03-03T10:23:16.000Z</time>
      </trkpt>
      <trkpt lat="44.14825" lon="6.09365">
        <ele>1167</ele>
        <time>2022-03-03T10:23:17.000Z</time>
      </trkpt>
      <trkpt lat="44.14826" lon="6.09364">
        <ele>1167</ele>
        <time>2022-03-03T10:23:18.000Z</time>
      </trkpt>
      <trkpt lat="44.14827" lon="6.09363">
        <ele>1167</ele>
        <time>2022-03-03T10:23:19.000Z</time>
      </trkpt>
      <trkpt lat="44.14827" lon="6.09362">
        <ele>1167</ele>
        <time>2022-03-03T10:23:20.000Z</time>
      </trkpt>
      <trkpt lat="44.14828" lon="6.09362">
        <ele>1167</ele>
        <time>2022-03-03T10:23:21.000Z</time>
      </trkpt>
      <trkpt lat="44.14828" lon="6.09361">
        <ele>1167</ele>
        <time>2022-03-03T10:23:22.000Z</time>
      </trkpt>
      <trkpt lat="44.14829" lon="6.09361">
        <ele>1167</ele>
        <time>2022-03-03T10:23:23.000Z</time>
      </trkpt>
      <trkpt lat="44.1483" lon="6.0936">
        <ele>1167</ele>
        <time>2022-03-03T10:23:24.000Z</time>
      </trkpt>
      <trkpt lat="44.14831" lon="6.0936">
        <ele>1168</ele>
        <time>2022-03-03T10:23:25.000Z</time>
      </trkpt>
      <trkpt lat="44.14831" lon="6.09359">
        <ele>1168</ele>
        <time>2022-03-03T10:23:26.000Z</time>
      </trkpt>
      <trkpt lat="44.14832" lon="6.09359">
        <ele>1168</ele>
        <time>2022-03-03T10:23:27.000Z</time>
      </trkpt>
      <trkpt lat="44.14832" lon="6.09358">
        <ele>1168</ele>
        <time>2022-03-03T10:23:28.000Z</time>
      </trkpt>
      <trkpt lat="44.14833" lon="6.09357">
        <ele>1168</ele>
        <time>2022-03-03T10:23:29.000Z</time>
      </trkpt>
      <trkpt lat="44.14834" lon="6.09357">
        <ele>1168</ele>
        <time>2022-03-03T10:23:30.000Z</time>
      </trkpt>
      <trkpt lat="44.14834" lon="6.09356">
        <ele>1169</ele>
        <time>2022-03-03T10:23:31.000Z</time>
      </trkpt>
      <trkpt lat="44.14835" lon="6.09355">
        <ele>1169</ele>
        <time>2022-03-03T10:23:32.000Z</time>
      </trkpt>
      <trkpt lat="44.14835" lon="6.09355">
        <ele>1169</ele>
        <time>2022-03-03T10:23:33.000Z</time>
      </trkpt>
      <trkpt lat="44.14836" lon="6.09354">
        <ele>1169</ele>
        <time>2022-03-03T10:23:34.000Z</time>
      </trkpt>
      <trkpt lat="44.14837" lon="6.09354">
        <ele>1169</ele>
        <time>2022-03-03T10:23:35.000Z</time>
      </trkpt>
      <trkpt lat="44.14837" lon="6.09353">
        <ele>1169</ele>
        <time>2022-03-03T10:23:36.000Z</time>
      </trkpt>
      <trkpt lat="44.14838" lon="6.09353">
        <ele>1170</ele>
        <time>2022-03-03T10:23:37.000Z</time>
      </trkpt>
      <trkpt lat="44.14839" lon="6.09352">
        <ele>1170</ele>
        <time>2022-03-03T10:23:38.000Z</time>
      </trkpt>
      <trkpt lat="44.14839" lon="6.09352">
        <ele>1170</ele>
        <time>2022-03-03T10:23:39.000Z</time>
      </trkpt>
      <trkpt lat="44.1484" lon="6.09351">
        <ele>1170</ele>
        <time>2022-03-03T10:23:40.000Z</time>
      </trkpt>
      <trkpt lat="44.1484" lon="6.0935">
        <ele>1170</ele>
        <time>2022-03-03T10:23:41.000Z</time>
      </trkpt>
      <trkpt lat="44.14841" lon="6.0935">
        <ele>1170</ele>
        <time>2022-03-03T10:23:42.000Z</time>
      </trkpt>
      <trkpt lat="44.14842" lon="6.09349">
        <ele>1171</ele>
        <time>2022-03-03T10:23:43.000Z</time>
      </trkpt>
      <trkpt lat="44.14842" lon="6.09349">
        <ele>1171</ele>
        <time>2022-03-03T10:23:44.000Z</time>
      </trkpt>
      <trkpt lat="44.14843" lon="6.09348">
        <ele>1171</ele>
        <time>2022-03-03T10:23:45.000Z</time>
      </trkpt>
      <trkpt lat="44.14844" lon="6.09348">
        <ele>1171</ele>
        <time>2022-03-03T10:23:46.000Z</time>
      </trkpt>
      <trkpt lat="44.14844" lon="6.09347">
        <ele>1171</ele>
        <time>2022-03-03T10:23:47.000Z</time>
      </trkpt>
      <trkpt lat="44.14845" lon="6.09347">
        <ele>1171</ele>
        <time>2022-03-03T10:23:48.000Z</time>
      </trkpt>
      <trkpt lat="44.14846" lon="6.09346">
        <ele>1171</ele>
        <time>2022-03-03T10:23:49.000Z</time>
      </trkpt>
      <trkpt lat="44.14846" lon="6.09345">
        <ele>1171</ele>
        <time>2022-03-03T10:23:50.000Z</time>
      </trkpt>
      <trkpt lat="44.14847" lon="6.09345">
        <ele>1171</ele>
        <time>2022-03-03T10:23:51.000Z</time>
      </trkpt>
      <trkpt lat="44.14848" lon="6.09344">
        <ele>1172</ele>
        <time>2022-03-03T10:23:52.000Z</time>
      </trkpt>
      <trkpt lat="44.14848" lon="6.09343">
        <ele>1172</ele>
        <time>2022-03-03T10:23:53.000Z</time>
      </trkpt>
      <trkpt lat="44.14849" lon="6.09343">
        <ele>1172</ele>
        <time>2022-03-03T10:23:54.000Z</time>
      </trkpt>
      <trkpt lat="44.14849" lon="6.09342">
        <ele>1172</ele>
        <time>2022-03-03T10:23:55.000Z</time>
      </trkpt>
      <trkpt lat="44.1485" lon="6.09341">
        <ele>1172</ele>
        <time>2022-03-03T10:23:56.000Z</time>
      </trkpt>
      <trkpt lat="44.14851" lon="6.0934">
        <ele>1172</ele>
        <time>2022-03-03T10:23:57.000Z</time>
      </trkpt>
      <trkpt lat="44.14851" lon="6.09339">
        <ele>1172</ele>
        <time>2022-03-03T10:23:58.000Z</time>
      </trkpt>
      <trkpt lat="44.14852" lon="6.09339">
        <ele>1172</ele>
        <time>2022-03-03T10:23:59.000Z</time>
      </trkpt>
      <trkpt lat="44.14853" lon="6.09338">
        <ele>1172</ele>
        <time>2022-03-03T10:24:00.000Z</time>
      </trkpt>
      <trkpt lat="44.14853" lon="6.09337">
        <ele>1173</ele>
        <time>2022-03-03T10:24:01.000Z</time>
      </trkpt>
      <trkpt lat="44.14854" lon="6.09336">
        <ele>1173</ele>
        <time>2022-03-03T10:24:02.000Z</time>
      </trkpt>
      <trkpt lat="44.14854" lon="6.09335">
        <ele>1173</ele>
        <time>2022-03-03T10:24:03.000Z</time>
      </trkpt>
      <trkpt lat="44.14855" lon="6.09335">
        <ele>1173</ele>
        <time>2022-03-03T10:24:04.000Z</time>
      </trkpt>
      <trkpt lat="44.14855" lon="6.09334">
        <ele>1173</ele>
        <time>2022-03-03T10:24:05.000Z</time>
      </trkpt>
      <trkpt lat="44.14856" lon="6.09333">
        <ele>1173</ele>
        <time>2022-03-03T10:24:06.000Z</time>
      </trkpt>
      <trkpt lat="44.14857" lon="6.09332">
        <ele>1173</ele>
        <time>2022-03-03T10:24:07.000Z</time>
      </trkpt>
      <trkpt lat="44.14857" lon="6.09332">
        <ele>1173</ele>
        <time>2022-03-03T10:24:08.000Z</time>
      </trkpt>
      <trkpt lat="44.14858" lon="6.09331">
        <ele>1174</ele>
        <time>2022-03-03T10:24:09.000Z</time>
      </trkpt>
      <trkpt lat="44.14858" lon="6.0933">
        <ele>1174</ele>
        <time>2022-03-03T10:24:10.000Z</time>
      </trkpt>
      <trkpt lat="44.14859" lon="6.09329">
        <ele>1174</ele>
        <time>2022-03-03T10:24:11.000Z</time>
      </trkpt>
      <trkpt lat="44.14859" lon="6.09328">
        <ele>1174</ele>
        <time>2022-03-03T10:24:12.000Z</time>
      </trkpt>
      <trkpt lat="44.1486" lon="6.09328">
        <ele>1174</ele>
        <time>2022-03-03T10:24:13.000Z</time>
      </trkpt>
      <trkpt lat="44.1486" lon="6.09327">
        <ele>1174</ele>
        <time>2022-03-03T10:24:14.000Z</time>
      </trkpt>
      <trkpt lat="44.14861" lon="6.09326">
        <ele>1174</ele>
        <time>2022-03-03T10:24:15.000Z</time>
      </trkpt>
      <trkpt lat="44.14861" lon="6.09325">
        <ele>1174</ele>
        <time>2022-03-03T10:24:16.000Z</time>
      </trkpt>
      <trkpt lat="44.14862" lon="6.09324">
        <ele>1175</ele>
        <time>2022-03-03T10:24:17.000Z</time>
      </trkpt>
      <trkpt lat="44.14863" lon="6.09323">
        <ele>1175</ele>
        <time>2022-03-03T10:24:18.000Z</time>
      </trkpt>
      <trkpt lat="44.14863" lon="6.09322">
        <ele>1175</ele>
        <time>2022-03-03T10:24:19.000Z</time>
      </trkpt>
      <trkpt lat="44.14864" lon="6.09321">
        <ele>1175</ele>
        <time>2022-03-03T10:24:20.000Z</time>
      </trkpt>
      <trkpt lat="44.14864" lon="6.09321">
        <ele>1175</ele>
        <time>2022-03-03T10:24:21.000Z</time>
      </trkpt>
      <trkpt lat="44.14865" lon="6.0932">
        <ele>1175</ele>
        <time>2022-03-03T10:24:22.000Z</time>
      </trkpt>
      <trkpt lat="44.14866" lon="6.09319">
        <ele>1175</ele>
        <time>2022-03-03T10:24:23.000Z</time>
      </trkpt>
      <trkpt lat="44.14866" lon="6.09318">
        <ele>1175</ele>
        <time>2022-03-03T10:24:24.000Z</time>
      </trkpt>
      <trkpt lat="44.14867" lon="6.09317">
        <ele>1175</ele>
        <time>2022-03-03T10:24:25.000Z</time>
      </trkpt>
      <trkpt lat="44.14867" lon="6.09316">
        <ele>1175</ele>
        <time>2022-03-03T10:24:26.000Z</time>
      </trkpt>
      <trkpt lat="44.14868" lon="6.09315">
        <ele>1175</ele>
        <time>2022-03-03T10:24:27.000Z</time>
      </trkpt>
      <trkpt lat="44.14868" lon="6.09314">
        <ele>1175</ele>
        <time>2022-03-03T10:24:28.000Z</time>
      </trkpt>
      <trkpt lat="44.14869" lon="6.09313">
        <ele>1175</ele>
        <time>2022-03-03T10:24:29.000Z</time>
      </trkpt>
      <trkpt lat="44.1487" lon="6.09312">
        <ele>1175</ele>
        <time>2022-03-03T10:24:30.000Z</time>
      </trkpt>
      <trkpt lat="44.1487" lon="6.09311">
        <ele>1175</ele>
        <time>2022-03-03T10:24:31.000Z</time>
      </trkpt>
      <trkpt lat="44.14871" lon="6.0931">
        <ele>1175</ele>
        <time>2022-03-03T10:24:32.000Z</time>
      </trkpt>
      <trkpt lat="44.14871" lon="6.09309">
        <ele>1175</ele>
        <time>2022-03-03T10:24:33.000Z</time>
      </trkpt>
      <trkpt lat="44.14872" lon="6.09308">
        <ele>1175</ele>
        <time>2022-03-03T10:24:34.000Z</time>
      </trkpt>
      <trkpt lat="44.14873" lon="6.09307">
        <ele>1175</ele>
        <time>2022-03-03T10:24:35.000Z</time>
      </trkpt>
      <trkpt lat="44.14873" lon="6.09306">
        <ele>1175</ele>
        <time>2022-03-03T10:24:36.000Z</time>
      </trkpt>
      <trkpt lat="44.14874" lon="6.09305">
        <ele>1175</ele>
        <time>2022-03-03T10:24:37.000Z</time>
      </trkpt>
      <trkpt lat="44.14874" lon="6.09304">
        <ele>1175</ele>
        <time>2022-03-03T10:24:38.000Z</time>
      </trkpt>
      <trkpt lat="44.14875" lon="6.09303">
        <ele>1175</ele>
        <time>2022-03-03T10:24:39.000Z</time>
      </trkpt>
      <trkpt lat="44.14876" lon="6.09302">
        <ele>1175</ele>
        <time>2022-03-03T10:24:40.000Z</time>
      </trkpt>
      <trkpt lat="44.14876" lon="6.09301">
        <ele>1175</ele>
        <time>2022-03-03T10:24:41.000Z</time>
      </trkpt>
      <trkpt lat="44.14877" lon="6.093">
        <ele>1175</ele>
        <time>2022-03-03T10:24:42.000Z</time>
      </trkpt>
      <trkpt lat="44.14877" lon="6.09299">
        <ele>1175</ele>
        <time>2022-03-03T10:24:43.000Z</time>
      </trkpt>
      <trkpt lat="44.14878" lon="6.09298">
        <ele>1175</ele>
        <time>2022-03-03T10:24:44.000Z</time>
      </trkpt>
      <trkpt lat="44.14879" lon="6.09297">
        <ele>1175</ele>
        <time>2022-03-03T10:24:45.000Z</time>
      </trkpt>
      <trkpt lat="44.14879" lon="6.09296">
        <ele>1175</ele>
        <time>2022-03-03T10:24:46.000Z</time>
      </trkpt>
      <trkpt lat="44.1488" lon="6.09295">
        <ele>1175</ele>
        <time>2022-03-03T10:24:47.000Z</time>
      </trkpt>
      <trkpt lat="44.14881" lon="6.09294">
        <ele>1175</ele>
        <time>2022-03-03T10:24:48.000Z</time>
      </trkpt>
      <trkpt lat="44.14881" lon="6.09293">
        <ele>1175</ele>
        <time>2022-03-03T10:24:49.000Z</time>
      </trkpt>
      <trkpt lat="44.14882" lon="6.09292">
        <ele>1175</ele>
        <time>2022-03-03T10:24:50.000Z</time>
      </trkpt>
      <trkpt lat="44.14883" lon="6.09291">
        <ele>1175</ele>
        <time>2022-03-03T10:24:51.000Z</time>
      </trkpt>
      <trkpt lat="44.14883" lon="6.0929">
        <ele>1175</ele>
        <time>2022-03-03T10:24:52.000Z</time>
      </trkpt>
      <trkpt lat="44.14884" lon="6.09289">
        <ele>1175</ele>
        <time>2022-03-03T10:24:53.000Z</time>
      </trkpt>
      <trkpt lat="44.14885" lon="6.09288">
        <ele>1175</ele>
        <time>2022-03-03T10:24:54.000Z</time>
      </trkpt>
      <trkpt lat="44.14885" lon="6.09287">
        <ele>1175</ele>
        <time>2022-03-03T10:24:55.000Z</time>
      </trkpt>
      <trkpt lat="44.14886" lon="6.09286">
        <ele>1174</ele>
        <time>2022-03-03T10:24:56.000Z</time>
      </trkpt>
      <trkpt lat="44.14886" lon="6.09285">
        <ele>1174</ele>
        <time>2022-03-03T10:24:57.000Z</time>
      </trkpt>
      <trkpt lat="44.14887" lon="6.09284">
        <ele>1174</ele>
        <time>2022-03-03T10:24:58.000Z</time>
      </trkpt>
      <trkpt lat="44.14888" lon="6.09283">
        <ele>1174</ele>
        <time>2022-03-03T10:24:59.000Z</time>
      </trkpt>
      <trkpt lat="44.14888" lon="6.09282">
        <ele>1174</ele>
        <time>2022-03-03T10:25:00.000Z</time>
      </trkpt>
      <trkpt lat="44.14889" lon="6.09281">
        <ele>1174</ele>
        <time>2022-03-03T10:25:01.000Z</time>
      </trkpt>
      <trkpt lat="44.1489" lon="6.0928">
        <ele>1174</ele>
        <time>2022-03-03T10:25:02.000Z</time>
      </trkpt>
      <trkpt lat="44.1489" lon="6.09279">
        <ele>1174</ele>
        <time>2022-03-03T10:25:03.000Z</time>
      </trkpt>
      <trkpt lat="44.14891" lon="6.09278">
        <ele>1174</ele>
        <time>2022-03-03T10:25:04.000Z</time>
      </trkpt>
      <trkpt lat="44.14892" lon="6.09277">
        <ele>1174</ele>
        <time>2022-03-03T10:25:05.000Z</time>
      </trkpt>
      <trkpt lat="44.14892" lon="6.09276">
        <ele>1174</ele>
        <time>2022-03-03T10:25:06.000Z</time>
      </trkpt>
      <trkpt lat="44.14893" lon="6.09275">
        <ele>1174</ele>
        <time>2022-03-03T10:25:07.000Z</time>
      </trkpt>
      <trkpt lat="44.14894" lon="6.09274">
        <ele>1174</ele>
        <time>2022-03-03T10:25:08.000Z</time>
      </trkpt>
      <trkpt lat="44.14895" lon="6.09273">
        <ele>1173</ele>
        <time>2022-03-03T10:25:09.000Z</time>
      </trkpt>
      <trkpt lat="44.14895" lon="6.09271">
        <ele>1173</ele>
        <time>2022-03-03T10:25:10.000Z</time>
      </trkpt>
      <trkpt lat="44.14896" lon="6.0927">
        <ele>1173</ele>
        <time>2022-03-03T10:25:11.000Z</time>
      </trkpt>
      <trkpt lat="44.14896" lon="6.0927">
        <ele>1173</ele>
        <time>2022-03-03T10:25:12.000Z</time>
      </trkpt>
      <trkpt lat="44.14897" lon="6.09269">
        <ele>1173</ele>
        <time>2022-03-03T10:25:13.000Z</time>
      </trkpt>
      <trkpt lat="44.14898" lon="6.09268">
        <ele>1173</ele>
        <time>2022-03-03T10:25:14.000Z</time>
      </trkpt>
      <trkpt lat="44.14898" lon="6.09267">
        <ele>1173</ele>
        <time>2022-03-03T10:25:15.000Z</time>
      </trkpt>
      <trkpt lat="44.14899" lon="6.09266">
        <ele>1173</ele>
        <time>2022-03-03T10:25:16.000Z</time>
      </trkpt>
      <trkpt lat="44.149" lon="6.09265">
        <ele>1173</ele>
        <time>2022-03-03T10:25:17.000Z</time>
      </trkpt>
      <trkpt lat="44.149" lon="6.09264">
        <ele>1173</ele>
        <time>2022-03-03T10:25:18.000Z</time>
      </trkpt>
      <trkpt lat="44.14901" lon="6.09263">
        <ele>1173</ele>
        <time>2022-03-03T10:25:19.000Z</time>
      </trkpt>
      <trkpt lat="44.14902" lon="6.09263">
        <ele>1172</ele>
        <time>2022-03-03T10:25:20.000Z</time>
      </trkpt>
      <trkpt lat="44.14902" lon="6.09262">
        <ele>1172</ele>
        <time>2022-03-03T10:25:21.000Z</time>
      </trkpt>
      <trkpt lat="44.14903" lon="6.09261">
        <ele>1172</ele>
        <time>2022-03-03T10:25:22.000Z</time>
      </trkpt>
      <trkpt lat="44.14904" lon="6.0926">
        <ele>1172</ele>
        <time>2022-03-03T10:25:23.000Z</time>
      </trkpt>
      <trkpt lat="44.14904" lon="6.09259">
        <ele>1172</ele>
        <time>2022-03-03T10:25:24.000Z</time>
      </trkpt>
      <trkpt lat="44.14905" lon="6.09258">
        <ele>1172</ele>
        <time>2022-03-03T10:25:25.000Z</time>
      </trkpt>
      <trkpt lat="44.14906" lon="6.09257">
        <ele>1172</ele>
        <time>2022-03-03T10:25:26.000Z</time>
      </trkpt>
      <trkpt lat="44.14907" lon="6.09256">
        <ele>1172</ele>
        <time>2022-03-03T10:25:27.000Z</time>
      </trkpt>
      <trkpt lat="44.14907" lon="6.09256">
        <ele>1172</ele>
        <time>2022-03-03T10:25:28.000Z</time>
      </trkpt>
      <trkpt lat="44.14908" lon="6.09255">
        <ele>1171</ele>
        <time>2022-03-03T10:25:29.000Z</time>
      </trkpt>
      <trkpt lat="44.14909" lon="6.09254">
        <ele>1171</ele>
        <time>2022-03-03T10:25:30.000Z</time>
      </trkpt>
      <trkpt lat="44.14909" lon="6.09253">
        <ele>1171</ele>
        <time>2022-03-03T10:25:31.000Z</time>
      </trkpt>
      <trkpt lat="44.1491" lon="6.09251">
        <ele>1171</ele>
        <time>2022-03-03T10:25:32.000Z</time>
      </trkpt>
      <trkpt lat="44.14911" lon="6.09251">
        <ele>1171</ele>
        <time>2022-03-03T10:25:33.000Z</time>
      </trkpt>
      <trkpt lat="44.14912" lon="6.0925">
        <ele>1171</ele>
        <time>2022-03-03T10:25:34.000Z</time>
      </trkpt>
      <trkpt lat="44.14912" lon="6.09249">
        <ele>1171</ele>
        <time>2022-03-03T10:25:35.000Z</time>
      </trkpt>
      <trkpt lat="44.14913" lon="6.09248">
        <ele>1171</ele>
        <time>2022-03-03T10:25:36.000Z</time>
      </trkpt>
      <trkpt lat="44.14914" lon="6.09247">
        <ele>1171</ele>
        <time>2022-03-03T10:25:37.000Z</time>
      </trkpt>
      <trkpt lat="44.14914" lon="6.09246">
        <ele>1171</ele>
        <time>2022-03-03T10:25:38.000Z</time>
      </trkpt>
      <trkpt lat="44.14915" lon="6.09245">
        <ele>1171</ele>
        <time>2022-03-03T10:25:39.000Z</time>
      </trkpt>
      <trkpt lat="44.14916" lon="6.09244">
        <ele>1171</ele>
        <time>2022-03-03T10:25:40.000Z</time>
      </trkpt>
      <trkpt lat="44.14917" lon="6.09243">
        <ele>1171</ele>
        <time>2022-03-03T10:25:41.000Z</time>
      </trkpt>
      <trkpt lat="44.14918" lon="6.09242">
        <ele>1171</ele>
        <time>2022-03-03T10:25:42.000Z</time>
      </trkpt>
      <trkpt lat="44.14918" lon="6.09241">
        <ele>1170</ele>
        <time>2022-03-03T10:25:43.000Z</time>
      </trkpt>
      <trkpt lat="44.14919" lon="6.0924">
        <ele>1170</ele>
        <time>2022-03-03T10:25:44.000Z</time>
      </trkpt>
      <trkpt lat="44.1492" lon="6.09238">
        <ele>1170</ele>
        <time>2022-03-03T10:25:45.000Z</time>
      </trkpt>
      <trkpt lat="44.1492" lon="6.09237">
        <ele>1170</ele>
        <time>2022-03-03T10:25:46.000Z</time>
      </trkpt>
      <trkpt lat="44.14921" lon="6.09236">
        <ele>1170</ele>
        <time>2022-03-03T10:25:47.000Z</time>
      </trkpt>
      <trkpt lat="44.14922" lon="6.09235">
        <ele>1170</ele>
        <time>2022-03-03T10:25:48.000Z</time>
      </trkpt>
      <trkpt lat="44.14923" lon="6.09234">
        <ele>1170</ele>
        <time>2022-03-03T10:25:49.000Z</time>
      </trkpt>
      <trkpt lat="44.14924" lon="6.09232">
        <ele>1170</ele>
        <time>2022-03-03T10:25:50.000Z</time>
      </trkpt>
      <trkpt lat="44.14924" lon="6.09231">
        <ele>1170</ele>
        <time>2022-03-03T10:25:51.000Z</time>
      </trkpt>
      <trkpt lat="44.14925" lon="6.0923">
        <ele>1170</ele>
        <time>2022-03-03T10:25:52.000Z</time>
      </trkpt>
      <trkpt lat="44.14926" lon="6.09229">
        <ele>1170</ele>
        <time>2022-03-03T10:25:53.000Z</time>
      </trkpt>
      <trkpt lat="44.14926" lon="6.09228">
        <ele>1170</ele>
        <time>2022-03-03T10:25:54.000Z</time>
      </trkpt>
      <trkpt lat="44.14927" lon="6.09227">
        <ele>1170</ele>
        <time>2022-03-03T10:25:55.000Z</time>
      </trkpt>
      <trkpt lat="44.14928" lon="6.09226">
        <ele>1170</ele>
        <time>2022-03-03T10:25:56.000Z</time>
      </trkpt>
      <trkpt lat="44.14929" lon="6.09225">
        <ele>1170</ele>
        <time>2022-03-03T10:25:57.000Z</time>
      </trkpt>
      <trkpt lat="44.1493" lon="6.09224">
        <ele>1170</ele>
        <time>2022-03-03T10:25:58.000Z</time>
      </trkpt>
      <trkpt lat="44.1493" lon="6.09222">
        <ele>1170</ele>
        <time>2022-03-03T10:25:59.000Z</time>
      </trkpt>
      <trkpt lat="44.14931" lon="6.09221">
        <ele>1170</ele>
        <time>2022-03-03T10:26:00.000Z</time>
      </trkpt>
      <trkpt lat="44.14932" lon="6.0922">
        <ele>1170</ele>
        <time>2022-03-03T10:26:01.000Z</time>
      </trkpt>
      <trkpt lat="44.14932" lon="6.09219">
        <ele>1170</ele>
        <time>2022-03-03T10:26:02.000Z</time>
      </trkpt>
      <trkpt lat="44.14933" lon="6.09218">
        <ele>1170</ele>
        <time>2022-03-03T10:26:03.000Z</time>
      </trkpt>
      <trkpt lat="44.14934" lon="6.09217">
        <ele>1170</ele>
        <time>2022-03-03T10:26:04.000Z</time>
      </trkpt>
      <trkpt lat="44.14934" lon="6.09215">
        <ele>1170</ele>
        <time>2022-03-03T10:26:05.000Z</time>
      </trkpt>
      <trkpt lat="44.14935" lon="6.09214">
        <ele>1170</ele>
        <time>2022-03-03T10:26:06.000Z</time>
      </trkpt>
      <trkpt lat="44.14935" lon="6.09213">
        <ele>1170</ele>
        <time>2022-03-03T10:26:07.000Z</time>
      </trkpt>
      <trkpt lat="44.14936" lon="6.09212">
        <ele>1171</ele>
        <time>2022-03-03T10:26:08.000Z</time>
      </trkpt>
      <trkpt lat="44.14937" lon="6.09211">
        <ele>1171</ele>
        <time>2022-03-03T10:26:09.000Z</time>
      </trkpt>
      <trkpt lat="44.14937" lon="6.0921">
        <ele>1171</ele>
        <time>2022-03-03T10:26:10.000Z</time>
      </trkpt>
      <trkpt lat="44.14938" lon="6.09208">
        <ele>1171</ele>
        <time>2022-03-03T10:26:11.000Z</time>
      </trkpt>
      <trkpt lat="44.14938" lon="6.09207">
        <ele>1171</ele>
        <time>2022-03-03T10:26:12.000Z</time>
      </trkpt>
      <trkpt lat="44.14939" lon="6.09206">
        <ele>1171</ele>
        <time>2022-03-03T10:26:13.000Z</time>
      </trkpt>
      <trkpt lat="44.14939" lon="6.09204">
        <ele>1171</ele>
        <time>2022-03-03T10:26:14.000Z</time>
      </trkpt>
      <trkpt lat="44.1494" lon="6.09203">
        <ele>1171</ele>
        <time>2022-03-03T10:26:15.000Z</time>
      </trkpt>
      <trkpt lat="44.1494" lon="6.09202">
        <ele>1171</ele>
        <time>2022-03-03T10:26:16.000Z</time>
      </trkpt>
      <trkpt lat="44.14941" lon="6.09201">
        <ele>1171</ele>
        <time>2022-03-03T10:26:17.000Z</time>
      </trkpt>
      <trkpt lat="44.14942" lon="6.092">
        <ele>1171</ele>
        <time>2022-03-03T10:26:18.000Z</time>
      </trkpt>
      <trkpt lat="44.14943" lon="6.09199">
        <ele>1171</ele>
        <time>2022-03-03T10:26:19.000Z</time>
      </trkpt>
      <trkpt lat="44.14944" lon="6.09198">
        <ele>1171</ele>
        <time>2022-03-03T10:26:20.000Z</time>
      </trkpt>
      <trkpt lat="44.14944" lon="6.09197">
        <ele>1170</ele>
        <time>2022-03-03T10:26:21.000Z</time>
      </trkpt>
      <trkpt lat="44.14945" lon="6.09196">
        <ele>1170</ele>
        <time>2022-03-03T10:26:22.000Z</time>
      </trkpt>
      <trkpt lat="44.14947" lon="6.09195">
        <ele>1170</ele>
        <time>2022-03-03T10:26:23.000Z</time>
      </trkpt>
      <trkpt lat="44.14947" lon="6.09194">
        <ele>1170</ele>
        <time>2022-03-03T10:26:24.000Z</time>
      </trkpt>
      <trkpt lat="44.14948" lon="6.09193">
        <ele>1170</ele>
        <time>2022-03-03T10:26:25.000Z</time>
      </trkpt>
      <trkpt lat="44.14949" lon="6.09192">
        <ele>1170</ele>
        <time>2022-03-03T10:26:26.000Z</time>
      </trkpt>
      <trkpt lat="44.14949" lon="6.0919">
        <ele>1170</ele>
        <time>2022-03-03T10:26:27.000Z</time>
      </trkpt>
      <trkpt lat="44.14949" lon="6.09189">
        <ele>1170</ele>
        <time>2022-03-03T10:26:28.000Z</time>
      </trkpt>
      <trkpt lat="44.1495" lon="6.09187">
        <ele>1170</ele>
        <time>2022-03-03T10:26:29.000Z</time>
      </trkpt>
      <trkpt lat="44.1495" lon="6.09186">
        <ele>1170</ele>
        <time>2022-03-03T10:26:30.000Z</time>
      </trkpt>
      <trkpt lat="44.1495" lon="6.09184">
        <ele>1170</ele>
        <time>2022-03-03T10:26:31.000Z</time>
      </trkpt>
      <trkpt lat="44.14951" lon="6.09183">
        <ele>1170</ele>
        <time>2022-03-03T10:26:32.000Z</time>
      </trkpt>
      <trkpt lat="44.14952" lon="6.09181">
        <ele>1170</ele>
        <time>2022-03-03T10:26:33.000Z</time>
      </trkpt>
      <trkpt lat="44.14952" lon="6.0918">
        <ele>1170</ele>
        <time>2022-03-03T10:26:34.000Z</time>
      </trkpt>
      <trkpt lat="44.14952" lon="6.09179">
        <ele>1170</ele>
        <time>2022-03-03T10:26:35.000Z</time>
      </trkpt>
      <trkpt lat="44.14953" lon="6.09177">
        <ele>1170</ele>
        <time>2022-03-03T10:26:36.000Z</time>
      </trkpt>
      <trkpt lat="44.14953" lon="6.09176">
        <ele>1170</ele>
        <time>2022-03-03T10:26:37.000Z</time>
      </trkpt>
      <trkpt lat="44.14953" lon="6.09174">
        <ele>1170</ele>
        <time>2022-03-03T10:26:38.000Z</time>
      </trkpt>
      <trkpt lat="44.14954" lon="6.09173">
        <ele>1170</ele>
        <time>2022-03-03T10:26:39.000Z</time>
      </trkpt>
      <trkpt lat="44.14954" lon="6.09172">
        <ele>1170</ele>
        <time>2022-03-03T10:26:40.000Z</time>
      </trkpt>
      <trkpt lat="44.14955" lon="6.0917">
        <ele>1170</ele>
        <time>2022-03-03T10:26:41.000Z</time>
      </trkpt>
      <trkpt lat="44.14955" lon="6.09169">
        <ele>1170</ele>
        <time>2022-03-03T10:26:42.000Z</time>
      </trkpt>
      <trkpt lat="44.14956" lon="6.09168">
        <ele>1170</ele>
        <time>2022-03-03T10:26:43.000Z</time>
      </trkpt>
      <trkpt lat="44.14956" lon="6.09167">
        <ele>1170</ele>
        <time>2022-03-03T10:26:44.000Z</time>
      </trkpt>
      <trkpt lat="44.14957" lon="6.09165">
        <ele>1170</ele>
        <time>2022-03-03T10:26:45.000Z</time>
      </trkpt>
      <trkpt lat="44.14958" lon="6.09164">
        <ele>1170</ele>
        <time>2022-03-03T10:26:46.000Z</time>
      </trkpt>
      <trkpt lat="44.14958" lon="6.09163">
        <ele>1170</ele>
        <time>2022-03-03T10:26:47.000Z</time>
      </trkpt>
      <trkpt lat="44.14959" lon="6.09162">
        <ele>1170</ele>
        <time>2022-03-03T10:26:48.000Z</time>
      </trkpt>
      <trkpt lat="44.14959" lon="6.0916">
        <ele>1170</ele>
        <time>2022-03-03T10:26:49.000Z</time>
      </trkpt>
      <trkpt lat="44.1496" lon="6.09159">
        <ele>1170</ele>
        <time>2022-03-03T10:26:50.000Z</time>
      </trkpt>
      <trkpt lat="44.1496" lon="6.09158">
        <ele>1170</ele>
        <time>2022-03-03T10:26:51.000Z</time>
      </trkpt>
      <trkpt lat="44.1496" lon="6.09157">
        <ele>1170</ele>
        <time>2022-03-03T10:26:52.000Z</time>
      </trkpt>
      <trkpt lat="44.14961" lon="6.09155">
        <ele>1170</ele>
        <time>2022-03-03T10:26:53.000Z</time>
      </trkpt>
      <trkpt lat="44.14961" lon="6.09153">
        <ele>1170</ele>
        <time>2022-03-03T10:26:54.000Z</time>
      </trkpt>
      <trkpt lat="44.14961" lon="6.09152">
        <ele>1170</ele>
        <time>2022-03-03T10:26:55.000Z</time>
      </trkpt>
      <trkpt lat="44.14962" lon="6.09151">
        <ele>1170</ele>
        <time>2022-03-03T10:26:56.000Z</time>
      </trkpt>
      <trkpt lat="44.14963" lon="6.0915">
        <ele>1170</ele>
        <time>2022-03-03T10:26:57.000Z</time>
      </trkpt>
      <trkpt lat="44.14963" lon="6.09149">
        <ele>1170</ele>
        <time>2022-03-03T10:26:58.000Z</time>
      </trkpt>
      <trkpt lat="44.14963" lon="6.09148">
        <ele>1170</ele>
        <time>2022-03-03T10:26:59.000Z</time>
      </trkpt>
      <trkpt lat="44.14964" lon="6.09147">
        <ele>1170</ele>
        <time>2022-03-03T10:27:00.000Z</time>
      </trkpt>
      <trkpt lat="44.14964" lon="6.09145">
        <ele>1170</ele>
        <time>2022-03-03T10:27:01.000Z</time>
      </trkpt>
      <trkpt lat="44.14965" lon="6.09143">
        <ele>1170</ele>
        <time>2022-03-03T10:27:02.000Z</time>
      </trkpt>
      <trkpt lat="44.14965" lon="6.09142">
        <ele>1170</ele>
        <time>2022-03-03T10:27:03.000Z</time>
      </trkpt>
      <trkpt lat="44.14966" lon="6.09141">
        <ele>1171</ele>
        <time>2022-03-03T10:27:04.000Z</time>
      </trkpt>
      <trkpt lat="44.14966" lon="6.0914">
        <ele>1171</ele>
        <time>2022-03-03T10:27:05.000Z</time>
      </trkpt>
      <trkpt lat="44.14967" lon="6.09139">
        <ele>1171</ele>
        <time>2022-03-03T10:27:06.000Z</time>
      </trkpt>
      <trkpt lat="44.14967" lon="6.09137">
        <ele>1171</ele>
        <time>2022-03-03T10:27:07.000Z</time>
      </trkpt>
      <trkpt lat="44.14968" lon="6.09136">
        <ele>1171</ele>
        <time>2022-03-03T10:27:08.000Z</time>
      </trkpt>
      <trkpt lat="44.14968" lon="6.09135">
        <ele>1171</ele>
        <time>2022-03-03T10:27:09.000Z</time>
      </trkpt>
      <trkpt lat="44.14968" lon="6.09134">
        <ele>1171</ele>
        <time>2022-03-03T10:27:10.000Z</time>
      </trkpt>
      <trkpt lat="44.14969" lon="6.09133">
        <ele>1171</ele>
        <time>2022-03-03T10:27:11.000Z</time>
      </trkpt>
      <trkpt lat="44.1497" lon="6.09131">
        <ele>1171</ele>
        <time>2022-03-03T10:27:12.000Z</time>
      </trkpt>
      <trkpt lat="44.1497" lon="6.0913">
        <ele>1171</ele>
        <time>2022-03-03T10:27:13.000Z</time>
      </trkpt>
      <trkpt lat="44.14971" lon="6.09129">
        <ele>1171</ele>
        <time>2022-03-03T10:27:14.000Z</time>
      </trkpt>
      <trkpt lat="44.14971" lon="6.09128">
        <ele>1171</ele>
        <time>2022-03-03T10:27:15.000Z</time>
      </trkpt>
      <trkpt lat="44.14972" lon="6.09127">
        <ele>1171</ele>
        <time>2022-03-03T10:27:16.000Z</time>
      </trkpt>
      <trkpt lat="44.14972" lon="6.09126">
        <ele>1172</ele>
        <time>2022-03-03T10:27:17.000Z</time>
      </trkpt>
      <trkpt lat="44.14972" lon="6.09125">
        <ele>1172</ele>
        <time>2022-03-03T10:27:18.000Z</time>
      </trkpt>
      <trkpt lat="44.14973" lon="6.09123">
        <ele>1172</ele>
        <time>2022-03-03T10:27:19.000Z</time>
      </trkpt>
      <trkpt lat="44.14974" lon="6.09123">
        <ele>1172</ele>
        <time>2022-03-03T10:27:20.000Z</time>
      </trkpt>
      <trkpt lat="44.14974" lon="6.09122">
        <ele>1172</ele>
        <time>2022-03-03T10:27:21.000Z</time>
      </trkpt>
      <trkpt lat="44.14975" lon="6.09121">
        <ele>1172</ele>
        <time>2022-03-03T10:27:22.000Z</time>
      </trkpt>
      <trkpt lat="44.14975" lon="6.0912">
        <ele>1172</ele>
        <time>2022-03-03T10:27:23.000Z</time>
      </trkpt>
      <trkpt lat="44.14976" lon="6.09118">
        <ele>1172</ele>
        <time>2022-03-03T10:27:24.000Z</time>
      </trkpt>
      <trkpt lat="44.14976" lon="6.09117">
        <ele>1172</ele>
        <time>2022-03-03T10:27:25.000Z</time>
      </trkpt>
      <trkpt lat="44.14977" lon="6.09116">
        <ele>1172</ele>
        <time>2022-03-03T10:27:26.000Z</time>
      </trkpt>
      <trkpt lat="44.14978" lon="6.09115">
        <ele>1173</ele>
        <time>2022-03-03T10:27:27.000Z</time>
      </trkpt>
      <trkpt lat="44.14978" lon="6.09114">
        <ele>1173</ele>
        <time>2022-03-03T10:27:28.000Z</time>
      </trkpt>
      <trkpt lat="44.14979" lon="6.09113">
        <ele>1173</ele>
        <time>2022-03-03T10:27:29.000Z</time>
      </trkpt>
      <trkpt lat="44.14979" lon="6.09112">
        <ele>1173</ele>
        <time>2022-03-03T10:27:30.000Z</time>
      </trkpt>
      <trkpt lat="44.1498" lon="6.09111">
        <ele>1173</ele>
        <time>2022-03-03T10:27:31.000Z</time>
      </trkpt>
      <trkpt lat="44.14981" lon="6.0911">
        <ele>1173</ele>
        <time>2022-03-03T10:27:32.000Z</time>
      </trkpt>
      <trkpt lat="44.14981" lon="6.09109">
        <ele>1173</ele>
        <time>2022-03-03T10:27:33.000Z</time>
      </trkpt>
      <trkpt lat="44.14982" lon="6.09108">
        <ele>1173</ele>
        <time>2022-03-03T10:27:34.000Z</time>
      </trkpt>
      <trkpt lat="44.14983" lon="6.09107">
        <ele>1173</ele>
        <time>2022-03-03T10:27:35.000Z</time>
      </trkpt>
      <trkpt lat="44.14983" lon="6.09106">
        <ele>1173</ele>
        <time>2022-03-03T10:27:36.000Z</time>
      </trkpt>
      <trkpt lat="44.14984" lon="6.09105">
        <ele>1174</ele>
        <time>2022-03-03T10:27:37.000Z</time>
      </trkpt>
      <trkpt lat="44.14985" lon="6.09104">
        <ele>1174</ele>
        <time>2022-03-03T10:27:38.000Z</time>
      </trkpt>
      <trkpt lat="44.14985" lon="6.09103">
        <ele>1174</ele>
        <time>2022-03-03T10:27:39.000Z</time>
      </trkpt>
      <trkpt lat="44.14986" lon="6.09102">
        <ele>1174</ele>
        <time>2022-03-03T10:27:40.000Z</time>
      </trkpt>
      <trkpt lat="44.14987" lon="6.09101">
        <ele>1174</ele>
        <time>2022-03-03T10:27:41.000Z</time>
      </trkpt>
      <trkpt lat="44.14987" lon="6.091">
        <ele>1174</ele>
        <time>2022-03-03T10:27:42.000Z</time>
      </trkpt>
      <trkpt lat="44.14988" lon="6.09099">
        <ele>1174</ele>
        <time>2022-03-03T10:27:43.000Z</time>
      </trkpt>
      <trkpt lat="44.14989" lon="6.09098">
        <ele>1175</ele>
        <time>2022-03-03T10:27:44.000Z</time>
      </trkpt>
      <trkpt lat="44.14989" lon="6.09098">
        <ele>1175</ele>
        <time>2022-03-03T10:27:45.000Z</time>
      </trkpt>
      <trkpt lat="44.1499" lon="6.09097">
        <ele>1175</ele>
        <time>2022-03-03T10:27:46.000Z</time>
      </trkpt>
      <trkpt lat="44.14991" lon="6.09096">
        <ele>1175</ele>
        <time>2022-03-03T10:27:47.000Z</time>
      </trkpt>
      <trkpt lat="44.14992" lon="6.09095">
        <ele>1175</ele>
        <time>2022-03-03T10:27:48.000Z</time>
      </trkpt>
      <trkpt lat="44.14992" lon="6.09094">
        <ele>1175</ele>
        <time>2022-03-03T10:27:49.000Z</time>
      </trkpt>
      <trkpt lat="44.14993" lon="6.09093">
        <ele>1175</ele>
        <time>2022-03-03T10:27:50.000Z</time>
      </trkpt>
      <trkpt lat="44.14994" lon="6.09093">
        <ele>1175</ele>
        <time>2022-03-03T10:27:51.000Z</time>
      </trkpt>
      <trkpt lat="44.14994" lon="6.09092">
        <ele>1176</ele>
        <time>2022-03-03T10:27:52.000Z</time>
      </trkpt>
      <trkpt lat="44.14995" lon="6.09091">
        <ele>1176</ele>
        <time>2022-03-03T10:27:53.000Z</time>
      </trkpt>
      <trkpt lat="44.14996" lon="6.0909">
        <ele>1176</ele>
        <time>2022-03-03T10:27:54.000Z</time>
      </trkpt>
      <trkpt lat="44.14996" lon="6.0909">
        <ele>1176</ele>
        <time>2022-03-03T10:27:55.000Z</time>
      </trkpt>
      <trkpt lat="44.14997" lon="6.09089">
        <ele>1176</ele>
        <time>2022-03-03T10:27:56.000Z</time>
      </trkpt>
      <trkpt lat="44.14998" lon="6.09088">
        <ele>1176</ele>
        <time>2022-03-03T10:27:57.000Z</time>
      </trkpt>
      <trkpt lat="44.14998" lon="6.09087">
        <ele>1176</ele>
        <time>2022-03-03T10:27:58.000Z</time>
      </trkpt>
      <trkpt lat="44.14999" lon="6.09086">
        <ele>1177</ele>
        <time>2022-03-03T10:27:59.000Z</time>
      </trkpt>
      <trkpt lat="44.15" lon="6.09085">
        <ele>1177</ele>
        <time>2022-03-03T10:28:00.000Z</time>
      </trkpt>
      <trkpt lat="44.15" lon="6.09084">
        <ele>1177</ele>
        <time>2022-03-03T10:28:01.000Z</time>
      </trkpt>
      <trkpt lat="44.15001" lon="6.09083">
        <ele>1177</ele>
        <time>2022-03-03T10:28:02.000Z</time>
      </trkpt>
      <trkpt lat="44.15002" lon="6.09082">
        <ele>1177</ele>
        <time>2022-03-03T10:28:03.000Z</time>
      </trkpt>
      <trkpt lat="44.15002" lon="6.09081">
        <ele>1177</ele>
        <time>2022-03-03T10:28:04.000Z</time>
      </trkpt>
      <trkpt lat="44.15003" lon="6.0908">
        <ele>1177</ele>
        <time>2022-03-03T10:28:05.000Z</time>
      </trkpt>
      <trkpt lat="44.15003" lon="6.0908">
        <ele>1178</ele>
        <time>2022-03-03T10:28:06.000Z</time>
      </trkpt>
      <trkpt lat="44.15004" lon="6.09079">
        <ele>1178</ele>
        <time>2022-03-03T10:28:07.000Z</time>
      </trkpt>
      <trkpt lat="44.15005" lon="6.09078">
        <ele>1178</ele>
        <time>2022-03-03T10:28:08.000Z</time>
      </trkpt>
      <trkpt lat="44.15005" lon="6.09077">
        <ele>1178</ele>
        <time>2022-03-03T10:28:09.000Z</time>
      </trkpt>
      <trkpt lat="44.15006" lon="6.09076">
        <ele>1178</ele>
        <time>2022-03-03T10:28:10.000Z</time>
      </trkpt>
      <trkpt lat="44.15006" lon="6.09075">
        <ele>1178</ele>
        <time>2022-03-03T10:28:11.000Z</time>
      </trkpt>
      <trkpt lat="44.15007" lon="6.09074">
        <ele>1178</ele>
        <time>2022-03-03T10:28:12.000Z</time>
      </trkpt>
      <trkpt lat="44.15007" lon="6.09073">
        <ele>1178</ele>
        <time>2022-03-03T10:28:13.000Z</time>
      </trkpt>
      <trkpt lat="44.15008" lon="6.09072">
        <ele>1178</ele>
        <time>2022-03-03T10:28:14.000Z</time>
      </trkpt>
      <trkpt lat="44.15008" lon="6.09071">
        <ele>1179</ele>
        <time>2022-03-03T10:28:15.000Z</time>
      </trkpt>
      <trkpt lat="44.15009" lon="6.0907">
        <ele>1179</ele>
        <time>2022-03-03T10:28:16.000Z</time>
      </trkpt>
      <trkpt lat="44.1501" lon="6.09069">
        <ele>1179</ele>
        <time>2022-03-03T10:28:17.000Z</time>
      </trkpt>
      <trkpt lat="44.1501" lon="6.09068">
        <ele>1179</ele>
        <time>2022-03-03T10:28:18.000Z</time>
      </trkpt>
      <trkpt lat="44.15011" lon="6.09067">
        <ele>1179</ele>
        <time>2022-03-03T10:28:19.000Z</time>
      </trkpt>
      <trkpt lat="44.15011" lon="6.09066">
        <ele>1179</ele>
        <time>2022-03-03T10:28:20.000Z</time>
      </trkpt>
      <trkpt lat="44.15011" lon="6.09065">
        <ele>1179</ele>
        <time>2022-03-03T10:28:21.000Z</time>
      </trkpt>
      <trkpt lat="44.15011" lon="6.09064">
        <ele>1179</ele>
        <time>2022-03-03T10:28:22.000Z</time>
      </trkpt>
      <trkpt lat="44.15012" lon="6.09062">
        <ele>1179</ele>
        <time>2022-03-03T10:28:23.000Z</time>
      </trkpt>
      <trkpt lat="44.15012" lon="6.09061">
        <ele>1180</ele>
        <time>2022-03-03T10:28:24.000Z</time>
      </trkpt>
      <trkpt lat="44.15012" lon="6.0906">
        <ele>1180</ele>
        <time>2022-03-03T10:28:25.000Z</time>
      </trkpt>
      <trkpt lat="44.15013" lon="6.09059">
        <ele>1180</ele>
        <time>2022-03-03T10:28:26.000Z</time>
      </trkpt>
      <trkpt lat="44.15013" lon="6.09058">
        <ele>1180</ele>
        <time>2022-03-03T10:28:27.000Z</time>
      </trkpt>
      <trkpt lat="44.15014" lon="6.09057">
        <ele>1180</ele>
        <time>2022-03-03T10:28:28.000Z</time>
      </trkpt>
      <trkpt lat="44.15014" lon="6.09056">
        <ele>1180</ele>
        <time>2022-03-03T10:28:29.000Z</time>
      </trkpt>
      <trkpt lat="44.15015" lon="6.09055">
        <ele>1180</ele>
        <time>2022-03-03T10:28:30.000Z</time>
      </trkpt>
      <trkpt lat="44.15015" lon="6.09054">
        <ele>1180</ele>
        <time>2022-03-03T10:28:31.000Z</time>
      </trkpt>
      <trkpt lat="44.15015" lon="6.09052">
        <ele>1180</ele>
        <time>2022-03-03T10:28:32.000Z</time>
      </trkpt>
      <trkpt lat="44.15016" lon="6.09051">
        <ele>1181</ele>
        <time>2022-03-03T10:28:33.000Z</time>
      </trkpt>
      <trkpt lat="44.15016" lon="6.0905">
        <ele>1181</ele>
        <time>2022-03-03T10:28:34.000Z</time>
      </trkpt>
      <trkpt lat="44.15017" lon="6.09049">
        <ele>1181</ele>
        <time>2022-03-03T10:28:35.000Z</time>
      </trkpt>
      <trkpt lat="44.15017" lon="6.09048">
        <ele>1181</ele>
        <time>2022-03-03T10:28:36.000Z</time>
      </trkpt>
      <trkpt lat="44.15018" lon="6.09047">
        <ele>1181</ele>
        <time>2022-03-03T10:28:37.000Z</time>
      </trkpt>
      <trkpt lat="44.15018" lon="6.09046">
        <ele>1181</ele>
        <time>2022-03-03T10:28:38.000Z</time>
      </trkpt>
      <trkpt lat="44.15019" lon="6.09045">
        <ele>1181</ele>
        <time>2022-03-03T10:28:39.000Z</time>
      </trkpt>
      <trkpt lat="44.15019" lon="6.09044">
        <ele>1181</ele>
        <time>2022-03-03T10:28:40.000Z</time>
      </trkpt>
      <trkpt lat="44.1502" lon="6.09043">
        <ele>1181</ele>
        <time>2022-03-03T10:28:41.000Z</time>
      </trkpt>
      <trkpt lat="44.1502" lon="6.09042">
        <ele>1181</ele>
        <time>2022-03-03T10:28:42.000Z</time>
      </trkpt>
      <trkpt lat="44.15021" lon="6.09041">
        <ele>1181</ele>
        <time>2022-03-03T10:28:43.000Z</time>
      </trkpt>
      <trkpt lat="44.15021" lon="6.0904">
        <ele>1182</ele>
        <time>2022-03-03T10:28:44.000Z</time>
      </trkpt>
      <trkpt lat="44.15022" lon="6.09039">
        <ele>1182</ele>
        <time>2022-03-03T10:28:45.000Z</time>
      </trkpt>
      <trkpt lat="44.15022" lon="6.09038">
        <ele>1182</ele>
        <time>2022-03-03T10:28:46.000Z</time>
      </trkpt>
      <trkpt lat="44.15023" lon="6.09036">
        <ele>1182</ele>
        <time>2022-03-03T10:28:47.000Z</time>
      </trkpt>
      <trkpt lat="44.15023" lon="6.09035">
        <ele>1182</ele>
        <time>2022-03-03T10:28:48.000Z</time>
      </trkpt>
      <trkpt lat="44.15023" lon="6.09035">
        <ele>1182</ele>
        <time>2022-03-03T10:28:49.000Z</time>
      </trkpt>
      <trkpt lat="44.15024" lon="6.09034">
        <ele>1182</ele>
        <time>2022-03-03T10:28:50.000Z</time>
      </trkpt>
      <trkpt lat="44.15025" lon="6.09033">
        <ele>1182</ele>
        <time>2022-03-03T10:28:51.000Z</time>
      </trkpt>
      <trkpt lat="44.15025" lon="6.09032">
        <ele>1183</ele>
        <time>2022-03-03T10:28:52.000Z</time>
      </trkpt>
      <trkpt lat="44.15026" lon="6.09031">
        <ele>1183</ele>
        <time>2022-03-03T10:28:53.000Z</time>
      </trkpt>
      <trkpt lat="44.15026" lon="6.09031">
        <ele>1183</ele>
        <time>2022-03-03T10:28:54.000Z</time>
      </trkpt>
      <trkpt lat="44.15027" lon="6.09029">
        <ele>1183</ele>
        <time>2022-03-03T10:28:55.000Z</time>
      </trkpt>
      <trkpt lat="44.15028" lon="6.09028">
        <ele>1183</ele>
        <time>2022-03-03T10:28:56.000Z</time>
      </trkpt>
      <trkpt lat="44.15028" lon="6.09028">
        <ele>1183</ele>
        <time>2022-03-03T10:28:57.000Z</time>
      </trkpt>
      <trkpt lat="44.15028" lon="6.09026">
        <ele>1183</ele>
        <time>2022-03-03T10:28:58.000Z</time>
      </trkpt>
      <trkpt lat="44.15029" lon="6.09025">
        <ele>1183</ele>
        <time>2022-03-03T10:28:59.000Z</time>
      </trkpt>
      <trkpt lat="44.15029" lon="6.09025">
        <ele>1183</ele>
        <time>2022-03-03T10:29:00.000Z</time>
      </trkpt>
      <trkpt lat="44.1503" lon="6.09023">
        <ele>1183</ele>
        <time>2022-03-03T10:29:01.000Z</time>
      </trkpt>
      <trkpt lat="44.1503" lon="6.09023">
        <ele>1183</ele>
        <time>2022-03-03T10:29:02.000Z</time>
      </trkpt>
      <trkpt lat="44.1503" lon="6.09022">
        <ele>1183</ele>
        <time>2022-03-03T10:29:03.000Z</time>
      </trkpt>
      <trkpt lat="44.15031" lon="6.09021">
        <ele>1184</ele>
        <time>2022-03-03T10:29:04.000Z</time>
      </trkpt>
      <trkpt lat="44.15031" lon="6.0902">
        <ele>1184</ele>
        <time>2022-03-03T10:29:05.000Z</time>
      </trkpt>
      <trkpt lat="44.15032" lon="6.09019">
        <ele>1183</ele>
        <time>2022-03-03T10:29:06.000Z</time>
      </trkpt>
      <trkpt lat="44.15032" lon="6.09018">
        <ele>1184</ele>
        <time>2022-03-03T10:29:07.000Z</time>
      </trkpt>
      <trkpt lat="44.15032" lon="6.09017">
        <ele>1183</ele>
        <time>2022-03-03T10:29:08.000Z</time>
      </trkpt>
      <trkpt lat="44.15033" lon="6.09016">
        <ele>1183</ele>
        <time>2022-03-03T10:29:09.000Z</time>
      </trkpt>
      <trkpt lat="44.15033" lon="6.09015">
        <ele>1184</ele>
        <time>2022-03-03T10:29:10.000Z</time>
      </trkpt>
      <trkpt lat="44.15034" lon="6.09014">
        <ele>1184</ele>
        <time>2022-03-03T10:29:11.000Z</time>
      </trkpt>
      <trkpt lat="44.15034" lon="6.09013">
        <ele>1184</ele>
        <time>2022-03-03T10:29:12.000Z</time>
      </trkpt>
      <trkpt lat="44.15034" lon="6.09013">
        <ele>1184</ele>
        <time>2022-03-03T10:29:13.000Z</time>
      </trkpt>
      <trkpt lat="44.15035" lon="6.09012">
        <ele>1184</ele>
        <time>2022-03-03T10:29:14.000Z</time>
      </trkpt>
      <trkpt lat="44.15035" lon="6.09011">
        <ele>1184</ele>
        <time>2022-03-03T10:29:15.000Z</time>
      </trkpt>
      <trkpt lat="44.15035" lon="6.0901">
        <ele>1184</ele>
        <time>2022-03-03T10:29:16.000Z</time>
      </trkpt>
      <trkpt lat="44.15035" lon="6.09009">
        <ele>1185</ele>
        <time>2022-03-03T10:29:17.000Z</time>
      </trkpt>
      <trkpt lat="44.15035" lon="6.09008">
        <ele>1185</ele>
        <time>2022-03-03T10:29:18.000Z</time>
      </trkpt>
      <trkpt lat="44.15036" lon="6.09007">
        <ele>1185</ele>
        <time>2022-03-03T10:29:19.000Z</time>
      </trkpt>
      <trkpt lat="44.15036" lon="6.09006">
        <ele>1185</ele>
        <time>2022-03-03T10:29:20.000Z</time>
      </trkpt>
      <trkpt lat="44.15036" lon="6.09006">
        <ele>1185</ele>
        <time>2022-03-03T10:29:21.000Z</time>
      </trkpt>
      <trkpt lat="44.15037" lon="6.09004">
        <ele>1185</ele>
        <time>2022-03-03T10:29:22.000Z</time>
      </trkpt>
      <trkpt lat="44.15037" lon="6.09003">
        <ele>1185</ele>
        <time>2022-03-03T10:29:23.000Z</time>
      </trkpt>
      <trkpt lat="44.15037" lon="6.09002">
        <ele>1186</ele>
        <time>2022-03-03T10:29:24.000Z</time>
      </trkpt>
      <trkpt lat="44.15038" lon="6.09001">
        <ele>1186</ele>
        <time>2022-03-03T10:29:25.000Z</time>
      </trkpt>
      <trkpt lat="44.15038" lon="6.09001">
        <ele>1186</ele>
        <time>2022-03-03T10:29:26.000Z</time>
      </trkpt>
      <trkpt lat="44.15038" lon="6.09">
        <ele>1186</ele>
        <time>2022-03-03T10:29:27.000Z</time>
      </trkpt>
      <trkpt lat="44.15038" lon="6.08999">
        <ele>1186</ele>
        <time>2022-03-03T10:29:28.000Z</time>
      </trkpt>
      <trkpt lat="44.15038" lon="6.08998">
        <ele>1186</ele>
        <time>2022-03-03T10:29:29.000Z</time>
      </trkpt>
      <trkpt lat="44.15039" lon="6.08997">
        <ele>1186</ele>
        <time>2022-03-03T10:29:30.000Z</time>
      </trkpt>
      <trkpt lat="44.15039" lon="6.08996">
        <ele>1187</ele>
        <time>2022-03-03T10:29:31.000Z</time>
      </trkpt>
      <trkpt lat="44.15039" lon="6.08994">
        <ele>1187</ele>
        <time>2022-03-03T10:29:32.000Z</time>
      </trkpt>
      <trkpt lat="44.15039" lon="6.08993">
        <ele>1187</ele>
        <time>2022-03-03T10:29:33.000Z</time>
      </trkpt>
      <trkpt lat="44.15039" lon="6.08992">
        <ele>1187</ele>
        <time>2022-03-03T10:29:34.000Z</time>
      </trkpt>
      <trkpt lat="44.1504" lon="6.08991">
        <ele>1187</ele>
        <time>2022-03-03T10:29:35.000Z</time>
      </trkpt>
      <trkpt lat="44.1504" lon="6.0899">
        <ele>1188</ele>
        <time>2022-03-03T10:29:36.000Z</time>
      </trkpt>
      <trkpt lat="44.1504" lon="6.08989">
        <ele>1188</ele>
        <time>2022-03-03T10:29:37.000Z</time>
      </trkpt>
      <trkpt lat="44.1504" lon="6.08989">
        <ele>1188</ele>
        <time>2022-03-03T10:29:38.000Z</time>
      </trkpt>
      <trkpt lat="44.1504" lon="6.08987">
        <ele>1188</ele>
        <time>2022-03-03T10:29:39.000Z</time>
      </trkpt>
      <trkpt lat="44.1504" lon="6.08986">
        <ele>1189</ele>
        <time>2022-03-03T10:29:40.000Z</time>
      </trkpt>
      <trkpt lat="44.1504" lon="6.08985">
        <ele>1189</ele>
        <time>2022-03-03T10:29:41.000Z</time>
      </trkpt>
      <trkpt lat="44.15041" lon="6.08984">
        <ele>1189</ele>
        <time>2022-03-03T10:29:42.000Z</time>
      </trkpt>
      <trkpt lat="44.15041" lon="6.08984">
        <ele>1189</ele>
        <time>2022-03-03T10:29:43.000Z</time>
      </trkpt>
      <trkpt lat="44.15041" lon="6.08982">
        <ele>1190</ele>
        <time>2022-03-03T10:29:44.000Z</time>
      </trkpt>
      <trkpt lat="44.15041" lon="6.08982">
        <ele>1190</ele>
        <time>2022-03-03T10:29:45.000Z</time>
      </trkpt>
      <trkpt lat="44.15042" lon="6.0898">
        <ele>1190</ele>
        <time>2022-03-03T10:29:46.000Z</time>
      </trkpt>
      <trkpt lat="44.15042" lon="6.0898">
        <ele>1190</ele>
        <time>2022-03-03T10:29:47.000Z</time>
      </trkpt>
      <trkpt lat="44.15042" lon="6.08979">
        <ele>1190</ele>
        <time>2022-03-03T10:29:48.000Z</time>
      </trkpt>
      <trkpt lat="44.15043" lon="6.08978">
        <ele>1191</ele>
        <time>2022-03-03T10:29:49.000Z</time>
      </trkpt>
      <trkpt lat="44.15043" lon="6.08977">
        <ele>1191</ele>
        <time>2022-03-03T10:29:50.000Z</time>
      </trkpt>
      <trkpt lat="44.15043" lon="6.08976">
        <ele>1191</ele>
        <time>2022-03-03T10:29:51.000Z</time>
      </trkpt>
      <trkpt lat="44.15043" lon="6.08975">
        <ele>1191</ele>
        <time>2022-03-03T10:29:52.000Z</time>
      </trkpt>
      <trkpt lat="44.15044" lon="6.08975">
        <ele>1192</ele>
        <time>2022-03-03T10:29:53.000Z</time>
      </trkpt>
      <trkpt lat="44.15044" lon="6.08974">
        <ele>1192</ele>
        <time>2022-03-03T10:29:54.000Z</time>
      </trkpt>
      <trkpt lat="44.15045" lon="6.08973">
        <ele>1192</ele>
        <time>2022-03-03T10:29:55.000Z</time>
      </trkpt>
      <trkpt lat="44.15045" lon="6.08972">
        <ele>1192</ele>
        <time>2022-03-03T10:29:56.000Z</time>
      </trkpt>
      <trkpt lat="44.15045" lon="6.08971">
        <ele>1193</ele>
        <time>2022-03-03T10:29:57.000Z</time>
      </trkpt>
      <trkpt lat="44.15045" lon="6.0897">
        <ele>1193</ele>
        <time>2022-03-03T10:29:58.000Z</time>
      </trkpt>
      <trkpt lat="44.15046" lon="6.08969">
        <ele>1193</ele>
        <time>2022-03-03T10:29:59.000Z</time>
      </trkpt>
      <trkpt lat="44.15046" lon="6.08968">
        <ele>1193</ele>
        <time>2022-03-03T10:30:00.000Z</time>
      </trkpt>
      <trkpt lat="44.15046" lon="6.08967">
        <ele>1194</ele>
        <time>2022-03-03T10:30:01.000Z</time>
      </trkpt>
      <trkpt lat="44.15046" lon="6.08967">
        <ele>1194</ele>
        <time>2022-03-03T10:30:02.000Z</time>
      </trkpt>
      <trkpt lat="44.15047" lon="6.08966">
        <ele>1194</ele>
        <time>2022-03-03T10:30:03.000Z</time>
      </trkpt>
      <trkpt lat="44.15047" lon="6.08965">
        <ele>1195</ele>
        <time>2022-03-03T10:30:04.000Z</time>
      </trkpt>
      <trkpt lat="44.15047" lon="6.08965">
        <ele>1195</ele>
        <time>2022-03-03T10:30:05.000Z</time>
      </trkpt>
      <trkpt lat="44.15047" lon="6.08964">
        <ele>1195</ele>
        <time>2022-03-03T10:30:06.000Z</time>
      </trkpt>
      <trkpt lat="44.15047" lon="6.08963">
        <ele>1195</ele>
        <time>2022-03-03T10:30:07.000Z</time>
      </trkpt>
      <trkpt lat="44.15048" lon="6.08962">
        <ele>1195</ele>
        <time>2022-03-03T10:30:08.000Z</time>
      </trkpt>
      <trkpt lat="44.15048" lon="6.08961">
        <ele>1196</ele>
        <time>2022-03-03T10:30:09.000Z</time>
      </trkpt>
      <trkpt lat="44.15048" lon="6.08961">
        <ele>1196</ele>
        <time>2022-03-03T10:30:10.000Z</time>
      </trkpt>
      <trkpt lat="44.15048" lon="6.08961">
        <ele>1196</ele>
        <time>2022-03-03T10:30:11.000Z</time>
      </trkpt>
      <trkpt lat="44.15048" lon="6.08961">
        <ele>1196</ele>
        <time>2022-03-03T10:30:12.000Z</time>
      </trkpt>
      <trkpt lat="44.15048" lon="6.08961">
        <ele>1196</ele>
        <time>2022-03-03T10:30:13.000Z</time>
      </trkpt>
      <trkpt lat="44.15048" lon="6.08961">
        <ele>1196</ele>
        <time>2022-03-03T10:30:14.000Z</time>
      </trkpt>
      <trkpt lat="44.15048" lon="6.08961">
        <ele>1196</ele>
        <time>2022-03-03T10:30:15.000Z</time>
      </trkpt>
      <trkpt lat="44.15047" lon="6.0896">
        <ele>1196</ele>
        <time>2022-03-03T10:30:16.000Z</time>
      </trkpt>
      <trkpt lat="44.15047" lon="6.0896">
        <ele>1197</ele>
        <time>2022-03-03T10:30:17.000Z</time>
      </trkpt>
      <trkpt lat="44.15047" lon="6.0896">
        <ele>1197</ele>
        <time>2022-03-03T10:30:18.000Z</time>
      </trkpt>
      <trkpt lat="44.15047" lon="6.0896">
        <ele>1197</ele>
        <time>2022-03-03T10:30:19.000Z</time>
      </trkpt>
      <trkpt lat="44.15047" lon="6.0896">
        <ele>1197</ele>
        <time>2022-03-03T10:30:20.000Z</time>
      </trkpt>
      <trkpt lat="44.15047" lon="6.08961">
        <ele>1197</ele>
        <time>2022-03-03T10:30:21.000Z</time>
      </trkpt>
      <trkpt lat="44.15047" lon="6.08961">
        <ele>1197</ele>
        <time>2022-03-03T10:30:22.000Z</time>
      </trkpt>
      <trkpt lat="44.15047" lon="6.08961">
        <ele>1197</ele>
        <time>2022-03-03T10:30:23.000Z</time>
      </trkpt>
      <trkpt lat="44.15047" lon="6.08961">
        <ele>1197</ele>
        <time>2022-03-03T10:30:24.000Z</time>
      </trkpt>
      <trkpt lat="44.15047" lon="6.08961">
        <ele>1197</ele>
        <time>2022-03-03T10:30:25.000Z</time>
      </trkpt>
      <trkpt lat="44.15047" lon="6.08961">
        <ele>1197</ele>
        <time>2022-03-03T10:30:26.000Z</time>
      </trkpt>
      <trkpt lat="44.15047" lon="6.08961">
        <ele>1197</ele>
        <time>2022-03-03T10:30:27.000Z</time>
      </trkpt>
      <trkpt lat="44.15047" lon="6.08961">
        <ele>1197</ele>
        <time>2022-03-03T10:30:28.000Z</time>
      </trkpt>
      <trkpt lat="44.15047" lon="6.08961">
        <ele>1197</ele>
        <time>2022-03-03T10:30:29.000Z</time>
      </trkpt>
      <trkpt lat="44.15047" lon="6.08961">
        <ele>1197</ele>
        <time>2022-03-03T10:30:30.000Z</time>
      </trkpt>
      <trkpt lat="44.15047" lon="6.08961">
        <ele>1197</ele>
        <time>2022-03-03T10:30:31.000Z</time>
      </trkpt>
      <trkpt lat="44.15047" lon="6.08961">
        <ele>1197</ele>
        <time>2022-03-03T10:30:32.000Z</time>
      </trkpt>
      <trkpt lat="44.15047" lon="6.08961">
        <ele>1197</ele>
        <time>2022-03-03T10:30:33.000Z</time>
      </trkpt>
      <trkpt lat="44.15047" lon="6.08961">
        <ele>1198</ele>
        <time>2022-03-03T10:30:34.000Z</time>
      </trkpt>
      <trkpt lat="44.15047" lon="6.08961">
        <ele>1198</ele>
        <time>2022-03-03T10:30:35.000Z</time>
      </trkpt>
      <trkpt lat="44.15047" lon="6.08961">
        <ele>1198</ele>
        <time>2022-03-03T10:30:36.000Z</time>
      </trkpt>
      <trkpt lat="44.15047" lon="6.08961">
        <ele>1198</ele>
        <time>2022-03-03T10:30:37.000Z</time>
      </trkpt>
      <trkpt lat="44.15046" lon="6.08961">
        <ele>1198</ele>
        <time>2022-03-03T10:30:38.000Z</time>
      </trkpt>
      <trkpt lat="44.15047" lon="6.08961">
        <ele>1198</ele>
        <time>2022-03-03T10:30:39.000Z</time>
      </trkpt>
      <trkpt lat="44.15047" lon="6.08961">
        <ele>1198</ele>
        <time>2022-03-03T10:30:40.000Z</time>
      </trkpt>
      <trkpt lat="44.15047" lon="6.08961">
        <ele>1198</ele>
        <time>2022-03-03T10:30:41.000Z</time>
      </trkpt>
      <trkpt lat="44.15047" lon="6.08961">
        <ele>1198</ele>
        <time>2022-03-03T10:30:42.000Z</time>
      </trkpt>
      <trkpt lat="44.15047" lon="6.08961">
        <ele>1198</ele>
        <time>2022-03-03T10:30:43.000Z</time>
      </trkpt>
      <trkpt lat="44.15047" lon="6.08961">
        <ele>1198</ele>
        <time>2022-03-03T10:30:44.000Z</time>
      </trkpt>
      <trkpt lat="44.15047" lon="6.08961">
        <ele>1198</ele>
        <time>2022-03-03T10:30:45.000Z</time>
      </trkpt>
      <trkpt lat="44.15047" lon="6.08961">
        <ele>1198</ele>
        <time>2022-03-03T10:30:46.000Z</time>
      </trkpt>
      <trkpt lat="44.15047" lon="6.08961">
        <ele>1198</ele>
        <time>2022-03-03T10:30:47.000Z</time>
      </trkpt>
      <trkpt lat="44.15047" lon="6.08961">
        <ele>1198</ele>
        <time>2022-03-03T10:30:48.000Z</time>
      </trkpt>
      <trkpt lat="44.15047" lon="6.08961">
        <ele>1198</ele>
        <time>2022-03-03T10:30:49.000Z</time>
      </trkpt>
      <trkpt lat="44.15047" lon="6.08961">
        <ele>1198</ele>
        <time>2022-03-03T10:30:50.000Z</time>
      </trkpt>
      <trkpt lat="44.15047" lon="6.08961">
        <ele>1198</ele>
        <time>2022-03-03T10:30:51.000Z</time>
      </trkpt>
      <trkpt lat="44.15047" lon="6.08961">
        <ele>1198</ele>
        <time>2022-03-03T10:30:52.000Z</time>
      </trkpt>
      <trkpt lat="44.15047" lon="6.08961">
        <ele>1198</ele>
        <time>2022-03-03T10:30:53.000Z</time>
      </trkpt>
      <trkpt lat="44.15047" lon="6.08961">
        <ele>1198</ele>
        <time>2022-03-03T10:30:54.000Z</time>
      </trkpt>
      <trkpt lat="44.15047" lon="6.08961">
        <ele>1198</ele>
        <time>2022-03-03T10:30:55.000Z</time>
      </trkpt>
      <trkpt lat="44.15047" lon="6.08961">
        <ele>1198</ele>
        <time>2022-03-03T10:30:56.000Z</time>
      </trkpt>
      <trkpt lat="44.15047" lon="6.08961">
        <ele>1198</ele>
        <time>2022-03-03T10:30:57.000Z</time>
      </trkpt>
      <trkpt lat="44.15047" lon="6.08961">
        <ele>1198</ele>
        <time>2022-03-03T10:30:58.000Z</time>
      </trkpt>
      <trkpt lat="44.15047" lon="6.08961">
        <ele>1198</ele>
        <time>2022-03-03T10:30:59.000Z</time>
      </trkpt>
      <trkpt lat="44.15047" lon="6.08961">
        <ele>1198</ele>
        <time>2022-03-03T10:31:00.000Z</time>
      </trkpt>
      <trkpt lat="44.15047" lon="6.08961">
        <ele>1198</ele>
        <time>2022-03-03T10:31:01.000Z</time>
      </trkpt>
      <trkpt lat="44.15047" lon="6.08961">
        <ele>1198</ele>
        <time>2022-03-03T10:31:02.000Z</time>
      </trkpt>
      <trkpt lat="44.15047" lon="6.08961">
        <ele>1198</ele>
        <time>2022-03-03T10:31:03.000Z</time>
      </trkpt>
      <trkpt lat="44.15047" lon="6.08961">
        <ele>1198</ele>
        <time>2022-03-03T10:31:04.000Z</time>
      </trkpt>
      <trkpt lat="44.15047" lon="6.08961">
        <ele>1198</ele>
        <time>2022-03-03T10:31:05.000Z</time>
      </trkpt>
      <trkpt lat="44.15047" lon="6.08961">
        <ele>1198</ele>
        <time>2022-03-03T10:31:06.000Z</time>
      </trkpt>
      <trkpt lat="44.15047" lon="6.08961">
        <ele>1198</ele>
        <time>2022-03-03T10:31:07.000Z</time>
      </trkpt>
      <trkpt lat="44.15047" lon="6.08961">
        <ele>1198</ele>
        <time>2022-03-03T10:31:08.000Z</time>
      </trkpt>
      <trkpt lat="44.15047" lon="6.08961">
        <ele>1198</ele>
        <time>2022-03-03T10:31:09.000Z</time>
      </trkpt>
      <trkpt lat="44.15047" lon="6.08961">
        <ele>1198</ele>
        <time>2022-03-03T10:31:10.000Z</time>
      </trkpt>
      <trkpt lat="44.15047" lon="6.08961">
        <ele>1198</ele>
        <time>2022-03-03T10:31:11.000Z</time>
      </trkpt>
      <trkpt lat="44.15047" lon="6.08961">
        <ele>1198</ele>
        <time>2022-03-03T10:31:12.000Z</time>
      </trkpt>
      <trkpt lat="44.15047" lon="6.08961">
        <ele>1198</ele>
        <time>2022-03-03T10:31:13.000Z</time>
      </trkpt>
      <trkpt lat="44.15047" lon="6.08961">
        <ele>1198</ele>
        <time>2022-03-03T10:31:14.000Z</time>
      </trkpt>
      <trkpt lat="44.15047" lon="6.08961">
        <ele>1198</ele>
        <time>2022-03-03T10:31:15.000Z</time>
      </trkpt>
      <trkpt lat="44.15047" lon="6.08961">
        <ele>1198</ele>
        <time>2022-03-03T10:31:16.000Z</time>
      </trkpt>
      <trkpt lat="44.15047" lon="6.08961">
        <ele>1198</ele>
        <time>2022-03-03T10:31:17.000Z</time>
      </trkpt>
      <trkpt lat="44.15047" lon="6.08961">
        <ele>1198</ele>
        <time>2022-03-03T10:31:18.000Z</time>
      </trkpt>
      <trkpt lat="44.15047" lon="6.08961">
        <ele>1198</ele>
        <time>2022-03-03T10:31:19.000Z</time>
      </trkpt>
      <trkpt lat="44.15047" lon="6.08961">
        <ele>1198</ele>
        <time>2022-03-03T10:31:20.000Z</time>
      </trkpt>
      <trkpt lat="44.15047" lon="6.08961">
        <ele>1198</ele>
        <time>2022-03-03T10:31:21.000Z</time>
      </trkpt>
      <trkpt lat="44.15047" lon="6.08961">
        <ele>1198</ele>
        <time>2022-03-03T10:31:22.000Z</time>
      </trkpt>
      <trkpt lat="44.15047" lon="6.08961">
        <ele>1198</ele>
        <time>2022-03-03T10:31:23.000Z</time>
      </trkpt>
      <trkpt lat="44.15047" lon="6.08961">
        <ele>1198</ele>
        <time>2022-03-03T10:31:24.000Z</time>
      </trkpt>
      <trkpt lat="44.15047" lon="6.08961">
        <ele>1198</ele>
        <time>2022-03-03T10:31:25.000Z</time>
      </trkpt>
      <trkpt lat="44.15047" lon="6.08961">
        <ele>1198</ele>
        <time>2022-03-03T10:31:26.000Z</time>
      </trkpt>
      <trkpt lat="44.15047" lon="6.08961">
        <ele>1198</ele>
        <time>2022-03-03T10:31:27.000Z</time>
      </trkpt>
      <trkpt lat="44.15047" lon="6.08961">
        <ele>1198</ele>
        <time>2022-03-03T10:31:28.000Z</time>
      </trkpt>
      <trkpt lat="44.15047" lon="6.08961">
        <ele>1198</ele>
        <time>2022-03-03T10:31:29.000Z</time>
      </trkpt>
      <trkpt lat="44.15047" lon="6.08961">
        <ele>1198</ele>
        <time>2022-03-03T10:31:30.000Z</time>
      </trkpt>
      <trkpt lat="44.15047" lon="6.08961">
        <ele>1198</ele>
        <time>2022-03-03T10:31:31.000Z</time>
      </trkpt>
      <trkpt lat="44.15048" lon="6.08961">
        <ele>1198</ele>
        <time>2022-03-03T10:31:32.000Z</time>
      </trkpt>
      <trkpt lat="44.15048" lon="6.08961">
        <ele>1198</ele>
        <time>2022-03-03T10:31:33.000Z</time>
      </trkpt>
      <trkpt lat="44.15048" lon="6.08961">
        <ele>1198</ele>
        <time>2022-03-03T10:31:34.000Z</time>
      </trkpt>
      <trkpt lat="44.15048" lon="6.08961">
        <ele>1198</ele>
        <time>2022-03-03T10:31:35.000Z</time>
      </trkpt>
      <trkpt lat="44.15048" lon="6.08961">
        <ele>1198</ele>
        <time>2022-03-03T10:31:36.000Z</time>
      </trkpt>
      <trkpt lat="44.15048" lon="6.08961">
        <ele>1198</ele>
        <time>2022-03-03T10:31:37.000Z</time>
      </trkpt>
      <trkpt lat="44.15048" lon="6.08961">
        <ele>1198</ele>
        <time>2022-03-03T10:31:38.000Z</time>
      </trkpt>
      <trkpt lat="44.15048" lon="6.08961">
        <ele>1198</ele>
        <time>2022-03-03T10:31:39.000Z</time>
      </trkpt>
      <trkpt lat="44.15048" lon="6.08961">
        <ele>1198</ele>
        <time>2022-03-03T10:31:40.000Z</time>
      </trkpt>
      <trkpt lat="44.15049" lon="6.08961">
        <ele>1198</ele>
        <time>2022-03-03T10:31:41.000Z</time>
      </trkpt>
      <trkpt lat="44.15049" lon="6.08961">
        <ele>1198</ele>
        <time>2022-03-03T10:31:42.000Z</time>
      </trkpt>
      <trkpt lat="44.15049" lon="6.08961">
        <ele>1198</ele>
        <time>2022-03-03T10:31:43.000Z</time>
      </trkpt>
      <trkpt lat="44.15049" lon="6.08961">
        <ele>1198</ele>
        <time>2022-03-03T10:31:44.000Z</time>
      </trkpt>
      <trkpt lat="44.15049" lon="6.08961">
        <ele>1198</ele>
        <time>2022-03-03T10:31:45.000Z</time>
      </trkpt>
      <trkpt lat="44.15049" lon="6.08961">
        <ele>1198</ele>
        <time>2022-03-03T10:31:46.000Z</time>
      </trkpt>
      <trkpt lat="44.15049" lon="6.08961">
        <ele>1198</ele>
        <time>2022-03-03T10:31:47.000Z</time>
      </trkpt>
      <trkpt lat="44.15049" lon="6.08961">
        <ele>1198</ele>
        <time>2022-03-03T10:31:48.000Z</time>
      </trkpt>
      <trkpt lat="44.15049" lon="6.08961">
        <ele>1198</ele>
        <time>2022-03-03T10:31:49.000Z</time>
      </trkpt>
      <trkpt lat="44.15049" lon="6.08961">
        <ele>1198</ele>
        <time>2022-03-03T10:31:50.000Z</time>
      </trkpt>
      <trkpt lat="44.15049" lon="6.08961">
        <ele>1198</ele>
        <time>2022-03-03T10:31:51.000Z</time>
      </trkpt>
      <trkpt lat="44.15049" lon="6.08961">
        <ele>1198</ele>
        <time>2022-03-03T10:31:52.000Z</time>
      </trkpt>
      <trkpt lat="44.15049" lon="6.08961">
        <ele>1198</ele>
        <time>2022-03-03T10:31:53.000Z</time>
      </trkpt>
      <trkpt lat="44.15049" lon="6.08961">
        <ele>1198</ele>
        <time>2022-03-03T10:31:54.000Z</time>
      </trkpt>
      <trkpt lat="44.15049" lon="6.08961">
        <ele>1198</ele>
        <time>2022-03-03T10:31:55.000Z</time>
      </trkpt>
      <trkpt lat="44.15049" lon="6.08961">
        <ele>1198</ele>
        <time>2022-03-03T10:31:56.000Z</time>
      </trkpt>
      <trkpt lat="44.15049" lon="6.08961">
        <ele>1198</ele>
        <time>2022-03-03T10:31:57.000Z</time>
      </trkpt>
      <trkpt lat="44.15049" lon="6.08961">
        <ele>1198</ele>
        <time>2022-03-03T10:31:58.000Z</time>
      </trkpt>
      <trkpt lat="44.15049" lon="6.08961">
        <ele>1198</ele>
        <time>2022-03-03T10:31:59.000Z</time>
      </trkpt>
      <trkpt lat="44.15049" lon="6.08961">
        <ele>1198</ele>
        <time>2022-03-03T10:32:00.000Z</time>
      </trkpt>
      <trkpt lat="44.15049" lon="6.08961">
        <ele>1198</ele>
        <time>2022-03-03T10:32:01.000Z</time>
      </trkpt>
      <trkpt lat="44.15049" lon="6.08961">
        <ele>1198</ele>
        <time>2022-03-03T10:32:02.000Z</time>
      </trkpt>
      <trkpt lat="44.1505" lon="6.08961">
        <ele>1198</ele>
        <time>2022-03-03T10:32:03.000Z</time>
      </trkpt>
      <trkpt lat="44.1505" lon="6.08961">
        <ele>1198</ele>
        <time>2022-03-03T10:32:04.000Z</time>
      </trkpt>
      <trkpt lat="44.1505" lon="6.08961">
        <ele>1198</ele>
        <time>2022-03-03T10:32:05.000Z</time>
      </trkpt>
      <trkpt lat="44.1505" lon="6.08961">
        <ele>1198</ele>
        <time>2022-03-03T10:32:06.000Z</time>
      </trkpt>
      <trkpt lat="44.1505" lon="6.08961">
        <ele>1198</ele>
        <time>2022-03-03T10:32:07.000Z</time>
      </trkpt>
      <trkpt lat="44.1505" lon="6.08961">
        <ele>1198</ele>
        <time>2022-03-03T10:32:08.000Z</time>
      </trkpt>
      <trkpt lat="44.1505" lon="6.08961">
        <ele>1198</ele>
        <time>2022-03-03T10:32:09.000Z</time>
      </trkpt>
      <trkpt lat="44.1505" lon="6.08961">
        <ele>1198</ele>
        <time>2022-03-03T10:32:10.000Z</time>
      </trkpt>
      <trkpt lat="44.1505" lon="6.08961">
        <ele>1198</ele>
        <time>2022-03-03T10:32:11.000Z</time>
      </trkpt>
      <trkpt lat="44.1505" lon="6.08961">
        <ele>1198</ele>
        <time>2022-03-03T10:32:12.000Z</time>
      </trkpt>
      <trkpt lat="44.1505" lon="6.08961">
        <ele>1198</ele>
        <time>2022-03-03T10:32:13.000Z</time>
      </trkpt>
      <trkpt lat="44.1505" lon="6.08961">
        <ele>1198</ele>
        <time>2022-03-03T10:32:14.000Z</time>
      </trkpt>
      <trkpt lat="44.1505" lon="6.08961">
        <ele>1198</ele>
        <time>2022-03-03T10:32:15.000Z</time>
      </trkpt>
      <trkpt lat="44.1505" lon="6.08961">
        <ele>1198</ele>
        <time>2022-03-03T10:32:16.000Z</time>
      </trkpt>
      <trkpt lat="44.1505" lon="6.08961">
        <ele>1198</ele>
        <time>2022-03-03T10:32:17.000Z</time>
      </trkpt>
      <trkpt lat="44.1505" lon="6.08961">
        <ele>1198</ele>
        <time>2022-03-03T10:32:18.000Z</time>
      </trkpt>
      <trkpt lat="44.1505" lon="6.08961">
        <ele>1198</ele>
        <time>2022-03-03T10:32:19.000Z</time>
      </trkpt>
      <trkpt lat="44.1505" lon="6.08961">
        <ele>1198</ele>
        <time>2022-03-03T10:32:20.000Z</time>
      </trkpt>
      <trkpt lat="44.1505" lon="6.08961">
        <ele>1198</ele>
        <time>2022-03-03T10:32:21.000Z</time>
      </trkpt>
      <trkpt lat="44.1505" lon="6.08961">
        <ele>1198</ele>
        <time>2022-03-03T10:32:22.000Z</time>
      </trkpt>
      <trkpt lat="44.1505" lon="6.0896">
        <ele>1198</ele>
        <time>2022-03-03T10:32:23.000Z</time>
      </trkpt>
      <trkpt lat="44.1505" lon="6.0896">
        <ele>1198</ele>
        <time>2022-03-03T10:32:24.000Z</time>
      </trkpt>
      <trkpt lat="44.1505" lon="6.08959">
        <ele>1198</ele>
        <time>2022-03-03T10:32:25.000Z</time>
      </trkpt>
      <trkpt lat="44.1505" lon="6.08958">
        <ele>1198</ele>
        <time>2022-03-03T10:32:26.000Z</time>
      </trkpt>
      <trkpt lat="44.1505" lon="6.08958">
        <ele>1198</ele>
        <time>2022-03-03T10:32:27.000Z</time>
      </trkpt>
      <trkpt lat="44.1505" lon="6.08957">
        <ele>1198</ele>
        <time>2022-03-03T10:32:28.000Z</time>
      </trkpt>
      <trkpt lat="44.1505" lon="6.08956">
        <ele>1198</ele>
        <time>2022-03-03T10:32:29.000Z</time>
      </trkpt>
      <trkpt lat="44.1505" lon="6.08955">
        <ele>1198</ele>
        <time>2022-03-03T10:32:30.000Z</time>
      </trkpt>
      <trkpt lat="44.1505" lon="6.08954">
        <ele>1198</ele>
        <time>2022-03-03T10:32:31.000Z</time>
      </trkpt>
      <trkpt lat="44.1505" lon="6.08953">
        <ele>1198</ele>
        <time>2022-03-03T10:32:32.000Z</time>
      </trkpt>
      <trkpt lat="44.1505" lon="6.08953">
        <ele>1198</ele>
        <time>2022-03-03T10:32:33.000Z</time>
      </trkpt>
      <trkpt lat="44.1505" lon="6.08952">
        <ele>1198</ele>
        <time>2022-03-03T10:32:34.000Z</time>
      </trkpt>
      <trkpt lat="44.1505" lon="6.08951">
        <ele>1198</ele>
        <time>2022-03-03T10:32:35.000Z</time>
      </trkpt>
      <trkpt lat="44.1505" lon="6.0895">
        <ele>1198</ele>
        <time>2022-03-03T10:32:36.000Z</time>
      </trkpt>
      <trkpt lat="44.1505" lon="6.08949">
        <ele>1198</ele>
        <time>2022-03-03T10:32:37.000Z</time>
      </trkpt>
      <trkpt lat="44.1505" lon="6.08949">
        <ele>1199</ele>
        <time>2022-03-03T10:32:38.000Z</time>
      </trkpt>
      <trkpt lat="44.1505" lon="6.08948">
        <ele>1199</ele>
        <time>2022-03-03T10:32:39.000Z</time>
      </trkpt>
      <trkpt lat="44.1505" lon="6.08947">
        <ele>1199</ele>
        <time>2022-03-03T10:32:40.000Z</time>
      </trkpt>
      <trkpt lat="44.15051" lon="6.08946">
        <ele>1199</ele>
        <time>2022-03-03T10:32:41.000Z</time>
      </trkpt>
      <trkpt lat="44.15051" lon="6.08945">
        <ele>1200</ele>
        <time>2022-03-03T10:32:42.000Z</time>
      </trkpt>
      <trkpt lat="44.15051" lon="6.08944">
        <ele>1200</ele>
        <time>2022-03-03T10:32:43.000Z</time>
      </trkpt>
      <trkpt lat="44.15051" lon="6.08944">
        <ele>1200</ele>
        <time>2022-03-03T10:32:44.000Z</time>
      </trkpt>
      <trkpt lat="44.15051" lon="6.08943">
        <ele>1200</ele>
        <time>2022-03-03T10:32:45.000Z</time>
      </trkpt>
      <trkpt lat="44.15051" lon="6.08943">
        <ele>1200</ele>
        <time>2022-03-03T10:32:46.000Z</time>
      </trkpt>
      <trkpt lat="44.15051" lon="6.08942">
        <ele>1200</ele>
        <time>2022-03-03T10:32:47.000Z</time>
      </trkpt>
      <trkpt lat="44.15051" lon="6.08941">
        <ele>1200</ele>
        <time>2022-03-03T10:32:48.000Z</time>
      </trkpt>
      <trkpt lat="44.15051" lon="6.0894">
        <ele>1201</ele>
        <time>2022-03-03T10:32:49.000Z</time>
      </trkpt>
      <trkpt lat="44.15052" lon="6.0894">
        <ele>1201</ele>
        <time>2022-03-03T10:32:50.000Z</time>
      </trkpt>
      <trkpt lat="44.15052" lon="6.08939">
        <ele>1201</ele>
        <time>2022-03-03T10:32:51.000Z</time>
      </trkpt>
      <trkpt lat="44.15052" lon="6.08938">
        <ele>1201</ele>
        <time>2022-03-03T10:32:52.000Z</time>
      </trkpt>
      <trkpt lat="44.15053" lon="6.08937">
        <ele>1201</ele>
        <time>2022-03-03T10:32:53.000Z</time>
      </trkpt>
      <trkpt lat="44.15053" lon="6.08936">
        <ele>1201</ele>
        <time>2022-03-03T10:32:54.000Z</time>
      </trkpt>
      <trkpt lat="44.15053" lon="6.08936">
        <ele>1202</ele>
        <time>2022-03-03T10:32:55.000Z</time>
      </trkpt>
      <trkpt lat="44.15053" lon="6.08935">
        <ele>1202</ele>
        <time>2022-03-03T10:32:56.000Z</time>
      </trkpt>
      <trkpt lat="44.15053" lon="6.08934">
        <ele>1202</ele>
        <time>2022-03-03T10:32:57.000Z</time>
      </trkpt>
      <trkpt lat="44.15053" lon="6.08933">
        <ele>1202</ele>
        <time>2022-03-03T10:32:58.000Z</time>
      </trkpt>
      <trkpt lat="44.15053" lon="6.08932">
        <ele>1202</ele>
        <time>2022-03-03T10:32:59.000Z</time>
      </trkpt>
      <trkpt lat="44.15053" lon="6.08931">
        <ele>1202</ele>
        <time>2022-03-03T10:33:00.000Z</time>
      </trkpt>
      <trkpt lat="44.15053" lon="6.0893">
        <ele>1202</ele>
        <time>2022-03-03T10:33:01.000Z</time>
      </trkpt>
      <trkpt lat="44.15053" lon="6.08929">
        <ele>1203</ele>
        <time>2022-03-03T10:33:02.000Z</time>
      </trkpt>
      <trkpt lat="44.15053" lon="6.08928">
        <ele>1203</ele>
        <time>2022-03-03T10:33:03.000Z</time>
      </trkpt>
      <trkpt lat="44.15054" lon="6.08927">
        <ele>1203</ele>
        <time>2022-03-03T10:33:04.000Z</time>
      </trkpt>
      <trkpt lat="44.15054" lon="6.08927">
        <ele>1203</ele>
        <time>2022-03-03T10:33:05.000Z</time>
      </trkpt>
      <trkpt lat="44.15054" lon="6.08926">
        <ele>1203</ele>
        <time>2022-03-03T10:33:06.000Z</time>
      </trkpt>
      <trkpt lat="44.15054" lon="6.08925">
        <ele>1204</ele>
        <time>2022-03-03T10:33:07.000Z</time>
      </trkpt>
      <trkpt lat="44.15054" lon="6.08925">
        <ele>1204</ele>
        <time>2022-03-03T10:33:08.000Z</time>
      </trkpt>
      <trkpt lat="44.15054" lon="6.08924">
        <ele>1204</ele>
        <time>2022-03-03T10:33:09.000Z</time>
      </trkpt>
      <trkpt lat="44.15054" lon="6.08923">
        <ele>1204</ele>
        <time>2022-03-03T10:33:10.000Z</time>
      </trkpt>
      <trkpt lat="44.15055" lon="6.08922">
        <ele>1204</ele>
        <time>2022-03-03T10:33:11.000Z</time>
      </trkpt>
      <trkpt lat="44.15055" lon="6.08921">
        <ele>1204</ele>
        <time>2022-03-03T10:33:12.000Z</time>
      </trkpt>
      <trkpt lat="44.15055" lon="6.0892">
        <ele>1204</ele>
        <time>2022-03-03T10:33:13.000Z</time>
      </trkpt>
      <trkpt lat="44.15055" lon="6.0892">
        <ele>1204</ele>
        <time>2022-03-03T10:33:14.000Z</time>
      </trkpt>
      <trkpt lat="44.15055" lon="6.08919">
        <ele>1204</ele>
        <time>2022-03-03T10:33:15.000Z</time>
      </trkpt>
      <trkpt lat="44.15055" lon="6.08918">
        <ele>1204</ele>
        <time>2022-03-03T10:33:16.000Z</time>
      </trkpt>
      <trkpt lat="44.15055" lon="6.08917">
        <ele>1205</ele>
        <time>2022-03-03T10:33:17.000Z</time>
      </trkpt>
      <trkpt lat="44.15056" lon="6.08916">
        <ele>1205</ele>
        <time>2022-03-03T10:33:18.000Z</time>
      </trkpt>
      <trkpt lat="44.15056" lon="6.08916">
        <ele>1205</ele>
        <time>2022-03-03T10:33:19.000Z</time>
      </trkpt>
      <trkpt lat="44.15056" lon="6.08915">
        <ele>1205</ele>
        <time>2022-03-03T10:33:20.000Z</time>
      </trkpt>
      <trkpt lat="44.15057" lon="6.08914">
        <ele>1205</ele>
        <time>2022-03-03T10:33:21.000Z</time>
      </trkpt>
      <trkpt lat="44.15057" lon="6.08913">
        <ele>1205</ele>
        <time>2022-03-03T10:33:22.000Z</time>
      </trkpt>
      <trkpt lat="44.15057" lon="6.08913">
        <ele>1205</ele>
        <time>2022-03-03T10:33:23.000Z</time>
      </trkpt>
      <trkpt lat="44.15058" lon="6.08911">
        <ele>1205</ele>
        <time>2022-03-03T10:33:24.000Z</time>
      </trkpt>
      <trkpt lat="44.15058" lon="6.08911">
        <ele>1205</ele>
        <time>2022-03-03T10:33:25.000Z</time>
      </trkpt>
      <trkpt lat="44.15059" lon="6.0891">
        <ele>1205</ele>
        <time>2022-03-03T10:33:26.000Z</time>
      </trkpt>
      <trkpt lat="44.15059" lon="6.08909">
        <ele>1205</ele>
        <time>2022-03-03T10:33:27.000Z</time>
      </trkpt>
      <trkpt lat="44.15059" lon="6.08909">
        <ele>1206</ele>
        <time>2022-03-03T10:33:28.000Z</time>
      </trkpt>
      <trkpt lat="44.1506" lon="6.08908">
        <ele>1206</ele>
        <time>2022-03-03T10:33:29.000Z</time>
      </trkpt>
      <trkpt lat="44.1506" lon="6.08907">
        <ele>1206</ele>
        <time>2022-03-03T10:33:30.000Z</time>
      </trkpt>
      <trkpt lat="44.1506" lon="6.08906">
        <ele>1206</ele>
        <time>2022-03-03T10:33:31.000Z</time>
      </trkpt>
      <trkpt lat="44.15061" lon="6.08906">
        <ele>1206</ele>
        <time>2022-03-03T10:33:32.000Z</time>
      </trkpt>
      <trkpt lat="44.15061" lon="6.08905">
        <ele>1206</ele>
        <time>2022-03-03T10:33:33.000Z</time>
      </trkpt>
      <trkpt lat="44.15061" lon="6.08904">
        <ele>1207</ele>
        <time>2022-03-03T10:33:34.000Z</time>
      </trkpt>
      <trkpt lat="44.15062" lon="6.08904">
        <ele>1207</ele>
        <time>2022-03-03T10:33:35.000Z</time>
      </trkpt>
      <trkpt lat="44.15062" lon="6.08903">
        <ele>1207</ele>
        <time>2022-03-03T10:33:36.000Z</time>
      </trkpt>
      <trkpt lat="44.15063" lon="6.08903">
        <ele>1207</ele>
        <time>2022-03-03T10:33:37.000Z</time>
      </trkpt>
      <trkpt lat="44.15063" lon="6.08902">
        <ele>1207</ele>
        <time>2022-03-03T10:33:38.000Z</time>
      </trkpt>
      <trkpt lat="44.15063" lon="6.08901">
        <ele>1207</ele>
        <time>2022-03-03T10:33:39.000Z</time>
      </trkpt>
      <trkpt lat="44.15064" lon="6.08901">
        <ele>1208</ele>
        <time>2022-03-03T10:33:40.000Z</time>
      </trkpt>
      <trkpt lat="44.15064" lon="6.089">
        <ele>1208</ele>
        <time>2022-03-03T10:33:41.000Z</time>
      </trkpt>
      <trkpt lat="44.15064" lon="6.08899">
        <ele>1208</ele>
        <time>2022-03-03T10:33:42.000Z</time>
      </trkpt>
      <trkpt lat="44.15065" lon="6.08899">
        <ele>1208</ele>
        <time>2022-03-03T10:33:43.000Z</time>
      </trkpt>
      <trkpt lat="44.15065" lon="6.08898">
        <ele>1208</ele>
        <time>2022-03-03T10:33:44.000Z</time>
      </trkpt>
      <trkpt lat="44.15065" lon="6.08898">
        <ele>1208</ele>
        <time>2022-03-03T10:33:45.000Z</time>
      </trkpt>
      <trkpt lat="44.15065" lon="6.08898">
        <ele>1208</ele>
        <time>2022-03-03T10:33:46.000Z</time>
      </trkpt>
      <trkpt lat="44.15065" lon="6.08898">
        <ele>1208</ele>
        <time>2022-03-03T10:33:47.000Z</time>
      </trkpt>
      <trkpt lat="44.15065" lon="6.08897">
        <ele>1208</ele>
        <time>2022-03-03T10:33:48.000Z</time>
      </trkpt>
      <trkpt lat="44.15065" lon="6.08897">
        <ele>1208</ele>
        <time>2022-03-03T10:33:49.000Z</time>
      </trkpt>
      <trkpt lat="44.15065" lon="6.08897">
        <ele>1208</ele>
        <time>2022-03-03T10:33:50.000Z</time>
      </trkpt>
      <trkpt lat="44.15065" lon="6.08897">
        <ele>1208</ele>
        <time>2022-03-03T10:33:51.000Z</time>
      </trkpt>
      <trkpt lat="44.15065" lon="6.08897">
        <ele>1208</ele>
        <time>2022-03-03T10:33:52.000Z</time>
      </trkpt>
      <trkpt lat="44.15065" lon="6.08897">
        <ele>1209</ele>
        <time>2022-03-03T10:33:53.000Z</time>
      </trkpt>
      <trkpt lat="44.15065" lon="6.08896">
        <ele>1209</ele>
        <time>2022-03-03T10:33:54.000Z</time>
      </trkpt>
      <trkpt lat="44.15065" lon="6.08896">
        <ele>1209</ele>
        <time>2022-03-03T10:33:55.000Z</time>
      </trkpt>
      <trkpt lat="44.15065" lon="6.08896">
        <ele>1209</ele>
        <time>2022-03-03T10:33:56.000Z</time>
      </trkpt>
      <trkpt lat="44.15065" lon="6.08896">
        <ele>1209</ele>
        <time>2022-03-03T10:33:57.000Z</time>
      </trkpt>
      <trkpt lat="44.15065" lon="6.08896">
        <ele>1209</ele>
        <time>2022-03-03T10:33:58.000Z</time>
      </trkpt>
      <trkpt lat="44.15065" lon="6.08896">
        <ele>1209</ele>
        <time>2022-03-03T10:33:59.000Z</time>
      </trkpt>
      <trkpt lat="44.15065" lon="6.08896">
        <ele>1209</ele>
        <time>2022-03-03T10:34:00.000Z</time>
      </trkpt>
      <trkpt lat="44.15064" lon="6.08895">
        <ele>1209</ele>
        <time>2022-03-03T10:34:01.000Z</time>
      </trkpt>
      <trkpt lat="44.15064" lon="6.08895">
        <ele>1209</ele>
        <time>2022-03-03T10:34:02.000Z</time>
      </trkpt>
      <trkpt lat="44.15064" lon="6.08895">
        <ele>1209</ele>
        <time>2022-03-03T10:34:03.000Z</time>
      </trkpt>
      <trkpt lat="44.15064" lon="6.08895">
        <ele>1209</ele>
        <time>2022-03-03T10:34:04.000Z</time>
      </trkpt>
      <trkpt lat="44.15064" lon="6.08895">
        <ele>1209</ele>
        <time>2022-03-03T10:34:05.000Z</time>
      </trkpt>
      <trkpt lat="44.15064" lon="6.08894">
        <ele>1209</ele>
        <time>2022-03-03T10:34:06.000Z</time>
      </trkpt>
      <trkpt lat="44.15064" lon="6.08894">
        <ele>1209</ele>
        <time>2022-03-03T10:34:07.000Z</time>
      </trkpt>
      <trkpt lat="44.15064" lon="6.08894">
        <ele>1209</ele>
        <time>2022-03-03T10:34:08.000Z</time>
      </trkpt>
      <trkpt lat="44.15064" lon="6.08894">
        <ele>1209</ele>
        <time>2022-03-03T10:34:09.000Z</time>
      </trkpt>
      <trkpt lat="44.15064" lon="6.08894">
        <ele>1209</ele>
        <time>2022-03-03T10:34:10.000Z</time>
      </trkpt>
      <trkpt lat="44.15064" lon="6.08894">
        <ele>1209</ele>
        <time>2022-03-03T10:34:11.000Z</time>
      </trkpt>
      <trkpt lat="44.15064" lon="6.08894">
        <ele>1209</ele>
        <time>2022-03-03T10:34:12.000Z</time>
      </trkpt>
      <trkpt lat="44.15064" lon="6.08894">
        <ele>1209</ele>
        <time>2022-03-03T10:34:13.000Z</time>
      </trkpt>
      <trkpt lat="44.15064" lon="6.08894">
        <ele>1209</ele>
        <time>2022-03-03T10:34:14.000Z</time>
      </trkpt>
      <trkpt lat="44.15064" lon="6.08894">
        <ele>1209</ele>
        <time>2022-03-03T10:34:15.000Z</time>
      </trkpt>
      <trkpt lat="44.15064" lon="6.08894">
        <ele>1209</ele>
        <time>2022-03-03T10:34:16.000Z</time>
      </trkpt>
      <trkpt lat="44.15064" lon="6.08894">
        <ele>1209</ele>
        <time>2022-03-03T10:34:17.000Z</time>
      </trkpt>
      <trkpt lat="44.15064" lon="6.08893">
        <ele>1209</ele>
        <time>2022-03-03T10:34:18.000Z</time>
      </trkpt>
      <trkpt lat="44.15064" lon="6.08893">
        <ele>1209</ele>
        <time>2022-03-03T10:34:19.000Z</time>
      </trkpt>
      <trkpt lat="44.15064" lon="6.08893">
        <ele>1209</ele>
        <time>2022-03-03T10:34:20.000Z</time>
      </trkpt>
      <trkpt lat="44.15064" lon="6.08893">
        <ele>1209</ele>
        <time>2022-03-03T10:34:21.000Z</time>
      </trkpt>
      <trkpt lat="44.15064" lon="6.08893">
        <ele>1209</ele>
        <time>2022-03-03T10:34:22.000Z</time>
      </trkpt>
      <trkpt lat="44.15064" lon="6.08893">
        <ele>1209</ele>
        <time>2022-03-03T10:34:23.000Z</time>
      </trkpt>
      <trkpt lat="44.15064" lon="6.08893">
        <ele>1209</ele>
        <time>2022-03-03T10:34:24.000Z</time>
      </trkpt>
      <trkpt lat="44.15064" lon="6.08893">
        <ele>1209</ele>
        <time>2022-03-03T10:34:25.000Z</time>
      </trkpt>
      <trkpt lat="44.15064" lon="6.08893">
        <ele>1209</ele>
        <time>2022-03-03T10:34:26.000Z</time>
      </trkpt>
      <trkpt lat="44.15064" lon="6.08893">
        <ele>1209</ele>
        <time>2022-03-03T10:34:27.000Z</time>
      </trkpt>
      <trkpt lat="44.15064" lon="6.08893">
        <ele>1209</ele>
        <time>2022-03-03T10:34:28.000Z</time>
      </trkpt>
      <trkpt lat="44.15064" lon="6.08893">
        <ele>1209</ele>
        <time>2022-03-03T10:34:29.000Z</time>
      </trkpt>
      <trkpt lat="44.15064" lon="6.08893">
        <ele>1209</ele>
        <time>2022-03-03T10:34:30.000Z</time>
      </trkpt>
      <trkpt lat="44.15064" lon="6.08893">
        <ele>1209</ele>
        <time>2022-03-03T10:34:31.000Z</time>
      </trkpt>
      <trkpt lat="44.15064" lon="6.08893">
        <ele>1209</ele>
        <time>2022-03-03T10:34:32.000Z</time>
      </trkpt>
      <trkpt lat="44.15064" lon="6.08893">
        <ele>1209</ele>
        <time>2022-03-03T10:34:33.000Z</time>
      </trkpt>
      <trkpt lat="44.15064" lon="6.08893">
        <ele>1209</ele>
        <time>2022-03-03T10:34:34.000Z</time>
      </trkpt>
      <trkpt lat="44.15064" lon="6.08893">
        <ele>1209</ele>
        <time>2022-03-03T10:34:35.000Z</time>
      </trkpt>
      <trkpt lat="44.15064" lon="6.08893">
        <ele>1209</ele>
        <time>2022-03-03T10:34:36.000Z</time>
      </trkpt>
      <trkpt lat="44.15064" lon="6.08893">
        <ele>1209</ele>
        <time>2022-03-03T10:34:37.000Z</time>
      </trkpt>
      <trkpt lat="44.15064" lon="6.08893">
        <ele>1209</ele>
        <time>2022-03-03T10:34:38.000Z</time>
      </trkpt>
      <trkpt lat="44.15064" lon="6.08893">
        <ele>1209</ele>
        <time>2022-03-03T10:34:39.000Z</time>
      </trkpt>
      <trkpt lat="44.15064" lon="6.08893">
        <ele>1209</ele>
        <time>2022-03-03T10:34:40.000Z</time>
      </trkpt>
      <trkpt lat="44.15064" lon="6.08893">
        <ele>1209</ele>
        <time>2022-03-03T10:34:41.000Z</time>
      </trkpt>
      <trkpt lat="44.15064" lon="6.08893">
        <ele>1209</ele>
        <time>2022-03-03T10:34:42.000Z</time>
      </trkpt>
      <trkpt lat="44.15064" lon="6.08893">
        <ele>1209</ele>
        <time>2022-03-03T10:34:43.000Z</time>
      </trkpt>
      <trkpt lat="44.15064" lon="6.08893">
        <ele>1209</ele>
        <time>2022-03-03T10:34:44.000Z</time>
      </trkpt>
      <trkpt lat="44.15064" lon="6.08893">
        <ele>1209</ele>
        <time>2022-03-03T10:34:45.000Z</time>
      </trkpt>
      <trkpt lat="44.15065" lon="6.08893">
        <ele>1209</ele>
        <time>2022-03-03T10:34:46.000Z</time>
      </trkpt>
      <trkpt lat="44.15065" lon="6.08893">
        <ele>1209</ele>
        <time>2022-03-03T10:34:47.000Z</time>
      </trkpt>
      <trkpt lat="44.15065" lon="6.08893">
        <ele>1209</ele>
        <time>2022-03-03T10:34:48.000Z</time>
      </trkpt>
      <trkpt lat="44.15065" lon="6.08893">
        <ele>1209</ele>
        <time>2022-03-03T10:34:49.000Z</time>
      </trkpt>
      <trkpt lat="44.15065" lon="6.08893">
        <ele>1209</ele>
        <time>2022-03-03T10:34:50.000Z</time>
      </trkpt>
      <trkpt lat="44.15065" lon="6.08893">
        <ele>1209</ele>
        <time>2022-03-03T10:34:51.000Z</time>
      </trkpt>
      <trkpt lat="44.15065" lon="6.08893">
        <ele>1209</ele>
        <time>2022-03-03T10:34:52.000Z</time>
      </trkpt>
      <trkpt lat="44.15065" lon="6.08893">
        <ele>1209</ele>
        <time>2022-03-03T10:34:53.000Z</time>
      </trkpt>
      <trkpt lat="44.15065" lon="6.08892">
        <ele>1209</ele>
        <time>2022-03-03T10:34:54.000Z</time>
      </trkpt>
      <trkpt lat="44.15065" lon="6.08892">
        <ele>1209</ele>
        <time>2022-03-03T10:34:55.000Z</time>
      </trkpt>
      <trkpt lat="44.15065" lon="6.08892">
        <ele>1209</ele>
        <time>2022-03-03T10:34:56.000Z</time>
      </trkpt>
      <trkpt lat="44.15065" lon="6.08893">
        <ele>1209</ele>
        <time>2022-03-03T10:34:57.000Z</time>
      </trkpt>
      <trkpt lat="44.15065" lon="6.08893">
        <ele>1209</ele>
        <time>2022-03-03T10:34:58.000Z</time>
      </trkpt>
      <trkpt lat="44.15065" lon="6.08892">
        <ele>1209</ele>
        <time>2022-03-03T10:34:59.000Z</time>
      </trkpt>
      <trkpt lat="44.15065" lon="6.08892">
        <ele>1209</ele>
        <time>2022-03-03T10:35:00.000Z</time>
      </trkpt>
      <trkpt lat="44.15065" lon="6.08892">
        <ele>1209</ele>
        <time>2022-03-03T10:35:01.000Z</time>
      </trkpt>
      <trkpt lat="44.15065" lon="6.08892">
        <ele>1209</ele>
        <time>2022-03-03T10:35:02.000Z</time>
      </trkpt>
      <trkpt lat="44.15065" lon="6.08892">
        <ele>1209</ele>
        <time>2022-03-03T10:35:03.000Z</time>
      </trkpt>
      <trkpt lat="44.15065" lon="6.08892">
        <ele>1209</ele>
        <time>2022-03-03T10:35:04.000Z</time>
      </trkpt>
      <trkpt lat="44.15065" lon="6.08892">
        <ele>1209</ele>
        <time>2022-03-03T10:35:05.000Z</time>
      </trkpt>
      <trkpt lat="44.15065" lon="6.08892">
        <ele>1209</ele>
        <time>2022-03-03T10:35:06.000Z</time>
      </trkpt>
      <trkpt lat="44.15065" lon="6.08892">
        <ele>1209</ele>
        <time>2022-03-03T10:35:07.000Z</time>
      </trkpt>
      <trkpt lat="44.15065" lon="6.08892">
        <ele>1209</ele>
        <time>2022-03-03T10:35:08.000Z</time>
      </trkpt>
      <trkpt lat="44.15066" lon="6.08892">
        <ele>1209</ele>
        <time>2022-03-03T10:35:09.000Z</time>
      </trkpt>
      <trkpt lat="44.15066" lon="6.08892">
        <ele>1209</ele>
        <time>2022-03-03T10:35:10.000Z</time>
      </trkpt>
      <trkpt lat="44.15066" lon="6.08892">
        <ele>1209</ele>
        <time>2022-03-03T10:35:11.000Z</time>
      </trkpt>
      <trkpt lat="44.15066" lon="6.08892">
        <ele>1209</ele>
        <time>2022-03-03T10:35:12.000Z</time>
      </trkpt>
      <trkpt lat="44.15066" lon="6.08893">
        <ele>1209</ele>
        <time>2022-03-03T10:35:13.000Z</time>
      </trkpt>
      <trkpt lat="44.15066" lon="6.08893">
        <ele>1209</ele>
        <time>2022-03-03T10:35:14.000Z</time>
      </trkpt>
      <trkpt lat="44.15066" lon="6.08893">
        <ele>1209</ele>
        <time>2022-03-03T10:35:15.000Z</time>
      </trkpt>
      <trkpt lat="44.15066" lon="6.08893">
        <ele>1209</ele>
        <time>2022-03-03T10:35:16.000Z</time>
      </trkpt>
      <trkpt lat="44.15066" lon="6.08893">
        <ele>1209</ele>
        <time>2022-03-03T10:35:17.000Z</time>
      </trkpt>
      <trkpt lat="44.15066" lon="6.08893">
        <ele>1209</ele>
        <time>2022-03-03T10:35:18.000Z</time>
      </trkpt>
      <trkpt lat="44.15066" lon="6.08893">
        <ele>1209</ele>
        <time>2022-03-03T10:35:19.000Z</time>
      </trkpt>
      <trkpt lat="44.15066" lon="6.08893">
        <ele>1209</ele>
        <time>2022-03-03T10:35:20.000Z</time>
      </trkpt>
      <trkpt lat="44.15066" lon="6.08893">
        <ele>1209</ele>
        <time>2022-03-03T10:35:21.000Z</time>
      </trkpt>
      <trkpt lat="44.15066" lon="6.08893">
        <ele>1209</ele>
        <time>2022-03-03T10:35:22.000Z</time>
      </trkpt>
      <trkpt lat="44.15066" lon="6.08893">
        <ele>1209</ele>
        <time>2022-03-03T10:35:23.000Z</time>
      </trkpt>
      <trkpt lat="44.15066" lon="6.08893">
        <ele>1209</ele>
        <time>2022-03-03T10:35:24.000Z</time>
      </trkpt>
      <trkpt lat="44.15066" lon="6.08893">
        <ele>1209</ele>
        <time>2022-03-03T10:35:25.000Z</time>
      </trkpt>
      <trkpt lat="44.15066" lon="6.08893">
        <ele>1209</ele>
        <time>2022-03-03T10:35:26.000Z</time>
      </trkpt>
      <trkpt lat="44.15066" lon="6.08893">
        <ele>1209</ele>
        <time>2022-03-03T10:35:27.000Z</time>
      </trkpt>
      <trkpt lat="44.15066" lon="6.08893">
        <ele>1209</ele>
        <time>2022-03-03T10:35:28.000Z</time>
      </trkpt>
      <trkpt lat="44.15066" lon="6.08893">
        <ele>1209</ele>
        <time>2022-03-03T10:35:29.000Z</time>
      </trkpt>
      <trkpt lat="44.15066" lon="6.08893">
        <ele>1209</ele>
        <time>2022-03-03T10:35:30.000Z</time>
      </trkpt>
      <trkpt lat="44.15066" lon="6.08893">
        <ele>1209</ele>
        <time>2022-03-03T10:35:31.000Z</time>
      </trkpt>
      <trkpt lat="44.15066" lon="6.08893">
        <ele>1209</ele>
        <time>2022-03-03T10:35:32.000Z</time>
      </trkpt>
      <trkpt lat="44.15066" lon="6.08893">
        <ele>1209</ele>
        <time>2022-03-03T10:35:33.000Z</time>
      </trkpt>
      <trkpt lat="44.15066" lon="6.08893">
        <ele>1209</ele>
        <time>2022-03-03T10:35:34.000Z</time>
      </trkpt>
      <trkpt lat="44.15066" lon="6.08893">
        <ele>1209</ele>
        <time>2022-03-03T10:35:35.000Z</time>
      </trkpt>
      <trkpt lat="44.15066" lon="6.08893">
        <ele>1209</ele>
        <time>2022-03-03T10:35:36.000Z</time>
      </trkpt>
      <trkpt lat="44.15066" lon="6.08893">
        <ele>1209</ele>
        <time>2022-03-03T10:35:37.000Z</time>
      </trkpt>
      <trkpt lat="44.15066" lon="6.08893">
        <ele>1209</ele>
        <time>2022-03-03T10:35:38.000Z</time>
      </trkpt>
      <trkpt lat="44.15066" lon="6.08893">
        <ele>1209</ele>
        <time>2022-03-03T10:35:39.000Z</time>
      </trkpt>
      <trkpt lat="44.15066" lon="6.08893">
        <ele>1209</ele>
        <time>2022-03-03T10:35:40.000Z</time>
      </trkpt>
      <trkpt lat="44.15066" lon="6.08893">
        <ele>1209</ele>
        <time>2022-03-03T10:35:41.000Z</time>
      </trkpt>
      <trkpt lat="44.15066" lon="6.08893">
        <ele>1209</ele>
        <time>2022-03-03T10:35:42.000Z</time>
      </trkpt>
      <trkpt lat="44.15066" lon="6.08893">
        <ele>1209</ele>
        <time>2022-03-03T10:35:43.000Z</time>
      </trkpt>
      <trkpt lat="44.15066" lon="6.08893">
        <ele>1209</ele>
        <time>2022-03-03T10:35:44.000Z</time>
      </trkpt>
      <trkpt lat="44.15066" lon="6.08893">
        <ele>1209</ele>
        <time>2022-03-03T10:35:45.000Z</time>
      </trkpt>
      <trkpt lat="44.15066" lon="6.08893">
        <ele>1209</ele>
        <time>2022-03-03T10:35:46.000Z</time>
      </trkpt>
      <trkpt lat="44.15066" lon="6.08893">
        <ele>1209</ele>
        <time>2022-03-03T10:35:47.000Z</time>
      </trkpt>
      <trkpt lat="44.15066" lon="6.08893">
        <ele>1209</ele>
        <time>2022-03-03T10:35:48.000Z</time>
      </trkpt>
      <trkpt lat="44.15066" lon="6.08893">
        <ele>1209</ele>
        <time>2022-03-03T10:35:49.000Z</time>
      </trkpt>
      <trkpt lat="44.15066" lon="6.08893">
        <ele>1209</ele>
        <time>2022-03-03T10:35:50.000Z</time>
      </trkpt>
      <trkpt lat="44.15066" lon="6.08893">
        <ele>1209</ele>
        <time>2022-03-03T10:35:51.000Z</time>
      </trkpt>
      <trkpt lat="44.15066" lon="6.08893">
        <ele>1209</ele>
        <time>2022-03-03T10:35:52.000Z</time>
      </trkpt>
      <trkpt lat="44.15066" lon="6.08893">
        <ele>1209</ele>
        <time>2022-03-03T10:35:53.000Z</time>
      </trkpt>
      <trkpt lat="44.15066" lon="6.08893">
        <ele>1209</ele>
        <time>2022-03-03T10:35:54.000Z</time>
      </trkpt>
      <trkpt lat="44.15067" lon="6.08893">
        <ele>1209</ele>
        <time>2022-03-03T10:35:55.000Z</time>
      </trkpt>
      <trkpt lat="44.15067" lon="6.08893">
        <ele>1209</ele>
        <time>2022-03-03T10:35:56.000Z</time>
      </trkpt>
      <trkpt lat="44.15067" lon="6.08893">
        <ele>1209</ele>
        <time>2022-03-03T10:35:57.000Z</time>
      </trkpt>
      <trkpt lat="44.15067" lon="6.08893">
        <ele>1209</ele>
        <time>2022-03-03T10:35:58.000Z</time>
      </trkpt>
      <trkpt lat="44.15067" lon="6.08893">
        <ele>1209</ele>
        <time>2022-03-03T10:35:59.000Z</time>
      </trkpt>
      <trkpt lat="44.15067" lon="6.08893">
        <ele>1209</ele>
        <time>2022-03-03T10:36:00.000Z</time>
      </trkpt>
      <trkpt lat="44.15067" lon="6.08893">
        <ele>1209</ele>
        <time>2022-03-03T10:36:01.000Z</time>
      </trkpt>
      <trkpt lat="44.15067" lon="6.08893">
        <ele>1209</ele>
        <time>2022-03-03T10:36:02.000Z</time>
      </trkpt>
      <trkpt lat="44.15067" lon="6.08892">
        <ele>1209</ele>
        <time>2022-03-03T10:36:03.000Z</time>
      </trkpt>
      <trkpt lat="44.15068" lon="6.08891">
        <ele>1209</ele>
        <time>2022-03-03T10:36:04.000Z</time>
      </trkpt>
      <trkpt lat="44.15069" lon="6.0889">
        <ele>1209</ele>
        <time>2022-03-03T10:36:05.000Z</time>
      </trkpt>
      <trkpt lat="44.15069" lon="6.0889">
        <ele>1209</ele>
        <time>2022-03-03T10:36:06.000Z</time>
      </trkpt>
      <trkpt lat="44.15069" lon="6.08889">
        <ele>1210</ele>
        <time>2022-03-03T10:36:07.000Z</time>
      </trkpt>
      <trkpt lat="44.1507" lon="6.08888">
        <ele>1210</ele>
        <time>2022-03-03T10:36:08.000Z</time>
      </trkpt>
      <trkpt lat="44.1507" lon="6.08888">
        <ele>1210</ele>
        <time>2022-03-03T10:36:09.000Z</time>
      </trkpt>
      <trkpt lat="44.1507" lon="6.08887">
        <ele>1210</ele>
        <time>2022-03-03T10:36:10.000Z</time>
      </trkpt>
      <trkpt lat="44.1507" lon="6.08886">
        <ele>1210</ele>
        <time>2022-03-03T10:36:11.000Z</time>
      </trkpt>
      <trkpt lat="44.1507" lon="6.08885">
        <ele>1211</ele>
        <time>2022-03-03T10:36:12.000Z</time>
      </trkpt>
      <trkpt lat="44.1507" lon="6.08884">
        <ele>1211</ele>
        <time>2022-03-03T10:36:13.000Z</time>
      </trkpt>
      <trkpt lat="44.15069" lon="6.08883">
        <ele>1211</ele>
        <time>2022-03-03T10:36:14.000Z</time>
      </trkpt>
      <trkpt lat="44.15069" lon="6.08882">
        <ele>1211</ele>
        <time>2022-03-03T10:36:15.000Z</time>
      </trkpt>
      <trkpt lat="44.15069" lon="6.08881">
        <ele>1211</ele>
        <time>2022-03-03T10:36:16.000Z</time>
      </trkpt>
      <trkpt lat="44.15069" lon="6.0888">
        <ele>1211</ele>
        <time>2022-03-03T10:36:17.000Z</time>
      </trkpt>
      <trkpt lat="44.15068" lon="6.08879">
        <ele>1211</ele>
        <time>2022-03-03T10:36:18.000Z</time>
      </trkpt>
      <trkpt lat="44.15067" lon="6.08878">
        <ele>1211</ele>
        <time>2022-03-03T10:36:19.000Z</time>
      </trkpt>
      <trkpt lat="44.15067" lon="6.08878">
        <ele>1212</ele>
        <time>2022-03-03T10:36:20.000Z</time>
      </trkpt>
      <trkpt lat="44.15066" lon="6.08877">
        <ele>1212</ele>
        <time>2022-03-03T10:36:21.000Z</time>
      </trkpt>
      <trkpt lat="44.15065" lon="6.08876">
        <ele>1212</ele>
        <time>2022-03-03T10:36:22.000Z</time>
      </trkpt>
      <trkpt lat="44.15064" lon="6.08876">
        <ele>1212</ele>
        <time>2022-03-03T10:36:23.000Z</time>
      </trkpt>
      <trkpt lat="44.15064" lon="6.08875">
        <ele>1212</ele>
        <time>2022-03-03T10:36:24.000Z</time>
      </trkpt>
      <trkpt lat="44.15063" lon="6.08875">
        <ele>1212</ele>
        <time>2022-03-03T10:36:25.000Z</time>
      </trkpt>
      <trkpt lat="44.15062" lon="6.08874">
        <ele>1213</ele>
        <time>2022-03-03T10:36:26.000Z</time>
      </trkpt>
      <trkpt lat="44.15062" lon="6.08873">
        <ele>1213</ele>
        <time>2022-03-03T10:36:27.000Z</time>
      </trkpt>
      <trkpt lat="44.15061" lon="6.08872">
        <ele>1213</ele>
        <time>2022-03-03T10:36:28.000Z</time>
      </trkpt>
      <trkpt lat="44.1506" lon="6.08871">
        <ele>1213</ele>
        <time>2022-03-03T10:36:29.000Z</time>
      </trkpt>
      <trkpt lat="44.1506" lon="6.0887">
        <ele>1213</ele>
        <time>2022-03-03T10:36:30.000Z</time>
      </trkpt>
      <trkpt lat="44.1506" lon="6.08869">
        <ele>1213</ele>
        <time>2022-03-03T10:36:31.000Z</time>
      </trkpt>
      <trkpt lat="44.15059" lon="6.08868">
        <ele>1213</ele>
        <time>2022-03-03T10:36:32.000Z</time>
      </trkpt>
      <trkpt lat="44.15059" lon="6.08867">
        <ele>1213</ele>
        <time>2022-03-03T10:36:33.000Z</time>
      </trkpt>
      <trkpt lat="44.15058" lon="6.08866">
        <ele>1213</ele>
        <time>2022-03-03T10:36:34.000Z</time>
      </trkpt>
      <trkpt lat="44.15058" lon="6.08865">
        <ele>1213</ele>
        <time>2022-03-03T10:36:35.000Z</time>
      </trkpt>
      <trkpt lat="44.15058" lon="6.08864">
        <ele>1213</ele>
        <time>2022-03-03T10:36:36.000Z</time>
      </trkpt>
      <trkpt lat="44.15058" lon="6.08863">
        <ele>1213</ele>
        <time>2022-03-03T10:36:37.000Z</time>
      </trkpt>
      <trkpt lat="44.15057" lon="6.08862">
        <ele>1214</ele>
        <time>2022-03-03T10:36:38.000Z</time>
      </trkpt>
      <trkpt lat="44.15057" lon="6.08861">
        <ele>1214</ele>
        <time>2022-03-03T10:36:39.000Z</time>
      </trkpt>
      <trkpt lat="44.15057" lon="6.0886">
        <ele>1214</ele>
        <time>2022-03-03T10:36:40.000Z</time>
      </trkpt>
      <trkpt lat="44.15057" lon="6.08859">
        <ele>1214</ele>
        <time>2022-03-03T10:36:41.000Z</time>
      </trkpt>
      <trkpt lat="44.15057" lon="6.08857">
        <ele>1214</ele>
        <time>2022-03-03T10:36:42.000Z</time>
      </trkpt>
      <trkpt lat="44.15057" lon="6.08856">
        <ele>1214</ele>
        <time>2022-03-03T10:36:43.000Z</time>
      </trkpt>
      <trkpt lat="44.15057" lon="6.08856">
        <ele>1214</ele>
        <time>2022-03-03T10:36:44.000Z</time>
      </trkpt>
      <trkpt lat="44.15056" lon="6.08854">
        <ele>1214</ele>
        <time>2022-03-03T10:36:45.000Z</time>
      </trkpt>
      <trkpt lat="44.15056" lon="6.08853">
        <ele>1214</ele>
        <time>2022-03-03T10:36:46.000Z</time>
      </trkpt>
      <trkpt lat="44.15056" lon="6.08852">
        <ele>1214</ele>
        <time>2022-03-03T10:36:47.000Z</time>
      </trkpt>
      <trkpt lat="44.15056" lon="6.08851">
        <ele>1214</ele>
        <time>2022-03-03T10:36:48.000Z</time>
      </trkpt>
      <trkpt lat="44.15056" lon="6.0885">
        <ele>1215</ele>
        <time>2022-03-03T10:36:49.000Z</time>
      </trkpt>
      <trkpt lat="44.15056" lon="6.08849">
        <ele>1215</ele>
        <time>2022-03-03T10:36:50.000Z</time>
      </trkpt>
      <trkpt lat="44.15056" lon="6.08848">
        <ele>1215</ele>
        <time>2022-03-03T10:36:51.000Z</time>
      </trkpt>
      <trkpt lat="44.15056" lon="6.08847">
        <ele>1215</ele>
        <time>2022-03-03T10:36:52.000Z</time>
      </trkpt>
      <trkpt lat="44.15056" lon="6.08846">
        <ele>1215</ele>
        <time>2022-03-03T10:36:53.000Z</time>
      </trkpt>
      <trkpt lat="44.15056" lon="6.08844">
        <ele>1215</ele>
        <time>2022-03-03T10:36:54.000Z</time>
      </trkpt>
      <trkpt lat="44.15056" lon="6.08843">
        <ele>1215</ele>
        <time>2022-03-03T10:36:55.000Z</time>
      </trkpt>
      <trkpt lat="44.15055" lon="6.08842">
        <ele>1215</ele>
        <time>2022-03-03T10:36:56.000Z</time>
      </trkpt>
      <trkpt lat="44.15055" lon="6.08841">
        <ele>1216</ele>
        <time>2022-03-03T10:36:57.000Z</time>
      </trkpt>
      <trkpt lat="44.15055" lon="6.08839">
        <ele>1216</ele>
        <time>2022-03-03T10:36:58.000Z</time>
      </trkpt>
      <trkpt lat="44.15055" lon="6.08838">
        <ele>1216</ele>
        <time>2022-03-03T10:36:59.000Z</time>
      </trkpt>
      <trkpt lat="44.15055" lon="6.08837">
        <ele>1216</ele>
        <time>2022-03-03T10:37:00.000Z</time>
      </trkpt>
      <trkpt lat="44.15055" lon="6.08836">
        <ele>1216</ele>
        <time>2022-03-03T10:37:01.000Z</time>
      </trkpt>
      <trkpt lat="44.15055" lon="6.08835">
        <ele>1216</ele>
        <time>2022-03-03T10:37:02.000Z</time>
      </trkpt>
      <trkpt lat="44.15055" lon="6.08834">
        <ele>1217</ele>
        <time>2022-03-03T10:37:03.000Z</time>
      </trkpt>
      <trkpt lat="44.15055" lon="6.08832">
        <ele>1217</ele>
        <time>2022-03-03T10:37:04.000Z</time>
      </trkpt>
      <trkpt lat="44.15055" lon="6.08831">
        <ele>1217</ele>
        <time>2022-03-03T10:37:05.000Z</time>
      </trkpt>
      <trkpt lat="44.15055" lon="6.0883">
        <ele>1217</ele>
        <time>2022-03-03T10:37:06.000Z</time>
      </trkpt>
      <trkpt lat="44.15055" lon="6.08829">
        <ele>1217</ele>
        <time>2022-03-03T10:37:07.000Z</time>
      </trkpt>
      <trkpt lat="44.15055" lon="6.08828">
        <ele>1217</ele>
        <time>2022-03-03T10:37:08.000Z</time>
      </trkpt>
      <trkpt lat="44.15055" lon="6.08827">
        <ele>1218</ele>
        <time>2022-03-03T10:37:09.000Z</time>
      </trkpt>
      <trkpt lat="44.15056" lon="6.08826">
        <ele>1218</ele>
        <time>2022-03-03T10:37:10.000Z</time>
      </trkpt>
      <trkpt lat="44.15056" lon="6.08825">
        <ele>1218</ele>
        <time>2022-03-03T10:37:11.000Z</time>
      </trkpt>
      <trkpt lat="44.15056" lon="6.08824">
        <ele>1218</ele>
        <time>2022-03-03T10:37:12.000Z</time>
      </trkpt>
      <trkpt lat="44.15056" lon="6.08823">
        <ele>1218</ele>
        <time>2022-03-03T10:37:13.000Z</time>
      </trkpt>
      <trkpt lat="44.15057" lon="6.08822">
        <ele>1218</ele>
        <time>2022-03-03T10:37:14.000Z</time>
      </trkpt>
      <trkpt lat="44.15057" lon="6.08821">
        <ele>1218</ele>
        <time>2022-03-03T10:37:15.000Z</time>
      </trkpt>
      <trkpt lat="44.15057" lon="6.0882">
        <ele>1219</ele>
        <time>2022-03-03T10:37:16.000Z</time>
      </trkpt>
      <trkpt lat="44.15058" lon="6.08819">
        <ele>1219</ele>
        <time>2022-03-03T10:37:17.000Z</time>
      </trkpt>
      <trkpt lat="44.15058" lon="6.08818">
        <ele>1219</ele>
        <time>2022-03-03T10:37:18.000Z</time>
      </trkpt>
      <trkpt lat="44.15059" lon="6.08817">
        <ele>1219</ele>
        <time>2022-03-03T10:37:19.000Z</time>
      </trkpt>
      <trkpt lat="44.15059" lon="6.08816">
        <ele>1219</ele>
        <time>2022-03-03T10:37:20.000Z</time>
      </trkpt>
      <trkpt lat="44.1506" lon="6.08815">
        <ele>1219</ele>
        <time>2022-03-03T10:37:21.000Z</time>
      </trkpt>
      <trkpt lat="44.1506" lon="6.08815">
        <ele>1219</ele>
        <time>2022-03-03T10:37:22.000Z</time>
      </trkpt>
      <trkpt lat="44.15061" lon="6.08814">
        <ele>1219</ele>
        <time>2022-03-03T10:37:23.000Z</time>
      </trkpt>
      <trkpt lat="44.15061" lon="6.08813">
        <ele>1220</ele>
        <time>2022-03-03T10:37:24.000Z</time>
      </trkpt>
      <trkpt lat="44.15061" lon="6.08813">
        <ele>1220</ele>
        <time>2022-03-03T10:37:25.000Z</time>
      </trkpt>
      <trkpt lat="44.15062" lon="6.08812">
        <ele>1220</ele>
        <time>2022-03-03T10:37:26.000Z</time>
      </trkpt>
      <trkpt lat="44.15062" lon="6.08812">
        <ele>1220</ele>
        <time>2022-03-03T10:37:27.000Z</time>
      </trkpt>
      <trkpt lat="44.15063" lon="6.08811">
        <ele>1220</ele>
        <time>2022-03-03T10:37:28.000Z</time>
      </trkpt>
      <trkpt lat="44.15063" lon="6.0881">
        <ele>1220</ele>
        <time>2022-03-03T10:37:29.000Z</time>
      </trkpt>
      <trkpt lat="44.15064" lon="6.0881">
        <ele>1220</ele>
        <time>2022-03-03T10:37:30.000Z</time>
      </trkpt>
      <trkpt lat="44.15064" lon="6.08809">
        <ele>1220</ele>
        <time>2022-03-03T10:37:31.000Z</time>
      </trkpt>
      <trkpt lat="44.15064" lon="6.08809">
        <ele>1220</ele>
        <time>2022-03-03T10:37:32.000Z</time>
      </trkpt>
      <trkpt lat="44.15065" lon="6.08808">
        <ele>1220</ele>
        <time>2022-03-03T10:37:33.000Z</time>
      </trkpt>
      <trkpt lat="44.15065" lon="6.08807">
        <ele>1220</ele>
        <time>2022-03-03T10:37:34.000Z</time>
      </trkpt>
      <trkpt lat="44.15066" lon="6.08807">
        <ele>1220</ele>
        <time>2022-03-03T10:37:35.000Z</time>
      </trkpt>
      <trkpt lat="44.15066" lon="6.08806">
        <ele>1220</ele>
        <time>2022-03-03T10:37:36.000Z</time>
      </trkpt>
      <trkpt lat="44.15067" lon="6.08806">
        <ele>1221</ele>
        <time>2022-03-03T10:37:37.000Z</time>
      </trkpt>
      <trkpt lat="44.15067" lon="6.08805">
        <ele>1221</ele>
        <time>2022-03-03T10:37:38.000Z</time>
      </trkpt>
      <trkpt lat="44.15068" lon="6.08805">
        <ele>1221</ele>
        <time>2022-03-03T10:37:39.000Z</time>
      </trkpt>
      <trkpt lat="44.15068" lon="6.08804">
        <ele>1221</ele>
        <time>2022-03-03T10:37:40.000Z</time>
      </trkpt>
      <trkpt lat="44.15069" lon="6.08803">
        <ele>1221</ele>
        <time>2022-03-03T10:37:41.000Z</time>
      </trkpt>
      <trkpt lat="44.15069" lon="6.08803">
        <ele>1221</ele>
        <time>2022-03-03T10:37:42.000Z</time>
      </trkpt>
      <trkpt lat="44.1507" lon="6.08802">
        <ele>1221</ele>
        <time>2022-03-03T10:37:43.000Z</time>
      </trkpt>
      <trkpt lat="44.1507" lon="6.08802">
        <ele>1221</ele>
        <time>2022-03-03T10:37:44.000Z</time>
      </trkpt>
      <trkpt lat="44.15071" lon="6.08802">
        <ele>1221</ele>
        <time>2022-03-03T10:37:45.000Z</time>
      </trkpt>
      <trkpt lat="44.15071" lon="6.08801">
        <ele>1221</ele>
        <time>2022-03-03T10:37:46.000Z</time>
      </trkpt>
      <trkpt lat="44.15072" lon="6.08801">
        <ele>1221</ele>
        <time>2022-03-03T10:37:47.000Z</time>
      </trkpt>
      <trkpt lat="44.15072" lon="6.088">
        <ele>1222</ele>
        <time>2022-03-03T10:37:48.000Z</time>
      </trkpt>
      <trkpt lat="44.15073" lon="6.088">
        <ele>1222</ele>
        <time>2022-03-03T10:37:49.000Z</time>
      </trkpt>
      <trkpt lat="44.15073" lon="6.08799">
        <ele>1222</ele>
        <time>2022-03-03T10:37:50.000Z</time>
      </trkpt>
      <trkpt lat="44.15074" lon="6.08799">
        <ele>1222</ele>
        <time>2022-03-03T10:37:51.000Z</time>
      </trkpt>
      <trkpt lat="44.15074" lon="6.08798">
        <ele>1222</ele>
        <time>2022-03-03T10:37:52.000Z</time>
      </trkpt>
      <trkpt lat="44.15075" lon="6.08798">
        <ele>1222</ele>
        <time>2022-03-03T10:37:53.000Z</time>
      </trkpt>
      <trkpt lat="44.15075" lon="6.08797">
        <ele>1222</ele>
        <time>2022-03-03T10:37:54.000Z</time>
      </trkpt>
      <trkpt lat="44.15075" lon="6.08797">
        <ele>1223</ele>
        <time>2022-03-03T10:37:55.000Z</time>
      </trkpt>
      <trkpt lat="44.15076" lon="6.08796">
        <ele>1223</ele>
        <time>2022-03-03T10:37:56.000Z</time>
      </trkpt>
      <trkpt lat="44.15076" lon="6.08796">
        <ele>1223</ele>
        <time>2022-03-03T10:37:57.000Z</time>
      </trkpt>
      <trkpt lat="44.15077" lon="6.08795">
        <ele>1223</ele>
        <time>2022-03-03T10:37:58.000Z</time>
      </trkpt>
      <trkpt lat="44.15077" lon="6.08794">
        <ele>1223</ele>
        <time>2022-03-03T10:37:59.000Z</time>
      </trkpt>
      <trkpt lat="44.15077" lon="6.08794">
        <ele>1223</ele>
        <time>2022-03-03T10:38:00.000Z</time>
      </trkpt>
      <trkpt lat="44.15077" lon="6.08794">
        <ele>1223</ele>
        <time>2022-03-03T10:38:01.000Z</time>
      </trkpt>
      <trkpt lat="44.15077" lon="6.08794">
        <ele>1223</ele>
        <time>2022-03-03T10:38:02.000Z</time>
      </trkpt>
      <trkpt lat="44.15077" lon="6.08794">
        <ele>1223</ele>
        <time>2022-03-03T10:38:03.000Z</time>
      </trkpt>
      <trkpt lat="44.15077" lon="6.08793">
        <ele>1223</ele>
        <time>2022-03-03T10:38:04.000Z</time>
      </trkpt>
      <trkpt lat="44.15077" lon="6.08793">
        <ele>1224</ele>
        <time>2022-03-03T10:38:05.000Z</time>
      </trkpt>
      <trkpt lat="44.15077" lon="6.08793">
        <ele>1224</ele>
        <time>2022-03-03T10:38:06.000Z</time>
      </trkpt>
      <trkpt lat="44.15077" lon="6.08793">
        <ele>1224</ele>
        <time>2022-03-03T10:38:07.000Z</time>
      </trkpt>
      <trkpt lat="44.15077" lon="6.08793">
        <ele>1224</ele>
        <time>2022-03-03T10:38:08.000Z</time>
      </trkpt>
      <trkpt lat="44.15077" lon="6.08793">
        <ele>1224</ele>
        <time>2022-03-03T10:38:09.000Z</time>
      </trkpt>
      <trkpt lat="44.15077" lon="6.08793">
        <ele>1224</ele>
        <time>2022-03-03T10:38:10.000Z</time>
      </trkpt>
      <trkpt lat="44.15077" lon="6.08793">
        <ele>1224</ele>
        <time>2022-03-03T10:38:11.000Z</time>
      </trkpt>
      <trkpt lat="44.15077" lon="6.08793">
        <ele>1224</ele>
        <time>2022-03-03T10:38:12.000Z</time>
      </trkpt>
      <trkpt lat="44.15077" lon="6.08793">
        <ele>1224</ele>
        <time>2022-03-03T10:38:13.000Z</time>
      </trkpt>
      <trkpt lat="44.15077" lon="6.08793">
        <ele>1224</ele>
        <time>2022-03-03T10:38:14.000Z</time>
      </trkpt>
      <trkpt lat="44.15077" lon="6.08793">
        <ele>1224</ele>
        <time>2022-03-03T10:38:15.000Z</time>
      </trkpt>
      <trkpt lat="44.15077" lon="6.08793">
        <ele>1224</ele>
        <time>2022-03-03T10:38:16.000Z</time>
      </trkpt>
      <trkpt lat="44.15077" lon="6.08793">
        <ele>1224</ele>
        <time>2022-03-03T10:38:17.000Z</time>
      </trkpt>
      <trkpt lat="44.15077" lon="6.08793">
        <ele>1224</ele>
        <time>2022-03-03T10:38:18.000Z</time>
      </trkpt>
      <trkpt lat="44.15077" lon="6.08793">
        <ele>1224</ele>
        <time>2022-03-03T10:38:19.000Z</time>
      </trkpt>
      <trkpt lat="44.15077" lon="6.08793">
        <ele>1224</ele>
        <time>2022-03-03T10:38:20.000Z</time>
      </trkpt>
      <trkpt lat="44.15077" lon="6.08793">
        <ele>1224</ele>
        <time>2022-03-03T10:38:21.000Z</time>
      </trkpt>
      <trkpt lat="44.15077" lon="6.08793">
        <ele>1224</ele>
        <time>2022-03-03T10:38:22.000Z</time>
      </trkpt>
      <trkpt lat="44.15077" lon="6.08793">
        <ele>1224</ele>
        <time>2022-03-03T10:38:23.000Z</time>
      </trkpt>
      <trkpt lat="44.15077" lon="6.08793">
        <ele>1224</ele>
        <time>2022-03-03T10:38:24.000Z</time>
      </trkpt>
      <trkpt lat="44.15077" lon="6.08793">
        <ele>1224</ele>
        <time>2022-03-03T10:38:25.000Z</time>
      </trkpt>
      <trkpt lat="44.15077" lon="6.08793">
        <ele>1224</ele>
        <time>2022-03-03T10:38:26.000Z</time>
      </trkpt>
      <trkpt lat="44.15077" lon="6.08793">
        <ele>1224</ele>
        <time>2022-03-03T10:38:27.000Z</time>
      </trkpt>
      <trkpt lat="44.15077" lon="6.08793">
        <ele>1224</ele>
        <time>2022-03-03T10:38:28.000Z</time>
      </trkpt>
      <trkpt lat="44.15078" lon="6.08793">
        <ele>1224</ele>
        <time>2022-03-03T10:38:29.000Z</time>
      </trkpt>
      <trkpt lat="44.15078" lon="6.08792">
        <ele>1224</ele>
        <time>2022-03-03T10:38:30.000Z</time>
      </trkpt>
      <trkpt lat="44.15078" lon="6.08791">
        <ele>1224</ele>
        <time>2022-03-03T10:38:31.000Z</time>
      </trkpt>
      <trkpt lat="44.15079" lon="6.0879">
        <ele>1224</ele>
        <time>2022-03-03T10:38:32.000Z</time>
      </trkpt>
      <trkpt lat="44.1508" lon="6.08789">
        <ele>1224</ele>
        <time>2022-03-03T10:38:33.000Z</time>
      </trkpt>
      <trkpt lat="44.1508" lon="6.08789">
        <ele>1224</ele>
        <time>2022-03-03T10:38:34.000Z</time>
      </trkpt>
      <trkpt lat="44.15081" lon="6.08788">
        <ele>1225</ele>
        <time>2022-03-03T10:38:35.000Z</time>
      </trkpt>
      <trkpt lat="44.15082" lon="6.08787">
        <ele>1225</ele>
        <time>2022-03-03T10:38:36.000Z</time>
      </trkpt>
      <trkpt lat="44.15082" lon="6.08787">
        <ele>1225</ele>
        <time>2022-03-03T10:38:37.000Z</time>
      </trkpt>
      <trkpt lat="44.15083" lon="6.08786">
        <ele>1225</ele>
        <time>2022-03-03T10:38:38.000Z</time>
      </trkpt>
      <trkpt lat="44.15084" lon="6.08785">
        <ele>1225</ele>
        <time>2022-03-03T10:38:39.000Z</time>
      </trkpt>
      <trkpt lat="44.15085" lon="6.08785">
        <ele>1225</ele>
        <time>2022-03-03T10:38:40.000Z</time>
      </trkpt>
      <trkpt lat="44.15086" lon="6.08784">
        <ele>1225</ele>
        <time>2022-03-03T10:38:41.000Z</time>
      </trkpt>
      <trkpt lat="44.15087" lon="6.08783">
        <ele>1225</ele>
        <time>2022-03-03T10:38:42.000Z</time>
      </trkpt>
      <trkpt lat="44.15087" lon="6.08783">
        <ele>1225</ele>
        <time>2022-03-03T10:38:43.000Z</time>
      </trkpt>
      <trkpt lat="44.15088" lon="6.08782">
        <ele>1226</ele>
        <time>2022-03-03T10:38:44.000Z</time>
      </trkpt>
      <trkpt lat="44.15089" lon="6.08782">
        <ele>1226</ele>
        <time>2022-03-03T10:38:45.000Z</time>
      </trkpt>
      <trkpt lat="44.15089" lon="6.08781">
        <ele>1226</ele>
        <time>2022-03-03T10:38:46.000Z</time>
      </trkpt>
      <trkpt lat="44.1509" lon="6.08781">
        <ele>1226</ele>
        <time>2022-03-03T10:38:47.000Z</time>
      </trkpt>
      <trkpt lat="44.15091" lon="6.0878">
        <ele>1226</ele>
        <time>2022-03-03T10:38:48.000Z</time>
      </trkpt>
      <trkpt lat="44.15092" lon="6.0878">
        <ele>1226</ele>
        <time>2022-03-03T10:38:49.000Z</time>
      </trkpt>
      <trkpt lat="44.15093" lon="6.08779">
        <ele>1226</ele>
        <time>2022-03-03T10:38:50.000Z</time>
      </trkpt>
      <trkpt lat="44.15093" lon="6.08779">
        <ele>1226</ele>
        <time>2022-03-03T10:38:51.000Z</time>
      </trkpt>
      <trkpt lat="44.15094" lon="6.08778">
        <ele>1227</ele>
        <time>2022-03-03T10:38:52.000Z</time>
      </trkpt>
      <trkpt lat="44.15095" lon="6.08778">
        <ele>1227</ele>
        <time>2022-03-03T10:38:53.000Z</time>
      </trkpt>
      <trkpt lat="44.15096" lon="6.08778">
        <ele>1227</ele>
        <time>2022-03-03T10:38:54.000Z</time>
      </trkpt>
      <trkpt lat="44.15096" lon="6.08777">
        <ele>1227</ele>
        <time>2022-03-03T10:38:55.000Z</time>
      </trkpt>
      <trkpt lat="44.15098" lon="6.08777">
        <ele>1227</ele>
        <time>2022-03-03T10:38:56.000Z</time>
      </trkpt>
      <trkpt lat="44.15098" lon="6.08776">
        <ele>1227</ele>
        <time>2022-03-03T10:38:57.000Z</time>
      </trkpt>
      <trkpt lat="44.15099" lon="6.08776">
        <ele>1227</ele>
        <time>2022-03-03T10:38:58.000Z</time>
      </trkpt>
      <trkpt lat="44.151" lon="6.08777">
        <ele>1227</ele>
        <time>2022-03-03T10:38:59.000Z</time>
      </trkpt>
      <trkpt lat="44.15101" lon="6.08777">
        <ele>1228</ele>
        <time>2022-03-03T10:39:00.000Z</time>
      </trkpt>
      <trkpt lat="44.15102" lon="6.08776">
        <ele>1228</ele>
        <time>2022-03-03T10:39:01.000Z</time>
      </trkpt>
      <trkpt lat="44.15103" lon="6.08776">
        <ele>1228</ele>
        <time>2022-03-03T10:39:02.000Z</time>
      </trkpt>
      <trkpt lat="44.15104" lon="6.08776">
        <ele>1228</ele>
        <time>2022-03-03T10:39:03.000Z</time>
      </trkpt>
      <trkpt lat="44.15104" lon="6.08775">
        <ele>1228</ele>
        <time>2022-03-03T10:39:04.000Z</time>
      </trkpt>
      <trkpt lat="44.15105" lon="6.08775">
        <ele>1228</ele>
        <time>2022-03-03T10:39:05.000Z</time>
      </trkpt>
      <trkpt lat="44.15106" lon="6.08775">
        <ele>1228</ele>
        <time>2022-03-03T10:39:06.000Z</time>
      </trkpt>
      <trkpt lat="44.15107" lon="6.08774">
        <ele>1228</ele>
        <time>2022-03-03T10:39:07.000Z</time>
      </trkpt>
      <trkpt lat="44.15108" lon="6.08774">
        <ele>1228</ele>
        <time>2022-03-03T10:39:08.000Z</time>
      </trkpt>
      <trkpt lat="44.15109" lon="6.08774">
        <ele>1228</ele>
        <time>2022-03-03T10:39:09.000Z</time>
      </trkpt>
      <trkpt lat="44.1511" lon="6.08773">
        <ele>1228</ele>
        <time>2022-03-03T10:39:10.000Z</time>
      </trkpt>
      <trkpt lat="44.15111" lon="6.08773">
        <ele>1228</ele>
        <time>2022-03-03T10:39:11.000Z</time>
      </trkpt>
      <trkpt lat="44.15112" lon="6.08773">
        <ele>1229</ele>
        <time>2022-03-03T10:39:12.000Z</time>
      </trkpt>
      <trkpt lat="44.15113" lon="6.08772">
        <ele>1229</ele>
        <time>2022-03-03T10:39:13.000Z</time>
      </trkpt>
      <trkpt lat="44.15114" lon="6.08772">
        <ele>1229</ele>
        <time>2022-03-03T10:39:14.000Z</time>
      </trkpt>
      <trkpt lat="44.15115" lon="6.08772">
        <ele>1229</ele>
        <time>2022-03-03T10:39:15.000Z</time>
      </trkpt>
      <trkpt lat="44.15115" lon="6.08772">
        <ele>1229</ele>
        <time>2022-03-03T10:39:16.000Z</time>
      </trkpt>
      <trkpt lat="44.15116" lon="6.08771">
        <ele>1229</ele>
        <time>2022-03-03T10:39:17.000Z</time>
      </trkpt>
      <trkpt lat="44.15117" lon="6.08771">
        <ele>1229</ele>
        <time>2022-03-03T10:39:18.000Z</time>
      </trkpt>
      <trkpt lat="44.15118" lon="6.08771">
        <ele>1229</ele>
        <time>2022-03-03T10:39:19.000Z</time>
      </trkpt>
      <trkpt lat="44.15119" lon="6.0877">
        <ele>1229</ele>
        <time>2022-03-03T10:39:20.000Z</time>
      </trkpt>
      <trkpt lat="44.1512" lon="6.0877">
        <ele>1229</ele>
        <time>2022-03-03T10:39:21.000Z</time>
      </trkpt>
      <trkpt lat="44.15121" lon="6.0877">
        <ele>1230</ele>
        <time>2022-03-03T10:39:22.000Z</time>
      </trkpt>
      <trkpt lat="44.15121" lon="6.0877">
        <ele>1230</ele>
        <time>2022-03-03T10:39:23.000Z</time>
      </trkpt>
      <trkpt lat="44.15122" lon="6.0877">
        <ele>1230</ele>
        <time>2022-03-03T10:39:24.000Z</time>
      </trkpt>
      <trkpt lat="44.15123" lon="6.0877">
        <ele>1230</ele>
        <time>2022-03-03T10:39:25.000Z</time>
      </trkpt>
      <trkpt lat="44.15124" lon="6.08769">
        <ele>1230</ele>
        <time>2022-03-03T10:39:26.000Z</time>
      </trkpt>
      <trkpt lat="44.15125" lon="6.08769">
        <ele>1230</ele>
        <time>2022-03-03T10:39:27.000Z</time>
      </trkpt>
      <trkpt lat="44.15126" lon="6.08769">
        <ele>1230</ele>
        <time>2022-03-03T10:39:28.000Z</time>
      </trkpt>
      <trkpt lat="44.15127" lon="6.08769">
        <ele>1230</ele>
        <time>2022-03-03T10:39:29.000Z</time>
      </trkpt>
      <trkpt lat="44.15127" lon="6.08768">
        <ele>1230</ele>
        <time>2022-03-03T10:39:30.000Z</time>
      </trkpt>
      <trkpt lat="44.15128" lon="6.08768">
        <ele>1230</ele>
        <time>2022-03-03T10:39:31.000Z</time>
      </trkpt>
      <trkpt lat="44.15129" lon="6.08768">
        <ele>1230</ele>
        <time>2022-03-03T10:39:32.000Z</time>
      </trkpt>
      <trkpt lat="44.1513" lon="6.08767">
        <ele>1230</ele>
        <time>2022-03-03T10:39:33.000Z</time>
      </trkpt>
      <trkpt lat="44.15131" lon="6.08767">
        <ele>1230</ele>
        <time>2022-03-03T10:39:34.000Z</time>
      </trkpt>
      <trkpt lat="44.15132" lon="6.08766">
        <ele>1230</ele>
        <time>2022-03-03T10:39:35.000Z</time>
      </trkpt>
      <trkpt lat="44.15133" lon="6.08765">
        <ele>1231</ele>
        <time>2022-03-03T10:39:36.000Z</time>
      </trkpt>
      <trkpt lat="44.15133" lon="6.08765">
        <ele>1231</ele>
        <time>2022-03-03T10:39:37.000Z</time>
      </trkpt>
      <trkpt lat="44.15134" lon="6.08764">
        <ele>1231</ele>
        <time>2022-03-03T10:39:38.000Z</time>
      </trkpt>
      <trkpt lat="44.15135" lon="6.08763">
        <ele>1231</ele>
        <time>2022-03-03T10:39:39.000Z</time>
      </trkpt>
      <trkpt lat="44.15135" lon="6.08763">
        <ele>1231</ele>
        <time>2022-03-03T10:39:40.000Z</time>
      </trkpt>
      <trkpt lat="44.15136" lon="6.08762">
        <ele>1231</ele>
        <time>2022-03-03T10:39:41.000Z</time>
      </trkpt>
      <trkpt lat="44.15136" lon="6.08762">
        <ele>1231</ele>
        <time>2022-03-03T10:39:42.000Z</time>
      </trkpt>
      <trkpt lat="44.15137" lon="6.08761">
        <ele>1231</ele>
        <time>2022-03-03T10:39:43.000Z</time>
      </trkpt>
      <trkpt lat="44.15137" lon="6.08761">
        <ele>1231</ele>
        <time>2022-03-03T10:39:44.000Z</time>
      </trkpt>
      <trkpt lat="44.15138" lon="6.0876">
        <ele>1231</ele>
        <time>2022-03-03T10:39:45.000Z</time>
      </trkpt>
      <trkpt lat="44.15138" lon="6.08761">
        <ele>1231</ele>
        <time>2022-03-03T10:39:46.000Z</time>
      </trkpt>
      <trkpt lat="44.15138" lon="6.08761">
        <ele>1231</ele>
        <time>2022-03-03T10:39:47.000Z</time>
      </trkpt>
      <trkpt lat="44.15138" lon="6.08761">
        <ele>1231</ele>
        <time>2022-03-03T10:39:48.000Z</time>
      </trkpt>
      <trkpt lat="44.15138" lon="6.0876">
        <ele>1231</ele>
        <time>2022-03-03T10:39:49.000Z</time>
      </trkpt>
      <trkpt lat="44.15138" lon="6.0876">
        <ele>1231</ele>
        <time>2022-03-03T10:39:50.000Z</time>
      </trkpt>
      <trkpt lat="44.15138" lon="6.0876">
        <ele>1231</ele>
        <time>2022-03-03T10:39:51.000Z</time>
      </trkpt>
      <trkpt lat="44.15138" lon="6.0876">
        <ele>1231</ele>
        <time>2022-03-03T10:39:52.000Z</time>
      </trkpt>
      <trkpt lat="44.15138" lon="6.0876">
        <ele>1231</ele>
        <time>2022-03-03T10:39:53.000Z</time>
      </trkpt>
      <trkpt lat="44.15138" lon="6.0876">
        <ele>1231</ele>
        <time>2022-03-03T10:39:54.000Z</time>
      </trkpt>
      <trkpt lat="44.15138" lon="6.0876">
        <ele>1231</ele>
        <time>2022-03-03T10:39:55.000Z</time>
      </trkpt>
      <trkpt lat="44.15138" lon="6.0876">
        <ele>1231</ele>
        <time>2022-03-03T10:39:56.000Z</time>
      </trkpt>
      <trkpt lat="44.15138" lon="6.0876">
        <ele>1231</ele>
        <time>2022-03-03T10:39:57.000Z</time>
      </trkpt>
      <trkpt lat="44.15138" lon="6.0876">
        <ele>1231</ele>
        <time>2022-03-03T10:39:58.000Z</time>
      </trkpt>
      <trkpt lat="44.15138" lon="6.0876">
        <ele>1231</ele>
        <time>2022-03-03T10:39:59.000Z</time>
      </trkpt>
      <trkpt lat="44.15138" lon="6.0876">
        <ele>1231</ele>
        <time>2022-03-03T10:40:00.000Z</time>
      </trkpt>
      <trkpt lat="44.15138" lon="6.0876">
        <ele>1231</ele>
        <time>2022-03-03T10:40:01.000Z</time>
      </trkpt>
      <trkpt lat="44.15138" lon="6.0876">
        <ele>1231</ele>
        <time>2022-03-03T10:40:02.000Z</time>
      </trkpt>
      <trkpt lat="44.15138" lon="6.0876">
        <ele>1231</ele>
        <time>2022-03-03T10:40:03.000Z</time>
      </trkpt>
      <trkpt lat="44.15138" lon="6.0876">
        <ele>1231</ele>
        <time>2022-03-03T10:40:04.000Z</time>
      </trkpt>
      <trkpt lat="44.15138" lon="6.0876">
        <ele>1231</ele>
        <time>2022-03-03T10:40:05.000Z</time>
      </trkpt>
      <trkpt lat="44.15138" lon="6.0876">
        <ele>1231</ele>
        <time>2022-03-03T10:40:06.000Z</time>
      </trkpt>
      <trkpt lat="44.15138" lon="6.0876">
        <ele>1231</ele>
        <time>2022-03-03T10:40:07.000Z</time>
      </trkpt>
      <trkpt lat="44.15138" lon="6.0876">
        <ele>1231</ele>
        <time>2022-03-03T10:40:08.000Z</time>
      </trkpt>
      <trkpt lat="44.15138" lon="6.0876">
        <ele>1231</ele>
        <time>2022-03-03T10:40:09.000Z</time>
      </trkpt>
      <trkpt lat="44.15138" lon="6.0876">
        <ele>1231</ele>
        <time>2022-03-03T10:40:10.000Z</time>
      </trkpt>
      <trkpt lat="44.15138" lon="6.0876">
        <ele>1231</ele>
        <time>2022-03-03T10:40:11.000Z</time>
      </trkpt>
      <trkpt lat="44.15138" lon="6.0876">
        <ele>1231</ele>
        <time>2022-03-03T10:40:12.000Z</time>
      </trkpt>
      <trkpt lat="44.15138" lon="6.0876">
        <ele>1231</ele>
        <time>2022-03-03T10:40:13.000Z</time>
      </trkpt>
      <trkpt lat="44.15138" lon="6.0876">
        <ele>1231</ele>
        <time>2022-03-03T10:40:14.000Z</time>
      </trkpt>
      <trkpt lat="44.15138" lon="6.0876">
        <ele>1231</ele>
        <time>2022-03-03T10:40:15.000Z</time>
      </trkpt>
      <trkpt lat="44.15138" lon="6.0876">
        <ele>1231</ele>
        <time>2022-03-03T10:40:16.000Z</time>
      </trkpt>
      <trkpt lat="44.15138" lon="6.0876">
        <ele>1231</ele>
        <time>2022-03-03T10:40:17.000Z</time>
      </trkpt>
      <trkpt lat="44.15138" lon="6.0876">
        <ele>1231</ele>
        <time>2022-03-03T10:40:18.000Z</time>
      </trkpt>
      <trkpt lat="44.15138" lon="6.0876">
        <ele>1231</ele>
        <time>2022-03-03T10:40:19.000Z</time>
      </trkpt>
      <trkpt lat="44.15138" lon="6.0876">
        <ele>1231</ele>
        <time>2022-03-03T10:40:20.000Z</time>
      </trkpt>
      <trkpt lat="44.15138" lon="6.0876">
        <ele>1231</ele>
        <time>2022-03-03T10:40:21.000Z</time>
      </trkpt>
      <trkpt lat="44.15138" lon="6.0876">
        <ele>1231</ele>
        <time>2022-03-03T10:40:22.000Z</time>
      </trkpt>
      <trkpt lat="44.15138" lon="6.0876">
        <ele>1231</ele>
        <time>2022-03-03T10:40:23.000Z</time>
      </trkpt>
      <trkpt lat="44.15138" lon="6.0876">
        <ele>1231</ele>
        <time>2022-03-03T10:40:24.000Z</time>
      </trkpt>
      <trkpt lat="44.15138" lon="6.0876">
        <ele>1231</ele>
        <time>2022-03-03T10:40:25.000Z</time>
      </trkpt>
      <trkpt lat="44.15138" lon="6.0876">
        <ele>1231</ele>
        <time>2022-03-03T10:40:26.000Z</time>
      </trkpt>
      <trkpt lat="44.15138" lon="6.0876">
        <ele>1231</ele>
        <time>2022-03-03T10:40:27.000Z</time>
      </trkpt>
      <trkpt lat="44.15138" lon="6.0876">
        <ele>1231</ele>
        <time>2022-03-03T10:40:28.000Z</time>
      </trkpt>
      <trkpt lat="44.15138" lon="6.0876">
        <ele>1231</ele>
        <time>2022-03-03T10:40:29.000Z</time>
      </trkpt>
      <trkpt lat="44.15138" lon="6.0876">
        <ele>1231</ele>
        <time>2022-03-03T10:40:30.000Z</time>
      </trkpt>
      <trkpt lat="44.15139" lon="6.0876">
        <ele>1231</ele>
        <time>2022-03-03T10:40:31.000Z</time>
      </trkpt>
      <trkpt lat="44.15139" lon="6.0876">
        <ele>1231</ele>
        <time>2022-03-03T10:40:32.000Z</time>
      </trkpt>
      <trkpt lat="44.15139" lon="6.0876">
        <ele>1231</ele>
        <time>2022-03-03T10:40:33.000Z</time>
      </trkpt>
      <trkpt lat="44.15139" lon="6.0876">
        <ele>1231</ele>
        <time>2022-03-03T10:40:34.000Z</time>
      </trkpt>
      <trkpt lat="44.15139" lon="6.0876">
        <ele>1231</ele>
        <time>2022-03-03T10:40:35.000Z</time>
      </trkpt>
      <trkpt lat="44.15139" lon="6.0876">
        <ele>1231</ele>
        <time>2022-03-03T10:40:36.000Z</time>
      </trkpt>
      <trkpt lat="44.15139" lon="6.0876">
        <ele>1231</ele>
        <time>2022-03-03T10:40:37.000Z</time>
      </trkpt>
      <trkpt lat="44.15139" lon="6.0876">
        <ele>1231</ele>
        <time>2022-03-03T10:40:38.000Z</time>
      </trkpt>
      <trkpt lat="44.15139" lon="6.0876">
        <ele>1231</ele>
        <time>2022-03-03T10:40:39.000Z</time>
      </trkpt>
      <trkpt lat="44.15139" lon="6.0876">
        <ele>1231</ele>
        <time>2022-03-03T10:40:40.000Z</time>
      </trkpt>
      <trkpt lat="44.15139" lon="6.0876">
        <ele>1231</ele>
        <time>2022-03-03T10:40:41.000Z</time>
      </trkpt>
      <trkpt lat="44.15139" lon="6.0876">
        <ele>1231</ele>
        <time>2022-03-03T10:40:42.000Z</time>
      </trkpt>
      <trkpt lat="44.15139" lon="6.0876">
        <ele>1231</ele>
        <time>2022-03-03T10:40:43.000Z</time>
      </trkpt>
      <trkpt lat="44.15139" lon="6.0876">
        <ele>1231</ele>
        <time>2022-03-03T10:40:44.000Z</time>
      </trkpt>
      <trkpt lat="44.15139" lon="6.0876">
        <ele>1231</ele>
        <time>2022-03-03T10:40:45.000Z</time>
      </trkpt>
      <trkpt lat="44.15139" lon="6.0876">
        <ele>1231</ele>
        <time>2022-03-03T10:40:46.000Z</time>
      </trkpt>
      <trkpt lat="44.15139" lon="6.0876">
        <ele>1231</ele>
        <time>2022-03-03T10:40:47.000Z</time>
      </trkpt>
      <trkpt lat="44.15139" lon="6.0876">
        <ele>1231</ele>
        <time>2022-03-03T10:40:48.000Z</time>
      </trkpt>
      <trkpt lat="44.15139" lon="6.0876">
        <ele>1231</ele>
        <time>2022-03-03T10:40:49.000Z</time>
      </trkpt>
      <trkpt lat="44.15139" lon="6.0876">
        <ele>1231</ele>
        <time>2022-03-03T10:40:50.000Z</time>
      </trkpt>
      <trkpt lat="44.15139" lon="6.0876">
        <ele>1231</ele>
        <time>2022-03-03T10:40:51.000Z</time>
      </trkpt>
      <trkpt lat="44.15139" lon="6.0876">
        <ele>1231</ele>
        <time>2022-03-03T10:40:52.000Z</time>
      </trkpt>
      <trkpt lat="44.15139" lon="6.0876">
        <ele>1231</ele>
        <time>2022-03-03T10:40:53.000Z</time>
      </trkpt>
      <trkpt lat="44.15139" lon="6.0876">
        <ele>1231</ele>
        <time>2022-03-03T10:40:54.000Z</time>
      </trkpt>
      <trkpt lat="44.15139" lon="6.0876">
        <ele>1231</ele>
        <time>2022-03-03T10:40:55.000Z</time>
      </trkpt>
      <trkpt lat="44.15139" lon="6.0876">
        <ele>1231</ele>
        <time>2022-03-03T10:40:56.000Z</time>
      </trkpt>
      <trkpt lat="44.15139" lon="6.0876">
        <ele>1231</ele>
        <time>2022-03-03T10:40:57.000Z</time>
      </trkpt>
      <trkpt lat="44.15139" lon="6.0876">
        <ele>1231</ele>
        <time>2022-03-03T10:40:58.000Z</time>
      </trkpt>
      <trkpt lat="44.15139" lon="6.0876">
        <ele>1231</ele>
        <time>2022-03-03T10:40:59.000Z</time>
      </trkpt>
      <trkpt lat="44.15139" lon="6.0876">
        <ele>1231</ele>
        <time>2022-03-03T10:41:00.000Z</time>
      </trkpt>
      <trkpt lat="44.15139" lon="6.0876">
        <ele>1231</ele>
        <time>2022-03-03T10:41:01.000Z</time>
      </trkpt>
      <trkpt lat="44.15139" lon="6.0876">
        <ele>1231</ele>
        <time>2022-03-03T10:41:02.000Z</time>
      </trkpt>
      <trkpt lat="44.15139" lon="6.0876">
        <ele>1231</ele>
        <time>2022-03-03T10:41:03.000Z</time>
      </trkpt>
      <trkpt lat="44.15139" lon="6.0876">
        <ele>1231</ele>
        <time>2022-03-03T10:41:04.000Z</time>
      </trkpt>
      <trkpt lat="44.15139" lon="6.0876">
        <ele>1231</ele>
        <time>2022-03-03T10:41:05.000Z</time>
      </trkpt>
      <trkpt lat="44.15139" lon="6.0876">
        <ele>1231</ele>
        <time>2022-03-03T10:41:06.000Z</time>
      </trkpt>
      <trkpt lat="44.15139" lon="6.0876">
        <ele>1231</ele>
        <time>2022-03-03T10:41:07.000Z</time>
      </trkpt>
      <trkpt lat="44.15139" lon="6.0876">
        <ele>1231</ele>
        <time>2022-03-03T10:41:08.000Z</time>
      </trkpt>
      <trkpt lat="44.15139" lon="6.0876">
        <ele>1231</ele>
        <time>2022-03-03T10:41:09.000Z</time>
      </trkpt>
      <trkpt lat="44.15139" lon="6.0876">
        <ele>1231</ele>
        <time>2022-03-03T10:41:10.000Z</time>
      </trkpt>
      <trkpt lat="44.15139" lon="6.0876">
        <ele>1231</ele>
        <time>2022-03-03T10:41:11.000Z</time>
      </trkpt>
      <trkpt lat="44.15139" lon="6.0876">
        <ele>1231</ele>
        <time>2022-03-03T10:41:12.000Z</time>
      </trkpt>
      <trkpt lat="44.15139" lon="6.0876">
        <ele>1231</ele>
        <time>2022-03-03T10:41:13.000Z</time>
      </trkpt>
      <trkpt lat="44.15139" lon="6.0876">
        <ele>1231</ele>
        <time>2022-03-03T10:41:14.000Z</time>
      </trkpt>
      <trkpt lat="44.15139" lon="6.0876">
        <ele>1231</ele>
        <time>2022-03-03T10:41:15.000Z</time>
      </trkpt>
      <trkpt lat="44.15139" lon="6.0876">
        <ele>1231</ele>
        <time>2022-03-03T10:41:16.000Z</time>
      </trkpt>
      <trkpt lat="44.15139" lon="6.0876">
        <ele>1231</ele>
        <time>2022-03-03T10:41:17.000Z</time>
      </trkpt>
      <trkpt lat="44.15139" lon="6.0876">
        <ele>1231</ele>
        <time>2022-03-03T10:41:18.000Z</time>
      </trkpt>
      <trkpt lat="44.15139" lon="6.0876">
        <ele>1231</ele>
        <time>2022-03-03T10:41:19.000Z</time>
      </trkpt>
      <trkpt lat="44.15139" lon="6.0876">
        <ele>1231</ele>
        <time>2022-03-03T10:41:20.000Z</time>
      </trkpt>
      <trkpt lat="44.15139" lon="6.0876">
        <ele>1231</ele>
        <time>2022-03-03T10:41:21.000Z</time>
      </trkpt>
      <trkpt lat="44.15139" lon="6.0876">
        <ele>1231</ele>
        <time>2022-03-03T10:41:22.000Z</time>
      </trkpt>
      <trkpt lat="44.15139" lon="6.0876">
        <ele>1231</ele>
        <time>2022-03-03T10:41:23.000Z</time>
      </trkpt>
      <trkpt lat="44.15139" lon="6.0876">
        <ele>1231</ele>
        <time>2022-03-03T10:41:24.000Z</time>
      </trkpt>
      <trkpt lat="44.15139" lon="6.0876">
        <ele>1231</ele>
        <time>2022-03-03T10:41:25.000Z</time>
      </trkpt>
      <trkpt lat="44.15139" lon="6.0876">
        <ele>1231</ele>
        <time>2022-03-03T10:41:26.000Z</time>
      </trkpt>
      <trkpt lat="44.15139" lon="6.0876">
        <ele>1231</ele>
        <time>2022-03-03T10:41:27.000Z</time>
      </trkpt>
      <trkpt lat="44.15139" lon="6.0876">
        <ele>1231</ele>
        <time>2022-03-03T10:41:28.000Z</time>
      </trkpt>
      <trkpt lat="44.15139" lon="6.0876">
        <ele>1231</ele>
        <time>2022-03-03T10:41:29.000Z</time>
      </trkpt>
      <trkpt lat="44.15139" lon="6.0876">
        <ele>1231</ele>
        <time>2022-03-03T10:41:30.000Z</time>
      </trkpt>
      <trkpt lat="44.15139" lon="6.0876">
        <ele>1231</ele>
        <time>2022-03-03T10:41:31.000Z</time>
      </trkpt>
      <trkpt lat="44.15139" lon="6.0876">
        <ele>1231</ele>
        <time>2022-03-03T10:41:32.000Z</time>
      </trkpt>
      <trkpt lat="44.15139" lon="6.0876">
        <ele>1231</ele>
        <time>2022-03-03T10:41:33.000Z</time>
      </trkpt>
      <trkpt lat="44.15139" lon="6.0876">
        <ele>1231</ele>
        <time>2022-03-03T10:41:34.000Z</time>
      </trkpt>
      <trkpt lat="44.15139" lon="6.0876">
        <ele>1231</ele>
        <time>2022-03-03T10:41:35.000Z</time>
      </trkpt>
      <trkpt lat="44.15139" lon="6.0876">
        <ele>1231</ele>
        <time>2022-03-03T10:41:36.000Z</time>
      </trkpt>
      <trkpt lat="44.15139" lon="6.0876">
        <ele>1231</ele>
        <time>2022-03-03T10:41:37.000Z</time>
      </trkpt>
      <trkpt lat="44.15139" lon="6.0876">
        <ele>1231</ele>
        <time>2022-03-03T10:41:38.000Z</time>
      </trkpt>
      <trkpt lat="44.15139" lon="6.0876">
        <ele>1231</ele>
        <time>2022-03-03T10:41:39.000Z</time>
      </trkpt>
      <trkpt lat="44.15139" lon="6.0876">
        <ele>1231</ele>
        <time>2022-03-03T10:41:40.000Z</time>
      </trkpt>
      <trkpt lat="44.15139" lon="6.0876">
        <ele>1231</ele>
        <time>2022-03-03T10:41:41.000Z</time>
      </trkpt>
      <trkpt lat="44.15139" lon="6.0876">
        <ele>1231</ele>
        <time>2022-03-03T10:41:42.000Z</time>
      </trkpt>
      <trkpt lat="44.15139" lon="6.08759">
        <ele>1231</ele>
        <time>2022-03-03T10:41:43.000Z</time>
      </trkpt>
      <trkpt lat="44.1514" lon="6.08759">
        <ele>1231</ele>
        <time>2022-03-03T10:41:44.000Z</time>
      </trkpt>
      <trkpt lat="44.1514" lon="6.08759">
        <ele>1231</ele>
        <time>2022-03-03T10:41:45.000Z</time>
      </trkpt>
      <trkpt lat="44.1514" lon="6.08759">
        <ele>1231</ele>
        <time>2022-03-03T10:41:46.000Z</time>
      </trkpt>
      <trkpt lat="44.1514" lon="6.08759">
        <ele>1231</ele>
        <time>2022-03-03T10:41:47.000Z</time>
      </trkpt>
      <trkpt lat="44.1514" lon="6.08759">
        <ele>1231</ele>
        <time>2022-03-03T10:41:48.000Z</time>
      </trkpt>
      <trkpt lat="44.1514" lon="6.08759">
        <ele>1231</ele>
        <time>2022-03-03T10:41:49.000Z</time>
      </trkpt>
      <trkpt lat="44.1514" lon="6.08759">
        <ele>1231</ele>
        <time>2022-03-03T10:41:50.000Z</time>
      </trkpt>
      <trkpt lat="44.1514" lon="6.08759">
        <ele>1231</ele>
        <time>2022-03-03T10:41:51.000Z</time>
      </trkpt>
      <trkpt lat="44.1514" lon="6.08759">
        <ele>1232</ele>
        <time>2022-03-03T10:41:52.000Z</time>
      </trkpt>
      <trkpt lat="44.1514" lon="6.08759">
        <ele>1231</ele>
        <time>2022-03-03T10:41:53.000Z</time>
      </trkpt>
      <trkpt lat="44.1514" lon="6.08759">
        <ele>1231</ele>
        <time>2022-03-03T10:41:54.000Z</time>
      </trkpt>
      <trkpt lat="44.1514" lon="6.08759">
        <ele>1232</ele>
        <time>2022-03-03T10:41:55.000Z</time>
      </trkpt>
      <trkpt lat="44.1514" lon="6.08759">
        <ele>1232</ele>
        <time>2022-03-03T10:41:56.000Z</time>
      </trkpt>
      <trkpt lat="44.1514" lon="6.08759">
        <ele>1232</ele>
        <time>2022-03-03T10:41:57.000Z</time>
      </trkpt>
      <trkpt lat="44.1514" lon="6.08759">
        <ele>1232</ele>
        <time>2022-03-03T10:41:58.000Z</time>
      </trkpt>
      <trkpt lat="44.1514" lon="6.08759">
        <ele>1232</ele>
        <time>2022-03-03T10:41:59.000Z</time>
      </trkpt>
      <trkpt lat="44.1514" lon="6.08759">
        <ele>1232</ele>
        <time>2022-03-03T10:42:00.000Z</time>
      </trkpt>
      <trkpt lat="44.1514" lon="6.08759">
        <ele>1232</ele>
        <time>2022-03-03T10:42:01.000Z</time>
      </trkpt>
      <trkpt lat="44.1514" lon="6.08759">
        <ele>1232</ele>
        <time>2022-03-03T10:42:02.000Z</time>
      </trkpt>
      <trkpt lat="44.1514" lon="6.08759">
        <ele>1232</ele>
        <time>2022-03-03T10:42:03.000Z</time>
      </trkpt>
      <trkpt lat="44.1514" lon="6.08759">
        <ele>1232</ele>
        <time>2022-03-03T10:42:04.000Z</time>
      </trkpt>
      <trkpt lat="44.1514" lon="6.08758">
        <ele>1232</ele>
        <time>2022-03-03T10:42:05.000Z</time>
      </trkpt>
      <trkpt lat="44.15141" lon="6.08757">
        <ele>1232</ele>
        <time>2022-03-03T10:42:06.000Z</time>
      </trkpt>
      <trkpt lat="44.15142" lon="6.08757">
        <ele>1232</ele>
        <time>2022-03-03T10:42:07.000Z</time>
      </trkpt>
      <trkpt lat="44.15142" lon="6.08756">
        <ele>1232</ele>
        <time>2022-03-03T10:42:08.000Z</time>
      </trkpt>
      <trkpt lat="44.15143" lon="6.08755">
        <ele>1232</ele>
        <time>2022-03-03T10:42:09.000Z</time>
      </trkpt>
      <trkpt lat="44.15144" lon="6.08754">
        <ele>1232</ele>
        <time>2022-03-03T10:42:10.000Z</time>
      </trkpt>
      <trkpt lat="44.15145" lon="6.08753">
        <ele>1232</ele>
        <time>2022-03-03T10:42:11.000Z</time>
      </trkpt>
      <trkpt lat="44.15146" lon="6.08752">
        <ele>1232</ele>
        <time>2022-03-03T10:42:12.000Z</time>
      </trkpt>
      <trkpt lat="44.15147" lon="6.08752">
        <ele>1232</ele>
        <time>2022-03-03T10:42:13.000Z</time>
      </trkpt>
      <trkpt lat="44.15147" lon="6.08751">
        <ele>1232</ele>
        <time>2022-03-03T10:42:14.000Z</time>
      </trkpt>
      <trkpt lat="44.15148" lon="6.08751">
        <ele>1232</ele>
        <time>2022-03-03T10:42:15.000Z</time>
      </trkpt>
      <trkpt lat="44.15149" lon="6.0875">
        <ele>1232</ele>
        <time>2022-03-03T10:42:16.000Z</time>
      </trkpt>
      <trkpt lat="44.15149" lon="6.08749">
        <ele>1231</ele>
        <time>2022-03-03T10:42:17.000Z</time>
      </trkpt>
      <trkpt lat="44.1515" lon="6.08748">
        <ele>1231</ele>
        <time>2022-03-03T10:42:18.000Z</time>
      </trkpt>
      <trkpt lat="44.15151" lon="6.08747">
        <ele>1231</ele>
        <time>2022-03-03T10:42:19.000Z</time>
      </trkpt>
      <trkpt lat="44.15152" lon="6.08746">
        <ele>1231</ele>
        <time>2022-03-03T10:42:20.000Z</time>
      </trkpt>
      <trkpt lat="44.15152" lon="6.08745">
        <ele>1231</ele>
        <time>2022-03-03T10:42:21.000Z</time>
      </trkpt>
      <trkpt lat="44.15153" lon="6.08744">
        <ele>1231</ele>
        <time>2022-03-03T10:42:22.000Z</time>
      </trkpt>
      <trkpt lat="44.15154" lon="6.08744">
        <ele>1231</ele>
        <time>2022-03-03T10:42:23.000Z</time>
      </trkpt>
      <trkpt lat="44.15155" lon="6.08743">
        <ele>1231</ele>
        <time>2022-03-03T10:42:24.000Z</time>
      </trkpt>
      <trkpt lat="44.15156" lon="6.08742">
        <ele>1231</ele>
        <time>2022-03-03T10:42:25.000Z</time>
      </trkpt>
      <trkpt lat="44.15156" lon="6.08741">
        <ele>1231</ele>
        <time>2022-03-03T10:42:26.000Z</time>
      </trkpt>
      <trkpt lat="44.15157" lon="6.08741">
        <ele>1230</ele>
        <time>2022-03-03T10:42:27.000Z</time>
      </trkpt>
      <trkpt lat="44.15157" lon="6.0874">
        <ele>1230</ele>
        <time>2022-03-03T10:42:28.000Z</time>
      </trkpt>
      <trkpt lat="44.15158" lon="6.08739">
        <ele>1230</ele>
        <time>2022-03-03T10:42:29.000Z</time>
      </trkpt>
      <trkpt lat="44.15159" lon="6.08738">
        <ele>1230</ele>
        <time>2022-03-03T10:42:30.000Z</time>
      </trkpt>
      <trkpt lat="44.1516" lon="6.08738">
        <ele>1230</ele>
        <time>2022-03-03T10:42:31.000Z</time>
      </trkpt>
      <trkpt lat="44.1516" lon="6.08737">
        <ele>1230</ele>
        <time>2022-03-03T10:42:32.000Z</time>
      </trkpt>
      <trkpt lat="44.15161" lon="6.08736">
        <ele>1230</ele>
        <time>2022-03-03T10:42:33.000Z</time>
      </trkpt>
      <trkpt lat="44.15162" lon="6.08735">
        <ele>1230</ele>
        <time>2022-03-03T10:42:34.000Z</time>
      </trkpt>
      <trkpt lat="44.15162" lon="6.08735">
        <ele>1229</ele>
        <time>2022-03-03T10:42:35.000Z</time>
      </trkpt>
      <trkpt lat="44.15163" lon="6.08734">
        <ele>1229</ele>
        <time>2022-03-03T10:42:36.000Z</time>
      </trkpt>
      <trkpt lat="44.15164" lon="6.08733">
        <ele>1229</ele>
        <time>2022-03-03T10:42:37.000Z</time>
      </trkpt>
      <trkpt lat="44.15164" lon="6.08732">
        <ele>1229</ele>
        <time>2022-03-03T10:42:38.000Z</time>
      </trkpt>
      <trkpt lat="44.15165" lon="6.08732">
        <ele>1229</ele>
        <time>2022-03-03T10:42:39.000Z</time>
      </trkpt>
      <trkpt lat="44.15166" lon="6.08731">
        <ele>1229</ele>
        <time>2022-03-03T10:42:40.000Z</time>
      </trkpt>
      <trkpt lat="44.15167" lon="6.0873">
        <ele>1228</ele>
        <time>2022-03-03T10:42:41.000Z</time>
      </trkpt>
      <trkpt lat="44.15167" lon="6.08729">
        <ele>1228</ele>
        <time>2022-03-03T10:42:42.000Z</time>
      </trkpt>
      <trkpt lat="44.15168" lon="6.08728">
        <ele>1228</ele>
        <time>2022-03-03T10:42:43.000Z</time>
      </trkpt>
      <trkpt lat="44.15169" lon="6.08727">
        <ele>1228</ele>
        <time>2022-03-03T10:42:44.000Z</time>
      </trkpt>
      <trkpt lat="44.1517" lon="6.08727">
        <ele>1228</ele>
        <time>2022-03-03T10:42:45.000Z</time>
      </trkpt>
      <trkpt lat="44.1517" lon="6.08726">
        <ele>1227</ele>
        <time>2022-03-03T10:42:46.000Z</time>
      </trkpt>
      <trkpt lat="44.15171" lon="6.08725">
        <ele>1227</ele>
        <time>2022-03-03T10:42:47.000Z</time>
      </trkpt>
      <trkpt lat="44.15172" lon="6.08724">
        <ele>1227</ele>
        <time>2022-03-03T10:42:48.000Z</time>
      </trkpt>
      <trkpt lat="44.15173" lon="6.08723">
        <ele>1227</ele>
        <time>2022-03-03T10:42:49.000Z</time>
      </trkpt>
      <trkpt lat="44.15174" lon="6.08722">
        <ele>1227</ele>
        <time>2022-03-03T10:42:50.000Z</time>
      </trkpt>
      <trkpt lat="44.15175" lon="6.08722">
        <ele>1226</ele>
        <time>2022-03-03T10:42:51.000Z</time>
      </trkpt>
      <trkpt lat="44.15176" lon="6.08721">
        <ele>1226</ele>
        <time>2022-03-03T10:42:52.000Z</time>
      </trkpt>
      <trkpt lat="44.15177" lon="6.0872">
        <ele>1226</ele>
        <time>2022-03-03T10:42:53.000Z</time>
      </trkpt>
      <trkpt lat="44.15178" lon="6.08719">
        <ele>1226</ele>
        <time>2022-03-03T10:42:54.000Z</time>
      </trkpt>
      <trkpt lat="44.15179" lon="6.08719">
        <ele>1226</ele>
        <time>2022-03-03T10:42:55.000Z</time>
      </trkpt>
      <trkpt lat="44.1518" lon="6.08718">
        <ele>1226</ele>
        <time>2022-03-03T10:42:56.000Z</time>
      </trkpt>
      <trkpt lat="44.15181" lon="6.08718">
        <ele>1226</ele>
        <time>2022-03-03T10:42:57.000Z</time>
      </trkpt>
      <trkpt lat="44.15181" lon="6.08717">
        <ele>1226</ele>
        <time>2022-03-03T10:42:58.000Z</time>
      </trkpt>
      <trkpt lat="44.15183" lon="6.08716">
        <ele>1226</ele>
        <time>2022-03-03T10:42:59.000Z</time>
      </trkpt>
      <trkpt lat="44.15184" lon="6.08716">
        <ele>1226</ele>
        <time>2022-03-03T10:43:00.000Z</time>
      </trkpt>
      <trkpt lat="44.15185" lon="6.08716">
        <ele>1226</ele>
        <time>2022-03-03T10:43:01.000Z</time>
      </trkpt>
      <trkpt lat="44.15186" lon="6.08715">
        <ele>1226</ele>
        <time>2022-03-03T10:43:02.000Z</time>
      </trkpt>
      <trkpt lat="44.15186" lon="6.08714">
        <ele>1226</ele>
        <time>2022-03-03T10:43:03.000Z</time>
      </trkpt>
      <trkpt lat="44.15187" lon="6.08714">
        <ele>1226</ele>
        <time>2022-03-03T10:43:04.000Z</time>
      </trkpt>
      <trkpt lat="44.15188" lon="6.08713">
        <ele>1226</ele>
        <time>2022-03-03T10:43:05.000Z</time>
      </trkpt>
      <trkpt lat="44.15189" lon="6.08712">
        <ele>1226</ele>
        <time>2022-03-03T10:43:06.000Z</time>
      </trkpt>
      <trkpt lat="44.15189" lon="6.08712">
        <ele>1226</ele>
        <time>2022-03-03T10:43:07.000Z</time>
      </trkpt>
      <trkpt lat="44.1519" lon="6.08711">
        <ele>1226</ele>
        <time>2022-03-03T10:43:08.000Z</time>
      </trkpt>
      <trkpt lat="44.15191" lon="6.08711">
        <ele>1226</ele>
        <time>2022-03-03T10:43:09.000Z</time>
      </trkpt>
      <trkpt lat="44.15192" lon="6.0871">
        <ele>1225</ele>
        <time>2022-03-03T10:43:10.000Z</time>
      </trkpt>
      <trkpt lat="44.15193" lon="6.0871">
        <ele>1225</ele>
        <time>2022-03-03T10:43:11.000Z</time>
      </trkpt>
      <trkpt lat="44.15194" lon="6.08709">
        <ele>1225</ele>
        <time>2022-03-03T10:43:12.000Z</time>
      </trkpt>
      <trkpt lat="44.15194" lon="6.08709">
        <ele>1225</ele>
        <time>2022-03-03T10:43:13.000Z</time>
      </trkpt>
      <trkpt lat="44.15195" lon="6.08708">
        <ele>1225</ele>
        <time>2022-03-03T10:43:14.000Z</time>
      </trkpt>
      <trkpt lat="44.15196" lon="6.08707">
        <ele>1225</ele>
        <time>2022-03-03T10:43:15.000Z</time>
      </trkpt>
      <trkpt lat="44.15196" lon="6.08707">
        <ele>1225</ele>
        <time>2022-03-03T10:43:16.000Z</time>
      </trkpt>
      <trkpt lat="44.15197" lon="6.08706">
        <ele>1225</ele>
        <time>2022-03-03T10:43:17.000Z</time>
      </trkpt>
      <trkpt lat="44.15198" lon="6.08706">
        <ele>1225</ele>
        <time>2022-03-03T10:43:18.000Z</time>
      </trkpt>
      <trkpt lat="44.15199" lon="6.08705">
        <ele>1225</ele>
        <time>2022-03-03T10:43:19.000Z</time>
      </trkpt>
      <trkpt lat="44.152" lon="6.08705">
        <ele>1225</ele>
        <time>2022-03-03T10:43:20.000Z</time>
      </trkpt>
      <trkpt lat="44.15201" lon="6.08704">
        <ele>1225</ele>
        <time>2022-03-03T10:43:21.000Z</time>
      </trkpt>
      <trkpt lat="44.15201" lon="6.08704">
        <ele>1225</ele>
        <time>2022-03-03T10:43:22.000Z</time>
      </trkpt>
      <trkpt lat="44.15203" lon="6.08704">
        <ele>1224</ele>
        <time>2022-03-03T10:43:23.000Z</time>
      </trkpt>
      <trkpt lat="44.15204" lon="6.08703">
        <ele>1224</ele>
        <time>2022-03-03T10:43:24.000Z</time>
      </trkpt>
      <trkpt lat="44.15205" lon="6.08703">
        <ele>1224</ele>
        <time>2022-03-03T10:43:25.000Z</time>
      </trkpt>
      <trkpt lat="44.15206" lon="6.08702">
        <ele>1224</ele>
        <time>2022-03-03T10:43:26.000Z</time>
      </trkpt>
      <trkpt lat="44.15207" lon="6.08701">
        <ele>1224</ele>
        <time>2022-03-03T10:43:27.000Z</time>
      </trkpt>
      <trkpt lat="44.15208" lon="6.08701">
        <ele>1224</ele>
        <time>2022-03-03T10:43:28.000Z</time>
      </trkpt>
      <trkpt lat="44.15209" lon="6.087">
        <ele>1224</ele>
        <time>2022-03-03T10:43:29.000Z</time>
      </trkpt>
      <trkpt lat="44.1521" lon="6.087">
        <ele>1224</ele>
        <time>2022-03-03T10:43:30.000Z</time>
      </trkpt>
      <trkpt lat="44.15211" lon="6.08699">
        <ele>1224</ele>
        <time>2022-03-03T10:43:31.000Z</time>
      </trkpt>
      <trkpt lat="44.15212" lon="6.08698">
        <ele>1224</ele>
        <time>2022-03-03T10:43:32.000Z</time>
      </trkpt>
      <trkpt lat="44.15213" lon="6.08697">
        <ele>1224</ele>
        <time>2022-03-03T10:43:33.000Z</time>
      </trkpt>
      <trkpt lat="44.15214" lon="6.08697">
        <ele>1224</ele>
        <time>2022-03-03T10:43:34.000Z</time>
      </trkpt>
      <trkpt lat="44.15215" lon="6.08696">
        <ele>1224</ele>
        <time>2022-03-03T10:43:35.000Z</time>
      </trkpt>
      <trkpt lat="44.15215" lon="6.08695">
        <ele>1224</ele>
        <time>2022-03-03T10:43:36.000Z</time>
      </trkpt>
      <trkpt lat="44.15216" lon="6.08694">
        <ele>1224</ele>
        <time>2022-03-03T10:43:37.000Z</time>
      </trkpt>
      <trkpt lat="44.15217" lon="6.08693">
        <ele>1224</ele>
        <time>2022-03-03T10:43:38.000Z</time>
      </trkpt>
      <trkpt lat="44.15218" lon="6.08692">
        <ele>1224</ele>
        <time>2022-03-03T10:43:39.000Z</time>
      </trkpt>
      <trkpt lat="44.15219" lon="6.08692">
        <ele>1224</ele>
        <time>2022-03-03T10:43:40.000Z</time>
      </trkpt>
      <trkpt lat="44.1522" lon="6.08691">
        <ele>1224</ele>
        <time>2022-03-03T10:43:41.000Z</time>
      </trkpt>
      <trkpt lat="44.15221" lon="6.0869">
        <ele>1224</ele>
        <time>2022-03-03T10:43:42.000Z</time>
      </trkpt>
      <trkpt lat="44.15222" lon="6.08689">
        <ele>1224</ele>
        <time>2022-03-03T10:43:43.000Z</time>
      </trkpt>
      <trkpt lat="44.15223" lon="6.08688">
        <ele>1224</ele>
        <time>2022-03-03T10:43:44.000Z</time>
      </trkpt>
      <trkpt lat="44.15224" lon="6.08688">
        <ele>1224</ele>
        <time>2022-03-03T10:43:45.000Z</time>
      </trkpt>
      <trkpt lat="44.15225" lon="6.08687">
        <ele>1224</ele>
        <time>2022-03-03T10:43:46.000Z</time>
      </trkpt>
      <trkpt lat="44.15226" lon="6.08686">
        <ele>1224</ele>
        <time>2022-03-03T10:43:47.000Z</time>
      </trkpt>
      <trkpt lat="44.15228" lon="6.08685">
        <ele>1224</ele>
        <time>2022-03-03T10:43:48.000Z</time>
      </trkpt>
      <trkpt lat="44.15229" lon="6.08685">
        <ele>1224</ele>
        <time>2022-03-03T10:43:49.000Z</time>
      </trkpt>
      <trkpt lat="44.1523" lon="6.08684">
        <ele>1224</ele>
        <time>2022-03-03T10:43:50.000Z</time>
      </trkpt>
      <trkpt lat="44.15231" lon="6.08683">
        <ele>1224</ele>
        <time>2022-03-03T10:43:51.000Z</time>
      </trkpt>
      <trkpt lat="44.15232" lon="6.08682">
        <ele>1224</ele>
        <time>2022-03-03T10:43:52.000Z</time>
      </trkpt>
      <trkpt lat="44.15233" lon="6.08682">
        <ele>1224</ele>
        <time>2022-03-03T10:43:53.000Z</time>
      </trkpt>
      <trkpt lat="44.15234" lon="6.08682">
        <ele>1224</ele>
        <time>2022-03-03T10:43:54.000Z</time>
      </trkpt>
      <trkpt lat="44.15235" lon="6.08681">
        <ele>1224</ele>
        <time>2022-03-03T10:43:55.000Z</time>
      </trkpt>
      <trkpt lat="44.15236" lon="6.0868">
        <ele>1224</ele>
        <time>2022-03-03T10:43:56.000Z</time>
      </trkpt>
      <trkpt lat="44.15237" lon="6.0868">
        <ele>1224</ele>
        <time>2022-03-03T10:43:57.000Z</time>
      </trkpt>
      <trkpt lat="44.15238" lon="6.08679">
        <ele>1224</ele>
        <time>2022-03-03T10:43:58.000Z</time>
      </trkpt>
      <trkpt lat="44.15239" lon="6.08679">
        <ele>1224</ele>
        <time>2022-03-03T10:43:59.000Z</time>
      </trkpt>
      <trkpt lat="44.15241" lon="6.08678">
        <ele>1224</ele>
        <time>2022-03-03T10:44:00.000Z</time>
      </trkpt>
      <trkpt lat="44.15242" lon="6.08678">
        <ele>1224</ele>
        <time>2022-03-03T10:44:01.000Z</time>
      </trkpt>
      <trkpt lat="44.15243" lon="6.08678">
        <ele>1223</ele>
        <time>2022-03-03T10:44:02.000Z</time>
      </trkpt>
      <trkpt lat="44.15244" lon="6.08677">
        <ele>1223</ele>
        <time>2022-03-03T10:44:03.000Z</time>
      </trkpt>
      <trkpt lat="44.15245" lon="6.08677">
        <ele>1223</ele>
        <time>2022-03-03T10:44:04.000Z</time>
      </trkpt>
      <trkpt lat="44.15246" lon="6.08677">
        <ele>1223</ele>
        <time>2022-03-03T10:44:05.000Z</time>
      </trkpt>
      <trkpt lat="44.15247" lon="6.08677">
        <ele>1224</ele>
        <time>2022-03-03T10:44:06.000Z</time>
      </trkpt>
      <trkpt lat="44.15249" lon="6.08676">
        <ele>1224</ele>
        <time>2022-03-03T10:44:07.000Z</time>
      </trkpt>
      <trkpt lat="44.1525" lon="6.08676">
        <ele>1224</ele>
        <time>2022-03-03T10:44:08.000Z</time>
      </trkpt>
      <trkpt lat="44.15251" lon="6.08676">
        <ele>1224</ele>
        <time>2022-03-03T10:44:09.000Z</time>
      </trkpt>
      <trkpt lat="44.15252" lon="6.08675">
        <ele>1224</ele>
        <time>2022-03-03T10:44:10.000Z</time>
      </trkpt>
      <trkpt lat="44.15253" lon="6.08675">
        <ele>1224</ele>
        <time>2022-03-03T10:44:11.000Z</time>
      </trkpt>
      <trkpt lat="44.15254" lon="6.08675">
        <ele>1224</ele>
        <time>2022-03-03T10:44:12.000Z</time>
      </trkpt>
      <trkpt lat="44.15255" lon="6.08674">
        <ele>1224</ele>
        <time>2022-03-03T10:44:13.000Z</time>
      </trkpt>
      <trkpt lat="44.15256" lon="6.08674">
        <ele>1224</ele>
        <time>2022-03-03T10:44:14.000Z</time>
      </trkpt>
      <trkpt lat="44.15257" lon="6.08673">
        <ele>1224</ele>
        <time>2022-03-03T10:44:15.000Z</time>
      </trkpt>
      <trkpt lat="44.15258" lon="6.08673">
        <ele>1224</ele>
        <time>2022-03-03T10:44:16.000Z</time>
      </trkpt>
      <trkpt lat="44.15259" lon="6.08672">
        <ele>1224</ele>
        <time>2022-03-03T10:44:17.000Z</time>
      </trkpt>
      <trkpt lat="44.1526" lon="6.08672">
        <ele>1224</ele>
        <time>2022-03-03T10:44:18.000Z</time>
      </trkpt>
      <trkpt lat="44.15261" lon="6.08671">
        <ele>1224</ele>
        <time>2022-03-03T10:44:19.000Z</time>
      </trkpt>
      <trkpt lat="44.15262" lon="6.08671">
        <ele>1224</ele>
        <time>2022-03-03T10:44:20.000Z</time>
      </trkpt>
      <trkpt lat="44.15263" lon="6.0867">
        <ele>1224</ele>
        <time>2022-03-03T10:44:21.000Z</time>
      </trkpt>
      <trkpt lat="44.15264" lon="6.0867">
        <ele>1224</ele>
        <time>2022-03-03T10:44:22.000Z</time>
      </trkpt>
      <trkpt lat="44.15265" lon="6.08669">
        <ele>1224</ele>
        <time>2022-03-03T10:44:23.000Z</time>
      </trkpt>
      <trkpt lat="44.15266" lon="6.08669">
        <ele>1224</ele>
        <time>2022-03-03T10:44:24.000Z</time>
      </trkpt>
      <trkpt lat="44.15266" lon="6.08668">
        <ele>1224</ele>
        <time>2022-03-03T10:44:25.000Z</time>
      </trkpt>
      <trkpt lat="44.15268" lon="6.08667">
        <ele>1224</ele>
        <time>2022-03-03T10:44:26.000Z</time>
      </trkpt>
      <trkpt lat="44.15269" lon="6.08667">
        <ele>1224</ele>
        <time>2022-03-03T10:44:27.000Z</time>
      </trkpt>
      <trkpt lat="44.15269" lon="6.08666">
        <ele>1223</ele>
        <time>2022-03-03T10:44:28.000Z</time>
      </trkpt>
      <trkpt lat="44.1527" lon="6.08666">
        <ele>1223</ele>
        <time>2022-03-03T10:44:29.000Z</time>
      </trkpt>
      <trkpt lat="44.15271" lon="6.08665">
        <ele>1223</ele>
        <time>2022-03-03T10:44:30.000Z</time>
      </trkpt>
      <trkpt lat="44.15272" lon="6.08664">
        <ele>1223</ele>
        <time>2022-03-03T10:44:31.000Z</time>
      </trkpt>
      <trkpt lat="44.15273" lon="6.08663">
        <ele>1223</ele>
        <time>2022-03-03T10:44:32.000Z</time>
      </trkpt>
      <trkpt lat="44.15273" lon="6.08663">
        <ele>1223</ele>
        <time>2022-03-03T10:44:33.000Z</time>
      </trkpt>
      <trkpt lat="44.15274" lon="6.08662">
        <ele>1223</ele>
        <time>2022-03-03T10:44:34.000Z</time>
      </trkpt>
      <trkpt lat="44.15275" lon="6.08661">
        <ele>1223</ele>
        <time>2022-03-03T10:44:35.000Z</time>
      </trkpt>
      <trkpt lat="44.15275" lon="6.0866">
        <ele>1223</ele>
        <time>2022-03-03T10:44:36.000Z</time>
      </trkpt>
      <trkpt lat="44.15276" lon="6.08659">
        <ele>1223</ele>
        <time>2022-03-03T10:44:37.000Z</time>
      </trkpt>
      <trkpt lat="44.15277" lon="6.08658">
        <ele>1223</ele>
        <time>2022-03-03T10:44:38.000Z</time>
      </trkpt>
      <trkpt lat="44.15278" lon="6.08657">
        <ele>1223</ele>
        <time>2022-03-03T10:44:39.000Z</time>
      </trkpt>
      <trkpt lat="44.15279" lon="6.08657">
        <ele>1223</ele>
        <time>2022-03-03T10:44:40.000Z</time>
      </trkpt>
      <trkpt lat="44.1528" lon="6.08656">
        <ele>1223</ele>
        <time>2022-03-03T10:44:41.000Z</time>
      </trkpt>
      <trkpt lat="44.15281" lon="6.08655">
        <ele>1223</ele>
        <time>2022-03-03T10:44:42.000Z</time>
      </trkpt>
      <trkpt lat="44.15281" lon="6.08654">
        <ele>1223</ele>
        <time>2022-03-03T10:44:43.000Z</time>
      </trkpt>
      <trkpt lat="44.15282" lon="6.08653">
        <ele>1223</ele>
        <time>2022-03-03T10:44:44.000Z</time>
      </trkpt>
      <trkpt lat="44.15283" lon="6.08653">
        <ele>1223</ele>
        <time>2022-03-03T10:44:45.000Z</time>
      </trkpt>
      <trkpt lat="44.15284" lon="6.08652">
        <ele>1222</ele>
        <time>2022-03-03T10:44:46.000Z</time>
      </trkpt>
      <trkpt lat="44.15284" lon="6.08651">
        <ele>1222</ele>
        <time>2022-03-03T10:44:47.000Z</time>
      </trkpt>
      <trkpt lat="44.15285" lon="6.0865">
        <ele>1222</ele>
        <time>2022-03-03T10:44:48.000Z</time>
      </trkpt>
      <trkpt lat="44.15286" lon="6.0865">
        <ele>1222</ele>
        <time>2022-03-03T10:44:49.000Z</time>
      </trkpt>
      <trkpt lat="44.15287" lon="6.08649">
        <ele>1222</ele>
        <time>2022-03-03T10:44:50.000Z</time>
      </trkpt>
      <trkpt lat="44.15288" lon="6.08649">
        <ele>1222</ele>
        <time>2022-03-03T10:44:51.000Z</time>
      </trkpt>
      <trkpt lat="44.15289" lon="6.08648">
        <ele>1222</ele>
        <time>2022-03-03T10:44:52.000Z</time>
      </trkpt>
      <trkpt lat="44.1529" lon="6.08647">
        <ele>1222</ele>
        <time>2022-03-03T10:44:53.000Z</time>
      </trkpt>
      <trkpt lat="44.15291" lon="6.08646">
        <ele>1222</ele>
        <time>2022-03-03T10:44:54.000Z</time>
      </trkpt>
      <trkpt lat="44.15292" lon="6.08645">
        <ele>1222</ele>
        <time>2022-03-03T10:44:55.000Z</time>
      </trkpt>
      <trkpt lat="44.15293" lon="6.08645">
        <ele>1222</ele>
        <time>2022-03-03T10:44:56.000Z</time>
      </trkpt>
      <trkpt lat="44.15294" lon="6.08644">
        <ele>1222</ele>
        <time>2022-03-03T10:44:57.000Z</time>
      </trkpt>
      <trkpt lat="44.15294" lon="6.08643">
        <ele>1222</ele>
        <time>2022-03-03T10:44:58.000Z</time>
      </trkpt>
      <trkpt lat="44.15295" lon="6.08643">
        <ele>1222</ele>
        <time>2022-03-03T10:44:59.000Z</time>
      </trkpt>
      <trkpt lat="44.15296" lon="6.08642">
        <ele>1222</ele>
        <time>2022-03-03T10:45:00.000Z</time>
      </trkpt>
      <trkpt lat="44.15297" lon="6.08641">
        <ele>1222</ele>
        <time>2022-03-03T10:45:01.000Z</time>
      </trkpt>
      <trkpt lat="44.15298" lon="6.0864">
        <ele>1222</ele>
        <time>2022-03-03T10:45:02.000Z</time>
      </trkpt>
      <trkpt lat="44.15299" lon="6.0864">
        <ele>1222</ele>
        <time>2022-03-03T10:45:03.000Z</time>
      </trkpt>
      <trkpt lat="44.153" lon="6.08639">
        <ele>1222</ele>
        <time>2022-03-03T10:45:04.000Z</time>
      </trkpt>
      <trkpt lat="44.15301" lon="6.08638">
        <ele>1222</ele>
        <time>2022-03-03T10:45:05.000Z</time>
      </trkpt>
      <trkpt lat="44.15302" lon="6.08638">
        <ele>1222</ele>
        <time>2022-03-03T10:45:06.000Z</time>
      </trkpt>
      <trkpt lat="44.15303" lon="6.08637">
        <ele>1222</ele>
        <time>2022-03-03T10:45:07.000Z</time>
      </trkpt>
      <trkpt lat="44.15304" lon="6.08636">
        <ele>1222</ele>
        <time>2022-03-03T10:45:08.000Z</time>
      </trkpt>
      <trkpt lat="44.15305" lon="6.08636">
        <ele>1222</ele>
        <time>2022-03-03T10:45:09.000Z</time>
      </trkpt>
      <trkpt lat="44.15305" lon="6.08636">
        <ele>1222</ele>
        <time>2022-03-03T10:45:10.000Z</time>
      </trkpt>
      <trkpt lat="44.15306" lon="6.08636">
        <ele>1222</ele>
        <time>2022-03-03T10:45:11.000Z</time>
      </trkpt>
      <trkpt lat="44.15306" lon="6.08636">
        <ele>1222</ele>
        <time>2022-03-03T10:45:12.000Z</time>
      </trkpt>
      <trkpt lat="44.15306" lon="6.08635">
        <ele>1222</ele>
        <time>2022-03-03T10:45:13.000Z</time>
      </trkpt>
      <trkpt lat="44.15306" lon="6.08635">
        <ele>1222</ele>
        <time>2022-03-03T10:45:14.000Z</time>
      </trkpt>
      <trkpt lat="44.15306" lon="6.08635">
        <ele>1222</ele>
        <time>2022-03-03T10:45:15.000Z</time>
      </trkpt>
      <trkpt lat="44.15307" lon="6.08634">
        <ele>1222</ele>
        <time>2022-03-03T10:45:16.000Z</time>
      </trkpt>
      <trkpt lat="44.15307" lon="6.08634">
        <ele>1222</ele>
        <time>2022-03-03T10:45:17.000Z</time>
      </trkpt>
      <trkpt lat="44.15308" lon="6.08633">
        <ele>1222</ele>
        <time>2022-03-03T10:45:18.000Z</time>
      </trkpt>
      <trkpt lat="44.15309" lon="6.08632">
        <ele>1222</ele>
        <time>2022-03-03T10:45:19.000Z</time>
      </trkpt>
      <trkpt lat="44.15309" lon="6.08632">
        <ele>1222</ele>
        <time>2022-03-03T10:45:20.000Z</time>
      </trkpt>
      <trkpt lat="44.1531" lon="6.08631">
        <ele>1222</ele>
        <time>2022-03-03T10:45:21.000Z</time>
      </trkpt>
      <trkpt lat="44.15311" lon="6.0863">
        <ele>1221</ele>
        <time>2022-03-03T10:45:22.000Z</time>
      </trkpt>
      <trkpt lat="44.15312" lon="6.0863">
        <ele>1221</ele>
        <time>2022-03-03T10:45:23.000Z</time>
      </trkpt>
      <trkpt lat="44.15313" lon="6.08629">
        <ele>1221</ele>
        <time>2022-03-03T10:45:24.000Z</time>
      </trkpt>
      <trkpt lat="44.15314" lon="6.08629">
        <ele>1221</ele>
        <time>2022-03-03T10:45:25.000Z</time>
      </trkpt>
      <trkpt lat="44.15315" lon="6.08628">
        <ele>1221</ele>
        <time>2022-03-03T10:45:26.000Z</time>
      </trkpt>
      <trkpt lat="44.15316" lon="6.08627">
        <ele>1221</ele>
        <time>2022-03-03T10:45:27.000Z</time>
      </trkpt>
      <trkpt lat="44.15317" lon="6.08627">
        <ele>1221</ele>
        <time>2022-03-03T10:45:28.000Z</time>
      </trkpt>
      <trkpt lat="44.15318" lon="6.08626">
        <ele>1221</ele>
        <time>2022-03-03T10:45:29.000Z</time>
      </trkpt>
      <trkpt lat="44.15319" lon="6.08626">
        <ele>1221</ele>
        <time>2022-03-03T10:45:30.000Z</time>
      </trkpt>
      <trkpt lat="44.15319" lon="6.08625">
        <ele>1221</ele>
        <time>2022-03-03T10:45:31.000Z</time>
      </trkpt>
      <trkpt lat="44.15321" lon="6.08624">
        <ele>1221</ele>
        <time>2022-03-03T10:45:32.000Z</time>
      </trkpt>
      <trkpt lat="44.15321" lon="6.08624">
        <ele>1221</ele>
        <time>2022-03-03T10:45:33.000Z</time>
      </trkpt>
      <trkpt lat="44.15322" lon="6.08623">
        <ele>1221</ele>
        <time>2022-03-03T10:45:34.000Z</time>
      </trkpt>
      <trkpt lat="44.15323" lon="6.08622">
        <ele>1221</ele>
        <time>2022-03-03T10:45:35.000Z</time>
      </trkpt>
      <trkpt lat="44.15324" lon="6.08622">
        <ele>1222</ele>
        <time>2022-03-03T10:45:36.000Z</time>
      </trkpt>
      <trkpt lat="44.15325" lon="6.08621">
        <ele>1222</ele>
        <time>2022-03-03T10:45:37.000Z</time>
      </trkpt>
      <trkpt lat="44.15326" lon="6.0862">
        <ele>1222</ele>
        <time>2022-03-03T10:45:38.000Z</time>
      </trkpt>
      <trkpt lat="44.15327" lon="6.08619">
        <ele>1222</ele>
        <time>2022-03-03T10:45:39.000Z</time>
      </trkpt>
      <trkpt lat="44.15328" lon="6.08619">
        <ele>1222</ele>
        <time>2022-03-03T10:45:40.000Z</time>
      </trkpt>
      <trkpt lat="44.15328" lon="6.08618">
        <ele>1222</ele>
        <time>2022-03-03T10:45:41.000Z</time>
      </trkpt>
      <trkpt lat="44.1533" lon="6.08617">
        <ele>1222</ele>
        <time>2022-03-03T10:45:42.000Z</time>
      </trkpt>
      <trkpt lat="44.1533" lon="6.08617">
        <ele>1222</ele>
        <time>2022-03-03T10:45:43.000Z</time>
      </trkpt>
      <trkpt lat="44.15331" lon="6.08616">
        <ele>1222</ele>
        <time>2022-03-03T10:45:44.000Z</time>
      </trkpt>
      <trkpt lat="44.15332" lon="6.08615">
        <ele>1222</ele>
        <time>2022-03-03T10:45:45.000Z</time>
      </trkpt>
      <trkpt lat="44.15333" lon="6.08615">
        <ele>1222</ele>
        <time>2022-03-03T10:45:46.000Z</time>
      </trkpt>
      <trkpt lat="44.15333" lon="6.08614">
        <ele>1222</ele>
        <time>2022-03-03T10:45:47.000Z</time>
      </trkpt>
      <trkpt lat="44.15335" lon="6.08613">
        <ele>1222</ele>
        <time>2022-03-03T10:45:48.000Z</time>
      </trkpt>
      <trkpt lat="44.15335" lon="6.08613">
        <ele>1222</ele>
        <time>2022-03-03T10:45:49.000Z</time>
      </trkpt>
      <trkpt lat="44.15336" lon="6.08612">
        <ele>1222</ele>
        <time>2022-03-03T10:45:50.000Z</time>
      </trkpt>
      <trkpt lat="44.15337" lon="6.08612">
        <ele>1222</ele>
        <time>2022-03-03T10:45:51.000Z</time>
      </trkpt>
      <trkpt lat="44.15338" lon="6.08611">
        <ele>1223</ele>
        <time>2022-03-03T10:45:52.000Z</time>
      </trkpt>
      <trkpt lat="44.15339" lon="6.08611">
        <ele>1223</ele>
        <time>2022-03-03T10:45:53.000Z</time>
      </trkpt>
      <trkpt lat="44.1534" lon="6.0861">
        <ele>1223</ele>
        <time>2022-03-03T10:45:54.000Z</time>
      </trkpt>
      <trkpt lat="44.15341" lon="6.0861">
        <ele>1223</ele>
        <time>2022-03-03T10:45:55.000Z</time>
      </trkpt>
      <trkpt lat="44.15342" lon="6.08609">
        <ele>1223</ele>
        <time>2022-03-03T10:45:56.000Z</time>
      </trkpt>
      <trkpt lat="44.15343" lon="6.08609">
        <ele>1223</ele>
        <time>2022-03-03T10:45:57.000Z</time>
      </trkpt>
      <trkpt lat="44.15344" lon="6.08608">
        <ele>1223</ele>
        <time>2022-03-03T10:45:58.000Z</time>
      </trkpt>
      <trkpt lat="44.15344" lon="6.08607">
        <ele>1223</ele>
        <time>2022-03-03T10:45:59.000Z</time>
      </trkpt>
      <trkpt lat="44.15345" lon="6.08607">
        <ele>1223</ele>
        <time>2022-03-03T10:46:00.000Z</time>
      </trkpt>
      <trkpt lat="44.15346" lon="6.08606">
        <ele>1223</ele>
        <time>2022-03-03T10:46:01.000Z</time>
      </trkpt>
      <trkpt lat="44.15347" lon="6.08606">
        <ele>1223</ele>
        <time>2022-03-03T10:46:02.000Z</time>
      </trkpt>
      <trkpt lat="44.15348" lon="6.08605">
        <ele>1223</ele>
        <time>2022-03-03T10:46:03.000Z</time>
      </trkpt>
      <trkpt lat="44.15349" lon="6.08605">
        <ele>1223</ele>
        <time>2022-03-03T10:46:04.000Z</time>
      </trkpt>
      <trkpt lat="44.1535" lon="6.08605">
        <ele>1223</ele>
        <time>2022-03-03T10:46:05.000Z</time>
      </trkpt>
      <trkpt lat="44.15351" lon="6.08604">
        <ele>1223</ele>
        <time>2022-03-03T10:46:06.000Z</time>
      </trkpt>
      <trkpt lat="44.15351" lon="6.08603">
        <ele>1223</ele>
        <time>2022-03-03T10:46:07.000Z</time>
      </trkpt>
      <trkpt lat="44.15352" lon="6.08603">
        <ele>1223</ele>
        <time>2022-03-03T10:46:08.000Z</time>
      </trkpt>
      <trkpt lat="44.15353" lon="6.08602">
        <ele>1223</ele>
        <time>2022-03-03T10:46:09.000Z</time>
      </trkpt>
      <trkpt lat="44.15354" lon="6.08602">
        <ele>1223</ele>
        <time>2022-03-03T10:46:10.000Z</time>
      </trkpt>
      <trkpt lat="44.15355" lon="6.08601">
        <ele>1224</ele>
        <time>2022-03-03T10:46:11.000Z</time>
      </trkpt>
      <trkpt lat="44.15356" lon="6.086">
        <ele>1224</ele>
        <time>2022-03-03T10:46:12.000Z</time>
      </trkpt>
      <trkpt lat="44.15357" lon="6.08599">
        <ele>1224</ele>
        <time>2022-03-03T10:46:13.000Z</time>
      </trkpt>
      <trkpt lat="44.15357" lon="6.08598">
        <ele>1223</ele>
        <time>2022-03-03T10:46:14.000Z</time>
      </trkpt>
      <trkpt lat="44.15359" lon="6.08598">
        <ele>1224</ele>
        <time>2022-03-03T10:46:15.000Z</time>
      </trkpt>
      <trkpt lat="44.15359" lon="6.08597">
        <ele>1224</ele>
        <time>2022-03-03T10:46:16.000Z</time>
      </trkpt>
      <trkpt lat="44.1536" lon="6.08596">
        <ele>1223</ele>
        <time>2022-03-03T10:46:17.000Z</time>
      </trkpt>
      <trkpt lat="44.15361" lon="6.08596">
        <ele>1223</ele>
        <time>2022-03-03T10:46:18.000Z</time>
      </trkpt>
      <trkpt lat="44.15362" lon="6.08595">
        <ele>1224</ele>
        <time>2022-03-03T10:46:19.000Z</time>
      </trkpt>
      <trkpt lat="44.15363" lon="6.08594">
        <ele>1224</ele>
        <time>2022-03-03T10:46:20.000Z</time>
      </trkpt>
      <trkpt lat="44.15364" lon="6.08594">
        <ele>1224</ele>
        <time>2022-03-03T10:46:21.000Z</time>
      </trkpt>
      <trkpt lat="44.15365" lon="6.08593">
        <ele>1224</ele>
        <time>2022-03-03T10:46:22.000Z</time>
      </trkpt>
      <trkpt lat="44.15366" lon="6.08592">
        <ele>1224</ele>
        <time>2022-03-03T10:46:23.000Z</time>
      </trkpt>
      <trkpt lat="44.15367" lon="6.08592">
        <ele>1224</ele>
        <time>2022-03-03T10:46:24.000Z</time>
      </trkpt>
      <trkpt lat="44.15368" lon="6.08591">
        <ele>1224</ele>
        <time>2022-03-03T10:46:25.000Z</time>
      </trkpt>
      <trkpt lat="44.15369" lon="6.0859">
        <ele>1224</ele>
        <time>2022-03-03T10:46:26.000Z</time>
      </trkpt>
      <trkpt lat="44.1537" lon="6.0859">
        <ele>1224</ele>
        <time>2022-03-03T10:46:27.000Z</time>
      </trkpt>
      <trkpt lat="44.1537" lon="6.08589">
        <ele>1224</ele>
        <time>2022-03-03T10:46:28.000Z</time>
      </trkpt>
      <trkpt lat="44.15371" lon="6.08588">
        <ele>1224</ele>
        <time>2022-03-03T10:46:29.000Z</time>
      </trkpt>
      <trkpt lat="44.15372" lon="6.08588">
        <ele>1224</ele>
        <time>2022-03-03T10:46:30.000Z</time>
      </trkpt>
      <trkpt lat="44.15373" lon="6.08587">
        <ele>1225</ele>
        <time>2022-03-03T10:46:31.000Z</time>
      </trkpt>
      <trkpt lat="44.15374" lon="6.08587">
        <ele>1225</ele>
        <time>2022-03-03T10:46:32.000Z</time>
      </trkpt>
      <trkpt lat="44.15375" lon="6.08586">
        <ele>1225</ele>
        <time>2022-03-03T10:46:33.000Z</time>
      </trkpt>
      <trkpt lat="44.15376" lon="6.08586">
        <ele>1225</ele>
        <time>2022-03-03T10:46:34.000Z</time>
      </trkpt>
      <trkpt lat="44.15377" lon="6.08585">
        <ele>1225</ele>
        <time>2022-03-03T10:46:35.000Z</time>
      </trkpt>
      <trkpt lat="44.15378" lon="6.08585">
        <ele>1225</ele>
        <time>2022-03-03T10:46:36.000Z</time>
      </trkpt>
      <trkpt lat="44.15379" lon="6.08584">
        <ele>1225</ele>
        <time>2022-03-03T10:46:37.000Z</time>
      </trkpt>
      <trkpt lat="44.1538" lon="6.08583">
        <ele>1225</ele>
        <time>2022-03-03T10:46:38.000Z</time>
      </trkpt>
      <trkpt lat="44.1538" lon="6.08583">
        <ele>1225</ele>
        <time>2022-03-03T10:46:39.000Z</time>
      </trkpt>
      <trkpt lat="44.15381" lon="6.08582">
        <ele>1225</ele>
        <time>2022-03-03T10:46:40.000Z</time>
      </trkpt>
      <trkpt lat="44.15382" lon="6.08581">
        <ele>1225</ele>
        <time>2022-03-03T10:46:41.000Z</time>
      </trkpt>
      <trkpt lat="44.15383" lon="6.08581">
        <ele>1226</ele>
        <time>2022-03-03T10:46:42.000Z</time>
      </trkpt>
      <trkpt lat="44.15384" lon="6.0858">
        <ele>1226</ele>
        <time>2022-03-03T10:46:43.000Z</time>
      </trkpt>
      <trkpt lat="44.15385" lon="6.0858">
        <ele>1226</ele>
        <time>2022-03-03T10:46:44.000Z</time>
      </trkpt>
      <trkpt lat="44.15386" lon="6.08579">
        <ele>1226</ele>
        <time>2022-03-03T10:46:45.000Z</time>
      </trkpt>
      <trkpt lat="44.15387" lon="6.08579">
        <ele>1226</ele>
        <time>2022-03-03T10:46:46.000Z</time>
      </trkpt>
      <trkpt lat="44.15387" lon="6.08578">
        <ele>1226</ele>
        <time>2022-03-03T10:46:47.000Z</time>
      </trkpt>
      <trkpt lat="44.15388" lon="6.08578">
        <ele>1226</ele>
        <time>2022-03-03T10:46:48.000Z</time>
      </trkpt>
      <trkpt lat="44.15389" lon="6.08577">
        <ele>1226</ele>
        <time>2022-03-03T10:46:49.000Z</time>
      </trkpt>
      <trkpt lat="44.1539" lon="6.08577">
        <ele>1226</ele>
        <time>2022-03-03T10:46:50.000Z</time>
      </trkpt>
      <trkpt lat="44.15391" lon="6.08576">
        <ele>1226</ele>
        <time>2022-03-03T10:46:51.000Z</time>
      </trkpt>
      <trkpt lat="44.15392" lon="6.08575">
        <ele>1226</ele>
        <time>2022-03-03T10:46:52.000Z</time>
      </trkpt>
      <trkpt lat="44.15393" lon="6.08575">
        <ele>1226</ele>
        <time>2022-03-03T10:46:53.000Z</time>
      </trkpt>
      <trkpt lat="44.15393" lon="6.08574">
        <ele>1226</ele>
        <time>2022-03-03T10:46:54.000Z</time>
      </trkpt>
      <trkpt lat="44.15394" lon="6.08573">
        <ele>1227</ele>
        <time>2022-03-03T10:46:55.000Z</time>
      </trkpt>
      <trkpt lat="44.15395" lon="6.08572">
        <ele>1227</ele>
        <time>2022-03-03T10:46:56.000Z</time>
      </trkpt>
      <trkpt lat="44.15396" lon="6.08572">
        <ele>1227</ele>
        <time>2022-03-03T10:46:57.000Z</time>
      </trkpt>
      <trkpt lat="44.15397" lon="6.08571">
        <ele>1227</ele>
        <time>2022-03-03T10:46:58.000Z</time>
      </trkpt>
      <trkpt lat="44.15397" lon="6.0857">
        <ele>1227</ele>
        <time>2022-03-03T10:46:59.000Z</time>
      </trkpt>
      <trkpt lat="44.15398" lon="6.08569">
        <ele>1227</ele>
        <time>2022-03-03T10:47:00.000Z</time>
      </trkpt>
      <trkpt lat="44.15399" lon="6.08569">
        <ele>1227</ele>
        <time>2022-03-03T10:47:01.000Z</time>
      </trkpt>
      <trkpt lat="44.15399" lon="6.08568">
        <ele>1227</ele>
        <time>2022-03-03T10:47:02.000Z</time>
      </trkpt>
      <trkpt lat="44.154" lon="6.08567">
        <ele>1227</ele>
        <time>2022-03-03T10:47:03.000Z</time>
      </trkpt>
      <trkpt lat="44.15401" lon="6.08566">
        <ele>1227</ele>
        <time>2022-03-03T10:47:04.000Z</time>
      </trkpt>
      <trkpt lat="44.15402" lon="6.08566">
        <ele>1227</ele>
        <time>2022-03-03T10:47:05.000Z</time>
      </trkpt>
      <trkpt lat="44.15403" lon="6.08565">
        <ele>1227</ele>
        <time>2022-03-03T10:47:06.000Z</time>
      </trkpt>
      <trkpt lat="44.15404" lon="6.08564">
        <ele>1227</ele>
        <time>2022-03-03T10:47:07.000Z</time>
      </trkpt>
      <trkpt lat="44.15404" lon="6.08563">
        <ele>1227</ele>
        <time>2022-03-03T10:47:08.000Z</time>
      </trkpt>
      <trkpt lat="44.15405" lon="6.08563">
        <ele>1227</ele>
        <time>2022-03-03T10:47:09.000Z</time>
      </trkpt>
      <trkpt lat="44.15406" lon="6.08562">
        <ele>1227</ele>
        <time>2022-03-03T10:47:10.000Z</time>
      </trkpt>
      <trkpt lat="44.15407" lon="6.08562">
        <ele>1228</ele>
        <time>2022-03-03T10:47:11.000Z</time>
      </trkpt>
      <trkpt lat="44.15408" lon="6.08562">
        <ele>1227</ele>
        <time>2022-03-03T10:47:12.000Z</time>
      </trkpt>
      <trkpt lat="44.15409" lon="6.08562">
        <ele>1228</ele>
        <time>2022-03-03T10:47:13.000Z</time>
      </trkpt>
      <trkpt lat="44.1541" lon="6.08561">
        <ele>1228</ele>
        <time>2022-03-03T10:47:14.000Z</time>
      </trkpt>
      <trkpt lat="44.1541" lon="6.08561">
        <ele>1228</ele>
        <time>2022-03-03T10:47:15.000Z</time>
      </trkpt>
      <trkpt lat="44.15411" lon="6.0856">
        <ele>1228</ele>
        <time>2022-03-03T10:47:16.000Z</time>
      </trkpt>
      <trkpt lat="44.15412" lon="6.0856">
        <ele>1228</ele>
        <time>2022-03-03T10:47:17.000Z</time>
      </trkpt>
      <trkpt lat="44.15413" lon="6.08559">
        <ele>1228</ele>
        <time>2022-03-03T10:47:18.000Z</time>
      </trkpt>
      <trkpt lat="44.15413" lon="6.08559">
        <ele>1228</ele>
        <time>2022-03-03T10:47:19.000Z</time>
      </trkpt>
      <trkpt lat="44.15415" lon="6.08558">
        <ele>1228</ele>
        <time>2022-03-03T10:47:20.000Z</time>
      </trkpt>
      <trkpt lat="44.15415" lon="6.08557">
        <ele>1229</ele>
        <time>2022-03-03T10:47:21.000Z</time>
      </trkpt>
      <trkpt lat="44.15416" lon="6.08557">
        <ele>1229</ele>
        <time>2022-03-03T10:47:22.000Z</time>
      </trkpt>
      <trkpt lat="44.15417" lon="6.08556">
        <ele>1229</ele>
        <time>2022-03-03T10:47:23.000Z</time>
      </trkpt>
      <trkpt lat="44.15418" lon="6.08555">
        <ele>1229</ele>
        <time>2022-03-03T10:47:24.000Z</time>
      </trkpt>
      <trkpt lat="44.15418" lon="6.08555">
        <ele>1229</ele>
        <time>2022-03-03T10:47:25.000Z</time>
      </trkpt>
      <trkpt lat="44.15419" lon="6.08554">
        <ele>1229</ele>
        <time>2022-03-03T10:47:26.000Z</time>
      </trkpt>
      <trkpt lat="44.1542" lon="6.08553">
        <ele>1229</ele>
        <time>2022-03-03T10:47:27.000Z</time>
      </trkpt>
      <trkpt lat="44.15421" lon="6.08553">
        <ele>1229</ele>
        <time>2022-03-03T10:47:28.000Z</time>
      </trkpt>
      <trkpt lat="44.15422" lon="6.08552">
        <ele>1229</ele>
        <time>2022-03-03T10:47:29.000Z</time>
      </trkpt>
      <trkpt lat="44.15422" lon="6.08552">
        <ele>1229</ele>
        <time>2022-03-03T10:47:30.000Z</time>
      </trkpt>
      <trkpt lat="44.15423" lon="6.08551">
        <ele>1229</ele>
        <time>2022-03-03T10:47:31.000Z</time>
      </trkpt>
      <trkpt lat="44.15424" lon="6.08551">
        <ele>1229</ele>
        <time>2022-03-03T10:47:32.000Z</time>
      </trkpt>
      <trkpt lat="44.15425" lon="6.0855">
        <ele>1230</ele>
        <time>2022-03-03T10:47:33.000Z</time>
      </trkpt>
      <trkpt lat="44.15426" lon="6.0855">
        <ele>1230</ele>
        <time>2022-03-03T10:47:34.000Z</time>
      </trkpt>
      <trkpt lat="44.15426" lon="6.08549">
        <ele>1230</ele>
        <time>2022-03-03T10:47:35.000Z</time>
      </trkpt>
      <trkpt lat="44.15427" lon="6.08548">
        <ele>1230</ele>
        <time>2022-03-03T10:47:36.000Z</time>
      </trkpt>
      <trkpt lat="44.15428" lon="6.08548">
        <ele>1230</ele>
        <time>2022-03-03T10:47:37.000Z</time>
      </trkpt>
      <trkpt lat="44.15429" lon="6.08547">
        <ele>1230</ele>
        <time>2022-03-03T10:47:38.000Z</time>
      </trkpt>
      <trkpt lat="44.15429" lon="6.08547">
        <ele>1230</ele>
        <time>2022-03-03T10:47:39.000Z</time>
      </trkpt>
      <trkpt lat="44.15431" lon="6.08546">
        <ele>1230</ele>
        <time>2022-03-03T10:47:40.000Z</time>
      </trkpt>
      <trkpt lat="44.15431" lon="6.08546">
        <ele>1230</ele>
        <time>2022-03-03T10:47:41.000Z</time>
      </trkpt>
      <trkpt lat="44.15432" lon="6.08546">
        <ele>1230</ele>
        <time>2022-03-03T10:47:42.000Z</time>
      </trkpt>
      <trkpt lat="44.15433" lon="6.08545">
        <ele>1231</ele>
        <time>2022-03-03T10:47:43.000Z</time>
      </trkpt>
      <trkpt lat="44.15434" lon="6.08544">
        <ele>1231</ele>
        <time>2022-03-03T10:47:44.000Z</time>
      </trkpt>
      <trkpt lat="44.15434" lon="6.08544">
        <ele>1231</ele>
        <time>2022-03-03T10:47:45.000Z</time>
      </trkpt>
      <trkpt lat="44.15435" lon="6.08543">
        <ele>1231</ele>
        <time>2022-03-03T10:47:46.000Z</time>
      </trkpt>
      <trkpt lat="44.15436" lon="6.08543">
        <ele>1231</ele>
        <time>2022-03-03T10:47:47.000Z</time>
      </trkpt>
      <trkpt lat="44.15436" lon="6.08542">
        <ele>1231</ele>
        <time>2022-03-03T10:47:48.000Z</time>
      </trkpt>
      <trkpt lat="44.15437" lon="6.08542">
        <ele>1231</ele>
        <time>2022-03-03T10:47:49.000Z</time>
      </trkpt>
      <trkpt lat="44.15438" lon="6.08542">
        <ele>1231</ele>
        <time>2022-03-03T10:47:50.000Z</time>
      </trkpt>
      <trkpt lat="44.15439" lon="6.08541">
        <ele>1232</ele>
        <time>2022-03-03T10:47:51.000Z</time>
      </trkpt>
      <trkpt lat="44.1544" lon="6.08541">
        <ele>1232</ele>
        <time>2022-03-03T10:47:52.000Z</time>
      </trkpt>
      <trkpt lat="44.15441" lon="6.0854">
        <ele>1232</ele>
        <time>2022-03-03T10:47:53.000Z</time>
      </trkpt>
      <trkpt lat="44.15441" lon="6.0854">
        <ele>1232</ele>
        <time>2022-03-03T10:47:54.000Z</time>
      </trkpt>
      <trkpt lat="44.15442" lon="6.08539">
        <ele>1232</ele>
        <time>2022-03-03T10:47:55.000Z</time>
      </trkpt>
      <trkpt lat="44.15443" lon="6.08539">
        <ele>1232</ele>
        <time>2022-03-03T10:47:56.000Z</time>
      </trkpt>
      <trkpt lat="44.15444" lon="6.08538">
        <ele>1232</ele>
        <time>2022-03-03T10:47:57.000Z</time>
      </trkpt>
      <trkpt lat="44.15444" lon="6.08538">
        <ele>1232</ele>
        <time>2022-03-03T10:47:58.000Z</time>
      </trkpt>
      <trkpt lat="44.15445" lon="6.08538">
        <ele>1232</ele>
        <time>2022-03-03T10:47:59.000Z</time>
      </trkpt>
      <trkpt lat="44.15446" lon="6.08537">
        <ele>1232</ele>
        <time>2022-03-03T10:48:00.000Z</time>
      </trkpt>
      <trkpt lat="44.15447" lon="6.08537">
        <ele>1232</ele>
        <time>2022-03-03T10:48:01.000Z</time>
      </trkpt>
      <trkpt lat="44.15448" lon="6.08537">
        <ele>1232</ele>
        <time>2022-03-03T10:48:02.000Z</time>
      </trkpt>
      <trkpt lat="44.15449" lon="6.08536">
        <ele>1232</ele>
        <time>2022-03-03T10:48:03.000Z</time>
      </trkpt>
      <trkpt lat="44.15449" lon="6.08536">
        <ele>1232</ele>
        <time>2022-03-03T10:48:04.000Z</time>
      </trkpt>
      <trkpt lat="44.1545" lon="6.08536">
        <ele>1233</ele>
        <time>2022-03-03T10:48:05.000Z</time>
      </trkpt>
      <trkpt lat="44.15451" lon="6.08535">
        <ele>1233</ele>
        <time>2022-03-03T10:48:06.000Z</time>
      </trkpt>
      <trkpt lat="44.15452" lon="6.08535">
        <ele>1233</ele>
        <time>2022-03-03T10:48:07.000Z</time>
      </trkpt>
      <trkpt lat="44.15453" lon="6.08535">
        <ele>1233</ele>
        <time>2022-03-03T10:48:08.000Z</time>
      </trkpt>
      <trkpt lat="44.15454" lon="6.08534">
        <ele>1233</ele>
        <time>2022-03-03T10:48:09.000Z</time>
      </trkpt>
      <trkpt lat="44.15454" lon="6.08534">
        <ele>1233</ele>
        <time>2022-03-03T10:48:10.000Z</time>
      </trkpt>
      <trkpt lat="44.15455" lon="6.08534">
        <ele>1233</ele>
        <time>2022-03-03T10:48:11.000Z</time>
      </trkpt>
      <trkpt lat="44.15455" lon="6.08533">
        <ele>1233</ele>
        <time>2022-03-03T10:48:12.000Z</time>
      </trkpt>
      <trkpt lat="44.15456" lon="6.08533">
        <ele>1233</ele>
        <time>2022-03-03T10:48:13.000Z</time>
      </trkpt>
      <trkpt lat="44.15456" lon="6.08532">
        <ele>1233</ele>
        <time>2022-03-03T10:48:14.000Z</time>
      </trkpt>
      <trkpt lat="44.15457" lon="6.08532">
        <ele>1233</ele>
        <time>2022-03-03T10:48:15.000Z</time>
      </trkpt>
      <trkpt lat="44.15458" lon="6.08532">
        <ele>1234</ele>
        <time>2022-03-03T10:48:16.000Z</time>
      </trkpt>
      <trkpt lat="44.15459" lon="6.08531">
        <ele>1234</ele>
        <time>2022-03-03T10:48:17.000Z</time>
      </trkpt>
      <trkpt lat="44.1546" lon="6.08531">
        <ele>1234</ele>
        <time>2022-03-03T10:48:18.000Z</time>
      </trkpt>
      <trkpt lat="44.1546" lon="6.08531">
        <ele>1234</ele>
        <time>2022-03-03T10:48:19.000Z</time>
      </trkpt>
      <trkpt lat="44.15461" lon="6.08531">
        <ele>1234</ele>
        <time>2022-03-03T10:48:20.000Z</time>
      </trkpt>
      <trkpt lat="44.15461" lon="6.0853">
        <ele>1234</ele>
        <time>2022-03-03T10:48:21.000Z</time>
      </trkpt>
      <trkpt lat="44.15462" lon="6.0853">
        <ele>1234</ele>
        <time>2022-03-03T10:48:22.000Z</time>
      </trkpt>
      <trkpt lat="44.15463" lon="6.0853">
        <ele>1235</ele>
        <time>2022-03-03T10:48:23.000Z</time>
      </trkpt>
      <trkpt lat="44.15463" lon="6.0853">
        <ele>1235</ele>
        <time>2022-03-03T10:48:24.000Z</time>
      </trkpt>
      <trkpt lat="44.15464" lon="6.0853">
        <ele>1235</ele>
        <time>2022-03-03T10:48:25.000Z</time>
      </trkpt>
      <trkpt lat="44.15465" lon="6.0853">
        <ele>1235</ele>
        <time>2022-03-03T10:48:26.000Z</time>
      </trkpt>
      <trkpt lat="44.15466" lon="6.0853">
        <ele>1235</ele>
        <time>2022-03-03T10:48:27.000Z</time>
      </trkpt>
      <trkpt lat="44.15467" lon="6.0853">
        <ele>1235</ele>
        <time>2022-03-03T10:48:28.000Z</time>
      </trkpt>
      <trkpt lat="44.15467" lon="6.0853">
        <ele>1235</ele>
        <time>2022-03-03T10:48:29.000Z</time>
      </trkpt>
      <trkpt lat="44.15468" lon="6.0853">
        <ele>1235</ele>
        <time>2022-03-03T10:48:30.000Z</time>
      </trkpt>
      <trkpt lat="44.15469" lon="6.0853">
        <ele>1235</ele>
        <time>2022-03-03T10:48:31.000Z</time>
      </trkpt>
      <trkpt lat="44.15469" lon="6.0853">
        <ele>1235</ele>
        <time>2022-03-03T10:48:32.000Z</time>
      </trkpt>
      <trkpt lat="44.1547" lon="6.08529">
        <ele>1236</ele>
        <time>2022-03-03T10:48:33.000Z</time>
      </trkpt>
      <trkpt lat="44.15471" lon="6.08529">
        <ele>1236</ele>
        <time>2022-03-03T10:48:34.000Z</time>
      </trkpt>
      <trkpt lat="44.15471" lon="6.08529">
        <ele>1236</ele>
        <time>2022-03-03T10:48:35.000Z</time>
      </trkpt>
      <trkpt lat="44.15472" lon="6.08528">
        <ele>1236</ele>
        <time>2022-03-03T10:48:36.000Z</time>
      </trkpt>
      <trkpt lat="44.15473" lon="6.08528">
        <ele>1236</ele>
        <time>2022-03-03T10:48:37.000Z</time>
      </trkpt>
      <trkpt lat="44.15474" lon="6.08528">
        <ele>1236</ele>
        <time>2022-03-03T10:48:38.000Z</time>
      </trkpt>
      <trkpt lat="44.15474" lon="6.08527">
        <ele>1237</ele>
        <time>2022-03-03T10:48:39.000Z</time>
      </trkpt>
      <trkpt lat="44.15475" lon="6.08527">
        <ele>1237</ele>
        <time>2022-03-03T10:48:40.000Z</time>
      </trkpt>
      <trkpt lat="44.15476" lon="6.08526">
        <ele>1237</ele>
        <time>2022-03-03T10:48:41.000Z</time>
      </trkpt>
      <trkpt lat="44.15476" lon="6.08526">
        <ele>1237</ele>
        <time>2022-03-03T10:48:42.000Z</time>
      </trkpt>
      <trkpt lat="44.15477" lon="6.08525">
        <ele>1237</ele>
        <time>2022-03-03T10:48:43.000Z</time>
      </trkpt>
      <trkpt lat="44.15478" lon="6.08524">
        <ele>1237</ele>
        <time>2022-03-03T10:48:44.000Z</time>
      </trkpt>
      <trkpt lat="44.15478" lon="6.08524">
        <ele>1237</ele>
        <time>2022-03-03T10:48:45.000Z</time>
      </trkpt>
      <trkpt lat="44.15479" lon="6.08524">
        <ele>1237</ele>
        <time>2022-03-03T10:48:46.000Z</time>
      </trkpt>
      <trkpt lat="44.1548" lon="6.08523">
        <ele>1238</ele>
        <time>2022-03-03T10:48:47.000Z</time>
      </trkpt>
      <trkpt lat="44.1548" lon="6.08523">
        <ele>1238</ele>
        <time>2022-03-03T10:48:48.000Z</time>
      </trkpt>
      <trkpt lat="44.15481" lon="6.08522">
        <ele>1238</ele>
        <time>2022-03-03T10:48:49.000Z</time>
      </trkpt>
      <trkpt lat="44.15482" lon="6.08522">
        <ele>1238</ele>
        <time>2022-03-03T10:48:50.000Z</time>
      </trkpt>
      <trkpt lat="44.15482" lon="6.08521">
        <ele>1238</ele>
        <time>2022-03-03T10:48:51.000Z</time>
      </trkpt>
      <trkpt lat="44.15483" lon="6.0852">
        <ele>1238</ele>
        <time>2022-03-03T10:48:52.000Z</time>
      </trkpt>
      <trkpt lat="44.15483" lon="6.0852">
        <ele>1238</ele>
        <time>2022-03-03T10:48:53.000Z</time>
      </trkpt>
      <trkpt lat="44.15484" lon="6.08519">
        <ele>1239</ele>
        <time>2022-03-03T10:48:54.000Z</time>
      </trkpt>
      <trkpt lat="44.15485" lon="6.08519">
        <ele>1239</ele>
        <time>2022-03-03T10:48:55.000Z</time>
      </trkpt>
      <trkpt lat="44.15486" lon="6.08518">
        <ele>1239</ele>
        <time>2022-03-03T10:48:56.000Z</time>
      </trkpt>
      <trkpt lat="44.15486" lon="6.08518">
        <ele>1239</ele>
        <time>2022-03-03T10:48:57.000Z</time>
      </trkpt>
      <trkpt lat="44.15487" lon="6.08517">
        <ele>1239</ele>
        <time>2022-03-03T10:48:58.000Z</time>
      </trkpt>
      <trkpt lat="44.15488" lon="6.08517">
        <ele>1239</ele>
        <time>2022-03-03T10:48:59.000Z</time>
      </trkpt>
      <trkpt lat="44.15488" lon="6.08516">
        <ele>1239</ele>
        <time>2022-03-03T10:49:00.000Z</time>
      </trkpt>
      <trkpt lat="44.15489" lon="6.08516">
        <ele>1240</ele>
        <time>2022-03-03T10:49:01.000Z</time>
      </trkpt>
      <trkpt lat="44.1549" lon="6.08515">
        <ele>1240</ele>
        <time>2022-03-03T10:49:02.000Z</time>
      </trkpt>
      <trkpt lat="44.1549" lon="6.08515">
        <ele>1240</ele>
        <time>2022-03-03T10:49:03.000Z</time>
      </trkpt>
      <trkpt lat="44.15491" lon="6.08515">
        <ele>1240</ele>
        <time>2022-03-03T10:49:04.000Z</time>
      </trkpt>
      <trkpt lat="44.15492" lon="6.08514">
        <ele>1240</ele>
        <time>2022-03-03T10:49:05.000Z</time>
      </trkpt>
      <trkpt lat="44.15493" lon="6.08514">
        <ele>1240</ele>
        <time>2022-03-03T10:49:06.000Z</time>
      </trkpt>
      <trkpt lat="44.15494" lon="6.08513">
        <ele>1240</ele>
        <time>2022-03-03T10:49:07.000Z</time>
      </trkpt>
      <trkpt lat="44.15494" lon="6.08513">
        <ele>1240</ele>
        <time>2022-03-03T10:49:08.000Z</time>
      </trkpt>
      <trkpt lat="44.15495" lon="6.08513">
        <ele>1240</ele>
        <time>2022-03-03T10:49:09.000Z</time>
      </trkpt>
      <trkpt lat="44.15496" lon="6.08512">
        <ele>1240</ele>
        <time>2022-03-03T10:49:10.000Z</time>
      </trkpt>
      <trkpt lat="44.15497" lon="6.08512">
        <ele>1240</ele>
        <time>2022-03-03T10:49:11.000Z</time>
      </trkpt>
      <trkpt lat="44.15498" lon="6.08511">
        <ele>1240</ele>
        <time>2022-03-03T10:49:12.000Z</time>
      </trkpt>
      <trkpt lat="44.15498" lon="6.0851">
        <ele>1240</ele>
        <time>2022-03-03T10:49:13.000Z</time>
      </trkpt>
      <trkpt lat="44.15499" lon="6.0851">
        <ele>1240</ele>
        <time>2022-03-03T10:49:14.000Z</time>
      </trkpt>
      <trkpt lat="44.155" lon="6.08509">
        <ele>1241</ele>
        <time>2022-03-03T10:49:15.000Z</time>
      </trkpt>
      <trkpt lat="44.155" lon="6.08509">
        <ele>1241</ele>
        <time>2022-03-03T10:49:16.000Z</time>
      </trkpt>
      <trkpt lat="44.15501" lon="6.08508">
        <ele>1241</ele>
        <time>2022-03-03T10:49:17.000Z</time>
      </trkpt>
      <trkpt lat="44.15502" lon="6.08507">
        <ele>1241</ele>
        <time>2022-03-03T10:49:18.000Z</time>
      </trkpt>
      <trkpt lat="44.15503" lon="6.08507">
        <ele>1241</ele>
        <time>2022-03-03T10:49:19.000Z</time>
      </trkpt>
      <trkpt lat="44.15503" lon="6.08506">
        <ele>1241</ele>
        <time>2022-03-03T10:49:20.000Z</time>
      </trkpt>
      <trkpt lat="44.15504" lon="6.08505">
        <ele>1242</ele>
        <time>2022-03-03T10:49:21.000Z</time>
      </trkpt>
      <trkpt lat="44.15505" lon="6.08505">
        <ele>1242</ele>
        <time>2022-03-03T10:49:22.000Z</time>
      </trkpt>
      <trkpt lat="44.15505" lon="6.08504">
        <ele>1242</ele>
        <time>2022-03-03T10:49:23.000Z</time>
      </trkpt>
      <trkpt lat="44.15506" lon="6.08504">
        <ele>1242</ele>
        <time>2022-03-03T10:49:24.000Z</time>
      </trkpt>
      <trkpt lat="44.15507" lon="6.08503">
        <ele>1242</ele>
        <time>2022-03-03T10:49:25.000Z</time>
      </trkpt>
      <trkpt lat="44.15507" lon="6.08502">
        <ele>1242</ele>
        <time>2022-03-03T10:49:26.000Z</time>
      </trkpt>
      <trkpt lat="44.15508" lon="6.08502">
        <ele>1243</ele>
        <time>2022-03-03T10:49:27.000Z</time>
      </trkpt>
      <trkpt lat="44.15509" lon="6.08502">
        <ele>1243</ele>
        <time>2022-03-03T10:49:28.000Z</time>
      </trkpt>
      <trkpt lat="44.1551" lon="6.08502">
        <ele>1243</ele>
        <time>2022-03-03T10:49:29.000Z</time>
      </trkpt>
      <trkpt lat="44.15511" lon="6.08502">
        <ele>1243</ele>
        <time>2022-03-03T10:49:30.000Z</time>
      </trkpt>
      <trkpt lat="44.15511" lon="6.08501">
        <ele>1243</ele>
        <time>2022-03-03T10:49:31.000Z</time>
      </trkpt>
      <trkpt lat="44.15512" lon="6.08501">
        <ele>1244</ele>
        <time>2022-03-03T10:49:32.000Z</time>
      </trkpt>
      <trkpt lat="44.15513" lon="6.085">
        <ele>1244</ele>
        <time>2022-03-03T10:49:33.000Z</time>
      </trkpt>
      <trkpt lat="44.15513" lon="6.08499">
        <ele>1244</ele>
        <time>2022-03-03T10:49:34.000Z</time>
      </trkpt>
      <trkpt lat="44.15514" lon="6.08499">
        <ele>1244</ele>
        <time>2022-03-03T10:49:35.000Z</time>
      </trkpt>
      <trkpt lat="44.15514" lon="6.08498">
        <ele>1244</ele>
        <time>2022-03-03T10:49:36.000Z</time>
      </trkpt>
      <trkpt lat="44.15515" lon="6.08498">
        <ele>1244</ele>
        <time>2022-03-03T10:49:37.000Z</time>
      </trkpt>
      <trkpt lat="44.15516" lon="6.08497">
        <ele>1244</ele>
        <time>2022-03-03T10:49:38.000Z</time>
      </trkpt>
      <trkpt lat="44.15516" lon="6.08496">
        <ele>1245</ele>
        <time>2022-03-03T10:49:39.000Z</time>
      </trkpt>
      <trkpt lat="44.15517" lon="6.08496">
        <ele>1245</ele>
        <time>2022-03-03T10:49:40.000Z</time>
      </trkpt>
      <trkpt lat="44.15518" lon="6.08495">
        <ele>1245</ele>
        <time>2022-03-03T10:49:41.000Z</time>
      </trkpt>
      <trkpt lat="44.15518" lon="6.08495">
        <ele>1245</ele>
        <time>2022-03-03T10:49:42.000Z</time>
      </trkpt>
      <trkpt lat="44.15518" lon="6.08495">
        <ele>1245</ele>
        <time>2022-03-03T10:49:43.000Z</time>
      </trkpt>
      <trkpt lat="44.15518" lon="6.08494">
        <ele>1245</ele>
        <time>2022-03-03T10:49:44.000Z</time>
      </trkpt>
      <trkpt lat="44.15519" lon="6.08494">
        <ele>1245</ele>
        <time>2022-03-03T10:49:45.000Z</time>
      </trkpt>
      <trkpt lat="44.15519" lon="6.08494">
        <ele>1245</ele>
        <time>2022-03-03T10:49:46.000Z</time>
      </trkpt>
      <trkpt lat="44.15519" lon="6.08494">
        <ele>1245</ele>
        <time>2022-03-03T10:49:47.000Z</time>
      </trkpt>
      <trkpt lat="44.15519" lon="6.08494">
        <ele>1245</ele>
        <time>2022-03-03T10:49:48.000Z</time>
      </trkpt>
      <trkpt lat="44.15518" lon="6.08494">
        <ele>1245</ele>
        <time>2022-03-03T10:49:49.000Z</time>
      </trkpt>
      <trkpt lat="44.15518" lon="6.08494">
        <ele>1245</ele>
        <time>2022-03-03T10:49:50.000Z</time>
      </trkpt>
      <trkpt lat="44.15518" lon="6.08494">
        <ele>1245</ele>
        <time>2022-03-03T10:49:51.000Z</time>
      </trkpt>
      <trkpt lat="44.15518" lon="6.08494">
        <ele>1245</ele>
        <time>2022-03-03T10:49:52.000Z</time>
      </trkpt>
      <trkpt lat="44.15518" lon="6.08494">
        <ele>1246</ele>
        <time>2022-03-03T10:49:53.000Z</time>
      </trkpt>
      <trkpt lat="44.15518" lon="6.08494">
        <ele>1246</ele>
        <time>2022-03-03T10:49:54.000Z</time>
      </trkpt>
      <trkpt lat="44.15518" lon="6.08494">
        <ele>1246</ele>
        <time>2022-03-03T10:49:55.000Z</time>
      </trkpt>
      <trkpt lat="44.15518" lon="6.08494">
        <ele>1246</ele>
        <time>2022-03-03T10:49:56.000Z</time>
      </trkpt>
      <trkpt lat="44.15518" lon="6.08494">
        <ele>1246</ele>
        <time>2022-03-03T10:49:57.000Z</time>
      </trkpt>
      <trkpt lat="44.15518" lon="6.08494">
        <ele>1246</ele>
        <time>2022-03-03T10:49:58.000Z</time>
      </trkpt>
      <trkpt lat="44.15518" lon="6.08494">
        <ele>1246</ele>
        <time>2022-03-03T10:49:59.000Z</time>
      </trkpt>
      <trkpt lat="44.15518" lon="6.08494">
        <ele>1246</ele>
        <time>2022-03-03T10:50:00.000Z</time>
      </trkpt>
      <trkpt lat="44.15518" lon="6.08494">
        <ele>1246</ele>
        <time>2022-03-03T10:50:01.000Z</time>
      </trkpt>
      <trkpt lat="44.15518" lon="6.08494">
        <ele>1246</ele>
        <time>2022-03-03T10:50:02.000Z</time>
      </trkpt>
      <trkpt lat="44.15518" lon="6.08494">
        <ele>1246</ele>
        <time>2022-03-03T10:50:03.000Z</time>
      </trkpt>
      <trkpt lat="44.15518" lon="6.08494">
        <ele>1246</ele>
        <time>2022-03-03T10:50:04.000Z</time>
      </trkpt>
      <trkpt lat="44.15518" lon="6.08494">
        <ele>1246</ele>
        <time>2022-03-03T10:50:05.000Z</time>
      </trkpt>
      <trkpt lat="44.15518" lon="6.08494">
        <ele>1246</ele>
        <time>2022-03-03T10:50:06.000Z</time>
      </trkpt>
      <trkpt lat="44.15518" lon="6.08494">
        <ele>1246</ele>
        <time>2022-03-03T10:50:07.000Z</time>
      </trkpt>
      <trkpt lat="44.15518" lon="6.08494">
        <ele>1246</ele>
        <time>2022-03-03T10:50:08.000Z</time>
      </trkpt>
      <trkpt lat="44.15518" lon="6.08494">
        <ele>1246</ele>
        <time>2022-03-03T10:50:09.000Z</time>
      </trkpt>
      <trkpt lat="44.15518" lon="6.08494">
        <ele>1246</ele>
        <time>2022-03-03T10:50:10.000Z</time>
      </trkpt>
      <trkpt lat="44.15518" lon="6.08494">
        <ele>1246</ele>
        <time>2022-03-03T10:50:11.000Z</time>
      </trkpt>
      <trkpt lat="44.15518" lon="6.08494">
        <ele>1246</ele>
        <time>2022-03-03T10:50:12.000Z</time>
      </trkpt>
      <trkpt lat="44.15518" lon="6.08494">
        <ele>1246</ele>
        <time>2022-03-03T10:50:13.000Z</time>
      </trkpt>
      <trkpt lat="44.15518" lon="6.08494">
        <ele>1246</ele>
        <time>2022-03-03T10:50:14.000Z</time>
      </trkpt>
      <trkpt lat="44.15518" lon="6.08494">
        <ele>1246</ele>
        <time>2022-03-03T10:50:15.000Z</time>
      </trkpt>
      <trkpt lat="44.15518" lon="6.08494">
        <ele>1246</ele>
        <time>2022-03-03T10:50:16.000Z</time>
      </trkpt>
      <trkpt lat="44.15518" lon="6.08494">
        <ele>1246</ele>
        <time>2022-03-03T10:50:17.000Z</time>
      </trkpt>
      <trkpt lat="44.15518" lon="6.08494">
        <ele>1246</ele>
        <time>2022-03-03T10:50:18.000Z</time>
      </trkpt>
      <trkpt lat="44.15518" lon="6.08494">
        <ele>1246</ele>
        <time>2022-03-03T10:50:19.000Z</time>
      </trkpt>
      <trkpt lat="44.15518" lon="6.08494">
        <ele>1246</ele>
        <time>2022-03-03T10:50:20.000Z</time>
      </trkpt>
      <trkpt lat="44.15519" lon="6.08494">
        <ele>1246</ele>
        <time>2022-03-03T10:50:21.000Z</time>
      </trkpt>
      <trkpt lat="44.15519" lon="6.08494">
        <ele>1246</ele>
        <time>2022-03-03T10:50:22.000Z</time>
      </trkpt>
      <trkpt lat="44.15518" lon="6.08494">
        <ele>1246</ele>
        <time>2022-03-03T10:50:23.000Z</time>
      </trkpt>
      <trkpt lat="44.15518" lon="6.08494">
        <ele>1246</ele>
        <time>2022-03-03T10:50:24.000Z</time>
      </trkpt>
      <trkpt lat="44.15519" lon="6.08494">
        <ele>1246</ele>
        <time>2022-03-03T10:50:25.000Z</time>
      </trkpt>
      <trkpt lat="44.15519" lon="6.08494">
        <ele>1246</ele>
        <time>2022-03-03T10:50:26.000Z</time>
      </trkpt>
      <trkpt lat="44.15519" lon="6.08495">
        <ele>1246</ele>
        <time>2022-03-03T10:50:27.000Z</time>
      </trkpt>
      <trkpt lat="44.15519" lon="6.08495">
        <ele>1246</ele>
        <time>2022-03-03T10:50:28.000Z</time>
      </trkpt>
      <trkpt lat="44.15519" lon="6.08495">
        <ele>1246</ele>
        <time>2022-03-03T10:50:29.000Z</time>
      </trkpt>
      <trkpt lat="44.15519" lon="6.08495">
        <ele>1246</ele>
        <time>2022-03-03T10:50:30.000Z</time>
      </trkpt>
      <trkpt lat="44.15519" lon="6.08495">
        <ele>1246</ele>
        <time>2022-03-03T10:50:31.000Z</time>
      </trkpt>
      <trkpt lat="44.15519" lon="6.08495">
        <ele>1246</ele>
        <time>2022-03-03T10:50:32.000Z</time>
      </trkpt>
      <trkpt lat="44.15518" lon="6.08494">
        <ele>1246</ele>
        <time>2022-03-03T10:50:33.000Z</time>
      </trkpt>
      <trkpt lat="44.15518" lon="6.08494">
        <ele>1246</ele>
        <time>2022-03-03T10:50:34.000Z</time>
      </trkpt>
      <trkpt lat="44.15518" lon="6.08494">
        <ele>1246</ele>
        <time>2022-03-03T10:50:35.000Z</time>
      </trkpt>
      <trkpt lat="44.15518" lon="6.08494">
        <ele>1246</ele>
        <time>2022-03-03T10:50:36.000Z</time>
      </trkpt>
      <trkpt lat="44.15519" lon="6.08494">
        <ele>1246</ele>
        <time>2022-03-03T10:50:37.000Z</time>
      </trkpt>
      <trkpt lat="44.15519" lon="6.08494">
        <ele>1246</ele>
        <time>2022-03-03T10:50:38.000Z</time>
      </trkpt>
      <trkpt lat="44.15519" lon="6.08494">
        <ele>1246</ele>
        <time>2022-03-03T10:50:39.000Z</time>
      </trkpt>
      <trkpt lat="44.15519" lon="6.08494">
        <ele>1246</ele>
        <time>2022-03-03T10:50:40.000Z</time>
      </trkpt>
      <trkpt lat="44.15519" lon="6.08494">
        <ele>1246</ele>
        <time>2022-03-03T10:50:41.000Z</time>
      </trkpt>
      <trkpt lat="44.15519" lon="6.08494">
        <ele>1246</ele>
        <time>2022-03-03T10:50:42.000Z</time>
      </trkpt>
      <trkpt lat="44.15519" lon="6.08495">
        <ele>1246</ele>
        <time>2022-03-03T10:50:43.000Z</time>
      </trkpt>
      <trkpt lat="44.15519" lon="6.08495">
        <ele>1246</ele>
        <time>2022-03-03T10:50:44.000Z</time>
      </trkpt>
      <trkpt lat="44.15519" lon="6.08495">
        <ele>1246</ele>
        <time>2022-03-03T10:50:45.000Z</time>
      </trkpt>
      <trkpt lat="44.15519" lon="6.08495">
        <ele>1246</ele>
        <time>2022-03-03T10:50:46.000Z</time>
      </trkpt>
      <trkpt lat="44.15519" lon="6.08495">
        <ele>1246</ele>
        <time>2022-03-03T10:50:47.000Z</time>
      </trkpt>
      <trkpt lat="44.15519" lon="6.08495">
        <ele>1245</ele>
        <time>2022-03-03T10:50:48.000Z</time>
      </trkpt>
      <trkpt lat="44.15519" lon="6.08494">
        <ele>1245</ele>
        <time>2022-03-03T10:50:49.000Z</time>
      </trkpt>
      <trkpt lat="44.15519" lon="6.08494">
        <ele>1245</ele>
        <time>2022-03-03T10:50:50.000Z</time>
      </trkpt>
      <trkpt lat="44.15519" lon="6.08494">
        <ele>1245</ele>
        <time>2022-03-03T10:50:51.000Z</time>
      </trkpt>
      <trkpt lat="44.15519" lon="6.08494">
        <ele>1245</ele>
        <time>2022-03-03T10:50:52.000Z</time>
      </trkpt>
      <trkpt lat="44.15519" lon="6.08494">
        <ele>1245</ele>
        <time>2022-03-03T10:50:53.000Z</time>
      </trkpt>
      <trkpt lat="44.15519" lon="6.08495">
        <ele>1245</ele>
        <time>2022-03-03T10:50:54.000Z</time>
      </trkpt>
      <trkpt lat="44.15519" lon="6.08495">
        <ele>1245</ele>
        <time>2022-03-03T10:50:55.000Z</time>
      </trkpt>
      <trkpt lat="44.15519" lon="6.08494">
        <ele>1245</ele>
        <time>2022-03-03T10:50:56.000Z</time>
      </trkpt>
      <trkpt lat="44.15519" lon="6.08494">
        <ele>1245</ele>
        <time>2022-03-03T10:50:57.000Z</time>
      </trkpt>
      <trkpt lat="44.15519" lon="6.08494">
        <ele>1245</ele>
        <time>2022-03-03T10:50:58.000Z</time>
      </trkpt>
      <trkpt lat="44.15519" lon="6.08494">
        <ele>1245</ele>
        <time>2022-03-03T10:50:59.000Z</time>
      </trkpt>
      <trkpt lat="44.1552" lon="6.08494">
        <ele>1245</ele>
        <time>2022-03-03T10:51:00.000Z</time>
      </trkpt>
      <trkpt lat="44.15521" lon="6.08494">
        <ele>1245</ele>
        <time>2022-03-03T10:51:01.000Z</time>
      </trkpt>
      <trkpt lat="44.15522" lon="6.08493">
        <ele>1245</ele>
        <time>2022-03-03T10:51:02.000Z</time>
      </trkpt>
      <trkpt lat="44.15522" lon="6.08493">
        <ele>1246</ele>
        <time>2022-03-03T10:51:03.000Z</time>
      </trkpt>
      <trkpt lat="44.15523" lon="6.08492">
        <ele>1246</ele>
        <time>2022-03-03T10:51:04.000Z</time>
      </trkpt>
      <trkpt lat="44.15523" lon="6.08492">
        <ele>1246</ele>
        <time>2022-03-03T10:51:05.000Z</time>
      </trkpt>
      <trkpt lat="44.15524" lon="6.08491">
        <ele>1246</ele>
        <time>2022-03-03T10:51:06.000Z</time>
      </trkpt>
      <trkpt lat="44.15525" lon="6.08491">
        <ele>1246</ele>
        <time>2022-03-03T10:51:07.000Z</time>
      </trkpt>
      <trkpt lat="44.15526" lon="6.0849">
        <ele>1246</ele>
        <time>2022-03-03T10:51:08.000Z</time>
      </trkpt>
      <trkpt lat="44.15526" lon="6.0849">
        <ele>1246</ele>
        <time>2022-03-03T10:51:09.000Z</time>
      </trkpt>
      <trkpt lat="44.15527" lon="6.08489">
        <ele>1246</ele>
        <time>2022-03-03T10:51:10.000Z</time>
      </trkpt>
      <trkpt lat="44.15528" lon="6.08489">
        <ele>1247</ele>
        <time>2022-03-03T10:51:11.000Z</time>
      </trkpt>
      <trkpt lat="44.15529" lon="6.08489">
        <ele>1247</ele>
        <time>2022-03-03T10:51:12.000Z</time>
      </trkpt>
      <trkpt lat="44.15529" lon="6.08489">
        <ele>1247</ele>
        <time>2022-03-03T10:51:13.000Z</time>
      </trkpt>
      <trkpt lat="44.1553" lon="6.08488">
        <ele>1247</ele>
        <time>2022-03-03T10:51:14.000Z</time>
      </trkpt>
      <trkpt lat="44.15531" lon="6.08488">
        <ele>1247</ele>
        <time>2022-03-03T10:51:15.000Z</time>
      </trkpt>
      <trkpt lat="44.15532" lon="6.08488">
        <ele>1247</ele>
        <time>2022-03-03T10:51:16.000Z</time>
      </trkpt>
      <trkpt lat="44.15532" lon="6.08487">
        <ele>1247</ele>
        <time>2022-03-03T10:51:17.000Z</time>
      </trkpt>
      <trkpt lat="44.15533" lon="6.08487">
        <ele>1247</ele>
        <time>2022-03-03T10:51:18.000Z</time>
      </trkpt>
      <trkpt lat="44.15534" lon="6.08486">
        <ele>1247</ele>
        <time>2022-03-03T10:51:19.000Z</time>
      </trkpt>
      <trkpt lat="44.15534" lon="6.08486">
        <ele>1247</ele>
        <time>2022-03-03T10:51:20.000Z</time>
      </trkpt>
      <trkpt lat="44.15535" lon="6.08486">
        <ele>1247</ele>
        <time>2022-03-03T10:51:21.000Z</time>
      </trkpt>
      <trkpt lat="44.15536" lon="6.08485">
        <ele>1248</ele>
        <time>2022-03-03T10:51:22.000Z</time>
      </trkpt>
      <trkpt lat="44.15537" lon="6.08485">
        <ele>1248</ele>
        <time>2022-03-03T10:51:23.000Z</time>
      </trkpt>
      <trkpt lat="44.15537" lon="6.08485">
        <ele>1248</ele>
        <time>2022-03-03T10:51:24.000Z</time>
      </trkpt>
      <trkpt lat="44.15538" lon="6.08484">
        <ele>1248</ele>
        <time>2022-03-03T10:51:25.000Z</time>
      </trkpt>
      <trkpt lat="44.15539" lon="6.08483">
        <ele>1248</ele>
        <time>2022-03-03T10:51:26.000Z</time>
      </trkpt>
      <trkpt lat="44.15539" lon="6.08483">
        <ele>1248</ele>
        <time>2022-03-03T10:51:27.000Z</time>
      </trkpt>
      <trkpt lat="44.1554" lon="6.08482">
        <ele>1248</ele>
        <time>2022-03-03T10:51:28.000Z</time>
      </trkpt>
      <trkpt lat="44.1554" lon="6.08482">
        <ele>1248</ele>
        <time>2022-03-03T10:51:29.000Z</time>
      </trkpt>
      <trkpt lat="44.15541" lon="6.08481">
        <ele>1248</ele>
        <time>2022-03-03T10:51:30.000Z</time>
      </trkpt>
      <trkpt lat="44.15542" lon="6.0848">
        <ele>1248</ele>
        <time>2022-03-03T10:51:31.000Z</time>
      </trkpt>
      <trkpt lat="44.15542" lon="6.0848">
        <ele>1249</ele>
        <time>2022-03-03T10:51:32.000Z</time>
      </trkpt>
      <trkpt lat="44.15543" lon="6.08479">
        <ele>1249</ele>
        <time>2022-03-03T10:51:33.000Z</time>
      </trkpt>
      <trkpt lat="44.15544" lon="6.08478">
        <ele>1249</ele>
        <time>2022-03-03T10:51:34.000Z</time>
      </trkpt>
      <trkpt lat="44.15544" lon="6.08478">
        <ele>1249</ele>
        <time>2022-03-03T10:51:35.000Z</time>
      </trkpt>
      <trkpt lat="44.15545" lon="6.08477">
        <ele>1249</ele>
        <time>2022-03-03T10:51:36.000Z</time>
      </trkpt>
      <trkpt lat="44.15545" lon="6.08477">
        <ele>1249</ele>
        <time>2022-03-03T10:51:37.000Z</time>
      </trkpt>
      <trkpt lat="44.15546" lon="6.08476">
        <ele>1249</ele>
        <time>2022-03-03T10:51:38.000Z</time>
      </trkpt>
      <trkpt lat="44.15547" lon="6.08475">
        <ele>1249</ele>
        <time>2022-03-03T10:51:39.000Z</time>
      </trkpt>
      <trkpt lat="44.15547" lon="6.08475">
        <ele>1249</ele>
        <time>2022-03-03T10:51:40.000Z</time>
      </trkpt>
      <trkpt lat="44.15548" lon="6.08474">
        <ele>1250</ele>
        <time>2022-03-03T10:51:41.000Z</time>
      </trkpt>
      <trkpt lat="44.15549" lon="6.08474">
        <ele>1250</ele>
        <time>2022-03-03T10:51:42.000Z</time>
      </trkpt>
      <trkpt lat="44.1555" lon="6.08473">
        <ele>1250</ele>
        <time>2022-03-03T10:51:43.000Z</time>
      </trkpt>
      <trkpt lat="44.1555" lon="6.08473">
        <ele>1250</ele>
        <time>2022-03-03T10:51:44.000Z</time>
      </trkpt>
      <trkpt lat="44.15551" lon="6.08473">
        <ele>1250</ele>
        <time>2022-03-03T10:51:45.000Z</time>
      </trkpt>
      <trkpt lat="44.15551" lon="6.08472">
        <ele>1250</ele>
        <time>2022-03-03T10:51:46.000Z</time>
      </trkpt>
      <trkpt lat="44.15552" lon="6.08472">
        <ele>1250</ele>
        <time>2022-03-03T10:51:47.000Z</time>
      </trkpt>
      <trkpt lat="44.15552" lon="6.08471">
        <ele>1250</ele>
        <time>2022-03-03T10:51:48.000Z</time>
      </trkpt>
      <trkpt lat="44.15553" lon="6.0847">
        <ele>1250</ele>
        <time>2022-03-03T10:51:49.000Z</time>
      </trkpt>
      <trkpt lat="44.15553" lon="6.0847">
        <ele>1250</ele>
        <time>2022-03-03T10:51:50.000Z</time>
      </trkpt>
      <trkpt lat="44.15554" lon="6.08469">
        <ele>1250</ele>
        <time>2022-03-03T10:51:51.000Z</time>
      </trkpt>
      <trkpt lat="44.15555" lon="6.08469">
        <ele>1251</ele>
        <time>2022-03-03T10:51:52.000Z</time>
      </trkpt>
      <trkpt lat="44.15555" lon="6.08469">
        <ele>1251</ele>
        <time>2022-03-03T10:51:53.000Z</time>
      </trkpt>
      <trkpt lat="44.15556" lon="6.08468">
        <ele>1251</ele>
        <time>2022-03-03T10:51:54.000Z</time>
      </trkpt>
      <trkpt lat="44.15557" lon="6.08467">
        <ele>1251</ele>
        <time>2022-03-03T10:51:55.000Z</time>
      </trkpt>
      <trkpt lat="44.15557" lon="6.08467">
        <ele>1251</ele>
        <time>2022-03-03T10:51:56.000Z</time>
      </trkpt>
      <trkpt lat="44.15558" lon="6.08467">
        <ele>1251</ele>
        <time>2022-03-03T10:51:57.000Z</time>
      </trkpt>
      <trkpt lat="44.15559" lon="6.08466">
        <ele>1251</ele>
        <time>2022-03-03T10:51:58.000Z</time>
      </trkpt>
      <trkpt lat="44.15559" lon="6.08466">
        <ele>1251</ele>
        <time>2022-03-03T10:51:59.000Z</time>
      </trkpt>
      <trkpt lat="44.1556" lon="6.08466">
        <ele>1251</ele>
        <time>2022-03-03T10:52:00.000Z</time>
      </trkpt>
      <trkpt lat="44.15561" lon="6.08465">
        <ele>1252</ele>
        <time>2022-03-03T10:52:01.000Z</time>
      </trkpt>
      <trkpt lat="44.15561" lon="6.08465">
        <ele>1252</ele>
        <time>2022-03-03T10:52:02.000Z</time>
      </trkpt>
      <trkpt lat="44.15562" lon="6.08464">
        <ele>1252</ele>
        <time>2022-03-03T10:52:03.000Z</time>
      </trkpt>
      <trkpt lat="44.15563" lon="6.08464">
        <ele>1252</ele>
        <time>2022-03-03T10:52:04.000Z</time>
      </trkpt>
      <trkpt lat="44.15563" lon="6.08463">
        <ele>1252</ele>
        <time>2022-03-03T10:52:05.000Z</time>
      </trkpt>
      <trkpt lat="44.15564" lon="6.08463">
        <ele>1252</ele>
        <time>2022-03-03T10:52:06.000Z</time>
      </trkpt>
      <trkpt lat="44.15565" lon="6.08463">
        <ele>1252</ele>
        <time>2022-03-03T10:52:07.000Z</time>
      </trkpt>
      <trkpt lat="44.15565" lon="6.08462">
        <ele>1252</ele>
        <time>2022-03-03T10:52:08.000Z</time>
      </trkpt>
      <trkpt lat="44.15566" lon="6.08462">
        <ele>1252</ele>
        <time>2022-03-03T10:52:09.000Z</time>
      </trkpt>
      <trkpt lat="44.15566" lon="6.08462">
        <ele>1252</ele>
        <time>2022-03-03T10:52:10.000Z</time>
      </trkpt>
      <trkpt lat="44.15567" lon="6.08461">
        <ele>1253</ele>
        <time>2022-03-03T10:52:11.000Z</time>
      </trkpt>
      <trkpt lat="44.15567" lon="6.08461">
        <ele>1253</ele>
        <time>2022-03-03T10:52:12.000Z</time>
      </trkpt>
      <trkpt lat="44.15568" lon="6.0846">
        <ele>1253</ele>
        <time>2022-03-03T10:52:13.000Z</time>
      </trkpt>
      <trkpt lat="44.15569" lon="6.0846">
        <ele>1253</ele>
        <time>2022-03-03T10:52:14.000Z</time>
      </trkpt>
      <trkpt lat="44.15569" lon="6.0846">
        <ele>1253</ele>
        <time>2022-03-03T10:52:15.000Z</time>
      </trkpt>
      <trkpt lat="44.1557" lon="6.08459">
        <ele>1254</ele>
        <time>2022-03-03T10:52:16.000Z</time>
      </trkpt>
      <trkpt lat="44.15571" lon="6.08459">
        <ele>1254</ele>
        <time>2022-03-03T10:52:17.000Z</time>
      </trkpt>
      <trkpt lat="44.15571" lon="6.08458">
        <ele>1254</ele>
        <time>2022-03-03T10:52:18.000Z</time>
      </trkpt>
      <trkpt lat="44.15572" lon="6.08458">
        <ele>1254</ele>
        <time>2022-03-03T10:52:19.000Z</time>
      </trkpt>
      <trkpt lat="44.15572" lon="6.08458">
        <ele>1254</ele>
        <time>2022-03-03T10:52:20.000Z</time>
      </trkpt>
      <trkpt lat="44.15573" lon="6.08458">
        <ele>1254</ele>
        <time>2022-03-03T10:52:21.000Z</time>
      </trkpt>
      <trkpt lat="44.15573" lon="6.08457">
        <ele>1254</ele>
        <time>2022-03-03T10:52:22.000Z</time>
      </trkpt>
      <trkpt lat="44.15573" lon="6.08458">
        <ele>1255</ele>
        <time>2022-03-03T10:52:23.000Z</time>
      </trkpt>
      <trkpt lat="44.15573" lon="6.08457">
        <ele>1255</ele>
        <time>2022-03-03T10:52:24.000Z</time>
      </trkpt>
      <trkpt lat="44.15573" lon="6.08457">
        <ele>1255</ele>
        <time>2022-03-03T10:52:25.000Z</time>
      </trkpt>
      <trkpt lat="44.15573" lon="6.08457">
        <ele>1255</ele>
        <time>2022-03-03T10:52:26.000Z</time>
      </trkpt>
      <trkpt lat="44.15573" lon="6.08457">
        <ele>1255</ele>
        <time>2022-03-03T10:52:27.000Z</time>
      </trkpt>
      <trkpt lat="44.15573" lon="6.08457">
        <ele>1255</ele>
        <time>2022-03-03T10:52:28.000Z</time>
      </trkpt>
      <trkpt lat="44.15573" lon="6.08457">
        <ele>1255</ele>
        <time>2022-03-03T10:52:29.000Z</time>
      </trkpt>
      <trkpt lat="44.15573" lon="6.08457">
        <ele>1255</ele>
        <time>2022-03-03T10:52:30.000Z</time>
      </trkpt>
      <trkpt lat="44.15573" lon="6.08457">
        <ele>1255</ele>
        <time>2022-03-03T10:52:31.000Z</time>
      </trkpt>
      <trkpt lat="44.15573" lon="6.08457">
        <ele>1255</ele>
        <time>2022-03-03T10:52:32.000Z</time>
      </trkpt>
      <trkpt lat="44.15573" lon="6.08457">
        <ele>1255</ele>
        <time>2022-03-03T10:52:33.000Z</time>
      </trkpt>
      <trkpt lat="44.15573" lon="6.08457">
        <ele>1255</ele>
        <time>2022-03-03T10:52:34.000Z</time>
      </trkpt>
      <trkpt lat="44.15573" lon="6.08457">
        <ele>1255</ele>
        <time>2022-03-03T10:52:35.000Z</time>
      </trkpt>
      <trkpt lat="44.15573" lon="6.08457">
        <ele>1255</ele>
        <time>2022-03-03T10:52:36.000Z</time>
      </trkpt>
      <trkpt lat="44.15573" lon="6.08457">
        <ele>1255</ele>
        <time>2022-03-03T10:52:37.000Z</time>
      </trkpt>
      <trkpt lat="44.15573" lon="6.08457">
        <ele>1255</ele>
        <time>2022-03-03T10:52:38.000Z</time>
      </trkpt>
      <trkpt lat="44.15573" lon="6.08457">
        <ele>1255</ele>
        <time>2022-03-03T10:52:39.000Z</time>
      </trkpt>
      <trkpt lat="44.15573" lon="6.08457">
        <ele>1255</ele>
        <time>2022-03-03T10:52:40.000Z</time>
      </trkpt>
      <trkpt lat="44.15573" lon="6.08456">
        <ele>1255</ele>
        <time>2022-03-03T10:52:41.000Z</time>
      </trkpt>
      <trkpt lat="44.15574" lon="6.08456">
        <ele>1255</ele>
        <time>2022-03-03T10:52:42.000Z</time>
      </trkpt>
      <trkpt lat="44.15574" lon="6.08456">
        <ele>1255</ele>
        <time>2022-03-03T10:52:43.000Z</time>
      </trkpt>
      <trkpt lat="44.15575" lon="6.08456">
        <ele>1255</ele>
        <time>2022-03-03T10:52:44.000Z</time>
      </trkpt>
      <trkpt lat="44.15575" lon="6.08455">
        <ele>1255</ele>
        <time>2022-03-03T10:52:45.000Z</time>
      </trkpt>
      <trkpt lat="44.15576" lon="6.08455">
        <ele>1255</ele>
        <time>2022-03-03T10:52:46.000Z</time>
      </trkpt>
      <trkpt lat="44.15577" lon="6.08455">
        <ele>1255</ele>
        <time>2022-03-03T10:52:47.000Z</time>
      </trkpt>
      <trkpt lat="44.15577" lon="6.08454">
        <ele>1255</ele>
        <time>2022-03-03T10:52:48.000Z</time>
      </trkpt>
      <trkpt lat="44.15578" lon="6.08454">
        <ele>1255</ele>
        <time>2022-03-03T10:52:49.000Z</time>
      </trkpt>
      <trkpt lat="44.15579" lon="6.08454">
        <ele>1255</ele>
        <time>2022-03-03T10:52:50.000Z</time>
      </trkpt>
      <trkpt lat="44.1558" lon="6.08453">
        <ele>1255</ele>
        <time>2022-03-03T10:52:51.000Z</time>
      </trkpt>
      <trkpt lat="44.1558" lon="6.08453">
        <ele>1256</ele>
        <time>2022-03-03T10:52:52.000Z</time>
      </trkpt>
      <trkpt lat="44.15581" lon="6.08453">
        <ele>1256</ele>
        <time>2022-03-03T10:52:53.000Z</time>
      </trkpt>
      <trkpt lat="44.15581" lon="6.08453">
        <ele>1256</ele>
        <time>2022-03-03T10:52:54.000Z</time>
      </trkpt>
      <trkpt lat="44.15582" lon="6.08452">
        <ele>1256</ele>
        <time>2022-03-03T10:52:55.000Z</time>
      </trkpt>
      <trkpt lat="44.15582" lon="6.08452">
        <ele>1256</ele>
        <time>2022-03-03T10:52:56.000Z</time>
      </trkpt>
      <trkpt lat="44.15583" lon="6.08452">
        <ele>1256</ele>
        <time>2022-03-03T10:52:57.000Z</time>
      </trkpt>
      <trkpt lat="44.15584" lon="6.08451">
        <ele>1256</ele>
        <time>2022-03-03T10:52:58.000Z</time>
      </trkpt>
      <trkpt lat="44.15584" lon="6.08451">
        <ele>1256</ele>
        <time>2022-03-03T10:52:59.000Z</time>
      </trkpt>
      <trkpt lat="44.15585" lon="6.08451">
        <ele>1256</ele>
        <time>2022-03-03T10:53:00.000Z</time>
      </trkpt>
      <trkpt lat="44.15585" lon="6.08451">
        <ele>1256</ele>
        <time>2022-03-03T10:53:01.000Z</time>
      </trkpt>
      <trkpt lat="44.15586" lon="6.0845">
        <ele>1256</ele>
        <time>2022-03-03T10:53:02.000Z</time>
      </trkpt>
      <trkpt lat="44.15586" lon="6.0845">
        <ele>1256</ele>
        <time>2022-03-03T10:53:03.000Z</time>
      </trkpt>
      <trkpt lat="44.15587" lon="6.0845">
        <ele>1256</ele>
        <time>2022-03-03T10:53:04.000Z</time>
      </trkpt>
      <trkpt lat="44.15588" lon="6.0845">
        <ele>1257</ele>
        <time>2022-03-03T10:53:05.000Z</time>
      </trkpt>
      <trkpt lat="44.15588" lon="6.08449">
        <ele>1257</ele>
        <time>2022-03-03T10:53:06.000Z</time>
      </trkpt>
      <trkpt lat="44.15589" lon="6.08449">
        <ele>1257</ele>
        <time>2022-03-03T10:53:07.000Z</time>
      </trkpt>
      <trkpt lat="44.1559" lon="6.08448">
        <ele>1257</ele>
        <time>2022-03-03T10:53:08.000Z</time>
      </trkpt>
      <trkpt lat="44.1559" lon="6.08448">
        <ele>1257</ele>
        <time>2022-03-03T10:53:09.000Z</time>
      </trkpt>
      <trkpt lat="44.15591" lon="6.08447">
        <ele>1257</ele>
        <time>2022-03-03T10:53:10.000Z</time>
      </trkpt>
      <trkpt lat="44.15591" lon="6.08447">
        <ele>1257</ele>
        <time>2022-03-03T10:53:11.000Z</time>
      </trkpt>
      <trkpt lat="44.15592" lon="6.08447">
        <ele>1257</ele>
        <time>2022-03-03T10:53:12.000Z</time>
      </trkpt>
      <trkpt lat="44.15592" lon="6.08446">
        <ele>1257</ele>
        <time>2022-03-03T10:53:13.000Z</time>
      </trkpt>
      <trkpt lat="44.15593" lon="6.08446">
        <ele>1257</ele>
        <time>2022-03-03T10:53:14.000Z</time>
      </trkpt>
      <trkpt lat="44.15594" lon="6.08445">
        <ele>1258</ele>
        <time>2022-03-03T10:53:15.000Z</time>
      </trkpt>
      <trkpt lat="44.15594" lon="6.08445">
        <ele>1258</ele>
        <time>2022-03-03T10:53:16.000Z</time>
      </trkpt>
      <trkpt lat="44.15595" lon="6.08444">
        <ele>1258</ele>
        <time>2022-03-03T10:53:17.000Z</time>
      </trkpt>
      <trkpt lat="44.15595" lon="6.08444">
        <ele>1258</ele>
        <time>2022-03-03T10:53:18.000Z</time>
      </trkpt>
      <trkpt lat="44.15596" lon="6.08443">
        <ele>1258</ele>
        <time>2022-03-03T10:53:19.000Z</time>
      </trkpt>
      <trkpt lat="44.15597" lon="6.08443">
        <ele>1258</ele>
        <time>2022-03-03T10:53:20.000Z</time>
      </trkpt>
      <trkpt lat="44.15598" lon="6.08442">
        <ele>1258</ele>
        <time>2022-03-03T10:53:21.000Z</time>
      </trkpt>
      <trkpt lat="44.15598" lon="6.08442">
        <ele>1259</ele>
        <time>2022-03-03T10:53:22.000Z</time>
      </trkpt>
      <trkpt lat="44.15599" lon="6.08441">
        <ele>1259</ele>
        <time>2022-03-03T10:53:23.000Z</time>
      </trkpt>
      <trkpt lat="44.15599" lon="6.08441">
        <ele>1259</ele>
        <time>2022-03-03T10:53:24.000Z</time>
      </trkpt>
      <trkpt lat="44.156" lon="6.0844">
        <ele>1259</ele>
        <time>2022-03-03T10:53:25.000Z</time>
      </trkpt>
      <trkpt lat="44.156" lon="6.0844">
        <ele>1260</ele>
        <time>2022-03-03T10:53:26.000Z</time>
      </trkpt>
      <trkpt lat="44.15601" lon="6.08439">
        <ele>1260</ele>
        <time>2022-03-03T10:53:27.000Z</time>
      </trkpt>
      <trkpt lat="44.15601" lon="6.08439">
        <ele>1260</ele>
        <time>2022-03-03T10:53:28.000Z</time>
      </trkpt>
      <trkpt lat="44.15602" lon="6.08438">
        <ele>1260</ele>
        <time>2022-03-03T10:53:29.000Z</time>
      </trkpt>
      <trkpt lat="44.15603" lon="6.08438">
        <ele>1260</ele>
        <time>2022-03-03T10:53:30.000Z</time>
      </trkpt>
      <trkpt lat="44.15603" lon="6.08437">
        <ele>1260</ele>
        <time>2022-03-03T10:53:31.000Z</time>
      </trkpt>
      <trkpt lat="44.15604" lon="6.08437">
        <ele>1260</ele>
        <time>2022-03-03T10:53:32.000Z</time>
      </trkpt>
      <trkpt lat="44.15605" lon="6.08436">
        <ele>1261</ele>
        <time>2022-03-03T10:53:33.000Z</time>
      </trkpt>
      <trkpt lat="44.15606" lon="6.08436">
        <ele>1261</ele>
        <time>2022-03-03T10:53:34.000Z</time>
      </trkpt>
      <trkpt lat="44.15606" lon="6.08436">
        <ele>1261</ele>
        <time>2022-03-03T10:53:35.000Z</time>
      </trkpt>
      <trkpt lat="44.15607" lon="6.08435">
        <ele>1261</ele>
        <time>2022-03-03T10:53:36.000Z</time>
      </trkpt>
      <trkpt lat="44.15608" lon="6.08435">
        <ele>1261</ele>
        <time>2022-03-03T10:53:37.000Z</time>
      </trkpt>
      <trkpt lat="44.15608" lon="6.08434">
        <ele>1261</ele>
        <time>2022-03-03T10:53:38.000Z</time>
      </trkpt>
      <trkpt lat="44.15609" lon="6.08434">
        <ele>1261</ele>
        <time>2022-03-03T10:53:39.000Z</time>
      </trkpt>
      <trkpt lat="44.1561" lon="6.08433">
        <ele>1261</ele>
        <time>2022-03-03T10:53:40.000Z</time>
      </trkpt>
      <trkpt lat="44.1561" lon="6.08433">
        <ele>1262</ele>
        <time>2022-03-03T10:53:41.000Z</time>
      </trkpt>
      <trkpt lat="44.15611" lon="6.08433">
        <ele>1262</ele>
        <time>2022-03-03T10:53:42.000Z</time>
      </trkpt>
      <trkpt lat="44.15612" lon="6.08433">
        <ele>1262</ele>
        <time>2022-03-03T10:53:43.000Z</time>
      </trkpt>
      <trkpt lat="44.15612" lon="6.08432">
        <ele>1262</ele>
        <time>2022-03-03T10:53:44.000Z</time>
      </trkpt>
      <trkpt lat="44.15613" lon="6.08432">
        <ele>1262</ele>
        <time>2022-03-03T10:53:45.000Z</time>
      </trkpt>
      <trkpt lat="44.15614" lon="6.08431">
        <ele>1262</ele>
        <time>2022-03-03T10:53:46.000Z</time>
      </trkpt>
      <trkpt lat="44.15614" lon="6.08431">
        <ele>1262</ele>
        <time>2022-03-03T10:53:47.000Z</time>
      </trkpt>
      <trkpt lat="44.15615" lon="6.0843">
        <ele>1263</ele>
        <time>2022-03-03T10:53:48.000Z</time>
      </trkpt>
      <trkpt lat="44.15616" lon="6.0843">
        <ele>1263</ele>
        <time>2022-03-03T10:53:49.000Z</time>
      </trkpt>
      <trkpt lat="44.15616" lon="6.08429">
        <ele>1263</ele>
        <time>2022-03-03T10:53:50.000Z</time>
      </trkpt>
      <trkpt lat="44.15617" lon="6.08428">
        <ele>1263</ele>
        <time>2022-03-03T10:53:51.000Z</time>
      </trkpt>
      <trkpt lat="44.15618" lon="6.08428">
        <ele>1263</ele>
        <time>2022-03-03T10:53:52.000Z</time>
      </trkpt>
      <trkpt lat="44.15618" lon="6.08427">
        <ele>1263</ele>
        <time>2022-03-03T10:53:53.000Z</time>
      </trkpt>
      <trkpt lat="44.15619" lon="6.08427">
        <ele>1263</ele>
        <time>2022-03-03T10:53:54.000Z</time>
      </trkpt>
      <trkpt lat="44.1562" lon="6.08426">
        <ele>1263</ele>
        <time>2022-03-03T10:53:55.000Z</time>
      </trkpt>
      <trkpt lat="44.1562" lon="6.08426">
        <ele>1263</ele>
        <time>2022-03-03T10:53:56.000Z</time>
      </trkpt>
      <trkpt lat="44.15621" lon="6.08425">
        <ele>1263</ele>
        <time>2022-03-03T10:53:57.000Z</time>
      </trkpt>
      <trkpt lat="44.15622" lon="6.08425">
        <ele>1264</ele>
        <time>2022-03-03T10:53:58.000Z</time>
      </trkpt>
      <trkpt lat="44.15622" lon="6.08424">
        <ele>1264</ele>
        <time>2022-03-03T10:53:59.000Z</time>
      </trkpt>
      <trkpt lat="44.15623" lon="6.08424">
        <ele>1264</ele>
        <time>2022-03-03T10:54:00.000Z</time>
      </trkpt>
      <trkpt lat="44.15624" lon="6.08423">
        <ele>1264</ele>
        <time>2022-03-03T10:54:01.000Z</time>
      </trkpt>
      <trkpt lat="44.15624" lon="6.08422">
        <ele>1264</ele>
        <time>2022-03-03T10:54:02.000Z</time>
      </trkpt>
      <trkpt lat="44.15625" lon="6.08422">
        <ele>1264</ele>
        <time>2022-03-03T10:54:03.000Z</time>
      </trkpt>
      <trkpt lat="44.15626" lon="6.08421">
        <ele>1264</ele>
        <time>2022-03-03T10:54:04.000Z</time>
      </trkpt>
      <trkpt lat="44.15626" lon="6.08421">
        <ele>1264</ele>
        <time>2022-03-03T10:54:05.000Z</time>
      </trkpt>
      <trkpt lat="44.15627" lon="6.0842">
        <ele>1264</ele>
        <time>2022-03-03T10:54:06.000Z</time>
      </trkpt>
      <trkpt lat="44.15628" lon="6.08419">
        <ele>1264</ele>
        <time>2022-03-03T10:54:07.000Z</time>
      </trkpt>
      <trkpt lat="44.15628" lon="6.08419">
        <ele>1264</ele>
        <time>2022-03-03T10:54:08.000Z</time>
      </trkpt>
      <trkpt lat="44.15629" lon="6.08418">
        <ele>1265</ele>
        <time>2022-03-03T10:54:09.000Z</time>
      </trkpt>
      <trkpt lat="44.15629" lon="6.08418">
        <ele>1265</ele>
        <time>2022-03-03T10:54:10.000Z</time>
      </trkpt>
      <trkpt lat="44.1563" lon="6.08417">
        <ele>1265</ele>
        <time>2022-03-03T10:54:11.000Z</time>
      </trkpt>
      <trkpt lat="44.1563" lon="6.08417">
        <ele>1265</ele>
        <time>2022-03-03T10:54:12.000Z</time>
      </trkpt>
      <trkpt lat="44.15631" lon="6.08416">
        <ele>1265</ele>
        <time>2022-03-03T10:54:13.000Z</time>
      </trkpt>
      <trkpt lat="44.15632" lon="6.08415">
        <ele>1265</ele>
        <time>2022-03-03T10:54:14.000Z</time>
      </trkpt>
      <trkpt lat="44.15632" lon="6.08415">
        <ele>1265</ele>
        <time>2022-03-03T10:54:15.000Z</time>
      </trkpt>
      <trkpt lat="44.15632" lon="6.08414">
        <ele>1266</ele>
        <time>2022-03-03T10:54:16.000Z</time>
      </trkpt>
      <trkpt lat="44.15633" lon="6.08414">
        <ele>1266</ele>
        <time>2022-03-03T10:54:17.000Z</time>
      </trkpt>
      <trkpt lat="44.15634" lon="6.08413">
        <ele>1266</ele>
        <time>2022-03-03T10:54:18.000Z</time>
      </trkpt>
      <trkpt lat="44.15634" lon="6.08412">
        <ele>1266</ele>
        <time>2022-03-03T10:54:19.000Z</time>
      </trkpt>
      <trkpt lat="44.15635" lon="6.08412">
        <ele>1266</ele>
        <time>2022-03-03T10:54:20.000Z</time>
      </trkpt>
      <trkpt lat="44.15635" lon="6.08411">
        <ele>1266</ele>
        <time>2022-03-03T10:54:21.000Z</time>
      </trkpt>
      <trkpt lat="44.15636" lon="6.0841">
        <ele>1266</ele>
        <time>2022-03-03T10:54:22.000Z</time>
      </trkpt>
      <trkpt lat="44.15637" lon="6.0841">
        <ele>1266</ele>
        <time>2022-03-03T10:54:23.000Z</time>
      </trkpt>
      <trkpt lat="44.15637" lon="6.08409">
        <ele>1266</ele>
        <time>2022-03-03T10:54:24.000Z</time>
      </trkpt>
      <trkpt lat="44.15638" lon="6.08408">
        <ele>1267</ele>
        <time>2022-03-03T10:54:25.000Z</time>
      </trkpt>
      <trkpt lat="44.15638" lon="6.08408">
        <ele>1267</ele>
        <time>2022-03-03T10:54:26.000Z</time>
      </trkpt>
      <trkpt lat="44.15639" lon="6.08407">
        <ele>1267</ele>
        <time>2022-03-03T10:54:27.000Z</time>
      </trkpt>
      <trkpt lat="44.1564" lon="6.08407">
        <ele>1267</ele>
        <time>2022-03-03T10:54:28.000Z</time>
      </trkpt>
      <trkpt lat="44.1564" lon="6.08406">
        <ele>1267</ele>
        <time>2022-03-03T10:54:29.000Z</time>
      </trkpt>
      <trkpt lat="44.15641" lon="6.08405">
        <ele>1267</ele>
        <time>2022-03-03T10:54:30.000Z</time>
      </trkpt>
      <trkpt lat="44.15642" lon="6.08405">
        <ele>1267</ele>
        <time>2022-03-03T10:54:31.000Z</time>
      </trkpt>
      <trkpt lat="44.15642" lon="6.08404">
        <ele>1267</ele>
        <time>2022-03-03T10:54:32.000Z</time>
      </trkpt>
      <trkpt lat="44.15643" lon="6.08403">
        <ele>1267</ele>
        <time>2022-03-03T10:54:33.000Z</time>
      </trkpt>
      <trkpt lat="44.15643" lon="6.08403">
        <ele>1267</ele>
        <time>2022-03-03T10:54:34.000Z</time>
      </trkpt>
      <trkpt lat="44.15644" lon="6.08402">
        <ele>1267</ele>
        <time>2022-03-03T10:54:35.000Z</time>
      </trkpt>
      <trkpt lat="44.15645" lon="6.08402">
        <ele>1268</ele>
        <time>2022-03-03T10:54:36.000Z</time>
      </trkpt>
      <trkpt lat="44.15645" lon="6.08401">
        <ele>1268</ele>
        <time>2022-03-03T10:54:37.000Z</time>
      </trkpt>
      <trkpt lat="44.15646" lon="6.084">
        <ele>1268</ele>
        <time>2022-03-03T10:54:38.000Z</time>
      </trkpt>
      <trkpt lat="44.15647" lon="6.084">
        <ele>1268</ele>
        <time>2022-03-03T10:54:39.000Z</time>
      </trkpt>
      <trkpt lat="44.15647" lon="6.08399">
        <ele>1268</ele>
        <time>2022-03-03T10:54:40.000Z</time>
      </trkpt>
      <trkpt lat="44.15648" lon="6.08399">
        <ele>1268</ele>
        <time>2022-03-03T10:54:41.000Z</time>
      </trkpt>
      <trkpt lat="44.15649" lon="6.08398">
        <ele>1268</ele>
        <time>2022-03-03T10:54:42.000Z</time>
      </trkpt>
      <trkpt lat="44.15649" lon="6.08398">
        <ele>1268</ele>
        <time>2022-03-03T10:54:43.000Z</time>
      </trkpt>
      <trkpt lat="44.1565" lon="6.08398">
        <ele>1268</ele>
        <time>2022-03-03T10:54:44.000Z</time>
      </trkpt>
      <trkpt lat="44.15651" lon="6.08397">
        <ele>1268</ele>
        <time>2022-03-03T10:54:45.000Z</time>
      </trkpt>
      <trkpt lat="44.15651" lon="6.08397">
        <ele>1268</ele>
        <time>2022-03-03T10:54:46.000Z</time>
      </trkpt>
      <trkpt lat="44.15652" lon="6.08396">
        <ele>1268</ele>
        <time>2022-03-03T10:54:47.000Z</time>
      </trkpt>
      <trkpt lat="44.15653" lon="6.08396">
        <ele>1268</ele>
        <time>2022-03-03T10:54:48.000Z</time>
      </trkpt>
      <trkpt lat="44.15653" lon="6.08395">
        <ele>1268</ele>
        <time>2022-03-03T10:54:49.000Z</time>
      </trkpt>
      <trkpt lat="44.15654" lon="6.08394">
        <ele>1268</ele>
        <time>2022-03-03T10:54:50.000Z</time>
      </trkpt>
      <trkpt lat="44.15654" lon="6.08394">
        <ele>1268</ele>
        <time>2022-03-03T10:54:51.000Z</time>
      </trkpt>
      <trkpt lat="44.15655" lon="6.08393">
        <ele>1268</ele>
        <time>2022-03-03T10:54:52.000Z</time>
      </trkpt>
      <trkpt lat="44.15655" lon="6.08392">
        <ele>1268</ele>
        <time>2022-03-03T10:54:53.000Z</time>
      </trkpt>
      <trkpt lat="44.15656" lon="6.08392">
        <ele>1268</ele>
        <time>2022-03-03T10:54:54.000Z</time>
      </trkpt>
      <trkpt lat="44.15656" lon="6.08392">
        <ele>1269</ele>
        <time>2022-03-03T10:54:55.000Z</time>
      </trkpt>
      <trkpt lat="44.15657" lon="6.08392">
        <ele>1269</ele>
        <time>2022-03-03T10:54:56.000Z</time>
      </trkpt>
      <trkpt lat="44.15657" lon="6.08392">
        <ele>1269</ele>
        <time>2022-03-03T10:54:57.000Z</time>
      </trkpt>
      <trkpt lat="44.15657" lon="6.08392">
        <ele>1269</ele>
        <time>2022-03-03T10:54:58.000Z</time>
      </trkpt>
      <trkpt lat="44.15657" lon="6.08392">
        <ele>1269</ele>
        <time>2022-03-03T10:54:59.000Z</time>
      </trkpt>
      <trkpt lat="44.15657" lon="6.08391">
        <ele>1269</ele>
        <time>2022-03-03T10:55:00.000Z</time>
      </trkpt>
      <trkpt lat="44.15657" lon="6.08391">
        <ele>1269</ele>
        <time>2022-03-03T10:55:01.000Z</time>
      </trkpt>
      <trkpt lat="44.15657" lon="6.08391">
        <ele>1269</ele>
        <time>2022-03-03T10:55:02.000Z</time>
      </trkpt>
      <trkpt lat="44.15657" lon="6.08391">
        <ele>1269</ele>
        <time>2022-03-03T10:55:03.000Z</time>
      </trkpt>
      <trkpt lat="44.15657" lon="6.08391">
        <ele>1269</ele>
        <time>2022-03-03T10:55:04.000Z</time>
      </trkpt>
      <trkpt lat="44.15657" lon="6.08391">
        <ele>1269</ele>
        <time>2022-03-03T10:55:05.000Z</time>
      </trkpt>
      <trkpt lat="44.15657" lon="6.08391">
        <ele>1269</ele>
        <time>2022-03-03T10:55:06.000Z</time>
      </trkpt>
      <trkpt lat="44.15657" lon="6.08391">
        <ele>1269</ele>
        <time>2022-03-03T10:55:07.000Z</time>
      </trkpt>
      <trkpt lat="44.15657" lon="6.08391">
        <ele>1269</ele>
        <time>2022-03-03T10:55:08.000Z</time>
      </trkpt>
      <trkpt lat="44.15657" lon="6.08391">
        <ele>1269</ele>
        <time>2022-03-03T10:55:09.000Z</time>
      </trkpt>
      <trkpt lat="44.15657" lon="6.08391">
        <ele>1269</ele>
        <time>2022-03-03T10:55:10.000Z</time>
      </trkpt>
      <trkpt lat="44.15657" lon="6.08391">
        <ele>1269</ele>
        <time>2022-03-03T10:55:11.000Z</time>
      </trkpt>
      <trkpt lat="44.15657" lon="6.08391">
        <ele>1269</ele>
        <time>2022-03-03T10:55:12.000Z</time>
      </trkpt>
      <trkpt lat="44.15657" lon="6.08391">
        <ele>1269</ele>
        <time>2022-03-03T10:55:13.000Z</time>
      </trkpt>
      <trkpt lat="44.15657" lon="6.08391">
        <ele>1269</ele>
        <time>2022-03-03T10:55:14.000Z</time>
      </trkpt>
      <trkpt lat="44.15657" lon="6.08391">
        <ele>1269</ele>
        <time>2022-03-03T10:55:15.000Z</time>
      </trkpt>
      <trkpt lat="44.15657" lon="6.08391">
        <ele>1269</ele>
        <time>2022-03-03T10:55:16.000Z</time>
      </trkpt>
      <trkpt lat="44.15657" lon="6.08391">
        <ele>1269</ele>
        <time>2022-03-03T10:55:17.000Z</time>
      </trkpt>
      <trkpt lat="44.15657" lon="6.08391">
        <ele>1269</ele>
        <time>2022-03-03T10:55:18.000Z</time>
      </trkpt>
      <trkpt lat="44.15657" lon="6.08391">
        <ele>1269</ele>
        <time>2022-03-03T10:55:19.000Z</time>
      </trkpt>
      <trkpt lat="44.15657" lon="6.08391">
        <ele>1269</ele>
        <time>2022-03-03T10:55:20.000Z</time>
      </trkpt>
      <trkpt lat="44.15657" lon="6.08391">
        <ele>1269</ele>
        <time>2022-03-03T10:55:21.000Z</time>
      </trkpt>
      <trkpt lat="44.15657" lon="6.08391">
        <ele>1269</ele>
        <time>2022-03-03T10:55:22.000Z</time>
      </trkpt>
      <trkpt lat="44.15657" lon="6.08391">
        <ele>1269</ele>
        <time>2022-03-03T10:55:23.000Z</time>
      </trkpt>
      <trkpt lat="44.15657" lon="6.08391">
        <ele>1269</ele>
        <time>2022-03-03T10:55:24.000Z</time>
      </trkpt>
      <trkpt lat="44.15657" lon="6.08391">
        <ele>1269</ele>
        <time>2022-03-03T10:55:25.000Z</time>
      </trkpt>
      <trkpt lat="44.15657" lon="6.08391">
        <ele>1269</ele>
        <time>2022-03-03T10:55:26.000Z</time>
      </trkpt>
      <trkpt lat="44.15657" lon="6.08391">
        <ele>1269</ele>
        <time>2022-03-03T10:55:27.000Z</time>
      </trkpt>
      <trkpt lat="44.15657" lon="6.08391">
        <ele>1270</ele>
        <time>2022-03-03T10:55:28.000Z</time>
      </trkpt>
      <trkpt lat="44.15657" lon="6.08391">
        <ele>1270</ele>
        <time>2022-03-03T10:55:29.000Z</time>
      </trkpt>
      <trkpt lat="44.15657" lon="6.08391">
        <ele>1270</ele>
        <time>2022-03-03T10:55:30.000Z</time>
      </trkpt>
      <trkpt lat="44.15657" lon="6.08391">
        <ele>1270</ele>
        <time>2022-03-03T10:55:31.000Z</time>
      </trkpt>
      <trkpt lat="44.15657" lon="6.08391">
        <ele>1270</ele>
        <time>2022-03-03T10:55:32.000Z</time>
      </trkpt>
      <trkpt lat="44.15657" lon="6.08391">
        <ele>1270</ele>
        <time>2022-03-03T10:55:33.000Z</time>
      </trkpt>
      <trkpt lat="44.15657" lon="6.08391">
        <ele>1270</ele>
        <time>2022-03-03T10:55:34.000Z</time>
      </trkpt>
      <trkpt lat="44.15657" lon="6.08391">
        <ele>1270</ele>
        <time>2022-03-03T10:55:35.000Z</time>
      </trkpt>
      <trkpt lat="44.15657" lon="6.08391">
        <ele>1270</ele>
        <time>2022-03-03T10:55:36.000Z</time>
      </trkpt>
      <trkpt lat="44.15657" lon="6.08391">
        <ele>1270</ele>
        <time>2022-03-03T10:55:37.000Z</time>
      </trkpt>
      <trkpt lat="44.15657" lon="6.08391">
        <ele>1270</ele>
        <time>2022-03-03T10:55:38.000Z</time>
      </trkpt>
      <trkpt lat="44.15657" lon="6.08391">
        <ele>1270</ele>
        <time>2022-03-03T10:55:39.000Z</time>
      </trkpt>
      <trkpt lat="44.15657" lon="6.08391">
        <ele>1270</ele>
        <time>2022-03-03T10:55:40.000Z</time>
      </trkpt>
      <trkpt lat="44.15657" lon="6.08391">
        <ele>1270</ele>
        <time>2022-03-03T10:55:41.000Z</time>
      </trkpt>
      <trkpt lat="44.15657" lon="6.08391">
        <ele>1270</ele>
        <time>2022-03-03T10:55:42.000Z</time>
      </trkpt>
      <trkpt lat="44.15657" lon="6.08391">
        <ele>1270</ele>
        <time>2022-03-03T10:55:43.000Z</time>
      </trkpt>
      <trkpt lat="44.15657" lon="6.08391">
        <ele>1270</ele>
        <time>2022-03-03T10:55:44.000Z</time>
      </trkpt>
      <trkpt lat="44.15657" lon="6.08391">
        <ele>1270</ele>
        <time>2022-03-03T10:55:45.000Z</time>
      </trkpt>
      <trkpt lat="44.15657" lon="6.08391">
        <ele>1270</ele>
        <time>2022-03-03T10:55:46.000Z</time>
      </trkpt>
      <trkpt lat="44.15657" lon="6.08391">
        <ele>1270</ele>
        <time>2022-03-03T10:55:47.000Z</time>
      </trkpt>
      <trkpt lat="44.15657" lon="6.08391">
        <ele>1270</ele>
        <time>2022-03-03T10:55:48.000Z</time>
      </trkpt>
      <trkpt lat="44.15657" lon="6.08391">
        <ele>1270</ele>
        <time>2022-03-03T10:55:49.000Z</time>
      </trkpt>
      <trkpt lat="44.15657" lon="6.08391">
        <ele>1270</ele>
        <time>2022-03-03T10:55:50.000Z</time>
      </trkpt>
      <trkpt lat="44.15657" lon="6.08391">
        <ele>1270</ele>
        <time>2022-03-03T10:55:51.000Z</time>
      </trkpt>
      <trkpt lat="44.15657" lon="6.08391">
        <ele>1270</ele>
        <time>2022-03-03T10:55:52.000Z</time>
      </trkpt>
      <trkpt lat="44.15657" lon="6.08391">
        <ele>1270</ele>
        <time>2022-03-03T10:55:53.000Z</time>
      </trkpt>
      <trkpt lat="44.15657" lon="6.08391">
        <ele>1270</ele>
        <time>2022-03-03T10:55:54.000Z</time>
      </trkpt>
      <trkpt lat="44.15657" lon="6.08391">
        <ele>1270</ele>
        <time>2022-03-03T10:55:55.000Z</time>
      </trkpt>
      <trkpt lat="44.15657" lon="6.08391">
        <ele>1270</ele>
        <time>2022-03-03T10:55:56.000Z</time>
      </trkpt>
      <trkpt lat="44.15657" lon="6.08391">
        <ele>1270</ele>
        <time>2022-03-03T10:55:57.000Z</time>
      </trkpt>
      <trkpt lat="44.15657" lon="6.08391">
        <ele>1270</ele>
        <time>2022-03-03T10:55:58.000Z</time>
      </trkpt>
      <trkpt lat="44.15657" lon="6.08391">
        <ele>1270</ele>
        <time>2022-03-03T10:55:59.000Z</time>
      </trkpt>
      <trkpt lat="44.15657" lon="6.08391">
        <ele>1270</ele>
        <time>2022-03-03T10:56:00.000Z</time>
      </trkpt>
      <trkpt lat="44.15657" lon="6.08391">
        <ele>1270</ele>
        <time>2022-03-03T10:56:01.000Z</time>
      </trkpt>
      <trkpt lat="44.15657" lon="6.08391">
        <ele>1270</ele>
        <time>2022-03-03T10:56:02.000Z</time>
      </trkpt>
      <trkpt lat="44.15657" lon="6.08391">
        <ele>1270</ele>
        <time>2022-03-03T10:56:03.000Z</time>
      </trkpt>
      <trkpt lat="44.15657" lon="6.08391">
        <ele>1270</ele>
        <time>2022-03-03T10:56:04.000Z</time>
      </trkpt>
      <trkpt lat="44.15657" lon="6.08391">
        <ele>1270</ele>
        <time>2022-03-03T10:56:05.000Z</time>
      </trkpt>
      <trkpt lat="44.15657" lon="6.08391">
        <ele>1270</ele>
        <time>2022-03-03T10:56:06.000Z</time>
      </trkpt>
      <trkpt lat="44.15657" lon="6.08391">
        <ele>1270</ele>
        <time>2022-03-03T10:56:07.000Z</time>
      </trkpt>
      <trkpt lat="44.15657" lon="6.08391">
        <ele>1270</ele>
        <time>2022-03-03T10:56:08.000Z</time>
      </trkpt>
      <trkpt lat="44.15657" lon="6.08391">
        <ele>1270</ele>
        <time>2022-03-03T10:56:09.000Z</time>
      </trkpt>
      <trkpt lat="44.15657" lon="6.08391">
        <ele>1270</ele>
        <time>2022-03-03T10:56:10.000Z</time>
      </trkpt>
      <trkpt lat="44.15657" lon="6.08391">
        <ele>1270</ele>
        <time>2022-03-03T10:56:11.000Z</time>
      </trkpt>
      <trkpt lat="44.15657" lon="6.08391">
        <ele>1270</ele>
        <time>2022-03-03T10:56:12.000Z</time>
      </trkpt>
      <trkpt lat="44.15657" lon="6.08391">
        <ele>1270</ele>
        <time>2022-03-03T10:56:13.000Z</time>
      </trkpt>
      <trkpt lat="44.15657" lon="6.08391">
        <ele>1270</ele>
        <time>2022-03-03T10:56:14.000Z</time>
      </trkpt>
      <trkpt lat="44.15657" lon="6.08391">
        <ele>1270</ele>
        <time>2022-03-03T10:56:15.000Z</time>
      </trkpt>
      <trkpt lat="44.15657" lon="6.08391">
        <ele>1270</ele>
        <time>2022-03-03T10:56:16.000Z</time>
      </trkpt>
      <trkpt lat="44.15657" lon="6.08391">
        <ele>1270</ele>
        <time>2022-03-03T10:56:17.000Z</time>
      </trkpt>
      <trkpt lat="44.15657" lon="6.0839">
        <ele>1270</ele>
        <time>2022-03-03T10:56:18.000Z</time>
      </trkpt>
      <trkpt lat="44.15657" lon="6.0839">
        <ele>1270</ele>
        <time>2022-03-03T10:56:19.000Z</time>
      </trkpt>
      <trkpt lat="44.15657" lon="6.0839">
        <ele>1270</ele>
        <time>2022-03-03T10:56:20.000Z</time>
      </trkpt>
      <trkpt lat="44.15657" lon="6.0839">
        <ele>1270</ele>
        <time>2022-03-03T10:56:21.000Z</time>
      </trkpt>
      <trkpt lat="44.15657" lon="6.0839">
        <ele>1270</ele>
        <time>2022-03-03T10:56:22.000Z</time>
      </trkpt>
      <trkpt lat="44.15657" lon="6.0839">
        <ele>1270</ele>
        <time>2022-03-03T10:56:23.000Z</time>
      </trkpt>
      <trkpt lat="44.15657" lon="6.0839">
        <ele>1270</ele>
        <time>2022-03-03T10:56:24.000Z</time>
      </trkpt>
      <trkpt lat="44.15658" lon="6.0839">
        <ele>1270</ele>
        <time>2022-03-03T10:56:25.000Z</time>
      </trkpt>
      <trkpt lat="44.15658" lon="6.08389">
        <ele>1270</ele>
        <time>2022-03-03T10:56:26.000Z</time>
      </trkpt>
      <trkpt lat="44.15659" lon="6.08388">
        <ele>1270</ele>
        <time>2022-03-03T10:56:27.000Z</time>
      </trkpt>
      <trkpt lat="44.1566" lon="6.08388">
        <ele>1270</ele>
        <time>2022-03-03T10:56:28.000Z</time>
      </trkpt>
      <trkpt lat="44.1566" lon="6.08387">
        <ele>1270</ele>
        <time>2022-03-03T10:56:29.000Z</time>
      </trkpt>
      <trkpt lat="44.15661" lon="6.08387">
        <ele>1270</ele>
        <time>2022-03-03T10:56:30.000Z</time>
      </trkpt>
      <trkpt lat="44.15662" lon="6.08386">
        <ele>1270</ele>
        <time>2022-03-03T10:56:31.000Z</time>
      </trkpt>
      <trkpt lat="44.15662" lon="6.08385">
        <ele>1271</ele>
        <time>2022-03-03T10:56:32.000Z</time>
      </trkpt>
      <trkpt lat="44.15663" lon="6.08384">
        <ele>1271</ele>
        <time>2022-03-03T10:56:33.000Z</time>
      </trkpt>
      <trkpt lat="44.15664" lon="6.08384">
        <ele>1271</ele>
        <time>2022-03-03T10:56:34.000Z</time>
      </trkpt>
      <trkpt lat="44.15664" lon="6.08383">
        <ele>1271</ele>
        <time>2022-03-03T10:56:35.000Z</time>
      </trkpt>
      <trkpt lat="44.15665" lon="6.08383">
        <ele>1271</ele>
        <time>2022-03-03T10:56:36.000Z</time>
      </trkpt>
      <trkpt lat="44.15666" lon="6.08382">
        <ele>1271</ele>
        <time>2022-03-03T10:56:37.000Z</time>
      </trkpt>
      <trkpt lat="44.15666" lon="6.08381">
        <ele>1271</ele>
        <time>2022-03-03T10:56:38.000Z</time>
      </trkpt>
      <trkpt lat="44.15667" lon="6.08381">
        <ele>1272</ele>
        <time>2022-03-03T10:56:39.000Z</time>
      </trkpt>
      <trkpt lat="44.15668" lon="6.0838">
        <ele>1272</ele>
        <time>2022-03-03T10:56:40.000Z</time>
      </trkpt>
      <trkpt lat="44.15669" lon="6.08379">
        <ele>1272</ele>
        <time>2022-03-03T10:56:41.000Z</time>
      </trkpt>
      <trkpt lat="44.15669" lon="6.08379">
        <ele>1272</ele>
        <time>2022-03-03T10:56:42.000Z</time>
      </trkpt>
      <trkpt lat="44.1567" lon="6.08378">
        <ele>1272</ele>
        <time>2022-03-03T10:56:43.000Z</time>
      </trkpt>
      <trkpt lat="44.1567" lon="6.08377">
        <ele>1273</ele>
        <time>2022-03-03T10:56:44.000Z</time>
      </trkpt>
      <trkpt lat="44.15671" lon="6.08377">
        <ele>1273</ele>
        <time>2022-03-03T10:56:45.000Z</time>
      </trkpt>
      <trkpt lat="44.15672" lon="6.08376">
        <ele>1273</ele>
        <time>2022-03-03T10:56:46.000Z</time>
      </trkpt>
      <trkpt lat="44.15672" lon="6.08375">
        <ele>1273</ele>
        <time>2022-03-03T10:56:47.000Z</time>
      </trkpt>
      <trkpt lat="44.15673" lon="6.08375">
        <ele>1273</ele>
        <time>2022-03-03T10:56:48.000Z</time>
      </trkpt>
      <trkpt lat="44.15674" lon="6.08374">
        <ele>1273</ele>
        <time>2022-03-03T10:56:49.000Z</time>
      </trkpt>
      <trkpt lat="44.15674" lon="6.08373">
        <ele>1273</ele>
        <time>2022-03-03T10:56:50.000Z</time>
      </trkpt>
      <trkpt lat="44.15675" lon="6.08373">
        <ele>1274</ele>
        <time>2022-03-03T10:56:51.000Z</time>
      </trkpt>
      <trkpt lat="44.15676" lon="6.08372">
        <ele>1274</ele>
        <time>2022-03-03T10:56:52.000Z</time>
      </trkpt>
      <trkpt lat="44.15677" lon="6.08371">
        <ele>1274</ele>
        <time>2022-03-03T10:56:53.000Z</time>
      </trkpt>
      <trkpt lat="44.15677" lon="6.08371">
        <ele>1274</ele>
        <time>2022-03-03T10:56:54.000Z</time>
      </trkpt>
      <trkpt lat="44.15678" lon="6.0837">
        <ele>1274</ele>
        <time>2022-03-03T10:56:55.000Z</time>
      </trkpt>
      <trkpt lat="44.15678" lon="6.08369">
        <ele>1274</ele>
        <time>2022-03-03T10:56:56.000Z</time>
      </trkpt>
      <trkpt lat="44.15679" lon="6.08368">
        <ele>1275</ele>
        <time>2022-03-03T10:56:57.000Z</time>
      </trkpt>
      <trkpt lat="44.1568" lon="6.08368">
        <ele>1275</ele>
        <time>2022-03-03T10:56:58.000Z</time>
      </trkpt>
      <trkpt lat="44.1568" lon="6.08367">
        <ele>1275</ele>
        <time>2022-03-03T10:56:59.000Z</time>
      </trkpt>
      <trkpt lat="44.15681" lon="6.08367">
        <ele>1275</ele>
        <time>2022-03-03T10:57:00.000Z</time>
      </trkpt>
      <trkpt lat="44.15682" lon="6.08366">
        <ele>1275</ele>
        <time>2022-03-03T10:57:01.000Z</time>
      </trkpt>
      <trkpt lat="44.15682" lon="6.08365">
        <ele>1275</ele>
        <time>2022-03-03T10:57:02.000Z</time>
      </trkpt>
      <trkpt lat="44.15683" lon="6.08365">
        <ele>1275</ele>
        <time>2022-03-03T10:57:03.000Z</time>
      </trkpt>
      <trkpt lat="44.15684" lon="6.08364">
        <ele>1276</ele>
        <time>2022-03-03T10:57:04.000Z</time>
      </trkpt>
      <trkpt lat="44.15684" lon="6.08364">
        <ele>1276</ele>
        <time>2022-03-03T10:57:05.000Z</time>
      </trkpt>
      <trkpt lat="44.15685" lon="6.08363">
        <ele>1276</ele>
        <time>2022-03-03T10:57:06.000Z</time>
      </trkpt>
      <trkpt lat="44.15685" lon="6.08363">
        <ele>1276</ele>
        <time>2022-03-03T10:57:07.000Z</time>
      </trkpt>
      <trkpt lat="44.15686" lon="6.08362">
        <ele>1276</ele>
        <time>2022-03-03T10:57:08.000Z</time>
      </trkpt>
      <trkpt lat="44.15687" lon="6.08362">
        <ele>1276</ele>
        <time>2022-03-03T10:57:09.000Z</time>
      </trkpt>
      <trkpt lat="44.15687" lon="6.08361">
        <ele>1276</ele>
        <time>2022-03-03T10:57:10.000Z</time>
      </trkpt>
      <trkpt lat="44.15688" lon="6.08361">
        <ele>1276</ele>
        <time>2022-03-03T10:57:11.000Z</time>
      </trkpt>
      <trkpt lat="44.15689" lon="6.0836">
        <ele>1276</ele>
        <time>2022-03-03T10:57:12.000Z</time>
      </trkpt>
      <trkpt lat="44.15689" lon="6.0836">
        <ele>1276</ele>
        <time>2022-03-03T10:57:13.000Z</time>
      </trkpt>
      <trkpt lat="44.1569" lon="6.08359">
        <ele>1276</ele>
        <time>2022-03-03T10:57:14.000Z</time>
      </trkpt>
      <trkpt lat="44.15691" lon="6.08359">
        <ele>1277</ele>
        <time>2022-03-03T10:57:15.000Z</time>
      </trkpt>
      <trkpt lat="44.15691" lon="6.08358">
        <ele>1277</ele>
        <time>2022-03-03T10:57:16.000Z</time>
      </trkpt>
      <trkpt lat="44.15692" lon="6.08358">
        <ele>1277</ele>
        <time>2022-03-03T10:57:17.000Z</time>
      </trkpt>
      <trkpt lat="44.15693" lon="6.08358">
        <ele>1277</ele>
        <time>2022-03-03T10:57:18.000Z</time>
      </trkpt>
      <trkpt lat="44.15694" lon="6.08357">
        <ele>1277</ele>
        <time>2022-03-03T10:57:19.000Z</time>
      </trkpt>
      <trkpt lat="44.15694" lon="6.08357">
        <ele>1277</ele>
        <time>2022-03-03T10:57:20.000Z</time>
      </trkpt>
      <trkpt lat="44.15695" lon="6.08356">
        <ele>1277</ele>
        <time>2022-03-03T10:57:21.000Z</time>
      </trkpt>
      <trkpt lat="44.15695" lon="6.08356">
        <ele>1277</ele>
        <time>2022-03-03T10:57:22.000Z</time>
      </trkpt>
      <trkpt lat="44.15695" lon="6.08355">
        <ele>1277</ele>
        <time>2022-03-03T10:57:23.000Z</time>
      </trkpt>
      <trkpt lat="44.15696" lon="6.08354">
        <ele>1277</ele>
        <time>2022-03-03T10:57:24.000Z</time>
      </trkpt>
      <trkpt lat="44.15696" lon="6.08354">
        <ele>1277</ele>
        <time>2022-03-03T10:57:25.000Z</time>
      </trkpt>
      <trkpt lat="44.15697" lon="6.08353">
        <ele>1278</ele>
        <time>2022-03-03T10:57:26.000Z</time>
      </trkpt>
      <trkpt lat="44.15697" lon="6.08353">
        <ele>1278</ele>
        <time>2022-03-03T10:57:27.000Z</time>
      </trkpt>
      <trkpt lat="44.15698" lon="6.08352">
        <ele>1278</ele>
        <time>2022-03-03T10:57:28.000Z</time>
      </trkpt>
      <trkpt lat="44.15699" lon="6.08351">
        <ele>1278</ele>
        <time>2022-03-03T10:57:29.000Z</time>
      </trkpt>
      <trkpt lat="44.15699" lon="6.08351">
        <ele>1278</ele>
        <time>2022-03-03T10:57:30.000Z</time>
      </trkpt>
      <trkpt lat="44.157" lon="6.0835">
        <ele>1278</ele>
        <time>2022-03-03T10:57:31.000Z</time>
      </trkpt>
      <trkpt lat="44.157" lon="6.08349">
        <ele>1278</ele>
        <time>2022-03-03T10:57:32.000Z</time>
      </trkpt>
      <trkpt lat="44.15701" lon="6.08349">
        <ele>1279</ele>
        <time>2022-03-03T10:57:33.000Z</time>
      </trkpt>
      <trkpt lat="44.15701" lon="6.08349">
        <ele>1279</ele>
        <time>2022-03-03T10:57:34.000Z</time>
      </trkpt>
      <trkpt lat="44.15701" lon="6.08349">
        <ele>1279</ele>
        <time>2022-03-03T10:57:35.000Z</time>
      </trkpt>
      <trkpt lat="44.15702" lon="6.08349">
        <ele>1279</ele>
        <time>2022-03-03T10:57:36.000Z</time>
      </trkpt>
      <trkpt lat="44.15701" lon="6.08349">
        <ele>1279</ele>
        <time>2022-03-03T10:57:37.000Z</time>
      </trkpt>
      <trkpt lat="44.15701" lon="6.08348">
        <ele>1279</ele>
        <time>2022-03-03T10:57:38.000Z</time>
      </trkpt>
      <trkpt lat="44.15701" lon="6.08348">
        <ele>1279</ele>
        <time>2022-03-03T10:57:39.000Z</time>
      </trkpt>
      <trkpt lat="44.15701" lon="6.08348">
        <ele>1279</ele>
        <time>2022-03-03T10:57:40.000Z</time>
      </trkpt>
      <trkpt lat="44.15701" lon="6.08348">
        <ele>1279</ele>
        <time>2022-03-03T10:57:41.000Z</time>
      </trkpt>
      <trkpt lat="44.15701" lon="6.08348">
        <ele>1279</ele>
        <time>2022-03-03T10:57:42.000Z</time>
      </trkpt>
      <trkpt lat="44.15701" lon="6.08348">
        <ele>1279</ele>
        <time>2022-03-03T10:57:43.000Z</time>
      </trkpt>
      <trkpt lat="44.15701" lon="6.08348">
        <ele>1279</ele>
        <time>2022-03-03T10:57:44.000Z</time>
      </trkpt>
      <trkpt lat="44.15701" lon="6.08348">
        <ele>1279</ele>
        <time>2022-03-03T10:57:45.000Z</time>
      </trkpt>
      <trkpt lat="44.15701" lon="6.08348">
        <ele>1279</ele>
        <time>2022-03-03T10:57:46.000Z</time>
      </trkpt>
      <trkpt lat="44.15701" lon="6.08348">
        <ele>1279</ele>
        <time>2022-03-03T10:57:47.000Z</time>
      </trkpt>
      <trkpt lat="44.15701" lon="6.08348">
        <ele>1279</ele>
        <time>2022-03-03T10:57:48.000Z</time>
      </trkpt>
      <trkpt lat="44.15702" lon="6.08348">
        <ele>1279</ele>
        <time>2022-03-03T10:57:49.000Z</time>
      </trkpt>
      <trkpt lat="44.15702" lon="6.08348">
        <ele>1279</ele>
        <time>2022-03-03T10:57:50.000Z</time>
      </trkpt>
      <trkpt lat="44.15701" lon="6.08348">
        <ele>1279</ele>
        <time>2022-03-03T10:57:51.000Z</time>
      </trkpt>
      <trkpt lat="44.15701" lon="6.08348">
        <ele>1279</ele>
        <time>2022-03-03T10:57:52.000Z</time>
      </trkpt>
      <trkpt lat="44.15701" lon="6.08348">
        <ele>1279</ele>
        <time>2022-03-03T10:57:53.000Z</time>
      </trkpt>
      <trkpt lat="44.15701" lon="6.08348">
        <ele>1279</ele>
        <time>2022-03-03T10:57:54.000Z</time>
      </trkpt>
      <trkpt lat="44.15701" lon="6.08348">
        <ele>1279</ele>
        <time>2022-03-03T10:57:55.000Z</time>
      </trkpt>
      <trkpt lat="44.15701" lon="6.08348">
        <ele>1279</ele>
        <time>2022-03-03T10:57:56.000Z</time>
      </trkpt>
      <trkpt lat="44.15701" lon="6.08348">
        <ele>1279</ele>
        <time>2022-03-03T10:57:57.000Z</time>
      </trkpt>
      <trkpt lat="44.15701" lon="6.08348">
        <ele>1279</ele>
        <time>2022-03-03T10:57:58.000Z</time>
      </trkpt>
      <trkpt lat="44.15701" lon="6.08348">
        <ele>1279</ele>
        <time>2022-03-03T10:57:59.000Z</time>
      </trkpt>
      <trkpt lat="44.15701" lon="6.08348">
        <ele>1279</ele>
        <time>2022-03-03T10:58:00.000Z</time>
      </trkpt>
      <trkpt lat="44.15701" lon="6.08348">
        <ele>1279</ele>
        <time>2022-03-03T10:58:01.000Z</time>
      </trkpt>
      <trkpt lat="44.15701" lon="6.08348">
        <ele>1279</ele>
        <time>2022-03-03T10:58:02.000Z</time>
      </trkpt>
      <trkpt lat="44.15701" lon="6.08348">
        <ele>1279</ele>
        <time>2022-03-03T10:58:03.000Z</time>
      </trkpt>
      <trkpt lat="44.15701" lon="6.08348">
        <ele>1279</ele>
        <time>2022-03-03T10:58:04.000Z</time>
      </trkpt>
      <trkpt lat="44.15701" lon="6.08348">
        <ele>1279</ele>
        <time>2022-03-03T10:58:05.000Z</time>
      </trkpt>
      <trkpt lat="44.15701" lon="6.08348">
        <ele>1279</ele>
        <time>2022-03-03T10:58:06.000Z</time>
      </trkpt>
      <trkpt lat="44.15701" lon="6.08348">
        <ele>1279</ele>
        <time>2022-03-03T10:58:07.000Z</time>
      </trkpt>
      <trkpt lat="44.15701" lon="6.08348">
        <ele>1279</ele>
        <time>2022-03-03T10:58:08.000Z</time>
      </trkpt>
      <trkpt lat="44.15701" lon="6.08348">
        <ele>1279</ele>
        <time>2022-03-03T10:58:09.000Z</time>
      </trkpt>
      <trkpt lat="44.15701" lon="6.08348">
        <ele>1279</ele>
        <time>2022-03-03T10:58:10.000Z</time>
      </trkpt>
      <trkpt lat="44.15701" lon="6.08348">
        <ele>1279</ele>
        <time>2022-03-03T10:58:11.000Z</time>
      </trkpt>
      <trkpt lat="44.15701" lon="6.08348">
        <ele>1279</ele>
        <time>2022-03-03T10:58:12.000Z</time>
      </trkpt>
      <trkpt lat="44.15701" lon="6.08348">
        <ele>1279</ele>
        <time>2022-03-03T10:58:13.000Z</time>
      </trkpt>
      <trkpt lat="44.15701" lon="6.08348">
        <ele>1279</ele>
        <time>2022-03-03T10:58:14.000Z</time>
      </trkpt>
      <trkpt lat="44.15702" lon="6.08348">
        <ele>1279</ele>
        <time>2022-03-03T10:58:15.000Z</time>
      </trkpt>
      <trkpt lat="44.15702" lon="6.08348">
        <ele>1279</ele>
        <time>2022-03-03T10:58:16.000Z</time>
      </trkpt>
      <trkpt lat="44.15702" lon="6.08348">
        <ele>1279</ele>
        <time>2022-03-03T10:58:17.000Z</time>
      </trkpt>
      <trkpt lat="44.15702" lon="6.08348">
        <ele>1279</ele>
        <time>2022-03-03T10:58:18.000Z</time>
      </trkpt>
      <trkpt lat="44.15702" lon="6.08348">
        <ele>1279</ele>
        <time>2022-03-03T10:58:19.000Z</time>
      </trkpt>
      <trkpt lat="44.15701" lon="6.08348">
        <ele>1279</ele>
        <time>2022-03-03T10:58:20.000Z</time>
      </trkpt>
      <trkpt lat="44.15701" lon="6.08348">
        <ele>1279</ele>
        <time>2022-03-03T10:58:21.000Z</time>
      </trkpt>
      <trkpt lat="44.15701" lon="6.08348">
        <ele>1279</ele>
        <time>2022-03-03T10:58:22.000Z</time>
      </trkpt>
      <trkpt lat="44.15701" lon="6.08348">
        <ele>1279</ele>
        <time>2022-03-03T10:58:23.000Z</time>
      </trkpt>
      <trkpt lat="44.15701" lon="6.08348">
        <ele>1279</ele>
        <time>2022-03-03T10:58:24.000Z</time>
      </trkpt>
      <trkpt lat="44.15701" lon="6.08348">
        <ele>1280</ele>
        <time>2022-03-03T10:58:25.000Z</time>
      </trkpt>
      <trkpt lat="44.15701" lon="6.08349">
        <ele>1280</ele>
        <time>2022-03-03T10:58:26.000Z</time>
      </trkpt>
      <trkpt lat="44.15701" lon="6.08349">
        <ele>1280</ele>
        <time>2022-03-03T10:58:27.000Z</time>
      </trkpt>
      <trkpt lat="44.15701" lon="6.08349">
        <ele>1280</ele>
        <time>2022-03-03T10:58:28.000Z</time>
      </trkpt>
      <trkpt lat="44.15701" lon="6.08349">
        <ele>1280</ele>
        <time>2022-03-03T10:58:29.000Z</time>
      </trkpt>
      <trkpt lat="44.15701" lon="6.08349">
        <ele>1280</ele>
        <time>2022-03-03T10:58:30.000Z</time>
      </trkpt>
      <trkpt lat="44.15701" lon="6.08349">
        <ele>1280</ele>
        <time>2022-03-03T10:58:31.000Z</time>
      </trkpt>
      <trkpt lat="44.15701" lon="6.08349">
        <ele>1280</ele>
        <time>2022-03-03T10:58:32.000Z</time>
      </trkpt>
      <trkpt lat="44.15701" lon="6.08349">
        <ele>1280</ele>
        <time>2022-03-03T10:58:33.000Z</time>
      </trkpt>
      <trkpt lat="44.15701" lon="6.08349">
        <ele>1280</ele>
        <time>2022-03-03T10:58:34.000Z</time>
      </trkpt>
      <trkpt lat="44.15701" lon="6.08349">
        <ele>1280</ele>
        <time>2022-03-03T10:58:35.000Z</time>
      </trkpt>
      <trkpt lat="44.15701" lon="6.0835">
        <ele>1280</ele>
        <time>2022-03-03T10:58:36.000Z</time>
      </trkpt>
      <trkpt lat="44.15701" lon="6.0835">
        <ele>1280</ele>
        <time>2022-03-03T10:58:37.000Z</time>
      </trkpt>
      <trkpt lat="44.15701" lon="6.0835">
        <ele>1280</ele>
        <time>2022-03-03T10:58:38.000Z</time>
      </trkpt>
      <trkpt lat="44.15701" lon="6.0835">
        <ele>1280</ele>
        <time>2022-03-03T10:58:39.000Z</time>
      </trkpt>
      <trkpt lat="44.15701" lon="6.0835">
        <ele>1280</ele>
        <time>2022-03-03T10:58:40.000Z</time>
      </trkpt>
      <trkpt lat="44.15701" lon="6.0835">
        <ele>1280</ele>
        <time>2022-03-03T10:58:41.000Z</time>
      </trkpt>
      <trkpt lat="44.15701" lon="6.0835">
        <ele>1280</ele>
        <time>2022-03-03T10:58:42.000Z</time>
      </trkpt>
      <trkpt lat="44.15701" lon="6.0835">
        <ele>1280</ele>
        <time>2022-03-03T10:58:43.000Z</time>
      </trkpt>
      <trkpt lat="44.15701" lon="6.0835">
        <ele>1280</ele>
        <time>2022-03-03T10:58:44.000Z</time>
      </trkpt>
      <trkpt lat="44.15701" lon="6.0835">
        <ele>1280</ele>
        <time>2022-03-03T10:58:45.000Z</time>
      </trkpt>
      <trkpt lat="44.15701" lon="6.0835">
        <ele>1280</ele>
        <time>2022-03-03T10:58:46.000Z</time>
      </trkpt>
      <trkpt lat="44.15701" lon="6.0835">
        <ele>1280</ele>
        <time>2022-03-03T10:58:47.000Z</time>
      </trkpt>
      <trkpt lat="44.15701" lon="6.0835">
        <ele>1280</ele>
        <time>2022-03-03T10:58:48.000Z</time>
      </trkpt>
      <trkpt lat="44.15701" lon="6.0835">
        <ele>1280</ele>
        <time>2022-03-03T10:58:49.000Z</time>
      </trkpt>
      <trkpt lat="44.15701" lon="6.0835">
        <ele>1280</ele>
        <time>2022-03-03T10:58:50.000Z</time>
      </trkpt>
      <trkpt lat="44.15701" lon="6.0835">
        <ele>1280</ele>
        <time>2022-03-03T10:58:51.000Z</time>
      </trkpt>
      <trkpt lat="44.15702" lon="6.0835">
        <ele>1280</ele>
        <time>2022-03-03T10:58:52.000Z</time>
      </trkpt>
      <trkpt lat="44.15702" lon="6.0835">
        <ele>1280</ele>
        <time>2022-03-03T10:58:53.000Z</time>
      </trkpt>
      <trkpt lat="44.15702" lon="6.0835">
        <ele>1280</ele>
        <time>2022-03-03T10:58:54.000Z</time>
      </trkpt>
      <trkpt lat="44.15702" lon="6.0835">
        <ele>1280</ele>
        <time>2022-03-03T10:58:55.000Z</time>
      </trkpt>
      <trkpt lat="44.15702" lon="6.0835">
        <ele>1280</ele>
        <time>2022-03-03T10:58:56.000Z</time>
      </trkpt>
      <trkpt lat="44.15702" lon="6.0835">
        <ele>1280</ele>
        <time>2022-03-03T10:58:57.000Z</time>
      </trkpt>
      <trkpt lat="44.15702" lon="6.0835">
        <ele>1280</ele>
        <time>2022-03-03T10:58:58.000Z</time>
      </trkpt>
      <trkpt lat="44.15702" lon="6.0835">
        <ele>1280</ele>
        <time>2022-03-03T10:58:59.000Z</time>
      </trkpt>
      <trkpt lat="44.15702" lon="6.0835">
        <ele>1279</ele>
        <time>2022-03-03T10:59:00.000Z</time>
      </trkpt>
      <trkpt lat="44.15702" lon="6.0835">
        <ele>1279</ele>
        <time>2022-03-03T10:59:01.000Z</time>
      </trkpt>
      <trkpt lat="44.15702" lon="6.0835">
        <ele>1279</ele>
        <time>2022-03-03T10:59:02.000Z</time>
      </trkpt>
      <trkpt lat="44.15702" lon="6.0835">
        <ele>1280</ele>
        <time>2022-03-03T10:59:03.000Z</time>
      </trkpt>
      <trkpt lat="44.15702" lon="6.0835">
        <ele>1280</ele>
        <time>2022-03-03T10:59:04.000Z</time>
      </trkpt>
      <trkpt lat="44.15702" lon="6.0835">
        <ele>1280</ele>
        <time>2022-03-03T10:59:05.000Z</time>
      </trkpt>
      <trkpt lat="44.15702" lon="6.0835">
        <ele>1280</ele>
        <time>2022-03-03T10:59:06.000Z</time>
      </trkpt>
      <trkpt lat="44.15702" lon="6.08349">
        <ele>1280</ele>
        <time>2022-03-03T10:59:07.000Z</time>
      </trkpt>
      <trkpt lat="44.15702" lon="6.08349">
        <ele>1280</ele>
        <time>2022-03-03T10:59:08.000Z</time>
      </trkpt>
      <trkpt lat="44.15702" lon="6.08349">
        <ele>1280</ele>
        <time>2022-03-03T10:59:09.000Z</time>
      </trkpt>
      <trkpt lat="44.15703" lon="6.08348">
        <ele>1280</ele>
        <time>2022-03-03T10:59:10.000Z</time>
      </trkpt>
      <trkpt lat="44.15704" lon="6.08348">
        <ele>1280</ele>
        <time>2022-03-03T10:59:11.000Z</time>
      </trkpt>
      <trkpt lat="44.15704" lon="6.08348">
        <ele>1280</ele>
        <time>2022-03-03T10:59:12.000Z</time>
      </trkpt>
      <trkpt lat="44.15705" lon="6.08347">
        <ele>1280</ele>
        <time>2022-03-03T10:59:13.000Z</time>
      </trkpt>
      <trkpt lat="44.15706" lon="6.08347">
        <ele>1280</ele>
        <time>2022-03-03T10:59:14.000Z</time>
      </trkpt>
      <trkpt lat="44.15706" lon="6.08347">
        <ele>1280</ele>
        <time>2022-03-03T10:59:15.000Z</time>
      </trkpt>
      <trkpt lat="44.15707" lon="6.08346">
        <ele>1280</ele>
        <time>2022-03-03T10:59:16.000Z</time>
      </trkpt>
      <trkpt lat="44.15708" lon="6.08346">
        <ele>1280</ele>
        <time>2022-03-03T10:59:17.000Z</time>
      </trkpt>
      <trkpt lat="44.15709" lon="6.08345">
        <ele>1280</ele>
        <time>2022-03-03T10:59:18.000Z</time>
      </trkpt>
      <trkpt lat="44.15709" lon="6.08345">
        <ele>1280</ele>
        <time>2022-03-03T10:59:19.000Z</time>
      </trkpt>
      <trkpt lat="44.1571" lon="6.08344">
        <ele>1281</ele>
        <time>2022-03-03T10:59:20.000Z</time>
      </trkpt>
      <trkpt lat="44.15711" lon="6.08343">
        <ele>1281</ele>
        <time>2022-03-03T10:59:21.000Z</time>
      </trkpt>
      <trkpt lat="44.15712" lon="6.08343">
        <ele>1281</ele>
        <time>2022-03-03T10:59:22.000Z</time>
      </trkpt>
      <trkpt lat="44.15712" lon="6.08342">
        <ele>1281</ele>
        <time>2022-03-03T10:59:23.000Z</time>
      </trkpt>
      <trkpt lat="44.15713" lon="6.08342">
        <ele>1281</ele>
        <time>2022-03-03T10:59:24.000Z</time>
      </trkpt>
      <trkpt lat="44.15714" lon="6.08341">
        <ele>1281</ele>
        <time>2022-03-03T10:59:25.000Z</time>
      </trkpt>
      <trkpt lat="44.15715" lon="6.08341">
        <ele>1282</ele>
        <time>2022-03-03T10:59:26.000Z</time>
      </trkpt>
      <trkpt lat="44.15715" lon="6.08341">
        <ele>1282</ele>
        <time>2022-03-03T10:59:27.000Z</time>
      </trkpt>
      <trkpt lat="44.15716" lon="6.0834">
        <ele>1282</ele>
        <time>2022-03-03T10:59:28.000Z</time>
      </trkpt>
      <trkpt lat="44.15717" lon="6.0834">
        <ele>1282</ele>
        <time>2022-03-03T10:59:29.000Z</time>
      </trkpt>
      <trkpt lat="44.15718" lon="6.08339">
        <ele>1282</ele>
        <time>2022-03-03T10:59:30.000Z</time>
      </trkpt>
      <trkpt lat="44.15719" lon="6.08339">
        <ele>1282</ele>
        <time>2022-03-03T10:59:31.000Z</time>
      </trkpt>
      <trkpt lat="44.15719" lon="6.08339">
        <ele>1282</ele>
        <time>2022-03-03T10:59:32.000Z</time>
      </trkpt>
      <trkpt lat="44.1572" lon="6.08339">
        <ele>1282</ele>
        <time>2022-03-03T10:59:33.000Z</time>
      </trkpt>
      <trkpt lat="44.15721" lon="6.08338">
        <ele>1282</ele>
        <time>2022-03-03T10:59:34.000Z</time>
      </trkpt>
      <trkpt lat="44.15721" lon="6.08338">
        <ele>1282</ele>
        <time>2022-03-03T10:59:35.000Z</time>
      </trkpt>
      <trkpt lat="44.15722" lon="6.08337">
        <ele>1283</ele>
        <time>2022-03-03T10:59:36.000Z</time>
      </trkpt>
      <trkpt lat="44.15723" lon="6.08337">
        <ele>1283</ele>
        <time>2022-03-03T10:59:37.000Z</time>
      </trkpt>
      <trkpt lat="44.15724" lon="6.08337">
        <ele>1283</ele>
        <time>2022-03-03T10:59:38.000Z</time>
      </trkpt>
      <trkpt lat="44.15724" lon="6.08336">
        <ele>1283</ele>
        <time>2022-03-03T10:59:39.000Z</time>
      </trkpt>
      <trkpt lat="44.15725" lon="6.08336">
        <ele>1283</ele>
        <time>2022-03-03T10:59:40.000Z</time>
      </trkpt>
      <trkpt lat="44.15726" lon="6.08336">
        <ele>1283</ele>
        <time>2022-03-03T10:59:41.000Z</time>
      </trkpt>
      <trkpt lat="44.15727" lon="6.08336">
        <ele>1283</ele>
        <time>2022-03-03T10:59:42.000Z</time>
      </trkpt>
      <trkpt lat="44.15727" lon="6.08335">
        <ele>1283</ele>
        <time>2022-03-03T10:59:43.000Z</time>
      </trkpt>
      <trkpt lat="44.15728" lon="6.08335">
        <ele>1283</ele>
        <time>2022-03-03T10:59:44.000Z</time>
      </trkpt>
      <trkpt lat="44.15729" lon="6.08334">
        <ele>1284</ele>
        <time>2022-03-03T10:59:45.000Z</time>
      </trkpt>
      <trkpt lat="44.1573" lon="6.08334">
        <ele>1284</ele>
        <time>2022-03-03T10:59:46.000Z</time>
      </trkpt>
      <trkpt lat="44.15731" lon="6.08333">
        <ele>1284</ele>
        <time>2022-03-03T10:59:47.000Z</time>
      </trkpt>
      <trkpt lat="44.15731" lon="6.08333">
        <ele>1284</ele>
        <time>2022-03-03T10:59:48.000Z</time>
      </trkpt>
      <trkpt lat="44.15732" lon="6.08333">
        <ele>1284</ele>
        <time>2022-03-03T10:59:49.000Z</time>
      </trkpt>
      <trkpt lat="44.15733" lon="6.08332">
        <ele>1284</ele>
        <time>2022-03-03T10:59:50.000Z</time>
      </trkpt>
      <trkpt lat="44.15733" lon="6.08331">
        <ele>1284</ele>
        <time>2022-03-03T10:59:51.000Z</time>
      </trkpt>
      <trkpt lat="44.15734" lon="6.08331">
        <ele>1284</ele>
        <time>2022-03-03T10:59:52.000Z</time>
      </trkpt>
      <trkpt lat="44.15734" lon="6.0833">
        <ele>1285</ele>
        <time>2022-03-03T10:59:53.000Z</time>
      </trkpt>
      <trkpt lat="44.15735" lon="6.08329">
        <ele>1285</ele>
        <time>2022-03-03T10:59:54.000Z</time>
      </trkpt>
      <trkpt lat="44.15736" lon="6.08329">
        <ele>1285</ele>
        <time>2022-03-03T10:59:55.000Z</time>
      </trkpt>
      <trkpt lat="44.15736" lon="6.08328">
        <ele>1285</ele>
        <time>2022-03-03T10:59:56.000Z</time>
      </trkpt>
      <trkpt lat="44.15737" lon="6.08327">
        <ele>1285</ele>
        <time>2022-03-03T10:59:57.000Z</time>
      </trkpt>
      <trkpt lat="44.15737" lon="6.08327">
        <ele>1285</ele>
        <time>2022-03-03T10:59:58.000Z</time>
      </trkpt>
      <trkpt lat="44.15738" lon="6.08326">
        <ele>1285</ele>
        <time>2022-03-03T10:59:59.000Z</time>
      </trkpt>
      <trkpt lat="44.15738" lon="6.08325">
        <ele>1285</ele>
        <time>2022-03-03T11:00:00.000Z</time>
      </trkpt>
      <trkpt lat="44.15738" lon="6.08324">
        <ele>1285</ele>
        <time>2022-03-03T11:00:01.000Z</time>
      </trkpt>
      <trkpt lat="44.15739" lon="6.08323">
        <ele>1285</ele>
        <time>2022-03-03T11:00:02.000Z</time>
      </trkpt>
      <trkpt lat="44.15739" lon="6.08322">
        <ele>1285</ele>
        <time>2022-03-03T11:00:03.000Z</time>
      </trkpt>
      <trkpt lat="44.1574" lon="6.08321">
        <ele>1286</ele>
        <time>2022-03-03T11:00:04.000Z</time>
      </trkpt>
      <trkpt lat="44.1574" lon="6.0832">
        <ele>1286</ele>
        <time>2022-03-03T11:00:05.000Z</time>
      </trkpt>
      <trkpt lat="44.15741" lon="6.0832">
        <ele>1286</ele>
        <time>2022-03-03T11:00:06.000Z</time>
      </trkpt>
      <trkpt lat="44.15741" lon="6.08318">
        <ele>1286</ele>
        <time>2022-03-03T11:00:07.000Z</time>
      </trkpt>
      <trkpt lat="44.15742" lon="6.08318">
        <ele>1286</ele>
        <time>2022-03-03T11:00:08.000Z</time>
      </trkpt>
      <trkpt lat="44.15742" lon="6.08317">
        <ele>1286</ele>
        <time>2022-03-03T11:00:09.000Z</time>
      </trkpt>
      <trkpt lat="44.15743" lon="6.08316">
        <ele>1287</ele>
        <time>2022-03-03T11:00:10.000Z</time>
      </trkpt>
      <trkpt lat="44.15743" lon="6.08315">
        <ele>1287</ele>
        <time>2022-03-03T11:00:11.000Z</time>
      </trkpt>
      <trkpt lat="44.15744" lon="6.08315">
        <ele>1287</ele>
        <time>2022-03-03T11:00:12.000Z</time>
      </trkpt>
      <trkpt lat="44.15744" lon="6.08314">
        <ele>1287</ele>
        <time>2022-03-03T11:00:13.000Z</time>
      </trkpt>
      <trkpt lat="44.15745" lon="6.08313">
        <ele>1287</ele>
        <time>2022-03-03T11:00:14.000Z</time>
      </trkpt>
      <trkpt lat="44.15745" lon="6.08312">
        <ele>1287</ele>
        <time>2022-03-03T11:00:15.000Z</time>
      </trkpt>
      <trkpt lat="44.15746" lon="6.08312">
        <ele>1287</ele>
        <time>2022-03-03T11:00:16.000Z</time>
      </trkpt>
      <trkpt lat="44.15747" lon="6.08311">
        <ele>1288</ele>
        <time>2022-03-03T11:00:17.000Z</time>
      </trkpt>
      <trkpt lat="44.15747" lon="6.0831">
        <ele>1288</ele>
        <time>2022-03-03T11:00:18.000Z</time>
      </trkpt>
      <trkpt lat="44.15748" lon="6.08309">
        <ele>1288</ele>
        <time>2022-03-03T11:00:19.000Z</time>
      </trkpt>
      <trkpt lat="44.15748" lon="6.08309">
        <ele>1288</ele>
        <time>2022-03-03T11:00:20.000Z</time>
      </trkpt>
      <trkpt lat="44.15749" lon="6.08308">
        <ele>1288</ele>
        <time>2022-03-03T11:00:21.000Z</time>
      </trkpt>
      <trkpt lat="44.1575" lon="6.08307">
        <ele>1288</ele>
        <time>2022-03-03T11:00:22.000Z</time>
      </trkpt>
      <trkpt lat="44.1575" lon="6.08307">
        <ele>1288</ele>
        <time>2022-03-03T11:00:23.000Z</time>
      </trkpt>
      <trkpt lat="44.15751" lon="6.08306">
        <ele>1288</ele>
        <time>2022-03-03T11:00:24.000Z</time>
      </trkpt>
      <trkpt lat="44.15752" lon="6.08306">
        <ele>1288</ele>
        <time>2022-03-03T11:00:25.000Z</time>
      </trkpt>
      <trkpt lat="44.15752" lon="6.08305">
        <ele>1288</ele>
        <time>2022-03-03T11:00:26.000Z</time>
      </trkpt>
      <trkpt lat="44.15753" lon="6.08304">
        <ele>1288</ele>
        <time>2022-03-03T11:00:27.000Z</time>
      </trkpt>
      <trkpt lat="44.15754" lon="6.08304">
        <ele>1288</ele>
        <time>2022-03-03T11:00:28.000Z</time>
      </trkpt>
      <trkpt lat="44.15754" lon="6.08303">
        <ele>1289</ele>
        <time>2022-03-03T11:00:29.000Z</time>
      </trkpt>
      <trkpt lat="44.15755" lon="6.08302">
        <ele>1289</ele>
        <time>2022-03-03T11:00:30.000Z</time>
      </trkpt>
      <trkpt lat="44.15755" lon="6.08302">
        <ele>1289</ele>
        <time>2022-03-03T11:00:31.000Z</time>
      </trkpt>
      <trkpt lat="44.15756" lon="6.08301">
        <ele>1289</ele>
        <time>2022-03-03T11:00:32.000Z</time>
      </trkpt>
      <trkpt lat="44.15757" lon="6.083">
        <ele>1289</ele>
        <time>2022-03-03T11:00:33.000Z</time>
      </trkpt>
      <trkpt lat="44.15757" lon="6.083">
        <ele>1289</ele>
        <time>2022-03-03T11:00:34.000Z</time>
      </trkpt>
      <trkpt lat="44.15758" lon="6.08299">
        <ele>1289</ele>
        <time>2022-03-03T11:00:35.000Z</time>
      </trkpt>
      <trkpt lat="44.15759" lon="6.08298">
        <ele>1290</ele>
        <time>2022-03-03T11:00:36.000Z</time>
      </trkpt>
      <trkpt lat="44.1576" lon="6.08298">
        <ele>1290</ele>
        <time>2022-03-03T11:00:37.000Z</time>
      </trkpt>
      <trkpt lat="44.1576" lon="6.08297">
        <ele>1290</ele>
        <time>2022-03-03T11:00:38.000Z</time>
      </trkpt>
      <trkpt lat="44.15761" lon="6.08296">
        <ele>1290</ele>
        <time>2022-03-03T11:00:39.000Z</time>
      </trkpt>
      <trkpt lat="44.15761" lon="6.08296">
        <ele>1290</ele>
        <time>2022-03-03T11:00:40.000Z</time>
      </trkpt>
      <trkpt lat="44.15762" lon="6.08295">
        <ele>1290</ele>
        <time>2022-03-03T11:00:41.000Z</time>
      </trkpt>
      <trkpt lat="44.15763" lon="6.08294">
        <ele>1290</ele>
        <time>2022-03-03T11:00:42.000Z</time>
      </trkpt>
      <trkpt lat="44.15763" lon="6.08294">
        <ele>1290</ele>
        <time>2022-03-03T11:00:43.000Z</time>
      </trkpt>
      <trkpt lat="44.15764" lon="6.08293">
        <ele>1290</ele>
        <time>2022-03-03T11:00:44.000Z</time>
      </trkpt>
      <trkpt lat="44.15765" lon="6.08293">
        <ele>1290</ele>
        <time>2022-03-03T11:00:45.000Z</time>
      </trkpt>
      <trkpt lat="44.15765" lon="6.08293">
        <ele>1290</ele>
        <time>2022-03-03T11:00:46.000Z</time>
      </trkpt>
      <trkpt lat="44.15766" lon="6.08292">
        <ele>1290</ele>
        <time>2022-03-03T11:00:47.000Z</time>
      </trkpt>
      <trkpt lat="44.15767" lon="6.08292">
        <ele>1290</ele>
        <time>2022-03-03T11:00:48.000Z</time>
      </trkpt>
      <trkpt lat="44.15767" lon="6.08291">
        <ele>1290</ele>
        <time>2022-03-03T11:00:49.000Z</time>
      </trkpt>
      <trkpt lat="44.15768" lon="6.08291">
        <ele>1290</ele>
        <time>2022-03-03T11:00:50.000Z</time>
      </trkpt>
      <trkpt lat="44.15769" lon="6.08291">
        <ele>1290</ele>
        <time>2022-03-03T11:00:51.000Z</time>
      </trkpt>
      <trkpt lat="44.15769" lon="6.0829">
        <ele>1291</ele>
        <time>2022-03-03T11:00:52.000Z</time>
      </trkpt>
      <trkpt lat="44.1577" lon="6.08289">
        <ele>1291</ele>
        <time>2022-03-03T11:00:53.000Z</time>
      </trkpt>
      <trkpt lat="44.1577" lon="6.08289">
        <ele>1291</ele>
        <time>2022-03-03T11:00:54.000Z</time>
      </trkpt>
      <trkpt lat="44.15771" lon="6.08288">
        <ele>1291</ele>
        <time>2022-03-03T11:00:55.000Z</time>
      </trkpt>
      <trkpt lat="44.15771" lon="6.08287">
        <ele>1291</ele>
        <time>2022-03-03T11:00:56.000Z</time>
      </trkpt>
      <trkpt lat="44.15772" lon="6.08287">
        <ele>1291</ele>
        <time>2022-03-03T11:00:57.000Z</time>
      </trkpt>
      <trkpt lat="44.15772" lon="6.08287">
        <ele>1291</ele>
        <time>2022-03-03T11:00:58.000Z</time>
      </trkpt>
      <trkpt lat="44.15772" lon="6.08287">
        <ele>1292</ele>
        <time>2022-03-03T11:00:59.000Z</time>
      </trkpt>
      <trkpt lat="44.15772" lon="6.08287">
        <ele>1292</ele>
        <time>2022-03-03T11:01:00.000Z</time>
      </trkpt>
      <trkpt lat="44.15772" lon="6.08287">
        <ele>1292</ele>
        <time>2022-03-03T11:01:01.000Z</time>
      </trkpt>
      <trkpt lat="44.15772" lon="6.08286">
        <ele>1292</ele>
        <time>2022-03-03T11:01:02.000Z</time>
      </trkpt>
      <trkpt lat="44.15772" lon="6.08286">
        <ele>1292</ele>
        <time>2022-03-03T11:01:03.000Z</time>
      </trkpt>
      <trkpt lat="44.15772" lon="6.08286">
        <ele>1292</ele>
        <time>2022-03-03T11:01:04.000Z</time>
      </trkpt>
      <trkpt lat="44.15772" lon="6.08286">
        <ele>1292</ele>
        <time>2022-03-03T11:01:05.000Z</time>
      </trkpt>
      <trkpt lat="44.15772" lon="6.08286">
        <ele>1292</ele>
        <time>2022-03-03T11:01:06.000Z</time>
      </trkpt>
      <trkpt lat="44.15772" lon="6.08286">
        <ele>1292</ele>
        <time>2022-03-03T11:01:07.000Z</time>
      </trkpt>
      <trkpt lat="44.15772" lon="6.08286">
        <ele>1292</ele>
        <time>2022-03-03T11:01:08.000Z</time>
      </trkpt>
      <trkpt lat="44.15772" lon="6.08286">
        <ele>1292</ele>
        <time>2022-03-03T11:01:09.000Z</time>
      </trkpt>
      <trkpt lat="44.15772" lon="6.08286">
        <ele>1292</ele>
        <time>2022-03-03T11:01:10.000Z</time>
      </trkpt>
      <trkpt lat="44.15772" lon="6.08286">
        <ele>1292</ele>
        <time>2022-03-03T11:01:11.000Z</time>
      </trkpt>
      <trkpt lat="44.15772" lon="6.08286">
        <ele>1292</ele>
        <time>2022-03-03T11:01:12.000Z</time>
      </trkpt>
      <trkpt lat="44.15772" lon="6.08286">
        <ele>1292</ele>
        <time>2022-03-03T11:01:13.000Z</time>
      </trkpt>
      <trkpt lat="44.15772" lon="6.08286">
        <ele>1292</ele>
        <time>2022-03-03T11:01:14.000Z</time>
      </trkpt>
      <trkpt lat="44.15772" lon="6.08286">
        <ele>1292</ele>
        <time>2022-03-03T11:01:15.000Z</time>
      </trkpt>
      <trkpt lat="44.15772" lon="6.08286">
        <ele>1292</ele>
        <time>2022-03-03T11:01:16.000Z</time>
      </trkpt>
      <trkpt lat="44.15772" lon="6.08286">
        <ele>1292</ele>
        <time>2022-03-03T11:01:17.000Z</time>
      </trkpt>
      <trkpt lat="44.15772" lon="6.08286">
        <ele>1292</ele>
        <time>2022-03-03T11:01:18.000Z</time>
      </trkpt>
      <trkpt lat="44.15772" lon="6.08286">
        <ele>1292</ele>
        <time>2022-03-03T11:01:19.000Z</time>
      </trkpt>
      <trkpt lat="44.15772" lon="6.08286">
        <ele>1292</ele>
        <time>2022-03-03T11:01:20.000Z</time>
      </trkpt>
      <trkpt lat="44.15772" lon="6.08286">
        <ele>1292</ele>
        <time>2022-03-03T11:01:21.000Z</time>
      </trkpt>
      <trkpt lat="44.15772" lon="6.08286">
        <ele>1292</ele>
        <time>2022-03-03T11:01:22.000Z</time>
      </trkpt>
      <trkpt lat="44.15772" lon="6.08286">
        <ele>1292</ele>
        <time>2022-03-03T11:01:23.000Z</time>
      </trkpt>
      <trkpt lat="44.15772" lon="6.08286">
        <ele>1292</ele>
        <time>2022-03-03T11:01:24.000Z</time>
      </trkpt>
      <trkpt lat="44.15772" lon="6.08286">
        <ele>1292</ele>
        <time>2022-03-03T11:01:25.000Z</time>
      </trkpt>
      <trkpt lat="44.15773" lon="6.08285">
        <ele>1292</ele>
        <time>2022-03-03T11:01:26.000Z</time>
      </trkpt>
      <trkpt lat="44.15773" lon="6.08285">
        <ele>1292</ele>
        <time>2022-03-03T11:01:27.000Z</time>
      </trkpt>
      <trkpt lat="44.15774" lon="6.08284">
        <ele>1292</ele>
        <time>2022-03-03T11:01:28.000Z</time>
      </trkpt>
      <trkpt lat="44.15774" lon="6.08283">
        <ele>1292</ele>
        <time>2022-03-03T11:01:29.000Z</time>
      </trkpt>
      <trkpt lat="44.15774" lon="6.08282">
        <ele>1292</ele>
        <time>2022-03-03T11:01:30.000Z</time>
      </trkpt>
      <trkpt lat="44.15775" lon="6.08282">
        <ele>1292</ele>
        <time>2022-03-03T11:01:31.000Z</time>
      </trkpt>
      <trkpt lat="44.15775" lon="6.08281">
        <ele>1292</ele>
        <time>2022-03-03T11:01:32.000Z</time>
      </trkpt>
      <trkpt lat="44.15776" lon="6.0828">
        <ele>1292</ele>
        <time>2022-03-03T11:01:33.000Z</time>
      </trkpt>
      <trkpt lat="44.15776" lon="6.08279">
        <ele>1292</ele>
        <time>2022-03-03T11:01:34.000Z</time>
      </trkpt>
      <trkpt lat="44.15777" lon="6.08278">
        <ele>1293</ele>
        <time>2022-03-03T11:01:35.000Z</time>
      </trkpt>
      <trkpt lat="44.15777" lon="6.08277">
        <ele>1293</ele>
        <time>2022-03-03T11:01:36.000Z</time>
      </trkpt>
      <trkpt lat="44.15778" lon="6.08277">
        <ele>1293</ele>
        <time>2022-03-03T11:01:37.000Z</time>
      </trkpt>
      <trkpt lat="44.15779" lon="6.08276">
        <ele>1293</ele>
        <time>2022-03-03T11:01:38.000Z</time>
      </trkpt>
      <trkpt lat="44.15779" lon="6.08276">
        <ele>1293</ele>
        <time>2022-03-03T11:01:39.000Z</time>
      </trkpt>
      <trkpt lat="44.1578" lon="6.08275">
        <ele>1293</ele>
        <time>2022-03-03T11:01:40.000Z</time>
      </trkpt>
      <trkpt lat="44.1578" lon="6.08274">
        <ele>1293</ele>
        <time>2022-03-03T11:01:41.000Z</time>
      </trkpt>
      <trkpt lat="44.15781" lon="6.08273">
        <ele>1293</ele>
        <time>2022-03-03T11:01:42.000Z</time>
      </trkpt>
      <trkpt lat="44.15781" lon="6.08272">
        <ele>1293</ele>
        <time>2022-03-03T11:01:43.000Z</time>
      </trkpt>
      <trkpt lat="44.15782" lon="6.08271">
        <ele>1293</ele>
        <time>2022-03-03T11:01:44.000Z</time>
      </trkpt>
      <trkpt lat="44.15782" lon="6.08271">
        <ele>1294</ele>
        <time>2022-03-03T11:01:45.000Z</time>
      </trkpt>
      <trkpt lat="44.15783" lon="6.0827">
        <ele>1294</ele>
        <time>2022-03-03T11:01:46.000Z</time>
      </trkpt>
      <trkpt lat="44.15783" lon="6.08269">
        <ele>1294</ele>
        <time>2022-03-03T11:01:47.000Z</time>
      </trkpt>
      <trkpt lat="44.15784" lon="6.08268">
        <ele>1294</ele>
        <time>2022-03-03T11:01:48.000Z</time>
      </trkpt>
      <trkpt lat="44.15784" lon="6.08267">
        <ele>1294</ele>
        <time>2022-03-03T11:01:49.000Z</time>
      </trkpt>
      <trkpt lat="44.15785" lon="6.08267">
        <ele>1294</ele>
        <time>2022-03-03T11:01:50.000Z</time>
      </trkpt>
      <trkpt lat="44.15785" lon="6.08266">
        <ele>1294</ele>
        <time>2022-03-03T11:01:51.000Z</time>
      </trkpt>
      <trkpt lat="44.15785" lon="6.08265">
        <ele>1294</ele>
        <time>2022-03-03T11:01:52.000Z</time>
      </trkpt>
      <trkpt lat="44.15786" lon="6.08264">
        <ele>1294</ele>
        <time>2022-03-03T11:01:53.000Z</time>
      </trkpt>
      <trkpt lat="44.15787" lon="6.08264">
        <ele>1294</ele>
        <time>2022-03-03T11:01:54.000Z</time>
      </trkpt>
      <trkpt lat="44.15787" lon="6.08263">
        <ele>1294</ele>
        <time>2022-03-03T11:01:55.000Z</time>
      </trkpt>
      <trkpt lat="44.15788" lon="6.08262">
        <ele>1294</ele>
        <time>2022-03-03T11:01:56.000Z</time>
      </trkpt>
      <trkpt lat="44.15788" lon="6.08261">
        <ele>1295</ele>
        <time>2022-03-03T11:01:57.000Z</time>
      </trkpt>
      <trkpt lat="44.15789" lon="6.08261">
        <ele>1295</ele>
        <time>2022-03-03T11:01:58.000Z</time>
      </trkpt>
      <trkpt lat="44.1579" lon="6.0826">
        <ele>1295</ele>
        <time>2022-03-03T11:01:59.000Z</time>
      </trkpt>
      <trkpt lat="44.1579" lon="6.08259">
        <ele>1295</ele>
        <time>2022-03-03T11:02:00.000Z</time>
      </trkpt>
      <trkpt lat="44.15791" lon="6.08259">
        <ele>1295</ele>
        <time>2022-03-03T11:02:01.000Z</time>
      </trkpt>
      <trkpt lat="44.15792" lon="6.08258">
        <ele>1295</ele>
        <time>2022-03-03T11:02:02.000Z</time>
      </trkpt>
      <trkpt lat="44.15792" lon="6.08257">
        <ele>1295</ele>
        <time>2022-03-03T11:02:03.000Z</time>
      </trkpt>
      <trkpt lat="44.15792" lon="6.08257">
        <ele>1295</ele>
        <time>2022-03-03T11:02:04.000Z</time>
      </trkpt>
      <trkpt lat="44.15793" lon="6.08256">
        <ele>1295</ele>
        <time>2022-03-03T11:02:05.000Z</time>
      </trkpt>
      <trkpt lat="44.15794" lon="6.08256">
        <ele>1295</ele>
        <time>2022-03-03T11:02:06.000Z</time>
      </trkpt>
      <trkpt lat="44.15794" lon="6.08255">
        <ele>1295</ele>
        <time>2022-03-03T11:02:07.000Z</time>
      </trkpt>
      <trkpt lat="44.15795" lon="6.08254">
        <ele>1295</ele>
        <time>2022-03-03T11:02:08.000Z</time>
      </trkpt>
      <trkpt lat="44.15795" lon="6.08254">
        <ele>1295</ele>
        <time>2022-03-03T11:02:09.000Z</time>
      </trkpt>
      <trkpt lat="44.15796" lon="6.08253">
        <ele>1295</ele>
        <time>2022-03-03T11:02:10.000Z</time>
      </trkpt>
      <trkpt lat="44.15796" lon="6.08253">
        <ele>1295</ele>
        <time>2022-03-03T11:02:11.000Z</time>
      </trkpt>
      <trkpt lat="44.15797" lon="6.08252">
        <ele>1296</ele>
        <time>2022-03-03T11:02:12.000Z</time>
      </trkpt>
      <trkpt lat="44.15797" lon="6.08251">
        <ele>1296</ele>
        <time>2022-03-03T11:02:13.000Z</time>
      </trkpt>
      <trkpt lat="44.15798" lon="6.0825">
        <ele>1296</ele>
        <time>2022-03-03T11:02:14.000Z</time>
      </trkpt>
      <trkpt lat="44.15798" lon="6.0825">
        <ele>1296</ele>
        <time>2022-03-03T11:02:15.000Z</time>
      </trkpt>
      <trkpt lat="44.15799" lon="6.08249">
        <ele>1296</ele>
        <time>2022-03-03T11:02:16.000Z</time>
      </trkpt>
      <trkpt lat="44.15799" lon="6.08249">
        <ele>1296</ele>
        <time>2022-03-03T11:02:17.000Z</time>
      </trkpt>
      <trkpt lat="44.158" lon="6.08248">
        <ele>1296</ele>
        <time>2022-03-03T11:02:18.000Z</time>
      </trkpt>
      <trkpt lat="44.158" lon="6.08248">
        <ele>1297</ele>
        <time>2022-03-03T11:02:19.000Z</time>
      </trkpt>
      <trkpt lat="44.15801" lon="6.08247">
        <ele>1297</ele>
        <time>2022-03-03T11:02:20.000Z</time>
      </trkpt>
      <trkpt lat="44.15801" lon="6.08247">
        <ele>1297</ele>
        <time>2022-03-03T11:02:21.000Z</time>
      </trkpt>
      <trkpt lat="44.15802" lon="6.08246">
        <ele>1297</ele>
        <time>2022-03-03T11:02:22.000Z</time>
      </trkpt>
      <trkpt lat="44.15802" lon="6.08245">
        <ele>1297</ele>
        <time>2022-03-03T11:02:23.000Z</time>
      </trkpt>
      <trkpt lat="44.15803" lon="6.08245">
        <ele>1297</ele>
        <time>2022-03-03T11:02:24.000Z</time>
      </trkpt>
      <trkpt lat="44.15803" lon="6.08244">
        <ele>1297</ele>
        <time>2022-03-03T11:02:25.000Z</time>
      </trkpt>
      <trkpt lat="44.15804" lon="6.08244">
        <ele>1298</ele>
        <time>2022-03-03T11:02:26.000Z</time>
      </trkpt>
      <trkpt lat="44.15804" lon="6.08243">
        <ele>1298</ele>
        <time>2022-03-03T11:02:27.000Z</time>
      </trkpt>
      <trkpt lat="44.15805" lon="6.08242">
        <ele>1298</ele>
        <time>2022-03-03T11:02:28.000Z</time>
      </trkpt>
      <trkpt lat="44.15805" lon="6.08241">
        <ele>1298</ele>
        <time>2022-03-03T11:02:29.000Z</time>
      </trkpt>
      <trkpt lat="44.15806" lon="6.08241">
        <ele>1298</ele>
        <time>2022-03-03T11:02:30.000Z</time>
      </trkpt>
      <trkpt lat="44.15806" lon="6.0824">
        <ele>1298</ele>
        <time>2022-03-03T11:02:31.000Z</time>
      </trkpt>
      <trkpt lat="44.15806" lon="6.08239">
        <ele>1298</ele>
        <time>2022-03-03T11:02:32.000Z</time>
      </trkpt>
      <trkpt lat="44.15807" lon="6.08238">
        <ele>1298</ele>
        <time>2022-03-03T11:02:33.000Z</time>
      </trkpt>
      <trkpt lat="44.15807" lon="6.08237">
        <ele>1298</ele>
        <time>2022-03-03T11:02:34.000Z</time>
      </trkpt>
      <trkpt lat="44.15808" lon="6.08236">
        <ele>1298</ele>
        <time>2022-03-03T11:02:35.000Z</time>
      </trkpt>
      <trkpt lat="44.15808" lon="6.08235">
        <ele>1299</ele>
        <time>2022-03-03T11:02:36.000Z</time>
      </trkpt>
      <trkpt lat="44.15809" lon="6.08235">
        <ele>1299</ele>
        <time>2022-03-03T11:02:37.000Z</time>
      </trkpt>
      <trkpt lat="44.1581" lon="6.08234">
        <ele>1299</ele>
        <time>2022-03-03T11:02:38.000Z</time>
      </trkpt>
      <trkpt lat="44.1581" lon="6.08233">
        <ele>1299</ele>
        <time>2022-03-03T11:02:39.000Z</time>
      </trkpt>
      <trkpt lat="44.1581" lon="6.08232">
        <ele>1299</ele>
        <time>2022-03-03T11:02:40.000Z</time>
      </trkpt>
      <trkpt lat="44.15811" lon="6.08231">
        <ele>1299</ele>
        <time>2022-03-03T11:02:41.000Z</time>
      </trkpt>
      <trkpt lat="44.15811" lon="6.08231">
        <ele>1300</ele>
        <time>2022-03-03T11:02:42.000Z</time>
      </trkpt>
      <trkpt lat="44.15811" lon="6.08231">
        <ele>1300</ele>
        <time>2022-03-03T11:02:43.000Z</time>
      </trkpt>
      <trkpt lat="44.15811" lon="6.08231">
        <ele>1300</ele>
        <time>2022-03-03T11:02:44.000Z</time>
      </trkpt>
      <trkpt lat="44.15811" lon="6.08231">
        <ele>1300</ele>
        <time>2022-03-03T11:02:45.000Z</time>
      </trkpt>
      <trkpt lat="44.15811" lon="6.08231">
        <ele>1300</ele>
        <time>2022-03-03T11:02:46.000Z</time>
      </trkpt>
      <trkpt lat="44.15811" lon="6.08231">
        <ele>1300</ele>
        <time>2022-03-03T11:02:47.000Z</time>
      </trkpt>
      <trkpt lat="44.15811" lon="6.0823">
        <ele>1300</ele>
        <time>2022-03-03T11:02:48.000Z</time>
      </trkpt>
      <trkpt lat="44.15811" lon="6.0823">
        <ele>1300</ele>
        <time>2022-03-03T11:02:49.000Z</time>
      </trkpt>
      <trkpt lat="44.15811" lon="6.0823">
        <ele>1300</ele>
        <time>2022-03-03T11:02:50.000Z</time>
      </trkpt>
      <trkpt lat="44.15811" lon="6.0823">
        <ele>1300</ele>
        <time>2022-03-03T11:02:51.000Z</time>
      </trkpt>
      <trkpt lat="44.15811" lon="6.0823">
        <ele>1300</ele>
        <time>2022-03-03T11:02:52.000Z</time>
      </trkpt>
      <trkpt lat="44.15811" lon="6.0823">
        <ele>1300</ele>
        <time>2022-03-03T11:02:53.000Z</time>
      </trkpt>
      <trkpt lat="44.15811" lon="6.0823">
        <ele>1300</ele>
        <time>2022-03-03T11:02:54.000Z</time>
      </trkpt>
      <trkpt lat="44.15811" lon="6.0823">
        <ele>1300</ele>
        <time>2022-03-03T11:02:55.000Z</time>
      </trkpt>
      <trkpt lat="44.15811" lon="6.0823">
        <ele>1300</ele>
        <time>2022-03-03T11:02:56.000Z</time>
      </trkpt>
      <trkpt lat="44.15811" lon="6.0823">
        <ele>1300</ele>
        <time>2022-03-03T11:02:57.000Z</time>
      </trkpt>
      <trkpt lat="44.15811" lon="6.0823">
        <ele>1300</ele>
        <time>2022-03-03T11:02:58.000Z</time>
      </trkpt>
      <trkpt lat="44.15811" lon="6.0823">
        <ele>1300</ele>
        <time>2022-03-03T11:02:59.000Z</time>
      </trkpt>
      <trkpt lat="44.15811" lon="6.0823">
        <ele>1300</ele>
        <time>2022-03-03T11:03:00.000Z</time>
      </trkpt>
      <trkpt lat="44.15811" lon="6.0823">
        <ele>1300</ele>
        <time>2022-03-03T11:03:01.000Z</time>
      </trkpt>
      <trkpt lat="44.15811" lon="6.08229">
        <ele>1300</ele>
        <time>2022-03-03T11:03:02.000Z</time>
      </trkpt>
      <trkpt lat="44.15811" lon="6.08229">
        <ele>1300</ele>
        <time>2022-03-03T11:03:03.000Z</time>
      </trkpt>
      <trkpt lat="44.15811" lon="6.08229">
        <ele>1300</ele>
        <time>2022-03-03T11:03:04.000Z</time>
      </trkpt>
      <trkpt lat="44.15811" lon="6.08229">
        <ele>1300</ele>
        <time>2022-03-03T11:03:05.000Z</time>
      </trkpt>
      <trkpt lat="44.15811" lon="6.08229">
        <ele>1300</ele>
        <time>2022-03-03T11:03:06.000Z</time>
      </trkpt>
      <trkpt lat="44.15811" lon="6.08229">
        <ele>1300</ele>
        <time>2022-03-03T11:03:07.000Z</time>
      </trkpt>
      <trkpt lat="44.15811" lon="6.08229">
        <ele>1300</ele>
        <time>2022-03-03T11:03:08.000Z</time>
      </trkpt>
      <trkpt lat="44.15811" lon="6.08229">
        <ele>1300</ele>
        <time>2022-03-03T11:03:09.000Z</time>
      </trkpt>
      <trkpt lat="44.15811" lon="6.08229">
        <ele>1300</ele>
        <time>2022-03-03T11:03:10.000Z</time>
      </trkpt>
      <trkpt lat="44.15811" lon="6.08229">
        <ele>1300</ele>
        <time>2022-03-03T11:03:11.000Z</time>
      </trkpt>
      <trkpt lat="44.15811" lon="6.08229">
        <ele>1300</ele>
        <time>2022-03-03T11:03:12.000Z</time>
      </trkpt>
      <trkpt lat="44.15811" lon="6.08229">
        <ele>1300</ele>
        <time>2022-03-03T11:03:13.000Z</time>
      </trkpt>
      <trkpt lat="44.15811" lon="6.08229">
        <ele>1300</ele>
        <time>2022-03-03T11:03:14.000Z</time>
      </trkpt>
      <trkpt lat="44.15811" lon="6.08229">
        <ele>1300</ele>
        <time>2022-03-03T11:03:15.000Z</time>
      </trkpt>
      <trkpt lat="44.15811" lon="6.08229">
        <ele>1300</ele>
        <time>2022-03-03T11:03:16.000Z</time>
      </trkpt>
      <trkpt lat="44.15811" lon="6.08229">
        <ele>1300</ele>
        <time>2022-03-03T11:03:17.000Z</time>
      </trkpt>
      <trkpt lat="44.15811" lon="6.08229">
        <ele>1300</ele>
        <time>2022-03-03T11:03:18.000Z</time>
      </trkpt>
      <trkpt lat="44.15811" lon="6.08229">
        <ele>1300</ele>
        <time>2022-03-03T11:03:19.000Z</time>
      </trkpt>
      <trkpt lat="44.15811" lon="6.08229">
        <ele>1300</ele>
        <time>2022-03-03T11:03:20.000Z</time>
      </trkpt>
      <trkpt lat="44.15811" lon="6.08229">
        <ele>1300</ele>
        <time>2022-03-03T11:03:21.000Z</time>
      </trkpt>
      <trkpt lat="44.15811" lon="6.08229">
        <ele>1300</ele>
        <time>2022-03-03T11:03:22.000Z</time>
      </trkpt>
      <trkpt lat="44.15811" lon="6.08229">
        <ele>1300</ele>
        <time>2022-03-03T11:03:23.000Z</time>
      </trkpt>
      <trkpt lat="44.15811" lon="6.08229">
        <ele>1300</ele>
        <time>2022-03-03T11:03:24.000Z</time>
      </trkpt>
      <trkpt lat="44.15811" lon="6.08229">
        <ele>1300</ele>
        <time>2022-03-03T11:03:25.000Z</time>
      </trkpt>
      <trkpt lat="44.15811" lon="6.08229">
        <ele>1300</ele>
        <time>2022-03-03T11:03:26.000Z</time>
      </trkpt>
      <trkpt lat="44.15811" lon="6.08229">
        <ele>1300</ele>
        <time>2022-03-03T11:03:27.000Z</time>
      </trkpt>
      <trkpt lat="44.15811" lon="6.08229">
        <ele>1300</ele>
        <time>2022-03-03T11:03:28.000Z</time>
      </trkpt>
      <trkpt lat="44.15811" lon="6.08229">
        <ele>1300</ele>
        <time>2022-03-03T11:03:29.000Z</time>
      </trkpt>
      <trkpt lat="44.15811" lon="6.08229">
        <ele>1300</ele>
        <time>2022-03-03T11:03:30.000Z</time>
      </trkpt>
      <trkpt lat="44.15811" lon="6.08229">
        <ele>1300</ele>
        <time>2022-03-03T11:03:31.000Z</time>
      </trkpt>
      <trkpt lat="44.15811" lon="6.08229">
        <ele>1300</ele>
        <time>2022-03-03T11:03:32.000Z</time>
      </trkpt>
      <trkpt lat="44.15811" lon="6.08229">
        <ele>1300</ele>
        <time>2022-03-03T11:03:33.000Z</time>
      </trkpt>
      <trkpt lat="44.15811" lon="6.08229">
        <ele>1300</ele>
        <time>2022-03-03T11:03:34.000Z</time>
      </trkpt>
      <trkpt lat="44.15811" lon="6.08229">
        <ele>1300</ele>
        <time>2022-03-03T11:03:35.000Z</time>
      </trkpt>
      <trkpt lat="44.15811" lon="6.08229">
        <ele>1300</ele>
        <time>2022-03-03T11:03:36.000Z</time>
      </trkpt>
      <trkpt lat="44.15811" lon="6.08229">
        <ele>1300</ele>
        <time>2022-03-03T11:03:37.000Z</time>
      </trkpt>
      <trkpt lat="44.15811" lon="6.08229">
        <ele>1300</ele>
        <time>2022-03-03T11:03:38.000Z</time>
      </trkpt>
      <trkpt lat="44.15811" lon="6.08229">
        <ele>1300</ele>
        <time>2022-03-03T11:03:39.000Z</time>
      </trkpt>
      <trkpt lat="44.15811" lon="6.08229">
        <ele>1300</ele>
        <time>2022-03-03T11:03:40.000Z</time>
      </trkpt>
      <trkpt lat="44.15811" lon="6.08229">
        <ele>1300</ele>
        <time>2022-03-03T11:03:41.000Z</time>
      </trkpt>
      <trkpt lat="44.15811" lon="6.08229">
        <ele>1300</ele>
        <time>2022-03-03T11:03:42.000Z</time>
      </trkpt>
      <trkpt lat="44.15811" lon="6.08229">
        <ele>1300</ele>
        <time>2022-03-03T11:03:43.000Z</time>
      </trkpt>
      <trkpt lat="44.15812" lon="6.08229">
        <ele>1300</ele>
        <time>2022-03-03T11:03:44.000Z</time>
      </trkpt>
      <trkpt lat="44.15812" lon="6.08228">
        <ele>1300</ele>
        <time>2022-03-03T11:03:45.000Z</time>
      </trkpt>
      <trkpt lat="44.15812" lon="6.08228">
        <ele>1301</ele>
        <time>2022-03-03T11:03:46.000Z</time>
      </trkpt>
      <trkpt lat="44.15812" lon="6.08227">
        <ele>1301</ele>
        <time>2022-03-03T11:03:47.000Z</time>
      </trkpt>
      <trkpt lat="44.15812" lon="6.08227">
        <ele>1301</ele>
        <time>2022-03-03T11:03:48.000Z</time>
      </trkpt>
      <trkpt lat="44.15812" lon="6.08227">
        <ele>1301</ele>
        <time>2022-03-03T11:03:49.000Z</time>
      </trkpt>
      <trkpt lat="44.15812" lon="6.08227">
        <ele>1301</ele>
        <time>2022-03-03T11:03:50.000Z</time>
      </trkpt>
      <trkpt lat="44.15812" lon="6.08227">
        <ele>1301</ele>
        <time>2022-03-03T11:03:51.000Z</time>
      </trkpt>
      <trkpt lat="44.15812" lon="6.08227">
        <ele>1301</ele>
        <time>2022-03-03T11:03:52.000Z</time>
      </trkpt>
      <trkpt lat="44.15812" lon="6.08227">
        <ele>1301</ele>
        <time>2022-03-03T11:03:53.000Z</time>
      </trkpt>
      <trkpt lat="44.15812" lon="6.08227">
        <ele>1301</ele>
        <time>2022-03-03T11:03:54.000Z</time>
      </trkpt>
      <trkpt lat="44.15812" lon="6.08227">
        <ele>1301</ele>
        <time>2022-03-03T11:03:55.000Z</time>
      </trkpt>
      <trkpt lat="44.15812" lon="6.08227">
        <ele>1301</ele>
        <time>2022-03-03T11:03:56.000Z</time>
      </trkpt>
      <trkpt lat="44.15812" lon="6.08227">
        <ele>1302</ele>
        <time>2022-03-03T11:03:57.000Z</time>
      </trkpt>
      <trkpt lat="44.15812" lon="6.08227">
        <ele>1302</ele>
        <time>2022-03-03T11:03:58.000Z</time>
      </trkpt>
      <trkpt lat="44.15812" lon="6.08227">
        <ele>1302</ele>
        <time>2022-03-03T11:03:59.000Z</time>
      </trkpt>
      <trkpt lat="44.15812" lon="6.08227">
        <ele>1302</ele>
        <time>2022-03-03T11:04:00.000Z</time>
      </trkpt>
      <trkpt lat="44.15812" lon="6.08227">
        <ele>1302</ele>
        <time>2022-03-03T11:04:01.000Z</time>
      </trkpt>
      <trkpt lat="44.15812" lon="6.08227">
        <ele>1302</ele>
        <time>2022-03-03T11:04:02.000Z</time>
      </trkpt>
      <trkpt lat="44.15812" lon="6.08228">
        <ele>1302</ele>
        <time>2022-03-03T11:04:03.000Z</time>
      </trkpt>
      <trkpt lat="44.15812" lon="6.08228">
        <ele>1302</ele>
        <time>2022-03-03T11:04:04.000Z</time>
      </trkpt>
      <trkpt lat="44.15812" lon="6.08228">
        <ele>1302</ele>
        <time>2022-03-03T11:04:05.000Z</time>
      </trkpt>
      <trkpt lat="44.15812" lon="6.08228">
        <ele>1302</ele>
        <time>2022-03-03T11:04:06.000Z</time>
      </trkpt>
      <trkpt lat="44.15812" lon="6.08227">
        <ele>1302</ele>
        <time>2022-03-03T11:04:07.000Z</time>
      </trkpt>
      <trkpt lat="44.15812" lon="6.08227">
        <ele>1302</ele>
        <time>2022-03-03T11:04:08.000Z</time>
      </trkpt>
      <trkpt lat="44.15812" lon="6.08228">
        <ele>1302</ele>
        <time>2022-03-03T11:04:09.000Z</time>
      </trkpt>
      <trkpt lat="44.15812" lon="6.08228">
        <ele>1302</ele>
        <time>2022-03-03T11:04:10.000Z</time>
      </trkpt>
      <trkpt lat="44.15812" lon="6.08228">
        <ele>1302</ele>
        <time>2022-03-03T11:04:11.000Z</time>
      </trkpt>
      <trkpt lat="44.15812" lon="6.08228">
        <ele>1302</ele>
        <time>2022-03-03T11:04:12.000Z</time>
      </trkpt>
      <trkpt lat="44.15812" lon="6.08228">
        <ele>1302</ele>
        <time>2022-03-03T11:04:13.000Z</time>
      </trkpt>
      <trkpt lat="44.15812" lon="6.08228">
        <ele>1302</ele>
        <time>2022-03-03T11:04:14.000Z</time>
      </trkpt>
      <trkpt lat="44.15812" lon="6.08228">
        <ele>1302</ele>
        <time>2022-03-03T11:04:15.000Z</time>
      </trkpt>
      <trkpt lat="44.15812" lon="6.08228">
        <ele>1302</ele>
        <time>2022-03-03T11:04:16.000Z</time>
      </trkpt>
      <trkpt lat="44.15812" lon="6.08228">
        <ele>1302</ele>
        <time>2022-03-03T11:04:17.000Z</time>
      </trkpt>
      <trkpt lat="44.15812" lon="6.08228">
        <ele>1302</ele>
        <time>2022-03-03T11:04:18.000Z</time>
      </trkpt>
      <trkpt lat="44.15812" lon="6.08228">
        <ele>1302</ele>
        <time>2022-03-03T11:04:19.000Z</time>
      </trkpt>
      <trkpt lat="44.15812" lon="6.08228">
        <ele>1302</ele>
        <time>2022-03-03T11:04:20.000Z</time>
      </trkpt>
      <trkpt lat="44.15812" lon="6.08228">
        <ele>1302</ele>
        <time>2022-03-03T11:04:21.000Z</time>
      </trkpt>
      <trkpt lat="44.15812" lon="6.08228">
        <ele>1302</ele>
        <time>2022-03-03T11:04:22.000Z</time>
      </trkpt>
      <trkpt lat="44.15812" lon="6.08228">
        <ele>1302</ele>
        <time>2022-03-03T11:04:23.000Z</time>
      </trkpt>
      <trkpt lat="44.15812" lon="6.08227">
        <ele>1302</ele>
        <time>2022-03-03T11:04:24.000Z</time>
      </trkpt>
      <trkpt lat="44.15812" lon="6.08227">
        <ele>1302</ele>
        <time>2022-03-03T11:04:25.000Z</time>
      </trkpt>
      <trkpt lat="44.15812" lon="6.08227">
        <ele>1302</ele>
        <time>2022-03-03T11:04:26.000Z</time>
      </trkpt>
      <trkpt lat="44.15812" lon="6.08228">
        <ele>1302</ele>
        <time>2022-03-03T11:04:27.000Z</time>
      </trkpt>
      <trkpt lat="44.15812" lon="6.08228">
        <ele>1302</ele>
        <time>2022-03-03T11:04:28.000Z</time>
      </trkpt>
      <trkpt lat="44.15812" lon="6.08227">
        <ele>1302</ele>
        <time>2022-03-03T11:04:29.000Z</time>
      </trkpt>
      <trkpt lat="44.15812" lon="6.08227">
        <ele>1302</ele>
        <time>2022-03-03T11:04:30.000Z</time>
      </trkpt>
      <trkpt lat="44.15812" lon="6.08226">
        <ele>1302</ele>
        <time>2022-03-03T11:04:31.000Z</time>
      </trkpt>
      <trkpt lat="44.15812" lon="6.08226">
        <ele>1302</ele>
        <time>2022-03-03T11:04:32.000Z</time>
      </trkpt>
      <trkpt lat="44.15812" lon="6.08226">
        <ele>1302</ele>
        <time>2022-03-03T11:04:33.000Z</time>
      </trkpt>
      <trkpt lat="44.15812" lon="6.08226">
        <ele>1302</ele>
        <time>2022-03-03T11:04:34.000Z</time>
      </trkpt>
      <trkpt lat="44.15812" lon="6.08226">
        <ele>1302</ele>
        <time>2022-03-03T11:04:35.000Z</time>
      </trkpt>
      <trkpt lat="44.15812" lon="6.08226">
        <ele>1302</ele>
        <time>2022-03-03T11:04:36.000Z</time>
      </trkpt>
      <trkpt lat="44.15812" lon="6.08226">
        <ele>1302</ele>
        <time>2022-03-03T11:04:37.000Z</time>
      </trkpt>
      <trkpt lat="44.15812" lon="6.08226">
        <ele>1302</ele>
        <time>2022-03-03T11:04:38.000Z</time>
      </trkpt>
      <trkpt lat="44.15812" lon="6.08226">
        <ele>1302</ele>
        <time>2022-03-03T11:04:39.000Z</time>
      </trkpt>
      <trkpt lat="44.15812" lon="6.08226">
        <ele>1302</ele>
        <time>2022-03-03T11:04:40.000Z</time>
      </trkpt>
      <trkpt lat="44.15812" lon="6.08226">
        <ele>1302</ele>
        <time>2022-03-03T11:04:41.000Z</time>
      </trkpt>
      <trkpt lat="44.15812" lon="6.08226">
        <ele>1302</ele>
        <time>2022-03-03T11:04:42.000Z</time>
      </trkpt>
      <trkpt lat="44.15812" lon="6.08226">
        <ele>1302</ele>
        <time>2022-03-03T11:04:43.000Z</time>
      </trkpt>
      <trkpt lat="44.15812" lon="6.08226">
        <ele>1302</ele>
        <time>2022-03-03T11:04:44.000Z</time>
      </trkpt>
      <trkpt lat="44.15812" lon="6.08226">
        <ele>1302</ele>
        <time>2022-03-03T11:04:45.000Z</time>
      </trkpt>
      <trkpt lat="44.15812" lon="6.08226">
        <ele>1302</ele>
        <time>2022-03-03T11:04:46.000Z</time>
      </trkpt>
      <trkpt lat="44.15812" lon="6.08226">
        <ele>1302</ele>
        <time>2022-03-03T11:04:47.000Z</time>
      </trkpt>
      <trkpt lat="44.15812" lon="6.08226">
        <ele>1302</ele>
        <time>2022-03-03T11:04:48.000Z</time>
      </trkpt>
      <trkpt lat="44.15812" lon="6.08225">
        <ele>1302</ele>
        <time>2022-03-03T11:04:49.000Z</time>
      </trkpt>
      <trkpt lat="44.15812" lon="6.08224">
        <ele>1302</ele>
        <time>2022-03-03T11:04:50.000Z</time>
      </trkpt>
      <trkpt lat="44.15813" lon="6.08223">
        <ele>1303</ele>
        <time>2022-03-03T11:04:51.000Z</time>
      </trkpt>
      <trkpt lat="44.15813" lon="6.08222">
        <ele>1303</ele>
        <time>2022-03-03T11:04:52.000Z</time>
      </trkpt>
      <trkpt lat="44.15814" lon="6.08221">
        <ele>1303</ele>
        <time>2022-03-03T11:04:53.000Z</time>
      </trkpt>
      <trkpt lat="44.15814" lon="6.08221">
        <ele>1303</ele>
        <time>2022-03-03T11:04:54.000Z</time>
      </trkpt>
      <trkpt lat="44.15815" lon="6.0822">
        <ele>1303</ele>
        <time>2022-03-03T11:04:55.000Z</time>
      </trkpt>
      <trkpt lat="44.15815" lon="6.08219">
        <ele>1303</ele>
        <time>2022-03-03T11:04:56.000Z</time>
      </trkpt>
      <trkpt lat="44.15816" lon="6.08218">
        <ele>1303</ele>
        <time>2022-03-03T11:04:57.000Z</time>
      </trkpt>
      <trkpt lat="44.15816" lon="6.08218">
        <ele>1304</ele>
        <time>2022-03-03T11:04:58.000Z</time>
      </trkpt>
      <trkpt lat="44.15816" lon="6.08217">
        <ele>1304</ele>
        <time>2022-03-03T11:04:59.000Z</time>
      </trkpt>
      <trkpt lat="44.15816" lon="6.08217">
        <ele>1304</ele>
        <time>2022-03-03T11:05:00.000Z</time>
      </trkpt>
      <trkpt lat="44.15817" lon="6.08217">
        <ele>1304</ele>
        <time>2022-03-03T11:05:01.000Z</time>
      </trkpt>
      <trkpt lat="44.15817" lon="6.08216">
        <ele>1304</ele>
        <time>2022-03-03T11:05:02.000Z</time>
      </trkpt>
      <trkpt lat="44.15818" lon="6.08215">
        <ele>1304</ele>
        <time>2022-03-03T11:05:03.000Z</time>
      </trkpt>
      <trkpt lat="44.15818" lon="6.08214">
        <ele>1304</ele>
        <time>2022-03-03T11:05:04.000Z</time>
      </trkpt>
      <trkpt lat="44.15819" lon="6.08213">
        <ele>1304</ele>
        <time>2022-03-03T11:05:05.000Z</time>
      </trkpt>
      <trkpt lat="44.15819" lon="6.08212">
        <ele>1304</ele>
        <time>2022-03-03T11:05:06.000Z</time>
      </trkpt>
      <trkpt lat="44.1582" lon="6.08211">
        <ele>1304</ele>
        <time>2022-03-03T11:05:07.000Z</time>
      </trkpt>
      <trkpt lat="44.1582" lon="6.0821">
        <ele>1305</ele>
        <time>2022-03-03T11:05:08.000Z</time>
      </trkpt>
      <trkpt lat="44.15821" lon="6.08209">
        <ele>1305</ele>
        <time>2022-03-03T11:05:09.000Z</time>
      </trkpt>
      <trkpt lat="44.15821" lon="6.08208">
        <ele>1305</ele>
        <time>2022-03-03T11:05:10.000Z</time>
      </trkpt>
      <trkpt lat="44.15822" lon="6.08207">
        <ele>1305</ele>
        <time>2022-03-03T11:05:11.000Z</time>
      </trkpt>
      <trkpt lat="44.15822" lon="6.08206">
        <ele>1305</ele>
        <time>2022-03-03T11:05:12.000Z</time>
      </trkpt>
      <trkpt lat="44.15823" lon="6.08205">
        <ele>1305</ele>
        <time>2022-03-03T11:05:13.000Z</time>
      </trkpt>
      <trkpt lat="44.15823" lon="6.08204">
        <ele>1305</ele>
        <time>2022-03-03T11:05:14.000Z</time>
      </trkpt>
      <trkpt lat="44.15824" lon="6.08202">
        <ele>1305</ele>
        <time>2022-03-03T11:05:15.000Z</time>
      </trkpt>
      <trkpt lat="44.15824" lon="6.08201">
        <ele>1305</ele>
        <time>2022-03-03T11:05:16.000Z</time>
      </trkpt>
      <trkpt lat="44.15825" lon="6.082">
        <ele>1305</ele>
        <time>2022-03-03T11:05:17.000Z</time>
      </trkpt>
      <trkpt lat="44.15825" lon="6.08199">
        <ele>1305</ele>
        <time>2022-03-03T11:05:18.000Z</time>
      </trkpt>
      <trkpt lat="44.15826" lon="6.08198">
        <ele>1305</ele>
        <time>2022-03-03T11:05:19.000Z</time>
      </trkpt>
      <trkpt lat="44.15826" lon="6.08197">
        <ele>1305</ele>
        <time>2022-03-03T11:05:20.000Z</time>
      </trkpt>
      <trkpt lat="44.15826" lon="6.08195">
        <ele>1306</ele>
        <time>2022-03-03T11:05:21.000Z</time>
      </trkpt>
      <trkpt lat="44.15827" lon="6.08194">
        <ele>1306</ele>
        <time>2022-03-03T11:05:22.000Z</time>
      </trkpt>
      <trkpt lat="44.15827" lon="6.08193">
        <ele>1306</ele>
        <time>2022-03-03T11:05:23.000Z</time>
      </trkpt>
      <trkpt lat="44.15828" lon="6.08192">
        <ele>1306</ele>
        <time>2022-03-03T11:05:24.000Z</time>
      </trkpt>
      <trkpt lat="44.15828" lon="6.0819">
        <ele>1306</ele>
        <time>2022-03-03T11:05:25.000Z</time>
      </trkpt>
      <trkpt lat="44.15828" lon="6.08189">
        <ele>1306</ele>
        <time>2022-03-03T11:05:26.000Z</time>
      </trkpt>
      <trkpt lat="44.15829" lon="6.08188">
        <ele>1306</ele>
        <time>2022-03-03T11:05:27.000Z</time>
      </trkpt>
      <trkpt lat="44.15829" lon="6.08187">
        <ele>1307</ele>
        <time>2022-03-03T11:05:28.000Z</time>
      </trkpt>
      <trkpt lat="44.1583" lon="6.08186">
        <ele>1307</ele>
        <time>2022-03-03T11:05:29.000Z</time>
      </trkpt>
      <trkpt lat="44.1583" lon="6.08185">
        <ele>1307</ele>
        <time>2022-03-03T11:05:30.000Z</time>
      </trkpt>
      <trkpt lat="44.15831" lon="6.08184">
        <ele>1307</ele>
        <time>2022-03-03T11:05:31.000Z</time>
      </trkpt>
      <trkpt lat="44.15831" lon="6.08183">
        <ele>1307</ele>
        <time>2022-03-03T11:05:32.000Z</time>
      </trkpt>
      <trkpt lat="44.15832" lon="6.08182">
        <ele>1307</ele>
        <time>2022-03-03T11:05:33.000Z</time>
      </trkpt>
      <trkpt lat="44.15832" lon="6.08181">
        <ele>1307</ele>
        <time>2022-03-03T11:05:34.000Z</time>
      </trkpt>
      <trkpt lat="44.15833" lon="6.0818">
        <ele>1307</ele>
        <time>2022-03-03T11:05:35.000Z</time>
      </trkpt>
      <trkpt lat="44.15833" lon="6.08178">
        <ele>1308</ele>
        <time>2022-03-03T11:05:36.000Z</time>
      </trkpt>
      <trkpt lat="44.15834" lon="6.08177">
        <ele>1308</ele>
        <time>2022-03-03T11:05:37.000Z</time>
      </trkpt>
      <trkpt lat="44.15834" lon="6.08176">
        <ele>1308</ele>
        <time>2022-03-03T11:05:38.000Z</time>
      </trkpt>
      <trkpt lat="44.15835" lon="6.08175">
        <ele>1308</ele>
        <time>2022-03-03T11:05:39.000Z</time>
      </trkpt>
      <trkpt lat="44.15835" lon="6.08174">
        <ele>1308</ele>
        <time>2022-03-03T11:05:40.000Z</time>
      </trkpt>
      <trkpt lat="44.15835" lon="6.08173">
        <ele>1308</ele>
        <time>2022-03-03T11:05:41.000Z</time>
      </trkpt>
      <trkpt lat="44.15836" lon="6.08171">
        <ele>1308</ele>
        <time>2022-03-03T11:05:42.000Z</time>
      </trkpt>
      <trkpt lat="44.15836" lon="6.0817">
        <ele>1308</ele>
        <time>2022-03-03T11:05:43.000Z</time>
      </trkpt>
      <trkpt lat="44.15836" lon="6.08169">
        <ele>1309</ele>
        <time>2022-03-03T11:05:44.000Z</time>
      </trkpt>
      <trkpt lat="44.15837" lon="6.08167">
        <ele>1309</ele>
        <time>2022-03-03T11:05:45.000Z</time>
      </trkpt>
      <trkpt lat="44.15837" lon="6.08166">
        <ele>1309</ele>
        <time>2022-03-03T11:05:46.000Z</time>
      </trkpt>
      <trkpt lat="44.15837" lon="6.08165">
        <ele>1309</ele>
        <time>2022-03-03T11:05:47.000Z</time>
      </trkpt>
      <trkpt lat="44.15837" lon="6.08164">
        <ele>1309</ele>
        <time>2022-03-03T11:05:48.000Z</time>
      </trkpt>
      <trkpt lat="44.15838" lon="6.08162">
        <ele>1309</ele>
        <time>2022-03-03T11:05:49.000Z</time>
      </trkpt>
      <trkpt lat="44.15838" lon="6.08161">
        <ele>1309</ele>
        <time>2022-03-03T11:05:50.000Z</time>
      </trkpt>
      <trkpt lat="44.15838" lon="6.0816">
        <ele>1309</ele>
        <time>2022-03-03T11:05:51.000Z</time>
      </trkpt>
      <trkpt lat="44.15839" lon="6.08158">
        <ele>1309</ele>
        <time>2022-03-03T11:05:52.000Z</time>
      </trkpt>
      <trkpt lat="44.15839" lon="6.08157">
        <ele>1309</ele>
        <time>2022-03-03T11:05:53.000Z</time>
      </trkpt>
      <trkpt lat="44.15839" lon="6.08156">
        <ele>1310</ele>
        <time>2022-03-03T11:05:54.000Z</time>
      </trkpt>
      <trkpt lat="44.1584" lon="6.08155">
        <ele>1310</ele>
        <time>2022-03-03T11:05:55.000Z</time>
      </trkpt>
      <trkpt lat="44.1584" lon="6.08154">
        <ele>1310</ele>
        <time>2022-03-03T11:05:56.000Z</time>
      </trkpt>
      <trkpt lat="44.1584" lon="6.08153">
        <ele>1310</ele>
        <time>2022-03-03T11:05:57.000Z</time>
      </trkpt>
      <trkpt lat="44.15841" lon="6.08151">
        <ele>1310</ele>
        <time>2022-03-03T11:05:58.000Z</time>
      </trkpt>
      <trkpt lat="44.15841" lon="6.08151">
        <ele>1310</ele>
        <time>2022-03-03T11:05:59.000Z</time>
      </trkpt>
      <trkpt lat="44.15841" lon="6.08149">
        <ele>1310</ele>
        <time>2022-03-03T11:06:00.000Z</time>
      </trkpt>
      <trkpt lat="44.15842" lon="6.08148">
        <ele>1311</ele>
        <time>2022-03-03T11:06:01.000Z</time>
      </trkpt>
      <trkpt lat="44.15842" lon="6.08147">
        <ele>1311</ele>
        <time>2022-03-03T11:06:02.000Z</time>
      </trkpt>
      <trkpt lat="44.15842" lon="6.08146">
        <ele>1311</ele>
        <time>2022-03-03T11:06:03.000Z</time>
      </trkpt>
      <trkpt lat="44.15843" lon="6.08145">
        <ele>1311</ele>
        <time>2022-03-03T11:06:04.000Z</time>
      </trkpt>
      <trkpt lat="44.15843" lon="6.08144">
        <ele>1311</ele>
        <time>2022-03-03T11:06:05.000Z</time>
      </trkpt>
      <trkpt lat="44.15844" lon="6.08142">
        <ele>1311</ele>
        <time>2022-03-03T11:06:06.000Z</time>
      </trkpt>
      <trkpt lat="44.15844" lon="6.08141">
        <ele>1312</ele>
        <time>2022-03-03T11:06:07.000Z</time>
      </trkpt>
      <trkpt lat="44.15845" lon="6.0814">
        <ele>1312</ele>
        <time>2022-03-03T11:06:08.000Z</time>
      </trkpt>
      <trkpt lat="44.15845" lon="6.08139">
        <ele>1312</ele>
        <time>2022-03-03T11:06:09.000Z</time>
      </trkpt>
      <trkpt lat="44.15846" lon="6.08138">
        <ele>1312</ele>
        <time>2022-03-03T11:06:10.000Z</time>
      </trkpt>
      <trkpt lat="44.15846" lon="6.08137">
        <ele>1312</ele>
        <time>2022-03-03T11:06:11.000Z</time>
      </trkpt>
      <trkpt lat="44.15846" lon="6.08136">
        <ele>1312</ele>
        <time>2022-03-03T11:06:12.000Z</time>
      </trkpt>
      <trkpt lat="44.15847" lon="6.08135">
        <ele>1312</ele>
        <time>2022-03-03T11:06:13.000Z</time>
      </trkpt>
      <trkpt lat="44.15847" lon="6.08134">
        <ele>1312</ele>
        <time>2022-03-03T11:06:14.000Z</time>
      </trkpt>
      <trkpt lat="44.15847" lon="6.08133">
        <ele>1313</ele>
        <time>2022-03-03T11:06:15.000Z</time>
      </trkpt>
      <trkpt lat="44.15847" lon="6.08131">
        <ele>1313</ele>
        <time>2022-03-03T11:06:16.000Z</time>
      </trkpt>
      <trkpt lat="44.15847" lon="6.08131">
        <ele>1313</ele>
        <time>2022-03-03T11:06:17.000Z</time>
      </trkpt>
      <trkpt lat="44.15848" lon="6.08129">
        <ele>1313</ele>
        <time>2022-03-03T11:06:18.000Z</time>
      </trkpt>
      <trkpt lat="44.15848" lon="6.08128">
        <ele>1313</ele>
        <time>2022-03-03T11:06:19.000Z</time>
      </trkpt>
      <trkpt lat="44.15848" lon="6.08127">
        <ele>1313</ele>
        <time>2022-03-03T11:06:20.000Z</time>
      </trkpt>
      <trkpt lat="44.15849" lon="6.08126">
        <ele>1313</ele>
        <time>2022-03-03T11:06:21.000Z</time>
      </trkpt>
      <trkpt lat="44.15849" lon="6.08125">
        <ele>1313</ele>
        <time>2022-03-03T11:06:22.000Z</time>
      </trkpt>
      <trkpt lat="44.15849" lon="6.08124">
        <ele>1314</ele>
        <time>2022-03-03T11:06:23.000Z</time>
      </trkpt>
      <trkpt lat="44.15849" lon="6.08122">
        <ele>1314</ele>
        <time>2022-03-03T11:06:24.000Z</time>
      </trkpt>
      <trkpt lat="44.1585" lon="6.08121">
        <ele>1314</ele>
        <time>2022-03-03T11:06:25.000Z</time>
      </trkpt>
      <trkpt lat="44.1585" lon="6.0812">
        <ele>1314</ele>
        <time>2022-03-03T11:06:26.000Z</time>
      </trkpt>
      <trkpt lat="44.1585" lon="6.08119">
        <ele>1314</ele>
        <time>2022-03-03T11:06:27.000Z</time>
      </trkpt>
      <trkpt lat="44.1585" lon="6.08118">
        <ele>1314</ele>
        <time>2022-03-03T11:06:28.000Z</time>
      </trkpt>
      <trkpt lat="44.15851" lon="6.08117">
        <ele>1314</ele>
        <time>2022-03-03T11:06:29.000Z</time>
      </trkpt>
      <trkpt lat="44.15851" lon="6.08116">
        <ele>1314</ele>
        <time>2022-03-03T11:06:30.000Z</time>
      </trkpt>
      <trkpt lat="44.15851" lon="6.08115">
        <ele>1314</ele>
        <time>2022-03-03T11:06:31.000Z</time>
      </trkpt>
      <trkpt lat="44.15851" lon="6.08114">
        <ele>1314</ele>
        <time>2022-03-03T11:06:32.000Z</time>
      </trkpt>
      <trkpt lat="44.15851" lon="6.08113">
        <ele>1314</ele>
        <time>2022-03-03T11:06:33.000Z</time>
      </trkpt>
      <trkpt lat="44.15852" lon="6.08112">
        <ele>1314</ele>
        <time>2022-03-03T11:06:34.000Z</time>
      </trkpt>
      <trkpt lat="44.15853" lon="6.08111">
        <ele>1314</ele>
        <time>2022-03-03T11:06:35.000Z</time>
      </trkpt>
      <trkpt lat="44.15853" lon="6.0811">
        <ele>1314</ele>
        <time>2022-03-03T11:06:36.000Z</time>
      </trkpt>
      <trkpt lat="44.15853" lon="6.08109">
        <ele>1314</ele>
        <time>2022-03-03T11:06:37.000Z</time>
      </trkpt>
      <trkpt lat="44.15854" lon="6.08108">
        <ele>1314</ele>
        <time>2022-03-03T11:06:38.000Z</time>
      </trkpt>
      <trkpt lat="44.15854" lon="6.08107">
        <ele>1315</ele>
        <time>2022-03-03T11:06:39.000Z</time>
      </trkpt>
      <trkpt lat="44.15855" lon="6.08106">
        <ele>1315</ele>
        <time>2022-03-03T11:06:40.000Z</time>
      </trkpt>
      <trkpt lat="44.15855" lon="6.08105">
        <ele>1315</ele>
        <time>2022-03-03T11:06:41.000Z</time>
      </trkpt>
      <trkpt lat="44.15856" lon="6.08104">
        <ele>1315</ele>
        <time>2022-03-03T11:06:42.000Z</time>
      </trkpt>
      <trkpt lat="44.15856" lon="6.08104">
        <ele>1315</ele>
        <time>2022-03-03T11:06:43.000Z</time>
      </trkpt>
      <trkpt lat="44.15857" lon="6.08103">
        <ele>1315</ele>
        <time>2022-03-03T11:06:44.000Z</time>
      </trkpt>
      <trkpt lat="44.15857" lon="6.08102">
        <ele>1315</ele>
        <time>2022-03-03T11:06:45.000Z</time>
      </trkpt>
      <trkpt lat="44.15857" lon="6.08101">
        <ele>1315</ele>
        <time>2022-03-03T11:06:46.000Z</time>
      </trkpt>
      <trkpt lat="44.15858" lon="6.081">
        <ele>1315</ele>
        <time>2022-03-03T11:06:47.000Z</time>
      </trkpt>
      <trkpt lat="44.15858" lon="6.08098">
        <ele>1315</ele>
        <time>2022-03-03T11:06:48.000Z</time>
      </trkpt>
      <trkpt lat="44.15857" lon="6.08098">
        <ele>1315</ele>
        <time>2022-03-03T11:06:49.000Z</time>
      </trkpt>
      <trkpt lat="44.15857" lon="6.08096">
        <ele>1315</ele>
        <time>2022-03-03T11:06:50.000Z</time>
      </trkpt>
      <trkpt lat="44.15857" lon="6.08095">
        <ele>1315</ele>
        <time>2022-03-03T11:06:51.000Z</time>
      </trkpt>
      <trkpt lat="44.15856" lon="6.08094">
        <ele>1315</ele>
        <time>2022-03-03T11:06:52.000Z</time>
      </trkpt>
      <trkpt lat="44.15855" lon="6.08093">
        <ele>1315</ele>
        <time>2022-03-03T11:06:53.000Z</time>
      </trkpt>
      <trkpt lat="44.15855" lon="6.08093">
        <ele>1315</ele>
        <time>2022-03-03T11:06:54.000Z</time>
      </trkpt>
      <trkpt lat="44.15854" lon="6.08092">
        <ele>1315</ele>
        <time>2022-03-03T11:06:55.000Z</time>
      </trkpt>
      <trkpt lat="44.15853" lon="6.08091">
        <ele>1315</ele>
        <time>2022-03-03T11:06:56.000Z</time>
      </trkpt>
      <trkpt lat="44.15853" lon="6.0809">
        <ele>1315</ele>
        <time>2022-03-03T11:06:57.000Z</time>
      </trkpt>
      <trkpt lat="44.15852" lon="6.08089">
        <ele>1315</ele>
        <time>2022-03-03T11:06:58.000Z</time>
      </trkpt>
      <trkpt lat="44.15851" lon="6.08088">
        <ele>1315</ele>
        <time>2022-03-03T11:06:59.000Z</time>
      </trkpt>
      <trkpt lat="44.1585" lon="6.08088">
        <ele>1315</ele>
        <time>2022-03-03T11:07:00.000Z</time>
      </trkpt>
      <trkpt lat="44.1585" lon="6.08087">
        <ele>1315</ele>
        <time>2022-03-03T11:07:01.000Z</time>
      </trkpt>
      <trkpt lat="44.15849" lon="6.08086">
        <ele>1315</ele>
        <time>2022-03-03T11:07:02.000Z</time>
      </trkpt>
      <trkpt lat="44.15848" lon="6.08085">
        <ele>1315</ele>
        <time>2022-03-03T11:07:03.000Z</time>
      </trkpt>
      <trkpt lat="44.15848" lon="6.08084">
        <ele>1315</ele>
        <time>2022-03-03T11:07:04.000Z</time>
      </trkpt>
      <trkpt lat="44.15847" lon="6.08083">
        <ele>1315</ele>
        <time>2022-03-03T11:07:05.000Z</time>
      </trkpt>
      <trkpt lat="44.15846" lon="6.08082">
        <ele>1315</ele>
        <time>2022-03-03T11:07:06.000Z</time>
      </trkpt>
      <trkpt lat="44.15846" lon="6.08081">
        <ele>1315</ele>
        <time>2022-03-03T11:07:07.000Z</time>
      </trkpt>
      <trkpt lat="44.15845" lon="6.0808">
        <ele>1315</ele>
        <time>2022-03-03T11:07:08.000Z</time>
      </trkpt>
      <trkpt lat="44.15845" lon="6.08079">
        <ele>1315</ele>
        <time>2022-03-03T11:07:09.000Z</time>
      </trkpt>
      <trkpt lat="44.15844" lon="6.08078">
        <ele>1315</ele>
        <time>2022-03-03T11:07:10.000Z</time>
      </trkpt>
      <trkpt lat="44.15844" lon="6.08076">
        <ele>1315</ele>
        <time>2022-03-03T11:07:11.000Z</time>
      </trkpt>
      <trkpt lat="44.15843" lon="6.08075">
        <ele>1315</ele>
        <time>2022-03-03T11:07:12.000Z</time>
      </trkpt>
      <trkpt lat="44.15843" lon="6.08074">
        <ele>1315</ele>
        <time>2022-03-03T11:07:13.000Z</time>
      </trkpt>
      <trkpt lat="44.15842" lon="6.08073">
        <ele>1315</ele>
        <time>2022-03-03T11:07:14.000Z</time>
      </trkpt>
      <trkpt lat="44.15842" lon="6.08072">
        <ele>1315</ele>
        <time>2022-03-03T11:07:15.000Z</time>
      </trkpt>
      <trkpt lat="44.15841" lon="6.08071">
        <ele>1315</ele>
        <time>2022-03-03T11:07:16.000Z</time>
      </trkpt>
      <trkpt lat="44.1584" lon="6.0807">
        <ele>1315</ele>
        <time>2022-03-03T11:07:17.000Z</time>
      </trkpt>
      <trkpt lat="44.15839" lon="6.0807">
        <ele>1315</ele>
        <time>2022-03-03T11:07:18.000Z</time>
      </trkpt>
      <trkpt lat="44.15838" lon="6.08069">
        <ele>1315</ele>
        <time>2022-03-03T11:07:19.000Z</time>
      </trkpt>
      <trkpt lat="44.15837" lon="6.08069">
        <ele>1315</ele>
        <time>2022-03-03T11:07:20.000Z</time>
      </trkpt>
      <trkpt lat="44.15836" lon="6.08068">
        <ele>1315</ele>
        <time>2022-03-03T11:07:21.000Z</time>
      </trkpt>
      <trkpt lat="44.15835" lon="6.08068">
        <ele>1315</ele>
        <time>2022-03-03T11:07:22.000Z</time>
      </trkpt>
      <trkpt lat="44.15835" lon="6.08067">
        <ele>1314</ele>
        <time>2022-03-03T11:07:23.000Z</time>
      </trkpt>
      <trkpt lat="44.15834" lon="6.08067">
        <ele>1314</ele>
        <time>2022-03-03T11:07:24.000Z</time>
      </trkpt>
      <trkpt lat="44.15833" lon="6.08066">
        <ele>1314</ele>
        <time>2022-03-03T11:07:25.000Z</time>
      </trkpt>
      <trkpt lat="44.15832" lon="6.08066">
        <ele>1314</ele>
        <time>2022-03-03T11:07:26.000Z</time>
      </trkpt>
      <trkpt lat="44.15831" lon="6.08065">
        <ele>1314</ele>
        <time>2022-03-03T11:07:27.000Z</time>
      </trkpt>
      <trkpt lat="44.1583" lon="6.08064">
        <ele>1314</ele>
        <time>2022-03-03T11:07:28.000Z</time>
      </trkpt>
      <trkpt lat="44.15829" lon="6.08064">
        <ele>1313</ele>
        <time>2022-03-03T11:07:29.000Z</time>
      </trkpt>
      <trkpt lat="44.15828" lon="6.08063">
        <ele>1313</ele>
        <time>2022-03-03T11:07:30.000Z</time>
      </trkpt>
      <trkpt lat="44.15827" lon="6.08063">
        <ele>1313</ele>
        <time>2022-03-03T11:07:31.000Z</time>
      </trkpt>
      <trkpt lat="44.15827" lon="6.08062">
        <ele>1313</ele>
        <time>2022-03-03T11:07:32.000Z</time>
      </trkpt>
      <trkpt lat="44.15826" lon="6.08062">
        <ele>1313</ele>
        <time>2022-03-03T11:07:33.000Z</time>
      </trkpt>
      <trkpt lat="44.15825" lon="6.08061">
        <ele>1313</ele>
        <time>2022-03-03T11:07:34.000Z</time>
      </trkpt>
      <trkpt lat="44.15824" lon="6.0806">
        <ele>1312</ele>
        <time>2022-03-03T11:07:35.000Z</time>
      </trkpt>
      <trkpt lat="44.15823" lon="6.0806">
        <ele>1312</ele>
        <time>2022-03-03T11:07:36.000Z</time>
      </trkpt>
      <trkpt lat="44.15822" lon="6.0806">
        <ele>1312</ele>
        <time>2022-03-03T11:07:37.000Z</time>
      </trkpt>
      <trkpt lat="44.15821" lon="6.08059">
        <ele>1312</ele>
        <time>2022-03-03T11:07:38.000Z</time>
      </trkpt>
      <trkpt lat="44.1582" lon="6.08058">
        <ele>1312</ele>
        <time>2022-03-03T11:07:39.000Z</time>
      </trkpt>
      <trkpt lat="44.15819" lon="6.08058">
        <ele>1312</ele>
        <time>2022-03-03T11:07:40.000Z</time>
      </trkpt>
      <trkpt lat="44.15818" lon="6.08057">
        <ele>1311</ele>
        <time>2022-03-03T11:07:41.000Z</time>
      </trkpt>
      <trkpt lat="44.15817" lon="6.08056">
        <ele>1311</ele>
        <time>2022-03-03T11:07:42.000Z</time>
      </trkpt>
      <trkpt lat="44.15816" lon="6.08056">
        <ele>1311</ele>
        <time>2022-03-03T11:07:43.000Z</time>
      </trkpt>
      <trkpt lat="44.15815" lon="6.08055">
        <ele>1311</ele>
        <time>2022-03-03T11:07:44.000Z</time>
      </trkpt>
      <trkpt lat="44.15814" lon="6.08055">
        <ele>1311</ele>
        <time>2022-03-03T11:07:45.000Z</time>
      </trkpt>
      <trkpt lat="44.15813" lon="6.08054">
        <ele>1311</ele>
        <time>2022-03-03T11:07:46.000Z</time>
      </trkpt>
      <trkpt lat="44.15812" lon="6.08053">
        <ele>1311</ele>
        <time>2022-03-03T11:07:47.000Z</time>
      </trkpt>
      <trkpt lat="44.15811" lon="6.08053">
        <ele>1310</ele>
        <time>2022-03-03T11:07:48.000Z</time>
      </trkpt>
      <trkpt lat="44.1581" lon="6.08052">
        <ele>1310</ele>
        <time>2022-03-03T11:07:49.000Z</time>
      </trkpt>
      <trkpt lat="44.15809" lon="6.08052">
        <ele>1310</ele>
        <time>2022-03-03T11:07:50.000Z</time>
      </trkpt>
      <trkpt lat="44.15809" lon="6.08051">
        <ele>1310</ele>
        <time>2022-03-03T11:07:51.000Z</time>
      </trkpt>
      <trkpt lat="44.15808" lon="6.08051">
        <ele>1310</ele>
        <time>2022-03-03T11:07:52.000Z</time>
      </trkpt>
      <trkpt lat="44.15807" lon="6.0805">
        <ele>1310</ele>
        <time>2022-03-03T11:07:53.000Z</time>
      </trkpt>
      <trkpt lat="44.15806" lon="6.0805">
        <ele>1310</ele>
        <time>2022-03-03T11:07:54.000Z</time>
      </trkpt>
      <trkpt lat="44.15805" lon="6.0805">
        <ele>1309</ele>
        <time>2022-03-03T11:07:55.000Z</time>
      </trkpt>
      <trkpt lat="44.15804" lon="6.08049">
        <ele>1309</ele>
        <time>2022-03-03T11:07:56.000Z</time>
      </trkpt>
      <trkpt lat="44.15803" lon="6.08048">
        <ele>1309</ele>
        <time>2022-03-03T11:07:57.000Z</time>
      </trkpt>
      <trkpt lat="44.15802" lon="6.08048">
        <ele>1309</ele>
        <time>2022-03-03T11:07:58.000Z</time>
      </trkpt>
      <trkpt lat="44.15801" lon="6.08047">
        <ele>1309</ele>
        <time>2022-03-03T11:07:59.000Z</time>
      </trkpt>
      <trkpt lat="44.158" lon="6.08046">
        <ele>1309</ele>
        <time>2022-03-03T11:08:00.000Z</time>
      </trkpt>
      <trkpt lat="44.15799" lon="6.08046">
        <ele>1309</ele>
        <time>2022-03-03T11:08:01.000Z</time>
      </trkpt>
      <trkpt lat="44.15798" lon="6.08045">
        <ele>1309</ele>
        <time>2022-03-03T11:08:02.000Z</time>
      </trkpt>
      <trkpt lat="44.15797" lon="6.08044">
        <ele>1309</ele>
        <time>2022-03-03T11:08:03.000Z</time>
      </trkpt>
      <trkpt lat="44.15796" lon="6.08044">
        <ele>1309</ele>
        <time>2022-03-03T11:08:04.000Z</time>
      </trkpt>
      <trkpt lat="44.15795" lon="6.08043">
        <ele>1309</ele>
        <time>2022-03-03T11:08:05.000Z</time>
      </trkpt>
      <trkpt lat="44.15794" lon="6.08043">
        <ele>1308</ele>
        <time>2022-03-03T11:08:06.000Z</time>
      </trkpt>
      <trkpt lat="44.15793" lon="6.08042">
        <ele>1308</ele>
        <time>2022-03-03T11:08:07.000Z</time>
      </trkpt>
      <trkpt lat="44.15792" lon="6.08041">
        <ele>1308</ele>
        <time>2022-03-03T11:08:08.000Z</time>
      </trkpt>
      <trkpt lat="44.15792" lon="6.08041">
        <ele>1308</ele>
        <time>2022-03-03T11:08:09.000Z</time>
      </trkpt>
      <trkpt lat="44.15791" lon="6.0804">
        <ele>1308</ele>
        <time>2022-03-03T11:08:10.000Z</time>
      </trkpt>
      <trkpt lat="44.1579" lon="6.0804">
        <ele>1308</ele>
        <time>2022-03-03T11:08:11.000Z</time>
      </trkpt>
      <trkpt lat="44.15789" lon="6.08039">
        <ele>1308</ele>
        <time>2022-03-03T11:08:12.000Z</time>
      </trkpt>
      <trkpt lat="44.15788" lon="6.08039">
        <ele>1307</ele>
        <time>2022-03-03T11:08:13.000Z</time>
      </trkpt>
      <trkpt lat="44.15787" lon="6.08039">
        <ele>1307</ele>
        <time>2022-03-03T11:08:14.000Z</time>
      </trkpt>
      <trkpt lat="44.15786" lon="6.08038">
        <ele>1307</ele>
        <time>2022-03-03T11:08:15.000Z</time>
      </trkpt>
      <trkpt lat="44.15785" lon="6.08037">
        <ele>1307</ele>
        <time>2022-03-03T11:08:16.000Z</time>
      </trkpt>
      <trkpt lat="44.15784" lon="6.08037">
        <ele>1307</ele>
        <time>2022-03-03T11:08:17.000Z</time>
      </trkpt>
      <trkpt lat="44.15783" lon="6.08036">
        <ele>1307</ele>
        <time>2022-03-03T11:08:18.000Z</time>
      </trkpt>
      <trkpt lat="44.15781" lon="6.08035">
        <ele>1307</ele>
        <time>2022-03-03T11:08:19.000Z</time>
      </trkpt>
      <trkpt lat="44.15781" lon="6.08035">
        <ele>1306</ele>
        <time>2022-03-03T11:08:20.000Z</time>
      </trkpt>
      <trkpt lat="44.1578" lon="6.08034">
        <ele>1306</ele>
        <time>2022-03-03T11:08:21.000Z</time>
      </trkpt>
      <trkpt lat="44.15779" lon="6.08033">
        <ele>1306</ele>
        <time>2022-03-03T11:08:22.000Z</time>
      </trkpt>
      <trkpt lat="44.15778" lon="6.08033">
        <ele>1306</ele>
        <time>2022-03-03T11:08:23.000Z</time>
      </trkpt>
      <trkpt lat="44.15777" lon="6.08032">
        <ele>1306</ele>
        <time>2022-03-03T11:08:24.000Z</time>
      </trkpt>
      <trkpt lat="44.15776" lon="6.08031">
        <ele>1306</ele>
        <time>2022-03-03T11:08:25.000Z</time>
      </trkpt>
      <trkpt lat="44.15775" lon="6.08031">
        <ele>1306</ele>
        <time>2022-03-03T11:08:26.000Z</time>
      </trkpt>
      <trkpt lat="44.15774" lon="6.0803">
        <ele>1306</ele>
        <time>2022-03-03T11:08:27.000Z</time>
      </trkpt>
      <trkpt lat="44.15773" lon="6.08029">
        <ele>1306</ele>
        <time>2022-03-03T11:08:28.000Z</time>
      </trkpt>
      <trkpt lat="44.15772" lon="6.08029">
        <ele>1306</ele>
        <time>2022-03-03T11:08:29.000Z</time>
      </trkpt>
      <trkpt lat="44.15771" lon="6.08028">
        <ele>1306</ele>
        <time>2022-03-03T11:08:30.000Z</time>
      </trkpt>
      <trkpt lat="44.1577" lon="6.08028">
        <ele>1306</ele>
        <time>2022-03-03T11:08:31.000Z</time>
      </trkpt>
      <trkpt lat="44.15769" lon="6.08027">
        <ele>1306</ele>
        <time>2022-03-03T11:08:32.000Z</time>
      </trkpt>
      <trkpt lat="44.15768" lon="6.08027">
        <ele>1305</ele>
        <time>2022-03-03T11:08:33.000Z</time>
      </trkpt>
      <trkpt lat="44.15767" lon="6.08026">
        <ele>1305</ele>
        <time>2022-03-03T11:08:34.000Z</time>
      </trkpt>
      <trkpt lat="44.15766" lon="6.08026">
        <ele>1305</ele>
        <time>2022-03-03T11:08:35.000Z</time>
      </trkpt>
      <trkpt lat="44.15765" lon="6.08025">
        <ele>1305</ele>
        <time>2022-03-03T11:08:36.000Z</time>
      </trkpt>
      <trkpt lat="44.15764" lon="6.08025">
        <ele>1305</ele>
        <time>2022-03-03T11:08:37.000Z</time>
      </trkpt>
      <trkpt lat="44.15763" lon="6.08025">
        <ele>1305</ele>
        <time>2022-03-03T11:08:38.000Z</time>
      </trkpt>
      <trkpt lat="44.15762" lon="6.08024">
        <ele>1305</ele>
        <time>2022-03-03T11:08:39.000Z</time>
      </trkpt>
      <trkpt lat="44.15761" lon="6.08024">
        <ele>1305</ele>
        <time>2022-03-03T11:08:40.000Z</time>
      </trkpt>
      <trkpt lat="44.1576" lon="6.08023">
        <ele>1305</ele>
        <time>2022-03-03T11:08:41.000Z</time>
      </trkpt>
      <trkpt lat="44.15759" lon="6.08023">
        <ele>1304</ele>
        <time>2022-03-03T11:08:42.000Z</time>
      </trkpt>
      <trkpt lat="44.15758" lon="6.08023">
        <ele>1304</ele>
        <time>2022-03-03T11:08:43.000Z</time>
      </trkpt>
      <trkpt lat="44.15757" lon="6.08023">
        <ele>1304</ele>
        <time>2022-03-03T11:08:44.000Z</time>
      </trkpt>
      <trkpt lat="44.15756" lon="6.08022">
        <ele>1304</ele>
        <time>2022-03-03T11:08:45.000Z</time>
      </trkpt>
      <trkpt lat="44.15755" lon="6.08022">
        <ele>1304</ele>
        <time>2022-03-03T11:08:46.000Z</time>
      </trkpt>
      <trkpt lat="44.15754" lon="6.08022">
        <ele>1304</ele>
        <time>2022-03-03T11:08:47.000Z</time>
      </trkpt>
      <trkpt lat="44.15753" lon="6.08021">
        <ele>1304</ele>
        <time>2022-03-03T11:08:48.000Z</time>
      </trkpt>
      <trkpt lat="44.15752" lon="6.0802">
        <ele>1303</ele>
        <time>2022-03-03T11:08:49.000Z</time>
      </trkpt>
      <trkpt lat="44.15751" lon="6.0802">
        <ele>1303</ele>
        <time>2022-03-03T11:08:50.000Z</time>
      </trkpt>
      <trkpt lat="44.1575" lon="6.0802">
        <ele>1303</ele>
        <time>2022-03-03T11:08:51.000Z</time>
      </trkpt>
      <trkpt lat="44.15748" lon="6.08019">
        <ele>1303</ele>
        <time>2022-03-03T11:08:52.000Z</time>
      </trkpt>
      <trkpt lat="44.15748" lon="6.08019">
        <ele>1303</ele>
        <time>2022-03-03T11:08:53.000Z</time>
      </trkpt>
      <trkpt lat="44.15746" lon="6.08018">
        <ele>1303</ele>
        <time>2022-03-03T11:08:54.000Z</time>
      </trkpt>
      <trkpt lat="44.15745" lon="6.08018">
        <ele>1302</ele>
        <time>2022-03-03T11:08:55.000Z</time>
      </trkpt>
      <trkpt lat="44.15745" lon="6.08017">
        <ele>1302</ele>
        <time>2022-03-03T11:08:56.000Z</time>
      </trkpt>
      <trkpt lat="44.15744" lon="6.08016">
        <ele>1302</ele>
        <time>2022-03-03T11:08:57.000Z</time>
      </trkpt>
      <trkpt lat="44.15742" lon="6.08016">
        <ele>1302</ele>
        <time>2022-03-03T11:08:58.000Z</time>
      </trkpt>
      <trkpt lat="44.15742" lon="6.08015">
        <ele>1302</ele>
        <time>2022-03-03T11:08:59.000Z</time>
      </trkpt>
      <trkpt lat="44.15741" lon="6.08014">
        <ele>1302</ele>
        <time>2022-03-03T11:09:00.000Z</time>
      </trkpt>
      <trkpt lat="44.1574" lon="6.08014">
        <ele>1302</ele>
        <time>2022-03-03T11:09:01.000Z</time>
      </trkpt>
      <trkpt lat="44.15739" lon="6.08013">
        <ele>1302</ele>
        <time>2022-03-03T11:09:02.000Z</time>
      </trkpt>
      <trkpt lat="44.15739" lon="6.08013">
        <ele>1302</ele>
        <time>2022-03-03T11:09:03.000Z</time>
      </trkpt>
      <trkpt lat="44.15739" lon="6.08013">
        <ele>1302</ele>
        <time>2022-03-03T11:09:04.000Z</time>
      </trkpt>
      <trkpt lat="44.15738" lon="6.08012">
        <ele>1302</ele>
        <time>2022-03-03T11:09:05.000Z</time>
      </trkpt>
      <trkpt lat="44.15737" lon="6.08012">
        <ele>1301</ele>
        <time>2022-03-03T11:09:06.000Z</time>
      </trkpt>
      <trkpt lat="44.15736" lon="6.08011">
        <ele>1301</ele>
        <time>2022-03-03T11:09:07.000Z</time>
      </trkpt>
      <trkpt lat="44.15736" lon="6.08011">
        <ele>1301</ele>
        <time>2022-03-03T11:09:08.000Z</time>
      </trkpt>
      <trkpt lat="44.15735" lon="6.08011">
        <ele>1301</ele>
        <time>2022-03-03T11:09:09.000Z</time>
      </trkpt>
      <trkpt lat="44.15734" lon="6.0801">
        <ele>1301</ele>
        <time>2022-03-03T11:09:10.000Z</time>
      </trkpt>
      <trkpt lat="44.15733" lon="6.0801">
        <ele>1301</ele>
        <time>2022-03-03T11:09:11.000Z</time>
      </trkpt>
      <trkpt lat="44.15732" lon="6.0801">
        <ele>1301</ele>
        <time>2022-03-03T11:09:12.000Z</time>
      </trkpt>
      <trkpt lat="44.15731" lon="6.08009">
        <ele>1300</ele>
        <time>2022-03-03T11:09:13.000Z</time>
      </trkpt>
      <trkpt lat="44.1573" lon="6.08008">
        <ele>1300</ele>
        <time>2022-03-03T11:09:14.000Z</time>
      </trkpt>
      <trkpt lat="44.15729" lon="6.08007">
        <ele>1300</ele>
        <time>2022-03-03T11:09:15.000Z</time>
      </trkpt>
      <trkpt lat="44.15728" lon="6.08006">
        <ele>1300</ele>
        <time>2022-03-03T11:09:16.000Z</time>
      </trkpt>
      <trkpt lat="44.15727" lon="6.08005">
        <ele>1300</ele>
        <time>2022-03-03T11:09:17.000Z</time>
      </trkpt>
      <trkpt lat="44.15726" lon="6.08004">
        <ele>1300</ele>
        <time>2022-03-03T11:09:18.000Z</time>
      </trkpt>
      <trkpt lat="44.15725" lon="6.08003">
        <ele>1300</ele>
        <time>2022-03-03T11:09:19.000Z</time>
      </trkpt>
      <trkpt lat="44.15724" lon="6.08002">
        <ele>1300</ele>
        <time>2022-03-03T11:09:20.000Z</time>
      </trkpt>
      <trkpt lat="44.15724" lon="6.08002">
        <ele>1300</ele>
        <time>2022-03-03T11:09:21.000Z</time>
      </trkpt>
      <trkpt lat="44.15723" lon="6.08001">
        <ele>1300</ele>
        <time>2022-03-03T11:09:22.000Z</time>
      </trkpt>
      <trkpt lat="44.15722" lon="6.08">
        <ele>1300</ele>
        <time>2022-03-03T11:09:23.000Z</time>
      </trkpt>
      <trkpt lat="44.15721" lon="6.07999">
        <ele>1300</ele>
        <time>2022-03-03T11:09:24.000Z</time>
      </trkpt>
      <trkpt lat="44.1572" lon="6.07998">
        <ele>1300</ele>
        <time>2022-03-03T11:09:25.000Z</time>
      </trkpt>
      <trkpt lat="44.15719" lon="6.07998">
        <ele>1299</ele>
        <time>2022-03-03T11:09:26.000Z</time>
      </trkpt>
      <trkpt lat="44.15718" lon="6.07997">
        <ele>1299</ele>
        <time>2022-03-03T11:09:27.000Z</time>
      </trkpt>
      <trkpt lat="44.15717" lon="6.07996">
        <ele>1299</ele>
        <time>2022-03-03T11:09:28.000Z</time>
      </trkpt>
      <trkpt lat="44.15716" lon="6.07995">
        <ele>1299</ele>
        <time>2022-03-03T11:09:29.000Z</time>
      </trkpt>
      <trkpt lat="44.15715" lon="6.07995">
        <ele>1299</ele>
        <time>2022-03-03T11:09:30.000Z</time>
      </trkpt>
      <trkpt lat="44.15714" lon="6.07994">
        <ele>1299</ele>
        <time>2022-03-03T11:09:31.000Z</time>
      </trkpt>
      <trkpt lat="44.15713" lon="6.07993">
        <ele>1299</ele>
        <time>2022-03-03T11:09:32.000Z</time>
      </trkpt>
      <trkpt lat="44.15712" lon="6.07992">
        <ele>1299</ele>
        <time>2022-03-03T11:09:33.000Z</time>
      </trkpt>
      <trkpt lat="44.15711" lon="6.07991">
        <ele>1299</ele>
        <time>2022-03-03T11:09:34.000Z</time>
      </trkpt>
      <trkpt lat="44.1571" lon="6.0799">
        <ele>1299</ele>
        <time>2022-03-03T11:09:35.000Z</time>
      </trkpt>
      <trkpt lat="44.15709" lon="6.0799">
        <ele>1299</ele>
        <time>2022-03-03T11:09:36.000Z</time>
      </trkpt>
      <trkpt lat="44.15708" lon="6.07988">
        <ele>1299</ele>
        <time>2022-03-03T11:09:37.000Z</time>
      </trkpt>
      <trkpt lat="44.15708" lon="6.07988">
        <ele>1299</ele>
        <time>2022-03-03T11:09:38.000Z</time>
      </trkpt>
      <trkpt lat="44.15707" lon="6.07986">
        <ele>1299</ele>
        <time>2022-03-03T11:09:39.000Z</time>
      </trkpt>
      <trkpt lat="44.15706" lon="6.07985">
        <ele>1299</ele>
        <time>2022-03-03T11:09:40.000Z</time>
      </trkpt>
      <trkpt lat="44.15705" lon="6.07984">
        <ele>1299</ele>
        <time>2022-03-03T11:09:41.000Z</time>
      </trkpt>
      <trkpt lat="44.15704" lon="6.07983">
        <ele>1299</ele>
        <time>2022-03-03T11:09:42.000Z</time>
      </trkpt>
      <trkpt lat="44.15703" lon="6.07982">
        <ele>1299</ele>
        <time>2022-03-03T11:09:43.000Z</time>
      </trkpt>
      <trkpt lat="44.15702" lon="6.07981">
        <ele>1299</ele>
        <time>2022-03-03T11:09:44.000Z</time>
      </trkpt>
      <trkpt lat="44.15702" lon="6.0798">
        <ele>1299</ele>
        <time>2022-03-03T11:09:45.000Z</time>
      </trkpt>
      <trkpt lat="44.15701" lon="6.07979">
        <ele>1299</ele>
        <time>2022-03-03T11:09:46.000Z</time>
      </trkpt>
      <trkpt lat="44.157" lon="6.07977">
        <ele>1299</ele>
        <time>2022-03-03T11:09:47.000Z</time>
      </trkpt>
      <trkpt lat="44.15699" lon="6.07976">
        <ele>1299</ele>
        <time>2022-03-03T11:09:48.000Z</time>
      </trkpt>
      <trkpt lat="44.15699" lon="6.07975">
        <ele>1299</ele>
        <time>2022-03-03T11:09:49.000Z</time>
      </trkpt>
      <trkpt lat="44.15698" lon="6.07974">
        <ele>1299</ele>
        <time>2022-03-03T11:09:50.000Z</time>
      </trkpt>
      <trkpt lat="44.15697" lon="6.07973">
        <ele>1299</ele>
        <time>2022-03-03T11:09:51.000Z</time>
      </trkpt>
      <trkpt lat="44.15696" lon="6.07972">
        <ele>1299</ele>
        <time>2022-03-03T11:09:52.000Z</time>
      </trkpt>
      <trkpt lat="44.15695" lon="6.07971">
        <ele>1299</ele>
        <time>2022-03-03T11:09:53.000Z</time>
      </trkpt>
      <trkpt lat="44.15695" lon="6.0797">
        <ele>1299</ele>
        <time>2022-03-03T11:09:54.000Z</time>
      </trkpt>
      <trkpt lat="44.15694" lon="6.07969">
        <ele>1299</ele>
        <time>2022-03-03T11:09:55.000Z</time>
      </trkpt>
      <trkpt lat="44.15693" lon="6.07967">
        <ele>1299</ele>
        <time>2022-03-03T11:09:56.000Z</time>
      </trkpt>
      <trkpt lat="44.15692" lon="6.07967">
        <ele>1299</ele>
        <time>2022-03-03T11:09:57.000Z</time>
      </trkpt>
      <trkpt lat="44.15691" lon="6.07966">
        <ele>1299</ele>
        <time>2022-03-03T11:09:58.000Z</time>
      </trkpt>
      <trkpt lat="44.1569" lon="6.07965">
        <ele>1299</ele>
        <time>2022-03-03T11:09:59.000Z</time>
      </trkpt>
      <trkpt lat="44.15689" lon="6.07964">
        <ele>1299</ele>
        <time>2022-03-03T11:10:00.000Z</time>
      </trkpt>
      <trkpt lat="44.15688" lon="6.07963">
        <ele>1299</ele>
        <time>2022-03-03T11:10:01.000Z</time>
      </trkpt>
      <trkpt lat="44.15687" lon="6.07962">
        <ele>1299</ele>
        <time>2022-03-03T11:10:02.000Z</time>
      </trkpt>
      <trkpt lat="44.15687" lon="6.07961">
        <ele>1299</ele>
        <time>2022-03-03T11:10:03.000Z</time>
      </trkpt>
      <trkpt lat="44.15686" lon="6.0796">
        <ele>1299</ele>
        <time>2022-03-03T11:10:04.000Z</time>
      </trkpt>
      <trkpt lat="44.15685" lon="6.07959">
        <ele>1299</ele>
        <time>2022-03-03T11:10:05.000Z</time>
      </trkpt>
      <trkpt lat="44.15684" lon="6.07958">
        <ele>1299</ele>
        <time>2022-03-03T11:10:06.000Z</time>
      </trkpt>
      <trkpt lat="44.15683" lon="6.07956">
        <ele>1299</ele>
        <time>2022-03-03T11:10:07.000Z</time>
      </trkpt>
      <trkpt lat="44.15683" lon="6.07956">
        <ele>1299</ele>
        <time>2022-03-03T11:10:08.000Z</time>
      </trkpt>
      <trkpt lat="44.15682" lon="6.07955">
        <ele>1299</ele>
        <time>2022-03-03T11:10:09.000Z</time>
      </trkpt>
      <trkpt lat="44.15681" lon="6.07954">
        <ele>1299</ele>
        <time>2022-03-03T11:10:10.000Z</time>
      </trkpt>
      <trkpt lat="44.15681" lon="6.07953">
        <ele>1299</ele>
        <time>2022-03-03T11:10:11.000Z</time>
      </trkpt>
      <trkpt lat="44.1568" lon="6.07952">
        <ele>1299</ele>
        <time>2022-03-03T11:10:12.000Z</time>
      </trkpt>
      <trkpt lat="44.1568" lon="6.0795">
        <ele>1299</ele>
        <time>2022-03-03T11:10:13.000Z</time>
      </trkpt>
      <trkpt lat="44.15679" lon="6.0795">
        <ele>1299</ele>
        <time>2022-03-03T11:10:14.000Z</time>
      </trkpt>
      <trkpt lat="44.15678" lon="6.07949">
        <ele>1299</ele>
        <time>2022-03-03T11:10:15.000Z</time>
      </trkpt>
      <trkpt lat="44.15677" lon="6.07948">
        <ele>1299</ele>
        <time>2022-03-03T11:10:16.000Z</time>
      </trkpt>
      <trkpt lat="44.15676" lon="6.07947">
        <ele>1299</ele>
        <time>2022-03-03T11:10:17.000Z</time>
      </trkpt>
      <trkpt lat="44.15675" lon="6.07946">
        <ele>1299</ele>
        <time>2022-03-03T11:10:18.000Z</time>
      </trkpt>
      <trkpt lat="44.15674" lon="6.07945">
        <ele>1299</ele>
        <time>2022-03-03T11:10:19.000Z</time>
      </trkpt>
      <trkpt lat="44.15673" lon="6.07945">
        <ele>1299</ele>
        <time>2022-03-03T11:10:20.000Z</time>
      </trkpt>
      <trkpt lat="44.15673" lon="6.07943">
        <ele>1299</ele>
        <time>2022-03-03T11:10:21.000Z</time>
      </trkpt>
      <trkpt lat="44.15672" lon="6.07942">
        <ele>1299</ele>
        <time>2022-03-03T11:10:22.000Z</time>
      </trkpt>
      <trkpt lat="44.15671" lon="6.07941">
        <ele>1299</ele>
        <time>2022-03-03T11:10:23.000Z</time>
      </trkpt>
      <trkpt lat="44.1567" lon="6.0794">
        <ele>1299</ele>
        <time>2022-03-03T11:10:24.000Z</time>
      </trkpt>
      <trkpt lat="44.1567" lon="6.0794">
        <ele>1298</ele>
        <time>2022-03-03T11:10:25.000Z</time>
      </trkpt>
      <trkpt lat="44.15669" lon="6.07939">
        <ele>1298</ele>
        <time>2022-03-03T11:10:26.000Z</time>
      </trkpt>
      <trkpt lat="44.15668" lon="6.07938">
        <ele>1298</ele>
        <time>2022-03-03T11:10:27.000Z</time>
      </trkpt>
      <trkpt lat="44.15668" lon="6.07938">
        <ele>1298</ele>
        <time>2022-03-03T11:10:28.000Z</time>
      </trkpt>
      <trkpt lat="44.15667" lon="6.07937">
        <ele>1298</ele>
        <time>2022-03-03T11:10:29.000Z</time>
      </trkpt>
      <trkpt lat="44.15667" lon="6.07936">
        <ele>1298</ele>
        <time>2022-03-03T11:10:30.000Z</time>
      </trkpt>
      <trkpt lat="44.15666" lon="6.07936">
        <ele>1298</ele>
        <time>2022-03-03T11:10:31.000Z</time>
      </trkpt>
      <trkpt lat="44.15666" lon="6.07935">
        <ele>1298</ele>
        <time>2022-03-03T11:10:32.000Z</time>
      </trkpt>
      <trkpt lat="44.15665" lon="6.07935">
        <ele>1298</ele>
        <time>2022-03-03T11:10:33.000Z</time>
      </trkpt>
      <trkpt lat="44.15664" lon="6.07934">
        <ele>1298</ele>
        <time>2022-03-03T11:10:34.000Z</time>
      </trkpt>
      <trkpt lat="44.15664" lon="6.07933">
        <ele>1298</ele>
        <time>2022-03-03T11:10:35.000Z</time>
      </trkpt>
      <trkpt lat="44.15663" lon="6.07933">
        <ele>1298</ele>
        <time>2022-03-03T11:10:36.000Z</time>
      </trkpt>
      <trkpt lat="44.15662" lon="6.07933">
        <ele>1298</ele>
        <time>2022-03-03T11:10:37.000Z</time>
      </trkpt>
      <trkpt lat="44.15661" lon="6.07932">
        <ele>1297</ele>
        <time>2022-03-03T11:10:38.000Z</time>
      </trkpt>
      <trkpt lat="44.1566" lon="6.07931">
        <ele>1297</ele>
        <time>2022-03-03T11:10:39.000Z</time>
      </trkpt>
      <trkpt lat="44.1566" lon="6.07931">
        <ele>1297</ele>
        <time>2022-03-03T11:10:40.000Z</time>
      </trkpt>
      <trkpt lat="44.15659" lon="6.07931">
        <ele>1297</ele>
        <time>2022-03-03T11:10:41.000Z</time>
      </trkpt>
      <trkpt lat="44.15658" lon="6.0793">
        <ele>1297</ele>
        <time>2022-03-03T11:10:42.000Z</time>
      </trkpt>
      <trkpt lat="44.15657" lon="6.0793">
        <ele>1297</ele>
        <time>2022-03-03T11:10:43.000Z</time>
      </trkpt>
      <trkpt lat="44.15657" lon="6.0793">
        <ele>1297</ele>
        <time>2022-03-03T11:10:44.000Z</time>
      </trkpt>
      <trkpt lat="44.15656" lon="6.07929">
        <ele>1297</ele>
        <time>2022-03-03T11:10:45.000Z</time>
      </trkpt>
      <trkpt lat="44.15655" lon="6.07929">
        <ele>1297</ele>
        <time>2022-03-03T11:10:46.000Z</time>
      </trkpt>
      <trkpt lat="44.15655" lon="6.07928">
        <ele>1297</ele>
        <time>2022-03-03T11:10:47.000Z</time>
      </trkpt>
      <trkpt lat="44.15654" lon="6.07928">
        <ele>1297</ele>
        <time>2022-03-03T11:10:48.000Z</time>
      </trkpt>
      <trkpt lat="44.15654" lon="6.07928">
        <ele>1297</ele>
        <time>2022-03-03T11:10:49.000Z</time>
      </trkpt>
      <trkpt lat="44.15653" lon="6.07928">
        <ele>1297</ele>
        <time>2022-03-03T11:10:50.000Z</time>
      </trkpt>
      <trkpt lat="44.15653" lon="6.07927">
        <ele>1297</ele>
        <time>2022-03-03T11:10:51.000Z</time>
      </trkpt>
      <trkpt lat="44.15652" lon="6.07927">
        <ele>1296</ele>
        <time>2022-03-03T11:10:52.000Z</time>
      </trkpt>
      <trkpt lat="44.15652" lon="6.07927">
        <ele>1296</ele>
        <time>2022-03-03T11:10:53.000Z</time>
      </trkpt>
      <trkpt lat="44.15651" lon="6.07927">
        <ele>1296</ele>
        <time>2022-03-03T11:10:54.000Z</time>
      </trkpt>
      <trkpt lat="44.15651" lon="6.07926">
        <ele>1296</ele>
        <time>2022-03-03T11:10:55.000Z</time>
      </trkpt>
      <trkpt lat="44.1565" lon="6.07926">
        <ele>1296</ele>
        <time>2022-03-03T11:10:56.000Z</time>
      </trkpt>
      <trkpt lat="44.15649" lon="6.07926">
        <ele>1296</ele>
        <time>2022-03-03T11:10:57.000Z</time>
      </trkpt>
      <trkpt lat="44.15649" lon="6.07925">
        <ele>1295</ele>
        <time>2022-03-03T11:10:58.000Z</time>
      </trkpt>
      <trkpt lat="44.15648" lon="6.07925">
        <ele>1295</ele>
        <time>2022-03-03T11:10:59.000Z</time>
      </trkpt>
      <trkpt lat="44.15647" lon="6.07925">
        <ele>1295</ele>
        <time>2022-03-03T11:11:00.000Z</time>
      </trkpt>
      <trkpt lat="44.15647" lon="6.07924">
        <ele>1295</ele>
        <time>2022-03-03T11:11:01.000Z</time>
      </trkpt>
      <trkpt lat="44.15646" lon="6.07924">
        <ele>1294</ele>
        <time>2022-03-03T11:11:02.000Z</time>
      </trkpt>
      <trkpt lat="44.15645" lon="6.07924">
        <ele>1294</ele>
        <time>2022-03-03T11:11:03.000Z</time>
      </trkpt>
      <trkpt lat="44.15644" lon="6.07923">
        <ele>1294</ele>
        <time>2022-03-03T11:11:04.000Z</time>
      </trkpt>
      <trkpt lat="44.15643" lon="6.07923">
        <ele>1294</ele>
        <time>2022-03-03T11:11:05.000Z</time>
      </trkpt>
      <trkpt lat="44.15642" lon="6.07923">
        <ele>1294</ele>
        <time>2022-03-03T11:11:06.000Z</time>
      </trkpt>
      <trkpt lat="44.15641" lon="6.07922">
        <ele>1293</ele>
        <time>2022-03-03T11:11:07.000Z</time>
      </trkpt>
      <trkpt lat="44.1564" lon="6.07922">
        <ele>1293</ele>
        <time>2022-03-03T11:11:08.000Z</time>
      </trkpt>
      <trkpt lat="44.1564" lon="6.07922">
        <ele>1293</ele>
        <time>2022-03-03T11:11:09.000Z</time>
      </trkpt>
      <trkpt lat="44.15639" lon="6.07922">
        <ele>1293</ele>
        <time>2022-03-03T11:11:10.000Z</time>
      </trkpt>
      <trkpt lat="44.15638" lon="6.07921">
        <ele>1293</ele>
        <time>2022-03-03T11:11:11.000Z</time>
      </trkpt>
      <trkpt lat="44.15637" lon="6.07921">
        <ele>1293</ele>
        <time>2022-03-03T11:11:12.000Z</time>
      </trkpt>
      <trkpt lat="44.15637" lon="6.0792">
        <ele>1293</ele>
        <time>2022-03-03T11:11:13.000Z</time>
      </trkpt>
      <trkpt lat="44.15636" lon="6.0792">
        <ele>1293</ele>
        <time>2022-03-03T11:11:14.000Z</time>
      </trkpt>
      <trkpt lat="44.15635" lon="6.0792">
        <ele>1292</ele>
        <time>2022-03-03T11:11:15.000Z</time>
      </trkpt>
      <trkpt lat="44.15634" lon="6.07919">
        <ele>1292</ele>
        <time>2022-03-03T11:11:16.000Z</time>
      </trkpt>
      <trkpt lat="44.15634" lon="6.07919">
        <ele>1292</ele>
        <time>2022-03-03T11:11:17.000Z</time>
      </trkpt>
      <trkpt lat="44.15633" lon="6.07918">
        <ele>1292</ele>
        <time>2022-03-03T11:11:18.000Z</time>
      </trkpt>
      <trkpt lat="44.15632" lon="6.07917">
        <ele>1292</ele>
        <time>2022-03-03T11:11:19.000Z</time>
      </trkpt>
      <trkpt lat="44.15631" lon="6.07917">
        <ele>1292</ele>
        <time>2022-03-03T11:11:20.000Z</time>
      </trkpt>
      <trkpt lat="44.15631" lon="6.07916">
        <ele>1292</ele>
        <time>2022-03-03T11:11:21.000Z</time>
      </trkpt>
      <trkpt lat="44.1563" lon="6.07916">
        <ele>1291</ele>
        <time>2022-03-03T11:11:22.000Z</time>
      </trkpt>
      <trkpt lat="44.15629" lon="6.07915">
        <ele>1291</ele>
        <time>2022-03-03T11:11:23.000Z</time>
      </trkpt>
      <trkpt lat="44.15629" lon="6.07915">
        <ele>1291</ele>
        <time>2022-03-03T11:11:24.000Z</time>
      </trkpt>
      <trkpt lat="44.15628" lon="6.07914">
        <ele>1291</ele>
        <time>2022-03-03T11:11:25.000Z</time>
      </trkpt>
      <trkpt lat="44.15628" lon="6.07914">
        <ele>1291</ele>
        <time>2022-03-03T11:11:26.000Z</time>
      </trkpt>
      <trkpt lat="44.15627" lon="6.07913">
        <ele>1291</ele>
        <time>2022-03-03T11:11:27.000Z</time>
      </trkpt>
      <trkpt lat="44.15626" lon="6.07913">
        <ele>1291</ele>
        <time>2022-03-03T11:11:28.000Z</time>
      </trkpt>
      <trkpt lat="44.15625" lon="6.07912">
        <ele>1291</ele>
        <time>2022-03-03T11:11:29.000Z</time>
      </trkpt>
      <trkpt lat="44.15625" lon="6.07912">
        <ele>1290</ele>
        <time>2022-03-03T11:11:30.000Z</time>
      </trkpt>
      <trkpt lat="44.15624" lon="6.07911">
        <ele>1290</ele>
        <time>2022-03-03T11:11:31.000Z</time>
      </trkpt>
      <trkpt lat="44.15623" lon="6.0791">
        <ele>1290</ele>
        <time>2022-03-03T11:11:32.000Z</time>
      </trkpt>
      <trkpt lat="44.15623" lon="6.0791">
        <ele>1290</ele>
        <time>2022-03-03T11:11:33.000Z</time>
      </trkpt>
      <trkpt lat="44.15622" lon="6.07909">
        <ele>1290</ele>
        <time>2022-03-03T11:11:34.000Z</time>
      </trkpt>
      <trkpt lat="44.15621" lon="6.07908">
        <ele>1290</ele>
        <time>2022-03-03T11:11:35.000Z</time>
      </trkpt>
      <trkpt lat="44.15621" lon="6.07907">
        <ele>1290</ele>
        <time>2022-03-03T11:11:36.000Z</time>
      </trkpt>
      <trkpt lat="44.1562" lon="6.07907">
        <ele>1290</ele>
        <time>2022-03-03T11:11:37.000Z</time>
      </trkpt>
      <trkpt lat="44.15619" lon="6.07906">
        <ele>1290</ele>
        <time>2022-03-03T11:11:38.000Z</time>
      </trkpt>
      <trkpt lat="44.15618" lon="6.07905">
        <ele>1290</ele>
        <time>2022-03-03T11:11:39.000Z</time>
      </trkpt>
      <trkpt lat="44.15617" lon="6.07905">
        <ele>1290</ele>
        <time>2022-03-03T11:11:40.000Z</time>
      </trkpt>
      <trkpt lat="44.15617" lon="6.07904">
        <ele>1290</ele>
        <time>2022-03-03T11:11:41.000Z</time>
      </trkpt>
      <trkpt lat="44.15616" lon="6.07903">
        <ele>1290</ele>
        <time>2022-03-03T11:11:42.000Z</time>
      </trkpt>
      <trkpt lat="44.15615" lon="6.07903">
        <ele>1290</ele>
        <time>2022-03-03T11:11:43.000Z</time>
      </trkpt>
      <trkpt lat="44.15614" lon="6.07902">
        <ele>1290</ele>
        <time>2022-03-03T11:11:44.000Z</time>
      </trkpt>
      <trkpt lat="44.15613" lon="6.07902">
        <ele>1289</ele>
        <time>2022-03-03T11:11:45.000Z</time>
      </trkpt>
      <trkpt lat="44.15613" lon="6.07901">
        <ele>1289</ele>
        <time>2022-03-03T11:11:46.000Z</time>
      </trkpt>
      <trkpt lat="44.15612" lon="6.07901">
        <ele>1289</ele>
        <time>2022-03-03T11:11:47.000Z</time>
      </trkpt>
      <trkpt lat="44.15612" lon="6.079">
        <ele>1289</ele>
        <time>2022-03-03T11:11:48.000Z</time>
      </trkpt>
      <trkpt lat="44.15611" lon="6.079">
        <ele>1289</ele>
        <time>2022-03-03T11:11:49.000Z</time>
      </trkpt>
      <trkpt lat="44.1561" lon="6.07899">
        <ele>1289</ele>
        <time>2022-03-03T11:11:50.000Z</time>
      </trkpt>
      <trkpt lat="44.15609" lon="6.07898">
        <ele>1289</ele>
        <time>2022-03-03T11:11:51.000Z</time>
      </trkpt>
      <trkpt lat="44.15608" lon="6.07898">
        <ele>1289</ele>
        <time>2022-03-03T11:11:52.000Z</time>
      </trkpt>
      <trkpt lat="44.15607" lon="6.07897">
        <ele>1289</ele>
        <time>2022-03-03T11:11:53.000Z</time>
      </trkpt>
      <trkpt lat="44.15606" lon="6.07896">
        <ele>1289</ele>
        <time>2022-03-03T11:11:54.000Z</time>
      </trkpt>
      <trkpt lat="44.15606" lon="6.07895">
        <ele>1288</ele>
        <time>2022-03-03T11:11:55.000Z</time>
      </trkpt>
      <trkpt lat="44.15605" lon="6.07895">
        <ele>1288</ele>
        <time>2022-03-03T11:11:56.000Z</time>
      </trkpt>
      <trkpt lat="44.15604" lon="6.07894">
        <ele>1288</ele>
        <time>2022-03-03T11:11:57.000Z</time>
      </trkpt>
      <trkpt lat="44.15603" lon="6.07894">
        <ele>1288</ele>
        <time>2022-03-03T11:11:58.000Z</time>
      </trkpt>
      <trkpt lat="44.15602" lon="6.07893">
        <ele>1288</ele>
        <time>2022-03-03T11:11:59.000Z</time>
      </trkpt>
      <trkpt lat="44.15602" lon="6.07893">
        <ele>1288</ele>
        <time>2022-03-03T11:12:00.000Z</time>
      </trkpt>
      <trkpt lat="44.15601" lon="6.07893">
        <ele>1288</ele>
        <time>2022-03-03T11:12:01.000Z</time>
      </trkpt>
      <trkpt lat="44.156" lon="6.07892">
        <ele>1288</ele>
        <time>2022-03-03T11:12:02.000Z</time>
      </trkpt>
      <trkpt lat="44.15599" lon="6.07892">
        <ele>1288</ele>
        <time>2022-03-03T11:12:03.000Z</time>
      </trkpt>
      <trkpt lat="44.15599" lon="6.07891">
        <ele>1288</ele>
        <time>2022-03-03T11:12:04.000Z</time>
      </trkpt>
      <trkpt lat="44.15598" lon="6.07891">
        <ele>1288</ele>
        <time>2022-03-03T11:12:05.000Z</time>
      </trkpt>
      <trkpt lat="44.15597" lon="6.0789">
        <ele>1287</ele>
        <time>2022-03-03T11:12:06.000Z</time>
      </trkpt>
      <trkpt lat="44.15596" lon="6.0789">
        <ele>1287</ele>
        <time>2022-03-03T11:12:07.000Z</time>
      </trkpt>
      <trkpt lat="44.15595" lon="6.0789">
        <ele>1287</ele>
        <time>2022-03-03T11:12:08.000Z</time>
      </trkpt>
      <trkpt lat="44.15594" lon="6.07889">
        <ele>1287</ele>
        <time>2022-03-03T11:12:09.000Z</time>
      </trkpt>
      <trkpt lat="44.15594" lon="6.07889">
        <ele>1287</ele>
        <time>2022-03-03T11:12:10.000Z</time>
      </trkpt>
      <trkpt lat="44.15593" lon="6.07888">
        <ele>1287</ele>
        <time>2022-03-03T11:12:11.000Z</time>
      </trkpt>
      <trkpt lat="44.15593" lon="6.07888">
        <ele>1287</ele>
        <time>2022-03-03T11:12:12.000Z</time>
      </trkpt>
      <trkpt lat="44.15592" lon="6.07888">
        <ele>1287</ele>
        <time>2022-03-03T11:12:13.000Z</time>
      </trkpt>
      <trkpt lat="44.15591" lon="6.07889">
        <ele>1286</ele>
        <time>2022-03-03T11:12:14.000Z</time>
      </trkpt>
      <trkpt lat="44.1559" lon="6.07888">
        <ele>1286</ele>
        <time>2022-03-03T11:12:15.000Z</time>
      </trkpt>
      <trkpt lat="44.15589" lon="6.07888">
        <ele>1286</ele>
        <time>2022-03-03T11:12:16.000Z</time>
      </trkpt>
      <trkpt lat="44.15589" lon="6.07888">
        <ele>1286</ele>
        <time>2022-03-03T11:12:17.000Z</time>
      </trkpt>
      <trkpt lat="44.15588" lon="6.07887">
        <ele>1286</ele>
        <time>2022-03-03T11:12:18.000Z</time>
      </trkpt>
      <trkpt lat="44.15587" lon="6.07887">
        <ele>1286</ele>
        <time>2022-03-03T11:12:19.000Z</time>
      </trkpt>
      <trkpt lat="44.15586" lon="6.07886">
        <ele>1286</ele>
        <time>2022-03-03T11:12:20.000Z</time>
      </trkpt>
      <trkpt lat="44.15585" lon="6.07886">
        <ele>1286</ele>
        <time>2022-03-03T11:12:21.000Z</time>
      </trkpt>
      <trkpt lat="44.15584" lon="6.07885">
        <ele>1286</ele>
        <time>2022-03-03T11:12:22.000Z</time>
      </trkpt>
      <trkpt lat="44.15584" lon="6.07884">
        <ele>1286</ele>
        <time>2022-03-03T11:12:23.000Z</time>
      </trkpt>
      <trkpt lat="44.15583" lon="6.07884">
        <ele>1285</ele>
        <time>2022-03-03T11:12:24.000Z</time>
      </trkpt>
      <trkpt lat="44.15582" lon="6.07884">
        <ele>1285</ele>
        <time>2022-03-03T11:12:25.000Z</time>
      </trkpt>
      <trkpt lat="44.15581" lon="6.07883">
        <ele>1285</ele>
        <time>2022-03-03T11:12:26.000Z</time>
      </trkpt>
      <trkpt lat="44.1558" lon="6.07882">
        <ele>1285</ele>
        <time>2022-03-03T11:12:27.000Z</time>
      </trkpt>
      <trkpt lat="44.1558" lon="6.07882">
        <ele>1285</ele>
        <time>2022-03-03T11:12:28.000Z</time>
      </trkpt>
      <trkpt lat="44.15579" lon="6.07882">
        <ele>1285</ele>
        <time>2022-03-03T11:12:29.000Z</time>
      </trkpt>
      <trkpt lat="44.15578" lon="6.07881">
        <ele>1285</ele>
        <time>2022-03-03T11:12:30.000Z</time>
      </trkpt>
      <trkpt lat="44.15577" lon="6.07881">
        <ele>1285</ele>
        <time>2022-03-03T11:12:31.000Z</time>
      </trkpt>
      <trkpt lat="44.15577" lon="6.0788">
        <ele>1285</ele>
        <time>2022-03-03T11:12:32.000Z</time>
      </trkpt>
      <trkpt lat="44.15576" lon="6.0788">
        <ele>1285</ele>
        <time>2022-03-03T11:12:33.000Z</time>
      </trkpt>
      <trkpt lat="44.15576" lon="6.0788">
        <ele>1284</ele>
        <time>2022-03-03T11:12:34.000Z</time>
      </trkpt>
      <trkpt lat="44.15575" lon="6.07879">
        <ele>1284</ele>
        <time>2022-03-03T11:12:35.000Z</time>
      </trkpt>
      <trkpt lat="44.15574" lon="6.07879">
        <ele>1284</ele>
        <time>2022-03-03T11:12:36.000Z</time>
      </trkpt>
      <trkpt lat="44.15574" lon="6.07879">
        <ele>1284</ele>
        <time>2022-03-03T11:12:37.000Z</time>
      </trkpt>
      <trkpt lat="44.15573" lon="6.07878">
        <ele>1284</ele>
        <time>2022-03-03T11:12:38.000Z</time>
      </trkpt>
      <trkpt lat="44.15572" lon="6.07878">
        <ele>1284</ele>
        <time>2022-03-03T11:12:39.000Z</time>
      </trkpt>
      <trkpt lat="44.15571" lon="6.07878">
        <ele>1284</ele>
        <time>2022-03-03T11:12:40.000Z</time>
      </trkpt>
      <trkpt lat="44.1557" lon="6.07877">
        <ele>1284</ele>
        <time>2022-03-03T11:12:41.000Z</time>
      </trkpt>
      <trkpt lat="44.1557" lon="6.07877">
        <ele>1283</ele>
        <time>2022-03-03T11:12:42.000Z</time>
      </trkpt>
      <trkpt lat="44.15569" lon="6.07876">
        <ele>1283</ele>
        <time>2022-03-03T11:12:43.000Z</time>
      </trkpt>
      <trkpt lat="44.15568" lon="6.07876">
        <ele>1283</ele>
        <time>2022-03-03T11:12:44.000Z</time>
      </trkpt>
      <trkpt lat="44.15567" lon="6.07875">
        <ele>1283</ele>
        <time>2022-03-03T11:12:45.000Z</time>
      </trkpt>
      <trkpt lat="44.15566" lon="6.07875">
        <ele>1283</ele>
        <time>2022-03-03T11:12:46.000Z</time>
      </trkpt>
      <trkpt lat="44.15565" lon="6.07874">
        <ele>1283</ele>
        <time>2022-03-03T11:12:47.000Z</time>
      </trkpt>
      <trkpt lat="44.15564" lon="6.07873">
        <ele>1283</ele>
        <time>2022-03-03T11:12:48.000Z</time>
      </trkpt>
      <trkpt lat="44.15564" lon="6.07873">
        <ele>1283</ele>
        <time>2022-03-03T11:12:49.000Z</time>
      </trkpt>
      <trkpt lat="44.15562" lon="6.07872">
        <ele>1283</ele>
        <time>2022-03-03T11:12:50.000Z</time>
      </trkpt>
      <trkpt lat="44.15561" lon="6.07871">
        <ele>1283</ele>
        <time>2022-03-03T11:12:51.000Z</time>
      </trkpt>
      <trkpt lat="44.15561" lon="6.07871">
        <ele>1283</ele>
        <time>2022-03-03T11:12:52.000Z</time>
      </trkpt>
      <trkpt lat="44.1556" lon="6.0787">
        <ele>1283</ele>
        <time>2022-03-03T11:12:53.000Z</time>
      </trkpt>
      <trkpt lat="44.15559" lon="6.0787">
        <ele>1283</ele>
        <time>2022-03-03T11:12:54.000Z</time>
      </trkpt>
      <trkpt lat="44.15558" lon="6.07869">
        <ele>1282</ele>
        <time>2022-03-03T11:12:55.000Z</time>
      </trkpt>
      <trkpt lat="44.15557" lon="6.07869">
        <ele>1282</ele>
        <time>2022-03-03T11:12:56.000Z</time>
      </trkpt>
      <trkpt lat="44.15556" lon="6.07868">
        <ele>1282</ele>
        <time>2022-03-03T11:12:57.000Z</time>
      </trkpt>
      <trkpt lat="44.15555" lon="6.07867">
        <ele>1282</ele>
        <time>2022-03-03T11:12:58.000Z</time>
      </trkpt>
      <trkpt lat="44.15554" lon="6.07867">
        <ele>1282</ele>
        <time>2022-03-03T11:12:59.000Z</time>
      </trkpt>
      <trkpt lat="44.15553" lon="6.07866">
        <ele>1282</ele>
        <time>2022-03-03T11:13:00.000Z</time>
      </trkpt>
      <trkpt lat="44.15553" lon="6.07865">
        <ele>1282</ele>
        <time>2022-03-03T11:13:01.000Z</time>
      </trkpt>
      <trkpt lat="44.15552" lon="6.07865">
        <ele>1282</ele>
        <time>2022-03-03T11:13:02.000Z</time>
      </trkpt>
      <trkpt lat="44.15551" lon="6.07864">
        <ele>1282</ele>
        <time>2022-03-03T11:13:03.000Z</time>
      </trkpt>
      <trkpt lat="44.15551" lon="6.07864">
        <ele>1282</ele>
        <time>2022-03-03T11:13:04.000Z</time>
      </trkpt>
      <trkpt lat="44.1555" lon="6.07863">
        <ele>1282</ele>
        <time>2022-03-03T11:13:05.000Z</time>
      </trkpt>
      <trkpt lat="44.15549" lon="6.07862">
        <ele>1282</ele>
        <time>2022-03-03T11:13:06.000Z</time>
      </trkpt>
      <trkpt lat="44.15548" lon="6.07861">
        <ele>1282</ele>
        <time>2022-03-03T11:13:07.000Z</time>
      </trkpt>
      <trkpt lat="44.15547" lon="6.07861">
        <ele>1282</ele>
        <time>2022-03-03T11:13:08.000Z</time>
      </trkpt>
      <trkpt lat="44.15546" lon="6.0786">
        <ele>1282</ele>
        <time>2022-03-03T11:13:09.000Z</time>
      </trkpt>
      <trkpt lat="44.15545" lon="6.07859">
        <ele>1282</ele>
        <time>2022-03-03T11:13:10.000Z</time>
      </trkpt>
      <trkpt lat="44.15544" lon="6.07858">
        <ele>1282</ele>
        <time>2022-03-03T11:13:11.000Z</time>
      </trkpt>
      <trkpt lat="44.15543" lon="6.07858">
        <ele>1282</ele>
        <time>2022-03-03T11:13:12.000Z</time>
      </trkpt>
      <trkpt lat="44.15542" lon="6.07857">
        <ele>1282</ele>
        <time>2022-03-03T11:13:13.000Z</time>
      </trkpt>
      <trkpt lat="44.15541" lon="6.07857">
        <ele>1282</ele>
        <time>2022-03-03T11:13:14.000Z</time>
      </trkpt>
      <trkpt lat="44.15541" lon="6.07857">
        <ele>1281</ele>
        <time>2022-03-03T11:13:15.000Z</time>
      </trkpt>
      <trkpt lat="44.1554" lon="6.07856">
        <ele>1281</ele>
        <time>2022-03-03T11:13:16.000Z</time>
      </trkpt>
      <trkpt lat="44.15539" lon="6.07856">
        <ele>1281</ele>
        <time>2022-03-03T11:13:17.000Z</time>
      </trkpt>
      <trkpt lat="44.15538" lon="6.07855">
        <ele>1281</ele>
        <time>2022-03-03T11:13:18.000Z</time>
      </trkpt>
      <trkpt lat="44.15537" lon="6.07855">
        <ele>1281</ele>
        <time>2022-03-03T11:13:19.000Z</time>
      </trkpt>
      <trkpt lat="44.15536" lon="6.07854">
        <ele>1281</ele>
        <time>2022-03-03T11:13:20.000Z</time>
      </trkpt>
      <trkpt lat="44.15535" lon="6.07854">
        <ele>1281</ele>
        <time>2022-03-03T11:13:21.000Z</time>
      </trkpt>
      <trkpt lat="44.15534" lon="6.07854">
        <ele>1281</ele>
        <time>2022-03-03T11:13:22.000Z</time>
      </trkpt>
      <trkpt lat="44.15533" lon="6.07853">
        <ele>1280</ele>
        <time>2022-03-03T11:13:23.000Z</time>
      </trkpt>
      <trkpt lat="44.15532" lon="6.07853">
        <ele>1280</ele>
        <time>2022-03-03T11:13:24.000Z</time>
      </trkpt>
      <trkpt lat="44.15531" lon="6.07852">
        <ele>1280</ele>
        <time>2022-03-03T11:13:25.000Z</time>
      </trkpt>
      <trkpt lat="44.1553" lon="6.07852">
        <ele>1280</ele>
        <time>2022-03-03T11:13:26.000Z</time>
      </trkpt>
      <trkpt lat="44.15529" lon="6.07851">
        <ele>1280</ele>
        <time>2022-03-03T11:13:27.000Z</time>
      </trkpt>
      <trkpt lat="44.15528" lon="6.07851">
        <ele>1280</ele>
        <time>2022-03-03T11:13:28.000Z</time>
      </trkpt>
      <trkpt lat="44.15527" lon="6.0785">
        <ele>1280</ele>
        <time>2022-03-03T11:13:29.000Z</time>
      </trkpt>
      <trkpt lat="44.15526" lon="6.07849">
        <ele>1280</ele>
        <time>2022-03-03T11:13:30.000Z</time>
      </trkpt>
      <trkpt lat="44.15525" lon="6.07849">
        <ele>1280</ele>
        <time>2022-03-03T11:13:31.000Z</time>
      </trkpt>
      <trkpt lat="44.15524" lon="6.07849">
        <ele>1280</ele>
        <time>2022-03-03T11:13:32.000Z</time>
      </trkpt>
      <trkpt lat="44.15523" lon="6.07848">
        <ele>1280</ele>
        <time>2022-03-03T11:13:33.000Z</time>
      </trkpt>
      <trkpt lat="44.15522" lon="6.07847">
        <ele>1280</ele>
        <time>2022-03-03T11:13:34.000Z</time>
      </trkpt>
      <trkpt lat="44.15521" lon="6.07847">
        <ele>1280</ele>
        <time>2022-03-03T11:13:35.000Z</time>
      </trkpt>
      <trkpt lat="44.15521" lon="6.07846">
        <ele>1280</ele>
        <time>2022-03-03T11:13:36.000Z</time>
      </trkpt>
      <trkpt lat="44.1552" lon="6.07846">
        <ele>1280</ele>
        <time>2022-03-03T11:13:37.000Z</time>
      </trkpt>
      <trkpt lat="44.15519" lon="6.07845">
        <ele>1280</ele>
        <time>2022-03-03T11:13:38.000Z</time>
      </trkpt>
      <trkpt lat="44.15517" lon="6.07845">
        <ele>1280</ele>
        <time>2022-03-03T11:13:39.000Z</time>
      </trkpt>
      <trkpt lat="44.15516" lon="6.07844">
        <ele>1279</ele>
        <time>2022-03-03T11:13:40.000Z</time>
      </trkpt>
      <trkpt lat="44.15515" lon="6.07844">
        <ele>1279</ele>
        <time>2022-03-03T11:13:41.000Z</time>
      </trkpt>
      <trkpt lat="44.15514" lon="6.07844">
        <ele>1279</ele>
        <time>2022-03-03T11:13:42.000Z</time>
      </trkpt>
      <trkpt lat="44.15514" lon="6.07843">
        <ele>1279</ele>
        <time>2022-03-03T11:13:43.000Z</time>
      </trkpt>
      <trkpt lat="44.15513" lon="6.07843">
        <ele>1279</ele>
        <time>2022-03-03T11:13:44.000Z</time>
      </trkpt>
      <trkpt lat="44.15512" lon="6.07843">
        <ele>1279</ele>
        <time>2022-03-03T11:13:45.000Z</time>
      </trkpt>
      <trkpt lat="44.15511" lon="6.07842">
        <ele>1279</ele>
        <time>2022-03-03T11:13:46.000Z</time>
      </trkpt>
      <trkpt lat="44.1551" lon="6.07842">
        <ele>1278</ele>
        <time>2022-03-03T11:13:47.000Z</time>
      </trkpt>
      <trkpt lat="44.15509" lon="6.07842">
        <ele>1278</ele>
        <time>2022-03-03T11:13:48.000Z</time>
      </trkpt>
      <trkpt lat="44.15508" lon="6.07841">
        <ele>1278</ele>
        <time>2022-03-03T11:13:49.000Z</time>
      </trkpt>
      <trkpt lat="44.15507" lon="6.07841">
        <ele>1278</ele>
        <time>2022-03-03T11:13:50.000Z</time>
      </trkpt>
      <trkpt lat="44.15506" lon="6.0784">
        <ele>1278</ele>
        <time>2022-03-03T11:13:51.000Z</time>
      </trkpt>
      <trkpt lat="44.15505" lon="6.0784">
        <ele>1278</ele>
        <time>2022-03-03T11:13:52.000Z</time>
      </trkpt>
      <trkpt lat="44.15504" lon="6.0784">
        <ele>1278</ele>
        <time>2022-03-03T11:13:53.000Z</time>
      </trkpt>
      <trkpt lat="44.15503" lon="6.07839">
        <ele>1277</ele>
        <time>2022-03-03T11:13:54.000Z</time>
      </trkpt>
      <trkpt lat="44.15502" lon="6.07839">
        <ele>1277</ele>
        <time>2022-03-03T11:13:55.000Z</time>
      </trkpt>
      <trkpt lat="44.15502" lon="6.07838">
        <ele>1277</ele>
        <time>2022-03-03T11:13:56.000Z</time>
      </trkpt>
      <trkpt lat="44.15501" lon="6.07838">
        <ele>1277</ele>
        <time>2022-03-03T11:13:57.000Z</time>
      </trkpt>
      <trkpt lat="44.15501" lon="6.07838">
        <ele>1277</ele>
        <time>2022-03-03T11:13:58.000Z</time>
      </trkpt>
      <trkpt lat="44.155" lon="6.07838">
        <ele>1277</ele>
        <time>2022-03-03T11:13:59.000Z</time>
      </trkpt>
      <trkpt lat="44.155" lon="6.07838">
        <ele>1277</ele>
        <time>2022-03-03T11:14:00.000Z</time>
      </trkpt>
      <trkpt lat="44.15499" lon="6.07838">
        <ele>1277</ele>
        <time>2022-03-03T11:14:01.000Z</time>
      </trkpt>
      <trkpt lat="44.15498" lon="6.07837">
        <ele>1277</ele>
        <time>2022-03-03T11:14:02.000Z</time>
      </trkpt>
      <trkpt lat="44.15498" lon="6.07837">
        <ele>1277</ele>
        <time>2022-03-03T11:14:03.000Z</time>
      </trkpt>
      <trkpt lat="44.15497" lon="6.07837">
        <ele>1277</ele>
        <time>2022-03-03T11:14:04.000Z</time>
      </trkpt>
      <trkpt lat="44.15496" lon="6.07837">
        <ele>1276</ele>
        <time>2022-03-03T11:14:05.000Z</time>
      </trkpt>
      <trkpt lat="44.15495" lon="6.07837">
        <ele>1276</ele>
        <time>2022-03-03T11:14:06.000Z</time>
      </trkpt>
      <trkpt lat="44.15494" lon="6.07836">
        <ele>1276</ele>
        <time>2022-03-03T11:14:07.000Z</time>
      </trkpt>
      <trkpt lat="44.15493" lon="6.07836">
        <ele>1276</ele>
        <time>2022-03-03T11:14:08.000Z</time>
      </trkpt>
      <trkpt lat="44.15492" lon="6.07836">
        <ele>1276</ele>
        <time>2022-03-03T11:14:09.000Z</time>
      </trkpt>
      <trkpt lat="44.15491" lon="6.07836">
        <ele>1276</ele>
        <time>2022-03-03T11:14:10.000Z</time>
      </trkpt>
      <trkpt lat="44.15491" lon="6.07836">
        <ele>1276</ele>
        <time>2022-03-03T11:14:11.000Z</time>
      </trkpt>
      <trkpt lat="44.1549" lon="6.07836">
        <ele>1276</ele>
        <time>2022-03-03T11:14:12.000Z</time>
      </trkpt>
      <trkpt lat="44.15489" lon="6.07836">
        <ele>1275</ele>
        <time>2022-03-03T11:14:13.000Z</time>
      </trkpt>
      <trkpt lat="44.15489" lon="6.07836">
        <ele>1275</ele>
        <time>2022-03-03T11:14:14.000Z</time>
      </trkpt>
      <trkpt lat="44.15488" lon="6.07836">
        <ele>1275</ele>
        <time>2022-03-03T11:14:15.000Z</time>
      </trkpt>
      <trkpt lat="44.15487" lon="6.07836">
        <ele>1275</ele>
        <time>2022-03-03T11:14:16.000Z</time>
      </trkpt>
      <trkpt lat="44.15486" lon="6.07836">
        <ele>1275</ele>
        <time>2022-03-03T11:14:17.000Z</time>
      </trkpt>
      <trkpt lat="44.15485" lon="6.07836">
        <ele>1275</ele>
        <time>2022-03-03T11:14:18.000Z</time>
      </trkpt>
      <trkpt lat="44.15484" lon="6.07837">
        <ele>1274</ele>
        <time>2022-03-03T11:14:19.000Z</time>
      </trkpt>
      <trkpt lat="44.15484" lon="6.07837">
        <ele>1274</ele>
        <time>2022-03-03T11:14:20.000Z</time>
      </trkpt>
      <trkpt lat="44.15483" lon="6.07837">
        <ele>1274</ele>
        <time>2022-03-03T11:14:21.000Z</time>
      </trkpt>
      <trkpt lat="44.15482" lon="6.07837">
        <ele>1274</ele>
        <time>2022-03-03T11:14:22.000Z</time>
      </trkpt>
      <trkpt lat="44.15481" lon="6.07837">
        <ele>1274</ele>
        <time>2022-03-03T11:14:23.000Z</time>
      </trkpt>
      <trkpt lat="44.1548" lon="6.07837">
        <ele>1274</ele>
        <time>2022-03-03T11:14:24.000Z</time>
      </trkpt>
      <trkpt lat="44.15479" lon="6.07837">
        <ele>1273</ele>
        <time>2022-03-03T11:14:25.000Z</time>
      </trkpt>
      <trkpt lat="44.15478" lon="6.07837">
        <ele>1273</ele>
        <time>2022-03-03T11:14:26.000Z</time>
      </trkpt>
      <trkpt lat="44.15477" lon="6.07836">
        <ele>1273</ele>
        <time>2022-03-03T11:14:27.000Z</time>
      </trkpt>
      <trkpt lat="44.15476" lon="6.07836">
        <ele>1273</ele>
        <time>2022-03-03T11:14:28.000Z</time>
      </trkpt>
      <trkpt lat="44.15476" lon="6.07836">
        <ele>1273</ele>
        <time>2022-03-03T11:14:29.000Z</time>
      </trkpt>
      <trkpt lat="44.15475" lon="6.07836">
        <ele>1273</ele>
        <time>2022-03-03T11:14:30.000Z</time>
      </trkpt>
      <trkpt lat="44.15474" lon="6.07836">
        <ele>1272</ele>
        <time>2022-03-03T11:14:31.000Z</time>
      </trkpt>
      <trkpt lat="44.15473" lon="6.07835">
        <ele>1272</ele>
        <time>2022-03-03T11:14:32.000Z</time>
      </trkpt>
      <trkpt lat="44.15472" lon="6.07835">
        <ele>1272</ele>
        <time>2022-03-03T11:14:33.000Z</time>
      </trkpt>
      <trkpt lat="44.15471" lon="6.07835">
        <ele>1272</ele>
        <time>2022-03-03T11:14:34.000Z</time>
      </trkpt>
      <trkpt lat="44.1547" lon="6.07835">
        <ele>1272</ele>
        <time>2022-03-03T11:14:35.000Z</time>
      </trkpt>
      <trkpt lat="44.15469" lon="6.07835">
        <ele>1272</ele>
        <time>2022-03-03T11:14:36.000Z</time>
      </trkpt>
      <trkpt lat="44.15469" lon="6.07835">
        <ele>1272</ele>
        <time>2022-03-03T11:14:37.000Z</time>
      </trkpt>
      <trkpt lat="44.15468" lon="6.07835">
        <ele>1271</ele>
        <time>2022-03-03T11:14:38.000Z</time>
      </trkpt>
      <trkpt lat="44.15467" lon="6.07834">
        <ele>1271</ele>
        <time>2022-03-03T11:14:39.000Z</time>
      </trkpt>
      <trkpt lat="44.15467" lon="6.07834">
        <ele>1271</ele>
        <time>2022-03-03T11:14:40.000Z</time>
      </trkpt>
      <trkpt lat="44.15466" lon="6.07833">
        <ele>1271</ele>
        <time>2022-03-03T11:14:41.000Z</time>
      </trkpt>
      <trkpt lat="44.15465" lon="6.07833">
        <ele>1271</ele>
        <time>2022-03-03T11:14:42.000Z</time>
      </trkpt>
      <trkpt lat="44.15464" lon="6.07833">
        <ele>1271</ele>
        <time>2022-03-03T11:14:43.000Z</time>
      </trkpt>
      <trkpt lat="44.15463" lon="6.07832">
        <ele>1271</ele>
        <time>2022-03-03T11:14:44.000Z</time>
      </trkpt>
      <trkpt lat="44.15463" lon="6.07832">
        <ele>1271</ele>
        <time>2022-03-03T11:14:45.000Z</time>
      </trkpt>
      <trkpt lat="44.15462" lon="6.07831">
        <ele>1271</ele>
        <time>2022-03-03T11:14:46.000Z</time>
      </trkpt>
      <trkpt lat="44.15461" lon="6.0783">
        <ele>1271</ele>
        <time>2022-03-03T11:14:47.000Z</time>
      </trkpt>
      <trkpt lat="44.15461" lon="6.0783">
        <ele>1271</ele>
        <time>2022-03-03T11:14:48.000Z</time>
      </trkpt>
      <trkpt lat="44.1546" lon="6.0783">
        <ele>1270</ele>
        <time>2022-03-03T11:14:49.000Z</time>
      </trkpt>
      <trkpt lat="44.15459" lon="6.07829">
        <ele>1270</ele>
        <time>2022-03-03T11:14:50.000Z</time>
      </trkpt>
      <trkpt lat="44.15458" lon="6.07828">
        <ele>1270</ele>
        <time>2022-03-03T11:14:51.000Z</time>
      </trkpt>
      <trkpt lat="44.15457" lon="6.07828">
        <ele>1270</ele>
        <time>2022-03-03T11:14:52.000Z</time>
      </trkpt>
      <trkpt lat="44.15457" lon="6.07827">
        <ele>1270</ele>
        <time>2022-03-03T11:14:53.000Z</time>
      </trkpt>
      <trkpt lat="44.15456" lon="6.07826">
        <ele>1270</ele>
        <time>2022-03-03T11:14:54.000Z</time>
      </trkpt>
      <trkpt lat="44.15455" lon="6.07826">
        <ele>1270</ele>
        <time>2022-03-03T11:14:55.000Z</time>
      </trkpt>
      <trkpt lat="44.15454" lon="6.07826">
        <ele>1269</ele>
        <time>2022-03-03T11:14:56.000Z</time>
      </trkpt>
      <trkpt lat="44.15453" lon="6.07826">
        <ele>1269</ele>
        <time>2022-03-03T11:14:57.000Z</time>
      </trkpt>
      <trkpt lat="44.15453" lon="6.07825">
        <ele>1269</ele>
        <time>2022-03-03T11:14:58.000Z</time>
      </trkpt>
      <trkpt lat="44.15452" lon="6.07825">
        <ele>1269</ele>
        <time>2022-03-03T11:14:59.000Z</time>
      </trkpt>
      <trkpt lat="44.15451" lon="6.07825">
        <ele>1269</ele>
        <time>2022-03-03T11:15:00.000Z</time>
      </trkpt>
      <trkpt lat="44.1545" lon="6.07824">
        <ele>1268</ele>
        <time>2022-03-03T11:15:01.000Z</time>
      </trkpt>
      <trkpt lat="44.15449" lon="6.07824">
        <ele>1268</ele>
        <time>2022-03-03T11:15:02.000Z</time>
      </trkpt>
      <trkpt lat="44.15448" lon="6.07824">
        <ele>1268</ele>
        <time>2022-03-03T11:15:03.000Z</time>
      </trkpt>
      <trkpt lat="44.15448" lon="6.07823">
        <ele>1268</ele>
        <time>2022-03-03T11:15:04.000Z</time>
      </trkpt>
      <trkpt lat="44.15447" lon="6.07822">
        <ele>1268</ele>
        <time>2022-03-03T11:15:05.000Z</time>
      </trkpt>
      <trkpt lat="44.15447" lon="6.07821">
        <ele>1268</ele>
        <time>2022-03-03T11:15:06.000Z</time>
      </trkpt>
      <trkpt lat="44.15446" lon="6.0782">
        <ele>1267</ele>
        <time>2022-03-03T11:15:07.000Z</time>
      </trkpt>
      <trkpt lat="44.15446" lon="6.0782">
        <ele>1267</ele>
        <time>2022-03-03T11:15:08.000Z</time>
      </trkpt>
      <trkpt lat="44.15446" lon="6.0782">
        <ele>1267</ele>
        <time>2022-03-03T11:15:09.000Z</time>
      </trkpt>
      <trkpt lat="44.15446" lon="6.0782">
        <ele>1267</ele>
        <time>2022-03-03T11:15:10.000Z</time>
      </trkpt>
      <trkpt lat="44.15446" lon="6.07819">
        <ele>1267</ele>
        <time>2022-03-03T11:15:11.000Z</time>
      </trkpt>
      <trkpt lat="44.15446" lon="6.07819">
        <ele>1267</ele>
        <time>2022-03-03T11:15:12.000Z</time>
      </trkpt>
      <trkpt lat="44.15445" lon="6.07819">
        <ele>1267</ele>
        <time>2022-03-03T11:15:13.000Z</time>
      </trkpt>
      <trkpt lat="44.15444" lon="6.07818">
        <ele>1267</ele>
        <time>2022-03-03T11:15:14.000Z</time>
      </trkpt>
      <trkpt lat="44.15444" lon="6.07818">
        <ele>1267</ele>
        <time>2022-03-03T11:15:15.000Z</time>
      </trkpt>
      <trkpt lat="44.15443" lon="6.07817">
        <ele>1267</ele>
        <time>2022-03-03T11:15:16.000Z</time>
      </trkpt>
      <trkpt lat="44.15442" lon="6.07816">
        <ele>1267</ele>
        <time>2022-03-03T11:15:17.000Z</time>
      </trkpt>
      <trkpt lat="44.15442" lon="6.07816">
        <ele>1266</ele>
        <time>2022-03-03T11:15:18.000Z</time>
      </trkpt>
      <trkpt lat="44.15441" lon="6.07815">
        <ele>1266</ele>
        <time>2022-03-03T11:15:19.000Z</time>
      </trkpt>
      <trkpt lat="44.1544" lon="6.07814">
        <ele>1266</ele>
        <time>2022-03-03T11:15:20.000Z</time>
      </trkpt>
      <trkpt lat="44.15439" lon="6.07813">
        <ele>1266</ele>
        <time>2022-03-03T11:15:21.000Z</time>
      </trkpt>
      <trkpt lat="44.15439" lon="6.07813">
        <ele>1266</ele>
        <time>2022-03-03T11:15:22.000Z</time>
      </trkpt>
      <trkpt lat="44.15438" lon="6.07812">
        <ele>1266</ele>
        <time>2022-03-03T11:15:23.000Z</time>
      </trkpt>
      <trkpt lat="44.15438" lon="6.07811">
        <ele>1266</ele>
        <time>2022-03-03T11:15:24.000Z</time>
      </trkpt>
      <trkpt lat="44.15437" lon="6.0781">
        <ele>1266</ele>
        <time>2022-03-03T11:15:25.000Z</time>
      </trkpt>
      <trkpt lat="44.15436" lon="6.0781">
        <ele>1265</ele>
        <time>2022-03-03T11:15:26.000Z</time>
      </trkpt>
      <trkpt lat="44.15436" lon="6.0781">
        <ele>1265</ele>
        <time>2022-03-03T11:15:27.000Z</time>
      </trkpt>
      <trkpt lat="44.15435" lon="6.07809">
        <ele>1265</ele>
        <time>2022-03-03T11:15:28.000Z</time>
      </trkpt>
      <trkpt lat="44.15434" lon="6.07809">
        <ele>1265</ele>
        <time>2022-03-03T11:15:29.000Z</time>
      </trkpt>
      <trkpt lat="44.15434" lon="6.07808">
        <ele>1265</ele>
        <time>2022-03-03T11:15:30.000Z</time>
      </trkpt>
      <trkpt lat="44.15433" lon="6.07808">
        <ele>1265</ele>
        <time>2022-03-03T11:15:31.000Z</time>
      </trkpt>
      <trkpt lat="44.15432" lon="6.07808">
        <ele>1265</ele>
        <time>2022-03-03T11:15:32.000Z</time>
      </trkpt>
      <trkpt lat="44.15432" lon="6.07807">
        <ele>1264</ele>
        <time>2022-03-03T11:15:33.000Z</time>
      </trkpt>
      <trkpt lat="44.15431" lon="6.07806">
        <ele>1264</ele>
        <time>2022-03-03T11:15:34.000Z</time>
      </trkpt>
      <trkpt lat="44.15431" lon="6.07806">
        <ele>1264</ele>
        <time>2022-03-03T11:15:35.000Z</time>
      </trkpt>
      <trkpt lat="44.1543" lon="6.07806">
        <ele>1264</ele>
        <time>2022-03-03T11:15:36.000Z</time>
      </trkpt>
      <trkpt lat="44.15429" lon="6.07806">
        <ele>1264</ele>
        <time>2022-03-03T11:15:37.000Z</time>
      </trkpt>
      <trkpt lat="44.15429" lon="6.07805">
        <ele>1264</ele>
        <time>2022-03-03T11:15:38.000Z</time>
      </trkpt>
      <trkpt lat="44.15428" lon="6.07805">
        <ele>1264</ele>
        <time>2022-03-03T11:15:39.000Z</time>
      </trkpt>
      <trkpt lat="44.15428" lon="6.07805">
        <ele>1264</ele>
        <time>2022-03-03T11:15:40.000Z</time>
      </trkpt>
      <trkpt lat="44.15428" lon="6.07805">
        <ele>1264</ele>
        <time>2022-03-03T11:15:41.000Z</time>
      </trkpt>
      <trkpt lat="44.15428" lon="6.07805">
        <ele>1264</ele>
        <time>2022-03-03T11:15:42.000Z</time>
      </trkpt>
      <trkpt lat="44.15428" lon="6.07805">
        <ele>1264</ele>
        <time>2022-03-03T11:15:43.000Z</time>
      </trkpt>
      <trkpt lat="44.15428" lon="6.07805">
        <ele>1264</ele>
        <time>2022-03-03T11:15:44.000Z</time>
      </trkpt>
      <trkpt lat="44.15428" lon="6.07805">
        <ele>1264</ele>
        <time>2022-03-03T11:15:45.000Z</time>
      </trkpt>
      <trkpt lat="44.15427" lon="6.07805">
        <ele>1263</ele>
        <time>2022-03-03T11:15:46.000Z</time>
      </trkpt>
      <trkpt lat="44.15426" lon="6.07805">
        <ele>1263</ele>
        <time>2022-03-03T11:15:47.000Z</time>
      </trkpt>
      <trkpt lat="44.15425" lon="6.07804">
        <ele>1263</ele>
        <time>2022-03-03T11:15:48.000Z</time>
      </trkpt>
      <trkpt lat="44.15425" lon="6.07803">
        <ele>1263</ele>
        <time>2022-03-03T11:15:49.000Z</time>
      </trkpt>
      <trkpt lat="44.15424" lon="6.07802">
        <ele>1263</ele>
        <time>2022-03-03T11:15:50.000Z</time>
      </trkpt>
      <trkpt lat="44.15424" lon="6.07801">
        <ele>1263</ele>
        <time>2022-03-03T11:15:51.000Z</time>
      </trkpt>
      <trkpt lat="44.15423" lon="6.078">
        <ele>1263</ele>
        <time>2022-03-03T11:15:52.000Z</time>
      </trkpt>
      <trkpt lat="44.15423" lon="6.078">
        <ele>1263</ele>
        <time>2022-03-03T11:15:53.000Z</time>
      </trkpt>
      <trkpt lat="44.15423" lon="6.078">
        <ele>1263</ele>
        <time>2022-03-03T11:15:54.000Z</time>
      </trkpt>
      <trkpt lat="44.15423" lon="6.078">
        <ele>1262</ele>
        <time>2022-03-03T11:15:55.000Z</time>
      </trkpt>
      <trkpt lat="44.15423" lon="6.078">
        <ele>1262</ele>
        <time>2022-03-03T11:15:56.000Z</time>
      </trkpt>
      <trkpt lat="44.15422" lon="6.07799">
        <ele>1262</ele>
        <time>2022-03-03T11:15:57.000Z</time>
      </trkpt>
      <trkpt lat="44.15422" lon="6.07798">
        <ele>1262</ele>
        <time>2022-03-03T11:15:58.000Z</time>
      </trkpt>
      <trkpt lat="44.15421" lon="6.07797">
        <ele>1262</ele>
        <time>2022-03-03T11:15:59.000Z</time>
      </trkpt>
      <trkpt lat="44.1542" lon="6.07796">
        <ele>1262</ele>
        <time>2022-03-03T11:16:00.000Z</time>
      </trkpt>
      <trkpt lat="44.15419" lon="6.07795">
        <ele>1262</ele>
        <time>2022-03-03T11:16:01.000Z</time>
      </trkpt>
      <trkpt lat="44.15419" lon="6.07794">
        <ele>1262</ele>
        <time>2022-03-03T11:16:02.000Z</time>
      </trkpt>
      <trkpt lat="44.15418" lon="6.07793">
        <ele>1262</ele>
        <time>2022-03-03T11:16:03.000Z</time>
      </trkpt>
      <trkpt lat="44.15418" lon="6.07793">
        <ele>1262</ele>
        <time>2022-03-03T11:16:04.000Z</time>
      </trkpt>
      <trkpt lat="44.15418" lon="6.07792">
        <ele>1262</ele>
        <time>2022-03-03T11:16:05.000Z</time>
      </trkpt>
      <trkpt lat="44.15418" lon="6.07792">
        <ele>1262</ele>
        <time>2022-03-03T11:16:06.000Z</time>
      </trkpt>
      <trkpt lat="44.15418" lon="6.07792">
        <ele>1262</ele>
        <time>2022-03-03T11:16:07.000Z</time>
      </trkpt>
      <trkpt lat="44.15418" lon="6.07792">
        <ele>1262</ele>
        <time>2022-03-03T11:16:08.000Z</time>
      </trkpt>
      <trkpt lat="44.15418" lon="6.0779">
        <ele>1262</ele>
        <time>2022-03-03T11:16:09.000Z</time>
      </trkpt>
      <trkpt lat="44.15418" lon="6.07789">
        <ele>1262</ele>
        <time>2022-03-03T11:16:10.000Z</time>
      </trkpt>
      <trkpt lat="44.15418" lon="6.07788">
        <ele>1262</ele>
        <time>2022-03-03T11:16:11.000Z</time>
      </trkpt>
      <trkpt lat="44.15418" lon="6.07787">
        <ele>1262</ele>
        <time>2022-03-03T11:16:12.000Z</time>
      </trkpt>
      <trkpt lat="44.15418" lon="6.07787">
        <ele>1262</ele>
        <time>2022-03-03T11:16:13.000Z</time>
      </trkpt>
      <trkpt lat="44.15418" lon="6.07786">
        <ele>1262</ele>
        <time>2022-03-03T11:16:14.000Z</time>
      </trkpt>
      <trkpt lat="44.15418" lon="6.07785">
        <ele>1262</ele>
        <time>2022-03-03T11:16:15.000Z</time>
      </trkpt>
      <trkpt lat="44.15417" lon="6.07784">
        <ele>1262</ele>
        <time>2022-03-03T11:16:16.000Z</time>
      </trkpt>
      <trkpt lat="44.15417" lon="6.07783">
        <ele>1263</ele>
        <time>2022-03-03T11:16:17.000Z</time>
      </trkpt>
      <trkpt lat="44.15416" lon="6.07782">
        <ele>1263</ele>
        <time>2022-03-03T11:16:18.000Z</time>
      </trkpt>
      <trkpt lat="44.15416" lon="6.07781">
        <ele>1263</ele>
        <time>2022-03-03T11:16:19.000Z</time>
      </trkpt>
      <trkpt lat="44.15416" lon="6.0778">
        <ele>1263</ele>
        <time>2022-03-03T11:16:20.000Z</time>
      </trkpt>
      <trkpt lat="44.15416" lon="6.07778">
        <ele>1263</ele>
        <time>2022-03-03T11:16:21.000Z</time>
      </trkpt>
      <trkpt lat="44.15415" lon="6.07777">
        <ele>1263</ele>
        <time>2022-03-03T11:16:22.000Z</time>
      </trkpt>
      <trkpt lat="44.15415" lon="6.07776">
        <ele>1263</ele>
        <time>2022-03-03T11:16:23.000Z</time>
      </trkpt>
      <trkpt lat="44.15415" lon="6.07775">
        <ele>1263</ele>
        <time>2022-03-03T11:16:24.000Z</time>
      </trkpt>
      <trkpt lat="44.15414" lon="6.07774">
        <ele>1263</ele>
        <time>2022-03-03T11:16:25.000Z</time>
      </trkpt>
      <trkpt lat="44.15414" lon="6.07772">
        <ele>1263</ele>
        <time>2022-03-03T11:16:26.000Z</time>
      </trkpt>
      <trkpt lat="44.15414" lon="6.07771">
        <ele>1263</ele>
        <time>2022-03-03T11:16:27.000Z</time>
      </trkpt>
      <trkpt lat="44.15414" lon="6.0777">
        <ele>1263</ele>
        <time>2022-03-03T11:16:28.000Z</time>
      </trkpt>
      <trkpt lat="44.15414" lon="6.07769">
        <ele>1263</ele>
        <time>2022-03-03T11:16:29.000Z</time>
      </trkpt>
      <trkpt lat="44.15414" lon="6.07768">
        <ele>1263</ele>
        <time>2022-03-03T11:16:30.000Z</time>
      </trkpt>
      <trkpt lat="44.15414" lon="6.07767">
        <ele>1263</ele>
        <time>2022-03-03T11:16:31.000Z</time>
      </trkpt>
      <trkpt lat="44.15414" lon="6.07766">
        <ele>1263</ele>
        <time>2022-03-03T11:16:32.000Z</time>
      </trkpt>
      <trkpt lat="44.15414" lon="6.07765">
        <ele>1263</ele>
        <time>2022-03-03T11:16:33.000Z</time>
      </trkpt>
      <trkpt lat="44.15415" lon="6.07765">
        <ele>1263</ele>
        <time>2022-03-03T11:16:34.000Z</time>
      </trkpt>
      <trkpt lat="44.15415" lon="6.07765">
        <ele>1263</ele>
        <time>2022-03-03T11:16:35.000Z</time>
      </trkpt>
      <trkpt lat="44.15415" lon="6.07765">
        <ele>1263</ele>
        <time>2022-03-03T11:16:36.000Z</time>
      </trkpt>
      <trkpt lat="44.15415" lon="6.07765">
        <ele>1263</ele>
        <time>2022-03-03T11:16:37.000Z</time>
      </trkpt>
      <trkpt lat="44.15415" lon="6.07765">
        <ele>1263</ele>
        <time>2022-03-03T11:16:38.000Z</time>
      </trkpt>
      <trkpt lat="44.15415" lon="6.07765">
        <ele>1263</ele>
        <time>2022-03-03T11:16:39.000Z</time>
      </trkpt>
      <trkpt lat="44.15415" lon="6.07765">
        <ele>1263</ele>
        <time>2022-03-03T11:16:40.000Z</time>
      </trkpt>
      <trkpt lat="44.15415" lon="6.07765">
        <ele>1263</ele>
        <time>2022-03-03T11:16:41.000Z</time>
      </trkpt>
      <trkpt lat="44.15415" lon="6.07764">
        <ele>1263</ele>
        <time>2022-03-03T11:16:42.000Z</time>
      </trkpt>
      <trkpt lat="44.15415" lon="6.07763">
        <ele>1263</ele>
        <time>2022-03-03T11:16:43.000Z</time>
      </trkpt>
      <trkpt lat="44.15415" lon="6.07763">
        <ele>1263</ele>
        <time>2022-03-03T11:16:44.000Z</time>
      </trkpt>
      <trkpt lat="44.15415" lon="6.07763">
        <ele>1263</ele>
        <time>2022-03-03T11:16:45.000Z</time>
      </trkpt>
      <trkpt lat="44.15415" lon="6.07763">
        <ele>1263</ele>
        <time>2022-03-03T11:16:46.000Z</time>
      </trkpt>
      <trkpt lat="44.15415" lon="6.07763">
        <ele>1263</ele>
        <time>2022-03-03T11:16:47.000Z</time>
      </trkpt>
      <trkpt lat="44.15415" lon="6.07763">
        <ele>1263</ele>
        <time>2022-03-03T11:16:48.000Z</time>
      </trkpt>
      <trkpt lat="44.15415" lon="6.07763">
        <ele>1263</ele>
        <time>2022-03-03T11:16:49.000Z</time>
      </trkpt>
      <trkpt lat="44.15415" lon="6.07762">
        <ele>1263</ele>
        <time>2022-03-03T11:16:50.000Z</time>
      </trkpt>
      <trkpt lat="44.15415" lon="6.07762">
        <ele>1263</ele>
        <time>2022-03-03T11:16:51.000Z</time>
      </trkpt>
      <trkpt lat="44.15415" lon="6.07762">
        <ele>1263</ele>
        <time>2022-03-03T11:16:52.000Z</time>
      </trkpt>
      <trkpt lat="44.15415" lon="6.07762">
        <ele>1263</ele>
        <time>2022-03-03T11:16:53.000Z</time>
      </trkpt>
      <trkpt lat="44.15415" lon="6.07762">
        <ele>1263</ele>
        <time>2022-03-03T11:16:54.000Z</time>
      </trkpt>
      <trkpt lat="44.15415" lon="6.07762">
        <ele>1263</ele>
        <time>2022-03-03T11:16:55.000Z</time>
      </trkpt>
      <trkpt lat="44.15415" lon="6.07762">
        <ele>1263</ele>
        <time>2022-03-03T11:16:56.000Z</time>
      </trkpt>
      <trkpt lat="44.15415" lon="6.07762">
        <ele>1263</ele>
        <time>2022-03-03T11:16:57.000Z</time>
      </trkpt>
      <trkpt lat="44.15415" lon="6.07762">
        <ele>1264</ele>
        <time>2022-03-03T11:16:58.000Z</time>
      </trkpt>
      <trkpt lat="44.15415" lon="6.07762">
        <ele>1264</ele>
        <time>2022-03-03T11:16:59.000Z</time>
      </trkpt>
      <trkpt lat="44.15415" lon="6.07761">
        <ele>1264</ele>
        <time>2022-03-03T11:17:00.000Z</time>
      </trkpt>
      <trkpt lat="44.15415" lon="6.07761">
        <ele>1264</ele>
        <time>2022-03-03T11:17:01.000Z</time>
      </trkpt>
      <trkpt lat="44.15415" lon="6.07761">
        <ele>1264</ele>
        <time>2022-03-03T11:17:02.000Z</time>
      </trkpt>
      <trkpt lat="44.15415" lon="6.07761">
        <ele>1264</ele>
        <time>2022-03-03T11:17:03.000Z</time>
      </trkpt>
      <trkpt lat="44.15415" lon="6.07761">
        <ele>1264</ele>
        <time>2022-03-03T11:17:04.000Z</time>
      </trkpt>
      <trkpt lat="44.15415" lon="6.07761">
        <ele>1264</ele>
        <time>2022-03-03T11:17:05.000Z</time>
      </trkpt>
      <trkpt lat="44.15415" lon="6.07761">
        <ele>1264</ele>
        <time>2022-03-03T11:17:06.000Z</time>
      </trkpt>
      <trkpt lat="44.15415" lon="6.07761">
        <ele>1264</ele>
        <time>2022-03-03T11:17:07.000Z</time>
      </trkpt>
      <trkpt lat="44.15415" lon="6.07761">
        <ele>1264</ele>
        <time>2022-03-03T11:17:08.000Z</time>
      </trkpt>
      <trkpt lat="44.15415" lon="6.07761">
        <ele>1264</ele>
        <time>2022-03-03T11:17:09.000Z</time>
      </trkpt>
      <trkpt lat="44.15415" lon="6.07761">
        <ele>1264</ele>
        <time>2022-03-03T11:17:10.000Z</time>
      </trkpt>
      <trkpt lat="44.15415" lon="6.0776">
        <ele>1264</ele>
        <time>2022-03-03T11:17:11.000Z</time>
      </trkpt>
      <trkpt lat="44.15415" lon="6.0776">
        <ele>1264</ele>
        <time>2022-03-03T11:17:12.000Z</time>
      </trkpt>
      <trkpt lat="44.15415" lon="6.0776">
        <ele>1264</ele>
        <time>2022-03-03T11:17:13.000Z</time>
      </trkpt>
      <trkpt lat="44.15415" lon="6.0776">
        <ele>1264</ele>
        <time>2022-03-03T11:17:14.000Z</time>
      </trkpt>
      <trkpt lat="44.15415" lon="6.0776">
        <ele>1264</ele>
        <time>2022-03-03T11:17:15.000Z</time>
      </trkpt>
      <trkpt lat="44.15415" lon="6.0776">
        <ele>1264</ele>
        <time>2022-03-03T11:17:16.000Z</time>
      </trkpt>
      <trkpt lat="44.15415" lon="6.0776">
        <ele>1264</ele>
        <time>2022-03-03T11:17:17.000Z</time>
      </trkpt>
      <trkpt lat="44.15415" lon="6.0776">
        <ele>1264</ele>
        <time>2022-03-03T11:17:18.000Z</time>
      </trkpt>
      <trkpt lat="44.15415" lon="6.0776">
        <ele>1264</ele>
        <time>2022-03-03T11:17:19.000Z</time>
      </trkpt>
      <trkpt lat="44.15415" lon="6.0776">
        <ele>1264</ele>
        <time>2022-03-03T11:17:20.000Z</time>
      </trkpt>
      <trkpt lat="44.15415" lon="6.0776">
        <ele>1264</ele>
        <time>2022-03-03T11:17:21.000Z</time>
      </trkpt>
      <trkpt lat="44.15415" lon="6.0776">
        <ele>1264</ele>
        <time>2022-03-03T11:17:22.000Z</time>
      </trkpt>
      <trkpt lat="44.15415" lon="6.0776">
        <ele>1264</ele>
        <time>2022-03-03T11:17:23.000Z</time>
      </trkpt>
      <trkpt lat="44.15415" lon="6.0776">
        <ele>1264</ele>
        <time>2022-03-03T11:17:24.000Z</time>
      </trkpt>
      <trkpt lat="44.15415" lon="6.0776">
        <ele>1264</ele>
        <time>2022-03-03T11:17:25.000Z</time>
      </trkpt>
      <trkpt lat="44.15415" lon="6.0776">
        <ele>1264</ele>
        <time>2022-03-03T11:17:26.000Z</time>
      </trkpt>
      <trkpt lat="44.15415" lon="6.0776">
        <ele>1264</ele>
        <time>2022-03-03T11:17:27.000Z</time>
      </trkpt>
      <trkpt lat="44.15415" lon="6.0776">
        <ele>1264</ele>
        <time>2022-03-03T11:17:28.000Z</time>
      </trkpt>
      <trkpt lat="44.15418" lon="6.07761">
        <ele>1260</ele>
        <time>2022-03-03T11:17:29.000Z</time>
      </trkpt>
      <trkpt lat="44.15418" lon="6.07761">
        <ele>1260</ele>
        <time>2022-03-03T11:17:30.000Z</time>
      </trkpt>
      <trkpt lat="44.15418" lon="6.07761">
        <ele>1260</ele>
        <time>2022-03-03T11:17:31.000Z</time>
      </trkpt>
      <trkpt lat="44.15418" lon="6.07761">
        <ele>1260</ele>
        <time>2022-03-03T11:17:32.000Z</time>
      </trkpt>
      <trkpt lat="44.15418" lon="6.07761">
        <ele>1260</ele>
        <time>2022-03-03T11:17:33.000Z</time>
      </trkpt>
      <trkpt lat="44.15418" lon="6.07761">
        <ele>1260</ele>
        <time>2022-03-03T11:17:34.000Z</time>
      </trkpt>
      <trkpt lat="44.15418" lon="6.07761">
        <ele>1260</ele>
        <time>2022-03-03T11:17:35.000Z</time>
      </trkpt>
      <trkpt lat="44.15418" lon="6.07761">
        <ele>1260</ele>
        <time>2022-03-03T11:17:36.000Z</time>
      </trkpt>
      <trkpt lat="44.15418" lon="6.07761">
        <ele>1260</ele>
        <time>2022-03-03T11:17:37.000Z</time>
      </trkpt>
      <trkpt lat="44.15418" lon="6.07761">
        <ele>1260</ele>
        <time>2022-03-03T11:17:38.000Z</time>
      </trkpt>
      <trkpt lat="44.15418" lon="6.07761">
        <ele>1259</ele>
        <time>2022-03-03T11:17:39.000Z</time>
      </trkpt>
      <trkpt lat="44.15418" lon="6.07761">
        <ele>1259</ele>
        <time>2022-03-03T11:17:40.000Z</time>
      </trkpt>
      <trkpt lat="44.15418" lon="6.07761">
        <ele>1259</ele>
        <time>2022-03-03T11:17:41.000Z</time>
      </trkpt>
      <trkpt lat="44.15418" lon="6.07761">
        <ele>1259</ele>
        <time>2022-03-03T11:17:42.000Z</time>
      </trkpt>
      <trkpt lat="44.15418" lon="6.07761">
        <ele>1259</ele>
        <time>2022-03-03T11:17:43.000Z</time>
      </trkpt>
      <trkpt lat="44.15418" lon="6.07762">
        <ele>1259</ele>
        <time>2022-03-03T11:17:44.000Z</time>
      </trkpt>
      <trkpt lat="44.15418" lon="6.07762">
        <ele>1259</ele>
        <time>2022-03-03T11:17:45.000Z</time>
      </trkpt>
      <trkpt lat="44.15418" lon="6.07762">
        <ele>1259</ele>
        <time>2022-03-03T11:17:46.000Z</time>
      </trkpt>
      <trkpt lat="44.15418" lon="6.07762">
        <ele>1259</ele>
        <time>2022-03-03T11:17:47.000Z</time>
      </trkpt>
      <trkpt lat="44.15418" lon="6.07762">
        <ele>1259</ele>
        <time>2022-03-03T11:17:48.000Z</time>
      </trkpt>
      <trkpt lat="44.15418" lon="6.07762">
        <ele>1259</ele>
        <time>2022-03-03T11:17:49.000Z</time>
      </trkpt>
      <trkpt lat="44.15418" lon="6.07762">
        <ele>1259</ele>
        <time>2022-03-03T11:17:50.000Z</time>
      </trkpt>
      <trkpt lat="44.15418" lon="6.07761">
        <ele>1259</ele>
        <time>2022-03-03T11:17:51.000Z</time>
      </trkpt>
      <trkpt lat="44.15417" lon="6.07761">
        <ele>1259</ele>
        <time>2022-03-03T11:17:52.000Z</time>
      </trkpt>
      <trkpt lat="44.15418" lon="6.07761">
        <ele>1259</ele>
        <time>2022-03-03T11:17:53.000Z</time>
      </trkpt>
      <trkpt lat="44.15418" lon="6.07761">
        <ele>1259</ele>
        <time>2022-03-03T11:17:54.000Z</time>
      </trkpt>
      <trkpt lat="44.15417" lon="6.07762">
        <ele>1259</ele>
        <time>2022-03-03T11:17:55.000Z</time>
      </trkpt>
      <trkpt lat="44.15417" lon="6.07762">
        <ele>1259</ele>
        <time>2022-03-03T11:17:56.000Z</time>
      </trkpt>
      <trkpt lat="44.15417" lon="6.07762">
        <ele>1259</ele>
        <time>2022-03-03T11:17:57.000Z</time>
      </trkpt>
      <trkpt lat="44.15417" lon="6.07761">
        <ele>1259</ele>
        <time>2022-03-03T11:17:58.000Z</time>
      </trkpt>
      <trkpt lat="44.15417" lon="6.07761">
        <ele>1259</ele>
        <time>2022-03-03T11:17:59.000Z</time>
      </trkpt>
      <trkpt lat="44.15417" lon="6.0776">
        <ele>1259</ele>
        <time>2022-03-03T11:18:00.000Z</time>
      </trkpt>
      <trkpt lat="44.15416" lon="6.07758">
        <ele>1259</ele>
        <time>2022-03-03T11:18:01.000Z</time>
      </trkpt>
      <trkpt lat="44.15416" lon="6.07757">
        <ele>1259</ele>
        <time>2022-03-03T11:18:02.000Z</time>
      </trkpt>
      <trkpt lat="44.15416" lon="6.07755">
        <ele>1259</ele>
        <time>2022-03-03T11:18:03.000Z</time>
      </trkpt>
      <trkpt lat="44.15416" lon="6.07754">
        <ele>1259</ele>
        <time>2022-03-03T11:18:04.000Z</time>
      </trkpt>
      <trkpt lat="44.15416" lon="6.07752">
        <ele>1259</ele>
        <time>2022-03-03T11:18:05.000Z</time>
      </trkpt>
      <trkpt lat="44.15417" lon="6.07751">
        <ele>1259</ele>
        <time>2022-03-03T11:18:06.000Z</time>
      </trkpt>
      <trkpt lat="44.15417" lon="6.07749">
        <ele>1259</ele>
        <time>2022-03-03T11:18:07.000Z</time>
      </trkpt>
      <trkpt lat="44.15417" lon="6.07748">
        <ele>1259</ele>
        <time>2022-03-03T11:18:08.000Z</time>
      </trkpt>
      <trkpt lat="44.15418" lon="6.07747">
        <ele>1260</ele>
        <time>2022-03-03T11:18:09.000Z</time>
      </trkpt>
      <trkpt lat="44.15418" lon="6.07747">
        <ele>1260</ele>
        <time>2022-03-03T11:18:10.000Z</time>
      </trkpt>
      <trkpt lat="44.15418" lon="6.07746">
        <ele>1260</ele>
        <time>2022-03-03T11:18:11.000Z</time>
      </trkpt>
      <trkpt lat="44.15419" lon="6.07746">
        <ele>1260</ele>
        <time>2022-03-03T11:18:12.000Z</time>
      </trkpt>
      <trkpt lat="44.15419" lon="6.07745">
        <ele>1260</ele>
        <time>2022-03-03T11:18:13.000Z</time>
      </trkpt>
      <trkpt lat="44.1542" lon="6.07744">
        <ele>1260</ele>
        <time>2022-03-03T11:18:14.000Z</time>
      </trkpt>
      <trkpt lat="44.15421" lon="6.07744">
        <ele>1260</ele>
        <time>2022-03-03T11:18:15.000Z</time>
      </trkpt>
      <trkpt lat="44.15421" lon="6.07745">
        <ele>1260</ele>
        <time>2022-03-03T11:18:16.000Z</time>
      </trkpt>
      <trkpt lat="44.15422" lon="6.07744">
        <ele>1260</ele>
        <time>2022-03-03T11:18:17.000Z</time>
      </trkpt>
      <trkpt lat="44.15423" lon="6.07744">
        <ele>1260</ele>
        <time>2022-03-03T11:18:18.000Z</time>
      </trkpt>
      <trkpt lat="44.15423" lon="6.07744">
        <ele>1260</ele>
        <time>2022-03-03T11:18:19.000Z</time>
      </trkpt>
      <trkpt lat="44.15424" lon="6.07744">
        <ele>1260</ele>
        <time>2022-03-03T11:18:20.000Z</time>
      </trkpt>
      <trkpt lat="44.15424" lon="6.07744">
        <ele>1260</ele>
        <time>2022-03-03T11:18:21.000Z</time>
      </trkpt>
      <trkpt lat="44.15424" lon="6.07744">
        <ele>1260</ele>
        <time>2022-03-03T11:18:22.000Z</time>
      </trkpt>
      <trkpt lat="44.15424" lon="6.07744">
        <ele>1261</ele>
        <time>2022-03-03T11:18:23.000Z</time>
      </trkpt>
      <trkpt lat="44.15424" lon="6.07744">
        <ele>1261</ele>
        <time>2022-03-03T11:18:24.000Z</time>
      </trkpt>
      <trkpt lat="44.15424" lon="6.07744">
        <ele>1261</ele>
        <time>2022-03-03T11:18:25.000Z</time>
      </trkpt>
      <trkpt lat="44.15424" lon="6.07744">
        <ele>1261</ele>
        <time>2022-03-03T11:18:26.000Z</time>
      </trkpt>
      <trkpt lat="44.15424" lon="6.07744">
        <ele>1261</ele>
        <time>2022-03-03T11:18:27.000Z</time>
      </trkpt>
      <trkpt lat="44.15424" lon="6.07744">
        <ele>1261</ele>
        <time>2022-03-03T11:18:28.000Z</time>
      </trkpt>
      <trkpt lat="44.15424" lon="6.07744">
        <ele>1261</ele>
        <time>2022-03-03T11:18:29.000Z</time>
      </trkpt>
      <trkpt lat="44.15424" lon="6.07744">
        <ele>1261</ele>
        <time>2022-03-03T11:18:30.000Z</time>
      </trkpt>
      <trkpt lat="44.15424" lon="6.07744">
        <ele>1261</ele>
        <time>2022-03-03T11:18:31.000Z</time>
      </trkpt>
      <trkpt lat="44.15424" lon="6.07744">
        <ele>1261</ele>
        <time>2022-03-03T11:18:32.000Z</time>
      </trkpt>
      <trkpt lat="44.15424" lon="6.07744">
        <ele>1261</ele>
        <time>2022-03-03T11:18:33.000Z</time>
      </trkpt>
      <trkpt lat="44.15424" lon="6.07744">
        <ele>1261</ele>
        <time>2022-03-03T11:18:34.000Z</time>
      </trkpt>
      <trkpt lat="44.15424" lon="6.07744">
        <ele>1261</ele>
        <time>2022-03-03T11:18:35.000Z</time>
      </trkpt>
      <trkpt lat="44.15424" lon="6.07744">
        <ele>1261</ele>
        <time>2022-03-03T11:18:36.000Z</time>
      </trkpt>
      <trkpt lat="44.15424" lon="6.07744">
        <ele>1261</ele>
        <time>2022-03-03T11:18:37.000Z</time>
      </trkpt>
      <trkpt lat="44.15424" lon="6.07744">
        <ele>1261</ele>
        <time>2022-03-03T11:18:38.000Z</time>
      </trkpt>
      <trkpt lat="44.15424" lon="6.07744">
        <ele>1261</ele>
        <time>2022-03-03T11:18:39.000Z</time>
      </trkpt>
      <trkpt lat="44.15424" lon="6.07744">
        <ele>1261</ele>
        <time>2022-03-03T11:18:40.000Z</time>
      </trkpt>
      <trkpt lat="44.15424" lon="6.07744">
        <ele>1261</ele>
        <time>2022-03-03T11:18:41.000Z</time>
      </trkpt>
      <trkpt lat="44.15424" lon="6.07744">
        <ele>1261</ele>
        <time>2022-03-03T11:18:42.000Z</time>
      </trkpt>
      <trkpt lat="44.15424" lon="6.07744">
        <ele>1261</ele>
        <time>2022-03-03T11:18:43.000Z</time>
      </trkpt>
      <trkpt lat="44.15424" lon="6.07744">
        <ele>1261</ele>
        <time>2022-03-03T11:18:44.000Z</time>
      </trkpt>
      <trkpt lat="44.15425" lon="6.07744">
        <ele>1261</ele>
        <time>2022-03-03T11:18:45.000Z</time>
      </trkpt>
      <trkpt lat="44.15425" lon="6.07744">
        <ele>1261</ele>
        <time>2022-03-03T11:18:46.000Z</time>
      </trkpt>
      <trkpt lat="44.15425" lon="6.07744">
        <ele>1261</ele>
        <time>2022-03-03T11:18:47.000Z</time>
      </trkpt>
      <trkpt lat="44.15425" lon="6.07744">
        <ele>1261</ele>
        <time>2022-03-03T11:18:48.000Z</time>
      </trkpt>
      <trkpt lat="44.15425" lon="6.07744">
        <ele>1261</ele>
        <time>2022-03-03T11:18:49.000Z</time>
      </trkpt>
      <trkpt lat="44.15425" lon="6.07744">
        <ele>1261</ele>
        <time>2022-03-03T11:18:50.000Z</time>
      </trkpt>
      <trkpt lat="44.15425" lon="6.07744">
        <ele>1261</ele>
        <time>2022-03-03T11:18:51.000Z</time>
      </trkpt>
      <trkpt lat="44.15425" lon="6.07744">
        <ele>1261</ele>
        <time>2022-03-03T11:18:52.000Z</time>
      </trkpt>
      <trkpt lat="44.15425" lon="6.07744">
        <ele>1261</ele>
        <time>2022-03-03T11:18:53.000Z</time>
      </trkpt>
      <trkpt lat="44.15425" lon="6.07744">
        <ele>1261</ele>
        <time>2022-03-03T11:18:54.000Z</time>
      </trkpt>
      <trkpt lat="44.15425" lon="6.07744">
        <ele>1261</ele>
        <time>2022-03-03T11:18:55.000Z</time>
      </trkpt>
      <trkpt lat="44.15425" lon="6.07744">
        <ele>1261</ele>
        <time>2022-03-03T11:18:56.000Z</time>
      </trkpt>
      <trkpt lat="44.15425" lon="6.07744">
        <ele>1261</ele>
        <time>2022-03-03T11:18:57.000Z</time>
      </trkpt>
      <trkpt lat="44.15425" lon="6.07744">
        <ele>1261</ele>
        <time>2022-03-03T11:18:58.000Z</time>
      </trkpt>
      <trkpt lat="44.15425" lon="6.07744">
        <ele>1261</ele>
        <time>2022-03-03T11:18:59.000Z</time>
      </trkpt>
      <trkpt lat="44.15425" lon="6.07744">
        <ele>1261</ele>
        <time>2022-03-03T11:19:00.000Z</time>
      </trkpt>
      <trkpt lat="44.15425" lon="6.07744">
        <ele>1261</ele>
        <time>2022-03-03T11:19:01.000Z</time>
      </trkpt>
      <trkpt lat="44.15425" lon="6.07744">
        <ele>1261</ele>
        <time>2022-03-03T11:19:02.000Z</time>
      </trkpt>
      <trkpt lat="44.15425" lon="6.07744">
        <ele>1261</ele>
        <time>2022-03-03T11:19:03.000Z</time>
      </trkpt>
      <trkpt lat="44.15425" lon="6.07744">
        <ele>1261</ele>
        <time>2022-03-03T11:19:04.000Z</time>
      </trkpt>
      <trkpt lat="44.15425" lon="6.07743">
        <ele>1261</ele>
        <time>2022-03-03T11:19:05.000Z</time>
      </trkpt>
      <trkpt lat="44.15425" lon="6.07743">
        <ele>1261</ele>
        <time>2022-03-03T11:19:06.000Z</time>
      </trkpt>
      <trkpt lat="44.15425" lon="6.07743">
        <ele>1261</ele>
        <time>2022-03-03T11:19:07.000Z</time>
      </trkpt>
      <trkpt lat="44.15425" lon="6.07743">
        <ele>1261</ele>
        <time>2022-03-03T11:19:08.000Z</time>
      </trkpt>
      <trkpt lat="44.15425" lon="6.07743">
        <ele>1261</ele>
        <time>2022-03-03T11:19:09.000Z</time>
      </trkpt>
      <trkpt lat="44.15425" lon="6.07743">
        <ele>1261</ele>
        <time>2022-03-03T11:19:10.000Z</time>
      </trkpt>
      <trkpt lat="44.15425" lon="6.07743">
        <ele>1261</ele>
        <time>2022-03-03T11:19:11.000Z</time>
      </trkpt>
      <trkpt lat="44.15425" lon="6.07743">
        <ele>1261</ele>
        <time>2022-03-03T11:19:12.000Z</time>
      </trkpt>
      <trkpt lat="44.15425" lon="6.07743">
        <ele>1261</ele>
        <time>2022-03-03T11:19:13.000Z</time>
      </trkpt>
      <trkpt lat="44.15425" lon="6.07743">
        <ele>1261</ele>
        <time>2022-03-03T11:19:14.000Z</time>
      </trkpt>
      <trkpt lat="44.15425" lon="6.07743">
        <ele>1261</ele>
        <time>2022-03-03T11:19:15.000Z</time>
      </trkpt>
      <trkpt lat="44.15425" lon="6.07743">
        <ele>1261</ele>
        <time>2022-03-03T11:19:16.000Z</time>
      </trkpt>
      <trkpt lat="44.15425" lon="6.07743">
        <ele>1261</ele>
        <time>2022-03-03T11:19:17.000Z</time>
      </trkpt>
      <trkpt lat="44.15425" lon="6.07743">
        <ele>1261</ele>
        <time>2022-03-03T11:19:18.000Z</time>
      </trkpt>
      <trkpt lat="44.15425" lon="6.07743">
        <ele>1261</ele>
        <time>2022-03-03T11:19:19.000Z</time>
      </trkpt>
      <trkpt lat="44.15425" lon="6.07743">
        <ele>1261</ele>
        <time>2022-03-03T11:19:20.000Z</time>
      </trkpt>
      <trkpt lat="44.15425" lon="6.07743">
        <ele>1261</ele>
        <time>2022-03-03T11:19:21.000Z</time>
      </trkpt>
      <trkpt lat="44.15426" lon="6.07743">
        <ele>1261</ele>
        <time>2022-03-03T11:19:22.000Z</time>
      </trkpt>
      <trkpt lat="44.15426" lon="6.07743">
        <ele>1261</ele>
        <time>2022-03-03T11:19:23.000Z</time>
      </trkpt>
      <trkpt lat="44.15426" lon="6.07743">
        <ele>1262</ele>
        <time>2022-03-03T11:19:24.000Z</time>
      </trkpt>
      <trkpt lat="44.15426" lon="6.07743">
        <ele>1262</ele>
        <time>2022-03-03T11:19:25.000Z</time>
      </trkpt>
      <trkpt lat="44.15426" lon="6.07743">
        <ele>1262</ele>
        <time>2022-03-03T11:19:26.000Z</time>
      </trkpt>
      <trkpt lat="44.15426" lon="6.07743">
        <ele>1262</ele>
        <time>2022-03-03T11:19:27.000Z</time>
      </trkpt>
      <trkpt lat="44.15426" lon="6.07743">
        <ele>1262</ele>
        <time>2022-03-03T11:19:28.000Z</time>
      </trkpt>
      <trkpt lat="44.15426" lon="6.07743">
        <ele>1262</ele>
        <time>2022-03-03T11:19:29.000Z</time>
      </trkpt>
      <trkpt lat="44.15426" lon="6.07743">
        <ele>1262</ele>
        <time>2022-03-03T11:19:30.000Z</time>
      </trkpt>
      <trkpt lat="44.15426" lon="6.07743">
        <ele>1262</ele>
        <time>2022-03-03T11:19:31.000Z</time>
      </trkpt>
      <trkpt lat="44.15426" lon="6.07743">
        <ele>1262</ele>
        <time>2022-03-03T11:19:32.000Z</time>
      </trkpt>
      <trkpt lat="44.15426" lon="6.07743">
        <ele>1262</ele>
        <time>2022-03-03T11:19:33.000Z</time>
      </trkpt>
      <trkpt lat="44.15426" lon="6.07743">
        <ele>1262</ele>
        <time>2022-03-03T11:19:34.000Z</time>
      </trkpt>
      <trkpt lat="44.15426" lon="6.07743">
        <ele>1262</ele>
        <time>2022-03-03T11:19:35.000Z</time>
      </trkpt>
      <trkpt lat="44.15426" lon="6.07743">
        <ele>1262</ele>
        <time>2022-03-03T11:19:36.000Z</time>
      </trkpt>
      <trkpt lat="44.15426" lon="6.07743">
        <ele>1262</ele>
        <time>2022-03-03T11:19:37.000Z</time>
      </trkpt>
      <trkpt lat="44.15426" lon="6.07743">
        <ele>1262</ele>
        <time>2022-03-03T11:19:38.000Z</time>
      </trkpt>
      <trkpt lat="44.15426" lon="6.07743">
        <ele>1262</ele>
        <time>2022-03-03T11:19:39.000Z</time>
      </trkpt>
      <trkpt lat="44.15426" lon="6.07743">
        <ele>1262</ele>
        <time>2022-03-03T11:19:40.000Z</time>
      </trkpt>
      <trkpt lat="44.15426" lon="6.07743">
        <ele>1262</ele>
        <time>2022-03-03T11:19:41.000Z</time>
      </trkpt>
      <trkpt lat="44.15426" lon="6.07743">
        <ele>1262</ele>
        <time>2022-03-03T11:19:42.000Z</time>
      </trkpt>
      <trkpt lat="44.15426" lon="6.07742">
        <ele>1262</ele>
        <time>2022-03-03T11:19:43.000Z</time>
      </trkpt>
      <trkpt lat="44.15426" lon="6.07742">
        <ele>1262</ele>
        <time>2022-03-03T11:19:44.000Z</time>
      </trkpt>
      <trkpt lat="44.15425" lon="6.07743">
        <ele>1262</ele>
        <time>2022-03-03T11:19:45.000Z</time>
      </trkpt>
      <trkpt lat="44.15425" lon="6.07743">
        <ele>1262</ele>
        <time>2022-03-03T11:19:46.000Z</time>
      </trkpt>
      <trkpt lat="44.15424" lon="6.07743">
        <ele>1262</ele>
        <time>2022-03-03T11:19:47.000Z</time>
      </trkpt>
      <trkpt lat="44.15423" lon="6.07743">
        <ele>1262</ele>
        <time>2022-03-03T11:19:48.000Z</time>
      </trkpt>
      <trkpt lat="44.15422" lon="6.07743">
        <ele>1262</ele>
        <time>2022-03-03T11:19:49.000Z</time>
      </trkpt>
      <trkpt lat="44.15421" lon="6.07743">
        <ele>1262</ele>
        <time>2022-03-03T11:19:50.000Z</time>
      </trkpt>
      <trkpt lat="44.1542" lon="6.07744">
        <ele>1262</ele>
        <time>2022-03-03T11:19:51.000Z</time>
      </trkpt>
      <trkpt lat="44.1542" lon="6.07745">
        <ele>1262</ele>
        <time>2022-03-03T11:19:52.000Z</time>
      </trkpt>
      <trkpt lat="44.15419" lon="6.07746">
        <ele>1262</ele>
        <time>2022-03-03T11:19:53.000Z</time>
      </trkpt>
      <trkpt lat="44.15419" lon="6.07746">
        <ele>1262</ele>
        <time>2022-03-03T11:19:54.000Z</time>
      </trkpt>
      <trkpt lat="44.15418" lon="6.07747">
        <ele>1262</ele>
        <time>2022-03-03T11:19:55.000Z</time>
      </trkpt>
      <trkpt lat="44.15418" lon="6.07747">
        <ele>1262</ele>
        <time>2022-03-03T11:19:56.000Z</time>
      </trkpt>
      <trkpt lat="44.15418" lon="6.07748">
        <ele>1262</ele>
        <time>2022-03-03T11:19:57.000Z</time>
      </trkpt>
      <trkpt lat="44.15418" lon="6.07748">
        <ele>1262</ele>
        <time>2022-03-03T11:19:58.000Z</time>
      </trkpt>
      <trkpt lat="44.15418" lon="6.07748">
        <ele>1262</ele>
        <time>2022-03-03T11:19:59.000Z</time>
      </trkpt>
      <trkpt lat="44.15418" lon="6.07748">
        <ele>1262</ele>
        <time>2022-03-03T11:20:00.000Z</time>
      </trkpt>
      <trkpt lat="44.15418" lon="6.07748">
        <ele>1261</ele>
        <time>2022-03-03T11:20:01.000Z</time>
      </trkpt>
      <trkpt lat="44.15418" lon="6.07749">
        <ele>1261</ele>
        <time>2022-03-03T11:20:02.000Z</time>
      </trkpt>
      <trkpt lat="44.15418" lon="6.07749">
        <ele>1261</ele>
        <time>2022-03-03T11:20:03.000Z</time>
      </trkpt>
      <trkpt lat="44.15418" lon="6.0775">
        <ele>1261</ele>
        <time>2022-03-03T11:20:04.000Z</time>
      </trkpt>
      <trkpt lat="44.15417" lon="6.07751">
        <ele>1261</ele>
        <time>2022-03-03T11:20:05.000Z</time>
      </trkpt>
      <trkpt lat="44.15417" lon="6.07752">
        <ele>1261</ele>
        <time>2022-03-03T11:20:06.000Z</time>
      </trkpt>
      <trkpt lat="44.15417" lon="6.07752">
        <ele>1261</ele>
        <time>2022-03-03T11:20:07.000Z</time>
      </trkpt>
      <trkpt lat="44.15417" lon="6.07752">
        <ele>1261</ele>
        <time>2022-03-03T11:20:08.000Z</time>
      </trkpt>
      <trkpt lat="44.15417" lon="6.07753">
        <ele>1261</ele>
        <time>2022-03-03T11:20:09.000Z</time>
      </trkpt>
      <trkpt lat="44.15417" lon="6.07753">
        <ele>1261</ele>
        <time>2022-03-03T11:20:10.000Z</time>
      </trkpt>
      <trkpt lat="44.15417" lon="6.07753">
        <ele>1261</ele>
        <time>2022-03-03T11:20:11.000Z</time>
      </trkpt>
      <trkpt lat="44.15417" lon="6.07753">
        <ele>1261</ele>
        <time>2022-03-03T11:20:12.000Z</time>
      </trkpt>
      <trkpt lat="44.15417" lon="6.07753">
        <ele>1261</ele>
        <time>2022-03-03T11:20:13.000Z</time>
      </trkpt>
      <trkpt lat="44.15417" lon="6.07753">
        <ele>1261</ele>
        <time>2022-03-03T11:20:14.000Z</time>
      </trkpt>
      <trkpt lat="44.15418" lon="6.07753">
        <ele>1261</ele>
        <time>2022-03-03T11:20:15.000Z</time>
      </trkpt>
      <trkpt lat="44.15418" lon="6.07753">
        <ele>1261</ele>
        <time>2022-03-03T11:20:16.000Z</time>
      </trkpt>
      <trkpt lat="44.15418" lon="6.07754">
        <ele>1261</ele>
        <time>2022-03-03T11:20:17.000Z</time>
      </trkpt>
      <trkpt lat="44.15418" lon="6.07754">
        <ele>1261</ele>
        <time>2022-03-03T11:20:18.000Z</time>
      </trkpt>
      <trkpt lat="44.15418" lon="6.07754">
        <ele>1261</ele>
        <time>2022-03-03T11:20:19.000Z</time>
      </trkpt>
      <trkpt lat="44.15418" lon="6.07754">
        <ele>1261</ele>
        <time>2022-03-03T11:20:20.000Z</time>
      </trkpt>
      <trkpt lat="44.15418" lon="6.07755">
        <ele>1261</ele>
        <time>2022-03-03T11:20:21.000Z</time>
      </trkpt>
      <trkpt lat="44.15418" lon="6.07755">
        <ele>1261</ele>
        <time>2022-03-03T11:20:22.000Z</time>
      </trkpt>
      <trkpt lat="44.15418" lon="6.07755">
        <ele>1261</ele>
        <time>2022-03-03T11:20:23.000Z</time>
      </trkpt>
      <trkpt lat="44.15418" lon="6.07755">
        <ele>1261</ele>
        <time>2022-03-03T11:20:24.000Z</time>
      </trkpt>
      <trkpt lat="44.15418" lon="6.07755">
        <ele>1261</ele>
        <time>2022-03-03T11:20:25.000Z</time>
      </trkpt>
      <trkpt lat="44.15418" lon="6.07755">
        <ele>1261</ele>
        <time>2022-03-03T11:20:26.000Z</time>
      </trkpt>
      <trkpt lat="44.15418" lon="6.07755">
        <ele>1261</ele>
        <time>2022-03-03T11:20:27.000Z</time>
      </trkpt>
      <trkpt lat="44.15418" lon="6.07756">
        <ele>1261</ele>
        <time>2022-03-03T11:20:28.000Z</time>
      </trkpt>
      <trkpt lat="44.15418" lon="6.07756">
        <ele>1261</ele>
        <time>2022-03-03T11:20:29.000Z</time>
      </trkpt>
      <trkpt lat="44.15418" lon="6.07756">
        <ele>1261</ele>
        <time>2022-03-03T11:20:30.000Z</time>
      </trkpt>
      <trkpt lat="44.15418" lon="6.07756">
        <ele>1261</ele>
        <time>2022-03-03T11:20:31.000Z</time>
      </trkpt>
      <trkpt lat="44.15418" lon="6.07756">
        <ele>1261</ele>
        <time>2022-03-03T11:20:32.000Z</time>
      </trkpt>
      <trkpt lat="44.15418" lon="6.07756">
        <ele>1261</ele>
        <time>2022-03-03T11:20:33.000Z</time>
      </trkpt>
      <trkpt lat="44.15418" lon="6.07756">
        <ele>1261</ele>
        <time>2022-03-03T11:20:34.000Z</time>
      </trkpt>
      <trkpt lat="44.15418" lon="6.07756">
        <ele>1261</ele>
        <time>2022-03-03T11:20:35.000Z</time>
      </trkpt>
      <trkpt lat="44.15418" lon="6.07756">
        <ele>1261</ele>
        <time>2022-03-03T11:20:36.000Z</time>
      </trkpt>
      <trkpt lat="44.15418" lon="6.07756">
        <ele>1261</ele>
        <time>2022-03-03T11:20:37.000Z</time>
      </trkpt>
      <trkpt lat="44.15418" lon="6.07756">
        <ele>1261</ele>
        <time>2022-03-03T11:20:38.000Z</time>
      </trkpt>
      <trkpt lat="44.15418" lon="6.07756">
        <ele>1261</ele>
        <time>2022-03-03T11:20:39.000Z</time>
      </trkpt>
      <trkpt lat="44.15418" lon="6.07756">
        <ele>1261</ele>
        <time>2022-03-03T11:20:40.000Z</time>
      </trkpt>
      <trkpt lat="44.15418" lon="6.07756">
        <ele>1261</ele>
        <time>2022-03-03T11:20:41.000Z</time>
      </trkpt>
      <trkpt lat="44.15418" lon="6.07756">
        <ele>1261</ele>
        <time>2022-03-03T11:20:42.000Z</time>
      </trkpt>
      <trkpt lat="44.15418" lon="6.07756">
        <ele>1261</ele>
        <time>2022-03-03T11:20:43.000Z</time>
      </trkpt>
      <trkpt lat="44.15418" lon="6.07756">
        <ele>1261</ele>
        <time>2022-03-03T11:20:44.000Z</time>
      </trkpt>
      <trkpt lat="44.15418" lon="6.07756">
        <ele>1261</ele>
        <time>2022-03-03T11:20:45.000Z</time>
      </trkpt>
      <trkpt lat="44.15418" lon="6.07756">
        <ele>1261</ele>
        <time>2022-03-03T11:20:46.000Z</time>
      </trkpt>
      <trkpt lat="44.15418" lon="6.07756">
        <ele>1261</ele>
        <time>2022-03-03T11:20:47.000Z</time>
      </trkpt>
      <trkpt lat="44.15418" lon="6.07756">
        <ele>1261</ele>
        <time>2022-03-03T11:20:48.000Z</time>
      </trkpt>
      <trkpt lat="44.15418" lon="6.07756">
        <ele>1261</ele>
        <time>2022-03-03T11:20:49.000Z</time>
      </trkpt>
      <trkpt lat="44.15418" lon="6.07756">
        <ele>1261</ele>
        <time>2022-03-03T11:20:50.000Z</time>
      </trkpt>
      <trkpt lat="44.15418" lon="6.07756">
        <ele>1261</ele>
        <time>2022-03-03T11:20:51.000Z</time>
      </trkpt>
      <trkpt lat="44.15418" lon="6.07756">
        <ele>1261</ele>
        <time>2022-03-03T11:20:52.000Z</time>
      </trkpt>
      <trkpt lat="44.15418" lon="6.07756">
        <ele>1261</ele>
        <time>2022-03-03T11:20:53.000Z</time>
      </trkpt>
      <trkpt lat="44.15418" lon="6.07756">
        <ele>1260</ele>
        <time>2022-03-03T11:20:54.000Z</time>
      </trkpt>
      <trkpt lat="44.15418" lon="6.07756">
        <ele>1260</ele>
        <time>2022-03-03T11:20:55.000Z</time>
      </trkpt>
      <trkpt lat="44.15418" lon="6.07756">
        <ele>1261</ele>
        <time>2022-03-03T11:20:56.000Z</time>
      </trkpt>
      <trkpt lat="44.15418" lon="6.07756">
        <ele>1261</ele>
        <time>2022-03-03T11:20:57.000Z</time>
      </trkpt>
      <trkpt lat="44.15418" lon="6.07756">
        <ele>1261</ele>
        <time>2022-03-03T11:20:58.000Z</time>
      </trkpt>
      <trkpt lat="44.15418" lon="6.07756">
        <ele>1261</ele>
        <time>2022-03-03T11:20:59.000Z</time>
      </trkpt>
      <trkpt lat="44.15418" lon="6.07756">
        <ele>1260</ele>
        <time>2022-03-03T11:21:00.000Z</time>
      </trkpt>
      <trkpt lat="44.15418" lon="6.07756">
        <ele>1260</ele>
        <time>2022-03-03T11:21:01.000Z</time>
      </trkpt>
      <trkpt lat="44.15418" lon="6.07756">
        <ele>1260</ele>
        <time>2022-03-03T11:21:02.000Z</time>
      </trkpt>
      <trkpt lat="44.15418" lon="6.07756">
        <ele>1260</ele>
        <time>2022-03-03T11:21:03.000Z</time>
      </trkpt>
      <trkpt lat="44.15418" lon="6.07756">
        <ele>1260</ele>
        <time>2022-03-03T11:21:04.000Z</time>
      </trkpt>
      <trkpt lat="44.15418" lon="6.07756">
        <ele>1260</ele>
        <time>2022-03-03T11:21:05.000Z</time>
      </trkpt>
      <trkpt lat="44.15418" lon="6.07756">
        <ele>1260</ele>
        <time>2022-03-03T11:21:06.000Z</time>
      </trkpt>
      <trkpt lat="44.15418" lon="6.07756">
        <ele>1260</ele>
        <time>2022-03-03T11:21:07.000Z</time>
      </trkpt>
      <trkpt lat="44.15418" lon="6.07756">
        <ele>1260</ele>
        <time>2022-03-03T11:21:08.000Z</time>
      </trkpt>
      <trkpt lat="44.15418" lon="6.07756">
        <ele>1260</ele>
        <time>2022-03-03T11:21:09.000Z</time>
      </trkpt>
      <trkpt lat="44.15418" lon="6.07756">
        <ele>1260</ele>
        <time>2022-03-03T11:21:10.000Z</time>
      </trkpt>
      <trkpt lat="44.15418" lon="6.07756">
        <ele>1260</ele>
        <time>2022-03-03T11:21:11.000Z</time>
      </trkpt>
      <trkpt lat="44.15418" lon="6.07756">
        <ele>1260</ele>
        <time>2022-03-03T11:21:12.000Z</time>
      </trkpt>
      <trkpt lat="44.15418" lon="6.07756">
        <ele>1261</ele>
        <time>2022-03-03T11:21:13.000Z</time>
      </trkpt>
      <trkpt lat="44.15418" lon="6.07756">
        <ele>1261</ele>
        <time>2022-03-03T11:21:14.000Z</time>
      </trkpt>
      <trkpt lat="44.15418" lon="6.07756">
        <ele>1261</ele>
        <time>2022-03-03T11:21:15.000Z</time>
      </trkpt>
      <trkpt lat="44.15418" lon="6.07756">
        <ele>1261</ele>
        <time>2022-03-03T11:21:16.000Z</time>
      </trkpt>
      <trkpt lat="44.15418" lon="6.07756">
        <ele>1261</ele>
        <time>2022-03-03T11:21:17.000Z</time>
      </trkpt>
      <trkpt lat="44.15418" lon="6.07756">
        <ele>1261</ele>
        <time>2022-03-03T11:21:18.000Z</time>
      </trkpt>
      <trkpt lat="44.15418" lon="6.07756">
        <ele>1261</ele>
        <time>2022-03-03T11:21:19.000Z</time>
      </trkpt>
      <trkpt lat="44.15418" lon="6.07756">
        <ele>1261</ele>
        <time>2022-03-03T11:21:20.000Z</time>
      </trkpt>
      <trkpt lat="44.15418" lon="6.07756">
        <ele>1261</ele>
        <time>2022-03-03T11:21:21.000Z</time>
      </trkpt>
      <trkpt lat="44.15418" lon="6.07756">
        <ele>1261</ele>
        <time>2022-03-03T11:21:22.000Z</time>
      </trkpt>
      <trkpt lat="44.15418" lon="6.07756">
        <ele>1261</ele>
        <time>2022-03-03T11:21:23.000Z</time>
      </trkpt>
      <trkpt lat="44.15418" lon="6.07756">
        <ele>1261</ele>
        <time>2022-03-03T11:21:24.000Z</time>
      </trkpt>
      <trkpt lat="44.15418" lon="6.07756">
        <ele>1261</ele>
        <time>2022-03-03T11:21:25.000Z</time>
      </trkpt>
      <trkpt lat="44.15418" lon="6.07756">
        <ele>1261</ele>
        <time>2022-03-03T11:21:26.000Z</time>
      </trkpt>
      <trkpt lat="44.15418" lon="6.07756">
        <ele>1261</ele>
        <time>2022-03-03T11:21:27.000Z</time>
      </trkpt>
      <trkpt lat="44.15418" lon="6.07756">
        <ele>1261</ele>
        <time>2022-03-03T11:21:28.000Z</time>
      </trkpt>
      <trkpt lat="44.15418" lon="6.07756">
        <ele>1261</ele>
        <time>2022-03-03T11:21:29.000Z</time>
      </trkpt>
      <trkpt lat="44.15418" lon="6.07756">
        <ele>1261</ele>
        <time>2022-03-03T11:21:30.000Z</time>
      </trkpt>
      <trkpt lat="44.15418" lon="6.07756">
        <ele>1261</ele>
        <time>2022-03-03T11:21:31.000Z</time>
      </trkpt>
      <trkpt lat="44.15418" lon="6.07756">
        <ele>1261</ele>
        <time>2022-03-03T11:21:32.000Z</time>
      </trkpt>
      <trkpt lat="44.15418" lon="6.07756">
        <ele>1261</ele>
        <time>2022-03-03T11:21:33.000Z</time>
      </trkpt>
      <trkpt lat="44.15418" lon="6.07756">
        <ele>1261</ele>
        <time>2022-03-03T11:21:34.000Z</time>
      </trkpt>
      <trkpt lat="44.15418" lon="6.07756">
        <ele>1261</ele>
        <time>2022-03-03T11:21:35.000Z</time>
      </trkpt>
      <trkpt lat="44.15418" lon="6.07756">
        <ele>1261</ele>
        <time>2022-03-03T11:21:36.000Z</time>
      </trkpt>
      <trkpt lat="44.15418" lon="6.07756">
        <ele>1261</ele>
        <time>2022-03-03T11:21:37.000Z</time>
      </trkpt>
      <trkpt lat="44.15418" lon="6.07756">
        <ele>1261</ele>
        <time>2022-03-03T11:21:38.000Z</time>
      </trkpt>
      <trkpt lat="44.15418" lon="6.07756">
        <ele>1261</ele>
        <time>2022-03-03T11:21:39.000Z</time>
      </trkpt>
      <trkpt lat="44.15418" lon="6.07756">
        <ele>1261</ele>
        <time>2022-03-03T11:21:40.000Z</time>
      </trkpt>
      <trkpt lat="44.15418" lon="6.07756">
        <ele>1261</ele>
        <time>2022-03-03T11:21:41.000Z</time>
      </trkpt>
      <trkpt lat="44.15418" lon="6.07756">
        <ele>1261</ele>
        <time>2022-03-03T11:21:42.000Z</time>
      </trkpt>
      <trkpt lat="44.15418" lon="6.07755">
        <ele>1261</ele>
        <time>2022-03-03T11:21:43.000Z</time>
      </trkpt>
      <trkpt lat="44.15418" lon="6.07755">
        <ele>1261</ele>
        <time>2022-03-03T11:21:44.000Z</time>
      </trkpt>
      <trkpt lat="44.15418" lon="6.07755">
        <ele>1261</ele>
        <time>2022-03-03T11:21:45.000Z</time>
      </trkpt>
      <trkpt lat="44.15418" lon="6.07755">
        <ele>1261</ele>
        <time>2022-03-03T11:21:46.000Z</time>
      </trkpt>
      <trkpt lat="44.15418" lon="6.07755">
        <ele>1261</ele>
        <time>2022-03-03T11:21:47.000Z</time>
      </trkpt>
      <trkpt lat="44.15418" lon="6.07755">
        <ele>1261</ele>
        <time>2022-03-03T11:21:48.000Z</time>
      </trkpt>
      <trkpt lat="44.15418" lon="6.07755">
        <ele>1261</ele>
        <time>2022-03-03T11:21:49.000Z</time>
      </trkpt>
      <trkpt lat="44.15418" lon="6.07755">
        <ele>1261</ele>
        <time>2022-03-03T11:21:50.000Z</time>
      </trkpt>
      <trkpt lat="44.15418" lon="6.07755">
        <ele>1261</ele>
        <time>2022-03-03T11:21:51.000Z</time>
      </trkpt>
      <trkpt lat="44.15418" lon="6.07755">
        <ele>1261</ele>
        <time>2022-03-03T11:21:52.000Z</time>
      </trkpt>
      <trkpt lat="44.15418" lon="6.07755">
        <ele>1261</ele>
        <time>2022-03-03T11:21:53.000Z</time>
      </trkpt>
      <trkpt lat="44.15418" lon="6.07755">
        <ele>1260</ele>
        <time>2022-03-03T11:21:54.000Z</time>
      </trkpt>
      <trkpt lat="44.15418" lon="6.07755">
        <ele>1260</ele>
        <time>2022-03-03T11:21:55.000Z</time>
      </trkpt>
      <trkpt lat="44.15418" lon="6.07755">
        <ele>1260</ele>
        <time>2022-03-03T11:21:56.000Z</time>
      </trkpt>
      <trkpt lat="44.15418" lon="6.07756">
        <ele>1260</ele>
        <time>2022-03-03T11:21:57.000Z</time>
      </trkpt>
      <trkpt lat="44.15418" lon="6.07757">
        <ele>1260</ele>
        <time>2022-03-03T11:21:58.000Z</time>
      </trkpt>
      <trkpt lat="44.15418" lon="6.07758">
        <ele>1260</ele>
        <time>2022-03-03T11:21:59.000Z</time>
      </trkpt>
      <trkpt lat="44.15419" lon="6.07759">
        <ele>1260</ele>
        <time>2022-03-03T11:22:00.000Z</time>
      </trkpt>
      <trkpt lat="44.15419" lon="6.0776">
        <ele>1260</ele>
        <time>2022-03-03T11:22:01.000Z</time>
      </trkpt>
      <trkpt lat="44.15418" lon="6.07762">
        <ele>1260</ele>
        <time>2022-03-03T11:22:02.000Z</time>
      </trkpt>
      <trkpt lat="44.15418" lon="6.07763">
        <ele>1260</ele>
        <time>2022-03-03T11:22:03.000Z</time>
      </trkpt>
      <trkpt lat="44.15418" lon="6.07764">
        <ele>1260</ele>
        <time>2022-03-03T11:22:04.000Z</time>
      </trkpt>
      <trkpt lat="44.15418" lon="6.07765">
        <ele>1261</ele>
        <time>2022-03-03T11:22:05.000Z</time>
      </trkpt>
      <trkpt lat="44.15419" lon="6.07766">
        <ele>1261</ele>
        <time>2022-03-03T11:22:06.000Z</time>
      </trkpt>
      <trkpt lat="44.15419" lon="6.07767">
        <ele>1261</ele>
        <time>2022-03-03T11:22:07.000Z</time>
      </trkpt>
      <trkpt lat="44.15419" lon="6.07769">
        <ele>1261</ele>
        <time>2022-03-03T11:22:08.000Z</time>
      </trkpt>
      <trkpt lat="44.15419" lon="6.0777">
        <ele>1261</ele>
        <time>2022-03-03T11:22:09.000Z</time>
      </trkpt>
      <trkpt lat="44.15419" lon="6.07772">
        <ele>1261</ele>
        <time>2022-03-03T11:22:10.000Z</time>
      </trkpt>
      <trkpt lat="44.15419" lon="6.07773">
        <ele>1261</ele>
        <time>2022-03-03T11:22:11.000Z</time>
      </trkpt>
      <trkpt lat="44.15419" lon="6.07774">
        <ele>1261</ele>
        <time>2022-03-03T11:22:12.000Z</time>
      </trkpt>
      <trkpt lat="44.15419" lon="6.07776">
        <ele>1261</ele>
        <time>2022-03-03T11:22:13.000Z</time>
      </trkpt>
      <trkpt lat="44.15419" lon="6.07777">
        <ele>1261</ele>
        <time>2022-03-03T11:22:14.000Z</time>
      </trkpt>
      <trkpt lat="44.15419" lon="6.07778">
        <ele>1261</ele>
        <time>2022-03-03T11:22:15.000Z</time>
      </trkpt>
      <trkpt lat="44.15419" lon="6.0778">
        <ele>1261</ele>
        <time>2022-03-03T11:22:16.000Z</time>
      </trkpt>
      <trkpt lat="44.15419" lon="6.07781">
        <ele>1261</ele>
        <time>2022-03-03T11:22:17.000Z</time>
      </trkpt>
      <trkpt lat="44.15419" lon="6.07782">
        <ele>1261</ele>
        <time>2022-03-03T11:22:18.000Z</time>
      </trkpt>
      <trkpt lat="44.15419" lon="6.07783">
        <ele>1261</ele>
        <time>2022-03-03T11:22:19.000Z</time>
      </trkpt>
      <trkpt lat="44.15419" lon="6.07785">
        <ele>1261</ele>
        <time>2022-03-03T11:22:20.000Z</time>
      </trkpt>
      <trkpt lat="44.15419" lon="6.07786">
        <ele>1261</ele>
        <time>2022-03-03T11:22:21.000Z</time>
      </trkpt>
      <trkpt lat="44.1542" lon="6.07788">
        <ele>1261</ele>
        <time>2022-03-03T11:22:22.000Z</time>
      </trkpt>
      <trkpt lat="44.1542" lon="6.07789">
        <ele>1261</ele>
        <time>2022-03-03T11:22:23.000Z</time>
      </trkpt>
      <trkpt lat="44.1542" lon="6.07791">
        <ele>1261</ele>
        <time>2022-03-03T11:22:24.000Z</time>
      </trkpt>
      <trkpt lat="44.1542" lon="6.07792">
        <ele>1261</ele>
        <time>2022-03-03T11:22:25.000Z</time>
      </trkpt>
      <trkpt lat="44.1542" lon="6.07793">
        <ele>1261</ele>
        <time>2022-03-03T11:22:26.000Z</time>
      </trkpt>
      <trkpt lat="44.1542" lon="6.07794">
        <ele>1261</ele>
        <time>2022-03-03T11:22:27.000Z</time>
      </trkpt>
      <trkpt lat="44.15421" lon="6.07795">
        <ele>1261</ele>
        <time>2022-03-03T11:22:28.000Z</time>
      </trkpt>
      <trkpt lat="44.15421" lon="6.07795">
        <ele>1261</ele>
        <time>2022-03-03T11:22:29.000Z</time>
      </trkpt>
      <trkpt lat="44.15421" lon="6.07795">
        <ele>1261</ele>
        <time>2022-03-03T11:22:30.000Z</time>
      </trkpt>
      <trkpt lat="44.15421" lon="6.07795">
        <ele>1261</ele>
        <time>2022-03-03T11:22:31.000Z</time>
      </trkpt>
      <trkpt lat="44.15421" lon="6.07795">
        <ele>1261</ele>
        <time>2022-03-03T11:22:32.000Z</time>
      </trkpt>
      <trkpt lat="44.15421" lon="6.07795">
        <ele>1261</ele>
        <time>2022-03-03T11:22:33.000Z</time>
      </trkpt>
      <trkpt lat="44.15421" lon="6.07795">
        <ele>1261</ele>
        <time>2022-03-03T11:22:34.000Z</time>
      </trkpt>
      <trkpt lat="44.15421" lon="6.07795">
        <ele>1261</ele>
        <time>2022-03-03T11:22:35.000Z</time>
      </trkpt>
      <trkpt lat="44.15421" lon="6.07795">
        <ele>1261</ele>
        <time>2022-03-03T11:22:36.000Z</time>
      </trkpt>
      <trkpt lat="44.15421" lon="6.07795">
        <ele>1261</ele>
        <time>2022-03-03T11:22:37.000Z</time>
      </trkpt>
      <trkpt lat="44.15421" lon="6.07795">
        <ele>1261</ele>
        <time>2022-03-03T11:22:38.000Z</time>
      </trkpt>
      <trkpt lat="44.15421" lon="6.07795">
        <ele>1262</ele>
        <time>2022-03-03T11:22:39.000Z</time>
      </trkpt>
      <trkpt lat="44.15422" lon="6.07796">
        <ele>1262</ele>
        <time>2022-03-03T11:22:40.000Z</time>
      </trkpt>
      <trkpt lat="44.15422" lon="6.07797">
        <ele>1262</ele>
        <time>2022-03-03T11:22:41.000Z</time>
      </trkpt>
      <trkpt lat="44.15423" lon="6.07797">
        <ele>1262</ele>
        <time>2022-03-03T11:22:42.000Z</time>
      </trkpt>
      <trkpt lat="44.15423" lon="6.07798">
        <ele>1262</ele>
        <time>2022-03-03T11:22:43.000Z</time>
      </trkpt>
      <trkpt lat="44.15424" lon="6.07798">
        <ele>1262</ele>
        <time>2022-03-03T11:22:44.000Z</time>
      </trkpt>
      <trkpt lat="44.15425" lon="6.07798">
        <ele>1262</ele>
        <time>2022-03-03T11:22:45.000Z</time>
      </trkpt>
      <trkpt lat="44.15425" lon="6.07798">
        <ele>1262</ele>
        <time>2022-03-03T11:22:46.000Z</time>
      </trkpt>
      <trkpt lat="44.15425" lon="6.07797">
        <ele>1263</ele>
        <time>2022-03-03T11:22:47.000Z</time>
      </trkpt>
      <trkpt lat="44.15426" lon="6.07797">
        <ele>1263</ele>
        <time>2022-03-03T11:22:48.000Z</time>
      </trkpt>
      <trkpt lat="44.15426" lon="6.07796">
        <ele>1263</ele>
        <time>2022-03-03T11:22:49.000Z</time>
      </trkpt>
      <trkpt lat="44.15426" lon="6.07794">
        <ele>1263</ele>
        <time>2022-03-03T11:22:50.000Z</time>
      </trkpt>
      <trkpt lat="44.15426" lon="6.07793">
        <ele>1263</ele>
        <time>2022-03-03T11:22:51.000Z</time>
      </trkpt>
      <trkpt lat="44.15426" lon="6.07792">
        <ele>1263</ele>
        <time>2022-03-03T11:22:52.000Z</time>
      </trkpt>
      <trkpt lat="44.15426" lon="6.07792">
        <ele>1263</ele>
        <time>2022-03-03T11:22:53.000Z</time>
      </trkpt>
      <trkpt lat="44.15426" lon="6.07792">
        <ele>1263</ele>
        <time>2022-03-03T11:22:54.000Z</time>
      </trkpt>
      <trkpt lat="44.15426" lon="6.07792">
        <ele>1263</ele>
        <time>2022-03-03T11:22:55.000Z</time>
      </trkpt>
      <trkpt lat="44.15426" lon="6.07791">
        <ele>1263</ele>
        <time>2022-03-03T11:22:56.000Z</time>
      </trkpt>
      <trkpt lat="44.15426" lon="6.07791">
        <ele>1263</ele>
        <time>2022-03-03T11:22:57.000Z</time>
      </trkpt>
      <trkpt lat="44.15426" lon="6.07791">
        <ele>1263</ele>
        <time>2022-03-03T11:22:58.000Z</time>
      </trkpt>
      <trkpt lat="44.15426" lon="6.07791">
        <ele>1263</ele>
        <time>2022-03-03T11:22:59.000Z</time>
      </trkpt>
      <trkpt lat="44.15426" lon="6.07791">
        <ele>1263</ele>
        <time>2022-03-03T11:23:00.000Z</time>
      </trkpt>
      <trkpt lat="44.15426" lon="6.07791">
        <ele>1263</ele>
        <time>2022-03-03T11:23:01.000Z</time>
      </trkpt>
      <trkpt lat="44.15426" lon="6.07791">
        <ele>1263</ele>
        <time>2022-03-03T11:23:02.000Z</time>
      </trkpt>
      <trkpt lat="44.15426" lon="6.07791">
        <ele>1263</ele>
        <time>2022-03-03T11:23:03.000Z</time>
      </trkpt>
      <trkpt lat="44.15426" lon="6.07791">
        <ele>1263</ele>
        <time>2022-03-03T11:23:04.000Z</time>
      </trkpt>
      <trkpt lat="44.15426" lon="6.07791">
        <ele>1263</ele>
        <time>2022-03-03T11:23:05.000Z</time>
      </trkpt>
      <trkpt lat="44.15426" lon="6.07791">
        <ele>1263</ele>
        <time>2022-03-03T11:23:06.000Z</time>
      </trkpt>
      <trkpt lat="44.15426" lon="6.07791">
        <ele>1263</ele>
        <time>2022-03-03T11:23:07.000Z</time>
      </trkpt>
      <trkpt lat="44.15426" lon="6.07791">
        <ele>1263</ele>
        <time>2022-03-03T11:23:08.000Z</time>
      </trkpt>
      <trkpt lat="44.15426" lon="6.07791">
        <ele>1263</ele>
        <time>2022-03-03T11:23:09.000Z</time>
      </trkpt>
      <trkpt lat="44.15426" lon="6.07791">
        <ele>1263</ele>
        <time>2022-03-03T11:23:10.000Z</time>
      </trkpt>
      <trkpt lat="44.15426" lon="6.07791">
        <ele>1263</ele>
        <time>2022-03-03T11:23:11.000Z</time>
      </trkpt>
      <trkpt lat="44.15426" lon="6.07791">
        <ele>1263</ele>
        <time>2022-03-03T11:23:12.000Z</time>
      </trkpt>
      <trkpt lat="44.15426" lon="6.07791">
        <ele>1263</ele>
        <time>2022-03-03T11:23:13.000Z</time>
      </trkpt>
      <trkpt lat="44.15426" lon="6.07791">
        <ele>1263</ele>
        <time>2022-03-03T11:23:14.000Z</time>
      </trkpt>
      <trkpt lat="44.15426" lon="6.07791">
        <ele>1263</ele>
        <time>2022-03-03T11:23:15.000Z</time>
      </trkpt>
      <trkpt lat="44.15426" lon="6.07791">
        <ele>1263</ele>
        <time>2022-03-03T11:23:16.000Z</time>
      </trkpt>
      <trkpt lat="44.15426" lon="6.07791">
        <ele>1263</ele>
        <time>2022-03-03T11:23:17.000Z</time>
      </trkpt>
      <trkpt lat="44.15426" lon="6.07791">
        <ele>1263</ele>
        <time>2022-03-03T11:23:18.000Z</time>
      </trkpt>
      <trkpt lat="44.15426" lon="6.07791">
        <ele>1263</ele>
        <time>2022-03-03T11:23:19.000Z</time>
      </trkpt>
      <trkpt lat="44.15426" lon="6.07791">
        <ele>1263</ele>
        <time>2022-03-03T11:23:20.000Z</time>
      </trkpt>
      <trkpt lat="44.15426" lon="6.07791">
        <ele>1263</ele>
        <time>2022-03-03T11:23:21.000Z</time>
      </trkpt>
      <trkpt lat="44.15427" lon="6.07791">
        <ele>1263</ele>
        <time>2022-03-03T11:23:22.000Z</time>
      </trkpt>
      <trkpt lat="44.15427" lon="6.07791">
        <ele>1262</ele>
        <time>2022-03-03T11:23:23.000Z</time>
      </trkpt>
      <trkpt lat="44.15427" lon="6.07792">
        <ele>1262</ele>
        <time>2022-03-03T11:23:24.000Z</time>
      </trkpt>
      <trkpt lat="44.15427" lon="6.07792">
        <ele>1262</ele>
        <time>2022-03-03T11:23:25.000Z</time>
      </trkpt>
      <trkpt lat="44.15428" lon="6.07793">
        <ele>1262</ele>
        <time>2022-03-03T11:23:26.000Z</time>
      </trkpt>
      <trkpt lat="44.15427" lon="6.07794">
        <ele>1262</ele>
        <time>2022-03-03T11:23:27.000Z</time>
      </trkpt>
      <trkpt lat="44.15427" lon="6.07795">
        <ele>1263</ele>
        <time>2022-03-03T11:23:28.000Z</time>
      </trkpt>
      <trkpt lat="44.15427" lon="6.07795">
        <ele>1263</ele>
        <time>2022-03-03T11:23:29.000Z</time>
      </trkpt>
      <trkpt lat="44.15427" lon="6.07795">
        <ele>1263</ele>
        <time>2022-03-03T11:23:30.000Z</time>
      </trkpt>
      <trkpt lat="44.15427" lon="6.07795">
        <ele>1263</ele>
        <time>2022-03-03T11:23:31.000Z</time>
      </trkpt>
      <trkpt lat="44.15427" lon="6.07795">
        <ele>1263</ele>
        <time>2022-03-03T11:23:32.000Z</time>
      </trkpt>
      <trkpt lat="44.15427" lon="6.07795">
        <ele>1263</ele>
        <time>2022-03-03T11:23:33.000Z</time>
      </trkpt>
      <trkpt lat="44.15427" lon="6.07795">
        <ele>1263</ele>
        <time>2022-03-03T11:23:34.000Z</time>
      </trkpt>
      <trkpt lat="44.15427" lon="6.07795">
        <ele>1263</ele>
        <time>2022-03-03T11:23:35.000Z</time>
      </trkpt>
      <trkpt lat="44.15427" lon="6.07795">
        <ele>1263</ele>
        <time>2022-03-03T11:23:36.000Z</time>
      </trkpt>
      <trkpt lat="44.15427" lon="6.07795">
        <ele>1263</ele>
        <time>2022-03-03T11:23:37.000Z</time>
      </trkpt>
      <trkpt lat="44.15427" lon="6.07795">
        <ele>1263</ele>
        <time>2022-03-03T11:23:38.000Z</time>
      </trkpt>
      <trkpt lat="44.15427" lon="6.07795">
        <ele>1263</ele>
        <time>2022-03-03T11:23:39.000Z</time>
      </trkpt>
      <trkpt lat="44.15427" lon="6.07795">
        <ele>1263</ele>
        <time>2022-03-03T11:23:40.000Z</time>
      </trkpt>
      <trkpt lat="44.15427" lon="6.07795">
        <ele>1263</ele>
        <time>2022-03-03T11:23:41.000Z</time>
      </trkpt>
      <trkpt lat="44.15427" lon="6.07795">
        <ele>1263</ele>
        <time>2022-03-03T11:23:42.000Z</time>
      </trkpt>
      <trkpt lat="44.15427" lon="6.07795">
        <ele>1263</ele>
        <time>2022-03-03T11:23:43.000Z</time>
      </trkpt>
      <trkpt lat="44.15427" lon="6.07795">
        <ele>1263</ele>
        <time>2022-03-03T11:23:44.000Z</time>
      </trkpt>
      <trkpt lat="44.15427" lon="6.07795">
        <ele>1262</ele>
        <time>2022-03-03T11:23:45.000Z</time>
      </trkpt>
      <trkpt lat="44.15427" lon="6.07795">
        <ele>1262</ele>
        <time>2022-03-03T11:23:46.000Z</time>
      </trkpt>
      <trkpt lat="44.15427" lon="6.07795">
        <ele>1262</ele>
        <time>2022-03-03T11:23:47.000Z</time>
      </trkpt>
      <trkpt lat="44.15427" lon="6.07795">
        <ele>1262</ele>
        <time>2022-03-03T11:23:48.000Z</time>
      </trkpt>
      <trkpt lat="44.15427" lon="6.07795">
        <ele>1262</ele>
        <time>2022-03-03T11:23:49.000Z</time>
      </trkpt>
      <trkpt lat="44.15427" lon="6.07795">
        <ele>1262</ele>
        <time>2022-03-03T11:23:50.000Z</time>
      </trkpt>
      <trkpt lat="44.15427" lon="6.07795">
        <ele>1262</ele>
        <time>2022-03-03T11:23:51.000Z</time>
      </trkpt>
      <trkpt lat="44.15427" lon="6.07796">
        <ele>1262</ele>
        <time>2022-03-03T11:23:52.000Z</time>
      </trkpt>
      <trkpt lat="44.15427" lon="6.07797">
        <ele>1262</ele>
        <time>2022-03-03T11:23:53.000Z</time>
      </trkpt>
      <trkpt lat="44.15427" lon="6.07797">
        <ele>1262</ele>
        <time>2022-03-03T11:23:54.000Z</time>
      </trkpt>
      <trkpt lat="44.15427" lon="6.07797">
        <ele>1262</ele>
        <time>2022-03-03T11:23:55.000Z</time>
      </trkpt>
      <trkpt lat="44.15427" lon="6.07797">
        <ele>1262</ele>
        <time>2022-03-03T11:23:56.000Z</time>
      </trkpt>
      <trkpt lat="44.15427" lon="6.07797">
        <ele>1262</ele>
        <time>2022-03-03T11:23:57.000Z</time>
      </trkpt>
      <trkpt lat="44.15427" lon="6.07797">
        <ele>1262</ele>
        <time>2022-03-03T11:23:58.000Z</time>
      </trkpt>
      <trkpt lat="44.15427" lon="6.07797">
        <ele>1262</ele>
        <time>2022-03-03T11:23:59.000Z</time>
      </trkpt>
      <trkpt lat="44.15427" lon="6.07797">
        <ele>1262</ele>
        <time>2022-03-03T11:24:00.000Z</time>
      </trkpt>
      <trkpt lat="44.15427" lon="6.07797">
        <ele>1262</ele>
        <time>2022-03-03T11:24:01.000Z</time>
      </trkpt>
      <trkpt lat="44.15427" lon="6.07797">
        <ele>1262</ele>
        <time>2022-03-03T11:24:02.000Z</time>
      </trkpt>
      <trkpt lat="44.15427" lon="6.07797">
        <ele>1262</ele>
        <time>2022-03-03T11:24:03.000Z</time>
      </trkpt>
      <trkpt lat="44.15427" lon="6.07797">
        <ele>1262</ele>
        <time>2022-03-03T11:24:04.000Z</time>
      </trkpt>
      <trkpt lat="44.15427" lon="6.07797">
        <ele>1262</ele>
        <time>2022-03-03T11:24:05.000Z</time>
      </trkpt>
      <trkpt lat="44.15427" lon="6.07797">
        <ele>1262</ele>
        <time>2022-03-03T11:24:06.000Z</time>
      </trkpt>
      <trkpt lat="44.15427" lon="6.07797">
        <ele>1262</ele>
        <time>2022-03-03T11:24:07.000Z</time>
      </trkpt>
      <trkpt lat="44.15427" lon="6.07797">
        <ele>1262</ele>
        <time>2022-03-03T11:24:08.000Z</time>
      </trkpt>
      <trkpt lat="44.15427" lon="6.07797">
        <ele>1262</ele>
        <time>2022-03-03T11:24:09.000Z</time>
      </trkpt>
      <trkpt lat="44.15427" lon="6.07797">
        <ele>1262</ele>
        <time>2022-03-03T11:24:10.000Z</time>
      </trkpt>
      <trkpt lat="44.15427" lon="6.07797">
        <ele>1262</ele>
        <time>2022-03-03T11:24:11.000Z</time>
      </trkpt>
      <trkpt lat="44.15427" lon="6.07797">
        <ele>1262</ele>
        <time>2022-03-03T11:24:12.000Z</time>
      </trkpt>
      <trkpt lat="44.15427" lon="6.07797">
        <ele>1262</ele>
        <time>2022-03-03T11:24:13.000Z</time>
      </trkpt>
      <trkpt lat="44.15427" lon="6.07797">
        <ele>1262</ele>
        <time>2022-03-03T11:24:14.000Z</time>
      </trkpt>
      <trkpt lat="44.15427" lon="6.07797">
        <ele>1262</ele>
        <time>2022-03-03T11:24:15.000Z</time>
      </trkpt>
      <trkpt lat="44.15427" lon="6.07797">
        <ele>1262</ele>
        <time>2022-03-03T11:24:16.000Z</time>
      </trkpt>
      <trkpt lat="44.15427" lon="6.07797">
        <ele>1262</ele>
        <time>2022-03-03T11:24:17.000Z</time>
      </trkpt>
      <trkpt lat="44.15427" lon="6.07797">
        <ele>1262</ele>
        <time>2022-03-03T11:24:18.000Z</time>
      </trkpt>
      <trkpt lat="44.15427" lon="6.07797">
        <ele>1262</ele>
        <time>2022-03-03T11:24:19.000Z</time>
      </trkpt>
      <trkpt lat="44.15427" lon="6.07797">
        <ele>1262</ele>
        <time>2022-03-03T11:24:20.000Z</time>
      </trkpt>
      <trkpt lat="44.15427" lon="6.07797">
        <ele>1262</ele>
        <time>2022-03-03T11:24:21.000Z</time>
      </trkpt>
      <trkpt lat="44.15427" lon="6.07797">
        <ele>1262</ele>
        <time>2022-03-03T11:24:22.000Z</time>
      </trkpt>
      <trkpt lat="44.15427" lon="6.07797">
        <ele>1262</ele>
        <time>2022-03-03T11:24:23.000Z</time>
      </trkpt>
      <trkpt lat="44.15427" lon="6.07797">
        <ele>1262</ele>
        <time>2022-03-03T11:24:24.000Z</time>
      </trkpt>
      <trkpt lat="44.15427" lon="6.07797">
        <ele>1262</ele>
        <time>2022-03-03T11:24:25.000Z</time>
      </trkpt>
      <trkpt lat="44.15427" lon="6.07797">
        <ele>1262</ele>
        <time>2022-03-03T11:24:26.000Z</time>
      </trkpt>
      <trkpt lat="44.15427" lon="6.07797">
        <ele>1262</ele>
        <time>2022-03-03T11:24:27.000Z</time>
      </trkpt>
      <trkpt lat="44.15427" lon="6.07797">
        <ele>1262</ele>
        <time>2022-03-03T11:24:28.000Z</time>
      </trkpt>
      <trkpt lat="44.15427" lon="6.07797">
        <ele>1262</ele>
        <time>2022-03-03T11:24:29.000Z</time>
      </trkpt>
      <trkpt lat="44.15427" lon="6.07797">
        <ele>1262</ele>
        <time>2022-03-03T11:24:30.000Z</time>
      </trkpt>
      <trkpt lat="44.15427" lon="6.07797">
        <ele>1262</ele>
        <time>2022-03-03T11:24:31.000Z</time>
      </trkpt>
      <trkpt lat="44.15427" lon="6.07797">
        <ele>1262</ele>
        <time>2022-03-03T11:24:32.000Z</time>
      </trkpt>
      <trkpt lat="44.15427" lon="6.07797">
        <ele>1262</ele>
        <time>2022-03-03T11:24:33.000Z</time>
      </trkpt>
      <trkpt lat="44.15427" lon="6.07797">
        <ele>1262</ele>
        <time>2022-03-03T11:24:34.000Z</time>
      </trkpt>
      <trkpt lat="44.15427" lon="6.07797">
        <ele>1262</ele>
        <time>2022-03-03T11:24:35.000Z</time>
      </trkpt>
      <trkpt lat="44.15427" lon="6.07797">
        <ele>1262</ele>
        <time>2022-03-03T11:24:36.000Z</time>
      </trkpt>
      <trkpt lat="44.15427" lon="6.07797">
        <ele>1262</ele>
        <time>2022-03-03T11:24:37.000Z</time>
      </trkpt>
      <trkpt lat="44.15427" lon="6.07797">
        <ele>1262</ele>
        <time>2022-03-03T11:24:38.000Z</time>
      </trkpt>
      <trkpt lat="44.15427" lon="6.07797">
        <ele>1262</ele>
        <time>2022-03-03T11:24:39.000Z</time>
      </trkpt>
      <trkpt lat="44.15427" lon="6.07797">
        <ele>1262</ele>
        <time>2022-03-03T11:24:40.000Z</time>
      </trkpt>
      <trkpt lat="44.15427" lon="6.07797">
        <ele>1262</ele>
        <time>2022-03-03T11:24:41.000Z</time>
      </trkpt>
      <trkpt lat="44.15427" lon="6.07797">
        <ele>1262</ele>
        <time>2022-03-03T11:24:42.000Z</time>
      </trkpt>
      <trkpt lat="44.15427" lon="6.07797">
        <ele>1262</ele>
        <time>2022-03-03T11:24:43.000Z</time>
      </trkpt>
      <trkpt lat="44.15427" lon="6.07797">
        <ele>1262</ele>
        <time>2022-03-03T11:24:44.000Z</time>
      </trkpt>
      <trkpt lat="44.15427" lon="6.07797">
        <ele>1262</ele>
        <time>2022-03-03T11:24:45.000Z</time>
      </trkpt>
      <trkpt lat="44.15427" lon="6.07797">
        <ele>1262</ele>
        <time>2022-03-03T11:24:46.000Z</time>
      </trkpt>
      <trkpt lat="44.15427" lon="6.07797">
        <ele>1262</ele>
        <time>2022-03-03T11:24:47.000Z</time>
      </trkpt>
      <trkpt lat="44.15427" lon="6.07797">
        <ele>1262</ele>
        <time>2022-03-03T11:24:48.000Z</time>
      </trkpt>
      <trkpt lat="44.15427" lon="6.07797">
        <ele>1262</ele>
        <time>2022-03-03T11:24:49.000Z</time>
      </trkpt>
      <trkpt lat="44.15427" lon="6.07797">
        <ele>1262</ele>
        <time>2022-03-03T11:24:50.000Z</time>
      </trkpt>
      <trkpt lat="44.15427" lon="6.07797">
        <ele>1262</ele>
        <time>2022-03-03T11:24:51.000Z</time>
      </trkpt>
      <trkpt lat="44.15427" lon="6.07797">
        <ele>1262</ele>
        <time>2022-03-03T11:24:52.000Z</time>
      </trkpt>
      <trkpt lat="44.15427" lon="6.07797">
        <ele>1262</ele>
        <time>2022-03-03T11:24:53.000Z</time>
      </trkpt>
      <trkpt lat="44.15427" lon="6.07797">
        <ele>1262</ele>
        <time>2022-03-03T11:24:54.000Z</time>
      </trkpt>
      <trkpt lat="44.15427" lon="6.07797">
        <ele>1262</ele>
        <time>2022-03-03T11:24:55.000Z</time>
      </trkpt>
      <trkpt lat="44.15427" lon="6.07797">
        <ele>1262</ele>
        <time>2022-03-03T11:24:56.000Z</time>
      </trkpt>
      <trkpt lat="44.15427" lon="6.07797">
        <ele>1262</ele>
        <time>2022-03-03T11:24:57.000Z</time>
      </trkpt>
      <trkpt lat="44.15427" lon="6.07797">
        <ele>1261</ele>
        <time>2022-03-03T11:24:58.000Z</time>
      </trkpt>
      <trkpt lat="44.15427" lon="6.07797">
        <ele>1261</ele>
        <time>2022-03-03T11:24:59.000Z</time>
      </trkpt>
      <trkpt lat="44.15427" lon="6.07797">
        <ele>1261</ele>
        <time>2022-03-03T11:25:00.000Z</time>
      </trkpt>
      <trkpt lat="44.15427" lon="6.07798">
        <ele>1261</ele>
        <time>2022-03-03T11:25:01.000Z</time>
      </trkpt>
      <trkpt lat="44.15426" lon="6.07798">
        <ele>1261</ele>
        <time>2022-03-03T11:25:02.000Z</time>
      </trkpt>
      <trkpt lat="44.15426" lon="6.07799">
        <ele>1261</ele>
        <time>2022-03-03T11:25:03.000Z</time>
      </trkpt>
      <trkpt lat="44.15426" lon="6.07799">
        <ele>1261</ele>
        <time>2022-03-03T11:25:04.000Z</time>
      </trkpt>
      <trkpt lat="44.15426" lon="6.078">
        <ele>1261</ele>
        <time>2022-03-03T11:25:05.000Z</time>
      </trkpt>
      <trkpt lat="44.15426" lon="6.078">
        <ele>1261</ele>
        <time>2022-03-03T11:25:06.000Z</time>
      </trkpt>
      <trkpt lat="44.15427" lon="6.07802">
        <ele>1261</ele>
        <time>2022-03-03T11:25:07.000Z</time>
      </trkpt>
      <trkpt lat="44.15427" lon="6.07803">
        <ele>1261</ele>
        <time>2022-03-03T11:25:08.000Z</time>
      </trkpt>
      <trkpt lat="44.15427" lon="6.07804">
        <ele>1261</ele>
        <time>2022-03-03T11:25:09.000Z</time>
      </trkpt>
      <trkpt lat="44.15427" lon="6.07804">
        <ele>1261</ele>
        <time>2022-03-03T11:25:10.000Z</time>
      </trkpt>
      <trkpt lat="44.15428" lon="6.07806">
        <ele>1261</ele>
        <time>2022-03-03T11:25:11.000Z</time>
      </trkpt>
      <trkpt lat="44.15428" lon="6.07807">
        <ele>1261</ele>
        <time>2022-03-03T11:25:12.000Z</time>
      </trkpt>
      <trkpt lat="44.15429" lon="6.07808">
        <ele>1261</ele>
        <time>2022-03-03T11:25:13.000Z</time>
      </trkpt>
      <trkpt lat="44.15429" lon="6.07808">
        <ele>1261</ele>
        <time>2022-03-03T11:25:14.000Z</time>
      </trkpt>
      <trkpt lat="44.1543" lon="6.07809">
        <ele>1261</ele>
        <time>2022-03-03T11:25:15.000Z</time>
      </trkpt>
      <trkpt lat="44.1543" lon="6.0781">
        <ele>1262</ele>
        <time>2022-03-03T11:25:16.000Z</time>
      </trkpt>
      <trkpt lat="44.1543" lon="6.07811">
        <ele>1262</ele>
        <time>2022-03-03T11:25:17.000Z</time>
      </trkpt>
      <trkpt lat="44.15431" lon="6.07812">
        <ele>1262</ele>
        <time>2022-03-03T11:25:18.000Z</time>
      </trkpt>
      <trkpt lat="44.15431" lon="6.07813">
        <ele>1262</ele>
        <time>2022-03-03T11:25:19.000Z</time>
      </trkpt>
      <trkpt lat="44.15431" lon="6.07814">
        <ele>1262</ele>
        <time>2022-03-03T11:25:20.000Z</time>
      </trkpt>
      <trkpt lat="44.15432" lon="6.07815">
        <ele>1262</ele>
        <time>2022-03-03T11:25:21.000Z</time>
      </trkpt>
      <trkpt lat="44.15432" lon="6.07816">
        <ele>1262</ele>
        <time>2022-03-03T11:25:22.000Z</time>
      </trkpt>
      <trkpt lat="44.15433" lon="6.07817">
        <ele>1262</ele>
        <time>2022-03-03T11:25:23.000Z</time>
      </trkpt>
      <trkpt lat="44.15434" lon="6.07818">
        <ele>1262</ele>
        <time>2022-03-03T11:25:24.000Z</time>
      </trkpt>
      <trkpt lat="44.15434" lon="6.07819">
        <ele>1262</ele>
        <time>2022-03-03T11:25:25.000Z</time>
      </trkpt>
      <trkpt lat="44.15435" lon="6.07819">
        <ele>1262</ele>
        <time>2022-03-03T11:25:26.000Z</time>
      </trkpt>
      <trkpt lat="44.15435" lon="6.0782">
        <ele>1263</ele>
        <time>2022-03-03T11:25:27.000Z</time>
      </trkpt>
      <trkpt lat="44.15436" lon="6.07821">
        <ele>1263</ele>
        <time>2022-03-03T11:25:28.000Z</time>
      </trkpt>
      <trkpt lat="44.15436" lon="6.07821">
        <ele>1263</ele>
        <time>2022-03-03T11:25:29.000Z</time>
      </trkpt>
      <trkpt lat="44.15437" lon="6.07821">
        <ele>1263</ele>
        <time>2022-03-03T11:25:30.000Z</time>
      </trkpt>
      <trkpt lat="44.15438" lon="6.07821">
        <ele>1263</ele>
        <time>2022-03-03T11:25:31.000Z</time>
      </trkpt>
      <trkpt lat="44.15439" lon="6.07821">
        <ele>1263</ele>
        <time>2022-03-03T11:25:32.000Z</time>
      </trkpt>
      <trkpt lat="44.1544" lon="6.07822">
        <ele>1263</ele>
        <time>2022-03-03T11:25:33.000Z</time>
      </trkpt>
      <trkpt lat="44.1544" lon="6.07822">
        <ele>1264</ele>
        <time>2022-03-03T11:25:34.000Z</time>
      </trkpt>
      <trkpt lat="44.15441" lon="6.07822">
        <ele>1264</ele>
        <time>2022-03-03T11:25:35.000Z</time>
      </trkpt>
      <trkpt lat="44.15442" lon="6.07822">
        <ele>1264</ele>
        <time>2022-03-03T11:25:36.000Z</time>
      </trkpt>
      <trkpt lat="44.15442" lon="6.07822">
        <ele>1264</ele>
        <time>2022-03-03T11:25:37.000Z</time>
      </trkpt>
      <trkpt lat="44.15443" lon="6.07822">
        <ele>1265</ele>
        <time>2022-03-03T11:25:38.000Z</time>
      </trkpt>
      <trkpt lat="44.15444" lon="6.07822">
        <ele>1265</ele>
        <time>2022-03-03T11:25:39.000Z</time>
      </trkpt>
      <trkpt lat="44.15444" lon="6.07822">
        <ele>1265</ele>
        <time>2022-03-03T11:25:40.000Z</time>
      </trkpt>
      <trkpt lat="44.15445" lon="6.07822">
        <ele>1265</ele>
        <time>2022-03-03T11:25:41.000Z</time>
      </trkpt>
      <trkpt lat="44.15445" lon="6.07822">
        <ele>1265</ele>
        <time>2022-03-03T11:25:42.000Z</time>
      </trkpt>
      <trkpt lat="44.15446" lon="6.07823">
        <ele>1265</ele>
        <time>2022-03-03T11:25:43.000Z</time>
      </trkpt>
      <trkpt lat="44.15447" lon="6.07823">
        <ele>1265</ele>
        <time>2022-03-03T11:25:44.000Z</time>
      </trkpt>
      <trkpt lat="44.15447" lon="6.07823">
        <ele>1265</ele>
        <time>2022-03-03T11:25:45.000Z</time>
      </trkpt>
      <trkpt lat="44.15448" lon="6.07824">
        <ele>1265</ele>
        <time>2022-03-03T11:25:46.000Z</time>
      </trkpt>
      <trkpt lat="44.15448" lon="6.07824">
        <ele>1265</ele>
        <time>2022-03-03T11:25:47.000Z</time>
      </trkpt>
      <trkpt lat="44.15449" lon="6.07824">
        <ele>1265</ele>
        <time>2022-03-03T11:25:48.000Z</time>
      </trkpt>
      <trkpt lat="44.1545" lon="6.07824">
        <ele>1266</ele>
        <time>2022-03-03T11:25:49.000Z</time>
      </trkpt>
      <trkpt lat="44.1545" lon="6.07825">
        <ele>1266</ele>
        <time>2022-03-03T11:25:50.000Z</time>
      </trkpt>
      <trkpt lat="44.15451" lon="6.07825">
        <ele>1266</ele>
        <time>2022-03-03T11:25:51.000Z</time>
      </trkpt>
      <trkpt lat="44.15452" lon="6.07825">
        <ele>1266</ele>
        <time>2022-03-03T11:25:52.000Z</time>
      </trkpt>
      <trkpt lat="44.15453" lon="6.07825">
        <ele>1266</ele>
        <time>2022-03-03T11:25:53.000Z</time>
      </trkpt>
      <trkpt lat="44.15453" lon="6.07825">
        <ele>1266</ele>
        <time>2022-03-03T11:25:54.000Z</time>
      </trkpt>
      <trkpt lat="44.15454" lon="6.07826">
        <ele>1266</ele>
        <time>2022-03-03T11:25:55.000Z</time>
      </trkpt>
      <trkpt lat="44.15455" lon="6.07826">
        <ele>1266</ele>
        <time>2022-03-03T11:25:56.000Z</time>
      </trkpt>
      <trkpt lat="44.15455" lon="6.07826">
        <ele>1266</ele>
        <time>2022-03-03T11:25:57.000Z</time>
      </trkpt>
      <trkpt lat="44.15456" lon="6.07826">
        <ele>1267</ele>
        <time>2022-03-03T11:25:58.000Z</time>
      </trkpt>
      <trkpt lat="44.15457" lon="6.07827">
        <ele>1267</ele>
        <time>2022-03-03T11:25:59.000Z</time>
      </trkpt>
      <trkpt lat="44.15457" lon="6.07827">
        <ele>1267</ele>
        <time>2022-03-03T11:26:00.000Z</time>
      </trkpt>
      <trkpt lat="44.15458" lon="6.07827">
        <ele>1267</ele>
        <time>2022-03-03T11:26:01.000Z</time>
      </trkpt>
      <trkpt lat="44.15459" lon="6.07828">
        <ele>1267</ele>
        <time>2022-03-03T11:26:02.000Z</time>
      </trkpt>
      <trkpt lat="44.1546" lon="6.07828">
        <ele>1267</ele>
        <time>2022-03-03T11:26:03.000Z</time>
      </trkpt>
      <trkpt lat="44.1546" lon="6.07828">
        <ele>1267</ele>
        <time>2022-03-03T11:26:04.000Z</time>
      </trkpt>
      <trkpt lat="44.15461" lon="6.07829">
        <ele>1267</ele>
        <time>2022-03-03T11:26:05.000Z</time>
      </trkpt>
      <trkpt lat="44.15461" lon="6.07829">
        <ele>1267</ele>
        <time>2022-03-03T11:26:06.000Z</time>
      </trkpt>
      <trkpt lat="44.15462" lon="6.07829">
        <ele>1267</ele>
        <time>2022-03-03T11:26:07.000Z</time>
      </trkpt>
      <trkpt lat="44.15463" lon="6.0783">
        <ele>1267</ele>
        <time>2022-03-03T11:26:08.000Z</time>
      </trkpt>
      <trkpt lat="44.15463" lon="6.0783">
        <ele>1267</ele>
        <time>2022-03-03T11:26:09.000Z</time>
      </trkpt>
      <trkpt lat="44.15464" lon="6.0783">
        <ele>1268</ele>
        <time>2022-03-03T11:26:10.000Z</time>
      </trkpt>
      <trkpt lat="44.15464" lon="6.07831">
        <ele>1268</ele>
        <time>2022-03-03T11:26:11.000Z</time>
      </trkpt>
      <trkpt lat="44.15465" lon="6.07831">
        <ele>1268</ele>
        <time>2022-03-03T11:26:12.000Z</time>
      </trkpt>
      <trkpt lat="44.15466" lon="6.07831">
        <ele>1268</ele>
        <time>2022-03-03T11:26:13.000Z</time>
      </trkpt>
      <trkpt lat="44.15467" lon="6.07832">
        <ele>1268</ele>
        <time>2022-03-03T11:26:14.000Z</time>
      </trkpt>
      <trkpt lat="44.15467" lon="6.07832">
        <ele>1268</ele>
        <time>2022-03-03T11:26:15.000Z</time>
      </trkpt>
      <trkpt lat="44.15468" lon="6.07832">
        <ele>1268</ele>
        <time>2022-03-03T11:26:16.000Z</time>
      </trkpt>
      <trkpt lat="44.15468" lon="6.07832">
        <ele>1268</ele>
        <time>2022-03-03T11:26:17.000Z</time>
      </trkpt>
      <trkpt lat="44.15469" lon="6.07832">
        <ele>1269</ele>
        <time>2022-03-03T11:26:18.000Z</time>
      </trkpt>
      <trkpt lat="44.1547" lon="6.07833">
        <ele>1269</ele>
        <time>2022-03-03T11:26:19.000Z</time>
      </trkpt>
      <trkpt lat="44.1547" lon="6.07833">
        <ele>1269</ele>
        <time>2022-03-03T11:26:20.000Z</time>
      </trkpt>
      <trkpt lat="44.15471" lon="6.07833">
        <ele>1269</ele>
        <time>2022-03-03T11:26:21.000Z</time>
      </trkpt>
      <trkpt lat="44.15471" lon="6.07833">
        <ele>1269</ele>
        <time>2022-03-03T11:26:22.000Z</time>
      </trkpt>
      <trkpt lat="44.15472" lon="6.07833">
        <ele>1270</ele>
        <time>2022-03-03T11:26:23.000Z</time>
      </trkpt>
      <trkpt lat="44.15472" lon="6.07833">
        <ele>1270</ele>
        <time>2022-03-03T11:26:24.000Z</time>
      </trkpt>
      <trkpt lat="44.15473" lon="6.07833">
        <ele>1270</ele>
        <time>2022-03-03T11:26:25.000Z</time>
      </trkpt>
      <trkpt lat="44.15474" lon="6.07834">
        <ele>1270</ele>
        <time>2022-03-03T11:26:26.000Z</time>
      </trkpt>
      <trkpt lat="44.15474" lon="6.07834">
        <ele>1270</ele>
        <time>2022-03-03T11:26:27.000Z</time>
      </trkpt>
      <trkpt lat="44.15475" lon="6.07834">
        <ele>1270</ele>
        <time>2022-03-03T11:26:28.000Z</time>
      </trkpt>
      <trkpt lat="44.15475" lon="6.07834">
        <ele>1271</ele>
        <time>2022-03-03T11:26:29.000Z</time>
      </trkpt>
      <trkpt lat="44.15476" lon="6.07834">
        <ele>1271</ele>
        <time>2022-03-03T11:26:30.000Z</time>
      </trkpt>
      <trkpt lat="44.15477" lon="6.07834">
        <ele>1271</ele>
        <time>2022-03-03T11:26:31.000Z</time>
      </trkpt>
      <trkpt lat="44.15477" lon="6.07835">
        <ele>1271</ele>
        <time>2022-03-03T11:26:32.000Z</time>
      </trkpt>
      <trkpt lat="44.15478" lon="6.07835">
        <ele>1271</ele>
        <time>2022-03-03T11:26:33.000Z</time>
      </trkpt>
      <trkpt lat="44.15478" lon="6.07835">
        <ele>1271</ele>
        <time>2022-03-03T11:26:34.000Z</time>
      </trkpt>
      <trkpt lat="44.15479" lon="6.07835">
        <ele>1271</ele>
        <time>2022-03-03T11:26:35.000Z</time>
      </trkpt>
      <trkpt lat="44.1548" lon="6.07835">
        <ele>1271</ele>
        <time>2022-03-03T11:26:36.000Z</time>
      </trkpt>
      <trkpt lat="44.15481" lon="6.07835">
        <ele>1271</ele>
        <time>2022-03-03T11:26:37.000Z</time>
      </trkpt>
      <trkpt lat="44.15481" lon="6.07836">
        <ele>1271</ele>
        <time>2022-03-03T11:26:38.000Z</time>
      </trkpt>
      <trkpt lat="44.15482" lon="6.07836">
        <ele>1271</ele>
        <time>2022-03-03T11:26:39.000Z</time>
      </trkpt>
      <trkpt lat="44.15482" lon="6.07836">
        <ele>1271</ele>
        <time>2022-03-03T11:26:40.000Z</time>
      </trkpt>
      <trkpt lat="44.15483" lon="6.07836">
        <ele>1271</ele>
        <time>2022-03-03T11:26:41.000Z</time>
      </trkpt>
      <trkpt lat="44.15483" lon="6.07836">
        <ele>1271</ele>
        <time>2022-03-03T11:26:42.000Z</time>
      </trkpt>
      <trkpt lat="44.15484" lon="6.07836">
        <ele>1271</ele>
        <time>2022-03-03T11:26:43.000Z</time>
      </trkpt>
      <trkpt lat="44.15484" lon="6.07836">
        <ele>1271</ele>
        <time>2022-03-03T11:26:44.000Z</time>
      </trkpt>
      <trkpt lat="44.15485" lon="6.07836">
        <ele>1272</ele>
        <time>2022-03-03T11:26:45.000Z</time>
      </trkpt>
      <trkpt lat="44.15485" lon="6.07836">
        <ele>1272</ele>
        <time>2022-03-03T11:26:46.000Z</time>
      </trkpt>
      <trkpt lat="44.15486" lon="6.07836">
        <ele>1272</ele>
        <time>2022-03-03T11:26:47.000Z</time>
      </trkpt>
      <trkpt lat="44.15487" lon="6.07835">
        <ele>1272</ele>
        <time>2022-03-03T11:26:48.000Z</time>
      </trkpt>
      <trkpt lat="44.15488" lon="6.07835">
        <ele>1272</ele>
        <time>2022-03-03T11:26:49.000Z</time>
      </trkpt>
      <trkpt lat="44.15488" lon="6.07835">
        <ele>1273</ele>
        <time>2022-03-03T11:26:50.000Z</time>
      </trkpt>
      <trkpt lat="44.15489" lon="6.07835">
        <ele>1273</ele>
        <time>2022-03-03T11:26:51.000Z</time>
      </trkpt>
      <trkpt lat="44.15489" lon="6.07835">
        <ele>1273</ele>
        <time>2022-03-03T11:26:52.000Z</time>
      </trkpt>
      <trkpt lat="44.1549" lon="6.07835">
        <ele>1273</ele>
        <time>2022-03-03T11:26:53.000Z</time>
      </trkpt>
      <trkpt lat="44.1549" lon="6.07835">
        <ele>1273</ele>
        <time>2022-03-03T11:26:54.000Z</time>
      </trkpt>
      <trkpt lat="44.15491" lon="6.07835">
        <ele>1273</ele>
        <time>2022-03-03T11:26:55.000Z</time>
      </trkpt>
      <trkpt lat="44.15492" lon="6.07835">
        <ele>1274</ele>
        <time>2022-03-03T11:26:56.000Z</time>
      </trkpt>
      <trkpt lat="44.15492" lon="6.07835">
        <ele>1274</ele>
        <time>2022-03-03T11:26:57.000Z</time>
      </trkpt>
      <trkpt lat="44.15492" lon="6.07835">
        <ele>1274</ele>
        <time>2022-03-03T11:26:58.000Z</time>
      </trkpt>
      <trkpt lat="44.15492" lon="6.07835">
        <ele>1274</ele>
        <time>2022-03-03T11:26:59.000Z</time>
      </trkpt>
      <trkpt lat="44.15492" lon="6.07835">
        <ele>1274</ele>
        <time>2022-03-03T11:27:00.000Z</time>
      </trkpt>
      <trkpt lat="44.15492" lon="6.07834">
        <ele>1274</ele>
        <time>2022-03-03T11:27:01.000Z</time>
      </trkpt>
      <trkpt lat="44.15492" lon="6.07834">
        <ele>1274</ele>
        <time>2022-03-03T11:27:02.000Z</time>
      </trkpt>
      <trkpt lat="44.15492" lon="6.07834">
        <ele>1274</ele>
        <time>2022-03-03T11:27:03.000Z</time>
      </trkpt>
      <trkpt lat="44.15492" lon="6.07834">
        <ele>1274</ele>
        <time>2022-03-03T11:27:04.000Z</time>
      </trkpt>
      <trkpt lat="44.15492" lon="6.07834">
        <ele>1275</ele>
        <time>2022-03-03T11:27:05.000Z</time>
      </trkpt>
      <trkpt lat="44.15492" lon="6.07834">
        <ele>1275</ele>
        <time>2022-03-03T11:27:06.000Z</time>
      </trkpt>
      <trkpt lat="44.15492" lon="6.07834">
        <ele>1275</ele>
        <time>2022-03-03T11:27:07.000Z</time>
      </trkpt>
      <trkpt lat="44.15492" lon="6.07834">
        <ele>1275</ele>
        <time>2022-03-03T11:27:08.000Z</time>
      </trkpt>
      <trkpt lat="44.15492" lon="6.07834">
        <ele>1275</ele>
        <time>2022-03-03T11:27:09.000Z</time>
      </trkpt>
      <trkpt lat="44.15492" lon="6.07835">
        <ele>1275</ele>
        <time>2022-03-03T11:27:10.000Z</time>
      </trkpt>
      <trkpt lat="44.15492" lon="6.07835">
        <ele>1275</ele>
        <time>2022-03-03T11:27:11.000Z</time>
      </trkpt>
      <trkpt lat="44.15493" lon="6.07835">
        <ele>1275</ele>
        <time>2022-03-03T11:27:12.000Z</time>
      </trkpt>
      <trkpt lat="44.15493" lon="6.07835">
        <ele>1275</ele>
        <time>2022-03-03T11:27:13.000Z</time>
      </trkpt>
      <trkpt lat="44.15493" lon="6.07835">
        <ele>1275</ele>
        <time>2022-03-03T11:27:14.000Z</time>
      </trkpt>
      <trkpt lat="44.15493" lon="6.07835">
        <ele>1275</ele>
        <time>2022-03-03T11:27:15.000Z</time>
      </trkpt>
      <trkpt lat="44.15493" lon="6.07835">
        <ele>1275</ele>
        <time>2022-03-03T11:27:16.000Z</time>
      </trkpt>
      <trkpt lat="44.15493" lon="6.07834">
        <ele>1275</ele>
        <time>2022-03-03T11:27:17.000Z</time>
      </trkpt>
      <trkpt lat="44.15493" lon="6.07834">
        <ele>1275</ele>
        <time>2022-03-03T11:27:18.000Z</time>
      </trkpt>
      <trkpt lat="44.15493" lon="6.07834">
        <ele>1275</ele>
        <time>2022-03-03T11:27:19.000Z</time>
      </trkpt>
      <trkpt lat="44.15493" lon="6.07834">
        <ele>1275</ele>
        <time>2022-03-03T11:27:20.000Z</time>
      </trkpt>
      <trkpt lat="44.15493" lon="6.07834">
        <ele>1275</ele>
        <time>2022-03-03T11:27:21.000Z</time>
      </trkpt>
      <trkpt lat="44.15492" lon="6.07834">
        <ele>1275</ele>
        <time>2022-03-03T11:27:22.000Z</time>
      </trkpt>
      <trkpt lat="44.15492" lon="6.07834">
        <ele>1275</ele>
        <time>2022-03-03T11:27:23.000Z</time>
      </trkpt>
      <trkpt lat="44.15492" lon="6.07834">
        <ele>1275</ele>
        <time>2022-03-03T11:27:24.000Z</time>
      </trkpt>
      <trkpt lat="44.15492" lon="6.07834">
        <ele>1275</ele>
        <time>2022-03-03T11:27:25.000Z</time>
      </trkpt>
      <trkpt lat="44.15492" lon="6.07834">
        <ele>1275</ele>
        <time>2022-03-03T11:27:26.000Z</time>
      </trkpt>
      <trkpt lat="44.15492" lon="6.07834">
        <ele>1275</ele>
        <time>2022-03-03T11:27:27.000Z</time>
      </trkpt>
      <trkpt lat="44.15493" lon="6.07834">
        <ele>1275</ele>
        <time>2022-03-03T11:27:28.000Z</time>
      </trkpt>
      <trkpt lat="44.15493" lon="6.07834">
        <ele>1275</ele>
        <time>2022-03-03T11:27:29.000Z</time>
      </trkpt>
      <trkpt lat="44.15494" lon="6.07833">
        <ele>1275</ele>
        <time>2022-03-03T11:27:30.000Z</time>
      </trkpt>
      <trkpt lat="44.15494" lon="6.07833">
        <ele>1275</ele>
        <time>2022-03-03T11:27:31.000Z</time>
      </trkpt>
      <trkpt lat="44.15495" lon="6.07833">
        <ele>1275</ele>
        <time>2022-03-03T11:27:32.000Z</time>
      </trkpt>
      <trkpt lat="44.15495" lon="6.07833">
        <ele>1275</ele>
        <time>2022-03-03T11:27:33.000Z</time>
      </trkpt>
      <trkpt lat="44.15496" lon="6.07833">
        <ele>1275</ele>
        <time>2022-03-03T11:27:34.000Z</time>
      </trkpt>
      <trkpt lat="44.15496" lon="6.07833">
        <ele>1275</ele>
        <time>2022-03-03T11:27:35.000Z</time>
      </trkpt>
      <trkpt lat="44.15497" lon="6.07833">
        <ele>1275</ele>
        <time>2022-03-03T11:27:36.000Z</time>
      </trkpt>
      <trkpt lat="44.15497" lon="6.07833">
        <ele>1275</ele>
        <time>2022-03-03T11:27:37.000Z</time>
      </trkpt>
      <trkpt lat="44.15497" lon="6.07833">
        <ele>1275</ele>
        <time>2022-03-03T11:27:38.000Z</time>
      </trkpt>
      <trkpt lat="44.15498" lon="6.07833">
        <ele>1275</ele>
        <time>2022-03-03T11:27:39.000Z</time>
      </trkpt>
      <trkpt lat="44.15498" lon="6.07832">
        <ele>1276</ele>
        <time>2022-03-03T11:27:40.000Z</time>
      </trkpt>
      <trkpt lat="44.15499" lon="6.07832">
        <ele>1276</ele>
        <time>2022-03-03T11:27:41.000Z</time>
      </trkpt>
      <trkpt lat="44.155" lon="6.07833">
        <ele>1276</ele>
        <time>2022-03-03T11:27:42.000Z</time>
      </trkpt>
      <trkpt lat="44.15501" lon="6.07833">
        <ele>1276</ele>
        <time>2022-03-03T11:27:43.000Z</time>
      </trkpt>
      <trkpt lat="44.15501" lon="6.07833">
        <ele>1276</ele>
        <time>2022-03-03T11:27:44.000Z</time>
      </trkpt>
      <trkpt lat="44.15501" lon="6.07833">
        <ele>1276</ele>
        <time>2022-03-03T11:27:45.000Z</time>
      </trkpt>
      <trkpt lat="44.15501" lon="6.07833">
        <ele>1276</ele>
        <time>2022-03-03T11:27:46.000Z</time>
      </trkpt>
      <trkpt lat="44.15501" lon="6.07833">
        <ele>1276</ele>
        <time>2022-03-03T11:27:47.000Z</time>
      </trkpt>
      <trkpt lat="44.15501" lon="6.07833">
        <ele>1276</ele>
        <time>2022-03-03T11:27:48.000Z</time>
      </trkpt>
      <trkpt lat="44.15501" lon="6.07833">
        <ele>1276</ele>
        <time>2022-03-03T11:27:49.000Z</time>
      </trkpt>
      <trkpt lat="44.15501" lon="6.07833">
        <ele>1276</ele>
        <time>2022-03-03T11:27:50.000Z</time>
      </trkpt>
      <trkpt lat="44.15501" lon="6.07832">
        <ele>1276</ele>
        <time>2022-03-03T11:27:51.000Z</time>
      </trkpt>
      <trkpt lat="44.15501" lon="6.07832">
        <ele>1276</ele>
        <time>2022-03-03T11:27:52.000Z</time>
      </trkpt>
      <trkpt lat="44.15501" lon="6.07832">
        <ele>1276</ele>
        <time>2022-03-03T11:27:53.000Z</time>
      </trkpt>
      <trkpt lat="44.15501" lon="6.07832">
        <ele>1276</ele>
        <time>2022-03-03T11:27:54.000Z</time>
      </trkpt>
      <trkpt lat="44.155" lon="6.07832">
        <ele>1276</ele>
        <time>2022-03-03T11:27:55.000Z</time>
      </trkpt>
      <trkpt lat="44.155" lon="6.07832">
        <ele>1276</ele>
        <time>2022-03-03T11:27:56.000Z</time>
      </trkpt>
      <trkpt lat="44.155" lon="6.07832">
        <ele>1276</ele>
        <time>2022-03-03T11:27:57.000Z</time>
      </trkpt>
      <trkpt lat="44.155" lon="6.07832">
        <ele>1276</ele>
        <time>2022-03-03T11:27:58.000Z</time>
      </trkpt>
      <trkpt lat="44.155" lon="6.07832">
        <ele>1277</ele>
        <time>2022-03-03T11:27:59.000Z</time>
      </trkpt>
      <trkpt lat="44.155" lon="6.07832">
        <ele>1277</ele>
        <time>2022-03-03T11:28:00.000Z</time>
      </trkpt>
      <trkpt lat="44.155" lon="6.07832">
        <ele>1277</ele>
        <time>2022-03-03T11:28:01.000Z</time>
      </trkpt>
      <trkpt lat="44.155" lon="6.07832">
        <ele>1277</ele>
        <time>2022-03-03T11:28:02.000Z</time>
      </trkpt>
      <trkpt lat="44.155" lon="6.07832">
        <ele>1277</ele>
        <time>2022-03-03T11:28:03.000Z</time>
      </trkpt>
      <trkpt lat="44.155" lon="6.07832">
        <ele>1277</ele>
        <time>2022-03-03T11:28:04.000Z</time>
      </trkpt>
      <trkpt lat="44.155" lon="6.07832">
        <ele>1277</ele>
        <time>2022-03-03T11:28:05.000Z</time>
      </trkpt>
      <trkpt lat="44.155" lon="6.07832">
        <ele>1277</ele>
        <time>2022-03-03T11:28:06.000Z</time>
      </trkpt>
      <trkpt lat="44.155" lon="6.07832">
        <ele>1277</ele>
        <time>2022-03-03T11:28:07.000Z</time>
      </trkpt>
      <trkpt lat="44.155" lon="6.07831">
        <ele>1277</ele>
        <time>2022-03-03T11:28:08.000Z</time>
      </trkpt>
      <trkpt lat="44.15501" lon="6.07831">
        <ele>1277</ele>
        <time>2022-03-03T11:28:09.000Z</time>
      </trkpt>
      <trkpt lat="44.15502" lon="6.07831">
        <ele>1277</ele>
        <time>2022-03-03T11:28:10.000Z</time>
      </trkpt>
      <trkpt lat="44.15502" lon="6.07831">
        <ele>1277</ele>
        <time>2022-03-03T11:28:11.000Z</time>
      </trkpt>
      <trkpt lat="44.15503" lon="6.07831">
        <ele>1277</ele>
        <time>2022-03-03T11:28:12.000Z</time>
      </trkpt>
      <trkpt lat="44.15503" lon="6.0783">
        <ele>1277</ele>
        <time>2022-03-03T11:28:13.000Z</time>
      </trkpt>
      <trkpt lat="44.15504" lon="6.0783">
        <ele>1278</ele>
        <time>2022-03-03T11:28:14.000Z</time>
      </trkpt>
      <trkpt lat="44.15504" lon="6.0783">
        <ele>1278</ele>
        <time>2022-03-03T11:28:15.000Z</time>
      </trkpt>
      <trkpt lat="44.15505" lon="6.0783">
        <ele>1278</ele>
        <time>2022-03-03T11:28:16.000Z</time>
      </trkpt>
      <trkpt lat="44.15506" lon="6.07829">
        <ele>1278</ele>
        <time>2022-03-03T11:28:17.000Z</time>
      </trkpt>
      <trkpt lat="44.15506" lon="6.07829">
        <ele>1278</ele>
        <time>2022-03-03T11:28:18.000Z</time>
      </trkpt>
      <trkpt lat="44.15507" lon="6.07829">
        <ele>1278</ele>
        <time>2022-03-03T11:28:19.000Z</time>
      </trkpt>
      <trkpt lat="44.15507" lon="6.07828">
        <ele>1278</ele>
        <time>2022-03-03T11:28:20.000Z</time>
      </trkpt>
      <trkpt lat="44.15508" lon="6.07828">
        <ele>1279</ele>
        <time>2022-03-03T11:28:21.000Z</time>
      </trkpt>
      <trkpt lat="44.15508" lon="6.07828">
        <ele>1279</ele>
        <time>2022-03-03T11:28:22.000Z</time>
      </trkpt>
      <trkpt lat="44.15509" lon="6.07828">
        <ele>1279</ele>
        <time>2022-03-03T11:28:23.000Z</time>
      </trkpt>
      <trkpt lat="44.15509" lon="6.07827">
        <ele>1279</ele>
        <time>2022-03-03T11:28:24.000Z</time>
      </trkpt>
      <trkpt lat="44.1551" lon="6.07827">
        <ele>1279</ele>
        <time>2022-03-03T11:28:25.000Z</time>
      </trkpt>
      <trkpt lat="44.15511" lon="6.07827">
        <ele>1279</ele>
        <time>2022-03-03T11:28:26.000Z</time>
      </trkpt>
      <trkpt lat="44.15511" lon="6.07826">
        <ele>1279</ele>
        <time>2022-03-03T11:28:27.000Z</time>
      </trkpt>
      <trkpt lat="44.15512" lon="6.07826">
        <ele>1280</ele>
        <time>2022-03-03T11:28:28.000Z</time>
      </trkpt>
      <trkpt lat="44.15512" lon="6.07826">
        <ele>1280</ele>
        <time>2022-03-03T11:28:29.000Z</time>
      </trkpt>
      <trkpt lat="44.15513" lon="6.07826">
        <ele>1280</ele>
        <time>2022-03-03T11:28:30.000Z</time>
      </trkpt>
      <trkpt lat="44.15513" lon="6.07825">
        <ele>1280</ele>
        <time>2022-03-03T11:28:31.000Z</time>
      </trkpt>
      <trkpt lat="44.15514" lon="6.07825">
        <ele>1280</ele>
        <time>2022-03-03T11:28:32.000Z</time>
      </trkpt>
      <trkpt lat="44.15515" lon="6.07825">
        <ele>1280</ele>
        <time>2022-03-03T11:28:33.000Z</time>
      </trkpt>
      <trkpt lat="44.15515" lon="6.07825">
        <ele>1280</ele>
        <time>2022-03-03T11:28:34.000Z</time>
      </trkpt>
      <trkpt lat="44.15516" lon="6.07824">
        <ele>1280</ele>
        <time>2022-03-03T11:28:35.000Z</time>
      </trkpt>
      <trkpt lat="44.15516" lon="6.07824">
        <ele>1280</ele>
        <time>2022-03-03T11:28:36.000Z</time>
      </trkpt>
      <trkpt lat="44.15517" lon="6.07824">
        <ele>1280</ele>
        <time>2022-03-03T11:28:37.000Z</time>
      </trkpt>
      <trkpt lat="44.15518" lon="6.07824">
        <ele>1280</ele>
        <time>2022-03-03T11:28:38.000Z</time>
      </trkpt>
      <trkpt lat="44.15518" lon="6.07824">
        <ele>1281</ele>
        <time>2022-03-03T11:28:39.000Z</time>
      </trkpt>
      <trkpt lat="44.15519" lon="6.07823">
        <ele>1281</ele>
        <time>2022-03-03T11:28:40.000Z</time>
      </trkpt>
      <trkpt lat="44.15519" lon="6.07823">
        <ele>1281</ele>
        <time>2022-03-03T11:28:41.000Z</time>
      </trkpt>
      <trkpt lat="44.1552" lon="6.07823">
        <ele>1281</ele>
        <time>2022-03-03T11:28:42.000Z</time>
      </trkpt>
      <trkpt lat="44.1552" lon="6.07823">
        <ele>1281</ele>
        <time>2022-03-03T11:28:43.000Z</time>
      </trkpt>
      <trkpt lat="44.15521" lon="6.07823">
        <ele>1281</ele>
        <time>2022-03-03T11:28:44.000Z</time>
      </trkpt>
      <trkpt lat="44.15521" lon="6.07822">
        <ele>1281</ele>
        <time>2022-03-03T11:28:45.000Z</time>
      </trkpt>
      <trkpt lat="44.15522" lon="6.07822">
        <ele>1282</ele>
        <time>2022-03-03T11:28:46.000Z</time>
      </trkpt>
      <trkpt lat="44.15523" lon="6.07822">
        <ele>1282</ele>
        <time>2022-03-03T11:28:47.000Z</time>
      </trkpt>
      <trkpt lat="44.15523" lon="6.07822">
        <ele>1282</ele>
        <time>2022-03-03T11:28:48.000Z</time>
      </trkpt>
      <trkpt lat="44.15524" lon="6.07821">
        <ele>1282</ele>
        <time>2022-03-03T11:28:49.000Z</time>
      </trkpt>
      <trkpt lat="44.15524" lon="6.07821">
        <ele>1283</ele>
        <time>2022-03-03T11:28:50.000Z</time>
      </trkpt>
      <trkpt lat="44.15525" lon="6.07821">
        <ele>1283</ele>
        <time>2022-03-03T11:28:51.000Z</time>
      </trkpt>
      <trkpt lat="44.15525" lon="6.0782">
        <ele>1283</ele>
        <time>2022-03-03T11:28:52.000Z</time>
      </trkpt>
      <trkpt lat="44.15526" lon="6.0782">
        <ele>1283</ele>
        <time>2022-03-03T11:28:53.000Z</time>
      </trkpt>
      <trkpt lat="44.15526" lon="6.0782">
        <ele>1283</ele>
        <time>2022-03-03T11:28:54.000Z</time>
      </trkpt>
      <trkpt lat="44.15527" lon="6.0782">
        <ele>1284</ele>
        <time>2022-03-03T11:28:55.000Z</time>
      </trkpt>
      <trkpt lat="44.15527" lon="6.0782">
        <ele>1284</ele>
        <time>2022-03-03T11:28:56.000Z</time>
      </trkpt>
      <trkpt lat="44.15528" lon="6.07819">
        <ele>1284</ele>
        <time>2022-03-03T11:28:57.000Z</time>
      </trkpt>
      <trkpt lat="44.15528" lon="6.07819">
        <ele>1284</ele>
        <time>2022-03-03T11:28:58.000Z</time>
      </trkpt>
      <trkpt lat="44.15528" lon="6.07819">
        <ele>1284</ele>
        <time>2022-03-03T11:28:59.000Z</time>
      </trkpt>
      <trkpt lat="44.15529" lon="6.07819">
        <ele>1284</ele>
        <time>2022-03-03T11:29:00.000Z</time>
      </trkpt>
      <trkpt lat="44.15529" lon="6.07819">
        <ele>1285</ele>
        <time>2022-03-03T11:29:01.000Z</time>
      </trkpt>
      <trkpt lat="44.1553" lon="6.07819">
        <ele>1285</ele>
        <time>2022-03-03T11:29:02.000Z</time>
      </trkpt>
      <trkpt lat="44.1553" lon="6.07818">
        <ele>1285</ele>
        <time>2022-03-03T11:29:03.000Z</time>
      </trkpt>
      <trkpt lat="44.15531" lon="6.07818">
        <ele>1285</ele>
        <time>2022-03-03T11:29:04.000Z</time>
      </trkpt>
      <trkpt lat="44.15531" lon="6.07818">
        <ele>1285</ele>
        <time>2022-03-03T11:29:05.000Z</time>
      </trkpt>
      <trkpt lat="44.15531" lon="6.07818">
        <ele>1286</ele>
        <time>2022-03-03T11:29:06.000Z</time>
      </trkpt>
      <trkpt lat="44.15532" lon="6.07818">
        <ele>1286</ele>
        <time>2022-03-03T11:29:07.000Z</time>
      </trkpt>
      <trkpt lat="44.15532" lon="6.07817">
        <ele>1286</ele>
        <time>2022-03-03T11:29:08.000Z</time>
      </trkpt>
      <trkpt lat="44.15533" lon="6.07817">
        <ele>1286</ele>
        <time>2022-03-03T11:29:09.000Z</time>
      </trkpt>
      <trkpt lat="44.15534" lon="6.07817">
        <ele>1286</ele>
        <time>2022-03-03T11:29:10.000Z</time>
      </trkpt>
      <trkpt lat="44.15534" lon="6.07817">
        <ele>1287</ele>
        <time>2022-03-03T11:29:11.000Z</time>
      </trkpt>
      <trkpt lat="44.15534" lon="6.07817">
        <ele>1287</ele>
        <time>2022-03-03T11:29:12.000Z</time>
      </trkpt>
      <trkpt lat="44.15535" lon="6.07817">
        <ele>1287</ele>
        <time>2022-03-03T11:29:13.000Z</time>
      </trkpt>
      <trkpt lat="44.15535" lon="6.07817">
        <ele>1287</ele>
        <time>2022-03-03T11:29:14.000Z</time>
      </trkpt>
      <trkpt lat="44.15536" lon="6.07816">
        <ele>1287</ele>
        <time>2022-03-03T11:29:15.000Z</time>
      </trkpt>
      <trkpt lat="44.15536" lon="6.07816">
        <ele>1287</ele>
        <time>2022-03-03T11:29:16.000Z</time>
      </trkpt>
      <trkpt lat="44.15537" lon="6.07816">
        <ele>1287</ele>
        <time>2022-03-03T11:29:17.000Z</time>
      </trkpt>
      <trkpt lat="44.15537" lon="6.07816">
        <ele>1288</ele>
        <time>2022-03-03T11:29:18.000Z</time>
      </trkpt>
      <trkpt lat="44.15538" lon="6.07815">
        <ele>1288</ele>
        <time>2022-03-03T11:29:19.000Z</time>
      </trkpt>
      <trkpt lat="44.15538" lon="6.07815">
        <ele>1288</ele>
        <time>2022-03-03T11:29:20.000Z</time>
      </trkpt>
      <trkpt lat="44.15539" lon="6.07815">
        <ele>1288</ele>
        <time>2022-03-03T11:29:21.000Z</time>
      </trkpt>
      <trkpt lat="44.1554" lon="6.07815">
        <ele>1288</ele>
        <time>2022-03-03T11:29:22.000Z</time>
      </trkpt>
      <trkpt lat="44.1554" lon="6.07815">
        <ele>1288</ele>
        <time>2022-03-03T11:29:23.000Z</time>
      </trkpt>
      <trkpt lat="44.1554" lon="6.07815">
        <ele>1288</ele>
        <time>2022-03-03T11:29:24.000Z</time>
      </trkpt>
      <trkpt lat="44.15541" lon="6.07814">
        <ele>1288</ele>
        <time>2022-03-03T11:29:25.000Z</time>
      </trkpt>
      <trkpt lat="44.15541" lon="6.07814">
        <ele>1288</ele>
        <time>2022-03-03T11:29:26.000Z</time>
      </trkpt>
      <trkpt lat="44.15542" lon="6.07814">
        <ele>1288</ele>
        <time>2022-03-03T11:29:27.000Z</time>
      </trkpt>
      <trkpt lat="44.15542" lon="6.07814">
        <ele>1288</ele>
        <time>2022-03-03T11:29:28.000Z</time>
      </trkpt>
      <trkpt lat="44.15543" lon="6.07814">
        <ele>1288</ele>
        <time>2022-03-03T11:29:29.000Z</time>
      </trkpt>
      <trkpt lat="44.15543" lon="6.07813">
        <ele>1288</ele>
        <time>2022-03-03T11:29:30.000Z</time>
      </trkpt>
      <trkpt lat="44.15544" lon="6.07814">
        <ele>1288</ele>
        <time>2022-03-03T11:29:31.000Z</time>
      </trkpt>
      <trkpt lat="44.15544" lon="6.07813">
        <ele>1289</ele>
        <time>2022-03-03T11:29:32.000Z</time>
      </trkpt>
      <trkpt lat="44.15545" lon="6.07813">
        <ele>1289</ele>
        <time>2022-03-03T11:29:33.000Z</time>
      </trkpt>
      <trkpt lat="44.15546" lon="6.07813">
        <ele>1289</ele>
        <time>2022-03-03T11:29:34.000Z</time>
      </trkpt>
      <trkpt lat="44.15546" lon="6.07813">
        <ele>1289</ele>
        <time>2022-03-03T11:29:35.000Z</time>
      </trkpt>
      <trkpt lat="44.15547" lon="6.07813">
        <ele>1290</ele>
        <time>2022-03-03T11:29:36.000Z</time>
      </trkpt>
      <trkpt lat="44.15547" lon="6.07813">
        <ele>1290</ele>
        <time>2022-03-03T11:29:37.000Z</time>
      </trkpt>
      <trkpt lat="44.15548" lon="6.07813">
        <ele>1290</ele>
        <time>2022-03-03T11:29:38.000Z</time>
      </trkpt>
      <trkpt lat="44.15548" lon="6.07813">
        <ele>1290</ele>
        <time>2022-03-03T11:29:39.000Z</time>
      </trkpt>
      <trkpt lat="44.15548" lon="6.07813">
        <ele>1290</ele>
        <time>2022-03-03T11:29:40.000Z</time>
      </trkpt>
      <trkpt lat="44.15548" lon="6.07813">
        <ele>1290</ele>
        <time>2022-03-03T11:29:41.000Z</time>
      </trkpt>
      <trkpt lat="44.15548" lon="6.07813">
        <ele>1290</ele>
        <time>2022-03-03T11:29:42.000Z</time>
      </trkpt>
      <trkpt lat="44.15548" lon="6.07813">
        <ele>1290</ele>
        <time>2022-03-03T11:29:43.000Z</time>
      </trkpt>
      <trkpt lat="44.15548" lon="6.07813">
        <ele>1290</ele>
        <time>2022-03-03T11:29:44.000Z</time>
      </trkpt>
      <trkpt lat="44.15548" lon="6.07813">
        <ele>1290</ele>
        <time>2022-03-03T11:29:45.000Z</time>
      </trkpt>
      <trkpt lat="44.15548" lon="6.07813">
        <ele>1290</ele>
        <time>2022-03-03T11:29:46.000Z</time>
      </trkpt>
      <trkpt lat="44.15548" lon="6.07813">
        <ele>1290</ele>
        <time>2022-03-03T11:29:47.000Z</time>
      </trkpt>
      <trkpt lat="44.15548" lon="6.07813">
        <ele>1290</ele>
        <time>2022-03-03T11:29:48.000Z</time>
      </trkpt>
      <trkpt lat="44.15548" lon="6.07813">
        <ele>1290</ele>
        <time>2022-03-03T11:29:49.000Z</time>
      </trkpt>
      <trkpt lat="44.15548" lon="6.07813">
        <ele>1291</ele>
        <time>2022-03-03T11:29:50.000Z</time>
      </trkpt>
      <trkpt lat="44.15548" lon="6.07813">
        <ele>1291</ele>
        <time>2022-03-03T11:29:51.000Z</time>
      </trkpt>
      <trkpt lat="44.15548" lon="6.07813">
        <ele>1291</ele>
        <time>2022-03-03T11:29:52.000Z</time>
      </trkpt>
      <trkpt lat="44.15548" lon="6.07813">
        <ele>1291</ele>
        <time>2022-03-03T11:29:53.000Z</time>
      </trkpt>
      <trkpt lat="44.15548" lon="6.07813">
        <ele>1291</ele>
        <time>2022-03-03T11:29:54.000Z</time>
      </trkpt>
      <trkpt lat="44.15548" lon="6.07813">
        <ele>1291</ele>
        <time>2022-03-03T11:29:55.000Z</time>
      </trkpt>
      <trkpt lat="44.15548" lon="6.07813">
        <ele>1291</ele>
        <time>2022-03-03T11:29:56.000Z</time>
      </trkpt>
      <trkpt lat="44.15548" lon="6.07813">
        <ele>1291</ele>
        <time>2022-03-03T11:29:57.000Z</time>
      </trkpt>
      <trkpt lat="44.15548" lon="6.07813">
        <ele>1291</ele>
        <time>2022-03-03T11:29:58.000Z</time>
      </trkpt>
      <trkpt lat="44.15548" lon="6.07813">
        <ele>1291</ele>
        <time>2022-03-03T11:29:59.000Z</time>
      </trkpt>
      <trkpt lat="44.15548" lon="6.07813">
        <ele>1291</ele>
        <time>2022-03-03T11:30:00.000Z</time>
      </trkpt>
      <trkpt lat="44.15548" lon="6.07813">
        <ele>1291</ele>
        <time>2022-03-03T11:30:01.000Z</time>
      </trkpt>
      <trkpt lat="44.15548" lon="6.07813">
        <ele>1291</ele>
        <time>2022-03-03T11:30:02.000Z</time>
      </trkpt>
      <trkpt lat="44.15548" lon="6.07813">
        <ele>1291</ele>
        <time>2022-03-03T11:30:03.000Z</time>
      </trkpt>
      <trkpt lat="44.15548" lon="6.07813">
        <ele>1291</ele>
        <time>2022-03-03T11:30:04.000Z</time>
      </trkpt>
      <trkpt lat="44.15548" lon="6.07813">
        <ele>1291</ele>
        <time>2022-03-03T11:30:05.000Z</time>
      </trkpt>
      <trkpt lat="44.15548" lon="6.07813">
        <ele>1291</ele>
        <time>2022-03-03T11:30:06.000Z</time>
      </trkpt>
      <trkpt lat="44.15548" lon="6.07813">
        <ele>1291</ele>
        <time>2022-03-03T11:30:07.000Z</time>
      </trkpt>
      <trkpt lat="44.15548" lon="6.07813">
        <ele>1291</ele>
        <time>2022-03-03T11:30:08.000Z</time>
      </trkpt>
      <trkpt lat="44.15548" lon="6.07813">
        <ele>1291</ele>
        <time>2022-03-03T11:30:09.000Z</time>
      </trkpt>
      <trkpt lat="44.15548" lon="6.07813">
        <ele>1291</ele>
        <time>2022-03-03T11:30:10.000Z</time>
      </trkpt>
      <trkpt lat="44.15548" lon="6.07813">
        <ele>1291</ele>
        <time>2022-03-03T11:30:11.000Z</time>
      </trkpt>
      <trkpt lat="44.15548" lon="6.07813">
        <ele>1291</ele>
        <time>2022-03-03T11:30:12.000Z</time>
      </trkpt>
      <trkpt lat="44.15548" lon="6.07813">
        <ele>1291</ele>
        <time>2022-03-03T11:30:13.000Z</time>
      </trkpt>
      <trkpt lat="44.15548" lon="6.07813">
        <ele>1291</ele>
        <time>2022-03-03T11:30:14.000Z</time>
      </trkpt>
      <trkpt lat="44.15548" lon="6.07813">
        <ele>1291</ele>
        <time>2022-03-03T11:30:15.000Z</time>
      </trkpt>
      <trkpt lat="44.15548" lon="6.07813">
        <ele>1291</ele>
        <time>2022-03-03T11:30:16.000Z</time>
      </trkpt>
      <trkpt lat="44.15548" lon="6.07813">
        <ele>1291</ele>
        <time>2022-03-03T11:30:17.000Z</time>
      </trkpt>
      <trkpt lat="44.15548" lon="6.07813">
        <ele>1291</ele>
        <time>2022-03-03T11:30:18.000Z</time>
      </trkpt>
      <trkpt lat="44.15548" lon="6.07813">
        <ele>1291</ele>
        <time>2022-03-03T11:30:19.000Z</time>
      </trkpt>
      <trkpt lat="44.15548" lon="6.07812">
        <ele>1291</ele>
        <time>2022-03-03T11:30:20.000Z</time>
      </trkpt>
      <trkpt lat="44.15549" lon="6.07812">
        <ele>1291</ele>
        <time>2022-03-03T11:30:21.000Z</time>
      </trkpt>
      <trkpt lat="44.15549" lon="6.07812">
        <ele>1291</ele>
        <time>2022-03-03T11:30:22.000Z</time>
      </trkpt>
      <trkpt lat="44.1555" lon="6.07812">
        <ele>1291</ele>
        <time>2022-03-03T11:30:23.000Z</time>
      </trkpt>
      <trkpt lat="44.15551" lon="6.07811">
        <ele>1291</ele>
        <time>2022-03-03T11:30:24.000Z</time>
      </trkpt>
      <trkpt lat="44.15551" lon="6.07811">
        <ele>1291</ele>
        <time>2022-03-03T11:30:25.000Z</time>
      </trkpt>
      <trkpt lat="44.15552" lon="6.07811">
        <ele>1291</ele>
        <time>2022-03-03T11:30:26.000Z</time>
      </trkpt>
      <trkpt lat="44.15552" lon="6.07811">
        <ele>1292</ele>
        <time>2022-03-03T11:30:27.000Z</time>
      </trkpt>
      <trkpt lat="44.15553" lon="6.07811">
        <ele>1292</ele>
        <time>2022-03-03T11:30:28.000Z</time>
      </trkpt>
      <trkpt lat="44.15553" lon="6.07811">
        <ele>1292</ele>
        <time>2022-03-03T11:30:29.000Z</time>
      </trkpt>
      <trkpt lat="44.15554" lon="6.0781">
        <ele>1292</ele>
        <time>2022-03-03T11:30:30.000Z</time>
      </trkpt>
      <trkpt lat="44.15554" lon="6.0781">
        <ele>1292</ele>
        <time>2022-03-03T11:30:31.000Z</time>
      </trkpt>
      <trkpt lat="44.15555" lon="6.0781">
        <ele>1293</ele>
        <time>2022-03-03T11:30:32.000Z</time>
      </trkpt>
      <trkpt lat="44.15556" lon="6.07809">
        <ele>1293</ele>
        <time>2022-03-03T11:30:33.000Z</time>
      </trkpt>
      <trkpt lat="44.15556" lon="6.07809">
        <ele>1293</ele>
        <time>2022-03-03T11:30:34.000Z</time>
      </trkpt>
      <trkpt lat="44.15557" lon="6.07809">
        <ele>1293</ele>
        <time>2022-03-03T11:30:35.000Z</time>
      </trkpt>
      <trkpt lat="44.15557" lon="6.07809">
        <ele>1293</ele>
        <time>2022-03-03T11:30:36.000Z</time>
      </trkpt>
      <trkpt lat="44.15558" lon="6.07809">
        <ele>1293</ele>
        <time>2022-03-03T11:30:37.000Z</time>
      </trkpt>
      <trkpt lat="44.15559" lon="6.07809">
        <ele>1293</ele>
        <time>2022-03-03T11:30:38.000Z</time>
      </trkpt>
      <trkpt lat="44.15559" lon="6.07808">
        <ele>1294</ele>
        <time>2022-03-03T11:30:39.000Z</time>
      </trkpt>
      <trkpt lat="44.1556" lon="6.07808">
        <ele>1294</ele>
        <time>2022-03-03T11:30:40.000Z</time>
      </trkpt>
      <trkpt lat="44.1556" lon="6.07808">
        <ele>1294</ele>
        <time>2022-03-03T11:30:41.000Z</time>
      </trkpt>
      <trkpt lat="44.15561" lon="6.07808">
        <ele>1294</ele>
        <time>2022-03-03T11:30:42.000Z</time>
      </trkpt>
      <trkpt lat="44.15562" lon="6.07808">
        <ele>1294</ele>
        <time>2022-03-03T11:30:43.000Z</time>
      </trkpt>
      <trkpt lat="44.15562" lon="6.07808">
        <ele>1294</ele>
        <time>2022-03-03T11:30:44.000Z</time>
      </trkpt>
      <trkpt lat="44.15563" lon="6.07807">
        <ele>1295</ele>
        <time>2022-03-03T11:30:45.000Z</time>
      </trkpt>
      <trkpt lat="44.15564" lon="6.07807">
        <ele>1295</ele>
        <time>2022-03-03T11:30:46.000Z</time>
      </trkpt>
      <trkpt lat="44.15564" lon="6.07807">
        <ele>1295</ele>
        <time>2022-03-03T11:30:47.000Z</time>
      </trkpt>
      <trkpt lat="44.15565" lon="6.07807">
        <ele>1295</ele>
        <time>2022-03-03T11:30:48.000Z</time>
      </trkpt>
      <trkpt lat="44.15565" lon="6.07806">
        <ele>1295</ele>
        <time>2022-03-03T11:30:49.000Z</time>
      </trkpt>
      <trkpt lat="44.15566" lon="6.07806">
        <ele>1295</ele>
        <time>2022-03-03T11:30:50.000Z</time>
      </trkpt>
      <trkpt lat="44.15567" lon="6.07806">
        <ele>1296</ele>
        <time>2022-03-03T11:30:51.000Z</time>
      </trkpt>
      <trkpt lat="44.15567" lon="6.07805">
        <ele>1296</ele>
        <time>2022-03-03T11:30:52.000Z</time>
      </trkpt>
      <trkpt lat="44.15568" lon="6.07805">
        <ele>1296</ele>
        <time>2022-03-03T11:30:53.000Z</time>
      </trkpt>
      <trkpt lat="44.15568" lon="6.07805">
        <ele>1296</ele>
        <time>2022-03-03T11:30:54.000Z</time>
      </trkpt>
      <trkpt lat="44.15569" lon="6.07805">
        <ele>1296</ele>
        <time>2022-03-03T11:30:55.000Z</time>
      </trkpt>
      <trkpt lat="44.15569" lon="6.07805">
        <ele>1297</ele>
        <time>2022-03-03T11:30:56.000Z</time>
      </trkpt>
      <trkpt lat="44.1557" lon="6.07805">
        <ele>1297</ele>
        <time>2022-03-03T11:30:57.000Z</time>
      </trkpt>
      <trkpt lat="44.15571" lon="6.07804">
        <ele>1297</ele>
        <time>2022-03-03T11:30:58.000Z</time>
      </trkpt>
      <trkpt lat="44.15571" lon="6.07804">
        <ele>1297</ele>
        <time>2022-03-03T11:30:59.000Z</time>
      </trkpt>
      <trkpt lat="44.15572" lon="6.07804">
        <ele>1297</ele>
        <time>2022-03-03T11:31:00.000Z</time>
      </trkpt>
      <trkpt lat="44.15572" lon="6.07803">
        <ele>1297</ele>
        <time>2022-03-03T11:31:01.000Z</time>
      </trkpt>
      <trkpt lat="44.15573" lon="6.07803">
        <ele>1298</ele>
        <time>2022-03-03T11:31:02.000Z</time>
      </trkpt>
      <trkpt lat="44.15573" lon="6.07803">
        <ele>1298</ele>
        <time>2022-03-03T11:31:03.000Z</time>
      </trkpt>
      <trkpt lat="44.15574" lon="6.07803">
        <ele>1298</ele>
        <time>2022-03-03T11:31:04.000Z</time>
      </trkpt>
      <trkpt lat="44.15574" lon="6.07803">
        <ele>1298</ele>
        <time>2022-03-03T11:31:05.000Z</time>
      </trkpt>
      <trkpt lat="44.15575" lon="6.07802">
        <ele>1298</ele>
        <time>2022-03-03T11:31:06.000Z</time>
      </trkpt>
      <trkpt lat="44.15575" lon="6.07802">
        <ele>1299</ele>
        <time>2022-03-03T11:31:07.000Z</time>
      </trkpt>
      <trkpt lat="44.15576" lon="6.07802">
        <ele>1299</ele>
        <time>2022-03-03T11:31:08.000Z</time>
      </trkpt>
      <trkpt lat="44.15576" lon="6.07801">
        <ele>1299</ele>
        <time>2022-03-03T11:31:09.000Z</time>
      </trkpt>
      <trkpt lat="44.15577" lon="6.07801">
        <ele>1299</ele>
        <time>2022-03-03T11:31:10.000Z</time>
      </trkpt>
      <trkpt lat="44.15577" lon="6.07801">
        <ele>1299</ele>
        <time>2022-03-03T11:31:11.000Z</time>
      </trkpt>
      <trkpt lat="44.15578" lon="6.078">
        <ele>1299</ele>
        <time>2022-03-03T11:31:12.000Z</time>
      </trkpt>
      <trkpt lat="44.15578" lon="6.078">
        <ele>1300</ele>
        <time>2022-03-03T11:31:13.000Z</time>
      </trkpt>
      <trkpt lat="44.15579" lon="6.07799">
        <ele>1300</ele>
        <time>2022-03-03T11:31:14.000Z</time>
      </trkpt>
      <trkpt lat="44.15579" lon="6.07799">
        <ele>1300</ele>
        <time>2022-03-03T11:31:15.000Z</time>
      </trkpt>
      <trkpt lat="44.1558" lon="6.07799">
        <ele>1300</ele>
        <time>2022-03-03T11:31:16.000Z</time>
      </trkpt>
      <trkpt lat="44.1558" lon="6.07798">
        <ele>1300</ele>
        <time>2022-03-03T11:31:17.000Z</time>
      </trkpt>
      <trkpt lat="44.15581" lon="6.07798">
        <ele>1300</ele>
        <time>2022-03-03T11:31:18.000Z</time>
      </trkpt>
      <trkpt lat="44.15581" lon="6.07798">
        <ele>1301</ele>
        <time>2022-03-03T11:31:19.000Z</time>
      </trkpt>
      <trkpt lat="44.15582" lon="6.07797">
        <ele>1301</ele>
        <time>2022-03-03T11:31:20.000Z</time>
      </trkpt>
      <trkpt lat="44.15583" lon="6.07797">
        <ele>1301</ele>
        <time>2022-03-03T11:31:21.000Z</time>
      </trkpt>
      <trkpt lat="44.15583" lon="6.07797">
        <ele>1301</ele>
        <time>2022-03-03T11:31:22.000Z</time>
      </trkpt>
      <trkpt lat="44.15583" lon="6.07796">
        <ele>1301</ele>
        <time>2022-03-03T11:31:23.000Z</time>
      </trkpt>
      <trkpt lat="44.15583" lon="6.07796">
        <ele>1301</ele>
        <time>2022-03-03T11:31:24.000Z</time>
      </trkpt>
      <trkpt lat="44.15583" lon="6.07796">
        <ele>1301</ele>
        <time>2022-03-03T11:31:25.000Z</time>
      </trkpt>
      <trkpt lat="44.15583" lon="6.07796">
        <ele>1301</ele>
        <time>2022-03-03T11:31:26.000Z</time>
      </trkpt>
      <trkpt lat="44.15583" lon="6.07796">
        <ele>1301</ele>
        <time>2022-03-03T11:31:27.000Z</time>
      </trkpt>
      <trkpt lat="44.15583" lon="6.07796">
        <ele>1301</ele>
        <time>2022-03-03T11:31:28.000Z</time>
      </trkpt>
      <trkpt lat="44.15583" lon="6.07796">
        <ele>1301</ele>
        <time>2022-03-03T11:31:29.000Z</time>
      </trkpt>
      <trkpt lat="44.15583" lon="6.07796">
        <ele>1301</ele>
        <time>2022-03-03T11:31:30.000Z</time>
      </trkpt>
      <trkpt lat="44.15583" lon="6.07796">
        <ele>1301</ele>
        <time>2022-03-03T11:31:31.000Z</time>
      </trkpt>
      <trkpt lat="44.15583" lon="6.07796">
        <ele>1301</ele>
        <time>2022-03-03T11:31:32.000Z</time>
      </trkpt>
      <trkpt lat="44.15583" lon="6.07796">
        <ele>1301</ele>
        <time>2022-03-03T11:31:33.000Z</time>
      </trkpt>
      <trkpt lat="44.15583" lon="6.07796">
        <ele>1301</ele>
        <time>2022-03-03T11:31:34.000Z</time>
      </trkpt>
      <trkpt lat="44.15583" lon="6.07796">
        <ele>1301</ele>
        <time>2022-03-03T11:31:35.000Z</time>
      </trkpt>
      <trkpt lat="44.15583" lon="6.07796">
        <ele>1301</ele>
        <time>2022-03-03T11:31:36.000Z</time>
      </trkpt>
      <trkpt lat="44.15583" lon="6.07796">
        <ele>1302</ele>
        <time>2022-03-03T11:31:37.000Z</time>
      </trkpt>
      <trkpt lat="44.15583" lon="6.07796">
        <ele>1302</ele>
        <time>2022-03-03T11:31:38.000Z</time>
      </trkpt>
      <trkpt lat="44.15583" lon="6.07796">
        <ele>1302</ele>
        <time>2022-03-03T11:31:39.000Z</time>
      </trkpt>
      <trkpt lat="44.15583" lon="6.07796">
        <ele>1302</ele>
        <time>2022-03-03T11:31:40.000Z</time>
      </trkpt>
      <trkpt lat="44.15583" lon="6.07796">
        <ele>1302</ele>
        <time>2022-03-03T11:31:41.000Z</time>
      </trkpt>
      <trkpt lat="44.15583" lon="6.07796">
        <ele>1302</ele>
        <time>2022-03-03T11:31:42.000Z</time>
      </trkpt>
      <trkpt lat="44.15583" lon="6.07796">
        <ele>1302</ele>
        <time>2022-03-03T11:31:43.000Z</time>
      </trkpt>
      <trkpt lat="44.15583" lon="6.07796">
        <ele>1302</ele>
        <time>2022-03-03T11:31:44.000Z</time>
      </trkpt>
      <trkpt lat="44.15583" lon="6.07796">
        <ele>1302</ele>
        <time>2022-03-03T11:31:45.000Z</time>
      </trkpt>
      <trkpt lat="44.15583" lon="6.07796">
        <ele>1302</ele>
        <time>2022-03-03T11:31:46.000Z</time>
      </trkpt>
      <trkpt lat="44.15583" lon="6.07796">
        <ele>1302</ele>
        <time>2022-03-03T11:31:47.000Z</time>
      </trkpt>
      <trkpt lat="44.15583" lon="6.07796">
        <ele>1302</ele>
        <time>2022-03-03T11:31:48.000Z</time>
      </trkpt>
      <trkpt lat="44.15583" lon="6.07796">
        <ele>1302</ele>
        <time>2022-03-03T11:31:49.000Z</time>
      </trkpt>
      <trkpt lat="44.15583" lon="6.07796">
        <ele>1302</ele>
        <time>2022-03-03T11:31:50.000Z</time>
      </trkpt>
      <trkpt lat="44.15583" lon="6.07796">
        <ele>1302</ele>
        <time>2022-03-03T11:31:51.000Z</time>
      </trkpt>
      <trkpt lat="44.15584" lon="6.07796">
        <ele>1302</ele>
        <time>2022-03-03T11:31:52.000Z</time>
      </trkpt>
      <trkpt lat="44.15584" lon="6.07796">
        <ele>1302</ele>
        <time>2022-03-03T11:31:53.000Z</time>
      </trkpt>
      <trkpt lat="44.15585" lon="6.07795">
        <ele>1302</ele>
        <time>2022-03-03T11:31:54.000Z</time>
      </trkpt>
      <trkpt lat="44.15585" lon="6.07795">
        <ele>1302</ele>
        <time>2022-03-03T11:31:55.000Z</time>
      </trkpt>
      <trkpt lat="44.15585" lon="6.07795">
        <ele>1302</ele>
        <time>2022-03-03T11:31:56.000Z</time>
      </trkpt>
      <trkpt lat="44.15586" lon="6.07794">
        <ele>1303</ele>
        <time>2022-03-03T11:31:57.000Z</time>
      </trkpt>
      <trkpt lat="44.15586" lon="6.07794">
        <ele>1303</ele>
        <time>2022-03-03T11:31:58.000Z</time>
      </trkpt>
      <trkpt lat="44.15587" lon="6.07794">
        <ele>1303</ele>
        <time>2022-03-03T11:31:59.000Z</time>
      </trkpt>
      <trkpt lat="44.15588" lon="6.07794">
        <ele>1303</ele>
        <time>2022-03-03T11:32:00.000Z</time>
      </trkpt>
      <trkpt lat="44.15588" lon="6.07794">
        <ele>1303</ele>
        <time>2022-03-03T11:32:01.000Z</time>
      </trkpt>
      <trkpt lat="44.15589" lon="6.07793">
        <ele>1303</ele>
        <time>2022-03-03T11:32:02.000Z</time>
      </trkpt>
      <trkpt lat="44.15589" lon="6.07793">
        <ele>1303</ele>
        <time>2022-03-03T11:32:03.000Z</time>
      </trkpt>
      <trkpt lat="44.1559" lon="6.07793">
        <ele>1304</ele>
        <time>2022-03-03T11:32:04.000Z</time>
      </trkpt>
      <trkpt lat="44.1559" lon="6.07793">
        <ele>1304</ele>
        <time>2022-03-03T11:32:05.000Z</time>
      </trkpt>
      <trkpt lat="44.15591" lon="6.07793">
        <ele>1304</ele>
        <time>2022-03-03T11:32:06.000Z</time>
      </trkpt>
      <trkpt lat="44.15592" lon="6.07793">
        <ele>1304</ele>
        <time>2022-03-03T11:32:07.000Z</time>
      </trkpt>
      <trkpt lat="44.15592" lon="6.07793">
        <ele>1304</ele>
        <time>2022-03-03T11:32:08.000Z</time>
      </trkpt>
      <trkpt lat="44.15593" lon="6.07793">
        <ele>1305</ele>
        <time>2022-03-03T11:32:09.000Z</time>
      </trkpt>
      <trkpt lat="44.15593" lon="6.07793">
        <ele>1305</ele>
        <time>2022-03-03T11:32:10.000Z</time>
      </trkpt>
      <trkpt lat="44.15594" lon="6.07793">
        <ele>1305</ele>
        <time>2022-03-03T11:32:11.000Z</time>
      </trkpt>
      <trkpt lat="44.15595" lon="6.07793">
        <ele>1305</ele>
        <time>2022-03-03T11:32:12.000Z</time>
      </trkpt>
      <trkpt lat="44.15595" lon="6.07793">
        <ele>1305</ele>
        <time>2022-03-03T11:32:13.000Z</time>
      </trkpt>
      <trkpt lat="44.15596" lon="6.07793">
        <ele>1305</ele>
        <time>2022-03-03T11:32:14.000Z</time>
      </trkpt>
      <trkpt lat="44.15597" lon="6.07793">
        <ele>1305</ele>
        <time>2022-03-03T11:32:15.000Z</time>
      </trkpt>
      <trkpt lat="44.15597" lon="6.07793">
        <ele>1306</ele>
        <time>2022-03-03T11:32:16.000Z</time>
      </trkpt>
      <trkpt lat="44.15598" lon="6.07793">
        <ele>1306</ele>
        <time>2022-03-03T11:32:17.000Z</time>
      </trkpt>
      <trkpt lat="44.15598" lon="6.07794">
        <ele>1306</ele>
        <time>2022-03-03T11:32:18.000Z</time>
      </trkpt>
      <trkpt lat="44.15599" lon="6.07794">
        <ele>1306</ele>
        <time>2022-03-03T11:32:19.000Z</time>
      </trkpt>
      <trkpt lat="44.156" lon="6.07794">
        <ele>1306</ele>
        <time>2022-03-03T11:32:20.000Z</time>
      </trkpt>
      <trkpt lat="44.156" lon="6.07794">
        <ele>1306</ele>
        <time>2022-03-03T11:32:21.000Z</time>
      </trkpt>
      <trkpt lat="44.15601" lon="6.07794">
        <ele>1307</ele>
        <time>2022-03-03T11:32:22.000Z</time>
      </trkpt>
      <trkpt lat="44.15602" lon="6.07795">
        <ele>1307</ele>
        <time>2022-03-03T11:32:23.000Z</time>
      </trkpt>
      <trkpt lat="44.15602" lon="6.07795">
        <ele>1307</ele>
        <time>2022-03-03T11:32:24.000Z</time>
      </trkpt>
      <trkpt lat="44.15603" lon="6.07795">
        <ele>1307</ele>
        <time>2022-03-03T11:32:25.000Z</time>
      </trkpt>
      <trkpt lat="44.15603" lon="6.07795">
        <ele>1307</ele>
        <time>2022-03-03T11:32:26.000Z</time>
      </trkpt>
      <trkpt lat="44.15604" lon="6.07795">
        <ele>1307</ele>
        <time>2022-03-03T11:32:27.000Z</time>
      </trkpt>
      <trkpt lat="44.15605" lon="6.07795">
        <ele>1308</ele>
        <time>2022-03-03T11:32:28.000Z</time>
      </trkpt>
      <trkpt lat="44.15605" lon="6.07795">
        <ele>1308</ele>
        <time>2022-03-03T11:32:29.000Z</time>
      </trkpt>
      <trkpt lat="44.15606" lon="6.07795">
        <ele>1308</ele>
        <time>2022-03-03T11:32:30.000Z</time>
      </trkpt>
      <trkpt lat="44.15607" lon="6.07795">
        <ele>1308</ele>
        <time>2022-03-03T11:32:31.000Z</time>
      </trkpt>
      <trkpt lat="44.15607" lon="6.07795">
        <ele>1308</ele>
        <time>2022-03-03T11:32:32.000Z</time>
      </trkpt>
      <trkpt lat="44.15608" lon="6.07796">
        <ele>1308</ele>
        <time>2022-03-03T11:32:33.000Z</time>
      </trkpt>
      <trkpt lat="44.15609" lon="6.07796">
        <ele>1309</ele>
        <time>2022-03-03T11:32:34.000Z</time>
      </trkpt>
      <trkpt lat="44.15609" lon="6.07796">
        <ele>1309</ele>
        <time>2022-03-03T11:32:35.000Z</time>
      </trkpt>
      <trkpt lat="44.1561" lon="6.07796">
        <ele>1309</ele>
        <time>2022-03-03T11:32:36.000Z</time>
      </trkpt>
      <trkpt lat="44.1561" lon="6.07796">
        <ele>1309</ele>
        <time>2022-03-03T11:32:37.000Z</time>
      </trkpt>
      <trkpt lat="44.15611" lon="6.07796">
        <ele>1309</ele>
        <time>2022-03-03T11:32:38.000Z</time>
      </trkpt>
      <trkpt lat="44.15612" lon="6.07796">
        <ele>1309</ele>
        <time>2022-03-03T11:32:39.000Z</time>
      </trkpt>
      <trkpt lat="44.15612" lon="6.07796">
        <ele>1310</ele>
        <time>2022-03-03T11:32:40.000Z</time>
      </trkpt>
      <trkpt lat="44.15613" lon="6.07796">
        <ele>1310</ele>
        <time>2022-03-03T11:32:41.000Z</time>
      </trkpt>
      <trkpt lat="44.15614" lon="6.07796">
        <ele>1310</ele>
        <time>2022-03-03T11:32:42.000Z</time>
      </trkpt>
      <trkpt lat="44.15614" lon="6.07796">
        <ele>1310</ele>
        <time>2022-03-03T11:32:43.000Z</time>
      </trkpt>
      <trkpt lat="44.15615" lon="6.07796">
        <ele>1310</ele>
        <time>2022-03-03T11:32:44.000Z</time>
      </trkpt>
      <trkpt lat="44.15616" lon="6.07796">
        <ele>1310</ele>
        <time>2022-03-03T11:32:45.000Z</time>
      </trkpt>
      <trkpt lat="44.15616" lon="6.07796">
        <ele>1311</ele>
        <time>2022-03-03T11:32:46.000Z</time>
      </trkpt>
      <trkpt lat="44.15617" lon="6.07796">
        <ele>1311</ele>
        <time>2022-03-03T11:32:47.000Z</time>
      </trkpt>
      <trkpt lat="44.15617" lon="6.07796">
        <ele>1311</ele>
        <time>2022-03-03T11:32:48.000Z</time>
      </trkpt>
      <trkpt lat="44.15618" lon="6.07797">
        <ele>1311</ele>
        <time>2022-03-03T11:32:49.000Z</time>
      </trkpt>
      <trkpt lat="44.15619" lon="6.07797">
        <ele>1311</ele>
        <time>2022-03-03T11:32:50.000Z</time>
      </trkpt>
      <trkpt lat="44.15619" lon="6.07797">
        <ele>1311</ele>
        <time>2022-03-03T11:32:51.000Z</time>
      </trkpt>
      <trkpt lat="44.1562" lon="6.07797">
        <ele>1311</ele>
        <time>2022-03-03T11:32:52.000Z</time>
      </trkpt>
      <trkpt lat="44.1562" lon="6.07797">
        <ele>1311</ele>
        <time>2022-03-03T11:32:53.000Z</time>
      </trkpt>
      <trkpt lat="44.15621" lon="6.07797">
        <ele>1311</ele>
        <time>2022-03-03T11:32:54.000Z</time>
      </trkpt>
      <trkpt lat="44.15622" lon="6.07797">
        <ele>1311</ele>
        <time>2022-03-03T11:32:55.000Z</time>
      </trkpt>
      <trkpt lat="44.15622" lon="6.07797">
        <ele>1312</ele>
        <time>2022-03-03T11:32:56.000Z</time>
      </trkpt>
      <trkpt lat="44.15623" lon="6.07797">
        <ele>1312</ele>
        <time>2022-03-03T11:32:57.000Z</time>
      </trkpt>
      <trkpt lat="44.15624" lon="6.07797">
        <ele>1312</ele>
        <time>2022-03-03T11:32:58.000Z</time>
      </trkpt>
      <trkpt lat="44.15624" lon="6.07798">
        <ele>1312</ele>
        <time>2022-03-03T11:32:59.000Z</time>
      </trkpt>
      <trkpt lat="44.15625" lon="6.07798">
        <ele>1312</ele>
        <time>2022-03-03T11:33:00.000Z</time>
      </trkpt>
      <trkpt lat="44.15625" lon="6.07798">
        <ele>1312</ele>
        <time>2022-03-03T11:33:01.000Z</time>
      </trkpt>
      <trkpt lat="44.15625" lon="6.07798">
        <ele>1312</ele>
        <time>2022-03-03T11:33:02.000Z</time>
      </trkpt>
      <trkpt lat="44.15625" lon="6.07797">
        <ele>1312</ele>
        <time>2022-03-03T11:33:03.000Z</time>
      </trkpt>
      <trkpt lat="44.15625" lon="6.07797">
        <ele>1312</ele>
        <time>2022-03-03T11:33:04.000Z</time>
      </trkpt>
      <trkpt lat="44.15625" lon="6.07797">
        <ele>1312</ele>
        <time>2022-03-03T11:33:05.000Z</time>
      </trkpt>
      <trkpt lat="44.15625" lon="6.07797">
        <ele>1312</ele>
        <time>2022-03-03T11:33:06.000Z</time>
      </trkpt>
      <trkpt lat="44.15625" lon="6.07797">
        <ele>1312</ele>
        <time>2022-03-03T11:33:07.000Z</time>
      </trkpt>
      <trkpt lat="44.15625" lon="6.07797">
        <ele>1312</ele>
        <time>2022-03-03T11:33:08.000Z</time>
      </trkpt>
      <trkpt lat="44.15625" lon="6.07797">
        <ele>1312</ele>
        <time>2022-03-03T11:33:09.000Z</time>
      </trkpt>
      <trkpt lat="44.15625" lon="6.07797">
        <ele>1312</ele>
        <time>2022-03-03T11:33:10.000Z</time>
      </trkpt>
      <trkpt lat="44.15625" lon="6.07797">
        <ele>1312</ele>
        <time>2022-03-03T11:33:11.000Z</time>
      </trkpt>
      <trkpt lat="44.15625" lon="6.07797">
        <ele>1312</ele>
        <time>2022-03-03T11:33:12.000Z</time>
      </trkpt>
      <trkpt lat="44.15625" lon="6.07797">
        <ele>1312</ele>
        <time>2022-03-03T11:33:13.000Z</time>
      </trkpt>
      <trkpt lat="44.15625" lon="6.07797">
        <ele>1313</ele>
        <time>2022-03-03T11:33:14.000Z</time>
      </trkpt>
      <trkpt lat="44.15625" lon="6.07797">
        <ele>1313</ele>
        <time>2022-03-03T11:33:15.000Z</time>
      </trkpt>
      <trkpt lat="44.15625" lon="6.07797">
        <ele>1313</ele>
        <time>2022-03-03T11:33:16.000Z</time>
      </trkpt>
      <trkpt lat="44.15625" lon="6.07797">
        <ele>1313</ele>
        <time>2022-03-03T11:33:17.000Z</time>
      </trkpt>
      <trkpt lat="44.15625" lon="6.07797">
        <ele>1313</ele>
        <time>2022-03-03T11:33:18.000Z</time>
      </trkpt>
      <trkpt lat="44.15625" lon="6.07797">
        <ele>1313</ele>
        <time>2022-03-03T11:33:19.000Z</time>
      </trkpt>
      <trkpt lat="44.15625" lon="6.07797">
        <ele>1313</ele>
        <time>2022-03-03T11:33:20.000Z</time>
      </trkpt>
      <trkpt lat="44.15625" lon="6.07797">
        <ele>1313</ele>
        <time>2022-03-03T11:33:21.000Z</time>
      </trkpt>
      <trkpt lat="44.15625" lon="6.07797">
        <ele>1313</ele>
        <time>2022-03-03T11:33:22.000Z</time>
      </trkpt>
      <trkpt lat="44.15625" lon="6.07797">
        <ele>1313</ele>
        <time>2022-03-03T11:33:23.000Z</time>
      </trkpt>
      <trkpt lat="44.15625" lon="6.07797">
        <ele>1313</ele>
        <time>2022-03-03T11:33:24.000Z</time>
      </trkpt>
      <trkpt lat="44.15625" lon="6.07797">
        <ele>1313</ele>
        <time>2022-03-03T11:33:25.000Z</time>
      </trkpt>
      <trkpt lat="44.15625" lon="6.07797">
        <ele>1313</ele>
        <time>2022-03-03T11:33:26.000Z</time>
      </trkpt>
      <trkpt lat="44.15625" lon="6.07797">
        <ele>1313</ele>
        <time>2022-03-03T11:33:27.000Z</time>
      </trkpt>
      <trkpt lat="44.15625" lon="6.07797">
        <ele>1313</ele>
        <time>2022-03-03T11:33:28.000Z</time>
      </trkpt>
      <trkpt lat="44.15625" lon="6.07797">
        <ele>1313</ele>
        <time>2022-03-03T11:33:29.000Z</time>
      </trkpt>
      <trkpt lat="44.15625" lon="6.07797">
        <ele>1313</ele>
        <time>2022-03-03T11:33:30.000Z</time>
      </trkpt>
      <trkpt lat="44.15625" lon="6.07797">
        <ele>1313</ele>
        <time>2022-03-03T11:33:31.000Z</time>
      </trkpt>
      <trkpt lat="44.15625" lon="6.07797">
        <ele>1313</ele>
        <time>2022-03-03T11:33:32.000Z</time>
      </trkpt>
      <trkpt lat="44.15625" lon="6.07797">
        <ele>1313</ele>
        <time>2022-03-03T11:33:33.000Z</time>
      </trkpt>
      <trkpt lat="44.15625" lon="6.07797">
        <ele>1313</ele>
        <time>2022-03-03T11:33:34.000Z</time>
      </trkpt>
      <trkpt lat="44.15625" lon="6.07797">
        <ele>1313</ele>
        <time>2022-03-03T11:33:35.000Z</time>
      </trkpt>
      <trkpt lat="44.15625" lon="6.07797">
        <ele>1313</ele>
        <time>2022-03-03T11:33:36.000Z</time>
      </trkpt>
      <trkpt lat="44.15625" lon="6.07797">
        <ele>1313</ele>
        <time>2022-03-03T11:33:37.000Z</time>
      </trkpt>
      <trkpt lat="44.15625" lon="6.07797">
        <ele>1313</ele>
        <time>2022-03-03T11:33:38.000Z</time>
      </trkpt>
      <trkpt lat="44.15625" lon="6.07797">
        <ele>1313</ele>
        <time>2022-03-03T11:33:39.000Z</time>
      </trkpt>
      <trkpt lat="44.15625" lon="6.07797">
        <ele>1313</ele>
        <time>2022-03-03T11:33:40.000Z</time>
      </trkpt>
      <trkpt lat="44.15625" lon="6.07797">
        <ele>1313</ele>
        <time>2022-03-03T11:33:41.000Z</time>
      </trkpt>
      <trkpt lat="44.15625" lon="6.07797">
        <ele>1313</ele>
        <time>2022-03-03T11:33:42.000Z</time>
      </trkpt>
      <trkpt lat="44.15625" lon="6.07797">
        <ele>1313</ele>
        <time>2022-03-03T11:33:43.000Z</time>
      </trkpt>
      <trkpt lat="44.15625" lon="6.07797">
        <ele>1313</ele>
        <time>2022-03-03T11:33:44.000Z</time>
      </trkpt>
      <trkpt lat="44.15625" lon="6.07797">
        <ele>1313</ele>
        <time>2022-03-03T11:33:45.000Z</time>
      </trkpt>
      <trkpt lat="44.15625" lon="6.07797">
        <ele>1313</ele>
        <time>2022-03-03T11:33:46.000Z</time>
      </trkpt>
      <trkpt lat="44.15625" lon="6.07797">
        <ele>1313</ele>
        <time>2022-03-03T11:33:47.000Z</time>
      </trkpt>
      <trkpt lat="44.15625" lon="6.07797">
        <ele>1313</ele>
        <time>2022-03-03T11:33:48.000Z</time>
      </trkpt>
      <trkpt lat="44.15625" lon="6.07797">
        <ele>1313</ele>
        <time>2022-03-03T11:33:49.000Z</time>
      </trkpt>
      <trkpt lat="44.15625" lon="6.07797">
        <ele>1313</ele>
        <time>2022-03-03T11:33:50.000Z</time>
      </trkpt>
      <trkpt lat="44.15625" lon="6.07797">
        <ele>1313</ele>
        <time>2022-03-03T11:33:51.000Z</time>
      </trkpt>
      <trkpt lat="44.15625" lon="6.07797">
        <ele>1313</ele>
        <time>2022-03-03T11:33:52.000Z</time>
      </trkpt>
      <trkpt lat="44.15625" lon="6.07797">
        <ele>1313</ele>
        <time>2022-03-03T11:33:53.000Z</time>
      </trkpt>
      <trkpt lat="44.15625" lon="6.07797">
        <ele>1313</ele>
        <time>2022-03-03T11:33:54.000Z</time>
      </trkpt>
      <trkpt lat="44.15625" lon="6.07797">
        <ele>1313</ele>
        <time>2022-03-03T11:33:55.000Z</time>
      </trkpt>
      <trkpt lat="44.15625" lon="6.07797">
        <ele>1313</ele>
        <time>2022-03-03T11:33:56.000Z</time>
      </trkpt>
      <trkpt lat="44.15625" lon="6.07797">
        <ele>1313</ele>
        <time>2022-03-03T11:33:57.000Z</time>
      </trkpt>
      <trkpt lat="44.15625" lon="6.07797">
        <ele>1313</ele>
        <time>2022-03-03T11:33:58.000Z</time>
      </trkpt>
      <trkpt lat="44.15626" lon="6.07798">
        <ele>1313</ele>
        <time>2022-03-03T11:33:59.000Z</time>
      </trkpt>
      <trkpt lat="44.15626" lon="6.07798">
        <ele>1313</ele>
        <time>2022-03-03T11:34:00.000Z</time>
      </trkpt>
      <trkpt lat="44.15627" lon="6.07798">
        <ele>1313</ele>
        <time>2022-03-03T11:34:01.000Z</time>
      </trkpt>
      <trkpt lat="44.15628" lon="6.07798">
        <ele>1313</ele>
        <time>2022-03-03T11:34:02.000Z</time>
      </trkpt>
      <trkpt lat="44.15628" lon="6.07798">
        <ele>1313</ele>
        <time>2022-03-03T11:34:03.000Z</time>
      </trkpt>
      <trkpt lat="44.15629" lon="6.07798">
        <ele>1313</ele>
        <time>2022-03-03T11:34:04.000Z</time>
      </trkpt>
      <trkpt lat="44.1563" lon="6.07799">
        <ele>1313</ele>
        <time>2022-03-03T11:34:05.000Z</time>
      </trkpt>
      <trkpt lat="44.1563" lon="6.07799">
        <ele>1313</ele>
        <time>2022-03-03T11:34:06.000Z</time>
      </trkpt>
      <trkpt lat="44.15631" lon="6.07799">
        <ele>1314</ele>
        <time>2022-03-03T11:34:07.000Z</time>
      </trkpt>
      <trkpt lat="44.15631" lon="6.078">
        <ele>1314</ele>
        <time>2022-03-03T11:34:08.000Z</time>
      </trkpt>
      <trkpt lat="44.15632" lon="6.078">
        <ele>1314</ele>
        <time>2022-03-03T11:34:09.000Z</time>
      </trkpt>
      <trkpt lat="44.15633" lon="6.078">
        <ele>1314</ele>
        <time>2022-03-03T11:34:10.000Z</time>
      </trkpt>
      <trkpt lat="44.15633" lon="6.078">
        <ele>1314</ele>
        <time>2022-03-03T11:34:11.000Z</time>
      </trkpt>
      <trkpt lat="44.15634" lon="6.078">
        <ele>1315</ele>
        <time>2022-03-03T11:34:12.000Z</time>
      </trkpt>
      <trkpt lat="44.15635" lon="6.07801">
        <ele>1315</ele>
        <time>2022-03-03T11:34:13.000Z</time>
      </trkpt>
      <trkpt lat="44.15636" lon="6.07801">
        <ele>1315</ele>
        <time>2022-03-03T11:34:14.000Z</time>
      </trkpt>
      <trkpt lat="44.15636" lon="6.07801">
        <ele>1315</ele>
        <time>2022-03-03T11:34:15.000Z</time>
      </trkpt>
      <trkpt lat="44.15637" lon="6.07802">
        <ele>1315</ele>
        <time>2022-03-03T11:34:16.000Z</time>
      </trkpt>
      <trkpt lat="44.15637" lon="6.07802">
        <ele>1315</ele>
        <time>2022-03-03T11:34:17.000Z</time>
      </trkpt>
      <trkpt lat="44.15638" lon="6.07802">
        <ele>1315</ele>
        <time>2022-03-03T11:34:18.000Z</time>
      </trkpt>
      <trkpt lat="44.15639" lon="6.07803">
        <ele>1316</ele>
        <time>2022-03-03T11:34:19.000Z</time>
      </trkpt>
      <trkpt lat="44.1564" lon="6.07804">
        <ele>1316</ele>
        <time>2022-03-03T11:34:20.000Z</time>
      </trkpt>
      <trkpt lat="44.1564" lon="6.07804">
        <ele>1316</ele>
        <time>2022-03-03T11:34:21.000Z</time>
      </trkpt>
      <trkpt lat="44.15641" lon="6.07805">
        <ele>1316</ele>
        <time>2022-03-03T11:34:22.000Z</time>
      </trkpt>
      <trkpt lat="44.15641" lon="6.07805">
        <ele>1316</ele>
        <time>2022-03-03T11:34:23.000Z</time>
      </trkpt>
      <trkpt lat="44.15642" lon="6.07805">
        <ele>1316</ele>
        <time>2022-03-03T11:34:24.000Z</time>
      </trkpt>
      <trkpt lat="44.15643" lon="6.07806">
        <ele>1317</ele>
        <time>2022-03-03T11:34:25.000Z</time>
      </trkpt>
      <trkpt lat="44.15644" lon="6.07806">
        <ele>1317</ele>
        <time>2022-03-03T11:34:26.000Z</time>
      </trkpt>
      <trkpt lat="44.15644" lon="6.07807">
        <ele>1317</ele>
        <time>2022-03-03T11:34:27.000Z</time>
      </trkpt>
      <trkpt lat="44.15645" lon="6.07807">
        <ele>1317</ele>
        <time>2022-03-03T11:34:28.000Z</time>
      </trkpt>
      <trkpt lat="44.15646" lon="6.07808">
        <ele>1317</ele>
        <time>2022-03-03T11:34:29.000Z</time>
      </trkpt>
      <trkpt lat="44.15647" lon="6.07808">
        <ele>1317</ele>
        <time>2022-03-03T11:34:30.000Z</time>
      </trkpt>
      <trkpt lat="44.15648" lon="6.07809">
        <ele>1317</ele>
        <time>2022-03-03T11:34:31.000Z</time>
      </trkpt>
      <trkpt lat="44.15648" lon="6.07809">
        <ele>1318</ele>
        <time>2022-03-03T11:34:32.000Z</time>
      </trkpt>
      <trkpt lat="44.15649" lon="6.0781">
        <ele>1318</ele>
        <time>2022-03-03T11:34:33.000Z</time>
      </trkpt>
      <trkpt lat="44.1565" lon="6.07811">
        <ele>1318</ele>
        <time>2022-03-03T11:34:34.000Z</time>
      </trkpt>
      <trkpt lat="44.15651" lon="6.07811">
        <ele>1318</ele>
        <time>2022-03-03T11:34:35.000Z</time>
      </trkpt>
      <trkpt lat="44.15652" lon="6.07812">
        <ele>1318</ele>
        <time>2022-03-03T11:34:36.000Z</time>
      </trkpt>
      <trkpt lat="44.15653" lon="6.07812">
        <ele>1318</ele>
        <time>2022-03-03T11:34:37.000Z</time>
      </trkpt>
      <trkpt lat="44.15653" lon="6.07813">
        <ele>1319</ele>
        <time>2022-03-03T11:34:38.000Z</time>
      </trkpt>
      <trkpt lat="44.15655" lon="6.07813">
        <ele>1319</ele>
        <time>2022-03-03T11:34:39.000Z</time>
      </trkpt>
      <trkpt lat="44.15655" lon="6.07814">
        <ele>1319</ele>
        <time>2022-03-03T11:34:40.000Z</time>
      </trkpt>
      <trkpt lat="44.15656" lon="6.07814">
        <ele>1319</ele>
        <time>2022-03-03T11:34:41.000Z</time>
      </trkpt>
      <trkpt lat="44.15657" lon="6.07814">
        <ele>1319</ele>
        <time>2022-03-03T11:34:42.000Z</time>
      </trkpt>
      <trkpt lat="44.15657" lon="6.07815">
        <ele>1319</ele>
        <time>2022-03-03T11:34:43.000Z</time>
      </trkpt>
      <trkpt lat="44.15658" lon="6.07815">
        <ele>1319</ele>
        <time>2022-03-03T11:34:44.000Z</time>
      </trkpt>
      <trkpt lat="44.15659" lon="6.07816">
        <ele>1319</ele>
        <time>2022-03-03T11:34:45.000Z</time>
      </trkpt>
      <trkpt lat="44.15659" lon="6.07816">
        <ele>1319</ele>
        <time>2022-03-03T11:34:46.000Z</time>
      </trkpt>
      <trkpt lat="44.1566" lon="6.07817">
        <ele>1319</ele>
        <time>2022-03-03T11:34:47.000Z</time>
      </trkpt>
      <trkpt lat="44.15661" lon="6.07817">
        <ele>1320</ele>
        <time>2022-03-03T11:34:48.000Z</time>
      </trkpt>
      <trkpt lat="44.15662" lon="6.07818">
        <ele>1320</ele>
        <time>2022-03-03T11:34:49.000Z</time>
      </trkpt>
      <trkpt lat="44.15663" lon="6.07818">
        <ele>1320</ele>
        <time>2022-03-03T11:34:50.000Z</time>
      </trkpt>
      <trkpt lat="44.15663" lon="6.07819">
        <ele>1320</ele>
        <time>2022-03-03T11:34:51.000Z</time>
      </trkpt>
      <trkpt lat="44.15664" lon="6.07819">
        <ele>1320</ele>
        <time>2022-03-03T11:34:52.000Z</time>
      </trkpt>
      <trkpt lat="44.15665" lon="6.0782">
        <ele>1320</ele>
        <time>2022-03-03T11:34:53.000Z</time>
      </trkpt>
      <trkpt lat="44.15665" lon="6.0782">
        <ele>1321</ele>
        <time>2022-03-03T11:34:54.000Z</time>
      </trkpt>
      <trkpt lat="44.15666" lon="6.07821">
        <ele>1321</ele>
        <time>2022-03-03T11:34:55.000Z</time>
      </trkpt>
      <trkpt lat="44.15667" lon="6.07821">
        <ele>1321</ele>
        <time>2022-03-03T11:34:56.000Z</time>
      </trkpt>
      <trkpt lat="44.15668" lon="6.07821">
        <ele>1321</ele>
        <time>2022-03-03T11:34:57.000Z</time>
      </trkpt>
      <trkpt lat="44.15669" lon="6.07822">
        <ele>1321</ele>
        <time>2022-03-03T11:34:58.000Z</time>
      </trkpt>
      <trkpt lat="44.1567" lon="6.07823">
        <ele>1322</ele>
        <time>2022-03-03T11:34:59.000Z</time>
      </trkpt>
      <trkpt lat="44.1567" lon="6.07823">
        <ele>1322</ele>
        <time>2022-03-03T11:35:00.000Z</time>
      </trkpt>
      <trkpt lat="44.15671" lon="6.07823">
        <ele>1322</ele>
        <time>2022-03-03T11:35:01.000Z</time>
      </trkpt>
      <trkpt lat="44.15672" lon="6.07824">
        <ele>1322</ele>
        <time>2022-03-03T11:35:02.000Z</time>
      </trkpt>
      <trkpt lat="44.15673" lon="6.07824">
        <ele>1322</ele>
        <time>2022-03-03T11:35:03.000Z</time>
      </trkpt>
      <trkpt lat="44.15673" lon="6.07825">
        <ele>1322</ele>
        <time>2022-03-03T11:35:04.000Z</time>
      </trkpt>
      <trkpt lat="44.15674" lon="6.07826">
        <ele>1323</ele>
        <time>2022-03-03T11:35:05.000Z</time>
      </trkpt>
      <trkpt lat="44.15675" lon="6.07826">
        <ele>1323</ele>
        <time>2022-03-03T11:35:06.000Z</time>
      </trkpt>
      <trkpt lat="44.15676" lon="6.07827">
        <ele>1323</ele>
        <time>2022-03-03T11:35:07.000Z</time>
      </trkpt>
      <trkpt lat="44.15676" lon="6.07827">
        <ele>1323</ele>
        <time>2022-03-03T11:35:08.000Z</time>
      </trkpt>
      <trkpt lat="44.15677" lon="6.07828">
        <ele>1323</ele>
        <time>2022-03-03T11:35:09.000Z</time>
      </trkpt>
      <trkpt lat="44.15678" lon="6.07828">
        <ele>1323</ele>
        <time>2022-03-03T11:35:10.000Z</time>
      </trkpt>
      <trkpt lat="44.15678" lon="6.07829">
        <ele>1323</ele>
        <time>2022-03-03T11:35:11.000Z</time>
      </trkpt>
      <trkpt lat="44.15679" lon="6.07829">
        <ele>1323</ele>
        <time>2022-03-03T11:35:12.000Z</time>
      </trkpt>
      <trkpt lat="44.1568" lon="6.0783">
        <ele>1323</ele>
        <time>2022-03-03T11:35:13.000Z</time>
      </trkpt>
      <trkpt lat="44.15681" lon="6.0783">
        <ele>1324</ele>
        <time>2022-03-03T11:35:14.000Z</time>
      </trkpt>
      <trkpt lat="44.15682" lon="6.07831">
        <ele>1324</ele>
        <time>2022-03-03T11:35:15.000Z</time>
      </trkpt>
      <trkpt lat="44.15683" lon="6.07831">
        <ele>1324</ele>
        <time>2022-03-03T11:35:16.000Z</time>
      </trkpt>
      <trkpt lat="44.15683" lon="6.07831">
        <ele>1324</ele>
        <time>2022-03-03T11:35:17.000Z</time>
      </trkpt>
      <trkpt lat="44.15684" lon="6.07832">
        <ele>1324</ele>
        <time>2022-03-03T11:35:18.000Z</time>
      </trkpt>
      <trkpt lat="44.15685" lon="6.07833">
        <ele>1324</ele>
        <time>2022-03-03T11:35:19.000Z</time>
      </trkpt>
      <trkpt lat="44.15686" lon="6.07833">
        <ele>1325</ele>
        <time>2022-03-03T11:35:20.000Z</time>
      </trkpt>
      <trkpt lat="44.15686" lon="6.07834">
        <ele>1325</ele>
        <time>2022-03-03T11:35:21.000Z</time>
      </trkpt>
      <trkpt lat="44.15687" lon="6.07834">
        <ele>1325</ele>
        <time>2022-03-03T11:35:22.000Z</time>
      </trkpt>
      <trkpt lat="44.15688" lon="6.07835">
        <ele>1325</ele>
        <time>2022-03-03T11:35:23.000Z</time>
      </trkpt>
      <trkpt lat="44.15689" lon="6.07836">
        <ele>1325</ele>
        <time>2022-03-03T11:35:24.000Z</time>
      </trkpt>
      <trkpt lat="44.1569" lon="6.07836">
        <ele>1325</ele>
        <time>2022-03-03T11:35:25.000Z</time>
      </trkpt>
      <trkpt lat="44.1569" lon="6.07836">
        <ele>1326</ele>
        <time>2022-03-03T11:35:26.000Z</time>
      </trkpt>
      <trkpt lat="44.15691" lon="6.07837">
        <ele>1326</ele>
        <time>2022-03-03T11:35:27.000Z</time>
      </trkpt>
      <trkpt lat="44.15692" lon="6.07837">
        <ele>1326</ele>
        <time>2022-03-03T11:35:28.000Z</time>
      </trkpt>
      <trkpt lat="44.15693" lon="6.07838">
        <ele>1326</ele>
        <time>2022-03-03T11:35:29.000Z</time>
      </trkpt>
      <trkpt lat="44.15694" lon="6.07838">
        <ele>1326</ele>
        <time>2022-03-03T11:35:30.000Z</time>
      </trkpt>
      <trkpt lat="44.15694" lon="6.07839">
        <ele>1326</ele>
        <time>2022-03-03T11:35:31.000Z</time>
      </trkpt>
      <trkpt lat="44.15695" lon="6.07839">
        <ele>1326</ele>
        <time>2022-03-03T11:35:32.000Z</time>
      </trkpt>
      <trkpt lat="44.15696" lon="6.07839">
        <ele>1326</ele>
        <time>2022-03-03T11:35:33.000Z</time>
      </trkpt>
      <trkpt lat="44.15697" lon="6.0784">
        <ele>1326</ele>
        <time>2022-03-03T11:35:34.000Z</time>
      </trkpt>
      <trkpt lat="44.15698" lon="6.0784">
        <ele>1326</ele>
        <time>2022-03-03T11:35:35.000Z</time>
      </trkpt>
      <trkpt lat="44.15699" lon="6.0784">
        <ele>1326</ele>
        <time>2022-03-03T11:35:36.000Z</time>
      </trkpt>
      <trkpt lat="44.15699" lon="6.07841">
        <ele>1326</ele>
        <time>2022-03-03T11:35:37.000Z</time>
      </trkpt>
      <trkpt lat="44.157" lon="6.07841">
        <ele>1326</ele>
        <time>2022-03-03T11:35:38.000Z</time>
      </trkpt>
      <trkpt lat="44.15701" lon="6.07841">
        <ele>1326</ele>
        <time>2022-03-03T11:35:39.000Z</time>
      </trkpt>
      <trkpt lat="44.15702" lon="6.07841">
        <ele>1326</ele>
        <time>2022-03-03T11:35:40.000Z</time>
      </trkpt>
      <trkpt lat="44.15703" lon="6.07842">
        <ele>1327</ele>
        <time>2022-03-03T11:35:41.000Z</time>
      </trkpt>
      <trkpt lat="44.15703" lon="6.07842">
        <ele>1327</ele>
        <time>2022-03-03T11:35:42.000Z</time>
      </trkpt>
      <trkpt lat="44.15704" lon="6.07843">
        <ele>1327</ele>
        <time>2022-03-03T11:35:43.000Z</time>
      </trkpt>
      <trkpt lat="44.15705" lon="6.07843">
        <ele>1327</ele>
        <time>2022-03-03T11:35:44.000Z</time>
      </trkpt>
      <trkpt lat="44.15706" lon="6.07843">
        <ele>1327</ele>
        <time>2022-03-03T11:35:45.000Z</time>
      </trkpt>
      <trkpt lat="44.15707" lon="6.07844">
        <ele>1327</ele>
        <time>2022-03-03T11:35:46.000Z</time>
      </trkpt>
      <trkpt lat="44.15708" lon="6.07844">
        <ele>1327</ele>
        <time>2022-03-03T11:35:47.000Z</time>
      </trkpt>
      <trkpt lat="44.15708" lon="6.07844">
        <ele>1327</ele>
        <time>2022-03-03T11:35:48.000Z</time>
      </trkpt>
      <trkpt lat="44.15709" lon="6.07845">
        <ele>1327</ele>
        <time>2022-03-03T11:35:49.000Z</time>
      </trkpt>
      <trkpt lat="44.1571" lon="6.07845">
        <ele>1327</ele>
        <time>2022-03-03T11:35:50.000Z</time>
      </trkpt>
      <trkpt lat="44.15711" lon="6.07845">
        <ele>1327</ele>
        <time>2022-03-03T11:35:51.000Z</time>
      </trkpt>
      <trkpt lat="44.15712" lon="6.07846">
        <ele>1327</ele>
        <time>2022-03-03T11:35:52.000Z</time>
      </trkpt>
      <trkpt lat="44.15713" lon="6.07846">
        <ele>1327</ele>
        <time>2022-03-03T11:35:53.000Z</time>
      </trkpt>
      <trkpt lat="44.15714" lon="6.07846">
        <ele>1327</ele>
        <time>2022-03-03T11:35:54.000Z</time>
      </trkpt>
      <trkpt lat="44.15714" lon="6.07847">
        <ele>1328</ele>
        <time>2022-03-03T11:35:55.000Z</time>
      </trkpt>
      <trkpt lat="44.15715" lon="6.07847">
        <ele>1328</ele>
        <time>2022-03-03T11:35:56.000Z</time>
      </trkpt>
      <trkpt lat="44.15716" lon="6.07847">
        <ele>1328</ele>
        <time>2022-03-03T11:35:57.000Z</time>
      </trkpt>
      <trkpt lat="44.15717" lon="6.07848">
        <ele>1328</ele>
        <time>2022-03-03T11:35:58.000Z</time>
      </trkpt>
      <trkpt lat="44.15717" lon="6.07848">
        <ele>1328</ele>
        <time>2022-03-03T11:35:59.000Z</time>
      </trkpt>
      <trkpt lat="44.15719" lon="6.07848">
        <ele>1328</ele>
        <time>2022-03-03T11:36:00.000Z</time>
      </trkpt>
      <trkpt lat="44.15719" lon="6.07848">
        <ele>1329</ele>
        <time>2022-03-03T11:36:01.000Z</time>
      </trkpt>
      <trkpt lat="44.1572" lon="6.07848">
        <ele>1329</ele>
        <time>2022-03-03T11:36:02.000Z</time>
      </trkpt>
      <trkpt lat="44.15721" lon="6.07848">
        <ele>1329</ele>
        <time>2022-03-03T11:36:03.000Z</time>
      </trkpt>
      <trkpt lat="44.15722" lon="6.07848">
        <ele>1329</ele>
        <time>2022-03-03T11:36:04.000Z</time>
      </trkpt>
      <trkpt lat="44.15723" lon="6.07848">
        <ele>1329</ele>
        <time>2022-03-03T11:36:05.000Z</time>
      </trkpt>
      <trkpt lat="44.15724" lon="6.07848">
        <ele>1329</ele>
        <time>2022-03-03T11:36:06.000Z</time>
      </trkpt>
      <trkpt lat="44.15724" lon="6.07848">
        <ele>1329</ele>
        <time>2022-03-03T11:36:07.000Z</time>
      </trkpt>
      <trkpt lat="44.15725" lon="6.07848">
        <ele>1330</ele>
        <time>2022-03-03T11:36:08.000Z</time>
      </trkpt>
      <trkpt lat="44.15726" lon="6.07847">
        <ele>1330</ele>
        <time>2022-03-03T11:36:09.000Z</time>
      </trkpt>
      <trkpt lat="44.15727" lon="6.07847">
        <ele>1330</ele>
        <time>2022-03-03T11:36:10.000Z</time>
      </trkpt>
      <trkpt lat="44.15728" lon="6.07847">
        <ele>1330</ele>
        <time>2022-03-03T11:36:11.000Z</time>
      </trkpt>
      <trkpt lat="44.15729" lon="6.07848">
        <ele>1330</ele>
        <time>2022-03-03T11:36:12.000Z</time>
      </trkpt>
      <trkpt lat="44.1573" lon="6.07848">
        <ele>1330</ele>
        <time>2022-03-03T11:36:13.000Z</time>
      </trkpt>
      <trkpt lat="44.15731" lon="6.07848">
        <ele>1330</ele>
        <time>2022-03-03T11:36:14.000Z</time>
      </trkpt>
      <trkpt lat="44.15731" lon="6.07849">
        <ele>1330</ele>
        <time>2022-03-03T11:36:15.000Z</time>
      </trkpt>
      <trkpt lat="44.15732" lon="6.07849">
        <ele>1330</ele>
        <time>2022-03-03T11:36:16.000Z</time>
      </trkpt>
      <trkpt lat="44.15733" lon="6.0785">
        <ele>1330</ele>
        <time>2022-03-03T11:36:17.000Z</time>
      </trkpt>
      <trkpt lat="44.15734" lon="6.07851">
        <ele>1330</ele>
        <time>2022-03-03T11:36:18.000Z</time>
      </trkpt>
      <trkpt lat="44.15734" lon="6.07852">
        <ele>1330</ele>
        <time>2022-03-03T11:36:19.000Z</time>
      </trkpt>
      <trkpt lat="44.15735" lon="6.07853">
        <ele>1330</ele>
        <time>2022-03-03T11:36:20.000Z</time>
      </trkpt>
      <trkpt lat="44.15736" lon="6.07854">
        <ele>1330</ele>
        <time>2022-03-03T11:36:21.000Z</time>
      </trkpt>
      <trkpt lat="44.15737" lon="6.07854">
        <ele>1330</ele>
        <time>2022-03-03T11:36:22.000Z</time>
      </trkpt>
      <trkpt lat="44.15737" lon="6.07855">
        <ele>1330</ele>
        <time>2022-03-03T11:36:23.000Z</time>
      </trkpt>
      <trkpt lat="44.15738" lon="6.07856">
        <ele>1330</ele>
        <time>2022-03-03T11:36:24.000Z</time>
      </trkpt>
      <trkpt lat="44.15739" lon="6.07857">
        <ele>1331</ele>
        <time>2022-03-03T11:36:25.000Z</time>
      </trkpt>
      <trkpt lat="44.15739" lon="6.07858">
        <ele>1331</ele>
        <time>2022-03-03T11:36:26.000Z</time>
      </trkpt>
      <trkpt lat="44.1574" lon="6.07859">
        <ele>1331</ele>
        <time>2022-03-03T11:36:27.000Z</time>
      </trkpt>
      <trkpt lat="44.15741" lon="6.0786">
        <ele>1331</ele>
        <time>2022-03-03T11:36:28.000Z</time>
      </trkpt>
      <trkpt lat="44.15741" lon="6.07861">
        <ele>1331</ele>
        <time>2022-03-03T11:36:29.000Z</time>
      </trkpt>
      <trkpt lat="44.15742" lon="6.07862">
        <ele>1331</ele>
        <time>2022-03-03T11:36:30.000Z</time>
      </trkpt>
      <trkpt lat="44.15743" lon="6.07863">
        <ele>1331</ele>
        <time>2022-03-03T11:36:31.000Z</time>
      </trkpt>
      <trkpt lat="44.15743" lon="6.07864">
        <ele>1331</ele>
        <time>2022-03-03T11:36:32.000Z</time>
      </trkpt>
      <trkpt lat="44.15744" lon="6.07865">
        <ele>1331</ele>
        <time>2022-03-03T11:36:33.000Z</time>
      </trkpt>
      <trkpt lat="44.15745" lon="6.07866">
        <ele>1331</ele>
        <time>2022-03-03T11:36:34.000Z</time>
      </trkpt>
      <trkpt lat="44.15745" lon="6.07867">
        <ele>1331</ele>
        <time>2022-03-03T11:36:35.000Z</time>
      </trkpt>
      <trkpt lat="44.15746" lon="6.07868">
        <ele>1331</ele>
        <time>2022-03-03T11:36:36.000Z</time>
      </trkpt>
      <trkpt lat="44.15747" lon="6.07869">
        <ele>1331</ele>
        <time>2022-03-03T11:36:37.000Z</time>
      </trkpt>
      <trkpt lat="44.15748" lon="6.0787">
        <ele>1331</ele>
        <time>2022-03-03T11:36:38.000Z</time>
      </trkpt>
      <trkpt lat="44.15748" lon="6.07871">
        <ele>1331</ele>
        <time>2022-03-03T11:36:39.000Z</time>
      </trkpt>
      <trkpt lat="44.15749" lon="6.07872">
        <ele>1331</ele>
        <time>2022-03-03T11:36:40.000Z</time>
      </trkpt>
      <trkpt lat="44.1575" lon="6.07873">
        <ele>1331</ele>
        <time>2022-03-03T11:36:41.000Z</time>
      </trkpt>
      <trkpt lat="44.15751" lon="6.07874">
        <ele>1331</ele>
        <time>2022-03-03T11:36:42.000Z</time>
      </trkpt>
      <trkpt lat="44.15751" lon="6.07875">
        <ele>1331</ele>
        <time>2022-03-03T11:36:43.000Z</time>
      </trkpt>
      <trkpt lat="44.15752" lon="6.07876">
        <ele>1331</ele>
        <time>2022-03-03T11:36:44.000Z</time>
      </trkpt>
      <trkpt lat="44.15753" lon="6.07877">
        <ele>1331</ele>
        <time>2022-03-03T11:36:45.000Z</time>
      </trkpt>
      <trkpt lat="44.15754" lon="6.07877">
        <ele>1331</ele>
        <time>2022-03-03T11:36:46.000Z</time>
      </trkpt>
      <trkpt lat="44.15754" lon="6.07878">
        <ele>1331</ele>
        <time>2022-03-03T11:36:47.000Z</time>
      </trkpt>
      <trkpt lat="44.15755" lon="6.07879">
        <ele>1331</ele>
        <time>2022-03-03T11:36:48.000Z</time>
      </trkpt>
      <trkpt lat="44.15755" lon="6.0788">
        <ele>1331</ele>
        <time>2022-03-03T11:36:49.000Z</time>
      </trkpt>
      <trkpt lat="44.15756" lon="6.07881">
        <ele>1331</ele>
        <time>2022-03-03T11:36:50.000Z</time>
      </trkpt>
      <trkpt lat="44.15756" lon="6.07882">
        <ele>1331</ele>
        <time>2022-03-03T11:36:51.000Z</time>
      </trkpt>
      <trkpt lat="44.15756" lon="6.07882">
        <ele>1331</ele>
        <time>2022-03-03T11:36:52.000Z</time>
      </trkpt>
      <trkpt lat="44.15757" lon="6.07882">
        <ele>1331</ele>
        <time>2022-03-03T11:36:53.000Z</time>
      </trkpt>
      <trkpt lat="44.15757" lon="6.07882">
        <ele>1331</ele>
        <time>2022-03-03T11:36:54.000Z</time>
      </trkpt>
      <trkpt lat="44.15757" lon="6.07882">
        <ele>1331</ele>
        <time>2022-03-03T11:36:55.000Z</time>
      </trkpt>
      <trkpt lat="44.15757" lon="6.07882">
        <ele>1331</ele>
        <time>2022-03-03T11:36:56.000Z</time>
      </trkpt>
      <trkpt lat="44.15757" lon="6.07883">
        <ele>1331</ele>
        <time>2022-03-03T11:36:57.000Z</time>
      </trkpt>
      <trkpt lat="44.15757" lon="6.07883">
        <ele>1331</ele>
        <time>2022-03-03T11:36:58.000Z</time>
      </trkpt>
      <trkpt lat="44.15757" lon="6.07883">
        <ele>1331</ele>
        <time>2022-03-03T11:36:59.000Z</time>
      </trkpt>
      <trkpt lat="44.15757" lon="6.07883">
        <ele>1331</ele>
        <time>2022-03-03T11:37:00.000Z</time>
      </trkpt>
      <trkpt lat="44.15757" lon="6.07883">
        <ele>1331</ele>
        <time>2022-03-03T11:37:01.000Z</time>
      </trkpt>
      <trkpt lat="44.15757" lon="6.07883">
        <ele>1331</ele>
        <time>2022-03-03T11:37:02.000Z</time>
      </trkpt>
      <trkpt lat="44.15757" lon="6.07883">
        <ele>1331</ele>
        <time>2022-03-03T11:37:03.000Z</time>
      </trkpt>
      <trkpt lat="44.15757" lon="6.07883">
        <ele>1331</ele>
        <time>2022-03-03T11:37:04.000Z</time>
      </trkpt>
      <trkpt lat="44.15757" lon="6.07883">
        <ele>1331</ele>
        <time>2022-03-03T11:37:05.000Z</time>
      </trkpt>
      <trkpt lat="44.15757" lon="6.07883">
        <ele>1331</ele>
        <time>2022-03-03T11:37:06.000Z</time>
      </trkpt>
      <trkpt lat="44.15757" lon="6.07883">
        <ele>1331</ele>
        <time>2022-03-03T11:37:07.000Z</time>
      </trkpt>
      <trkpt lat="44.15757" lon="6.07883">
        <ele>1331</ele>
        <time>2022-03-03T11:37:08.000Z</time>
      </trkpt>
      <trkpt lat="44.15757" lon="6.07883">
        <ele>1331</ele>
        <time>2022-03-03T11:37:09.000Z</time>
      </trkpt>
      <trkpt lat="44.15757" lon="6.07883">
        <ele>1331</ele>
        <time>2022-03-03T11:37:10.000Z</time>
      </trkpt>
      <trkpt lat="44.15757" lon="6.07883">
        <ele>1331</ele>
        <time>2022-03-03T11:37:11.000Z</time>
      </trkpt>
      <trkpt lat="44.15756" lon="6.07883">
        <ele>1331</ele>
        <time>2022-03-03T11:37:12.000Z</time>
      </trkpt>
      <trkpt lat="44.15757" lon="6.07883">
        <ele>1330</ele>
        <time>2022-03-03T11:37:13.000Z</time>
      </trkpt>
      <trkpt lat="44.15757" lon="6.07883">
        <ele>1330</ele>
        <time>2022-03-03T11:37:14.000Z</time>
      </trkpt>
      <trkpt lat="44.15756" lon="6.07883">
        <ele>1330</ele>
        <time>2022-03-03T11:37:15.000Z</time>
      </trkpt>
      <trkpt lat="44.15757" lon="6.07883">
        <ele>1330</ele>
        <time>2022-03-03T11:37:16.000Z</time>
      </trkpt>
      <trkpt lat="44.15757" lon="6.07883">
        <ele>1330</ele>
        <time>2022-03-03T11:37:17.000Z</time>
      </trkpt>
      <trkpt lat="44.15757" lon="6.07883">
        <ele>1330</ele>
        <time>2022-03-03T11:37:18.000Z</time>
      </trkpt>
      <trkpt lat="44.15756" lon="6.07883">
        <ele>1330</ele>
        <time>2022-03-03T11:37:19.000Z</time>
      </trkpt>
      <trkpt lat="44.15756" lon="6.07883">
        <ele>1330</ele>
        <time>2022-03-03T11:37:20.000Z</time>
      </trkpt>
      <trkpt lat="44.15756" lon="6.07883">
        <ele>1330</ele>
        <time>2022-03-03T11:37:21.000Z</time>
      </trkpt>
      <trkpt lat="44.15756" lon="6.07884">
        <ele>1330</ele>
        <time>2022-03-03T11:37:22.000Z</time>
      </trkpt>
      <trkpt lat="44.15756" lon="6.07884">
        <ele>1330</ele>
        <time>2022-03-03T11:37:23.000Z</time>
      </trkpt>
      <trkpt lat="44.15756" lon="6.07884">
        <ele>1330</ele>
        <time>2022-03-03T11:37:24.000Z</time>
      </trkpt>
      <trkpt lat="44.15756" lon="6.07884">
        <ele>1330</ele>
        <time>2022-03-03T11:37:25.000Z</time>
      </trkpt>
      <trkpt lat="44.15756" lon="6.07884">
        <ele>1330</ele>
        <time>2022-03-03T11:37:26.000Z</time>
      </trkpt>
      <trkpt lat="44.15756" lon="6.07884">
        <ele>1330</ele>
        <time>2022-03-03T11:37:27.000Z</time>
      </trkpt>
      <trkpt lat="44.15756" lon="6.07884">
        <ele>1330</ele>
        <time>2022-03-03T11:37:28.000Z</time>
      </trkpt>
      <trkpt lat="44.15756" lon="6.07884">
        <ele>1330</ele>
        <time>2022-03-03T11:37:29.000Z</time>
      </trkpt>
      <trkpt lat="44.15756" lon="6.07884">
        <ele>1330</ele>
        <time>2022-03-03T11:37:30.000Z</time>
      </trkpt>
      <trkpt lat="44.15756" lon="6.07884">
        <ele>1330</ele>
        <time>2022-03-03T11:37:31.000Z</time>
      </trkpt>
      <trkpt lat="44.15756" lon="6.07884">
        <ele>1330</ele>
        <time>2022-03-03T11:37:32.000Z</time>
      </trkpt>
      <trkpt lat="44.15756" lon="6.07884">
        <ele>1330</ele>
        <time>2022-03-03T11:37:33.000Z</time>
      </trkpt>
      <trkpt lat="44.15756" lon="6.07884">
        <ele>1330</ele>
        <time>2022-03-03T11:37:34.000Z</time>
      </trkpt>
      <trkpt lat="44.15756" lon="6.07884">
        <ele>1330</ele>
        <time>2022-03-03T11:37:35.000Z</time>
      </trkpt>
      <trkpt lat="44.15756" lon="6.07884">
        <ele>1330</ele>
        <time>2022-03-03T11:37:36.000Z</time>
      </trkpt>
      <trkpt lat="44.15756" lon="6.07884">
        <ele>1330</ele>
        <time>2022-03-03T11:37:37.000Z</time>
      </trkpt>
      <trkpt lat="44.15756" lon="6.07884">
        <ele>1330</ele>
        <time>2022-03-03T11:37:38.000Z</time>
      </trkpt>
      <trkpt lat="44.15756" lon="6.07884">
        <ele>1330</ele>
        <time>2022-03-03T11:37:39.000Z</time>
      </trkpt>
      <trkpt lat="44.15756" lon="6.07884">
        <ele>1330</ele>
        <time>2022-03-03T11:37:40.000Z</time>
      </trkpt>
      <trkpt lat="44.15756" lon="6.07884">
        <ele>1330</ele>
        <time>2022-03-03T11:37:41.000Z</time>
      </trkpt>
      <trkpt lat="44.15756" lon="6.07884">
        <ele>1330</ele>
        <time>2022-03-03T11:37:42.000Z</time>
      </trkpt>
      <trkpt lat="44.15756" lon="6.07884">
        <ele>1330</ele>
        <time>2022-03-03T11:37:43.000Z</time>
      </trkpt>
      <trkpt lat="44.15756" lon="6.07884">
        <ele>1330</ele>
        <time>2022-03-03T11:37:44.000Z</time>
      </trkpt>
      <trkpt lat="44.15756" lon="6.07884">
        <ele>1330</ele>
        <time>2022-03-03T11:37:45.000Z</time>
      </trkpt>
      <trkpt lat="44.15756" lon="6.07884">
        <ele>1330</ele>
        <time>2022-03-03T11:37:46.000Z</time>
      </trkpt>
      <trkpt lat="44.15756" lon="6.07884">
        <ele>1330</ele>
        <time>2022-03-03T11:37:47.000Z</time>
      </trkpt>
      <trkpt lat="44.15756" lon="6.07884">
        <ele>1330</ele>
        <time>2022-03-03T11:37:48.000Z</time>
      </trkpt>
      <trkpt lat="44.15756" lon="6.07884">
        <ele>1330</ele>
        <time>2022-03-03T11:37:49.000Z</time>
      </trkpt>
      <trkpt lat="44.15756" lon="6.07884">
        <ele>1330</ele>
        <time>2022-03-03T11:37:50.000Z</time>
      </trkpt>
      <trkpt lat="44.15756" lon="6.07884">
        <ele>1330</ele>
        <time>2022-03-03T11:37:51.000Z</time>
      </trkpt>
      <trkpt lat="44.15756" lon="6.07884">
        <ele>1330</ele>
        <time>2022-03-03T11:37:52.000Z</time>
      </trkpt>
      <trkpt lat="44.15756" lon="6.07884">
        <ele>1330</ele>
        <time>2022-03-03T11:37:53.000Z</time>
      </trkpt>
      <trkpt lat="44.15756" lon="6.07884">
        <ele>1330</ele>
        <time>2022-03-03T11:37:54.000Z</time>
      </trkpt>
      <trkpt lat="44.15756" lon="6.07884">
        <ele>1330</ele>
        <time>2022-03-03T11:37:55.000Z</time>
      </trkpt>
      <trkpt lat="44.15757" lon="6.07884">
        <ele>1330</ele>
        <time>2022-03-03T11:37:56.000Z</time>
      </trkpt>
      <trkpt lat="44.15757" lon="6.07885">
        <ele>1330</ele>
        <time>2022-03-03T11:37:57.000Z</time>
      </trkpt>
      <trkpt lat="44.15757" lon="6.07885">
        <ele>1330</ele>
        <time>2022-03-03T11:37:58.000Z</time>
      </trkpt>
      <trkpt lat="44.15757" lon="6.07886">
        <ele>1330</ele>
        <time>2022-03-03T11:37:59.000Z</time>
      </trkpt>
      <trkpt lat="44.15758" lon="6.07886">
        <ele>1330</ele>
        <time>2022-03-03T11:38:00.000Z</time>
      </trkpt>
      <trkpt lat="44.15758" lon="6.07885">
        <ele>1330</ele>
        <time>2022-03-03T11:38:01.000Z</time>
      </trkpt>
      <trkpt lat="44.15758" lon="6.07886">
        <ele>1330</ele>
        <time>2022-03-03T11:38:02.000Z</time>
      </trkpt>
      <trkpt lat="44.15759" lon="6.07886">
        <ele>1330</ele>
        <time>2022-03-03T11:38:03.000Z</time>
      </trkpt>
      <trkpt lat="44.15759" lon="6.07887">
        <ele>1330</ele>
        <time>2022-03-03T11:38:04.000Z</time>
      </trkpt>
      <trkpt lat="44.1576" lon="6.07887">
        <ele>1330</ele>
        <time>2022-03-03T11:38:05.000Z</time>
      </trkpt>
      <trkpt lat="44.1576" lon="6.07888">
        <ele>1330</ele>
        <time>2022-03-03T11:38:06.000Z</time>
      </trkpt>
      <trkpt lat="44.15761" lon="6.07888">
        <ele>1330</ele>
        <time>2022-03-03T11:38:07.000Z</time>
      </trkpt>
      <trkpt lat="44.15761" lon="6.07889">
        <ele>1330</ele>
        <time>2022-03-03T11:38:08.000Z</time>
      </trkpt>
      <trkpt lat="44.15761" lon="6.07889">
        <ele>1330</ele>
        <time>2022-03-03T11:38:09.000Z</time>
      </trkpt>
      <trkpt lat="44.15762" lon="6.0789">
        <ele>1330</ele>
        <time>2022-03-03T11:38:10.000Z</time>
      </trkpt>
      <trkpt lat="44.15762" lon="6.07891">
        <ele>1330</ele>
        <time>2022-03-03T11:38:11.000Z</time>
      </trkpt>
      <trkpt lat="44.15763" lon="6.07891">
        <ele>1330</ele>
        <time>2022-03-03T11:38:12.000Z</time>
      </trkpt>
      <trkpt lat="44.15763" lon="6.07892">
        <ele>1330</ele>
        <time>2022-03-03T11:38:13.000Z</time>
      </trkpt>
      <trkpt lat="44.15764" lon="6.07893">
        <ele>1330</ele>
        <time>2022-03-03T11:38:14.000Z</time>
      </trkpt>
      <trkpt lat="44.15764" lon="6.07893">
        <ele>1331</ele>
        <time>2022-03-03T11:38:15.000Z</time>
      </trkpt>
      <trkpt lat="44.15764" lon="6.07894">
        <ele>1331</ele>
        <time>2022-03-03T11:38:16.000Z</time>
      </trkpt>
      <trkpt lat="44.15765" lon="6.07894">
        <ele>1331</ele>
        <time>2022-03-03T11:38:17.000Z</time>
      </trkpt>
      <trkpt lat="44.15765" lon="6.07895">
        <ele>1331</ele>
        <time>2022-03-03T11:38:18.000Z</time>
      </trkpt>
      <trkpt lat="44.15766" lon="6.07896">
        <ele>1331</ele>
        <time>2022-03-03T11:38:19.000Z</time>
      </trkpt>
      <trkpt lat="44.15766" lon="6.07896">
        <ele>1331</ele>
        <time>2022-03-03T11:38:20.000Z</time>
      </trkpt>
      <trkpt lat="44.15767" lon="6.07897">
        <ele>1331</ele>
        <time>2022-03-03T11:38:21.000Z</time>
      </trkpt>
      <trkpt lat="44.15767" lon="6.07898">
        <ele>1331</ele>
        <time>2022-03-03T11:38:22.000Z</time>
      </trkpt>
      <trkpt lat="44.15768" lon="6.07899">
        <ele>1331</ele>
        <time>2022-03-03T11:38:23.000Z</time>
      </trkpt>
      <trkpt lat="44.15769" lon="6.07899">
        <ele>1331</ele>
        <time>2022-03-03T11:38:24.000Z</time>
      </trkpt>
      <trkpt lat="44.15769" lon="6.079">
        <ele>1331</ele>
        <time>2022-03-03T11:38:25.000Z</time>
      </trkpt>
      <trkpt lat="44.1577" lon="6.07902">
        <ele>1331</ele>
        <time>2022-03-03T11:38:26.000Z</time>
      </trkpt>
      <trkpt lat="44.1577" lon="6.07902">
        <ele>1331</ele>
        <time>2022-03-03T11:38:27.000Z</time>
      </trkpt>
      <trkpt lat="44.15771" lon="6.07903">
        <ele>1331</ele>
        <time>2022-03-03T11:38:28.000Z</time>
      </trkpt>
      <trkpt lat="44.15771" lon="6.07904">
        <ele>1331</ele>
        <time>2022-03-03T11:38:29.000Z</time>
      </trkpt>
      <trkpt lat="44.15772" lon="6.07904">
        <ele>1331</ele>
        <time>2022-03-03T11:38:30.000Z</time>
      </trkpt>
      <trkpt lat="44.15773" lon="6.07905">
        <ele>1331</ele>
        <time>2022-03-03T11:38:31.000Z</time>
      </trkpt>
      <trkpt lat="44.15774" lon="6.07907">
        <ele>1331</ele>
        <time>2022-03-03T11:38:32.000Z</time>
      </trkpt>
      <trkpt lat="44.15774" lon="6.07907">
        <ele>1331</ele>
        <time>2022-03-03T11:38:33.000Z</time>
      </trkpt>
      <trkpt lat="44.15775" lon="6.07908">
        <ele>1331</ele>
        <time>2022-03-03T11:38:34.000Z</time>
      </trkpt>
      <trkpt lat="44.15775" lon="6.07909">
        <ele>1331</ele>
        <time>2022-03-03T11:38:35.000Z</time>
      </trkpt>
      <trkpt lat="44.15776" lon="6.0791">
        <ele>1331</ele>
        <time>2022-03-03T11:38:36.000Z</time>
      </trkpt>
      <trkpt lat="44.15777" lon="6.0791">
        <ele>1331</ele>
        <time>2022-03-03T11:38:37.000Z</time>
      </trkpt>
      <trkpt lat="44.15777" lon="6.07911">
        <ele>1331</ele>
        <time>2022-03-03T11:38:38.000Z</time>
      </trkpt>
      <trkpt lat="44.15778" lon="6.07911">
        <ele>1331</ele>
        <time>2022-03-03T11:38:39.000Z</time>
      </trkpt>
      <trkpt lat="44.15778" lon="6.07912">
        <ele>1331</ele>
        <time>2022-03-03T11:38:40.000Z</time>
      </trkpt>
      <trkpt lat="44.15778" lon="6.07913">
        <ele>1331</ele>
        <time>2022-03-03T11:38:41.000Z</time>
      </trkpt>
      <trkpt lat="44.15779" lon="6.07914">
        <ele>1331</ele>
        <time>2022-03-03T11:38:42.000Z</time>
      </trkpt>
      <trkpt lat="44.1578" lon="6.07914">
        <ele>1331</ele>
        <time>2022-03-03T11:38:43.000Z</time>
      </trkpt>
      <trkpt lat="44.1578" lon="6.07915">
        <ele>1331</ele>
        <time>2022-03-03T11:38:44.000Z</time>
      </trkpt>
      <trkpt lat="44.1578" lon="6.07916">
        <ele>1331</ele>
        <time>2022-03-03T11:38:45.000Z</time>
      </trkpt>
      <trkpt lat="44.15781" lon="6.07916">
        <ele>1331</ele>
        <time>2022-03-03T11:38:46.000Z</time>
      </trkpt>
      <trkpt lat="44.15781" lon="6.07917">
        <ele>1332</ele>
        <time>2022-03-03T11:38:47.000Z</time>
      </trkpt>
      <trkpt lat="44.15782" lon="6.07918">
        <ele>1332</ele>
        <time>2022-03-03T11:38:48.000Z</time>
      </trkpt>
      <trkpt lat="44.15782" lon="6.07919">
        <ele>1332</ele>
        <time>2022-03-03T11:38:49.000Z</time>
      </trkpt>
      <trkpt lat="44.15783" lon="6.0792">
        <ele>1332</ele>
        <time>2022-03-03T11:38:50.000Z</time>
      </trkpt>
      <trkpt lat="44.15783" lon="6.07921">
        <ele>1332</ele>
        <time>2022-03-03T11:38:51.000Z</time>
      </trkpt>
      <trkpt lat="44.15784" lon="6.07922">
        <ele>1332</ele>
        <time>2022-03-03T11:38:52.000Z</time>
      </trkpt>
      <trkpt lat="44.15784" lon="6.07922">
        <ele>1332</ele>
        <time>2022-03-03T11:38:53.000Z</time>
      </trkpt>
      <trkpt lat="44.15785" lon="6.07923">
        <ele>1332</ele>
        <time>2022-03-03T11:38:54.000Z</time>
      </trkpt>
      <trkpt lat="44.15786" lon="6.07924">
        <ele>1332</ele>
        <time>2022-03-03T11:38:55.000Z</time>
      </trkpt>
      <trkpt lat="44.15786" lon="6.07924">
        <ele>1332</ele>
        <time>2022-03-03T11:38:56.000Z</time>
      </trkpt>
      <trkpt lat="44.15787" lon="6.07925">
        <ele>1332</ele>
        <time>2022-03-03T11:38:57.000Z</time>
      </trkpt>
      <trkpt lat="44.15788" lon="6.07926">
        <ele>1332</ele>
        <time>2022-03-03T11:38:58.000Z</time>
      </trkpt>
      <trkpt lat="44.15788" lon="6.07927">
        <ele>1332</ele>
        <time>2022-03-03T11:38:59.000Z</time>
      </trkpt>
      <trkpt lat="44.15789" lon="6.07928">
        <ele>1332</ele>
        <time>2022-03-03T11:39:00.000Z</time>
      </trkpt>
      <trkpt lat="44.15789" lon="6.07928">
        <ele>1332</ele>
        <time>2022-03-03T11:39:01.000Z</time>
      </trkpt>
      <trkpt lat="44.1579" lon="6.07929">
        <ele>1332</ele>
        <time>2022-03-03T11:39:02.000Z</time>
      </trkpt>
      <trkpt lat="44.15791" lon="6.0793">
        <ele>1332</ele>
        <time>2022-03-03T11:39:03.000Z</time>
      </trkpt>
      <trkpt lat="44.15791" lon="6.07931">
        <ele>1332</ele>
        <time>2022-03-03T11:39:04.000Z</time>
      </trkpt>
      <trkpt lat="44.15792" lon="6.07932">
        <ele>1332</ele>
        <time>2022-03-03T11:39:05.000Z</time>
      </trkpt>
      <trkpt lat="44.15793" lon="6.07932">
        <ele>1332</ele>
        <time>2022-03-03T11:39:06.000Z</time>
      </trkpt>
      <trkpt lat="44.15793" lon="6.07933">
        <ele>1333</ele>
        <time>2022-03-03T11:39:07.000Z</time>
      </trkpt>
      <trkpt lat="44.15794" lon="6.07934">
        <ele>1333</ele>
        <time>2022-03-03T11:39:08.000Z</time>
      </trkpt>
      <trkpt lat="44.15795" lon="6.07934">
        <ele>1333</ele>
        <time>2022-03-03T11:39:09.000Z</time>
      </trkpt>
      <trkpt lat="44.15795" lon="6.07935">
        <ele>1333</ele>
        <time>2022-03-03T11:39:10.000Z</time>
      </trkpt>
      <trkpt lat="44.15796" lon="6.07936">
        <ele>1333</ele>
        <time>2022-03-03T11:39:11.000Z</time>
      </trkpt>
      <trkpt lat="44.15796" lon="6.07936">
        <ele>1333</ele>
        <time>2022-03-03T11:39:12.000Z</time>
      </trkpt>
      <trkpt lat="44.15797" lon="6.07937">
        <ele>1333</ele>
        <time>2022-03-03T11:39:13.000Z</time>
      </trkpt>
      <trkpt lat="44.15798" lon="6.07938">
        <ele>1333</ele>
        <time>2022-03-03T11:39:14.000Z</time>
      </trkpt>
      <trkpt lat="44.15798" lon="6.07938">
        <ele>1333</ele>
        <time>2022-03-03T11:39:15.000Z</time>
      </trkpt>
      <trkpt lat="44.15799" lon="6.07939">
        <ele>1333</ele>
        <time>2022-03-03T11:39:16.000Z</time>
      </trkpt>
      <trkpt lat="44.158" lon="6.0794">
        <ele>1333</ele>
        <time>2022-03-03T11:39:17.000Z</time>
      </trkpt>
      <trkpt lat="44.15801" lon="6.07941">
        <ele>1333</ele>
        <time>2022-03-03T11:39:18.000Z</time>
      </trkpt>
      <trkpt lat="44.15801" lon="6.07942">
        <ele>1333</ele>
        <time>2022-03-03T11:39:19.000Z</time>
      </trkpt>
      <trkpt lat="44.15802" lon="6.07942">
        <ele>1333</ele>
        <time>2022-03-03T11:39:20.000Z</time>
      </trkpt>
      <trkpt lat="44.15803" lon="6.07943">
        <ele>1334</ele>
        <time>2022-03-03T11:39:21.000Z</time>
      </trkpt>
      <trkpt lat="44.15803" lon="6.07944">
        <ele>1334</ele>
        <time>2022-03-03T11:39:22.000Z</time>
      </trkpt>
      <trkpt lat="44.15804" lon="6.07944">
        <ele>1334</ele>
        <time>2022-03-03T11:39:23.000Z</time>
      </trkpt>
      <trkpt lat="44.15805" lon="6.07945">
        <ele>1334</ele>
        <time>2022-03-03T11:39:24.000Z</time>
      </trkpt>
      <trkpt lat="44.15805" lon="6.07945">
        <ele>1334</ele>
        <time>2022-03-03T11:39:25.000Z</time>
      </trkpt>
      <trkpt lat="44.15806" lon="6.07946">
        <ele>1334</ele>
        <time>2022-03-03T11:39:26.000Z</time>
      </trkpt>
      <trkpt lat="44.15807" lon="6.07947">
        <ele>1334</ele>
        <time>2022-03-03T11:39:27.000Z</time>
      </trkpt>
      <trkpt lat="44.15808" lon="6.07947">
        <ele>1334</ele>
        <time>2022-03-03T11:39:28.000Z</time>
      </trkpt>
      <trkpt lat="44.15808" lon="6.07948">
        <ele>1334</ele>
        <time>2022-03-03T11:39:29.000Z</time>
      </trkpt>
      <trkpt lat="44.15809" lon="6.07949">
        <ele>1334</ele>
        <time>2022-03-03T11:39:30.000Z</time>
      </trkpt>
      <trkpt lat="44.1581" lon="6.0795">
        <ele>1334</ele>
        <time>2022-03-03T11:39:31.000Z</time>
      </trkpt>
      <trkpt lat="44.15811" lon="6.0795">
        <ele>1335</ele>
        <time>2022-03-03T11:39:32.000Z</time>
      </trkpt>
      <trkpt lat="44.15811" lon="6.0795">
        <ele>1335</ele>
        <time>2022-03-03T11:39:33.000Z</time>
      </trkpt>
      <trkpt lat="44.15812" lon="6.07951">
        <ele>1335</ele>
        <time>2022-03-03T11:39:34.000Z</time>
      </trkpt>
      <trkpt lat="44.15813" lon="6.07952">
        <ele>1335</ele>
        <time>2022-03-03T11:39:35.000Z</time>
      </trkpt>
      <trkpt lat="44.15813" lon="6.07952">
        <ele>1334</ele>
        <time>2022-03-03T11:39:36.000Z</time>
      </trkpt>
      <trkpt lat="44.15814" lon="6.07954">
        <ele>1334</ele>
        <time>2022-03-03T11:39:37.000Z</time>
      </trkpt>
      <trkpt lat="44.15815" lon="6.07954">
        <ele>1334</ele>
        <time>2022-03-03T11:39:38.000Z</time>
      </trkpt>
      <trkpt lat="44.15816" lon="6.07955">
        <ele>1334</ele>
        <time>2022-03-03T11:39:39.000Z</time>
      </trkpt>
      <trkpt lat="44.15817" lon="6.07955">
        <ele>1335</ele>
        <time>2022-03-03T11:39:40.000Z</time>
      </trkpt>
      <trkpt lat="44.15818" lon="6.07956">
        <ele>1335</ele>
        <time>2022-03-03T11:39:41.000Z</time>
      </trkpt>
      <trkpt lat="44.15818" lon="6.07956">
        <ele>1335</ele>
        <time>2022-03-03T11:39:42.000Z</time>
      </trkpt>
      <trkpt lat="44.15819" lon="6.07957">
        <ele>1335</ele>
        <time>2022-03-03T11:39:43.000Z</time>
      </trkpt>
      <trkpt lat="44.1582" lon="6.07957">
        <ele>1335</ele>
        <time>2022-03-03T11:39:44.000Z</time>
      </trkpt>
      <trkpt lat="44.15821" lon="6.07958">
        <ele>1335</ele>
        <time>2022-03-03T11:39:45.000Z</time>
      </trkpt>
      <trkpt lat="44.15821" lon="6.07959">
        <ele>1335</ele>
        <time>2022-03-03T11:39:46.000Z</time>
      </trkpt>
      <trkpt lat="44.15822" lon="6.07959">
        <ele>1335</ele>
        <time>2022-03-03T11:39:47.000Z</time>
      </trkpt>
      <trkpt lat="44.15823" lon="6.0796">
        <ele>1335</ele>
        <time>2022-03-03T11:39:48.000Z</time>
      </trkpt>
      <trkpt lat="44.15824" lon="6.0796">
        <ele>1335</ele>
        <time>2022-03-03T11:39:49.000Z</time>
      </trkpt>
      <trkpt lat="44.15824" lon="6.07961">
        <ele>1335</ele>
        <time>2022-03-03T11:39:50.000Z</time>
      </trkpt>
      <trkpt lat="44.15825" lon="6.07962">
        <ele>1335</ele>
        <time>2022-03-03T11:39:51.000Z</time>
      </trkpt>
      <trkpt lat="44.15826" lon="6.07962">
        <ele>1335</ele>
        <time>2022-03-03T11:39:52.000Z</time>
      </trkpt>
      <trkpt lat="44.15826" lon="6.07963">
        <ele>1335</ele>
        <time>2022-03-03T11:39:53.000Z</time>
      </trkpt>
      <trkpt lat="44.15827" lon="6.07963">
        <ele>1335</ele>
        <time>2022-03-03T11:39:54.000Z</time>
      </trkpt>
      <trkpt lat="44.15828" lon="6.07964">
        <ele>1335</ele>
        <time>2022-03-03T11:39:55.000Z</time>
      </trkpt>
      <trkpt lat="44.15828" lon="6.07964">
        <ele>1335</ele>
        <time>2022-03-03T11:39:56.000Z</time>
      </trkpt>
      <trkpt lat="44.15829" lon="6.07965">
        <ele>1335</ele>
        <time>2022-03-03T11:39:57.000Z</time>
      </trkpt>
      <trkpt lat="44.1583" lon="6.07966">
        <ele>1335</ele>
        <time>2022-03-03T11:39:58.000Z</time>
      </trkpt>
      <trkpt lat="44.1583" lon="6.07966">
        <ele>1335</ele>
        <time>2022-03-03T11:39:59.000Z</time>
      </trkpt>
      <trkpt lat="44.15831" lon="6.07966">
        <ele>1334</ele>
        <time>2022-03-03T11:40:00.000Z</time>
      </trkpt>
      <trkpt lat="44.15832" lon="6.07967">
        <ele>1335</ele>
        <time>2022-03-03T11:40:01.000Z</time>
      </trkpt>
      <trkpt lat="44.15833" lon="6.07967">
        <ele>1335</ele>
        <time>2022-03-03T11:40:02.000Z</time>
      </trkpt>
      <trkpt lat="44.15834" lon="6.07968">
        <ele>1335</ele>
        <time>2022-03-03T11:40:03.000Z</time>
      </trkpt>
      <trkpt lat="44.15834" lon="6.07968">
        <ele>1334</ele>
        <time>2022-03-03T11:40:04.000Z</time>
      </trkpt>
      <trkpt lat="44.15835" lon="6.07969">
        <ele>1334</ele>
        <time>2022-03-03T11:40:05.000Z</time>
      </trkpt>
      <trkpt lat="44.15836" lon="6.0797">
        <ele>1334</ele>
        <time>2022-03-03T11:40:06.000Z</time>
      </trkpt>
      <trkpt lat="44.15837" lon="6.0797">
        <ele>1334</ele>
        <time>2022-03-03T11:40:07.000Z</time>
      </trkpt>
      <trkpt lat="44.15837" lon="6.07971">
        <ele>1334</ele>
        <time>2022-03-03T11:40:08.000Z</time>
      </trkpt>
      <trkpt lat="44.15838" lon="6.07971">
        <ele>1334</ele>
        <time>2022-03-03T11:40:09.000Z</time>
      </trkpt>
      <trkpt lat="44.15839" lon="6.07972">
        <ele>1334</ele>
        <time>2022-03-03T11:40:10.000Z</time>
      </trkpt>
      <trkpt lat="44.1584" lon="6.07972">
        <ele>1334</ele>
        <time>2022-03-03T11:40:11.000Z</time>
      </trkpt>
      <trkpt lat="44.1584" lon="6.07973">
        <ele>1334</ele>
        <time>2022-03-03T11:40:12.000Z</time>
      </trkpt>
      <trkpt lat="44.15841" lon="6.07974">
        <ele>1334</ele>
        <time>2022-03-03T11:40:13.000Z</time>
      </trkpt>
      <trkpt lat="44.15842" lon="6.07974">
        <ele>1334</ele>
        <time>2022-03-03T11:40:14.000Z</time>
      </trkpt>
      <trkpt lat="44.15842" lon="6.07975">
        <ele>1334</ele>
        <time>2022-03-03T11:40:15.000Z</time>
      </trkpt>
      <trkpt lat="44.15843" lon="6.07975">
        <ele>1334</ele>
        <time>2022-03-03T11:40:16.000Z</time>
      </trkpt>
      <trkpt lat="44.15844" lon="6.07976">
        <ele>1334</ele>
        <time>2022-03-03T11:40:17.000Z</time>
      </trkpt>
      <trkpt lat="44.15845" lon="6.07976">
        <ele>1334</ele>
        <time>2022-03-03T11:40:18.000Z</time>
      </trkpt>
      <trkpt lat="44.15846" lon="6.07977">
        <ele>1334</ele>
        <time>2022-03-03T11:40:19.000Z</time>
      </trkpt>
      <trkpt lat="44.15846" lon="6.07977">
        <ele>1334</ele>
        <time>2022-03-03T11:40:20.000Z</time>
      </trkpt>
      <trkpt lat="44.15847" lon="6.07978">
        <ele>1334</ele>
        <time>2022-03-03T11:40:21.000Z</time>
      </trkpt>
      <trkpt lat="44.15848" lon="6.07978">
        <ele>1334</ele>
        <time>2022-03-03T11:40:22.000Z</time>
      </trkpt>
      <trkpt lat="44.15849" lon="6.07978">
        <ele>1334</ele>
        <time>2022-03-03T11:40:23.000Z</time>
      </trkpt>
      <trkpt lat="44.15849" lon="6.07979">
        <ele>1334</ele>
        <time>2022-03-03T11:40:24.000Z</time>
      </trkpt>
      <trkpt lat="44.1585" lon="6.07979">
        <ele>1334</ele>
        <time>2022-03-03T11:40:25.000Z</time>
      </trkpt>
      <trkpt lat="44.15851" lon="6.0798">
        <ele>1334</ele>
        <time>2022-03-03T11:40:26.000Z</time>
      </trkpt>
      <trkpt lat="44.15852" lon="6.0798">
        <ele>1334</ele>
        <time>2022-03-03T11:40:27.000Z</time>
      </trkpt>
      <trkpt lat="44.15853" lon="6.07981">
        <ele>1334</ele>
        <time>2022-03-03T11:40:28.000Z</time>
      </trkpt>
      <trkpt lat="44.15853" lon="6.07981">
        <ele>1333</ele>
        <time>2022-03-03T11:40:29.000Z</time>
      </trkpt>
      <trkpt lat="44.15854" lon="6.07982">
        <ele>1333</ele>
        <time>2022-03-03T11:40:30.000Z</time>
      </trkpt>
      <trkpt lat="44.15855" lon="6.07982">
        <ele>1333</ele>
        <time>2022-03-03T11:40:31.000Z</time>
      </trkpt>
      <trkpt lat="44.15856" lon="6.07983">
        <ele>1334</ele>
        <time>2022-03-03T11:40:32.000Z</time>
      </trkpt>
      <trkpt lat="44.15857" lon="6.07983">
        <ele>1334</ele>
        <time>2022-03-03T11:40:33.000Z</time>
      </trkpt>
      <trkpt lat="44.15857" lon="6.07983">
        <ele>1334</ele>
        <time>2022-03-03T11:40:34.000Z</time>
      </trkpt>
      <trkpt lat="44.15858" lon="6.07984">
        <ele>1334</ele>
        <time>2022-03-03T11:40:35.000Z</time>
      </trkpt>
      <trkpt lat="44.15859" lon="6.07984">
        <ele>1334</ele>
        <time>2022-03-03T11:40:36.000Z</time>
      </trkpt>
      <trkpt lat="44.15859" lon="6.07985">
        <ele>1334</ele>
        <time>2022-03-03T11:40:37.000Z</time>
      </trkpt>
      <trkpt lat="44.1586" lon="6.07985">
        <ele>1334</ele>
        <time>2022-03-03T11:40:38.000Z</time>
      </trkpt>
      <trkpt lat="44.15861" lon="6.07985">
        <ele>1334</ele>
        <time>2022-03-03T11:40:39.000Z</time>
      </trkpt>
      <trkpt lat="44.15861" lon="6.07986">
        <ele>1334</ele>
        <time>2022-03-03T11:40:40.000Z</time>
      </trkpt>
      <trkpt lat="44.15861" lon="6.07986">
        <ele>1334</ele>
        <time>2022-03-03T11:40:41.000Z</time>
      </trkpt>
      <trkpt lat="44.15861" lon="6.07986">
        <ele>1334</ele>
        <time>2022-03-03T11:40:42.000Z</time>
      </trkpt>
      <trkpt lat="44.15861" lon="6.07986">
        <ele>1334</ele>
        <time>2022-03-03T11:40:43.000Z</time>
      </trkpt>
      <trkpt lat="44.15862" lon="6.07986">
        <ele>1334</ele>
        <time>2022-03-03T11:40:44.000Z</time>
      </trkpt>
      <trkpt lat="44.15862" lon="6.07986">
        <ele>1334</ele>
        <time>2022-03-03T11:40:45.000Z</time>
      </trkpt>
      <trkpt lat="44.15862" lon="6.07986">
        <ele>1334</ele>
        <time>2022-03-03T11:40:46.000Z</time>
      </trkpt>
      <trkpt lat="44.15862" lon="6.07986">
        <ele>1334</ele>
        <time>2022-03-03T11:40:47.000Z</time>
      </trkpt>
      <trkpt lat="44.15862" lon="6.07987">
        <ele>1334</ele>
        <time>2022-03-03T11:40:48.000Z</time>
      </trkpt>
      <trkpt lat="44.15862" lon="6.07987">
        <ele>1334</ele>
        <time>2022-03-03T11:40:49.000Z</time>
      </trkpt>
      <trkpt lat="44.15862" lon="6.07987">
        <ele>1334</ele>
        <time>2022-03-03T11:40:50.000Z</time>
      </trkpt>
      <trkpt lat="44.15862" lon="6.07987">
        <ele>1334</ele>
        <time>2022-03-03T11:40:51.000Z</time>
      </trkpt>
      <trkpt lat="44.15862" lon="6.07987">
        <ele>1334</ele>
        <time>2022-03-03T11:40:52.000Z</time>
      </trkpt>
      <trkpt lat="44.15862" lon="6.07986">
        <ele>1334</ele>
        <time>2022-03-03T11:40:53.000Z</time>
      </trkpt>
      <trkpt lat="44.15862" lon="6.07987">
        <ele>1334</ele>
        <time>2022-03-03T11:40:54.000Z</time>
      </trkpt>
      <trkpt lat="44.15862" lon="6.07987">
        <ele>1334</ele>
        <time>2022-03-03T11:40:55.000Z</time>
      </trkpt>
      <trkpt lat="44.15862" lon="6.07987">
        <ele>1334</ele>
        <time>2022-03-03T11:40:56.000Z</time>
      </trkpt>
      <trkpt lat="44.15862" lon="6.07987">
        <ele>1334</ele>
        <time>2022-03-03T11:40:57.000Z</time>
      </trkpt>
      <trkpt lat="44.15862" lon="6.07987">
        <ele>1334</ele>
        <time>2022-03-03T11:40:58.000Z</time>
      </trkpt>
      <trkpt lat="44.15862" lon="6.07987">
        <ele>1334</ele>
        <time>2022-03-03T11:40:59.000Z</time>
      </trkpt>
      <trkpt lat="44.15862" lon="6.07987">
        <ele>1334</ele>
        <time>2022-03-03T11:41:00.000Z</time>
      </trkpt>
      <trkpt lat="44.15862" lon="6.07987">
        <ele>1334</ele>
        <time>2022-03-03T11:41:01.000Z</time>
      </trkpt>
      <trkpt lat="44.15862" lon="6.07987">
        <ele>1334</ele>
        <time>2022-03-03T11:41:02.000Z</time>
      </trkpt>
      <trkpt lat="44.15862" lon="6.07987">
        <ele>1334</ele>
        <time>2022-03-03T11:41:03.000Z</time>
      </trkpt>
      <trkpt lat="44.15862" lon="6.07987">
        <ele>1334</ele>
        <time>2022-03-03T11:41:04.000Z</time>
      </trkpt>
      <trkpt lat="44.15862" lon="6.07987">
        <ele>1334</ele>
        <time>2022-03-03T11:41:05.000Z</time>
      </trkpt>
      <trkpt lat="44.15862" lon="6.07987">
        <ele>1334</ele>
        <time>2022-03-03T11:41:06.000Z</time>
      </trkpt>
      <trkpt lat="44.15862" lon="6.07987">
        <ele>1334</ele>
        <time>2022-03-03T11:41:07.000Z</time>
      </trkpt>
      <trkpt lat="44.15862" lon="6.07987">
        <ele>1334</ele>
        <time>2022-03-03T11:41:08.000Z</time>
      </trkpt>
      <trkpt lat="44.15862" lon="6.07987">
        <ele>1334</ele>
        <time>2022-03-03T11:41:09.000Z</time>
      </trkpt>
      <trkpt lat="44.15862" lon="6.07987">
        <ele>1334</ele>
        <time>2022-03-03T11:41:10.000Z</time>
      </trkpt>
      <trkpt lat="44.15863" lon="6.07987">
        <ele>1334</ele>
        <time>2022-03-03T11:41:11.000Z</time>
      </trkpt>
      <trkpt lat="44.15863" lon="6.07987">
        <ele>1334</ele>
        <time>2022-03-03T11:41:12.000Z</time>
      </trkpt>
      <trkpt lat="44.15862" lon="6.07987">
        <ele>1334</ele>
        <time>2022-03-03T11:41:13.000Z</time>
      </trkpt>
      <trkpt lat="44.15862" lon="6.07987">
        <ele>1334</ele>
        <time>2022-03-03T11:41:14.000Z</time>
      </trkpt>
      <trkpt lat="44.15862" lon="6.07987">
        <ele>1334</ele>
        <time>2022-03-03T11:41:15.000Z</time>
      </trkpt>
      <trkpt lat="44.15862" lon="6.07987">
        <ele>1334</ele>
        <time>2022-03-03T11:41:16.000Z</time>
      </trkpt>
      <trkpt lat="44.15863" lon="6.07987">
        <ele>1334</ele>
        <time>2022-03-03T11:41:17.000Z</time>
      </trkpt>
      <trkpt lat="44.15863" lon="6.07987">
        <ele>1334</ele>
        <time>2022-03-03T11:41:18.000Z</time>
      </trkpt>
      <trkpt lat="44.15863" lon="6.07987">
        <ele>1334</ele>
        <time>2022-03-03T11:41:19.000Z</time>
      </trkpt>
      <trkpt lat="44.15863" lon="6.07987">
        <ele>1333</ele>
        <time>2022-03-03T11:41:20.000Z</time>
      </trkpt>
      <trkpt lat="44.15864" lon="6.07987">
        <ele>1334</ele>
        <time>2022-03-03T11:41:21.000Z</time>
      </trkpt>
      <trkpt lat="44.15865" lon="6.07988">
        <ele>1334</ele>
        <time>2022-03-03T11:41:22.000Z</time>
      </trkpt>
      <trkpt lat="44.15866" lon="6.07988">
        <ele>1334</ele>
        <time>2022-03-03T11:41:23.000Z</time>
      </trkpt>
      <trkpt lat="44.15866" lon="6.07989">
        <ele>1334</ele>
        <time>2022-03-03T11:41:24.000Z</time>
      </trkpt>
      <trkpt lat="44.15867" lon="6.07989">
        <ele>1334</ele>
        <time>2022-03-03T11:41:25.000Z</time>
      </trkpt>
      <trkpt lat="44.15867" lon="6.0799">
        <ele>1334</ele>
        <time>2022-03-03T11:41:26.000Z</time>
      </trkpt>
      <trkpt lat="44.15868" lon="6.0799">
        <ele>1334</ele>
        <time>2022-03-03T11:41:27.000Z</time>
      </trkpt>
      <trkpt lat="44.15869" lon="6.07991">
        <ele>1334</ele>
        <time>2022-03-03T11:41:28.000Z</time>
      </trkpt>
      <trkpt lat="44.1587" lon="6.07991">
        <ele>1334</ele>
        <time>2022-03-03T11:41:29.000Z</time>
      </trkpt>
      <trkpt lat="44.15871" lon="6.07992">
        <ele>1334</ele>
        <time>2022-03-03T11:41:30.000Z</time>
      </trkpt>
      <trkpt lat="44.15872" lon="6.07992">
        <ele>1335</ele>
        <time>2022-03-03T11:41:31.000Z</time>
      </trkpt>
      <trkpt lat="44.15873" lon="6.07993">
        <ele>1335</ele>
        <time>2022-03-03T11:41:32.000Z</time>
      </trkpt>
      <trkpt lat="44.15874" lon="6.07993">
        <ele>1335</ele>
        <time>2022-03-03T11:41:33.000Z</time>
      </trkpt>
      <trkpt lat="44.15875" lon="6.07993">
        <ele>1335</ele>
        <time>2022-03-03T11:41:34.000Z</time>
      </trkpt>
      <trkpt lat="44.15876" lon="6.07994">
        <ele>1335</ele>
        <time>2022-03-03T11:41:35.000Z</time>
      </trkpt>
      <trkpt lat="44.15877" lon="6.07994">
        <ele>1335</ele>
        <time>2022-03-03T11:41:36.000Z</time>
      </trkpt>
      <trkpt lat="44.15878" lon="6.07995">
        <ele>1335</ele>
        <time>2022-03-03T11:41:37.000Z</time>
      </trkpt>
      <trkpt lat="44.15878" lon="6.07995">
        <ele>1335</ele>
        <time>2022-03-03T11:41:38.000Z</time>
      </trkpt>
      <trkpt lat="44.15879" lon="6.07995">
        <ele>1335</ele>
        <time>2022-03-03T11:41:39.000Z</time>
      </trkpt>
      <trkpt lat="44.1588" lon="6.07996">
        <ele>1335</ele>
        <time>2022-03-03T11:41:40.000Z</time>
      </trkpt>
      <trkpt lat="44.15881" lon="6.07996">
        <ele>1335</ele>
        <time>2022-03-03T11:41:41.000Z</time>
      </trkpt>
      <trkpt lat="44.15882" lon="6.07996">
        <ele>1335</ele>
        <time>2022-03-03T11:41:42.000Z</time>
      </trkpt>
      <trkpt lat="44.15883" lon="6.07997">
        <ele>1335</ele>
        <time>2022-03-03T11:41:43.000Z</time>
      </trkpt>
      <trkpt lat="44.15885" lon="6.07997">
        <ele>1335</ele>
        <time>2022-03-03T11:41:44.000Z</time>
      </trkpt>
      <trkpt lat="44.15886" lon="6.07997">
        <ele>1335</ele>
        <time>2022-03-03T11:41:45.000Z</time>
      </trkpt>
      <trkpt lat="44.15886" lon="6.07998">
        <ele>1335</ele>
        <time>2022-03-03T11:41:46.000Z</time>
      </trkpt>
      <trkpt lat="44.15888" lon="6.07998">
        <ele>1335</ele>
        <time>2022-03-03T11:41:47.000Z</time>
      </trkpt>
      <trkpt lat="44.15888" lon="6.07998">
        <ele>1336</ele>
        <time>2022-03-03T11:41:48.000Z</time>
      </trkpt>
      <trkpt lat="44.1589" lon="6.07998">
        <ele>1336</ele>
        <time>2022-03-03T11:41:49.000Z</time>
      </trkpt>
      <trkpt lat="44.15891" lon="6.07999">
        <ele>1336</ele>
        <time>2022-03-03T11:41:50.000Z</time>
      </trkpt>
      <trkpt lat="44.15892" lon="6.07999">
        <ele>1336</ele>
        <time>2022-03-03T11:41:51.000Z</time>
      </trkpt>
      <trkpt lat="44.15893" lon="6.08">
        <ele>1336</ele>
        <time>2022-03-03T11:41:52.000Z</time>
      </trkpt>
      <trkpt lat="44.15894" lon="6.08">
        <ele>1336</ele>
        <time>2022-03-03T11:41:53.000Z</time>
      </trkpt>
      <trkpt lat="44.15895" lon="6.08">
        <ele>1336</ele>
        <time>2022-03-03T11:41:54.000Z</time>
      </trkpt>
      <trkpt lat="44.15896" lon="6.08">
        <ele>1336</ele>
        <time>2022-03-03T11:41:55.000Z</time>
      </trkpt>
      <trkpt lat="44.15897" lon="6.08">
        <ele>1336</ele>
        <time>2022-03-03T11:41:56.000Z</time>
      </trkpt>
      <trkpt lat="44.15898" lon="6.08001">
        <ele>1337</ele>
        <time>2022-03-03T11:41:57.000Z</time>
      </trkpt>
      <trkpt lat="44.15899" lon="6.08001">
        <ele>1337</ele>
        <time>2022-03-03T11:41:58.000Z</time>
      </trkpt>
      <trkpt lat="44.159" lon="6.08001">
        <ele>1337</ele>
        <time>2022-03-03T11:41:59.000Z</time>
      </trkpt>
      <trkpt lat="44.15901" lon="6.08002">
        <ele>1337</ele>
        <time>2022-03-03T11:42:00.000Z</time>
      </trkpt>
      <trkpt lat="44.15902" lon="6.08002">
        <ele>1337</ele>
        <time>2022-03-03T11:42:01.000Z</time>
      </trkpt>
      <trkpt lat="44.15903" lon="6.08002">
        <ele>1337</ele>
        <time>2022-03-03T11:42:02.000Z</time>
      </trkpt>
      <trkpt lat="44.15903" lon="6.08003">
        <ele>1337</ele>
        <time>2022-03-03T11:42:03.000Z</time>
      </trkpt>
      <trkpt lat="44.15905" lon="6.08003">
        <ele>1337</ele>
        <time>2022-03-03T11:42:04.000Z</time>
      </trkpt>
      <trkpt lat="44.15906" lon="6.08004">
        <ele>1336</ele>
        <time>2022-03-03T11:42:05.000Z</time>
      </trkpt>
      <trkpt lat="44.15907" lon="6.08004">
        <ele>1336</ele>
        <time>2022-03-03T11:42:06.000Z</time>
      </trkpt>
      <trkpt lat="44.15908" lon="6.08005">
        <ele>1336</ele>
        <time>2022-03-03T11:42:07.000Z</time>
      </trkpt>
      <trkpt lat="44.15908" lon="6.08005">
        <ele>1336</ele>
        <time>2022-03-03T11:42:08.000Z</time>
      </trkpt>
      <trkpt lat="44.15909" lon="6.08006">
        <ele>1336</ele>
        <time>2022-03-03T11:42:09.000Z</time>
      </trkpt>
      <trkpt lat="44.1591" lon="6.08006">
        <ele>1336</ele>
        <time>2022-03-03T11:42:10.000Z</time>
      </trkpt>
      <trkpt lat="44.15911" lon="6.08007">
        <ele>1336</ele>
        <time>2022-03-03T11:42:11.000Z</time>
      </trkpt>
      <trkpt lat="44.15912" lon="6.08007">
        <ele>1336</ele>
        <time>2022-03-03T11:42:12.000Z</time>
      </trkpt>
      <trkpt lat="44.15913" lon="6.08008">
        <ele>1336</ele>
        <time>2022-03-03T11:42:13.000Z</time>
      </trkpt>
      <trkpt lat="44.15914" lon="6.08009">
        <ele>1336</ele>
        <time>2022-03-03T11:42:14.000Z</time>
      </trkpt>
      <trkpt lat="44.15914" lon="6.08009">
        <ele>1336</ele>
        <time>2022-03-03T11:42:15.000Z</time>
      </trkpt>
      <trkpt lat="44.15915" lon="6.0801">
        <ele>1336</ele>
        <time>2022-03-03T11:42:16.000Z</time>
      </trkpt>
      <trkpt lat="44.15916" lon="6.08011">
        <ele>1336</ele>
        <time>2022-03-03T11:42:17.000Z</time>
      </trkpt>
      <trkpt lat="44.15917" lon="6.08012">
        <ele>1336</ele>
        <time>2022-03-03T11:42:18.000Z</time>
      </trkpt>
      <trkpt lat="44.15918" lon="6.08012">
        <ele>1336</ele>
        <time>2022-03-03T11:42:19.000Z</time>
      </trkpt>
      <trkpt lat="44.15919" lon="6.08013">
        <ele>1336</ele>
        <time>2022-03-03T11:42:20.000Z</time>
      </trkpt>
      <trkpt lat="44.1592" lon="6.08014">
        <ele>1336</ele>
        <time>2022-03-03T11:42:21.000Z</time>
      </trkpt>
      <trkpt lat="44.15922" lon="6.08015">
        <ele>1336</ele>
        <time>2022-03-03T11:42:22.000Z</time>
      </trkpt>
      <trkpt lat="44.15923" lon="6.08016">
        <ele>1336</ele>
        <time>2022-03-03T11:42:23.000Z</time>
      </trkpt>
      <trkpt lat="44.15924" lon="6.08017">
        <ele>1336</ele>
        <time>2022-03-03T11:42:24.000Z</time>
      </trkpt>
      <trkpt lat="44.15925" lon="6.08017">
        <ele>1336</ele>
        <time>2022-03-03T11:42:25.000Z</time>
      </trkpt>
      <trkpt lat="44.15926" lon="6.08018">
        <ele>1336</ele>
        <time>2022-03-03T11:42:26.000Z</time>
      </trkpt>
      <trkpt lat="44.15927" lon="6.08019">
        <ele>1336</ele>
        <time>2022-03-03T11:42:27.000Z</time>
      </trkpt>
      <trkpt lat="44.15928" lon="6.0802">
        <ele>1336</ele>
        <time>2022-03-03T11:42:28.000Z</time>
      </trkpt>
      <trkpt lat="44.15928" lon="6.08021">
        <ele>1336</ele>
        <time>2022-03-03T11:42:29.000Z</time>
      </trkpt>
      <trkpt lat="44.15929" lon="6.08022">
        <ele>1336</ele>
        <time>2022-03-03T11:42:30.000Z</time>
      </trkpt>
      <trkpt lat="44.1593" lon="6.08023">
        <ele>1336</ele>
        <time>2022-03-03T11:42:31.000Z</time>
      </trkpt>
      <trkpt lat="44.15931" lon="6.08024">
        <ele>1335</ele>
        <time>2022-03-03T11:42:32.000Z</time>
      </trkpt>
      <trkpt lat="44.15931" lon="6.08025">
        <ele>1336</ele>
        <time>2022-03-03T11:42:33.000Z</time>
      </trkpt>
      <trkpt lat="44.15932" lon="6.08025">
        <ele>1335</ele>
        <time>2022-03-03T11:42:34.000Z</time>
      </trkpt>
      <trkpt lat="44.15933" lon="6.08026">
        <ele>1335</ele>
        <time>2022-03-03T11:42:35.000Z</time>
      </trkpt>
      <trkpt lat="44.15934" lon="6.08027">
        <ele>1335</ele>
        <time>2022-03-03T11:42:36.000Z</time>
      </trkpt>
      <trkpt lat="44.15935" lon="6.08028">
        <ele>1335</ele>
        <time>2022-03-03T11:42:37.000Z</time>
      </trkpt>
      <trkpt lat="44.15935" lon="6.08029">
        <ele>1335</ele>
        <time>2022-03-03T11:42:38.000Z</time>
      </trkpt>
      <trkpt lat="44.15936" lon="6.0803">
        <ele>1335</ele>
        <time>2022-03-03T11:42:39.000Z</time>
      </trkpt>
      <trkpt lat="44.15937" lon="6.08031">
        <ele>1335</ele>
        <time>2022-03-03T11:42:40.000Z</time>
      </trkpt>
      <trkpt lat="44.15938" lon="6.08033">
        <ele>1335</ele>
        <time>2022-03-03T11:42:41.000Z</time>
      </trkpt>
      <trkpt lat="44.15939" lon="6.08034">
        <ele>1335</ele>
        <time>2022-03-03T11:42:42.000Z</time>
      </trkpt>
      <trkpt lat="44.1594" lon="6.08035">
        <ele>1335</ele>
        <time>2022-03-03T11:42:43.000Z</time>
      </trkpt>
      <trkpt lat="44.1594" lon="6.08036">
        <ele>1336</ele>
        <time>2022-03-03T11:42:44.000Z</time>
      </trkpt>
      <trkpt lat="44.15941" lon="6.08037">
        <ele>1336</ele>
        <time>2022-03-03T11:42:45.000Z</time>
      </trkpt>
      <trkpt lat="44.15942" lon="6.08038">
        <ele>1336</ele>
        <time>2022-03-03T11:42:46.000Z</time>
      </trkpt>
      <trkpt lat="44.15943" lon="6.08039">
        <ele>1336</ele>
        <time>2022-03-03T11:42:47.000Z</time>
      </trkpt>
      <trkpt lat="44.15943" lon="6.08041">
        <ele>1336</ele>
        <time>2022-03-03T11:42:48.000Z</time>
      </trkpt>
      <trkpt lat="44.15944" lon="6.08041">
        <ele>1336</ele>
        <time>2022-03-03T11:42:49.000Z</time>
      </trkpt>
      <trkpt lat="44.15944" lon="6.08043">
        <ele>1336</ele>
        <time>2022-03-03T11:42:50.000Z</time>
      </trkpt>
      <trkpt lat="44.15945" lon="6.08044">
        <ele>1336</ele>
        <time>2022-03-03T11:42:51.000Z</time>
      </trkpt>
      <trkpt lat="44.15946" lon="6.08045">
        <ele>1336</ele>
        <time>2022-03-03T11:42:52.000Z</time>
      </trkpt>
      <trkpt lat="44.15946" lon="6.08047">
        <ele>1336</ele>
        <time>2022-03-03T11:42:53.000Z</time>
      </trkpt>
      <trkpt lat="44.15946" lon="6.08047">
        <ele>1336</ele>
        <time>2022-03-03T11:42:54.000Z</time>
      </trkpt>
      <trkpt lat="44.15947" lon="6.08048">
        <ele>1336</ele>
        <time>2022-03-03T11:42:55.000Z</time>
      </trkpt>
      <trkpt lat="44.15947" lon="6.08049">
        <ele>1336</ele>
        <time>2022-03-03T11:42:56.000Z</time>
      </trkpt>
      <trkpt lat="44.15948" lon="6.0805">
        <ele>1336</ele>
        <time>2022-03-03T11:42:57.000Z</time>
      </trkpt>
      <trkpt lat="44.15948" lon="6.08051">
        <ele>1336</ele>
        <time>2022-03-03T11:42:58.000Z</time>
      </trkpt>
      <trkpt lat="44.15949" lon="6.08052">
        <ele>1336</ele>
        <time>2022-03-03T11:42:59.000Z</time>
      </trkpt>
      <trkpt lat="44.15949" lon="6.08053">
        <ele>1337</ele>
        <time>2022-03-03T11:43:00.000Z</time>
      </trkpt>
      <trkpt lat="44.1595" lon="6.08053">
        <ele>1337</ele>
        <time>2022-03-03T11:43:01.000Z</time>
      </trkpt>
      <trkpt lat="44.1595" lon="6.08054">
        <ele>1337</ele>
        <time>2022-03-03T11:43:02.000Z</time>
      </trkpt>
      <trkpt lat="44.15951" lon="6.08055">
        <ele>1337</ele>
        <time>2022-03-03T11:43:03.000Z</time>
      </trkpt>
      <trkpt lat="44.15951" lon="6.08056">
        <ele>1337</ele>
        <time>2022-03-03T11:43:04.000Z</time>
      </trkpt>
      <trkpt lat="44.15952" lon="6.08056">
        <ele>1337</ele>
        <time>2022-03-03T11:43:05.000Z</time>
      </trkpt>
      <trkpt lat="44.15952" lon="6.08057">
        <ele>1337</ele>
        <time>2022-03-03T11:43:06.000Z</time>
      </trkpt>
      <trkpt lat="44.15953" lon="6.08058">
        <ele>1337</ele>
        <time>2022-03-03T11:43:07.000Z</time>
      </trkpt>
      <trkpt lat="44.15953" lon="6.08059">
        <ele>1337</ele>
        <time>2022-03-03T11:43:08.000Z</time>
      </trkpt>
      <trkpt lat="44.15954" lon="6.0806">
        <ele>1338</ele>
        <time>2022-03-03T11:43:09.000Z</time>
      </trkpt>
      <trkpt lat="44.15954" lon="6.0806">
        <ele>1338</ele>
        <time>2022-03-03T11:43:10.000Z</time>
      </trkpt>
      <trkpt lat="44.15955" lon="6.08061">
        <ele>1338</ele>
        <time>2022-03-03T11:43:11.000Z</time>
      </trkpt>
      <trkpt lat="44.15955" lon="6.08062">
        <ele>1338</ele>
        <time>2022-03-03T11:43:12.000Z</time>
      </trkpt>
      <trkpt lat="44.15956" lon="6.08062">
        <ele>1338</ele>
        <time>2022-03-03T11:43:13.000Z</time>
      </trkpt>
      <trkpt lat="44.15957" lon="6.08063">
        <ele>1339</ele>
        <time>2022-03-03T11:43:14.000Z</time>
      </trkpt>
      <trkpt lat="44.15957" lon="6.08064">
        <ele>1339</ele>
        <time>2022-03-03T11:43:15.000Z</time>
      </trkpt>
      <trkpt lat="44.15958" lon="6.08064">
        <ele>1339</ele>
        <time>2022-03-03T11:43:16.000Z</time>
      </trkpt>
      <trkpt lat="44.15958" lon="6.08065">
        <ele>1339</ele>
        <time>2022-03-03T11:43:17.000Z</time>
      </trkpt>
      <trkpt lat="44.15959" lon="6.08066">
        <ele>1340</ele>
        <time>2022-03-03T11:43:18.000Z</time>
      </trkpt>
      <trkpt lat="44.1596" lon="6.08066">
        <ele>1340</ele>
        <time>2022-03-03T11:43:19.000Z</time>
      </trkpt>
      <trkpt lat="44.1596" lon="6.08067">
        <ele>1340</ele>
        <time>2022-03-03T11:43:20.000Z</time>
      </trkpt>
      <trkpt lat="44.15961" lon="6.08068">
        <ele>1340</ele>
        <time>2022-03-03T11:43:21.000Z</time>
      </trkpt>
      <trkpt lat="44.15961" lon="6.08069">
        <ele>1340</ele>
        <time>2022-03-03T11:43:22.000Z</time>
      </trkpt>
      <trkpt lat="44.15962" lon="6.0807">
        <ele>1340</ele>
        <time>2022-03-03T11:43:23.000Z</time>
      </trkpt>
      <trkpt lat="44.15962" lon="6.0807">
        <ele>1341</ele>
        <time>2022-03-03T11:43:24.000Z</time>
      </trkpt>
      <trkpt lat="44.15963" lon="6.08071">
        <ele>1341</ele>
        <time>2022-03-03T11:43:25.000Z</time>
      </trkpt>
      <trkpt lat="44.15963" lon="6.08072">
        <ele>1341</ele>
        <time>2022-03-03T11:43:26.000Z</time>
      </trkpt>
      <trkpt lat="44.15963" lon="6.08073">
        <ele>1341</ele>
        <time>2022-03-03T11:43:27.000Z</time>
      </trkpt>
      <trkpt lat="44.15964" lon="6.08074">
        <ele>1341</ele>
        <time>2022-03-03T11:43:28.000Z</time>
      </trkpt>
      <trkpt lat="44.15964" lon="6.08075">
        <ele>1341</ele>
        <time>2022-03-03T11:43:29.000Z</time>
      </trkpt>
      <trkpt lat="44.15965" lon="6.08075">
        <ele>1341</ele>
        <time>2022-03-03T11:43:30.000Z</time>
      </trkpt>
      <trkpt lat="44.15966" lon="6.08076">
        <ele>1342</ele>
        <time>2022-03-03T11:43:31.000Z</time>
      </trkpt>
      <trkpt lat="44.15966" lon="6.08076">
        <ele>1342</ele>
        <time>2022-03-03T11:43:32.000Z</time>
      </trkpt>
      <trkpt lat="44.15967" lon="6.08077">
        <ele>1342</ele>
        <time>2022-03-03T11:43:33.000Z</time>
      </trkpt>
      <trkpt lat="44.15967" lon="6.08078">
        <ele>1342</ele>
        <time>2022-03-03T11:43:34.000Z</time>
      </trkpt>
      <trkpt lat="44.15968" lon="6.08078">
        <ele>1342</ele>
        <time>2022-03-03T11:43:35.000Z</time>
      </trkpt>
      <trkpt lat="44.15969" lon="6.08078">
        <ele>1342</ele>
        <time>2022-03-03T11:43:36.000Z</time>
      </trkpt>
      <trkpt lat="44.15969" lon="6.08078">
        <ele>1342</ele>
        <time>2022-03-03T11:43:37.000Z</time>
      </trkpt>
      <trkpt lat="44.1597" lon="6.08079">
        <ele>1342</ele>
        <time>2022-03-03T11:43:38.000Z</time>
      </trkpt>
      <trkpt lat="44.1597" lon="6.08079">
        <ele>1343</ele>
        <time>2022-03-03T11:43:39.000Z</time>
      </trkpt>
      <trkpt lat="44.15971" lon="6.0808">
        <ele>1343</ele>
        <time>2022-03-03T11:43:40.000Z</time>
      </trkpt>
      <trkpt lat="44.15972" lon="6.0808">
        <ele>1343</ele>
        <time>2022-03-03T11:43:41.000Z</time>
      </trkpt>
      <trkpt lat="44.15973" lon="6.0808">
        <ele>1343</ele>
        <time>2022-03-03T11:43:42.000Z</time>
      </trkpt>
      <trkpt lat="44.15973" lon="6.08081">
        <ele>1343</ele>
        <time>2022-03-03T11:43:43.000Z</time>
      </trkpt>
      <trkpt lat="44.15974" lon="6.08081">
        <ele>1344</ele>
        <time>2022-03-03T11:43:44.000Z</time>
      </trkpt>
      <trkpt lat="44.15975" lon="6.08082">
        <ele>1344</ele>
        <time>2022-03-03T11:43:45.000Z</time>
      </trkpt>
      <trkpt lat="44.15975" lon="6.08082">
        <ele>1344</ele>
        <time>2022-03-03T11:43:46.000Z</time>
      </trkpt>
      <trkpt lat="44.15976" lon="6.08082">
        <ele>1344</ele>
        <time>2022-03-03T11:43:47.000Z</time>
      </trkpt>
      <trkpt lat="44.15977" lon="6.08082">
        <ele>1344</ele>
        <time>2022-03-03T11:43:48.000Z</time>
      </trkpt>
      <trkpt lat="44.15977" lon="6.08083">
        <ele>1344</ele>
        <time>2022-03-03T11:43:49.000Z</time>
      </trkpt>
      <trkpt lat="44.15978" lon="6.08083">
        <ele>1344</ele>
        <time>2022-03-03T11:43:50.000Z</time>
      </trkpt>
      <trkpt lat="44.15979" lon="6.08083">
        <ele>1344</ele>
        <time>2022-03-03T11:43:51.000Z</time>
      </trkpt>
      <trkpt lat="44.15979" lon="6.08084">
        <ele>1345</ele>
        <time>2022-03-03T11:43:52.000Z</time>
      </trkpt>
      <trkpt lat="44.1598" lon="6.08084">
        <ele>1345</ele>
        <time>2022-03-03T11:43:53.000Z</time>
      </trkpt>
      <trkpt lat="44.15981" lon="6.08085">
        <ele>1345</ele>
        <time>2022-03-03T11:43:54.000Z</time>
      </trkpt>
      <trkpt lat="44.15981" lon="6.08085">
        <ele>1345</ele>
        <time>2022-03-03T11:43:55.000Z</time>
      </trkpt>
      <trkpt lat="44.15982" lon="6.08085">
        <ele>1345</ele>
        <time>2022-03-03T11:43:56.000Z</time>
      </trkpt>
      <trkpt lat="44.15983" lon="6.08085">
        <ele>1345</ele>
        <time>2022-03-03T11:43:57.000Z</time>
      </trkpt>
      <trkpt lat="44.15984" lon="6.08086">
        <ele>1345</ele>
        <time>2022-03-03T11:43:58.000Z</time>
      </trkpt>
      <trkpt lat="44.15984" lon="6.08086">
        <ele>1345</ele>
        <time>2022-03-03T11:43:59.000Z</time>
      </trkpt>
      <trkpt lat="44.15985" lon="6.08086">
        <ele>1345</ele>
        <time>2022-03-03T11:44:00.000Z</time>
      </trkpt>
      <trkpt lat="44.15986" lon="6.08086">
        <ele>1345</ele>
        <time>2022-03-03T11:44:01.000Z</time>
      </trkpt>
      <trkpt lat="44.15986" lon="6.08086">
        <ele>1346</ele>
        <time>2022-03-03T11:44:02.000Z</time>
      </trkpt>
      <trkpt lat="44.15987" lon="6.08086">
        <ele>1346</ele>
        <time>2022-03-03T11:44:03.000Z</time>
      </trkpt>
      <trkpt lat="44.15988" lon="6.08086">
        <ele>1346</ele>
        <time>2022-03-03T11:44:04.000Z</time>
      </trkpt>
      <trkpt lat="44.15989" lon="6.08086">
        <ele>1346</ele>
        <time>2022-03-03T11:44:05.000Z</time>
      </trkpt>
      <trkpt lat="44.15989" lon="6.08087">
        <ele>1346</ele>
        <time>2022-03-03T11:44:06.000Z</time>
      </trkpt>
      <trkpt lat="44.15989" lon="6.08087">
        <ele>1346</ele>
        <time>2022-03-03T11:44:07.000Z</time>
      </trkpt>
      <trkpt lat="44.15989" lon="6.08087">
        <ele>1346</ele>
        <time>2022-03-03T11:44:08.000Z</time>
      </trkpt>
      <trkpt lat="44.1599" lon="6.08087">
        <ele>1346</ele>
        <time>2022-03-03T11:44:09.000Z</time>
      </trkpt>
      <trkpt lat="44.1599" lon="6.08087">
        <ele>1346</ele>
        <time>2022-03-03T11:44:10.000Z</time>
      </trkpt>
      <trkpt lat="44.1599" lon="6.08087">
        <ele>1346</ele>
        <time>2022-03-03T11:44:11.000Z</time>
      </trkpt>
      <trkpt lat="44.1599" lon="6.08087">
        <ele>1347</ele>
        <time>2022-03-03T11:44:12.000Z</time>
      </trkpt>
      <trkpt lat="44.1599" lon="6.08087">
        <ele>1347</ele>
        <time>2022-03-03T11:44:13.000Z</time>
      </trkpt>
      <trkpt lat="44.1599" lon="6.08087">
        <ele>1347</ele>
        <time>2022-03-03T11:44:14.000Z</time>
      </trkpt>
      <trkpt lat="44.1599" lon="6.08087">
        <ele>1347</ele>
        <time>2022-03-03T11:44:15.000Z</time>
      </trkpt>
      <trkpt lat="44.1599" lon="6.08087">
        <ele>1347</ele>
        <time>2022-03-03T11:44:16.000Z</time>
      </trkpt>
      <trkpt lat="44.1599" lon="6.08087">
        <ele>1347</ele>
        <time>2022-03-03T11:44:17.000Z</time>
      </trkpt>
      <trkpt lat="44.1599" lon="6.08087">
        <ele>1347</ele>
        <time>2022-03-03T11:44:18.000Z</time>
      </trkpt>
      <trkpt lat="44.1599" lon="6.08087">
        <ele>1347</ele>
        <time>2022-03-03T11:44:19.000Z</time>
      </trkpt>
      <trkpt lat="44.1599" lon="6.08087">
        <ele>1347</ele>
        <time>2022-03-03T11:44:20.000Z</time>
      </trkpt>
      <trkpt lat="44.1599" lon="6.08087">
        <ele>1347</ele>
        <time>2022-03-03T11:44:21.000Z</time>
      </trkpt>
      <trkpt lat="44.1599" lon="6.08087">
        <ele>1347</ele>
        <time>2022-03-03T11:44:22.000Z</time>
      </trkpt>
      <trkpt lat="44.1599" lon="6.08087">
        <ele>1347</ele>
        <time>2022-03-03T11:44:23.000Z</time>
      </trkpt>
      <trkpt lat="44.1599" lon="6.08087">
        <ele>1347</ele>
        <time>2022-03-03T11:44:24.000Z</time>
      </trkpt>
      <trkpt lat="44.15991" lon="6.08087">
        <ele>1347</ele>
        <time>2022-03-03T11:44:25.000Z</time>
      </trkpt>
      <trkpt lat="44.15991" lon="6.08087">
        <ele>1347</ele>
        <time>2022-03-03T11:44:26.000Z</time>
      </trkpt>
      <trkpt lat="44.15991" lon="6.08087">
        <ele>1347</ele>
        <time>2022-03-03T11:44:27.000Z</time>
      </trkpt>
      <trkpt lat="44.15991" lon="6.08087">
        <ele>1347</ele>
        <time>2022-03-03T11:44:28.000Z</time>
      </trkpt>
      <trkpt lat="44.15991" lon="6.08087">
        <ele>1347</ele>
        <time>2022-03-03T11:44:29.000Z</time>
      </trkpt>
      <trkpt lat="44.15991" lon="6.08087">
        <ele>1347</ele>
        <time>2022-03-03T11:44:30.000Z</time>
      </trkpt>
      <trkpt lat="44.15991" lon="6.08087">
        <ele>1347</ele>
        <time>2022-03-03T11:44:31.000Z</time>
      </trkpt>
      <trkpt lat="44.15991" lon="6.08087">
        <ele>1347</ele>
        <time>2022-03-03T11:44:32.000Z</time>
      </trkpt>
      <trkpt lat="44.15991" lon="6.08087">
        <ele>1347</ele>
        <time>2022-03-03T11:44:33.000Z</time>
      </trkpt>
      <trkpt lat="44.15991" lon="6.08087">
        <ele>1346</ele>
        <time>2022-03-03T11:44:34.000Z</time>
      </trkpt>
      <trkpt lat="44.15992" lon="6.08087">
        <ele>1346</ele>
        <time>2022-03-03T11:44:35.000Z</time>
      </trkpt>
      <trkpt lat="44.15992" lon="6.08087">
        <ele>1346</ele>
        <time>2022-03-03T11:44:36.000Z</time>
      </trkpt>
      <trkpt lat="44.15992" lon="6.08087">
        <ele>1346</ele>
        <time>2022-03-03T11:44:37.000Z</time>
      </trkpt>
      <trkpt lat="44.15992" lon="6.08087">
        <ele>1346</ele>
        <time>2022-03-03T11:44:38.000Z</time>
      </trkpt>
      <trkpt lat="44.15992" lon="6.08087">
        <ele>1346</ele>
        <time>2022-03-03T11:44:39.000Z</time>
      </trkpt>
      <trkpt lat="44.15992" lon="6.08087">
        <ele>1347</ele>
        <time>2022-03-03T11:44:40.000Z</time>
      </trkpt>
      <trkpt lat="44.15992" lon="6.08088">
        <ele>1347</ele>
        <time>2022-03-03T11:44:41.000Z</time>
      </trkpt>
      <trkpt lat="44.15992" lon="6.08088">
        <ele>1347</ele>
        <time>2022-03-03T11:44:42.000Z</time>
      </trkpt>
      <trkpt lat="44.15992" lon="6.08088">
        <ele>1347</ele>
        <time>2022-03-03T11:44:43.000Z</time>
      </trkpt>
      <trkpt lat="44.15992" lon="6.08087">
        <ele>1347</ele>
        <time>2022-03-03T11:44:44.000Z</time>
      </trkpt>
      <trkpt lat="44.15992" lon="6.08087">
        <ele>1347</ele>
        <time>2022-03-03T11:44:45.000Z</time>
      </trkpt>
      <trkpt lat="44.15992" lon="6.08087">
        <ele>1347</ele>
        <time>2022-03-03T11:44:46.000Z</time>
      </trkpt>
      <trkpt lat="44.15992" lon="6.08087">
        <ele>1347</ele>
        <time>2022-03-03T11:44:47.000Z</time>
      </trkpt>
      <trkpt lat="44.15992" lon="6.08087">
        <ele>1347</ele>
        <time>2022-03-03T11:44:48.000Z</time>
      </trkpt>
      <trkpt lat="44.15992" lon="6.08088">
        <ele>1347</ele>
        <time>2022-03-03T11:44:49.000Z</time>
      </trkpt>
      <trkpt lat="44.15992" lon="6.08088">
        <ele>1347</ele>
        <time>2022-03-03T11:44:50.000Z</time>
      </trkpt>
      <trkpt lat="44.15992" lon="6.08088">
        <ele>1347</ele>
        <time>2022-03-03T11:44:51.000Z</time>
      </trkpt>
      <trkpt lat="44.15992" lon="6.08088">
        <ele>1347</ele>
        <time>2022-03-03T11:44:52.000Z</time>
      </trkpt>
      <trkpt lat="44.15992" lon="6.08087">
        <ele>1347</ele>
        <time>2022-03-03T11:44:53.000Z</time>
      </trkpt>
      <trkpt lat="44.15992" lon="6.08087">
        <ele>1347</ele>
        <time>2022-03-03T11:44:54.000Z</time>
      </trkpt>
      <trkpt lat="44.15992" lon="6.08087">
        <ele>1347</ele>
        <time>2022-03-03T11:44:55.000Z</time>
      </trkpt>
      <trkpt lat="44.15992" lon="6.08087">
        <ele>1347</ele>
        <time>2022-03-03T11:44:56.000Z</time>
      </trkpt>
      <trkpt lat="44.15992" lon="6.08087">
        <ele>1347</ele>
        <time>2022-03-03T11:44:57.000Z</time>
      </trkpt>
      <trkpt lat="44.15992" lon="6.08087">
        <ele>1347</ele>
        <time>2022-03-03T11:44:58.000Z</time>
      </trkpt>
      <trkpt lat="44.15992" lon="6.08087">
        <ele>1347</ele>
        <time>2022-03-03T11:44:59.000Z</time>
      </trkpt>
      <trkpt lat="44.15993" lon="6.08087">
        <ele>1347</ele>
        <time>2022-03-03T11:45:00.000Z</time>
      </trkpt>
      <trkpt lat="44.15993" lon="6.08087">
        <ele>1347</ele>
        <time>2022-03-03T11:45:01.000Z</time>
      </trkpt>
      <trkpt lat="44.15993" lon="6.08087">
        <ele>1347</ele>
        <time>2022-03-03T11:45:02.000Z</time>
      </trkpt>
      <trkpt lat="44.15993" lon="6.08087">
        <ele>1347</ele>
        <time>2022-03-03T11:45:03.000Z</time>
      </trkpt>
      <trkpt lat="44.15993" lon="6.08087">
        <ele>1347</ele>
        <time>2022-03-03T11:45:04.000Z</time>
      </trkpt>
      <trkpt lat="44.15993" lon="6.08087">
        <ele>1347</ele>
        <time>2022-03-03T11:45:05.000Z</time>
      </trkpt>
      <trkpt lat="44.15993" lon="6.08087">
        <ele>1347</ele>
        <time>2022-03-03T11:45:06.000Z</time>
      </trkpt>
      <trkpt lat="44.15993" lon="6.08087">
        <ele>1347</ele>
        <time>2022-03-03T11:45:07.000Z</time>
      </trkpt>
      <trkpt lat="44.15993" lon="6.08087">
        <ele>1347</ele>
        <time>2022-03-03T11:45:08.000Z</time>
      </trkpt>
      <trkpt lat="44.15993" lon="6.08087">
        <ele>1348</ele>
        <time>2022-03-03T11:45:09.000Z</time>
      </trkpt>
      <trkpt lat="44.15993" lon="6.08087">
        <ele>1348</ele>
        <time>2022-03-03T11:45:10.000Z</time>
      </trkpt>
      <trkpt lat="44.15993" lon="6.08087">
        <ele>1348</ele>
        <time>2022-03-03T11:45:11.000Z</time>
      </trkpt>
      <trkpt lat="44.15993" lon="6.08087">
        <ele>1348</ele>
        <time>2022-03-03T11:45:12.000Z</time>
      </trkpt>
      <trkpt lat="44.15993" lon="6.08087">
        <ele>1348</ele>
        <time>2022-03-03T11:45:13.000Z</time>
      </trkpt>
      <trkpt lat="44.15993" lon="6.08087">
        <ele>1348</ele>
        <time>2022-03-03T11:45:14.000Z</time>
      </trkpt>
      <trkpt lat="44.15993" lon="6.08087">
        <ele>1348</ele>
        <time>2022-03-03T11:45:15.000Z</time>
      </trkpt>
      <trkpt lat="44.15993" lon="6.08087">
        <ele>1348</ele>
        <time>2022-03-03T11:45:16.000Z</time>
      </trkpt>
      <trkpt lat="44.15993" lon="6.08087">
        <ele>1348</ele>
        <time>2022-03-03T11:45:17.000Z</time>
      </trkpt>
      <trkpt lat="44.15993" lon="6.08087">
        <ele>1348</ele>
        <time>2022-03-03T11:45:18.000Z</time>
      </trkpt>
      <trkpt lat="44.15993" lon="6.08087">
        <ele>1348</ele>
        <time>2022-03-03T11:45:19.000Z</time>
      </trkpt>
      <trkpt lat="44.15993" lon="6.08086">
        <ele>1348</ele>
        <time>2022-03-03T11:45:20.000Z</time>
      </trkpt>
      <trkpt lat="44.15993" lon="6.08086">
        <ele>1348</ele>
        <time>2022-03-03T11:45:21.000Z</time>
      </trkpt>
      <trkpt lat="44.15993" lon="6.08086">
        <ele>1348</ele>
        <time>2022-03-03T11:45:22.000Z</time>
      </trkpt>
      <trkpt lat="44.15993" lon="6.08086">
        <ele>1348</ele>
        <time>2022-03-03T11:45:23.000Z</time>
      </trkpt>
      <trkpt lat="44.15994" lon="6.08086">
        <ele>1349</ele>
        <time>2022-03-03T11:45:24.000Z</time>
      </trkpt>
      <trkpt lat="44.15994" lon="6.08086">
        <ele>1349</ele>
        <time>2022-03-03T11:45:25.000Z</time>
      </trkpt>
      <trkpt lat="44.15994" lon="6.08086">
        <ele>1349</ele>
        <time>2022-03-03T11:45:26.000Z</time>
      </trkpt>
      <trkpt lat="44.15994" lon="6.08086">
        <ele>1349</ele>
        <time>2022-03-03T11:45:27.000Z</time>
      </trkpt>
      <trkpt lat="44.15994" lon="6.08086">
        <ele>1349</ele>
        <time>2022-03-03T11:45:28.000Z</time>
      </trkpt>
      <trkpt lat="44.15994" lon="6.08086">
        <ele>1349</ele>
        <time>2022-03-03T11:45:29.000Z</time>
      </trkpt>
      <trkpt lat="44.15994" lon="6.08086">
        <ele>1349</ele>
        <time>2022-03-03T11:45:30.000Z</time>
      </trkpt>
      <trkpt lat="44.15994" lon="6.08086">
        <ele>1349</ele>
        <time>2022-03-03T11:45:31.000Z</time>
      </trkpt>
      <trkpt lat="44.15994" lon="6.08086">
        <ele>1349</ele>
        <time>2022-03-03T11:45:32.000Z</time>
      </trkpt>
      <trkpt lat="44.15994" lon="6.08086">
        <ele>1349</ele>
        <time>2022-03-03T11:45:33.000Z</time>
      </trkpt>
      <trkpt lat="44.15994" lon="6.08086">
        <ele>1349</ele>
        <time>2022-03-03T11:45:34.000Z</time>
      </trkpt>
      <trkpt lat="44.15995" lon="6.08086">
        <ele>1349</ele>
        <time>2022-03-03T11:45:35.000Z</time>
      </trkpt>
      <trkpt lat="44.15995" lon="6.08087">
        <ele>1349</ele>
        <time>2022-03-03T11:45:36.000Z</time>
      </trkpt>
      <trkpt lat="44.15996" lon="6.08087">
        <ele>1349</ele>
        <time>2022-03-03T11:45:37.000Z</time>
      </trkpt>
      <trkpt lat="44.15997" lon="6.08087">
        <ele>1349</ele>
        <time>2022-03-03T11:45:38.000Z</time>
      </trkpt>
      <trkpt lat="44.15997" lon="6.08087">
        <ele>1349</ele>
        <time>2022-03-03T11:45:39.000Z</time>
      </trkpt>
      <trkpt lat="44.15998" lon="6.08086">
        <ele>1349</ele>
        <time>2022-03-03T11:45:40.000Z</time>
      </trkpt>
      <trkpt lat="44.15998" lon="6.08086">
        <ele>1349</ele>
        <time>2022-03-03T11:45:41.000Z</time>
      </trkpt>
      <trkpt lat="44.15998" lon="6.08087">
        <ele>1349</ele>
        <time>2022-03-03T11:45:42.000Z</time>
      </trkpt>
      <trkpt lat="44.15999" lon="6.08087">
        <ele>1349</ele>
        <time>2022-03-03T11:45:43.000Z</time>
      </trkpt>
      <trkpt lat="44.15999" lon="6.08087">
        <ele>1349</ele>
        <time>2022-03-03T11:45:44.000Z</time>
      </trkpt>
      <trkpt lat="44.16" lon="6.08087">
        <ele>1348</ele>
        <time>2022-03-03T11:45:45.000Z</time>
      </trkpt>
      <trkpt lat="44.16" lon="6.08088">
        <ele>1349</ele>
        <time>2022-03-03T11:45:46.000Z</time>
      </trkpt>
      <trkpt lat="44.16001" lon="6.08088">
        <ele>1348</ele>
        <time>2022-03-03T11:45:47.000Z</time>
      </trkpt>
      <trkpt lat="44.16002" lon="6.08088">
        <ele>1348</ele>
        <time>2022-03-03T11:45:48.000Z</time>
      </trkpt>
      <trkpt lat="44.16002" lon="6.08088">
        <ele>1348</ele>
        <time>2022-03-03T11:45:49.000Z</time>
      </trkpt>
      <trkpt lat="44.16003" lon="6.08088">
        <ele>1348</ele>
        <time>2022-03-03T11:45:50.000Z</time>
      </trkpt>
      <trkpt lat="44.16003" lon="6.08088">
        <ele>1348</ele>
        <time>2022-03-03T11:45:51.000Z</time>
      </trkpt>
      <trkpt lat="44.16004" lon="6.08088">
        <ele>1348</ele>
        <time>2022-03-03T11:45:52.000Z</time>
      </trkpt>
      <trkpt lat="44.16004" lon="6.08088">
        <ele>1348</ele>
        <time>2022-03-03T11:45:53.000Z</time>
      </trkpt>
      <trkpt lat="44.16005" lon="6.08088">
        <ele>1348</ele>
        <time>2022-03-03T11:45:54.000Z</time>
      </trkpt>
      <trkpt lat="44.16006" lon="6.08089">
        <ele>1348</ele>
        <time>2022-03-03T11:45:55.000Z</time>
      </trkpt>
      <trkpt lat="44.16007" lon="6.08089">
        <ele>1348</ele>
        <time>2022-03-03T11:45:56.000Z</time>
      </trkpt>
      <trkpt lat="44.16008" lon="6.0809">
        <ele>1348</ele>
        <time>2022-03-03T11:45:57.000Z</time>
      </trkpt>
      <trkpt lat="44.16008" lon="6.0809">
        <ele>1348</ele>
        <time>2022-03-03T11:45:58.000Z</time>
      </trkpt>
      <trkpt lat="44.16009" lon="6.0809">
        <ele>1348</ele>
        <time>2022-03-03T11:45:59.000Z</time>
      </trkpt>
      <trkpt lat="44.1601" lon="6.0809">
        <ele>1348</ele>
        <time>2022-03-03T11:46:00.000Z</time>
      </trkpt>
      <trkpt lat="44.16011" lon="6.0809">
        <ele>1348</ele>
        <time>2022-03-03T11:46:01.000Z</time>
      </trkpt>
      <trkpt lat="44.16011" lon="6.0809">
        <ele>1348</ele>
        <time>2022-03-03T11:46:02.000Z</time>
      </trkpt>
      <trkpt lat="44.16011" lon="6.0809">
        <ele>1348</ele>
        <time>2022-03-03T11:46:03.000Z</time>
      </trkpt>
      <trkpt lat="44.16012" lon="6.0809">
        <ele>1348</ele>
        <time>2022-03-03T11:46:04.000Z</time>
      </trkpt>
      <trkpt lat="44.16012" lon="6.08089">
        <ele>1348</ele>
        <time>2022-03-03T11:46:05.000Z</time>
      </trkpt>
      <trkpt lat="44.16013" lon="6.0809">
        <ele>1348</ele>
        <time>2022-03-03T11:46:06.000Z</time>
      </trkpt>
      <trkpt lat="44.16014" lon="6.0809">
        <ele>1348</ele>
        <time>2022-03-03T11:46:07.000Z</time>
      </trkpt>
      <trkpt lat="44.16014" lon="6.0809">
        <ele>1348</ele>
        <time>2022-03-03T11:46:08.000Z</time>
      </trkpt>
      <trkpt lat="44.16015" lon="6.0809">
        <ele>1348</ele>
        <time>2022-03-03T11:46:09.000Z</time>
      </trkpt>
      <trkpt lat="44.16015" lon="6.0809">
        <ele>1348</ele>
        <time>2022-03-03T11:46:10.000Z</time>
      </trkpt>
      <trkpt lat="44.16016" lon="6.0809">
        <ele>1348</ele>
        <time>2022-03-03T11:46:11.000Z</time>
      </trkpt>
      <trkpt lat="44.16016" lon="6.08089">
        <ele>1348</ele>
        <time>2022-03-03T11:46:12.000Z</time>
      </trkpt>
      <trkpt lat="44.16017" lon="6.08089">
        <ele>1348</ele>
        <time>2022-03-03T11:46:13.000Z</time>
      </trkpt>
      <trkpt lat="44.16017" lon="6.0809">
        <ele>1348</ele>
        <time>2022-03-03T11:46:14.000Z</time>
      </trkpt>
      <trkpt lat="44.16018" lon="6.0809">
        <ele>1348</ele>
        <time>2022-03-03T11:46:15.000Z</time>
      </trkpt>
      <trkpt lat="44.16019" lon="6.0809">
        <ele>1348</ele>
        <time>2022-03-03T11:46:16.000Z</time>
      </trkpt>
      <trkpt lat="44.1602" lon="6.08089">
        <ele>1348</ele>
        <time>2022-03-03T11:46:17.000Z</time>
      </trkpt>
      <trkpt lat="44.16021" lon="6.0809">
        <ele>1348</ele>
        <time>2022-03-03T11:46:18.000Z</time>
      </trkpt>
      <trkpt lat="44.16021" lon="6.0809">
        <ele>1348</ele>
        <time>2022-03-03T11:46:19.000Z</time>
      </trkpt>
      <trkpt lat="44.16022" lon="6.0809">
        <ele>1348</ele>
        <time>2022-03-03T11:46:20.000Z</time>
      </trkpt>
      <trkpt lat="44.16023" lon="6.0809">
        <ele>1348</ele>
        <time>2022-03-03T11:46:21.000Z</time>
      </trkpt>
      <trkpt lat="44.16024" lon="6.0809">
        <ele>1348</ele>
        <time>2022-03-03T11:46:22.000Z</time>
      </trkpt>
      <trkpt lat="44.16025" lon="6.0809">
        <ele>1347</ele>
        <time>2022-03-03T11:46:23.000Z</time>
      </trkpt>
      <trkpt lat="44.16026" lon="6.0809">
        <ele>1347</ele>
        <time>2022-03-03T11:46:24.000Z</time>
      </trkpt>
      <trkpt lat="44.16027" lon="6.0809">
        <ele>1347</ele>
        <time>2022-03-03T11:46:25.000Z</time>
      </trkpt>
      <trkpt lat="44.16028" lon="6.08091">
        <ele>1347</ele>
        <time>2022-03-03T11:46:26.000Z</time>
      </trkpt>
      <trkpt lat="44.16029" lon="6.08091">
        <ele>1347</ele>
        <time>2022-03-03T11:46:27.000Z</time>
      </trkpt>
      <trkpt lat="44.1603" lon="6.08091">
        <ele>1347</ele>
        <time>2022-03-03T11:46:28.000Z</time>
      </trkpt>
      <trkpt lat="44.1603" lon="6.08091">
        <ele>1347</ele>
        <time>2022-03-03T11:46:29.000Z</time>
      </trkpt>
      <trkpt lat="44.16031" lon="6.08091">
        <ele>1347</ele>
        <time>2022-03-03T11:46:30.000Z</time>
      </trkpt>
      <trkpt lat="44.16032" lon="6.08091">
        <ele>1347</ele>
        <time>2022-03-03T11:46:31.000Z</time>
      </trkpt>
      <trkpt lat="44.16033" lon="6.08091">
        <ele>1347</ele>
        <time>2022-03-03T11:46:32.000Z</time>
      </trkpt>
      <trkpt lat="44.16033" lon="6.08091">
        <ele>1347</ele>
        <time>2022-03-03T11:46:33.000Z</time>
      </trkpt>
      <trkpt lat="44.16034" lon="6.08091">
        <ele>1347</ele>
        <time>2022-03-03T11:46:34.000Z</time>
      </trkpt>
      <trkpt lat="44.16035" lon="6.08091">
        <ele>1347</ele>
        <time>2022-03-03T11:46:35.000Z</time>
      </trkpt>
      <trkpt lat="44.16036" lon="6.08091">
        <ele>1346</ele>
        <time>2022-03-03T11:46:36.000Z</time>
      </trkpt>
      <trkpt lat="44.16037" lon="6.08091">
        <ele>1346</ele>
        <time>2022-03-03T11:46:37.000Z</time>
      </trkpt>
      <trkpt lat="44.16037" lon="6.08091">
        <ele>1346</ele>
        <time>2022-03-03T11:46:38.000Z</time>
      </trkpt>
      <trkpt lat="44.16039" lon="6.08092">
        <ele>1346</ele>
        <time>2022-03-03T11:46:39.000Z</time>
      </trkpt>
      <trkpt lat="44.16039" lon="6.08092">
        <ele>1346</ele>
        <time>2022-03-03T11:46:40.000Z</time>
      </trkpt>
      <trkpt lat="44.1604" lon="6.08092">
        <ele>1346</ele>
        <time>2022-03-03T11:46:41.000Z</time>
      </trkpt>
      <trkpt lat="44.1604" lon="6.08092">
        <ele>1346</ele>
        <time>2022-03-03T11:46:42.000Z</time>
      </trkpt>
      <trkpt lat="44.16041" lon="6.08092">
        <ele>1346</ele>
        <time>2022-03-03T11:46:43.000Z</time>
      </trkpt>
      <trkpt lat="44.16042" lon="6.08092">
        <ele>1346</ele>
        <time>2022-03-03T11:46:44.000Z</time>
      </trkpt>
      <trkpt lat="44.16043" lon="6.08092">
        <ele>1346</ele>
        <time>2022-03-03T11:46:45.000Z</time>
      </trkpt>
      <trkpt lat="44.16044" lon="6.08092">
        <ele>1346</ele>
        <time>2022-03-03T11:46:46.000Z</time>
      </trkpt>
      <trkpt lat="44.16045" lon="6.08092">
        <ele>1346</ele>
        <time>2022-03-03T11:46:47.000Z</time>
      </trkpt>
      <trkpt lat="44.16046" lon="6.08092">
        <ele>1346</ele>
        <time>2022-03-03T11:46:48.000Z</time>
      </trkpt>
      <trkpt lat="44.16047" lon="6.08092">
        <ele>1346</ele>
        <time>2022-03-03T11:46:49.000Z</time>
      </trkpt>
      <trkpt lat="44.16048" lon="6.08092">
        <ele>1345</ele>
        <time>2022-03-03T11:46:50.000Z</time>
      </trkpt>
      <trkpt lat="44.16049" lon="6.08091">
        <ele>1345</ele>
        <time>2022-03-03T11:46:51.000Z</time>
      </trkpt>
      <trkpt lat="44.16049" lon="6.08091">
        <ele>1345</ele>
        <time>2022-03-03T11:46:52.000Z</time>
      </trkpt>
      <trkpt lat="44.1605" lon="6.08091">
        <ele>1345</ele>
        <time>2022-03-03T11:46:53.000Z</time>
      </trkpt>
      <trkpt lat="44.16051" lon="6.08091">
        <ele>1345</ele>
        <time>2022-03-03T11:46:54.000Z</time>
      </trkpt>
      <trkpt lat="44.16052" lon="6.08091">
        <ele>1345</ele>
        <time>2022-03-03T11:46:55.000Z</time>
      </trkpt>
      <trkpt lat="44.16053" lon="6.08091">
        <ele>1345</ele>
        <time>2022-03-03T11:46:56.000Z</time>
      </trkpt>
      <trkpt lat="44.16054" lon="6.08091">
        <ele>1345</ele>
        <time>2022-03-03T11:46:57.000Z</time>
      </trkpt>
      <trkpt lat="44.16054" lon="6.08091">
        <ele>1345</ele>
        <time>2022-03-03T11:46:58.000Z</time>
      </trkpt>
      <trkpt lat="44.16055" lon="6.08091">
        <ele>1345</ele>
        <time>2022-03-03T11:46:59.000Z</time>
      </trkpt>
      <trkpt lat="44.16055" lon="6.0809">
        <ele>1345</ele>
        <time>2022-03-03T11:47:00.000Z</time>
      </trkpt>
      <trkpt lat="44.16056" lon="6.0809">
        <ele>1345</ele>
        <time>2022-03-03T11:47:01.000Z</time>
      </trkpt>
      <trkpt lat="44.16057" lon="6.0809">
        <ele>1345</ele>
        <time>2022-03-03T11:47:02.000Z</time>
      </trkpt>
      <trkpt lat="44.16058" lon="6.0809">
        <ele>1345</ele>
        <time>2022-03-03T11:47:03.000Z</time>
      </trkpt>
      <trkpt lat="44.16058" lon="6.0809">
        <ele>1345</ele>
        <time>2022-03-03T11:47:04.000Z</time>
      </trkpt>
      <trkpt lat="44.16059" lon="6.0809">
        <ele>1345</ele>
        <time>2022-03-03T11:47:05.000Z</time>
      </trkpt>
      <trkpt lat="44.1606" lon="6.0809">
        <ele>1345</ele>
        <time>2022-03-03T11:47:06.000Z</time>
      </trkpt>
      <trkpt lat="44.16061" lon="6.0809">
        <ele>1345</ele>
        <time>2022-03-03T11:47:07.000Z</time>
      </trkpt>
      <trkpt lat="44.16062" lon="6.0809">
        <ele>1345</ele>
        <time>2022-03-03T11:47:08.000Z</time>
      </trkpt>
      <trkpt lat="44.16063" lon="6.08089">
        <ele>1345</ele>
        <time>2022-03-03T11:47:09.000Z</time>
      </trkpt>
      <trkpt lat="44.16064" lon="6.08089">
        <ele>1345</ele>
        <time>2022-03-03T11:47:10.000Z</time>
      </trkpt>
      <trkpt lat="44.16065" lon="6.08089">
        <ele>1345</ele>
        <time>2022-03-03T11:47:11.000Z</time>
      </trkpt>
      <trkpt lat="44.16066" lon="6.0809">
        <ele>1345</ele>
        <time>2022-03-03T11:47:12.000Z</time>
      </trkpt>
      <trkpt lat="44.16067" lon="6.0809">
        <ele>1345</ele>
        <time>2022-03-03T11:47:13.000Z</time>
      </trkpt>
      <trkpt lat="44.16068" lon="6.0809">
        <ele>1344</ele>
        <time>2022-03-03T11:47:14.000Z</time>
      </trkpt>
      <trkpt lat="44.16069" lon="6.08089">
        <ele>1344</ele>
        <time>2022-03-03T11:47:15.000Z</time>
      </trkpt>
      <trkpt lat="44.1607" lon="6.08089">
        <ele>1344</ele>
        <time>2022-03-03T11:47:16.000Z</time>
      </trkpt>
      <trkpt lat="44.16071" lon="6.08089">
        <ele>1344</ele>
        <time>2022-03-03T11:47:17.000Z</time>
      </trkpt>
      <trkpt lat="44.16072" lon="6.08089">
        <ele>1344</ele>
        <time>2022-03-03T11:47:18.000Z</time>
      </trkpt>
      <trkpt lat="44.16072" lon="6.08089">
        <ele>1344</ele>
        <time>2022-03-03T11:47:19.000Z</time>
      </trkpt>
      <trkpt lat="44.16073" lon="6.08089">
        <ele>1344</ele>
        <time>2022-03-03T11:47:20.000Z</time>
      </trkpt>
      <trkpt lat="44.16074" lon="6.08089">
        <ele>1344</ele>
        <time>2022-03-03T11:47:21.000Z</time>
      </trkpt>
      <trkpt lat="44.16075" lon="6.08089">
        <ele>1344</ele>
        <time>2022-03-03T11:47:22.000Z</time>
      </trkpt>
      <trkpt lat="44.16077" lon="6.08089">
        <ele>1344</ele>
        <time>2022-03-03T11:47:23.000Z</time>
      </trkpt>
      <trkpt lat="44.16077" lon="6.0809">
        <ele>1344</ele>
        <time>2022-03-03T11:47:24.000Z</time>
      </trkpt>
      <trkpt lat="44.16079" lon="6.0809">
        <ele>1344</ele>
        <time>2022-03-03T11:47:25.000Z</time>
      </trkpt>
      <trkpt lat="44.1608" lon="6.08089">
        <ele>1344</ele>
        <time>2022-03-03T11:47:26.000Z</time>
      </trkpt>
      <trkpt lat="44.16081" lon="6.0809">
        <ele>1344</ele>
        <time>2022-03-03T11:47:27.000Z</time>
      </trkpt>
      <trkpt lat="44.16082" lon="6.0809">
        <ele>1344</ele>
        <time>2022-03-03T11:47:28.000Z</time>
      </trkpt>
      <trkpt lat="44.16083" lon="6.0809">
        <ele>1344</ele>
        <time>2022-03-03T11:47:29.000Z</time>
      </trkpt>
      <trkpt lat="44.16084" lon="6.0809">
        <ele>1344</ele>
        <time>2022-03-03T11:47:30.000Z</time>
      </trkpt>
      <trkpt lat="44.16085" lon="6.08089">
        <ele>1344</ele>
        <time>2022-03-03T11:47:31.000Z</time>
      </trkpt>
      <trkpt lat="44.16086" lon="6.08089">
        <ele>1344</ele>
        <time>2022-03-03T11:47:32.000Z</time>
      </trkpt>
      <trkpt lat="44.16087" lon="6.08089">
        <ele>1344</ele>
        <time>2022-03-03T11:47:33.000Z</time>
      </trkpt>
      <trkpt lat="44.16088" lon="6.08089">
        <ele>1344</ele>
        <time>2022-03-03T11:47:34.000Z</time>
      </trkpt>
      <trkpt lat="44.16089" lon="6.08089">
        <ele>1344</ele>
        <time>2022-03-03T11:47:35.000Z</time>
      </trkpt>
      <trkpt lat="44.1609" lon="6.08089">
        <ele>1344</ele>
        <time>2022-03-03T11:47:36.000Z</time>
      </trkpt>
      <trkpt lat="44.16091" lon="6.08089">
        <ele>1344</ele>
        <time>2022-03-03T11:47:37.000Z</time>
      </trkpt>
      <trkpt lat="44.16092" lon="6.08089">
        <ele>1344</ele>
        <time>2022-03-03T11:47:38.000Z</time>
      </trkpt>
      <trkpt lat="44.16093" lon="6.08089">
        <ele>1344</ele>
        <time>2022-03-03T11:47:39.000Z</time>
      </trkpt>
      <trkpt lat="44.16094" lon="6.08089">
        <ele>1344</ele>
        <time>2022-03-03T11:47:40.000Z</time>
      </trkpt>
      <trkpt lat="44.16095" lon="6.08089">
        <ele>1344</ele>
        <time>2022-03-03T11:47:41.000Z</time>
      </trkpt>
      <trkpt lat="44.16096" lon="6.08089">
        <ele>1344</ele>
        <time>2022-03-03T11:47:42.000Z</time>
      </trkpt>
      <trkpt lat="44.16096" lon="6.08089">
        <ele>1344</ele>
        <time>2022-03-03T11:47:43.000Z</time>
      </trkpt>
      <trkpt lat="44.16097" lon="6.08089">
        <ele>1343</ele>
        <time>2022-03-03T11:47:44.000Z</time>
      </trkpt>
      <trkpt lat="44.16098" lon="6.08089">
        <ele>1343</ele>
        <time>2022-03-03T11:47:45.000Z</time>
      </trkpt>
      <trkpt lat="44.16099" lon="6.08088">
        <ele>1343</ele>
        <time>2022-03-03T11:47:46.000Z</time>
      </trkpt>
      <trkpt lat="44.161" lon="6.08088">
        <ele>1343</ele>
        <time>2022-03-03T11:47:47.000Z</time>
      </trkpt>
      <trkpt lat="44.16101" lon="6.08088">
        <ele>1343</ele>
        <time>2022-03-03T11:47:48.000Z</time>
      </trkpt>
      <trkpt lat="44.16102" lon="6.08088">
        <ele>1343</ele>
        <time>2022-03-03T11:47:49.000Z</time>
      </trkpt>
      <trkpt lat="44.16103" lon="6.08088">
        <ele>1343</ele>
        <time>2022-03-03T11:47:50.000Z</time>
      </trkpt>
      <trkpt lat="44.16104" lon="6.08088">
        <ele>1343</ele>
        <time>2022-03-03T11:47:51.000Z</time>
      </trkpt>
      <trkpt lat="44.16105" lon="6.08088">
        <ele>1343</ele>
        <time>2022-03-03T11:47:52.000Z</time>
      </trkpt>
      <trkpt lat="44.16106" lon="6.08088">
        <ele>1343</ele>
        <time>2022-03-03T11:47:53.000Z</time>
      </trkpt>
      <trkpt lat="44.16107" lon="6.08088">
        <ele>1342</ele>
        <time>2022-03-03T11:47:54.000Z</time>
      </trkpt>
      <trkpt lat="44.16108" lon="6.08088">
        <ele>1342</ele>
        <time>2022-03-03T11:47:55.000Z</time>
      </trkpt>
      <trkpt lat="44.16109" lon="6.08088">
        <ele>1342</ele>
        <time>2022-03-03T11:47:56.000Z</time>
      </trkpt>
      <trkpt lat="44.1611" lon="6.08089">
        <ele>1342</ele>
        <time>2022-03-03T11:47:57.000Z</time>
      </trkpt>
      <trkpt lat="44.16111" lon="6.08089">
        <ele>1342</ele>
        <time>2022-03-03T11:47:58.000Z</time>
      </trkpt>
      <trkpt lat="44.16112" lon="6.08089">
        <ele>1342</ele>
        <time>2022-03-03T11:47:59.000Z</time>
      </trkpt>
      <trkpt lat="44.16113" lon="6.08089">
        <ele>1341</ele>
        <time>2022-03-03T11:48:00.000Z</time>
      </trkpt>
      <trkpt lat="44.16114" lon="6.08089">
        <ele>1341</ele>
        <time>2022-03-03T11:48:01.000Z</time>
      </trkpt>
      <trkpt lat="44.16115" lon="6.08089">
        <ele>1341</ele>
        <time>2022-03-03T11:48:02.000Z</time>
      </trkpt>
      <trkpt lat="44.16116" lon="6.08088">
        <ele>1341</ele>
        <time>2022-03-03T11:48:03.000Z</time>
      </trkpt>
      <trkpt lat="44.16117" lon="6.08089">
        <ele>1340</ele>
        <time>2022-03-03T11:48:04.000Z</time>
      </trkpt>
      <trkpt lat="44.16118" lon="6.08089">
        <ele>1340</ele>
        <time>2022-03-03T11:48:05.000Z</time>
      </trkpt>
      <trkpt lat="44.16119" lon="6.08089">
        <ele>1340</ele>
        <time>2022-03-03T11:48:06.000Z</time>
      </trkpt>
      <trkpt lat="44.1612" lon="6.08089">
        <ele>1340</ele>
        <time>2022-03-03T11:48:07.000Z</time>
      </trkpt>
      <trkpt lat="44.16121" lon="6.08089">
        <ele>1340</ele>
        <time>2022-03-03T11:48:08.000Z</time>
      </trkpt>
      <trkpt lat="44.16122" lon="6.08089">
        <ele>1340</ele>
        <time>2022-03-03T11:48:09.000Z</time>
      </trkpt>
      <trkpt lat="44.16123" lon="6.08089">
        <ele>1340</ele>
        <time>2022-03-03T11:48:10.000Z</time>
      </trkpt>
      <trkpt lat="44.16124" lon="6.0809">
        <ele>1339</ele>
        <time>2022-03-03T11:48:11.000Z</time>
      </trkpt>
      <trkpt lat="44.16125" lon="6.0809">
        <ele>1339</ele>
        <time>2022-03-03T11:48:12.000Z</time>
      </trkpt>
      <trkpt lat="44.16126" lon="6.0809">
        <ele>1339</ele>
        <time>2022-03-03T11:48:13.000Z</time>
      </trkpt>
      <trkpt lat="44.16127" lon="6.0809">
        <ele>1339</ele>
        <time>2022-03-03T11:48:14.000Z</time>
      </trkpt>
      <trkpt lat="44.16128" lon="6.0809">
        <ele>1339</ele>
        <time>2022-03-03T11:48:15.000Z</time>
      </trkpt>
      <trkpt lat="44.16129" lon="6.0809">
        <ele>1338</ele>
        <time>2022-03-03T11:48:16.000Z</time>
      </trkpt>
      <trkpt lat="44.1613" lon="6.0809">
        <ele>1338</ele>
        <time>2022-03-03T11:48:17.000Z</time>
      </trkpt>
      <trkpt lat="44.16131" lon="6.0809">
        <ele>1338</ele>
        <time>2022-03-03T11:48:18.000Z</time>
      </trkpt>
      <trkpt lat="44.16132" lon="6.0809">
        <ele>1338</ele>
        <time>2022-03-03T11:48:19.000Z</time>
      </trkpt>
      <trkpt lat="44.16133" lon="6.0809">
        <ele>1338</ele>
        <time>2022-03-03T11:48:20.000Z</time>
      </trkpt>
      <trkpt lat="44.16134" lon="6.0809">
        <ele>1337</ele>
        <time>2022-03-03T11:48:21.000Z</time>
      </trkpt>
      <trkpt lat="44.16135" lon="6.0809">
        <ele>1337</ele>
        <time>2022-03-03T11:48:22.000Z</time>
      </trkpt>
      <trkpt lat="44.16136" lon="6.0809">
        <ele>1337</ele>
        <time>2022-03-03T11:48:23.000Z</time>
      </trkpt>
      <trkpt lat="44.16137" lon="6.0809">
        <ele>1337</ele>
        <time>2022-03-03T11:48:24.000Z</time>
      </trkpt>
      <trkpt lat="44.16138" lon="6.08091">
        <ele>1337</ele>
        <time>2022-03-03T11:48:25.000Z</time>
      </trkpt>
      <trkpt lat="44.16139" lon="6.08091">
        <ele>1337</ele>
        <time>2022-03-03T11:48:26.000Z</time>
      </trkpt>
      <trkpt lat="44.1614" lon="6.08091">
        <ele>1337</ele>
        <time>2022-03-03T11:48:27.000Z</time>
      </trkpt>
      <trkpt lat="44.16141" lon="6.08091">
        <ele>1337</ele>
        <time>2022-03-03T11:48:28.000Z</time>
      </trkpt>
      <trkpt lat="44.16142" lon="6.0809">
        <ele>1336</ele>
        <time>2022-03-03T11:48:29.000Z</time>
      </trkpt>
      <trkpt lat="44.16143" lon="6.0809">
        <ele>1336</ele>
        <time>2022-03-03T11:48:30.000Z</time>
      </trkpt>
      <trkpt lat="44.16144" lon="6.0809">
        <ele>1336</ele>
        <time>2022-03-03T11:48:31.000Z</time>
      </trkpt>
      <trkpt lat="44.16145" lon="6.0809">
        <ele>1336</ele>
        <time>2022-03-03T11:48:32.000Z</time>
      </trkpt>
      <trkpt lat="44.16146" lon="6.0809">
        <ele>1336</ele>
        <time>2022-03-03T11:48:33.000Z</time>
      </trkpt>
      <trkpt lat="44.16147" lon="6.0809">
        <ele>1336</ele>
        <time>2022-03-03T11:48:34.000Z</time>
      </trkpt>
      <trkpt lat="44.16148" lon="6.0809">
        <ele>1336</ele>
        <time>2022-03-03T11:48:35.000Z</time>
      </trkpt>
      <trkpt lat="44.16149" lon="6.0809">
        <ele>1336</ele>
        <time>2022-03-03T11:48:36.000Z</time>
      </trkpt>
      <trkpt lat="44.1615" lon="6.0809">
        <ele>1336</ele>
        <time>2022-03-03T11:48:37.000Z</time>
      </trkpt>
      <trkpt lat="44.16151" lon="6.08089">
        <ele>1336</ele>
        <time>2022-03-03T11:48:38.000Z</time>
      </trkpt>
      <trkpt lat="44.16151" lon="6.08089">
        <ele>1336</ele>
        <time>2022-03-03T11:48:39.000Z</time>
      </trkpt>
      <trkpt lat="44.16152" lon="6.08089">
        <ele>1336</ele>
        <time>2022-03-03T11:48:40.000Z</time>
      </trkpt>
      <trkpt lat="44.16154" lon="6.08089">
        <ele>1336</ele>
        <time>2022-03-03T11:48:41.000Z</time>
      </trkpt>
      <trkpt lat="44.16155" lon="6.08089">
        <ele>1336</ele>
        <time>2022-03-03T11:48:42.000Z</time>
      </trkpt>
      <trkpt lat="44.16155" lon="6.08089">
        <ele>1336</ele>
        <time>2022-03-03T11:48:43.000Z</time>
      </trkpt>
      <trkpt lat="44.16156" lon="6.08089">
        <ele>1335</ele>
        <time>2022-03-03T11:48:44.000Z</time>
      </trkpt>
      <trkpt lat="44.16158" lon="6.08089">
        <ele>1336</ele>
        <time>2022-03-03T11:48:45.000Z</time>
      </trkpt>
      <trkpt lat="44.16159" lon="6.08089">
        <ele>1336</ele>
        <time>2022-03-03T11:48:46.000Z</time>
      </trkpt>
      <trkpt lat="44.1616" lon="6.08088">
        <ele>1336</ele>
        <time>2022-03-03T11:48:47.000Z</time>
      </trkpt>
      <trkpt lat="44.16161" lon="6.08088">
        <ele>1336</ele>
        <time>2022-03-03T11:48:48.000Z</time>
      </trkpt>
      <trkpt lat="44.16162" lon="6.08088">
        <ele>1336</ele>
        <time>2022-03-03T11:48:49.000Z</time>
      </trkpt>
      <trkpt lat="44.16163" lon="6.08088">
        <ele>1336</ele>
        <time>2022-03-03T11:48:50.000Z</time>
      </trkpt>
      <trkpt lat="44.16164" lon="6.08088">
        <ele>1336</ele>
        <time>2022-03-03T11:48:51.000Z</time>
      </trkpt>
      <trkpt lat="44.16165" lon="6.08087">
        <ele>1336</ele>
        <time>2022-03-03T11:48:52.000Z</time>
      </trkpt>
      <trkpt lat="44.16166" lon="6.08087">
        <ele>1336</ele>
        <time>2022-03-03T11:48:53.000Z</time>
      </trkpt>
      <trkpt lat="44.16167" lon="6.08088">
        <ele>1336</ele>
        <time>2022-03-03T11:48:54.000Z</time>
      </trkpt>
      <trkpt lat="44.16169" lon="6.08087">
        <ele>1336</ele>
        <time>2022-03-03T11:48:55.000Z</time>
      </trkpt>
      <trkpt lat="44.1617" lon="6.08087">
        <ele>1336</ele>
        <time>2022-03-03T11:48:56.000Z</time>
      </trkpt>
      <trkpt lat="44.16171" lon="6.08087">
        <ele>1336</ele>
        <time>2022-03-03T11:48:57.000Z</time>
      </trkpt>
      <trkpt lat="44.16172" lon="6.08087">
        <ele>1336</ele>
        <time>2022-03-03T11:48:58.000Z</time>
      </trkpt>
      <trkpt lat="44.16173" lon="6.08087">
        <ele>1335</ele>
        <time>2022-03-03T11:48:59.000Z</time>
      </trkpt>
      <trkpt lat="44.16174" lon="6.08087">
        <ele>1335</ele>
        <time>2022-03-03T11:49:00.000Z</time>
      </trkpt>
      <trkpt lat="44.16175" lon="6.08086">
        <ele>1335</ele>
        <time>2022-03-03T11:49:01.000Z</time>
      </trkpt>
      <trkpt lat="44.16176" lon="6.08086">
        <ele>1335</ele>
        <time>2022-03-03T11:49:02.000Z</time>
      </trkpt>
      <trkpt lat="44.16178" lon="6.08086">
        <ele>1335</ele>
        <time>2022-03-03T11:49:03.000Z</time>
      </trkpt>
      <trkpt lat="44.16179" lon="6.08086">
        <ele>1335</ele>
        <time>2022-03-03T11:49:04.000Z</time>
      </trkpt>
      <trkpt lat="44.1618" lon="6.08086">
        <ele>1335</ele>
        <time>2022-03-03T11:49:05.000Z</time>
      </trkpt>
      <trkpt lat="44.16181" lon="6.08086">
        <ele>1335</ele>
        <time>2022-03-03T11:49:06.000Z</time>
      </trkpt>
      <trkpt lat="44.16182" lon="6.08086">
        <ele>1335</ele>
        <time>2022-03-03T11:49:07.000Z</time>
      </trkpt>
      <trkpt lat="44.16183" lon="6.08086">
        <ele>1335</ele>
        <time>2022-03-03T11:49:08.000Z</time>
      </trkpt>
      <trkpt lat="44.16183" lon="6.08086">
        <ele>1335</ele>
        <time>2022-03-03T11:49:09.000Z</time>
      </trkpt>
      <trkpt lat="44.16184" lon="6.08086">
        <ele>1335</ele>
        <time>2022-03-03T11:49:10.000Z</time>
      </trkpt>
      <trkpt lat="44.16185" lon="6.08085">
        <ele>1335</ele>
        <time>2022-03-03T11:49:11.000Z</time>
      </trkpt>
      <trkpt lat="44.16186" lon="6.08085">
        <ele>1335</ele>
        <time>2022-03-03T11:49:12.000Z</time>
      </trkpt>
      <trkpt lat="44.16188" lon="6.08085">
        <ele>1335</ele>
        <time>2022-03-03T11:49:13.000Z</time>
      </trkpt>
      <trkpt lat="44.16189" lon="6.08085">
        <ele>1334</ele>
        <time>2022-03-03T11:49:14.000Z</time>
      </trkpt>
      <trkpt lat="44.1619" lon="6.08085">
        <ele>1334</ele>
        <time>2022-03-03T11:49:15.000Z</time>
      </trkpt>
      <trkpt lat="44.16191" lon="6.08084">
        <ele>1334</ele>
        <time>2022-03-03T11:49:16.000Z</time>
      </trkpt>
      <trkpt lat="44.16192" lon="6.08084">
        <ele>1334</ele>
        <time>2022-03-03T11:49:17.000Z</time>
      </trkpt>
      <trkpt lat="44.16193" lon="6.08084">
        <ele>1334</ele>
        <time>2022-03-03T11:49:18.000Z</time>
      </trkpt>
      <trkpt lat="44.16194" lon="6.08084">
        <ele>1334</ele>
        <time>2022-03-03T11:49:19.000Z</time>
      </trkpt>
      <trkpt lat="44.16195" lon="6.08083">
        <ele>1334</ele>
        <time>2022-03-03T11:49:20.000Z</time>
      </trkpt>
      <trkpt lat="44.16197" lon="6.08084">
        <ele>1334</ele>
        <time>2022-03-03T11:49:21.000Z</time>
      </trkpt>
      <trkpt lat="44.16198" lon="6.08084">
        <ele>1334</ele>
        <time>2022-03-03T11:49:22.000Z</time>
      </trkpt>
      <trkpt lat="44.16198" lon="6.08084">
        <ele>1334</ele>
        <time>2022-03-03T11:49:23.000Z</time>
      </trkpt>
      <trkpt lat="44.16198" lon="6.08084">
        <ele>1335</ele>
        <time>2022-03-03T11:49:24.000Z</time>
      </trkpt>
      <trkpt lat="44.16199" lon="6.08084">
        <ele>1335</ele>
        <time>2022-03-03T11:49:25.000Z</time>
      </trkpt>
      <trkpt lat="44.16199" lon="6.08084">
        <ele>1335</ele>
        <time>2022-03-03T11:49:26.000Z</time>
      </trkpt>
      <trkpt lat="44.162" lon="6.08084">
        <ele>1335</ele>
        <time>2022-03-03T11:49:27.000Z</time>
      </trkpt>
      <trkpt lat="44.16201" lon="6.08084">
        <ele>1335</ele>
        <time>2022-03-03T11:49:28.000Z</time>
      </trkpt>
      <trkpt lat="44.16203" lon="6.08084">
        <ele>1335</ele>
        <time>2022-03-03T11:49:29.000Z</time>
      </trkpt>
      <trkpt lat="44.16204" lon="6.08084">
        <ele>1335</ele>
        <time>2022-03-03T11:49:30.000Z</time>
      </trkpt>
      <trkpt lat="44.16205" lon="6.08083">
        <ele>1335</ele>
        <time>2022-03-03T11:49:31.000Z</time>
      </trkpt>
      <trkpt lat="44.16206" lon="6.08083">
        <ele>1335</ele>
        <time>2022-03-03T11:49:32.000Z</time>
      </trkpt>
      <trkpt lat="44.16207" lon="6.08083">
        <ele>1335</ele>
        <time>2022-03-03T11:49:33.000Z</time>
      </trkpt>
      <trkpt lat="44.16208" lon="6.08083">
        <ele>1334</ele>
        <time>2022-03-03T11:49:34.000Z</time>
      </trkpt>
      <trkpt lat="44.16209" lon="6.08083">
        <ele>1334</ele>
        <time>2022-03-03T11:49:35.000Z</time>
      </trkpt>
      <trkpt lat="44.1621" lon="6.08082">
        <ele>1334</ele>
        <time>2022-03-03T11:49:36.000Z</time>
      </trkpt>
      <trkpt lat="44.16211" lon="6.08082">
        <ele>1334</ele>
        <time>2022-03-03T11:49:37.000Z</time>
      </trkpt>
      <trkpt lat="44.16213" lon="6.08082">
        <ele>1334</ele>
        <time>2022-03-03T11:49:38.000Z</time>
      </trkpt>
      <trkpt lat="44.16214" lon="6.08082">
        <ele>1334</ele>
        <time>2022-03-03T11:49:39.000Z</time>
      </trkpt>
      <trkpt lat="44.16215" lon="6.08082">
        <ele>1334</ele>
        <time>2022-03-03T11:49:40.000Z</time>
      </trkpt>
      <trkpt lat="44.16215" lon="6.08082">
        <ele>1334</ele>
        <time>2022-03-03T11:49:41.000Z</time>
      </trkpt>
      <trkpt lat="44.16217" lon="6.08082">
        <ele>1334</ele>
        <time>2022-03-03T11:49:42.000Z</time>
      </trkpt>
      <trkpt lat="44.16218" lon="6.08082">
        <ele>1334</ele>
        <time>2022-03-03T11:49:43.000Z</time>
      </trkpt>
      <trkpt lat="44.16219" lon="6.08082">
        <ele>1334</ele>
        <time>2022-03-03T11:49:44.000Z</time>
      </trkpt>
      <trkpt lat="44.1622" lon="6.08081">
        <ele>1334</ele>
        <time>2022-03-03T11:49:45.000Z</time>
      </trkpt>
      <trkpt lat="44.16221" lon="6.08081">
        <ele>1334</ele>
        <time>2022-03-03T11:49:46.000Z</time>
      </trkpt>
      <trkpt lat="44.16222" lon="6.08081">
        <ele>1335</ele>
        <time>2022-03-03T11:49:47.000Z</time>
      </trkpt>
      <trkpt lat="44.16223" lon="6.08081">
        <ele>1335</ele>
        <time>2022-03-03T11:49:48.000Z</time>
      </trkpt>
      <trkpt lat="44.16224" lon="6.08081">
        <ele>1335</ele>
        <time>2022-03-03T11:49:49.000Z</time>
      </trkpt>
      <trkpt lat="44.16225" lon="6.08081">
        <ele>1335</ele>
        <time>2022-03-03T11:49:50.000Z</time>
      </trkpt>
      <trkpt lat="44.16226" lon="6.08081">
        <ele>1335</ele>
        <time>2022-03-03T11:49:51.000Z</time>
      </trkpt>
      <trkpt lat="44.16227" lon="6.08081">
        <ele>1335</ele>
        <time>2022-03-03T11:49:52.000Z</time>
      </trkpt>
      <trkpt lat="44.16228" lon="6.08081">
        <ele>1335</ele>
        <time>2022-03-03T11:49:53.000Z</time>
      </trkpt>
      <trkpt lat="44.16229" lon="6.08081">
        <ele>1335</ele>
        <time>2022-03-03T11:49:54.000Z</time>
      </trkpt>
      <trkpt lat="44.1623" lon="6.08081">
        <ele>1335</ele>
        <time>2022-03-03T11:49:55.000Z</time>
      </trkpt>
      <trkpt lat="44.16231" lon="6.0808">
        <ele>1335</ele>
        <time>2022-03-03T11:49:56.000Z</time>
      </trkpt>
      <trkpt lat="44.16232" lon="6.0808">
        <ele>1335</ele>
        <time>2022-03-03T11:49:57.000Z</time>
      </trkpt>
      <trkpt lat="44.16233" lon="6.0808">
        <ele>1335</ele>
        <time>2022-03-03T11:49:58.000Z</time>
      </trkpt>
      <trkpt lat="44.16234" lon="6.0808">
        <ele>1335</ele>
        <time>2022-03-03T11:49:59.000Z</time>
      </trkpt>
      <trkpt lat="44.16235" lon="6.08079">
        <ele>1334</ele>
        <time>2022-03-03T11:50:00.000Z</time>
      </trkpt>
      <trkpt lat="44.16236" lon="6.08079">
        <ele>1334</ele>
        <time>2022-03-03T11:50:01.000Z</time>
      </trkpt>
      <trkpt lat="44.16237" lon="6.08079">
        <ele>1334</ele>
        <time>2022-03-03T11:50:02.000Z</time>
      </trkpt>
      <trkpt lat="44.16238" lon="6.08079">
        <ele>1334</ele>
        <time>2022-03-03T11:50:03.000Z</time>
      </trkpt>
      <trkpt lat="44.16239" lon="6.08079">
        <ele>1334</ele>
        <time>2022-03-03T11:50:04.000Z</time>
      </trkpt>
      <trkpt lat="44.1624" lon="6.08078">
        <ele>1334</ele>
        <time>2022-03-03T11:50:05.000Z</time>
      </trkpt>
      <trkpt lat="44.16241" lon="6.08078">
        <ele>1334</ele>
        <time>2022-03-03T11:50:06.000Z</time>
      </trkpt>
      <trkpt lat="44.16242" lon="6.08078">
        <ele>1335</ele>
        <time>2022-03-03T11:50:07.000Z</time>
      </trkpt>
      <trkpt lat="44.16243" lon="6.08078">
        <ele>1335</ele>
        <time>2022-03-03T11:50:08.000Z</time>
      </trkpt>
      <trkpt lat="44.16244" lon="6.08078">
        <ele>1335</ele>
        <time>2022-03-03T11:50:09.000Z</time>
      </trkpt>
      <trkpt lat="44.16245" lon="6.08077">
        <ele>1335</ele>
        <time>2022-03-03T11:50:10.000Z</time>
      </trkpt>
      <trkpt lat="44.16246" lon="6.08077">
        <ele>1335</ele>
        <time>2022-03-03T11:50:11.000Z</time>
      </trkpt>
      <trkpt lat="44.16247" lon="6.08077">
        <ele>1335</ele>
        <time>2022-03-03T11:50:12.000Z</time>
      </trkpt>
      <trkpt lat="44.16248" lon="6.08077">
        <ele>1335</ele>
        <time>2022-03-03T11:50:13.000Z</time>
      </trkpt>
      <trkpt lat="44.16249" lon="6.08077">
        <ele>1335</ele>
        <time>2022-03-03T11:50:14.000Z</time>
      </trkpt>
      <trkpt lat="44.16251" lon="6.08076">
        <ele>1335</ele>
        <time>2022-03-03T11:50:15.000Z</time>
      </trkpt>
      <trkpt lat="44.16252" lon="6.08076">
        <ele>1335</ele>
        <time>2022-03-03T11:50:16.000Z</time>
      </trkpt>
      <trkpt lat="44.16253" lon="6.08076">
        <ele>1335</ele>
        <time>2022-03-03T11:50:17.000Z</time>
      </trkpt>
      <trkpt lat="44.16254" lon="6.08076">
        <ele>1335</ele>
        <time>2022-03-03T11:50:18.000Z</time>
      </trkpt>
      <trkpt lat="44.16255" lon="6.08076">
        <ele>1335</ele>
        <time>2022-03-03T11:50:19.000Z</time>
      </trkpt>
      <trkpt lat="44.16256" lon="6.08076">
        <ele>1335</ele>
        <time>2022-03-03T11:50:20.000Z</time>
      </trkpt>
      <trkpt lat="44.16257" lon="6.08076">
        <ele>1335</ele>
        <time>2022-03-03T11:50:21.000Z</time>
      </trkpt>
      <trkpt lat="44.16258" lon="6.08076">
        <ele>1335</ele>
        <time>2022-03-03T11:50:22.000Z</time>
      </trkpt>
      <trkpt lat="44.16259" lon="6.08075">
        <ele>1335</ele>
        <time>2022-03-03T11:50:23.000Z</time>
      </trkpt>
      <trkpt lat="44.1626" lon="6.08075">
        <ele>1335</ele>
        <time>2022-03-03T11:50:24.000Z</time>
      </trkpt>
      <trkpt lat="44.16261" lon="6.08075">
        <ele>1335</ele>
        <time>2022-03-03T11:50:25.000Z</time>
      </trkpt>
      <trkpt lat="44.16262" lon="6.08075">
        <ele>1336</ele>
        <time>2022-03-03T11:50:26.000Z</time>
      </trkpt>
      <trkpt lat="44.16263" lon="6.08075">
        <ele>1336</ele>
        <time>2022-03-03T11:50:27.000Z</time>
      </trkpt>
      <trkpt lat="44.16264" lon="6.08075">
        <ele>1336</ele>
        <time>2022-03-03T11:50:28.000Z</time>
      </trkpt>
      <trkpt lat="44.16266" lon="6.08075">
        <ele>1336</ele>
        <time>2022-03-03T11:50:29.000Z</time>
      </trkpt>
      <trkpt lat="44.16267" lon="6.08075">
        <ele>1336</ele>
        <time>2022-03-03T11:50:30.000Z</time>
      </trkpt>
      <trkpt lat="44.16268" lon="6.08075">
        <ele>1336</ele>
        <time>2022-03-03T11:50:31.000Z</time>
      </trkpt>
      <trkpt lat="44.16269" lon="6.08075">
        <ele>1336</ele>
        <time>2022-03-03T11:50:32.000Z</time>
      </trkpt>
      <trkpt lat="44.1627" lon="6.08075">
        <ele>1336</ele>
        <time>2022-03-03T11:50:33.000Z</time>
      </trkpt>
      <trkpt lat="44.16271" lon="6.08075">
        <ele>1336</ele>
        <time>2022-03-03T11:50:34.000Z</time>
      </trkpt>
      <trkpt lat="44.16272" lon="6.08075">
        <ele>1336</ele>
        <time>2022-03-03T11:50:35.000Z</time>
      </trkpt>
      <trkpt lat="44.16273" lon="6.08075">
        <ele>1336</ele>
        <time>2022-03-03T11:50:36.000Z</time>
      </trkpt>
      <trkpt lat="44.16274" lon="6.08075">
        <ele>1336</ele>
        <time>2022-03-03T11:50:37.000Z</time>
      </trkpt>
      <trkpt lat="44.16275" lon="6.08075">
        <ele>1336</ele>
        <time>2022-03-03T11:50:38.000Z</time>
      </trkpt>
      <trkpt lat="44.16276" lon="6.08074">
        <ele>1336</ele>
        <time>2022-03-03T11:50:39.000Z</time>
      </trkpt>
      <trkpt lat="44.16277" lon="6.08074">
        <ele>1336</ele>
        <time>2022-03-03T11:50:40.000Z</time>
      </trkpt>
      <trkpt lat="44.16278" lon="6.08074">
        <ele>1336</ele>
        <time>2022-03-03T11:50:41.000Z</time>
      </trkpt>
      <trkpt lat="44.16279" lon="6.08074">
        <ele>1336</ele>
        <time>2022-03-03T11:50:42.000Z</time>
      </trkpt>
      <trkpt lat="44.1628" lon="6.08074">
        <ele>1336</ele>
        <time>2022-03-03T11:50:43.000Z</time>
      </trkpt>
      <trkpt lat="44.16281" lon="6.08074">
        <ele>1336</ele>
        <time>2022-03-03T11:50:44.000Z</time>
      </trkpt>
      <trkpt lat="44.16282" lon="6.08073">
        <ele>1336</ele>
        <time>2022-03-03T11:50:45.000Z</time>
      </trkpt>
      <trkpt lat="44.16283" lon="6.08073">
        <ele>1337</ele>
        <time>2022-03-03T11:50:46.000Z</time>
      </trkpt>
      <trkpt lat="44.16284" lon="6.08073">
        <ele>1337</ele>
        <time>2022-03-03T11:50:47.000Z</time>
      </trkpt>
      <trkpt lat="44.16285" lon="6.08073">
        <ele>1337</ele>
        <time>2022-03-03T11:50:48.000Z</time>
      </trkpt>
      <trkpt lat="44.16287" lon="6.08073">
        <ele>1337</ele>
        <time>2022-03-03T11:50:49.000Z</time>
      </trkpt>
      <trkpt lat="44.16288" lon="6.08073">
        <ele>1337</ele>
        <time>2022-03-03T11:50:50.000Z</time>
      </trkpt>
      <trkpt lat="44.16289" lon="6.08073">
        <ele>1337</ele>
        <time>2022-03-03T11:50:51.000Z</time>
      </trkpt>
      <trkpt lat="44.1629" lon="6.08073">
        <ele>1337</ele>
        <time>2022-03-03T11:50:52.000Z</time>
      </trkpt>
      <trkpt lat="44.16291" lon="6.08073">
        <ele>1338</ele>
        <time>2022-03-03T11:50:53.000Z</time>
      </trkpt>
      <trkpt lat="44.16292" lon="6.08073">
        <ele>1338</ele>
        <time>2022-03-03T11:50:54.000Z</time>
      </trkpt>
      <trkpt lat="44.16292" lon="6.08072">
        <ele>1338</ele>
        <time>2022-03-03T11:50:55.000Z</time>
      </trkpt>
      <trkpt lat="44.16293" lon="6.08072">
        <ele>1338</ele>
        <time>2022-03-03T11:50:56.000Z</time>
      </trkpt>
      <trkpt lat="44.16295" lon="6.08072">
        <ele>1338</ele>
        <time>2022-03-03T11:50:57.000Z</time>
      </trkpt>
      <trkpt lat="44.16296" lon="6.08072">
        <ele>1339</ele>
        <time>2022-03-03T11:50:58.000Z</time>
      </trkpt>
      <trkpt lat="44.16296" lon="6.08072">
        <ele>1339</ele>
        <time>2022-03-03T11:50:59.000Z</time>
      </trkpt>
      <trkpt lat="44.16298" lon="6.08072">
        <ele>1339</ele>
        <time>2022-03-03T11:51:00.000Z</time>
      </trkpt>
      <trkpt lat="44.16299" lon="6.08072">
        <ele>1339</ele>
        <time>2022-03-03T11:51:01.000Z</time>
      </trkpt>
      <trkpt lat="44.16299" lon="6.08072">
        <ele>1339</ele>
        <time>2022-03-03T11:51:02.000Z</time>
      </trkpt>
      <trkpt lat="44.163" lon="6.08072">
        <ele>1339</ele>
        <time>2022-03-03T11:51:03.000Z</time>
      </trkpt>
      <trkpt lat="44.16302" lon="6.08072">
        <ele>1339</ele>
        <time>2022-03-03T11:51:04.000Z</time>
      </trkpt>
      <trkpt lat="44.16302" lon="6.08072">
        <ele>1339</ele>
        <time>2022-03-03T11:51:05.000Z</time>
      </trkpt>
      <trkpt lat="44.16303" lon="6.08072">
        <ele>1340</ele>
        <time>2022-03-03T11:51:06.000Z</time>
      </trkpt>
      <trkpt lat="44.16304" lon="6.08072">
        <ele>1340</ele>
        <time>2022-03-03T11:51:07.000Z</time>
      </trkpt>
      <trkpt lat="44.16305" lon="6.08072">
        <ele>1340</ele>
        <time>2022-03-03T11:51:08.000Z</time>
      </trkpt>
      <trkpt lat="44.16306" lon="6.08072">
        <ele>1340</ele>
        <time>2022-03-03T11:51:09.000Z</time>
      </trkpt>
      <trkpt lat="44.16307" lon="6.08072">
        <ele>1340</ele>
        <time>2022-03-03T11:51:10.000Z</time>
      </trkpt>
      <trkpt lat="44.16308" lon="6.08072">
        <ele>1340</ele>
        <time>2022-03-03T11:51:11.000Z</time>
      </trkpt>
      <trkpt lat="44.16309" lon="6.08072">
        <ele>1340</ele>
        <time>2022-03-03T11:51:12.000Z</time>
      </trkpt>
      <trkpt lat="44.16309" lon="6.08072">
        <ele>1340</ele>
        <time>2022-03-03T11:51:13.000Z</time>
      </trkpt>
      <trkpt lat="44.1631" lon="6.08072">
        <ele>1340</ele>
        <time>2022-03-03T11:51:14.000Z</time>
      </trkpt>
      <trkpt lat="44.16311" lon="6.08072">
        <ele>1340</ele>
        <time>2022-03-03T11:51:15.000Z</time>
      </trkpt>
      <trkpt lat="44.16312" lon="6.08072">
        <ele>1341</ele>
        <time>2022-03-03T11:51:16.000Z</time>
      </trkpt>
      <trkpt lat="44.16313" lon="6.08072">
        <ele>1341</ele>
        <time>2022-03-03T11:51:17.000Z</time>
      </trkpt>
      <trkpt lat="44.16313" lon="6.08072">
        <ele>1341</ele>
        <time>2022-03-03T11:51:18.000Z</time>
      </trkpt>
      <trkpt lat="44.16314" lon="6.08072">
        <ele>1341</ele>
        <time>2022-03-03T11:51:19.000Z</time>
      </trkpt>
      <trkpt lat="44.16315" lon="6.08072">
        <ele>1341</ele>
        <time>2022-03-03T11:51:20.000Z</time>
      </trkpt>
      <trkpt lat="44.16316" lon="6.08072">
        <ele>1341</ele>
        <time>2022-03-03T11:51:21.000Z</time>
      </trkpt>
      <trkpt lat="44.16316" lon="6.08072">
        <ele>1341</ele>
        <time>2022-03-03T11:51:22.000Z</time>
      </trkpt>
      <trkpt lat="44.16317" lon="6.08072">
        <ele>1341</ele>
        <time>2022-03-03T11:51:23.000Z</time>
      </trkpt>
      <trkpt lat="44.16318" lon="6.08072">
        <ele>1341</ele>
        <time>2022-03-03T11:51:24.000Z</time>
      </trkpt>
      <trkpt lat="44.16319" lon="6.08073">
        <ele>1341</ele>
        <time>2022-03-03T11:51:25.000Z</time>
      </trkpt>
      <trkpt lat="44.1632" lon="6.08073">
        <ele>1341</ele>
        <time>2022-03-03T11:51:26.000Z</time>
      </trkpt>
      <trkpt lat="44.16321" lon="6.08073">
        <ele>1341</ele>
        <time>2022-03-03T11:51:27.000Z</time>
      </trkpt>
      <trkpt lat="44.16322" lon="6.08073">
        <ele>1341</ele>
        <time>2022-03-03T11:51:28.000Z</time>
      </trkpt>
      <trkpt lat="44.16323" lon="6.08073">
        <ele>1341</ele>
        <time>2022-03-03T11:51:29.000Z</time>
      </trkpt>
      <trkpt lat="44.16323" lon="6.08073">
        <ele>1341</ele>
        <time>2022-03-03T11:51:30.000Z</time>
      </trkpt>
      <trkpt lat="44.16324" lon="6.08073">
        <ele>1341</ele>
        <time>2022-03-03T11:51:31.000Z</time>
      </trkpt>
      <trkpt lat="44.16325" lon="6.08073">
        <ele>1341</ele>
        <time>2022-03-03T11:51:32.000Z</time>
      </trkpt>
      <trkpt lat="44.16326" lon="6.08073">
        <ele>1341</ele>
        <time>2022-03-03T11:51:33.000Z</time>
      </trkpt>
      <trkpt lat="44.16326" lon="6.08073">
        <ele>1341</ele>
        <time>2022-03-03T11:51:34.000Z</time>
      </trkpt>
      <trkpt lat="44.16327" lon="6.08073">
        <ele>1342</ele>
        <time>2022-03-03T11:51:35.000Z</time>
      </trkpt>
      <trkpt lat="44.16328" lon="6.08073">
        <ele>1342</ele>
        <time>2022-03-03T11:51:36.000Z</time>
      </trkpt>
      <trkpt lat="44.16328" lon="6.08073">
        <ele>1342</ele>
        <time>2022-03-03T11:51:37.000Z</time>
      </trkpt>
      <trkpt lat="44.16329" lon="6.08073">
        <ele>1342</ele>
        <time>2022-03-03T11:51:38.000Z</time>
      </trkpt>
      <trkpt lat="44.1633" lon="6.08073">
        <ele>1342</ele>
        <time>2022-03-03T11:51:39.000Z</time>
      </trkpt>
      <trkpt lat="44.16331" lon="6.08073">
        <ele>1342</ele>
        <time>2022-03-03T11:51:40.000Z</time>
      </trkpt>
      <trkpt lat="44.16331" lon="6.08073">
        <ele>1342</ele>
        <time>2022-03-03T11:51:41.000Z</time>
      </trkpt>
      <trkpt lat="44.16332" lon="6.08073">
        <ele>1342</ele>
        <time>2022-03-03T11:51:42.000Z</time>
      </trkpt>
      <trkpt lat="44.16333" lon="6.08073">
        <ele>1342</ele>
        <time>2022-03-03T11:51:43.000Z</time>
      </trkpt>
      <trkpt lat="44.16334" lon="6.08073">
        <ele>1342</ele>
        <time>2022-03-03T11:51:44.000Z</time>
      </trkpt>
      <trkpt lat="44.16335" lon="6.08074">
        <ele>1342</ele>
        <time>2022-03-03T11:51:45.000Z</time>
      </trkpt>
      <trkpt lat="44.16335" lon="6.08074">
        <ele>1342</ele>
        <time>2022-03-03T11:51:46.000Z</time>
      </trkpt>
      <trkpt lat="44.16336" lon="6.08074">
        <ele>1343</ele>
        <time>2022-03-03T11:51:47.000Z</time>
      </trkpt>
      <trkpt lat="44.16337" lon="6.08074">
        <ele>1343</ele>
        <time>2022-03-03T11:51:48.000Z</time>
      </trkpt>
      <trkpt lat="44.16337" lon="6.08074">
        <ele>1343</ele>
        <time>2022-03-03T11:51:49.000Z</time>
      </trkpt>
      <trkpt lat="44.16338" lon="6.08074">
        <ele>1343</ele>
        <time>2022-03-03T11:51:50.000Z</time>
      </trkpt>
      <trkpt lat="44.16339" lon="6.08074">
        <ele>1343</ele>
        <time>2022-03-03T11:51:51.000Z</time>
      </trkpt>
      <trkpt lat="44.16339" lon="6.08074">
        <ele>1343</ele>
        <time>2022-03-03T11:51:52.000Z</time>
      </trkpt>
      <trkpt lat="44.1634" lon="6.08074">
        <ele>1343</ele>
        <time>2022-03-03T11:51:53.000Z</time>
      </trkpt>
      <trkpt lat="44.16341" lon="6.08074">
        <ele>1343</ele>
        <time>2022-03-03T11:51:54.000Z</time>
      </trkpt>
      <trkpt lat="44.16342" lon="6.08074">
        <ele>1344</ele>
        <time>2022-03-03T11:51:55.000Z</time>
      </trkpt>
      <trkpt lat="44.16342" lon="6.08074">
        <ele>1344</ele>
        <time>2022-03-03T11:51:56.000Z</time>
      </trkpt>
      <trkpt lat="44.16343" lon="6.08075">
        <ele>1344</ele>
        <time>2022-03-03T11:51:57.000Z</time>
      </trkpt>
      <trkpt lat="44.16344" lon="6.08074">
        <ele>1344</ele>
        <time>2022-03-03T11:51:58.000Z</time>
      </trkpt>
      <trkpt lat="44.16345" lon="6.08074">
        <ele>1344</ele>
        <time>2022-03-03T11:51:59.000Z</time>
      </trkpt>
      <trkpt lat="44.16346" lon="6.08074">
        <ele>1344</ele>
        <time>2022-03-03T11:52:00.000Z</time>
      </trkpt>
      <trkpt lat="44.16346" lon="6.08074">
        <ele>1344</ele>
        <time>2022-03-03T11:52:01.000Z</time>
      </trkpt>
      <trkpt lat="44.16347" lon="6.08074">
        <ele>1344</ele>
        <time>2022-03-03T11:52:02.000Z</time>
      </trkpt>
      <trkpt lat="44.16348" lon="6.08074">
        <ele>1344</ele>
        <time>2022-03-03T11:52:03.000Z</time>
      </trkpt>
      <trkpt lat="44.16349" lon="6.08074">
        <ele>1344</ele>
        <time>2022-03-03T11:52:04.000Z</time>
      </trkpt>
      <trkpt lat="44.16349" lon="6.08074">
        <ele>1344</ele>
        <time>2022-03-03T11:52:05.000Z</time>
      </trkpt>
      <trkpt lat="44.1635" lon="6.08074">
        <ele>1344</ele>
        <time>2022-03-03T11:52:06.000Z</time>
      </trkpt>
      <trkpt lat="44.16351" lon="6.08074">
        <ele>1344</ele>
        <time>2022-03-03T11:52:07.000Z</time>
      </trkpt>
      <trkpt lat="44.16351" lon="6.08074">
        <ele>1344</ele>
        <time>2022-03-03T11:52:08.000Z</time>
      </trkpt>
      <trkpt lat="44.16352" lon="6.08074">
        <ele>1345</ele>
        <time>2022-03-03T11:52:09.000Z</time>
      </trkpt>
      <trkpt lat="44.16353" lon="6.08074">
        <ele>1345</ele>
        <time>2022-03-03T11:52:10.000Z</time>
      </trkpt>
      <trkpt lat="44.16353" lon="6.08074">
        <ele>1345</ele>
        <time>2022-03-03T11:52:11.000Z</time>
      </trkpt>
      <trkpt lat="44.16354" lon="6.08074">
        <ele>1345</ele>
        <time>2022-03-03T11:52:12.000Z</time>
      </trkpt>
      <trkpt lat="44.16355" lon="6.08074">
        <ele>1345</ele>
        <time>2022-03-03T11:52:13.000Z</time>
      </trkpt>
      <trkpt lat="44.16356" lon="6.08074">
        <ele>1345</ele>
        <time>2022-03-03T11:52:14.000Z</time>
      </trkpt>
      <trkpt lat="44.16356" lon="6.08074">
        <ele>1345</ele>
        <time>2022-03-03T11:52:15.000Z</time>
      </trkpt>
      <trkpt lat="44.16357" lon="6.08074">
        <ele>1345</ele>
        <time>2022-03-03T11:52:16.000Z</time>
      </trkpt>
      <trkpt lat="44.16358" lon="6.08074">
        <ele>1345</ele>
        <time>2022-03-03T11:52:17.000Z</time>
      </trkpt>
      <trkpt lat="44.16358" lon="6.08074">
        <ele>1346</ele>
        <time>2022-03-03T11:52:18.000Z</time>
      </trkpt>
      <trkpt lat="44.16359" lon="6.08075">
        <ele>1346</ele>
        <time>2022-03-03T11:52:19.000Z</time>
      </trkpt>
      <trkpt lat="44.1636" lon="6.08075">
        <ele>1346</ele>
        <time>2022-03-03T11:52:20.000Z</time>
      </trkpt>
      <trkpt lat="44.1636" lon="6.08075">
        <ele>1346</ele>
        <time>2022-03-03T11:52:21.000Z</time>
      </trkpt>
      <trkpt lat="44.16361" lon="6.08075">
        <ele>1346</ele>
        <time>2022-03-03T11:52:22.000Z</time>
      </trkpt>
      <trkpt lat="44.16362" lon="6.08074">
        <ele>1346</ele>
        <time>2022-03-03T11:52:23.000Z</time>
      </trkpt>
      <trkpt lat="44.16362" lon="6.08074">
        <ele>1346</ele>
        <time>2022-03-03T11:52:24.000Z</time>
      </trkpt>
      <trkpt lat="44.16362" lon="6.08074">
        <ele>1346</ele>
        <time>2022-03-03T11:52:25.000Z</time>
      </trkpt>
      <trkpt lat="44.16362" lon="6.08075">
        <ele>1346</ele>
        <time>2022-03-03T11:52:26.000Z</time>
      </trkpt>
      <trkpt lat="44.16362" lon="6.08075">
        <ele>1346</ele>
        <time>2022-03-03T11:52:27.000Z</time>
      </trkpt>
      <trkpt lat="44.16362" lon="6.08074">
        <ele>1346</ele>
        <time>2022-03-03T11:52:28.000Z</time>
      </trkpt>
      <trkpt lat="44.16362" lon="6.08074">
        <ele>1346</ele>
        <time>2022-03-03T11:52:29.000Z</time>
      </trkpt>
      <trkpt lat="44.16362" lon="6.08074">
        <ele>1346</ele>
        <time>2022-03-03T11:52:30.000Z</time>
      </trkpt>
      <trkpt lat="44.16362" lon="6.08074">
        <ele>1346</ele>
        <time>2022-03-03T11:52:31.000Z</time>
      </trkpt>
      <trkpt lat="44.16362" lon="6.08074">
        <ele>1346</ele>
        <time>2022-03-03T11:52:32.000Z</time>
      </trkpt>
      <trkpt lat="44.16362" lon="6.08074">
        <ele>1346</ele>
        <time>2022-03-03T11:52:33.000Z</time>
      </trkpt>
      <trkpt lat="44.16362" lon="6.08074">
        <ele>1346</ele>
        <time>2022-03-03T11:52:34.000Z</time>
      </trkpt>
      <trkpt lat="44.16362" lon="6.08074">
        <ele>1346</ele>
        <time>2022-03-03T11:52:35.000Z</time>
      </trkpt>
      <trkpt lat="44.16362" lon="6.08074">
        <ele>1346</ele>
        <time>2022-03-03T11:52:36.000Z</time>
      </trkpt>
      <trkpt lat="44.16362" lon="6.08074">
        <ele>1346</ele>
        <time>2022-03-03T11:52:37.000Z</time>
      </trkpt>
      <trkpt lat="44.16362" lon="6.08074">
        <ele>1346</ele>
        <time>2022-03-03T11:52:38.000Z</time>
      </trkpt>
      <trkpt lat="44.16363" lon="6.08074">
        <ele>1346</ele>
        <time>2022-03-03T11:52:39.000Z</time>
      </trkpt>
      <trkpt lat="44.16363" lon="6.08074">
        <ele>1346</ele>
        <time>2022-03-03T11:52:40.000Z</time>
      </trkpt>
      <trkpt lat="44.16363" lon="6.08074">
        <ele>1346</ele>
        <time>2022-03-03T11:52:41.000Z</time>
      </trkpt>
      <trkpt lat="44.16363" lon="6.08074">
        <ele>1345</ele>
        <time>2022-03-03T11:52:42.000Z</time>
      </trkpt>
      <trkpt lat="44.16363" lon="6.08074">
        <ele>1345</ele>
        <time>2022-03-03T11:52:43.000Z</time>
      </trkpt>
      <trkpt lat="44.16363" lon="6.08074">
        <ele>1345</ele>
        <time>2022-03-03T11:52:44.000Z</time>
      </trkpt>
      <trkpt lat="44.16363" lon="6.08074">
        <ele>1345</ele>
        <time>2022-03-03T11:52:45.000Z</time>
      </trkpt>
      <trkpt lat="44.16363" lon="6.08074">
        <ele>1345</ele>
        <time>2022-03-03T11:52:46.000Z</time>
      </trkpt>
      <trkpt lat="44.16363" lon="6.08074">
        <ele>1345</ele>
        <time>2022-03-03T11:52:47.000Z</time>
      </trkpt>
      <trkpt lat="44.16363" lon="6.08074">
        <ele>1345</ele>
        <time>2022-03-03T11:52:48.000Z</time>
      </trkpt>
      <trkpt lat="44.16363" lon="6.08074">
        <ele>1345</ele>
        <time>2022-03-03T11:52:49.000Z</time>
      </trkpt>
      <trkpt lat="44.16363" lon="6.08074">
        <ele>1345</ele>
        <time>2022-03-03T11:52:50.000Z</time>
      </trkpt>
      <trkpt lat="44.16363" lon="6.08074">
        <ele>1345</ele>
        <time>2022-03-03T11:52:51.000Z</time>
      </trkpt>
      <trkpt lat="44.16362" lon="6.08074">
        <ele>1345</ele>
        <time>2022-03-03T11:52:52.000Z</time>
      </trkpt>
      <trkpt lat="44.16363" lon="6.08074">
        <ele>1345</ele>
        <time>2022-03-03T11:52:53.000Z</time>
      </trkpt>
      <trkpt lat="44.16363" lon="6.08074">
        <ele>1345</ele>
        <time>2022-03-03T11:52:54.000Z</time>
      </trkpt>
      <trkpt lat="44.16363" lon="6.08074">
        <ele>1345</ele>
        <time>2022-03-03T11:52:55.000Z</time>
      </trkpt>
      <trkpt lat="44.16363" lon="6.08074">
        <ele>1345</ele>
        <time>2022-03-03T11:52:56.000Z</time>
      </trkpt>
      <trkpt lat="44.16362" lon="6.08074">
        <ele>1345</ele>
        <time>2022-03-03T11:52:57.000Z</time>
      </trkpt>
      <trkpt lat="44.16362" lon="6.08074">
        <ele>1345</ele>
        <time>2022-03-03T11:52:58.000Z</time>
      </trkpt>
      <trkpt lat="44.16362" lon="6.08074">
        <ele>1345</ele>
        <time>2022-03-03T11:52:59.000Z</time>
      </trkpt>
      <trkpt lat="44.16362" lon="6.08074">
        <ele>1345</ele>
        <time>2022-03-03T11:53:00.000Z</time>
      </trkpt>
      <trkpt lat="44.16363" lon="6.08074">
        <ele>1345</ele>
        <time>2022-03-03T11:53:01.000Z</time>
      </trkpt>
      <trkpt lat="44.16363" lon="6.08074">
        <ele>1344</ele>
        <time>2022-03-03T11:53:02.000Z</time>
      </trkpt>
      <trkpt lat="44.16363" lon="6.08074">
        <ele>1344</ele>
        <time>2022-03-03T11:53:03.000Z</time>
      </trkpt>
      <trkpt lat="44.16363" lon="6.08074">
        <ele>1344</ele>
        <time>2022-03-03T11:53:04.000Z</time>
      </trkpt>
      <trkpt lat="44.16363" lon="6.08074">
        <ele>1344</ele>
        <time>2022-03-03T11:53:05.000Z</time>
      </trkpt>
      <trkpt lat="44.16363" lon="6.08074">
        <ele>1344</ele>
        <time>2022-03-03T11:53:06.000Z</time>
      </trkpt>
      <trkpt lat="44.16363" lon="6.08074">
        <ele>1344</ele>
        <time>2022-03-03T11:53:07.000Z</time>
      </trkpt>
      <trkpt lat="44.16363" lon="6.08074">
        <ele>1344</ele>
        <time>2022-03-03T11:53:08.000Z</time>
      </trkpt>
      <trkpt lat="44.16363" lon="6.08074">
        <ele>1344</ele>
        <time>2022-03-03T11:53:09.000Z</time>
      </trkpt>
      <trkpt lat="44.16363" lon="6.08074">
        <ele>1344</ele>
        <time>2022-03-03T11:53:10.000Z</time>
      </trkpt>
      <trkpt lat="44.16363" lon="6.08074">
        <ele>1344</ele>
        <time>2022-03-03T11:53:11.000Z</time>
      </trkpt>
      <trkpt lat="44.16363" lon="6.08074">
        <ele>1344</ele>
        <time>2022-03-03T11:53:12.000Z</time>
      </trkpt>
      <trkpt lat="44.16363" lon="6.08074">
        <ele>1344</ele>
        <time>2022-03-03T11:53:13.000Z</time>
      </trkpt>
      <trkpt lat="44.16363" lon="6.08074">
        <ele>1344</ele>
        <time>2022-03-03T11:53:14.000Z</time>
      </trkpt>
      <trkpt lat="44.16363" lon="6.08075">
        <ele>1344</ele>
        <time>2022-03-03T11:53:15.000Z</time>
      </trkpt>
      <trkpt lat="44.16364" lon="6.08075">
        <ele>1344</ele>
        <time>2022-03-03T11:53:16.000Z</time>
      </trkpt>
      <trkpt lat="44.16364" lon="6.08075">
        <ele>1344</ele>
        <time>2022-03-03T11:53:17.000Z</time>
      </trkpt>
      <trkpt lat="44.16364" lon="6.08075">
        <ele>1344</ele>
        <time>2022-03-03T11:53:18.000Z</time>
      </trkpt>
      <trkpt lat="44.16364" lon="6.08075">
        <ele>1344</ele>
        <time>2022-03-03T11:53:19.000Z</time>
      </trkpt>
      <trkpt lat="44.16364" lon="6.08075">
        <ele>1344</ele>
        <time>2022-03-03T11:53:20.000Z</time>
      </trkpt>
      <trkpt lat="44.16364" lon="6.08075">
        <ele>1344</ele>
        <time>2022-03-03T11:53:21.000Z</time>
      </trkpt>
      <trkpt lat="44.16364" lon="6.08075">
        <ele>1344</ele>
        <time>2022-03-03T11:53:22.000Z</time>
      </trkpt>
      <trkpt lat="44.16364" lon="6.08075">
        <ele>1344</ele>
        <time>2022-03-03T11:53:23.000Z</time>
      </trkpt>
      <trkpt lat="44.16364" lon="6.08075">
        <ele>1344</ele>
        <time>2022-03-03T11:53:24.000Z</time>
      </trkpt>
      <trkpt lat="44.16364" lon="6.08075">
        <ele>1344</ele>
        <time>2022-03-03T11:53:25.000Z</time>
      </trkpt>
      <trkpt lat="44.16364" lon="6.08075">
        <ele>1344</ele>
        <time>2022-03-03T11:53:26.000Z</time>
      </trkpt>
      <trkpt lat="44.16364" lon="6.08075">
        <ele>1344</ele>
        <time>2022-03-03T11:53:27.000Z</time>
      </trkpt>
      <trkpt lat="44.16365" lon="6.08075">
        <ele>1344</ele>
        <time>2022-03-03T11:53:28.000Z</time>
      </trkpt>
      <trkpt lat="44.16365" lon="6.08075">
        <ele>1344</ele>
        <time>2022-03-03T11:53:29.000Z</time>
      </trkpt>
      <trkpt lat="44.16366" lon="6.08075">
        <ele>1345</ele>
        <time>2022-03-03T11:53:30.000Z</time>
      </trkpt>
      <trkpt lat="44.16367" lon="6.08076">
        <ele>1345</ele>
        <time>2022-03-03T11:53:31.000Z</time>
      </trkpt>
      <trkpt lat="44.16368" lon="6.08076">
        <ele>1345</ele>
        <time>2022-03-03T11:53:32.000Z</time>
      </trkpt>
      <trkpt lat="44.16368" lon="6.08076">
        <ele>1345</ele>
        <time>2022-03-03T11:53:33.000Z</time>
      </trkpt>
      <trkpt lat="44.16369" lon="6.08076">
        <ele>1345</ele>
        <time>2022-03-03T11:53:34.000Z</time>
      </trkpt>
      <trkpt lat="44.1637" lon="6.08076">
        <ele>1345</ele>
        <time>2022-03-03T11:53:35.000Z</time>
      </trkpt>
      <trkpt lat="44.1637" lon="6.08077">
        <ele>1345</ele>
        <time>2022-03-03T11:53:36.000Z</time>
      </trkpt>
      <trkpt lat="44.16371" lon="6.08077">
        <ele>1346</ele>
        <time>2022-03-03T11:53:37.000Z</time>
      </trkpt>
      <trkpt lat="44.16372" lon="6.08077">
        <ele>1346</ele>
        <time>2022-03-03T11:53:38.000Z</time>
      </trkpt>
      <trkpt lat="44.16373" lon="6.08077">
        <ele>1346</ele>
        <time>2022-03-03T11:53:39.000Z</time>
      </trkpt>
      <trkpt lat="44.16373" lon="6.08077">
        <ele>1346</ele>
        <time>2022-03-03T11:53:40.000Z</time>
      </trkpt>
      <trkpt lat="44.16374" lon="6.08078">
        <ele>1346</ele>
        <time>2022-03-03T11:53:41.000Z</time>
      </trkpt>
      <trkpt lat="44.16375" lon="6.08078">
        <ele>1346</ele>
        <time>2022-03-03T11:53:42.000Z</time>
      </trkpt>
      <trkpt lat="44.16375" lon="6.08078">
        <ele>1346</ele>
        <time>2022-03-03T11:53:43.000Z</time>
      </trkpt>
      <trkpt lat="44.16376" lon="6.08078">
        <ele>1346</ele>
        <time>2022-03-03T11:53:44.000Z</time>
      </trkpt>
      <trkpt lat="44.16377" lon="6.08078">
        <ele>1346</ele>
        <time>2022-03-03T11:53:45.000Z</time>
      </trkpt>
      <trkpt lat="44.16377" lon="6.08078">
        <ele>1347</ele>
        <time>2022-03-03T11:53:46.000Z</time>
      </trkpt>
      <trkpt lat="44.16378" lon="6.08079">
        <ele>1347</ele>
        <time>2022-03-03T11:53:47.000Z</time>
      </trkpt>
      <trkpt lat="44.16379" lon="6.08079">
        <ele>1347</ele>
        <time>2022-03-03T11:53:48.000Z</time>
      </trkpt>
      <trkpt lat="44.16379" lon="6.08079">
        <ele>1347</ele>
        <time>2022-03-03T11:53:49.000Z</time>
      </trkpt>
      <trkpt lat="44.1638" lon="6.0808">
        <ele>1347</ele>
        <time>2022-03-03T11:53:50.000Z</time>
      </trkpt>
      <trkpt lat="44.16381" lon="6.0808">
        <ele>1347</ele>
        <time>2022-03-03T11:53:51.000Z</time>
      </trkpt>
      <trkpt lat="44.16381" lon="6.0808">
        <ele>1347</ele>
        <time>2022-03-03T11:53:52.000Z</time>
      </trkpt>
      <trkpt lat="44.16382" lon="6.0808">
        <ele>1347</ele>
        <time>2022-03-03T11:53:53.000Z</time>
      </trkpt>
      <trkpt lat="44.16382" lon="6.0808">
        <ele>1348</ele>
        <time>2022-03-03T11:53:54.000Z</time>
      </trkpt>
      <trkpt lat="44.16383" lon="6.0808">
        <ele>1348</ele>
        <time>2022-03-03T11:53:55.000Z</time>
      </trkpt>
      <trkpt lat="44.16383" lon="6.08081">
        <ele>1348</ele>
        <time>2022-03-03T11:53:56.000Z</time>
      </trkpt>
      <trkpt lat="44.16384" lon="6.08081">
        <ele>1348</ele>
        <time>2022-03-03T11:53:57.000Z</time>
      </trkpt>
      <trkpt lat="44.16384" lon="6.08081">
        <ele>1348</ele>
        <time>2022-03-03T11:53:58.000Z</time>
      </trkpt>
      <trkpt lat="44.16385" lon="6.08081">
        <ele>1348</ele>
        <time>2022-03-03T11:53:59.000Z</time>
      </trkpt>
      <trkpt lat="44.16386" lon="6.08082">
        <ele>1348</ele>
        <time>2022-03-03T11:54:00.000Z</time>
      </trkpt>
      <trkpt lat="44.16386" lon="6.08082">
        <ele>1348</ele>
        <time>2022-03-03T11:54:01.000Z</time>
      </trkpt>
      <trkpt lat="44.16387" lon="6.08082">
        <ele>1349</ele>
        <time>2022-03-03T11:54:02.000Z</time>
      </trkpt>
      <trkpt lat="44.16387" lon="6.08082">
        <ele>1349</ele>
        <time>2022-03-03T11:54:03.000Z</time>
      </trkpt>
      <trkpt lat="44.16388" lon="6.08083">
        <ele>1349</ele>
        <time>2022-03-03T11:54:04.000Z</time>
      </trkpt>
      <trkpt lat="44.16388" lon="6.08083">
        <ele>1349</ele>
        <time>2022-03-03T11:54:05.000Z</time>
      </trkpt>
      <trkpt lat="44.16389" lon="6.08083">
        <ele>1349</ele>
        <time>2022-03-03T11:54:06.000Z</time>
      </trkpt>
      <trkpt lat="44.1639" lon="6.08083">
        <ele>1350</ele>
        <time>2022-03-03T11:54:07.000Z</time>
      </trkpt>
      <trkpt lat="44.1639" lon="6.08083">
        <ele>1350</ele>
        <time>2022-03-03T11:54:08.000Z</time>
      </trkpt>
      <trkpt lat="44.16391" lon="6.08084">
        <ele>1350</ele>
        <time>2022-03-03T11:54:09.000Z</time>
      </trkpt>
      <trkpt lat="44.16391" lon="6.08084">
        <ele>1350</ele>
        <time>2022-03-03T11:54:10.000Z</time>
      </trkpt>
      <trkpt lat="44.16392" lon="6.08084">
        <ele>1350</ele>
        <time>2022-03-03T11:54:11.000Z</time>
      </trkpt>
      <trkpt lat="44.16392" lon="6.08084">
        <ele>1350</ele>
        <time>2022-03-03T11:54:12.000Z</time>
      </trkpt>
      <trkpt lat="44.16393" lon="6.08084">
        <ele>1351</ele>
        <time>2022-03-03T11:54:13.000Z</time>
      </trkpt>
      <trkpt lat="44.16394" lon="6.08084">
        <ele>1351</ele>
        <time>2022-03-03T11:54:14.000Z</time>
      </trkpt>
      <trkpt lat="44.16394" lon="6.08084">
        <ele>1351</ele>
        <time>2022-03-03T11:54:15.000Z</time>
      </trkpt>
      <trkpt lat="44.16395" lon="6.08084">
        <ele>1351</ele>
        <time>2022-03-03T11:54:16.000Z</time>
      </trkpt>
      <trkpt lat="44.16395" lon="6.08085">
        <ele>1351</ele>
        <time>2022-03-03T11:54:17.000Z</time>
      </trkpt>
      <trkpt lat="44.16396" lon="6.08085">
        <ele>1351</ele>
        <time>2022-03-03T11:54:18.000Z</time>
      </trkpt>
      <trkpt lat="44.16396" lon="6.08085">
        <ele>1351</ele>
        <time>2022-03-03T11:54:19.000Z</time>
      </trkpt>
      <trkpt lat="44.16397" lon="6.08085">
        <ele>1352</ele>
        <time>2022-03-03T11:54:20.000Z</time>
      </trkpt>
      <trkpt lat="44.16398" lon="6.08085">
        <ele>1352</ele>
        <time>2022-03-03T11:54:21.000Z</time>
      </trkpt>
      <trkpt lat="44.16398" lon="6.08086">
        <ele>1352</ele>
        <time>2022-03-03T11:54:22.000Z</time>
      </trkpt>
      <trkpt lat="44.16399" lon="6.08086">
        <ele>1352</ele>
        <time>2022-03-03T11:54:23.000Z</time>
      </trkpt>
      <trkpt lat="44.16399" lon="6.08086">
        <ele>1352</ele>
        <time>2022-03-03T11:54:24.000Z</time>
      </trkpt>
      <trkpt lat="44.164" lon="6.08087">
        <ele>1353</ele>
        <time>2022-03-03T11:54:25.000Z</time>
      </trkpt>
      <trkpt lat="44.164" lon="6.08087">
        <ele>1353</ele>
        <time>2022-03-03T11:54:26.000Z</time>
      </trkpt>
      <trkpt lat="44.16401" lon="6.08087">
        <ele>1353</ele>
        <time>2022-03-03T11:54:27.000Z</time>
      </trkpt>
      <trkpt lat="44.16401" lon="6.08087">
        <ele>1353</ele>
        <time>2022-03-03T11:54:28.000Z</time>
      </trkpt>
      <trkpt lat="44.16401" lon="6.08088">
        <ele>1353</ele>
        <time>2022-03-03T11:54:29.000Z</time>
      </trkpt>
      <trkpt lat="44.16402" lon="6.08088">
        <ele>1354</ele>
        <time>2022-03-03T11:54:30.000Z</time>
      </trkpt>
      <trkpt lat="44.16402" lon="6.08088">
        <ele>1354</ele>
        <time>2022-03-03T11:54:31.000Z</time>
      </trkpt>
      <trkpt lat="44.16403" lon="6.08088">
        <ele>1354</ele>
        <time>2022-03-03T11:54:32.000Z</time>
      </trkpt>
      <trkpt lat="44.16403" lon="6.08089">
        <ele>1354</ele>
        <time>2022-03-03T11:54:33.000Z</time>
      </trkpt>
      <trkpt lat="44.16404" lon="6.08089">
        <ele>1354</ele>
        <time>2022-03-03T11:54:34.000Z</time>
      </trkpt>
      <trkpt lat="44.16405" lon="6.08089">
        <ele>1354</ele>
        <time>2022-03-03T11:54:35.000Z</time>
      </trkpt>
      <trkpt lat="44.16405" lon="6.08089">
        <ele>1354</ele>
        <time>2022-03-03T11:54:36.000Z</time>
      </trkpt>
      <trkpt lat="44.16406" lon="6.08089">
        <ele>1355</ele>
        <time>2022-03-03T11:54:37.000Z</time>
      </trkpt>
      <trkpt lat="44.16406" lon="6.08089">
        <ele>1355</ele>
        <time>2022-03-03T11:54:38.000Z</time>
      </trkpt>
      <trkpt lat="44.16407" lon="6.0809">
        <ele>1355</ele>
        <time>2022-03-03T11:54:39.000Z</time>
      </trkpt>
      <trkpt lat="44.16407" lon="6.0809">
        <ele>1355</ele>
        <time>2022-03-03T11:54:40.000Z</time>
      </trkpt>
      <trkpt lat="44.16408" lon="6.0809">
        <ele>1355</ele>
        <time>2022-03-03T11:54:41.000Z</time>
      </trkpt>
      <trkpt lat="44.16408" lon="6.0809">
        <ele>1355</ele>
        <time>2022-03-03T11:54:42.000Z</time>
      </trkpt>
      <trkpt lat="44.16409" lon="6.0809">
        <ele>1355</ele>
        <time>2022-03-03T11:54:43.000Z</time>
      </trkpt>
      <trkpt lat="44.16409" lon="6.08091">
        <ele>1355</ele>
        <time>2022-03-03T11:54:44.000Z</time>
      </trkpt>
      <trkpt lat="44.16409" lon="6.08091">
        <ele>1355</ele>
        <time>2022-03-03T11:54:45.000Z</time>
      </trkpt>
      <trkpt lat="44.16409" lon="6.08091">
        <ele>1355</ele>
        <time>2022-03-03T11:54:46.000Z</time>
      </trkpt>
      <trkpt lat="44.16409" lon="6.08091">
        <ele>1355</ele>
        <time>2022-03-03T11:54:47.000Z</time>
      </trkpt>
      <trkpt lat="44.16409" lon="6.08091">
        <ele>1355</ele>
        <time>2022-03-03T11:54:48.000Z</time>
      </trkpt>
      <trkpt lat="44.16409" lon="6.08091">
        <ele>1355</ele>
        <time>2022-03-03T11:54:49.000Z</time>
      </trkpt>
      <trkpt lat="44.1641" lon="6.08091">
        <ele>1355</ele>
        <time>2022-03-03T11:54:50.000Z</time>
      </trkpt>
      <trkpt lat="44.1641" lon="6.08091">
        <ele>1355</ele>
        <time>2022-03-03T11:54:51.000Z</time>
      </trkpt>
      <trkpt lat="44.1641" lon="6.08091">
        <ele>1355</ele>
        <time>2022-03-03T11:54:52.000Z</time>
      </trkpt>
      <trkpt lat="44.1641" lon="6.08091">
        <ele>1355</ele>
        <time>2022-03-03T11:54:53.000Z</time>
      </trkpt>
      <trkpt lat="44.1641" lon="6.08091">
        <ele>1356</ele>
        <time>2022-03-03T11:54:54.000Z</time>
      </trkpt>
      <trkpt lat="44.1641" lon="6.08091">
        <ele>1356</ele>
        <time>2022-03-03T11:54:55.000Z</time>
      </trkpt>
      <trkpt lat="44.1641" lon="6.08091">
        <ele>1356</ele>
        <time>2022-03-03T11:54:56.000Z</time>
      </trkpt>
      <trkpt lat="44.1641" lon="6.08091">
        <ele>1356</ele>
        <time>2022-03-03T11:54:57.000Z</time>
      </trkpt>
      <trkpt lat="44.1641" lon="6.08091">
        <ele>1356</ele>
        <time>2022-03-03T11:54:58.000Z</time>
      </trkpt>
      <trkpt lat="44.1641" lon="6.08091">
        <ele>1356</ele>
        <time>2022-03-03T11:54:59.000Z</time>
      </trkpt>
      <trkpt lat="44.1641" lon="6.08091">
        <ele>1356</ele>
        <time>2022-03-03T11:55:00.000Z</time>
      </trkpt>
      <trkpt lat="44.1641" lon="6.08091">
        <ele>1356</ele>
        <time>2022-03-03T11:55:01.000Z</time>
      </trkpt>
      <trkpt lat="44.1641" lon="6.08091">
        <ele>1356</ele>
        <time>2022-03-03T11:55:02.000Z</time>
      </trkpt>
      <trkpt lat="44.16411" lon="6.08091">
        <ele>1356</ele>
        <time>2022-03-03T11:55:03.000Z</time>
      </trkpt>
      <trkpt lat="44.16411" lon="6.08091">
        <ele>1356</ele>
        <time>2022-03-03T11:55:04.000Z</time>
      </trkpt>
      <trkpt lat="44.16411" lon="6.08091">
        <ele>1356</ele>
        <time>2022-03-03T11:55:05.000Z</time>
      </trkpt>
      <trkpt lat="44.16411" lon="6.08091">
        <ele>1356</ele>
        <time>2022-03-03T11:55:06.000Z</time>
      </trkpt>
      <trkpt lat="44.16411" lon="6.08091">
        <ele>1357</ele>
        <time>2022-03-03T11:55:07.000Z</time>
      </trkpt>
      <trkpt lat="44.16411" lon="6.08091">
        <ele>1357</ele>
        <time>2022-03-03T11:55:08.000Z</time>
      </trkpt>
      <trkpt lat="44.16411" lon="6.08091">
        <ele>1357</ele>
        <time>2022-03-03T11:55:09.000Z</time>
      </trkpt>
      <trkpt lat="44.16411" lon="6.08091">
        <ele>1357</ele>
        <time>2022-03-03T11:55:10.000Z</time>
      </trkpt>
      <trkpt lat="44.16411" lon="6.08091">
        <ele>1357</ele>
        <time>2022-03-03T11:55:11.000Z</time>
      </trkpt>
      <trkpt lat="44.16411" lon="6.08091">
        <ele>1357</ele>
        <time>2022-03-03T11:55:12.000Z</time>
      </trkpt>
      <trkpt lat="44.16411" lon="6.08091">
        <ele>1357</ele>
        <time>2022-03-03T11:55:13.000Z</time>
      </trkpt>
      <trkpt lat="44.16411" lon="6.08091">
        <ele>1357</ele>
        <time>2022-03-03T11:55:14.000Z</time>
      </trkpt>
      <trkpt lat="44.16411" lon="6.08091">
        <ele>1357</ele>
        <time>2022-03-03T11:55:15.000Z</time>
      </trkpt>
      <trkpt lat="44.16411" lon="6.08091">
        <ele>1357</ele>
        <time>2022-03-03T11:55:16.000Z</time>
      </trkpt>
      <trkpt lat="44.16412" lon="6.08091">
        <ele>1357</ele>
        <time>2022-03-03T11:55:17.000Z</time>
      </trkpt>
      <trkpt lat="44.16411" lon="6.08091">
        <ele>1357</ele>
        <time>2022-03-03T11:55:18.000Z</time>
      </trkpt>
      <trkpt lat="44.16412" lon="6.08091">
        <ele>1357</ele>
        <time>2022-03-03T11:55:19.000Z</time>
      </trkpt>
      <trkpt lat="44.16412" lon="6.08091">
        <ele>1357</ele>
        <time>2022-03-03T11:55:20.000Z</time>
      </trkpt>
      <trkpt lat="44.16412" lon="6.08091">
        <ele>1357</ele>
        <time>2022-03-03T11:55:21.000Z</time>
      </trkpt>
      <trkpt lat="44.16412" lon="6.08091">
        <ele>1357</ele>
        <time>2022-03-03T11:55:22.000Z</time>
      </trkpt>
      <trkpt lat="44.16412" lon="6.0809">
        <ele>1357</ele>
        <time>2022-03-03T11:55:23.000Z</time>
      </trkpt>
      <trkpt lat="44.16412" lon="6.08091">
        <ele>1357</ele>
        <time>2022-03-03T11:55:24.000Z</time>
      </trkpt>
      <trkpt lat="44.16412" lon="6.0809">
        <ele>1357</ele>
        <time>2022-03-03T11:55:25.000Z</time>
      </trkpt>
      <trkpt lat="44.16412" lon="6.08091">
        <ele>1357</ele>
        <time>2022-03-03T11:55:26.000Z</time>
      </trkpt>
      <trkpt lat="44.16412" lon="6.08091">
        <ele>1357</ele>
        <time>2022-03-03T11:55:27.000Z</time>
      </trkpt>
      <trkpt lat="44.16412" lon="6.08091">
        <ele>1357</ele>
        <time>2022-03-03T11:55:28.000Z</time>
      </trkpt>
      <trkpt lat="44.16412" lon="6.08091">
        <ele>1357</ele>
        <time>2022-03-03T11:55:29.000Z</time>
      </trkpt>
      <trkpt lat="44.16412" lon="6.08091">
        <ele>1357</ele>
        <time>2022-03-03T11:55:30.000Z</time>
      </trkpt>
      <trkpt lat="44.16412" lon="6.08091">
        <ele>1357</ele>
        <time>2022-03-03T11:55:31.000Z</time>
      </trkpt>
      <trkpt lat="44.16412" lon="6.08091">
        <ele>1357</ele>
        <time>2022-03-03T11:55:32.000Z</time>
      </trkpt>
      <trkpt lat="44.16412" lon="6.08091">
        <ele>1358</ele>
        <time>2022-03-03T11:55:33.000Z</time>
      </trkpt>
      <trkpt lat="44.16412" lon="6.08091">
        <ele>1358</ele>
        <time>2022-03-03T11:55:34.000Z</time>
      </trkpt>
      <trkpt lat="44.16412" lon="6.08091">
        <ele>1358</ele>
        <time>2022-03-03T11:55:35.000Z</time>
      </trkpt>
      <trkpt lat="44.16412" lon="6.08091">
        <ele>1358</ele>
        <time>2022-03-03T11:55:36.000Z</time>
      </trkpt>
      <trkpt lat="44.16412" lon="6.08091">
        <ele>1358</ele>
        <time>2022-03-03T11:55:37.000Z</time>
      </trkpt>
      <trkpt lat="44.16412" lon="6.08091">
        <ele>1358</ele>
        <time>2022-03-03T11:55:38.000Z</time>
      </trkpt>
      <trkpt lat="44.16412" lon="6.08091">
        <ele>1358</ele>
        <time>2022-03-03T11:55:39.000Z</time>
      </trkpt>
      <trkpt lat="44.16412" lon="6.08091">
        <ele>1358</ele>
        <time>2022-03-03T11:55:40.000Z</time>
      </trkpt>
      <trkpt lat="44.16412" lon="6.08091">
        <ele>1358</ele>
        <time>2022-03-03T11:55:41.000Z</time>
      </trkpt>
      <trkpt lat="44.16412" lon="6.08091">
        <ele>1358</ele>
        <time>2022-03-03T11:55:42.000Z</time>
      </trkpt>
      <trkpt lat="44.16412" lon="6.08091">
        <ele>1358</ele>
        <time>2022-03-03T11:55:43.000Z</time>
      </trkpt>
      <trkpt lat="44.16412" lon="6.08091">
        <ele>1358</ele>
        <time>2022-03-03T11:55:44.000Z</time>
      </trkpt>
      <trkpt lat="44.16412" lon="6.08091">
        <ele>1358</ele>
        <time>2022-03-03T11:55:45.000Z</time>
      </trkpt>
      <trkpt lat="44.16412" lon="6.08091">
        <ele>1358</ele>
        <time>2022-03-03T11:55:46.000Z</time>
      </trkpt>
      <trkpt lat="44.16412" lon="6.08091">
        <ele>1358</ele>
        <time>2022-03-03T11:55:47.000Z</time>
      </trkpt>
      <trkpt lat="44.16412" lon="6.08091">
        <ele>1358</ele>
        <time>2022-03-03T11:55:48.000Z</time>
      </trkpt>
      <trkpt lat="44.16412" lon="6.08091">
        <ele>1358</ele>
        <time>2022-03-03T11:55:49.000Z</time>
      </trkpt>
      <trkpt lat="44.16412" lon="6.08091">
        <ele>1358</ele>
        <time>2022-03-03T11:55:50.000Z</time>
      </trkpt>
      <trkpt lat="44.16412" lon="6.08091">
        <ele>1358</ele>
        <time>2022-03-03T11:55:51.000Z</time>
      </trkpt>
      <trkpt lat="44.16412" lon="6.08091">
        <ele>1358</ele>
        <time>2022-03-03T11:55:52.000Z</time>
      </trkpt>
      <trkpt lat="44.16412" lon="6.08091">
        <ele>1358</ele>
        <time>2022-03-03T11:55:53.000Z</time>
      </trkpt>
      <trkpt lat="44.16412" lon="6.08091">
        <ele>1358</ele>
        <time>2022-03-03T11:55:54.000Z</time>
      </trkpt>
      <trkpt lat="44.16412" lon="6.08091">
        <ele>1359</ele>
        <time>2022-03-03T11:55:55.000Z</time>
      </trkpt>
      <trkpt lat="44.16413" lon="6.08091">
        <ele>1359</ele>
        <time>2022-03-03T11:55:56.000Z</time>
      </trkpt>
      <trkpt lat="44.16413" lon="6.08091">
        <ele>1359</ele>
        <time>2022-03-03T11:55:57.000Z</time>
      </trkpt>
      <trkpt lat="44.16413" lon="6.08091">
        <ele>1359</ele>
        <time>2022-03-03T11:55:58.000Z</time>
      </trkpt>
      <trkpt lat="44.16413" lon="6.08091">
        <ele>1359</ele>
        <time>2022-03-03T11:55:59.000Z</time>
      </trkpt>
      <trkpt lat="44.16413" lon="6.08091">
        <ele>1359</ele>
        <time>2022-03-03T11:56:00.000Z</time>
      </trkpt>
      <trkpt lat="44.16413" lon="6.08091">
        <ele>1359</ele>
        <time>2022-03-03T11:56:01.000Z</time>
      </trkpt>
      <trkpt lat="44.16413" lon="6.08091">
        <ele>1359</ele>
        <time>2022-03-03T11:56:02.000Z</time>
      </trkpt>
      <trkpt lat="44.16413" lon="6.08091">
        <ele>1359</ele>
        <time>2022-03-03T11:56:03.000Z</time>
      </trkpt>
      <trkpt lat="44.16413" lon="6.08091">
        <ele>1359</ele>
        <time>2022-03-03T11:56:04.000Z</time>
      </trkpt>
      <trkpt lat="44.16413" lon="6.08091">
        <ele>1359</ele>
        <time>2022-03-03T11:56:05.000Z</time>
      </trkpt>
      <trkpt lat="44.16413" lon="6.08091">
        <ele>1359</ele>
        <time>2022-03-03T11:56:06.000Z</time>
      </trkpt>
      <trkpt lat="44.16413" lon="6.08091">
        <ele>1359</ele>
        <time>2022-03-03T11:56:07.000Z</time>
      </trkpt>
      <trkpt lat="44.16414" lon="6.08091">
        <ele>1359</ele>
        <time>2022-03-03T11:56:08.000Z</time>
      </trkpt>
      <trkpt lat="44.16414" lon="6.08091">
        <ele>1359</ele>
        <time>2022-03-03T11:56:09.000Z</time>
      </trkpt>
      <trkpt lat="44.16414" lon="6.08091">
        <ele>1359</ele>
        <time>2022-03-03T11:56:10.000Z</time>
      </trkpt>
      <trkpt lat="44.16414" lon="6.08091">
        <ele>1359</ele>
        <time>2022-03-03T11:56:11.000Z</time>
      </trkpt>
      <trkpt lat="44.16414" lon="6.08092">
        <ele>1359</ele>
        <time>2022-03-03T11:56:12.000Z</time>
      </trkpt>
      <trkpt lat="44.16414" lon="6.08092">
        <ele>1359</ele>
        <time>2022-03-03T11:56:13.000Z</time>
      </trkpt>
      <trkpt lat="44.16414" lon="6.08092">
        <ele>1359</ele>
        <time>2022-03-03T11:56:14.000Z</time>
      </trkpt>
      <trkpt lat="44.16415" lon="6.08092">
        <ele>1359</ele>
        <time>2022-03-03T11:56:15.000Z</time>
      </trkpt>
      <trkpt lat="44.16415" lon="6.08092">
        <ele>1359</ele>
        <time>2022-03-03T11:56:16.000Z</time>
      </trkpt>
      <trkpt lat="44.16415" lon="6.08092">
        <ele>1359</ele>
        <time>2022-03-03T11:56:17.000Z</time>
      </trkpt>
      <trkpt lat="44.16416" lon="6.08093">
        <ele>1359</ele>
        <time>2022-03-03T11:56:18.000Z</time>
      </trkpt>
      <trkpt lat="44.16416" lon="6.08093">
        <ele>1359</ele>
        <time>2022-03-03T11:56:19.000Z</time>
      </trkpt>
      <trkpt lat="44.16417" lon="6.08093">
        <ele>1359</ele>
        <time>2022-03-03T11:56:20.000Z</time>
      </trkpt>
      <trkpt lat="44.16417" lon="6.08094">
        <ele>1359</ele>
        <time>2022-03-03T11:56:21.000Z</time>
      </trkpt>
      <trkpt lat="44.16418" lon="6.08094">
        <ele>1359</ele>
        <time>2022-03-03T11:56:22.000Z</time>
      </trkpt>
      <trkpt lat="44.16418" lon="6.08095">
        <ele>1359</ele>
        <time>2022-03-03T11:56:23.000Z</time>
      </trkpt>
      <trkpt lat="44.16419" lon="6.08095">
        <ele>1359</ele>
        <time>2022-03-03T11:56:24.000Z</time>
      </trkpt>
      <trkpt lat="44.16419" lon="6.08095">
        <ele>1359</ele>
        <time>2022-03-03T11:56:25.000Z</time>
      </trkpt>
      <trkpt lat="44.1642" lon="6.08096">
        <ele>1359</ele>
        <time>2022-03-03T11:56:26.000Z</time>
      </trkpt>
      <trkpt lat="44.1642" lon="6.08096">
        <ele>1359</ele>
        <time>2022-03-03T11:56:27.000Z</time>
      </trkpt>
      <trkpt lat="44.1642" lon="6.08096">
        <ele>1360</ele>
        <time>2022-03-03T11:56:28.000Z</time>
      </trkpt>
      <trkpt lat="44.16421" lon="6.08097">
        <ele>1360</ele>
        <time>2022-03-03T11:56:29.000Z</time>
      </trkpt>
      <trkpt lat="44.16421" lon="6.08097">
        <ele>1360</ele>
        <time>2022-03-03T11:56:30.000Z</time>
      </trkpt>
      <trkpt lat="44.16422" lon="6.08097">
        <ele>1360</ele>
        <time>2022-03-03T11:56:31.000Z</time>
      </trkpt>
      <trkpt lat="44.16422" lon="6.08097">
        <ele>1360</ele>
        <time>2022-03-03T11:56:32.000Z</time>
      </trkpt>
      <trkpt lat="44.16422" lon="6.08098">
        <ele>1360</ele>
        <time>2022-03-03T11:56:33.000Z</time>
      </trkpt>
      <trkpt lat="44.16423" lon="6.08098">
        <ele>1360</ele>
        <time>2022-03-03T11:56:34.000Z</time>
      </trkpt>
      <trkpt lat="44.16423" lon="6.08098">
        <ele>1360</ele>
        <time>2022-03-03T11:56:35.000Z</time>
      </trkpt>
      <trkpt lat="44.16424" lon="6.08098">
        <ele>1360</ele>
        <time>2022-03-03T11:56:36.000Z</time>
      </trkpt>
      <trkpt lat="44.16424" lon="6.08099">
        <ele>1361</ele>
        <time>2022-03-03T11:56:37.000Z</time>
      </trkpt>
      <trkpt lat="44.16424" lon="6.08099">
        <ele>1361</ele>
        <time>2022-03-03T11:56:38.000Z</time>
      </trkpt>
      <trkpt lat="44.16425" lon="6.08099">
        <ele>1361</ele>
        <time>2022-03-03T11:56:39.000Z</time>
      </trkpt>
      <trkpt lat="44.16425" lon="6.08099">
        <ele>1361</ele>
        <time>2022-03-03T11:56:40.000Z</time>
      </trkpt>
      <trkpt lat="44.16426" lon="6.081">
        <ele>1361</ele>
        <time>2022-03-03T11:56:41.000Z</time>
      </trkpt>
      <trkpt lat="44.16426" lon="6.081">
        <ele>1361</ele>
        <time>2022-03-03T11:56:42.000Z</time>
      </trkpt>
      <trkpt lat="44.16426" lon="6.081">
        <ele>1361</ele>
        <time>2022-03-03T11:56:43.000Z</time>
      </trkpt>
      <trkpt lat="44.16427" lon="6.081">
        <ele>1361</ele>
        <time>2022-03-03T11:56:44.000Z</time>
      </trkpt>
      <trkpt lat="44.16427" lon="6.08101">
        <ele>1361</ele>
        <time>2022-03-03T11:56:45.000Z</time>
      </trkpt>
      <trkpt lat="44.16428" lon="6.08101">
        <ele>1361</ele>
        <time>2022-03-03T11:56:46.000Z</time>
      </trkpt>
      <trkpt lat="44.16428" lon="6.08101">
        <ele>1361</ele>
        <time>2022-03-03T11:56:47.000Z</time>
      </trkpt>
      <trkpt lat="44.16429" lon="6.08101">
        <ele>1362</ele>
        <time>2022-03-03T11:56:48.000Z</time>
      </trkpt>
      <trkpt lat="44.16429" lon="6.08101">
        <ele>1362</ele>
        <time>2022-03-03T11:56:49.000Z</time>
      </trkpt>
      <trkpt lat="44.16429" lon="6.08102">
        <ele>1362</ele>
        <time>2022-03-03T11:56:50.000Z</time>
      </trkpt>
      <trkpt lat="44.1643" lon="6.08101">
        <ele>1362</ele>
        <time>2022-03-03T11:56:51.000Z</time>
      </trkpt>
      <trkpt lat="44.1643" lon="6.08101">
        <ele>1362</ele>
        <time>2022-03-03T11:56:52.000Z</time>
      </trkpt>
      <trkpt lat="44.16431" lon="6.08101">
        <ele>1362</ele>
        <time>2022-03-03T11:56:53.000Z</time>
      </trkpt>
      <trkpt lat="44.16431" lon="6.081">
        <ele>1362</ele>
        <time>2022-03-03T11:56:54.000Z</time>
      </trkpt>
      <trkpt lat="44.16432" lon="6.081">
        <ele>1362</ele>
        <time>2022-03-03T11:56:55.000Z</time>
      </trkpt>
      <trkpt lat="44.16432" lon="6.081">
        <ele>1362</ele>
        <time>2022-03-03T11:56:56.000Z</time>
      </trkpt>
      <trkpt lat="44.16433" lon="6.081">
        <ele>1362</ele>
        <time>2022-03-03T11:56:57.000Z</time>
      </trkpt>
      <trkpt lat="44.16433" lon="6.081">
        <ele>1362</ele>
        <time>2022-03-03T11:56:58.000Z</time>
      </trkpt>
      <trkpt lat="44.16433" lon="6.081">
        <ele>1362</ele>
        <time>2022-03-03T11:56:59.000Z</time>
      </trkpt>
      <trkpt lat="44.16434" lon="6.081">
        <ele>1363</ele>
        <time>2022-03-03T11:57:00.000Z</time>
      </trkpt>
      <trkpt lat="44.16434" lon="6.081">
        <ele>1363</ele>
        <time>2022-03-03T11:57:01.000Z</time>
      </trkpt>
      <trkpt lat="44.16434" lon="6.081">
        <ele>1363</ele>
        <time>2022-03-03T11:57:02.000Z</time>
      </trkpt>
      <trkpt lat="44.16435" lon="6.08099">
        <ele>1363</ele>
        <time>2022-03-03T11:57:03.000Z</time>
      </trkpt>
      <trkpt lat="44.16435" lon="6.08099">
        <ele>1363</ele>
        <time>2022-03-03T11:57:04.000Z</time>
      </trkpt>
      <trkpt lat="44.16435" lon="6.08099">
        <ele>1363</ele>
        <time>2022-03-03T11:57:05.000Z</time>
      </trkpt>
      <trkpt lat="44.16436" lon="6.08099">
        <ele>1364</ele>
        <time>2022-03-03T11:57:06.000Z</time>
      </trkpt>
      <trkpt lat="44.16436" lon="6.081">
        <ele>1364</ele>
        <time>2022-03-03T11:57:07.000Z</time>
      </trkpt>
      <trkpt lat="44.16437" lon="6.081">
        <ele>1364</ele>
        <time>2022-03-03T11:57:08.000Z</time>
      </trkpt>
      <trkpt lat="44.16437" lon="6.081">
        <ele>1364</ele>
        <time>2022-03-03T11:57:09.000Z</time>
      </trkpt>
      <trkpt lat="44.16438" lon="6.081">
        <ele>1365</ele>
        <time>2022-03-03T11:57:10.000Z</time>
      </trkpt>
      <trkpt lat="44.16438" lon="6.081">
        <ele>1365</ele>
        <time>2022-03-03T11:57:11.000Z</time>
      </trkpt>
      <trkpt lat="44.16439" lon="6.08101">
        <ele>1365</ele>
        <time>2022-03-03T11:57:12.000Z</time>
      </trkpt>
      <trkpt lat="44.16439" lon="6.08101">
        <ele>1365</ele>
        <time>2022-03-03T11:57:13.000Z</time>
      </trkpt>
      <trkpt lat="44.1644" lon="6.08101">
        <ele>1366</ele>
        <time>2022-03-03T11:57:14.000Z</time>
      </trkpt>
      <trkpt lat="44.1644" lon="6.08101">
        <ele>1366</ele>
        <time>2022-03-03T11:57:15.000Z</time>
      </trkpt>
      <trkpt lat="44.1644" lon="6.08101">
        <ele>1366</ele>
        <time>2022-03-03T11:57:16.000Z</time>
      </trkpt>
      <trkpt lat="44.16441" lon="6.08102">
        <ele>1367</ele>
        <time>2022-03-03T11:57:17.000Z</time>
      </trkpt>
      <trkpt lat="44.16441" lon="6.08102">
        <ele>1367</ele>
        <time>2022-03-03T11:57:18.000Z</time>
      </trkpt>
      <trkpt lat="44.16442" lon="6.08102">
        <ele>1367</ele>
        <time>2022-03-03T11:57:19.000Z</time>
      </trkpt>
      <trkpt lat="44.16442" lon="6.08102">
        <ele>1368</ele>
        <time>2022-03-03T11:57:20.000Z</time>
      </trkpt>
      <trkpt lat="44.16443" lon="6.08102">
        <ele>1368</ele>
        <time>2022-03-03T11:57:21.000Z</time>
      </trkpt>
      <trkpt lat="44.16443" lon="6.08103">
        <ele>1368</ele>
        <time>2022-03-03T11:57:22.000Z</time>
      </trkpt>
      <trkpt lat="44.16443" lon="6.08103">
        <ele>1368</ele>
        <time>2022-03-03T11:57:23.000Z</time>
      </trkpt>
      <trkpt lat="44.16444" lon="6.08103">
        <ele>1369</ele>
        <time>2022-03-03T11:57:24.000Z</time>
      </trkpt>
      <trkpt lat="44.16444" lon="6.08104">
        <ele>1369</ele>
        <time>2022-03-03T11:57:25.000Z</time>
      </trkpt>
      <trkpt lat="44.16444" lon="6.08104">
        <ele>1369</ele>
        <time>2022-03-03T11:57:26.000Z</time>
      </trkpt>
      <trkpt lat="44.16445" lon="6.08104">
        <ele>1369</ele>
        <time>2022-03-03T11:57:27.000Z</time>
      </trkpt>
      <trkpt lat="44.16445" lon="6.08105">
        <ele>1369</ele>
        <time>2022-03-03T11:57:28.000Z</time>
      </trkpt>
      <trkpt lat="44.16446" lon="6.08105">
        <ele>1370</ele>
        <time>2022-03-03T11:57:29.000Z</time>
      </trkpt>
      <trkpt lat="44.16446" lon="6.08106">
        <ele>1370</ele>
        <time>2022-03-03T11:57:30.000Z</time>
      </trkpt>
      <trkpt lat="44.16447" lon="6.08106">
        <ele>1370</ele>
        <time>2022-03-03T11:57:31.000Z</time>
      </trkpt>
      <trkpt lat="44.16447" lon="6.08106">
        <ele>1370</ele>
        <time>2022-03-03T11:57:32.000Z</time>
      </trkpt>
      <trkpt lat="44.16448" lon="6.08107">
        <ele>1370</ele>
        <time>2022-03-03T11:57:33.000Z</time>
      </trkpt>
      <trkpt lat="44.16448" lon="6.08107">
        <ele>1370</ele>
        <time>2022-03-03T11:57:34.000Z</time>
      </trkpt>
      <trkpt lat="44.16448" lon="6.08108">
        <ele>1371</ele>
        <time>2022-03-03T11:57:35.000Z</time>
      </trkpt>
      <trkpt lat="44.16449" lon="6.08108">
        <ele>1371</ele>
        <time>2022-03-03T11:57:36.000Z</time>
      </trkpt>
      <trkpt lat="44.16449" lon="6.08108">
        <ele>1371</ele>
        <time>2022-03-03T11:57:37.000Z</time>
      </trkpt>
      <trkpt lat="44.1645" lon="6.08108">
        <ele>1371</ele>
        <time>2022-03-03T11:57:38.000Z</time>
      </trkpt>
      <trkpt lat="44.1645" lon="6.08109">
        <ele>1371</ele>
        <time>2022-03-03T11:57:39.000Z</time>
      </trkpt>
      <trkpt lat="44.16451" lon="6.08109">
        <ele>1371</ele>
        <time>2022-03-03T11:57:40.000Z</time>
      </trkpt>
      <trkpt lat="44.16451" lon="6.08109">
        <ele>1372</ele>
        <time>2022-03-03T11:57:41.000Z</time>
      </trkpt>
      <trkpt lat="44.16451" lon="6.08109">
        <ele>1372</ele>
        <time>2022-03-03T11:57:42.000Z</time>
      </trkpt>
      <trkpt lat="44.16451" lon="6.08109">
        <ele>1372</ele>
        <time>2022-03-03T11:57:43.000Z</time>
      </trkpt>
      <trkpt lat="44.16451" lon="6.08109">
        <ele>1372</ele>
        <time>2022-03-03T11:57:44.000Z</time>
      </trkpt>
      <trkpt lat="44.16451" lon="6.08109">
        <ele>1372</ele>
        <time>2022-03-03T11:57:45.000Z</time>
      </trkpt>
      <trkpt lat="44.16451" lon="6.08109">
        <ele>1372</ele>
        <time>2022-03-03T11:57:46.000Z</time>
      </trkpt>
      <trkpt lat="44.16451" lon="6.08109">
        <ele>1372</ele>
        <time>2022-03-03T11:57:47.000Z</time>
      </trkpt>
      <trkpt lat="44.16451" lon="6.08109">
        <ele>1372</ele>
        <time>2022-03-03T11:57:48.000Z</time>
      </trkpt>
      <trkpt lat="44.16451" lon="6.0811">
        <ele>1372</ele>
        <time>2022-03-03T11:57:49.000Z</time>
      </trkpt>
      <trkpt lat="44.16451" lon="6.0811">
        <ele>1372</ele>
        <time>2022-03-03T11:57:50.000Z</time>
      </trkpt>
      <trkpt lat="44.16451" lon="6.0811">
        <ele>1372</ele>
        <time>2022-03-03T11:57:51.000Z</time>
      </trkpt>
      <trkpt lat="44.16451" lon="6.0811">
        <ele>1372</ele>
        <time>2022-03-03T11:57:52.000Z</time>
      </trkpt>
      <trkpt lat="44.16451" lon="6.0811">
        <ele>1372</ele>
        <time>2022-03-03T11:57:53.000Z</time>
      </trkpt>
      <trkpt lat="44.16451" lon="6.0811">
        <ele>1372</ele>
        <time>2022-03-03T11:57:54.000Z</time>
      </trkpt>
      <trkpt lat="44.16451" lon="6.0811">
        <ele>1372</ele>
        <time>2022-03-03T11:57:55.000Z</time>
      </trkpt>
      <trkpt lat="44.16451" lon="6.0811">
        <ele>1372</ele>
        <time>2022-03-03T11:57:56.000Z</time>
      </trkpt>
      <trkpt lat="44.16451" lon="6.0811">
        <ele>1372</ele>
        <time>2022-03-03T11:57:57.000Z</time>
      </trkpt>
      <trkpt lat="44.16451" lon="6.0811">
        <ele>1372</ele>
        <time>2022-03-03T11:57:58.000Z</time>
      </trkpt>
      <trkpt lat="44.1645" lon="6.0811">
        <ele>1372</ele>
        <time>2022-03-03T11:57:59.000Z</time>
      </trkpt>
      <trkpt lat="44.1645" lon="6.0811">
        <ele>1372</ele>
        <time>2022-03-03T11:58:00.000Z</time>
      </trkpt>
      <trkpt lat="44.16451" lon="6.0811">
        <ele>1372</ele>
        <time>2022-03-03T11:58:01.000Z</time>
      </trkpt>
      <trkpt lat="44.16451" lon="6.0811">
        <ele>1372</ele>
        <time>2022-03-03T11:58:02.000Z</time>
      </trkpt>
      <trkpt lat="44.16451" lon="6.0811">
        <ele>1372</ele>
        <time>2022-03-03T11:58:03.000Z</time>
      </trkpt>
      <trkpt lat="44.16451" lon="6.0811">
        <ele>1372</ele>
        <time>2022-03-03T11:58:04.000Z</time>
      </trkpt>
      <trkpt lat="44.16451" lon="6.0811">
        <ele>1372</ele>
        <time>2022-03-03T11:58:05.000Z</time>
      </trkpt>
      <trkpt lat="44.16451" lon="6.0811">
        <ele>1373</ele>
        <time>2022-03-03T11:58:06.000Z</time>
      </trkpt>
      <trkpt lat="44.1645" lon="6.08111">
        <ele>1373</ele>
        <time>2022-03-03T11:58:07.000Z</time>
      </trkpt>
      <trkpt lat="44.1645" lon="6.08111">
        <ele>1373</ele>
        <time>2022-03-03T11:58:08.000Z</time>
      </trkpt>
      <trkpt lat="44.16451" lon="6.08111">
        <ele>1373</ele>
        <time>2022-03-03T11:58:09.000Z</time>
      </trkpt>
      <trkpt lat="44.16451" lon="6.08111">
        <ele>1373</ele>
        <time>2022-03-03T11:58:10.000Z</time>
      </trkpt>
      <trkpt lat="44.16451" lon="6.08111">
        <ele>1372</ele>
        <time>2022-03-03T11:58:11.000Z</time>
      </trkpt>
      <trkpt lat="44.16451" lon="6.08111">
        <ele>1372</ele>
        <time>2022-03-03T11:58:12.000Z</time>
      </trkpt>
      <trkpt lat="44.16451" lon="6.08111">
        <ele>1372</ele>
        <time>2022-03-03T11:58:13.000Z</time>
      </trkpt>
      <trkpt lat="44.16451" lon="6.08111">
        <ele>1372</ele>
        <time>2022-03-03T11:58:14.000Z</time>
      </trkpt>
      <trkpt lat="44.16451" lon="6.08111">
        <ele>1372</ele>
        <time>2022-03-03T11:58:15.000Z</time>
      </trkpt>
      <trkpt lat="44.1645" lon="6.08111">
        <ele>1372</ele>
        <time>2022-03-03T11:58:16.000Z</time>
      </trkpt>
      <trkpt lat="44.1645" lon="6.08111">
        <ele>1372</ele>
        <time>2022-03-03T11:58:17.000Z</time>
      </trkpt>
      <trkpt lat="44.1645" lon="6.08111">
        <ele>1372</ele>
        <time>2022-03-03T11:58:18.000Z</time>
      </trkpt>
      <trkpt lat="44.1645" lon="6.08111">
        <ele>1372</ele>
        <time>2022-03-03T11:58:19.000Z</time>
      </trkpt>
      <trkpt lat="44.1645" lon="6.08111">
        <ele>1372</ele>
        <time>2022-03-03T11:58:20.000Z</time>
      </trkpt>
      <trkpt lat="44.1645" lon="6.08111">
        <ele>1372</ele>
        <time>2022-03-03T11:58:21.000Z</time>
      </trkpt>
      <trkpt lat="44.1645" lon="6.08111">
        <ele>1372</ele>
        <time>2022-03-03T11:58:22.000Z</time>
      </trkpt>
      <trkpt lat="44.1645" lon="6.08111">
        <ele>1372</ele>
        <time>2022-03-03T11:58:23.000Z</time>
      </trkpt>
      <trkpt lat="44.1645" lon="6.08111">
        <ele>1372</ele>
        <time>2022-03-03T11:58:24.000Z</time>
      </trkpt>
      <trkpt lat="44.1645" lon="6.08111">
        <ele>1372</ele>
        <time>2022-03-03T11:58:25.000Z</time>
      </trkpt>
      <trkpt lat="44.1645" lon="6.08111">
        <ele>1372</ele>
        <time>2022-03-03T11:58:26.000Z</time>
      </trkpt>
      <trkpt lat="44.1645" lon="6.08111">
        <ele>1372</ele>
        <time>2022-03-03T11:58:27.000Z</time>
      </trkpt>
      <trkpt lat="44.1645" lon="6.08111">
        <ele>1372</ele>
        <time>2022-03-03T11:58:28.000Z</time>
      </trkpt>
      <trkpt lat="44.1645" lon="6.08111">
        <ele>1372</ele>
        <time>2022-03-03T11:58:29.000Z</time>
      </trkpt>
      <trkpt lat="44.1645" lon="6.08111">
        <ele>1372</ele>
        <time>2022-03-03T11:58:30.000Z</time>
      </trkpt>
      <trkpt lat="44.1645" lon="6.08111">
        <ele>1372</ele>
        <time>2022-03-03T11:58:31.000Z</time>
      </trkpt>
      <trkpt lat="44.1645" lon="6.08111">
        <ele>1372</ele>
        <time>2022-03-03T11:58:32.000Z</time>
      </trkpt>
      <trkpt lat="44.1645" lon="6.08111">
        <ele>1372</ele>
        <time>2022-03-03T11:58:33.000Z</time>
      </trkpt>
      <trkpt lat="44.1645" lon="6.08111">
        <ele>1372</ele>
        <time>2022-03-03T11:58:34.000Z</time>
      </trkpt>
      <trkpt lat="44.1645" lon="6.08111">
        <ele>1372</ele>
        <time>2022-03-03T11:58:35.000Z</time>
      </trkpt>
      <trkpt lat="44.1645" lon="6.08111">
        <ele>1372</ele>
        <time>2022-03-03T11:58:36.000Z</time>
      </trkpt>
      <trkpt lat="44.1645" lon="6.08111">
        <ele>1372</ele>
        <time>2022-03-03T11:58:37.000Z</time>
      </trkpt>
      <trkpt lat="44.1645" lon="6.08111">
        <ele>1372</ele>
        <time>2022-03-03T11:58:38.000Z</time>
      </trkpt>
      <trkpt lat="44.1645" lon="6.08111">
        <ele>1372</ele>
        <time>2022-03-03T11:58:39.000Z</time>
      </trkpt>
      <trkpt lat="44.1645" lon="6.08111">
        <ele>1372</ele>
        <time>2022-03-03T11:58:40.000Z</time>
      </trkpt>
      <trkpt lat="44.1645" lon="6.08111">
        <ele>1372</ele>
        <time>2022-03-03T11:58:41.000Z</time>
      </trkpt>
      <trkpt lat="44.1645" lon="6.08111">
        <ele>1372</ele>
        <time>2022-03-03T11:58:42.000Z</time>
      </trkpt>
      <trkpt lat="44.1645" lon="6.08111">
        <ele>1372</ele>
        <time>2022-03-03T11:58:43.000Z</time>
      </trkpt>
      <trkpt lat="44.1645" lon="6.08111">
        <ele>1372</ele>
        <time>2022-03-03T11:58:44.000Z</time>
      </trkpt>
      <trkpt lat="44.1645" lon="6.08111">
        <ele>1372</ele>
        <time>2022-03-03T11:58:45.000Z</time>
      </trkpt>
      <trkpt lat="44.1645" lon="6.08111">
        <ele>1372</ele>
        <time>2022-03-03T11:58:46.000Z</time>
      </trkpt>
      <trkpt lat="44.1645" lon="6.08111">
        <ele>1372</ele>
        <time>2022-03-03T11:58:47.000Z</time>
      </trkpt>
      <trkpt lat="44.1645" lon="6.08111">
        <ele>1372</ele>
        <time>2022-03-03T11:58:48.000Z</time>
      </trkpt>
      <trkpt lat="44.16451" lon="6.08111">
        <ele>1372</ele>
        <time>2022-03-03T11:58:49.000Z</time>
      </trkpt>
      <trkpt lat="44.1645" lon="6.08111">
        <ele>1372</ele>
        <time>2022-03-03T11:58:50.000Z</time>
      </trkpt>
      <trkpt lat="44.1645" lon="6.08111">
        <ele>1372</ele>
        <time>2022-03-03T11:58:51.000Z</time>
      </trkpt>
      <trkpt lat="44.1645" lon="6.08111">
        <ele>1372</ele>
        <time>2022-03-03T11:58:52.000Z</time>
      </trkpt>
      <trkpt lat="44.1645" lon="6.08111">
        <ele>1372</ele>
        <time>2022-03-03T11:58:53.000Z</time>
      </trkpt>
      <trkpt lat="44.1645" lon="6.08111">
        <ele>1372</ele>
        <time>2022-03-03T11:58:54.000Z</time>
      </trkpt>
      <trkpt lat="44.1645" lon="6.08111">
        <ele>1373</ele>
        <time>2022-03-03T11:58:55.000Z</time>
      </trkpt>
      <trkpt lat="44.1645" lon="6.08111">
        <ele>1373</ele>
        <time>2022-03-03T11:58:56.000Z</time>
      </trkpt>
      <trkpt lat="44.1645" lon="6.08111">
        <ele>1373</ele>
        <time>2022-03-03T11:58:57.000Z</time>
      </trkpt>
      <trkpt lat="44.1645" lon="6.08111">
        <ele>1373</ele>
        <time>2022-03-03T11:58:58.000Z</time>
      </trkpt>
      <trkpt lat="44.1645" lon="6.08111">
        <ele>1373</ele>
        <time>2022-03-03T11:58:59.000Z</time>
      </trkpt>
      <trkpt lat="44.1645" lon="6.08112">
        <ele>1373</ele>
        <time>2022-03-03T11:59:00.000Z</time>
      </trkpt>
      <trkpt lat="44.1645" lon="6.08112">
        <ele>1373</ele>
        <time>2022-03-03T11:59:01.000Z</time>
      </trkpt>
      <trkpt lat="44.1645" lon="6.08112">
        <ele>1373</ele>
        <time>2022-03-03T11:59:02.000Z</time>
      </trkpt>
      <trkpt lat="44.1645" lon="6.08112">
        <ele>1373</ele>
        <time>2022-03-03T11:59:03.000Z</time>
      </trkpt>
      <trkpt lat="44.1645" lon="6.08112">
        <ele>1373</ele>
        <time>2022-03-03T11:59:04.000Z</time>
      </trkpt>
      <trkpt lat="44.1645" lon="6.08112">
        <ele>1373</ele>
        <time>2022-03-03T11:59:05.000Z</time>
      </trkpt>
      <trkpt lat="44.1645" lon="6.08112">
        <ele>1373</ele>
        <time>2022-03-03T11:59:06.000Z</time>
      </trkpt>
      <trkpt lat="44.1645" lon="6.08112">
        <ele>1373</ele>
        <time>2022-03-03T11:59:07.000Z</time>
      </trkpt>
      <trkpt lat="44.16451" lon="6.08112">
        <ele>1373</ele>
        <time>2022-03-03T11:59:08.000Z</time>
      </trkpt>
      <trkpt lat="44.16451" lon="6.08112">
        <ele>1373</ele>
        <time>2022-03-03T11:59:09.000Z</time>
      </trkpt>
      <trkpt lat="44.16451" lon="6.08112">
        <ele>1373</ele>
        <time>2022-03-03T11:59:10.000Z</time>
      </trkpt>
      <trkpt lat="44.16451" lon="6.08112">
        <ele>1373</ele>
        <time>2022-03-03T11:59:11.000Z</time>
      </trkpt>
      <trkpt lat="44.16451" lon="6.08112">
        <ele>1373</ele>
        <time>2022-03-03T11:59:12.000Z</time>
      </trkpt>
      <trkpt lat="44.16451" lon="6.08112">
        <ele>1373</ele>
        <time>2022-03-03T11:59:13.000Z</time>
      </trkpt>
      <trkpt lat="44.16451" lon="6.08112">
        <ele>1373</ele>
        <time>2022-03-03T11:59:14.000Z</time>
      </trkpt>
      <trkpt lat="44.16451" lon="6.08112">
        <ele>1373</ele>
        <time>2022-03-03T11:59:15.000Z</time>
      </trkpt>
      <trkpt lat="44.16451" lon="6.08112">
        <ele>1373</ele>
        <time>2022-03-03T11:59:16.000Z</time>
      </trkpt>
      <trkpt lat="44.16451" lon="6.08112">
        <ele>1373</ele>
        <time>2022-03-03T11:59:17.000Z</time>
      </trkpt>
      <trkpt lat="44.16451" lon="6.08112">
        <ele>1373</ele>
        <time>2022-03-03T11:59:18.000Z</time>
      </trkpt>
      <trkpt lat="44.16451" lon="6.08112">
        <ele>1373</ele>
        <time>2022-03-03T11:59:19.000Z</time>
      </trkpt>
      <trkpt lat="44.16451" lon="6.08112">
        <ele>1373</ele>
        <time>2022-03-03T11:59:20.000Z</time>
      </trkpt>
      <trkpt lat="44.16451" lon="6.08112">
        <ele>1373</ele>
        <time>2022-03-03T11:59:21.000Z</time>
      </trkpt>
      <trkpt lat="44.16451" lon="6.08112">
        <ele>1373</ele>
        <time>2022-03-03T11:59:22.000Z</time>
      </trkpt>
      <trkpt lat="44.16451" lon="6.08112">
        <ele>1373</ele>
        <time>2022-03-03T11:59:23.000Z</time>
      </trkpt>
      <trkpt lat="44.16451" lon="6.08112">
        <ele>1373</ele>
        <time>2022-03-03T11:59:24.000Z</time>
      </trkpt>
      <trkpt lat="44.16451" lon="6.08112">
        <ele>1373</ele>
        <time>2022-03-03T11:59:25.000Z</time>
      </trkpt>
      <trkpt lat="44.16451" lon="6.08112">
        <ele>1373</ele>
        <time>2022-03-03T11:59:26.000Z</time>
      </trkpt>
      <trkpt lat="44.16451" lon="6.08112">
        <ele>1373</ele>
        <time>2022-03-03T11:59:27.000Z</time>
      </trkpt>
      <trkpt lat="44.16451" lon="6.08112">
        <ele>1373</ele>
        <time>2022-03-03T11:59:28.000Z</time>
      </trkpt>
      <trkpt lat="44.16451" lon="6.08112">
        <ele>1373</ele>
        <time>2022-03-03T11:59:29.000Z</time>
      </trkpt>
      <trkpt lat="44.16451" lon="6.08112">
        <ele>1373</ele>
        <time>2022-03-03T11:59:30.000Z</time>
      </trkpt>
      <trkpt lat="44.16451" lon="6.08112">
        <ele>1373</ele>
        <time>2022-03-03T11:59:31.000Z</time>
      </trkpt>
      <trkpt lat="44.16451" lon="6.08112">
        <ele>1373</ele>
        <time>2022-03-03T11:59:32.000Z</time>
      </trkpt>
      <trkpt lat="44.16451" lon="6.08112">
        <ele>1373</ele>
        <time>2022-03-03T11:59:33.000Z</time>
      </trkpt>
      <trkpt lat="44.16451" lon="6.08112">
        <ele>1373</ele>
        <time>2022-03-03T11:59:34.000Z</time>
      </trkpt>
      <trkpt lat="44.16451" lon="6.08112">
        <ele>1373</ele>
        <time>2022-03-03T11:59:35.000Z</time>
      </trkpt>
      <trkpt lat="44.16451" lon="6.08112">
        <ele>1373</ele>
        <time>2022-03-03T11:59:36.000Z</time>
      </trkpt>
      <trkpt lat="44.16451" lon="6.08112">
        <ele>1374</ele>
        <time>2022-03-03T11:59:37.000Z</time>
      </trkpt>
      <trkpt lat="44.16451" lon="6.08112">
        <ele>1374</ele>
        <time>2022-03-03T11:59:38.000Z</time>
      </trkpt>
      <trkpt lat="44.16451" lon="6.08112">
        <ele>1374</ele>
        <time>2022-03-03T11:59:39.000Z</time>
      </trkpt>
      <trkpt lat="44.16451" lon="6.08112">
        <ele>1374</ele>
        <time>2022-03-03T11:59:40.000Z</time>
      </trkpt>
      <trkpt lat="44.16451" lon="6.08112">
        <ele>1374</ele>
        <time>2022-03-03T11:59:41.000Z</time>
      </trkpt>
      <trkpt lat="44.16451" lon="6.08112">
        <ele>1374</ele>
        <time>2022-03-03T11:59:42.000Z</time>
      </trkpt>
      <trkpt lat="44.16451" lon="6.08112">
        <ele>1374</ele>
        <time>2022-03-03T11:59:43.000Z</time>
      </trkpt>
      <trkpt lat="44.16451" lon="6.08112">
        <ele>1374</ele>
        <time>2022-03-03T11:59:44.000Z</time>
      </trkpt>
      <trkpt lat="44.16451" lon="6.08112">
        <ele>1374</ele>
        <time>2022-03-03T11:59:45.000Z</time>
      </trkpt>
      <trkpt lat="44.16451" lon="6.08112">
        <ele>1374</ele>
        <time>2022-03-03T11:59:46.000Z</time>
      </trkpt>
      <trkpt lat="44.16451" lon="6.08112">
        <ele>1374</ele>
        <time>2022-03-03T11:59:47.000Z</time>
      </trkpt>
      <trkpt lat="44.16451" lon="6.08112">
        <ele>1374</ele>
        <time>2022-03-03T11:59:48.000Z</time>
      </trkpt>
      <trkpt lat="44.16451" lon="6.08112">
        <ele>1374</ele>
        <time>2022-03-03T11:59:49.000Z</time>
      </trkpt>
      <trkpt lat="44.16451" lon="6.08112">
        <ele>1374</ele>
        <time>2022-03-03T11:59:50.000Z</time>
      </trkpt>
      <trkpt lat="44.16451" lon="6.08112">
        <ele>1374</ele>
        <time>2022-03-03T11:59:51.000Z</time>
      </trkpt>
      <trkpt lat="44.16451" lon="6.08112">
        <ele>1374</ele>
        <time>2022-03-03T11:59:52.000Z</time>
      </trkpt>
      <trkpt lat="44.16451" lon="6.08112">
        <ele>1374</ele>
        <time>2022-03-03T11:59:53.000Z</time>
      </trkpt>
      <trkpt lat="44.16451" lon="6.08112">
        <ele>1374</ele>
        <time>2022-03-03T11:59:54.000Z</time>
      </trkpt>
      <trkpt lat="44.16451" lon="6.08112">
        <ele>1374</ele>
        <time>2022-03-03T11:59:55.000Z</time>
      </trkpt>
      <trkpt lat="44.16451" lon="6.08112">
        <ele>1374</ele>
        <time>2022-03-03T11:59:56.000Z</time>
      </trkpt>
      <trkpt lat="44.16451" lon="6.08112">
        <ele>1374</ele>
        <time>2022-03-03T11:59:57.000Z</time>
      </trkpt>
      <trkpt lat="44.16451" lon="6.08112">
        <ele>1374</ele>
        <time>2022-03-03T11:59:58.000Z</time>
      </trkpt>
      <trkpt lat="44.16451" lon="6.08112">
        <ele>1374</ele>
        <time>2022-03-03T11:59:59.000Z</time>
      </trkpt>
      <trkpt lat="44.16451" lon="6.08112">
        <ele>1374</ele>
        <time>2022-03-03T12:00:00.000Z</time>
      </trkpt>
      <trkpt lat="44.16451" lon="6.08112">
        <ele>1374</ele>
        <time>2022-03-03T12:00:01.000Z</time>
      </trkpt>
      <trkpt lat="44.16451" lon="6.08112">
        <ele>1374</ele>
        <time>2022-03-03T12:00:02.000Z</time>
      </trkpt>
      <trkpt lat="44.16451" lon="6.08112">
        <ele>1374</ele>
        <time>2022-03-03T12:00:03.000Z</time>
      </trkpt>
      <trkpt lat="44.16451" lon="6.08112">
        <ele>1374</ele>
        <time>2022-03-03T12:00:04.000Z</time>
      </trkpt>
      <trkpt lat="44.16451" lon="6.08112">
        <ele>1374</ele>
        <time>2022-03-03T12:00:05.000Z</time>
      </trkpt>
      <trkpt lat="44.16451" lon="6.08112">
        <ele>1374</ele>
        <time>2022-03-03T12:00:06.000Z</time>
      </trkpt>
      <trkpt lat="44.16451" lon="6.08112">
        <ele>1374</ele>
        <time>2022-03-03T12:00:07.000Z</time>
      </trkpt>
      <trkpt lat="44.16451" lon="6.08112">
        <ele>1374</ele>
        <time>2022-03-03T12:00:08.000Z</time>
      </trkpt>
      <trkpt lat="44.16451" lon="6.08112">
        <ele>1374</ele>
        <time>2022-03-03T12:00:09.000Z</time>
      </trkpt>
      <trkpt lat="44.16451" lon="6.08112">
        <ele>1374</ele>
        <time>2022-03-03T12:00:10.000Z</time>
      </trkpt>
      <trkpt lat="44.16451" lon="6.08112">
        <ele>1374</ele>
        <time>2022-03-03T12:00:11.000Z</time>
      </trkpt>
      <trkpt lat="44.16451" lon="6.08112">
        <ele>1374</ele>
        <time>2022-03-03T12:00:12.000Z</time>
      </trkpt>
      <trkpt lat="44.16451" lon="6.08113">
        <ele>1374</ele>
        <time>2022-03-03T12:00:13.000Z</time>
      </trkpt>
      <trkpt lat="44.16451" lon="6.08113">
        <ele>1374</ele>
        <time>2022-03-03T12:00:14.000Z</time>
      </trkpt>
      <trkpt lat="44.16451" lon="6.08113">
        <ele>1374</ele>
        <time>2022-03-03T12:00:15.000Z</time>
      </trkpt>
      <trkpt lat="44.16451" lon="6.08113">
        <ele>1374</ele>
        <time>2022-03-03T12:00:16.000Z</time>
      </trkpt>
      <trkpt lat="44.16451" lon="6.08113">
        <ele>1374</ele>
        <time>2022-03-03T12:00:17.000Z</time>
      </trkpt>
      <trkpt lat="44.16451" lon="6.08113">
        <ele>1374</ele>
        <time>2022-03-03T12:00:18.000Z</time>
      </trkpt>
      <trkpt lat="44.16451" lon="6.08113">
        <ele>1374</ele>
        <time>2022-03-03T12:00:19.000Z</time>
      </trkpt>
      <trkpt lat="44.16451" lon="6.08113">
        <ele>1374</ele>
        <time>2022-03-03T12:00:20.000Z</time>
      </trkpt>
      <trkpt lat="44.16451" lon="6.08113">
        <ele>1374</ele>
        <time>2022-03-03T12:00:21.000Z</time>
      </trkpt>
      <trkpt lat="44.16451" lon="6.08113">
        <ele>1374</ele>
        <time>2022-03-03T12:00:22.000Z</time>
      </trkpt>
      <trkpt lat="44.16451" lon="6.08113">
        <ele>1374</ele>
        <time>2022-03-03T12:00:23.000Z</time>
      </trkpt>
      <trkpt lat="44.16451" lon="6.08113">
        <ele>1374</ele>
        <time>2022-03-03T12:00:24.000Z</time>
      </trkpt>
      <trkpt lat="44.16451" lon="6.08113">
        <ele>1374</ele>
        <time>2022-03-03T12:00:25.000Z</time>
      </trkpt>
      <trkpt lat="44.16451" lon="6.08113">
        <ele>1374</ele>
        <time>2022-03-03T12:00:26.000Z</time>
      </trkpt>
      <trkpt lat="44.16451" lon="6.08113">
        <ele>1374</ele>
        <time>2022-03-03T12:00:27.000Z</time>
      </trkpt>
      <trkpt lat="44.16451" lon="6.08113">
        <ele>1374</ele>
        <time>2022-03-03T12:00:28.000Z</time>
      </trkpt>
      <trkpt lat="44.16451" lon="6.08113">
        <ele>1374</ele>
        <time>2022-03-03T12:00:29.000Z</time>
      </trkpt>
      <trkpt lat="44.16451" lon="6.08113">
        <ele>1374</ele>
        <time>2022-03-03T12:00:30.000Z</time>
      </trkpt>
      <trkpt lat="44.16451" lon="6.08113">
        <ele>1374</ele>
        <time>2022-03-03T12:00:31.000Z</time>
      </trkpt>
      <trkpt lat="44.16451" lon="6.08113">
        <ele>1374</ele>
        <time>2022-03-03T12:00:32.000Z</time>
      </trkpt>
      <trkpt lat="44.16451" lon="6.08113">
        <ele>1374</ele>
        <time>2022-03-03T12:00:33.000Z</time>
      </trkpt>
      <trkpt lat="44.16451" lon="6.08113">
        <ele>1374</ele>
        <time>2022-03-03T12:00:34.000Z</time>
      </trkpt>
      <trkpt lat="44.16451" lon="6.08113">
        <ele>1374</ele>
        <time>2022-03-03T12:00:35.000Z</time>
      </trkpt>
      <trkpt lat="44.16451" lon="6.08113">
        <ele>1374</ele>
        <time>2022-03-03T12:00:36.000Z</time>
      </trkpt>
      <trkpt lat="44.16451" lon="6.08113">
        <ele>1374</ele>
        <time>2022-03-03T12:00:37.000Z</time>
      </trkpt>
      <trkpt lat="44.16451" lon="6.08113">
        <ele>1374</ele>
        <time>2022-03-03T12:00:38.000Z</time>
      </trkpt>
      <trkpt lat="44.16451" lon="6.08113">
        <ele>1374</ele>
        <time>2022-03-03T12:00:39.000Z</time>
      </trkpt>
      <trkpt lat="44.16451" lon="6.08113">
        <ele>1374</ele>
        <time>2022-03-03T12:00:40.000Z</time>
      </trkpt>
      <trkpt lat="44.16451" lon="6.08113">
        <ele>1374</ele>
        <time>2022-03-03T12:00:41.000Z</time>
      </trkpt>
      <trkpt lat="44.16451" lon="6.08113">
        <ele>1374</ele>
        <time>2022-03-03T12:00:42.000Z</time>
      </trkpt>
      <trkpt lat="44.16451" lon="6.08113">
        <ele>1374</ele>
        <time>2022-03-03T12:00:43.000Z</time>
      </trkpt>
      <trkpt lat="44.16451" lon="6.08113">
        <ele>1374</ele>
        <time>2022-03-03T12:00:44.000Z</time>
      </trkpt>
      <trkpt lat="44.16451" lon="6.08113">
        <ele>1374</ele>
        <time>2022-03-03T12:00:45.000Z</time>
      </trkpt>
      <trkpt lat="44.16451" lon="6.08113">
        <ele>1374</ele>
        <time>2022-03-03T12:00:46.000Z</time>
      </trkpt>
      <trkpt lat="44.16451" lon="6.08113">
        <ele>1374</ele>
        <time>2022-03-03T12:00:47.000Z</time>
      </trkpt>
      <trkpt lat="44.16451" lon="6.08113">
        <ele>1374</ele>
        <time>2022-03-03T12:00:48.000Z</time>
      </trkpt>
      <trkpt lat="44.16451" lon="6.08113">
        <ele>1374</ele>
        <time>2022-03-03T12:00:49.000Z</time>
      </trkpt>
      <trkpt lat="44.16451" lon="6.08113">
        <ele>1374</ele>
        <time>2022-03-03T12:00:50.000Z</time>
      </trkpt>
      <trkpt lat="44.16451" lon="6.08113">
        <ele>1374</ele>
        <time>2022-03-03T12:00:51.000Z</time>
      </trkpt>
      <trkpt lat="44.16451" lon="6.08113">
        <ele>1374</ele>
        <time>2022-03-03T12:00:52.000Z</time>
      </trkpt>
      <trkpt lat="44.16451" lon="6.08113">
        <ele>1374</ele>
        <time>2022-03-03T12:00:53.000Z</time>
      </trkpt>
      <trkpt lat="44.16451" lon="6.08113">
        <ele>1374</ele>
        <time>2022-03-03T12:00:54.000Z</time>
      </trkpt>
      <trkpt lat="44.16451" lon="6.08113">
        <ele>1374</ele>
        <time>2022-03-03T12:00:55.000Z</time>
      </trkpt>
      <trkpt lat="44.16451" lon="6.08113">
        <ele>1374</ele>
        <time>2022-03-03T12:00:56.000Z</time>
      </trkpt>
      <trkpt lat="44.16451" lon="6.08113">
        <ele>1374</ele>
        <time>2022-03-03T12:00:57.000Z</time>
      </trkpt>
      <trkpt lat="44.16451" lon="6.08113">
        <ele>1374</ele>
        <time>2022-03-03T12:00:58.000Z</time>
      </trkpt>
      <trkpt lat="44.16451" lon="6.08113">
        <ele>1374</ele>
        <time>2022-03-03T12:00:59.000Z</time>
      </trkpt>
      <trkpt lat="44.16451" lon="6.08113">
        <ele>1374</ele>
        <time>2022-03-03T12:01:00.000Z</time>
      </trkpt>
      <trkpt lat="44.16451" lon="6.08113">
        <ele>1374</ele>
        <time>2022-03-03T12:01:01.000Z</time>
      </trkpt>
      <trkpt lat="44.16451" lon="6.08113">
        <ele>1374</ele>
        <time>2022-03-03T12:01:02.000Z</time>
      </trkpt>
      <trkpt lat="44.16451" lon="6.08113">
        <ele>1374</ele>
        <time>2022-03-03T12:01:03.000Z</time>
      </trkpt>
      <trkpt lat="44.16451" lon="6.08113">
        <ele>1374</ele>
        <time>2022-03-03T12:01:04.000Z</time>
      </trkpt>
      <trkpt lat="44.16451" lon="6.08113">
        <ele>1374</ele>
        <time>2022-03-03T12:01:05.000Z</time>
      </trkpt>
      <trkpt lat="44.16451" lon="6.08113">
        <ele>1374</ele>
        <time>2022-03-03T12:01:06.000Z</time>
      </trkpt>
      <trkpt lat="44.16451" lon="6.08113">
        <ele>1374</ele>
        <time>2022-03-03T12:01:07.000Z</time>
      </trkpt>
      <trkpt lat="44.16451" lon="6.08114">
        <ele>1374</ele>
        <time>2022-03-03T12:01:08.000Z</time>
      </trkpt>
      <trkpt lat="44.16451" lon="6.08114">
        <ele>1374</ele>
        <time>2022-03-03T12:01:09.000Z</time>
      </trkpt>
      <trkpt lat="44.16452" lon="6.08114">
        <ele>1374</ele>
        <time>2022-03-03T12:01:10.000Z</time>
      </trkpt>
      <trkpt lat="44.16452" lon="6.08115">
        <ele>1374</ele>
        <time>2022-03-03T12:01:11.000Z</time>
      </trkpt>
      <trkpt lat="44.16452" lon="6.08115">
        <ele>1374</ele>
        <time>2022-03-03T12:01:12.000Z</time>
      </trkpt>
      <trkpt lat="44.16453" lon="6.08115">
        <ele>1374</ele>
        <time>2022-03-03T12:01:13.000Z</time>
      </trkpt>
      <trkpt lat="44.16453" lon="6.08115">
        <ele>1374</ele>
        <time>2022-03-03T12:01:14.000Z</time>
      </trkpt>
      <trkpt lat="44.16453" lon="6.08115">
        <ele>1374</ele>
        <time>2022-03-03T12:01:15.000Z</time>
      </trkpt>
      <trkpt lat="44.16453" lon="6.08116">
        <ele>1374</ele>
        <time>2022-03-03T12:01:16.000Z</time>
      </trkpt>
      <trkpt lat="44.16453" lon="6.08116">
        <ele>1374</ele>
        <time>2022-03-03T12:01:17.000Z</time>
      </trkpt>
      <trkpt lat="44.16454" lon="6.08116">
        <ele>1374</ele>
        <time>2022-03-03T12:01:18.000Z</time>
      </trkpt>
      <trkpt lat="44.16454" lon="6.08116">
        <ele>1375</ele>
        <time>2022-03-03T12:01:19.000Z</time>
      </trkpt>
      <trkpt lat="44.16454" lon="6.08116">
        <ele>1375</ele>
        <time>2022-03-03T12:01:20.000Z</time>
      </trkpt>
      <trkpt lat="44.16455" lon="6.08117">
        <ele>1375</ele>
        <time>2022-03-03T12:01:21.000Z</time>
      </trkpt>
      <trkpt lat="44.16455" lon="6.08117">
        <ele>1375</ele>
        <time>2022-03-03T12:01:22.000Z</time>
      </trkpt>
      <trkpt lat="44.16455" lon="6.08117">
        <ele>1375</ele>
        <time>2022-03-03T12:01:23.000Z</time>
      </trkpt>
      <trkpt lat="44.16456" lon="6.08117">
        <ele>1375</ele>
        <time>2022-03-03T12:01:24.000Z</time>
      </trkpt>
      <trkpt lat="44.16456" lon="6.08117">
        <ele>1375</ele>
        <time>2022-03-03T12:01:25.000Z</time>
      </trkpt>
      <trkpt lat="44.16456" lon="6.08117">
        <ele>1375</ele>
        <time>2022-03-03T12:01:26.000Z</time>
      </trkpt>
      <trkpt lat="44.16455" lon="6.08117">
        <ele>1375</ele>
        <time>2022-03-03T12:01:27.000Z</time>
      </trkpt>
      <trkpt lat="44.16455" lon="6.08117">
        <ele>1375</ele>
        <time>2022-03-03T12:01:28.000Z</time>
      </trkpt>
      <trkpt lat="44.16455" lon="6.08117">
        <ele>1375</ele>
        <time>2022-03-03T12:01:29.000Z</time>
      </trkpt>
      <trkpt lat="44.16456" lon="6.08117">
        <ele>1375</ele>
        <time>2022-03-03T12:01:30.000Z</time>
      </trkpt>
      <trkpt lat="44.16456" lon="6.08117">
        <ele>1375</ele>
        <time>2022-03-03T12:01:31.000Z</time>
      </trkpt>
      <trkpt lat="44.16456" lon="6.08118">
        <ele>1375</ele>
        <time>2022-03-03T12:01:32.000Z</time>
      </trkpt>
      <trkpt lat="44.16457" lon="6.08118">
        <ele>1376</ele>
        <time>2022-03-03T12:01:33.000Z</time>
      </trkpt>
      <trkpt lat="44.16457" lon="6.08119">
        <ele>1376</ele>
        <time>2022-03-03T12:01:34.000Z</time>
      </trkpt>
      <trkpt lat="44.16457" lon="6.08119">
        <ele>1376</ele>
        <time>2022-03-03T12:01:35.000Z</time>
      </trkpt>
      <trkpt lat="44.16458" lon="6.08119">
        <ele>1376</ele>
        <time>2022-03-03T12:01:36.000Z</time>
      </trkpt>
      <trkpt lat="44.16458" lon="6.08119">
        <ele>1376</ele>
        <time>2022-03-03T12:01:37.000Z</time>
      </trkpt>
      <trkpt lat="44.16458" lon="6.08119">
        <ele>1377</ele>
        <time>2022-03-03T12:01:38.000Z</time>
      </trkpt>
      <trkpt lat="44.16459" lon="6.0812">
        <ele>1377</ele>
        <time>2022-03-03T12:01:39.000Z</time>
      </trkpt>
      <trkpt lat="44.16459" lon="6.0812">
        <ele>1377</ele>
        <time>2022-03-03T12:01:40.000Z</time>
      </trkpt>
      <trkpt lat="44.16459" lon="6.0812">
        <ele>1377</ele>
        <time>2022-03-03T12:01:41.000Z</time>
      </trkpt>
      <trkpt lat="44.1646" lon="6.0812">
        <ele>1377</ele>
        <time>2022-03-03T12:01:42.000Z</time>
      </trkpt>
      <trkpt lat="44.1646" lon="6.08121">
        <ele>1377</ele>
        <time>2022-03-03T12:01:43.000Z</time>
      </trkpt>
      <trkpt lat="44.1646" lon="6.08121">
        <ele>1377</ele>
        <time>2022-03-03T12:01:44.000Z</time>
      </trkpt>
      <trkpt lat="44.16461" lon="6.08121">
        <ele>1377</ele>
        <time>2022-03-03T12:01:45.000Z</time>
      </trkpt>
      <trkpt lat="44.16461" lon="6.08122">
        <ele>1377</ele>
        <time>2022-03-03T12:01:46.000Z</time>
      </trkpt>
      <trkpt lat="44.16461" lon="6.08122">
        <ele>1378</ele>
        <time>2022-03-03T12:01:47.000Z</time>
      </trkpt>
      <trkpt lat="44.16462" lon="6.08122">
        <ele>1378</ele>
        <time>2022-03-03T12:01:48.000Z</time>
      </trkpt>
      <trkpt lat="44.16462" lon="6.08123">
        <ele>1378</ele>
        <time>2022-03-03T12:01:49.000Z</time>
      </trkpt>
      <trkpt lat="44.16462" lon="6.08123">
        <ele>1378</ele>
        <time>2022-03-03T12:01:50.000Z</time>
      </trkpt>
      <trkpt lat="44.16463" lon="6.08124">
        <ele>1378</ele>
        <time>2022-03-03T12:01:51.000Z</time>
      </trkpt>
      <trkpt lat="44.16463" lon="6.08124">
        <ele>1378</ele>
        <time>2022-03-03T12:01:52.000Z</time>
      </trkpt>
      <trkpt lat="44.16463" lon="6.08124">
        <ele>1379</ele>
        <time>2022-03-03T12:01:53.000Z</time>
      </trkpt>
      <trkpt lat="44.16464" lon="6.08125">
        <ele>1379</ele>
        <time>2022-03-03T12:01:54.000Z</time>
      </trkpt>
      <trkpt lat="44.16464" lon="6.08125">
        <ele>1379</ele>
        <time>2022-03-03T12:01:55.000Z</time>
      </trkpt>
      <trkpt lat="44.16465" lon="6.08125">
        <ele>1379</ele>
        <time>2022-03-03T12:01:56.000Z</time>
      </trkpt>
      <trkpt lat="44.16465" lon="6.08126">
        <ele>1379</ele>
        <time>2022-03-03T12:01:57.000Z</time>
      </trkpt>
      <trkpt lat="44.16465" lon="6.08126">
        <ele>1380</ele>
        <time>2022-03-03T12:01:58.000Z</time>
      </trkpt>
      <trkpt lat="44.16466" lon="6.08126">
        <ele>1380</ele>
        <time>2022-03-03T12:01:59.000Z</time>
      </trkpt>
      <trkpt lat="44.16466" lon="6.08127">
        <ele>1380</ele>
        <time>2022-03-03T12:02:00.000Z</time>
      </trkpt>
      <trkpt lat="44.16466" lon="6.08127">
        <ele>1380</ele>
        <time>2022-03-03T12:02:01.000Z</time>
      </trkpt>
      <trkpt lat="44.16466" lon="6.08127">
        <ele>1381</ele>
        <time>2022-03-03T12:02:02.000Z</time>
      </trkpt>
      <trkpt lat="44.16467" lon="6.08128">
        <ele>1381</ele>
        <time>2022-03-03T12:02:03.000Z</time>
      </trkpt>
      <trkpt lat="44.16467" lon="6.08128">
        <ele>1381</ele>
        <time>2022-03-03T12:02:04.000Z</time>
      </trkpt>
      <trkpt lat="44.16467" lon="6.08128">
        <ele>1381</ele>
        <time>2022-03-03T12:02:05.000Z</time>
      </trkpt>
      <trkpt lat="44.16468" lon="6.08129">
        <ele>1382</ele>
        <time>2022-03-03T12:02:06.000Z</time>
      </trkpt>
      <trkpt lat="44.16468" lon="6.08129">
        <ele>1382</ele>
        <time>2022-03-03T12:02:07.000Z</time>
      </trkpt>
      <trkpt lat="44.16468" lon="6.08129">
        <ele>1382</ele>
        <time>2022-03-03T12:02:08.000Z</time>
      </trkpt>
      <trkpt lat="44.16469" lon="6.0813">
        <ele>1382</ele>
        <time>2022-03-03T12:02:09.000Z</time>
      </trkpt>
      <trkpt lat="44.16469" lon="6.0813">
        <ele>1382</ele>
        <time>2022-03-03T12:02:10.000Z</time>
      </trkpt>
      <trkpt lat="44.16469" lon="6.0813">
        <ele>1382</ele>
        <time>2022-03-03T12:02:11.000Z</time>
      </trkpt>
      <trkpt lat="44.1647" lon="6.08131">
        <ele>1382</ele>
        <time>2022-03-03T12:02:12.000Z</time>
      </trkpt>
      <trkpt lat="44.1647" lon="6.08131">
        <ele>1382</ele>
        <time>2022-03-03T12:02:13.000Z</time>
      </trkpt>
      <trkpt lat="44.1647" lon="6.08132">
        <ele>1382</ele>
        <time>2022-03-03T12:02:14.000Z</time>
      </trkpt>
      <trkpt lat="44.16471" lon="6.08132">
        <ele>1382</ele>
        <time>2022-03-03T12:02:15.000Z</time>
      </trkpt>
      <trkpt lat="44.16471" lon="6.08132">
        <ele>1382</ele>
        <time>2022-03-03T12:02:16.000Z</time>
      </trkpt>
      <trkpt lat="44.16471" lon="6.08132">
        <ele>1383</ele>
        <time>2022-03-03T12:02:17.000Z</time>
      </trkpt>
      <trkpt lat="44.16472" lon="6.08133">
        <ele>1383</ele>
        <time>2022-03-03T12:02:18.000Z</time>
      </trkpt>
      <trkpt lat="44.16472" lon="6.08133">
        <ele>1383</ele>
        <time>2022-03-03T12:02:19.000Z</time>
      </trkpt>
      <trkpt lat="44.16472" lon="6.08133">
        <ele>1383</ele>
        <time>2022-03-03T12:02:20.000Z</time>
      </trkpt>
      <trkpt lat="44.16473" lon="6.08134">
        <ele>1383</ele>
        <time>2022-03-03T12:02:21.000Z</time>
      </trkpt>
      <trkpt lat="44.16473" lon="6.08134">
        <ele>1383</ele>
        <time>2022-03-03T12:02:22.000Z</time>
      </trkpt>
      <trkpt lat="44.16474" lon="6.08134">
        <ele>1383</ele>
        <time>2022-03-03T12:02:23.000Z</time>
      </trkpt>
      <trkpt lat="44.16474" lon="6.08135">
        <ele>1383</ele>
        <time>2022-03-03T12:02:24.000Z</time>
      </trkpt>
      <trkpt lat="44.16474" lon="6.08135">
        <ele>1384</ele>
        <time>2022-03-03T12:02:25.000Z</time>
      </trkpt>
      <trkpt lat="44.16475" lon="6.08135">
        <ele>1384</ele>
        <time>2022-03-03T12:02:26.000Z</time>
      </trkpt>
      <trkpt lat="44.16475" lon="6.08135">
        <ele>1384</ele>
        <time>2022-03-03T12:02:27.000Z</time>
      </trkpt>
      <trkpt lat="44.16475" lon="6.08136">
        <ele>1384</ele>
        <time>2022-03-03T12:02:28.000Z</time>
      </trkpt>
      <trkpt lat="44.16476" lon="6.08136">
        <ele>1384</ele>
        <time>2022-03-03T12:02:29.000Z</time>
      </trkpt>
      <trkpt lat="44.16476" lon="6.08136">
        <ele>1384</ele>
        <time>2022-03-03T12:02:30.000Z</time>
      </trkpt>
      <trkpt lat="44.16476" lon="6.08136">
        <ele>1384</ele>
        <time>2022-03-03T12:02:31.000Z</time>
      </trkpt>
      <trkpt lat="44.16476" lon="6.08137">
        <ele>1384</ele>
        <time>2022-03-03T12:02:32.000Z</time>
      </trkpt>
      <trkpt lat="44.16477" lon="6.08137">
        <ele>1384</ele>
        <time>2022-03-03T12:02:33.000Z</time>
      </trkpt>
      <trkpt lat="44.16477" lon="6.08137">
        <ele>1384</ele>
        <time>2022-03-03T12:02:34.000Z</time>
      </trkpt>
      <trkpt lat="44.16476" lon="6.08137">
        <ele>1384</ele>
        <time>2022-03-03T12:02:35.000Z</time>
      </trkpt>
      <trkpt lat="44.16476" lon="6.08137">
        <ele>1384</ele>
        <time>2022-03-03T12:02:36.000Z</time>
      </trkpt>
      <trkpt lat="44.16477" lon="6.08137">
        <ele>1384</ele>
        <time>2022-03-03T12:02:37.000Z</time>
      </trkpt>
      <trkpt lat="44.16477" lon="6.08137">
        <ele>1384</ele>
        <time>2022-03-03T12:02:38.000Z</time>
      </trkpt>
      <trkpt lat="44.16477" lon="6.08137">
        <ele>1384</ele>
        <time>2022-03-03T12:02:39.000Z</time>
      </trkpt>
      <trkpt lat="44.16476" lon="6.08137">
        <ele>1384</ele>
        <time>2022-03-03T12:02:40.000Z</time>
      </trkpt>
      <trkpt lat="44.16476" lon="6.08138">
        <ele>1384</ele>
        <time>2022-03-03T12:02:41.000Z</time>
      </trkpt>
      <trkpt lat="44.16476" lon="6.08138">
        <ele>1384</ele>
        <time>2022-03-03T12:02:42.000Z</time>
      </trkpt>
      <trkpt lat="44.16477" lon="6.08138">
        <ele>1384</ele>
        <time>2022-03-03T12:02:43.000Z</time>
      </trkpt>
      <trkpt lat="44.16477" lon="6.08138">
        <ele>1384</ele>
        <time>2022-03-03T12:02:44.000Z</time>
      </trkpt>
      <trkpt lat="44.16477" lon="6.08138">
        <ele>1384</ele>
        <time>2022-03-03T12:02:45.000Z</time>
      </trkpt>
      <trkpt lat="44.16477" lon="6.08138">
        <ele>1384</ele>
        <time>2022-03-03T12:02:46.000Z</time>
      </trkpt>
      <trkpt lat="44.16477" lon="6.08138">
        <ele>1384</ele>
        <time>2022-03-03T12:02:47.000Z</time>
      </trkpt>
      <trkpt lat="44.16477" lon="6.08138">
        <ele>1384</ele>
        <time>2022-03-03T12:02:48.000Z</time>
      </trkpt>
      <trkpt lat="44.16477" lon="6.08138">
        <ele>1384</ele>
        <time>2022-03-03T12:02:49.000Z</time>
      </trkpt>
      <trkpt lat="44.16477" lon="6.08138">
        <ele>1383</ele>
        <time>2022-03-03T12:02:50.000Z</time>
      </trkpt>
      <trkpt lat="44.16477" lon="6.08138">
        <ele>1383</ele>
        <time>2022-03-03T12:02:51.000Z</time>
      </trkpt>
      <trkpt lat="44.16477" lon="6.08138">
        <ele>1383</ele>
        <time>2022-03-03T12:02:52.000Z</time>
      </trkpt>
      <trkpt lat="44.16477" lon="6.08138">
        <ele>1383</ele>
        <time>2022-03-03T12:02:53.000Z</time>
      </trkpt>
      <trkpt lat="44.16477" lon="6.08138">
        <ele>1383</ele>
        <time>2022-03-03T12:02:54.000Z</time>
      </trkpt>
      <trkpt lat="44.16477" lon="6.08138">
        <ele>1383</ele>
        <time>2022-03-03T12:02:55.000Z</time>
      </trkpt>
      <trkpt lat="44.16477" lon="6.08138">
        <ele>1383</ele>
        <time>2022-03-03T12:02:56.000Z</time>
      </trkpt>
      <trkpt lat="44.16477" lon="6.08138">
        <ele>1383</ele>
        <time>2022-03-03T12:02:57.000Z</time>
      </trkpt>
      <trkpt lat="44.16477" lon="6.08138">
        <ele>1383</ele>
        <time>2022-03-03T12:02:58.000Z</time>
      </trkpt>
      <trkpt lat="44.16477" lon="6.08138">
        <ele>1383</ele>
        <time>2022-03-03T12:02:59.000Z</time>
      </trkpt>
      <trkpt lat="44.16477" lon="6.08138">
        <ele>1383</ele>
        <time>2022-03-03T12:03:00.000Z</time>
      </trkpt>
      <trkpt lat="44.16477" lon="6.08138">
        <ele>1383</ele>
        <time>2022-03-03T12:03:01.000Z</time>
      </trkpt>
      <trkpt lat="44.16477" lon="6.08138">
        <ele>1383</ele>
        <time>2022-03-03T12:03:02.000Z</time>
      </trkpt>
      <trkpt lat="44.16477" lon="6.08138">
        <ele>1383</ele>
        <time>2022-03-03T12:03:03.000Z</time>
      </trkpt>
      <trkpt lat="44.16477" lon="6.08138">
        <ele>1383</ele>
        <time>2022-03-03T12:03:04.000Z</time>
      </trkpt>
      <trkpt lat="44.16477" lon="6.08138">
        <ele>1383</ele>
        <time>2022-03-03T12:03:05.000Z</time>
      </trkpt>
      <trkpt lat="44.16477" lon="6.08138">
        <ele>1383</ele>
        <time>2022-03-03T12:03:06.000Z</time>
      </trkpt>
      <trkpt lat="44.16477" lon="6.08138">
        <ele>1383</ele>
        <time>2022-03-03T12:03:07.000Z</time>
      </trkpt>
      <trkpt lat="44.16477" lon="6.08138">
        <ele>1383</ele>
        <time>2022-03-03T12:03:08.000Z</time>
      </trkpt>
      <trkpt lat="44.16477" lon="6.08138">
        <ele>1383</ele>
        <time>2022-03-03T12:03:09.000Z</time>
      </trkpt>
      <trkpt lat="44.16477" lon="6.08138">
        <ele>1383</ele>
        <time>2022-03-03T12:03:10.000Z</time>
      </trkpt>
      <trkpt lat="44.16477" lon="6.08138">
        <ele>1383</ele>
        <time>2022-03-03T12:03:11.000Z</time>
      </trkpt>
      <trkpt lat="44.16477" lon="6.08138">
        <ele>1383</ele>
        <time>2022-03-03T12:03:12.000Z</time>
      </trkpt>
      <trkpt lat="44.16477" lon="6.08138">
        <ele>1383</ele>
        <time>2022-03-03T12:03:13.000Z</time>
      </trkpt>
      <trkpt lat="44.16477" lon="6.08139">
        <ele>1383</ele>
        <time>2022-03-03T12:03:14.000Z</time>
      </trkpt>
      <trkpt lat="44.16477" lon="6.08139">
        <ele>1383</ele>
        <time>2022-03-03T12:03:15.000Z</time>
      </trkpt>
      <trkpt lat="44.16477" lon="6.08139">
        <ele>1383</ele>
        <time>2022-03-03T12:03:16.000Z</time>
      </trkpt>
      <trkpt lat="44.16477" lon="6.08138">
        <ele>1383</ele>
        <time>2022-03-03T12:03:17.000Z</time>
      </trkpt>
      <trkpt lat="44.16477" lon="6.08138">
        <ele>1383</ele>
        <time>2022-03-03T12:03:18.000Z</time>
      </trkpt>
      <trkpt lat="44.16478" lon="6.08138">
        <ele>1384</ele>
        <time>2022-03-03T12:03:19.000Z</time>
      </trkpt>
      <trkpt lat="44.16478" lon="6.08139">
        <ele>1384</ele>
        <time>2022-03-03T12:03:20.000Z</time>
      </trkpt>
      <trkpt lat="44.16479" lon="6.08139">
        <ele>1384</ele>
        <time>2022-03-03T12:03:21.000Z</time>
      </trkpt>
      <trkpt lat="44.16479" lon="6.08139">
        <ele>1384</ele>
        <time>2022-03-03T12:03:22.000Z</time>
      </trkpt>
      <trkpt lat="44.1648" lon="6.08139">
        <ele>1384</ele>
        <time>2022-03-03T12:03:23.000Z</time>
      </trkpt>
      <trkpt lat="44.1648" lon="6.0814">
        <ele>1384</ele>
        <time>2022-03-03T12:03:24.000Z</time>
      </trkpt>
      <trkpt lat="44.16481" lon="6.0814">
        <ele>1384</ele>
        <time>2022-03-03T12:03:25.000Z</time>
      </trkpt>
      <trkpt lat="44.16481" lon="6.0814">
        <ele>1385</ele>
        <time>2022-03-03T12:03:26.000Z</time>
      </trkpt>
      <trkpt lat="44.16482" lon="6.0814">
        <ele>1385</ele>
        <time>2022-03-03T12:03:27.000Z</time>
      </trkpt>
      <trkpt lat="44.16482" lon="6.0814">
        <ele>1385</ele>
        <time>2022-03-03T12:03:28.000Z</time>
      </trkpt>
      <trkpt lat="44.16482" lon="6.08141">
        <ele>1385</ele>
        <time>2022-03-03T12:03:29.000Z</time>
      </trkpt>
      <trkpt lat="44.16482" lon="6.08141">
        <ele>1385</ele>
        <time>2022-03-03T12:03:30.000Z</time>
      </trkpt>
      <trkpt lat="44.16483" lon="6.08141">
        <ele>1385</ele>
        <time>2022-03-03T12:03:31.000Z</time>
      </trkpt>
      <trkpt lat="44.16483" lon="6.08141">
        <ele>1386</ele>
        <time>2022-03-03T12:03:32.000Z</time>
      </trkpt>
      <trkpt lat="44.16483" lon="6.08141">
        <ele>1386</ele>
        <time>2022-03-03T12:03:33.000Z</time>
      </trkpt>
      <trkpt lat="44.16484" lon="6.08141">
        <ele>1386</ele>
        <time>2022-03-03T12:03:34.000Z</time>
      </trkpt>
      <trkpt lat="44.16484" lon="6.08141">
        <ele>1386</ele>
        <time>2022-03-03T12:03:35.000Z</time>
      </trkpt>
      <trkpt lat="44.16484" lon="6.08141">
        <ele>1386</ele>
        <time>2022-03-03T12:03:36.000Z</time>
      </trkpt>
      <trkpt lat="44.16485" lon="6.08141">
        <ele>1387</ele>
        <time>2022-03-03T12:03:37.000Z</time>
      </trkpt>
      <trkpt lat="44.16485" lon="6.08141">
        <ele>1387</ele>
        <time>2022-03-03T12:03:38.000Z</time>
      </trkpt>
      <trkpt lat="44.16485" lon="6.08142">
        <ele>1387</ele>
        <time>2022-03-03T12:03:39.000Z</time>
      </trkpt>
      <trkpt lat="44.16486" lon="6.08142">
        <ele>1387</ele>
        <time>2022-03-03T12:03:40.000Z</time>
      </trkpt>
      <trkpt lat="44.16486" lon="6.08142">
        <ele>1387</ele>
        <time>2022-03-03T12:03:41.000Z</time>
      </trkpt>
      <trkpt lat="44.16487" lon="6.08142">
        <ele>1387</ele>
        <time>2022-03-03T12:03:42.000Z</time>
      </trkpt>
      <trkpt lat="44.16487" lon="6.08142">
        <ele>1388</ele>
        <time>2022-03-03T12:03:43.000Z</time>
      </trkpt>
      <trkpt lat="44.16487" lon="6.08143">
        <ele>1388</ele>
        <time>2022-03-03T12:03:44.000Z</time>
      </trkpt>
      <trkpt lat="44.16488" lon="6.08143">
        <ele>1388</ele>
        <time>2022-03-03T12:03:45.000Z</time>
      </trkpt>
      <trkpt lat="44.16488" lon="6.08143">
        <ele>1388</ele>
        <time>2022-03-03T12:03:46.000Z</time>
      </trkpt>
      <trkpt lat="44.16488" lon="6.08143">
        <ele>1388</ele>
        <time>2022-03-03T12:03:47.000Z</time>
      </trkpt>
      <trkpt lat="44.16488" lon="6.08143">
        <ele>1388</ele>
        <time>2022-03-03T12:03:48.000Z</time>
      </trkpt>
      <trkpt lat="44.16489" lon="6.08143">
        <ele>1388</ele>
        <time>2022-03-03T12:03:49.000Z</time>
      </trkpt>
      <trkpt lat="44.16489" lon="6.08143">
        <ele>1389</ele>
        <time>2022-03-03T12:03:50.000Z</time>
      </trkpt>
      <trkpt lat="44.16489" lon="6.08143">
        <ele>1389</ele>
        <time>2022-03-03T12:03:51.000Z</time>
      </trkpt>
      <trkpt lat="44.1649" lon="6.08143">
        <ele>1389</ele>
        <time>2022-03-03T12:03:52.000Z</time>
      </trkpt>
      <trkpt lat="44.1649" lon="6.08143">
        <ele>1389</ele>
        <time>2022-03-03T12:03:53.000Z</time>
      </trkpt>
      <trkpt lat="44.1649" lon="6.08142">
        <ele>1389</ele>
        <time>2022-03-03T12:03:54.000Z</time>
      </trkpt>
      <trkpt lat="44.1649" lon="6.08142">
        <ele>1389</ele>
        <time>2022-03-03T12:03:55.000Z</time>
      </trkpt>
      <trkpt lat="44.16491" lon="6.08142">
        <ele>1389</ele>
        <time>2022-03-03T12:03:56.000Z</time>
      </trkpt>
      <trkpt lat="44.16491" lon="6.08143">
        <ele>1390</ele>
        <time>2022-03-03T12:03:57.000Z</time>
      </trkpt>
      <trkpt lat="44.16492" lon="6.08143">
        <ele>1390</ele>
        <time>2022-03-03T12:03:58.000Z</time>
      </trkpt>
      <trkpt lat="44.16492" lon="6.08143">
        <ele>1390</ele>
        <time>2022-03-03T12:03:59.000Z</time>
      </trkpt>
      <trkpt lat="44.16493" lon="6.08143">
        <ele>1390</ele>
        <time>2022-03-03T12:04:00.000Z</time>
      </trkpt>
      <trkpt lat="44.16493" lon="6.08143">
        <ele>1390</ele>
        <time>2022-03-03T12:04:01.000Z</time>
      </trkpt>
      <trkpt lat="44.16493" lon="6.08143">
        <ele>1390</ele>
        <time>2022-03-03T12:04:02.000Z</time>
      </trkpt>
      <trkpt lat="44.16494" lon="6.08144">
        <ele>1390</ele>
        <time>2022-03-03T12:04:03.000Z</time>
      </trkpt>
      <trkpt lat="44.16494" lon="6.08144">
        <ele>1391</ele>
        <time>2022-03-03T12:04:04.000Z</time>
      </trkpt>
      <trkpt lat="44.16495" lon="6.08144">
        <ele>1391</ele>
        <time>2022-03-03T12:04:05.000Z</time>
      </trkpt>
      <trkpt lat="44.16495" lon="6.08144">
        <ele>1391</ele>
        <time>2022-03-03T12:04:06.000Z</time>
      </trkpt>
      <trkpt lat="44.16495" lon="6.08144">
        <ele>1391</ele>
        <time>2022-03-03T12:04:07.000Z</time>
      </trkpt>
      <trkpt lat="44.16496" lon="6.08144">
        <ele>1391</ele>
        <time>2022-03-03T12:04:08.000Z</time>
      </trkpt>
      <trkpt lat="44.16496" lon="6.08144">
        <ele>1392</ele>
        <time>2022-03-03T12:04:09.000Z</time>
      </trkpt>
      <trkpt lat="44.16496" lon="6.08144">
        <ele>1392</ele>
        <time>2022-03-03T12:04:10.000Z</time>
      </trkpt>
      <trkpt lat="44.16497" lon="6.08144">
        <ele>1392</ele>
        <time>2022-03-03T12:04:11.000Z</time>
      </trkpt>
      <trkpt lat="44.16497" lon="6.08144">
        <ele>1392</ele>
        <time>2022-03-03T12:04:12.000Z</time>
      </trkpt>
      <trkpt lat="44.16498" lon="6.08145">
        <ele>1392</ele>
        <time>2022-03-03T12:04:13.000Z</time>
      </trkpt>
      <trkpt lat="44.16499" lon="6.08145">
        <ele>1392</ele>
        <time>2022-03-03T12:04:14.000Z</time>
      </trkpt>
      <trkpt lat="44.16499" lon="6.08145">
        <ele>1393</ele>
        <time>2022-03-03T12:04:15.000Z</time>
      </trkpt>
      <trkpt lat="44.165" lon="6.08145">
        <ele>1393</ele>
        <time>2022-03-03T12:04:16.000Z</time>
      </trkpt>
      <trkpt lat="44.165" lon="6.08145">
        <ele>1393</ele>
        <time>2022-03-03T12:04:17.000Z</time>
      </trkpt>
      <trkpt lat="44.16501" lon="6.08146">
        <ele>1393</ele>
        <time>2022-03-03T12:04:18.000Z</time>
      </trkpt>
      <trkpt lat="44.16501" lon="6.08146">
        <ele>1393</ele>
        <time>2022-03-03T12:04:19.000Z</time>
      </trkpt>
      <trkpt lat="44.16502" lon="6.08146">
        <ele>1393</ele>
        <time>2022-03-03T12:04:20.000Z</time>
      </trkpt>
      <trkpt lat="44.16502" lon="6.08146">
        <ele>1393</ele>
        <time>2022-03-03T12:04:21.000Z</time>
      </trkpt>
      <trkpt lat="44.16503" lon="6.08147">
        <ele>1393</ele>
        <time>2022-03-03T12:04:22.000Z</time>
      </trkpt>
      <trkpt lat="44.16503" lon="6.08147">
        <ele>1393</ele>
        <time>2022-03-03T12:04:23.000Z</time>
      </trkpt>
      <trkpt lat="44.16504" lon="6.08147">
        <ele>1394</ele>
        <time>2022-03-03T12:04:24.000Z</time>
      </trkpt>
      <trkpt lat="44.16504" lon="6.08147">
        <ele>1394</ele>
        <time>2022-03-03T12:04:25.000Z</time>
      </trkpt>
      <trkpt lat="44.16505" lon="6.08147">
        <ele>1394</ele>
        <time>2022-03-03T12:04:26.000Z</time>
      </trkpt>
      <trkpt lat="44.16505" lon="6.08147">
        <ele>1394</ele>
        <time>2022-03-03T12:04:27.000Z</time>
      </trkpt>
      <trkpt lat="44.16506" lon="6.08147">
        <ele>1394</ele>
        <time>2022-03-03T12:04:28.000Z</time>
      </trkpt>
      <trkpt lat="44.16506" lon="6.08147">
        <ele>1394</ele>
        <time>2022-03-03T12:04:29.000Z</time>
      </trkpt>
      <trkpt lat="44.16506" lon="6.08147">
        <ele>1394</ele>
        <time>2022-03-03T12:04:30.000Z</time>
      </trkpt>
      <trkpt lat="44.16507" lon="6.08147">
        <ele>1394</ele>
        <time>2022-03-03T12:04:31.000Z</time>
      </trkpt>
      <trkpt lat="44.16507" lon="6.08147">
        <ele>1394</ele>
        <time>2022-03-03T12:04:32.000Z</time>
      </trkpt>
      <trkpt lat="44.16508" lon="6.08147">
        <ele>1395</ele>
        <time>2022-03-03T12:04:33.000Z</time>
      </trkpt>
      <trkpt lat="44.16508" lon="6.08147">
        <ele>1395</ele>
        <time>2022-03-03T12:04:34.000Z</time>
      </trkpt>
      <trkpt lat="44.16508" lon="6.08147">
        <ele>1395</ele>
        <time>2022-03-03T12:04:35.000Z</time>
      </trkpt>
      <trkpt lat="44.16508" lon="6.08147">
        <ele>1394</ele>
        <time>2022-03-03T12:04:36.000Z</time>
      </trkpt>
      <trkpt lat="44.16508" lon="6.08147">
        <ele>1394</ele>
        <time>2022-03-03T12:04:37.000Z</time>
      </trkpt>
      <trkpt lat="44.16508" lon="6.08147">
        <ele>1394</ele>
        <time>2022-03-03T12:04:38.000Z</time>
      </trkpt>
      <trkpt lat="44.16508" lon="6.08147">
        <ele>1394</ele>
        <time>2022-03-03T12:04:39.000Z</time>
      </trkpt>
      <trkpt lat="44.16508" lon="6.08147">
        <ele>1394</ele>
        <time>2022-03-03T12:04:40.000Z</time>
      </trkpt>
      <trkpt lat="44.16508" lon="6.08147">
        <ele>1394</ele>
        <time>2022-03-03T12:04:41.000Z</time>
      </trkpt>
      <trkpt lat="44.16508" lon="6.08147">
        <ele>1394</ele>
        <time>2022-03-03T12:04:42.000Z</time>
      </trkpt>
      <trkpt lat="44.16508" lon="6.08147">
        <ele>1394</ele>
        <time>2022-03-03T12:04:43.000Z</time>
      </trkpt>
      <trkpt lat="44.16508" lon="6.08147">
        <ele>1394</ele>
        <time>2022-03-03T12:04:44.000Z</time>
      </trkpt>
      <trkpt lat="44.16508" lon="6.08147">
        <ele>1394</ele>
        <time>2022-03-03T12:04:45.000Z</time>
      </trkpt>
      <trkpt lat="44.16508" lon="6.08147">
        <ele>1394</ele>
        <time>2022-03-03T12:04:46.000Z</time>
      </trkpt>
      <trkpt lat="44.16508" lon="6.08147">
        <ele>1394</ele>
        <time>2022-03-03T12:04:47.000Z</time>
      </trkpt>
      <trkpt lat="44.16508" lon="6.08147">
        <ele>1394</ele>
        <time>2022-03-03T12:04:48.000Z</time>
      </trkpt>
      <trkpt lat="44.16508" lon="6.08146">
        <ele>1394</ele>
        <time>2022-03-03T12:04:49.000Z</time>
      </trkpt>
      <trkpt lat="44.16508" lon="6.08146">
        <ele>1394</ele>
        <time>2022-03-03T12:04:50.000Z</time>
      </trkpt>
      <trkpt lat="44.16508" lon="6.08146">
        <ele>1394</ele>
        <time>2022-03-03T12:04:51.000Z</time>
      </trkpt>
      <trkpt lat="44.16508" lon="6.08146">
        <ele>1394</ele>
        <time>2022-03-03T12:04:52.000Z</time>
      </trkpt>
      <trkpt lat="44.16508" lon="6.08146">
        <ele>1394</ele>
        <time>2022-03-03T12:04:53.000Z</time>
      </trkpt>
      <trkpt lat="44.16508" lon="6.08146">
        <ele>1394</ele>
        <time>2022-03-03T12:04:54.000Z</time>
      </trkpt>
      <trkpt lat="44.16508" lon="6.08146">
        <ele>1394</ele>
        <time>2022-03-03T12:04:55.000Z</time>
      </trkpt>
      <trkpt lat="44.16508" lon="6.08146">
        <ele>1394</ele>
        <time>2022-03-03T12:04:56.000Z</time>
      </trkpt>
      <trkpt lat="44.16508" lon="6.08146">
        <ele>1394</ele>
        <time>2022-03-03T12:04:57.000Z</time>
      </trkpt>
      <trkpt lat="44.16508" lon="6.08146">
        <ele>1394</ele>
        <time>2022-03-03T12:04:58.000Z</time>
      </trkpt>
      <trkpt lat="44.16508" lon="6.08146">
        <ele>1394</ele>
        <time>2022-03-03T12:04:59.000Z</time>
      </trkpt>
      <trkpt lat="44.16508" lon="6.08146">
        <ele>1394</ele>
        <time>2022-03-03T12:05:00.000Z</time>
      </trkpt>
      <trkpt lat="44.16508" lon="6.08146">
        <ele>1394</ele>
        <time>2022-03-03T12:05:01.000Z</time>
      </trkpt>
      <trkpt lat="44.16508" lon="6.08146">
        <ele>1394</ele>
        <time>2022-03-03T12:05:02.000Z</time>
      </trkpt>
      <trkpt lat="44.16508" lon="6.08146">
        <ele>1394</ele>
        <time>2022-03-03T12:05:03.000Z</time>
      </trkpt>
      <trkpt lat="44.16508" lon="6.08146">
        <ele>1394</ele>
        <time>2022-03-03T12:05:04.000Z</time>
      </trkpt>
      <trkpt lat="44.16508" lon="6.08146">
        <ele>1394</ele>
        <time>2022-03-03T12:05:05.000Z</time>
      </trkpt>
      <trkpt lat="44.16508" lon="6.08146">
        <ele>1394</ele>
        <time>2022-03-03T12:05:06.000Z</time>
      </trkpt>
      <trkpt lat="44.16508" lon="6.08146">
        <ele>1394</ele>
        <time>2022-03-03T12:05:07.000Z</time>
      </trkpt>
      <trkpt lat="44.16508" lon="6.08146">
        <ele>1394</ele>
        <time>2022-03-03T12:05:08.000Z</time>
      </trkpt>
      <trkpt lat="44.16508" lon="6.08146">
        <ele>1394</ele>
        <time>2022-03-03T12:05:09.000Z</time>
      </trkpt>
      <trkpt lat="44.16508" lon="6.08146">
        <ele>1394</ele>
        <time>2022-03-03T12:05:10.000Z</time>
      </trkpt>
      <trkpt lat="44.16508" lon="6.08146">
        <ele>1394</ele>
        <time>2022-03-03T12:05:11.000Z</time>
      </trkpt>
      <trkpt lat="44.16508" lon="6.08146">
        <ele>1394</ele>
        <time>2022-03-03T12:05:12.000Z</time>
      </trkpt>
      <trkpt lat="44.16508" lon="6.08146">
        <ele>1394</ele>
        <time>2022-03-03T12:05:13.000Z</time>
      </trkpt>
      <trkpt lat="44.16508" lon="6.08146">
        <ele>1394</ele>
        <time>2022-03-03T12:05:14.000Z</time>
      </trkpt>
      <trkpt lat="44.16508" lon="6.08146">
        <ele>1394</ele>
        <time>2022-03-03T12:05:15.000Z</time>
      </trkpt>
      <trkpt lat="44.16508" lon="6.08146">
        <ele>1394</ele>
        <time>2022-03-03T12:05:16.000Z</time>
      </trkpt>
      <trkpt lat="44.16508" lon="6.08146">
        <ele>1394</ele>
        <time>2022-03-03T12:05:17.000Z</time>
      </trkpt>
      <trkpt lat="44.16508" lon="6.08146">
        <ele>1394</ele>
        <time>2022-03-03T12:05:18.000Z</time>
      </trkpt>
      <trkpt lat="44.16508" lon="6.08146">
        <ele>1394</ele>
        <time>2022-03-03T12:05:19.000Z</time>
      </trkpt>
      <trkpt lat="44.16508" lon="6.08146">
        <ele>1394</ele>
        <time>2022-03-03T12:05:20.000Z</time>
      </trkpt>
      <trkpt lat="44.16508" lon="6.08146">
        <ele>1394</ele>
        <time>2022-03-03T12:05:21.000Z</time>
      </trkpt>
      <trkpt lat="44.16509" lon="6.08146">
        <ele>1394</ele>
        <time>2022-03-03T12:05:22.000Z</time>
      </trkpt>
      <trkpt lat="44.16509" lon="6.08146">
        <ele>1394</ele>
        <time>2022-03-03T12:05:23.000Z</time>
      </trkpt>
      <trkpt lat="44.16509" lon="6.08146">
        <ele>1394</ele>
        <time>2022-03-03T12:05:24.000Z</time>
      </trkpt>
      <trkpt lat="44.16509" lon="6.08146">
        <ele>1394</ele>
        <time>2022-03-03T12:05:25.000Z</time>
      </trkpt>
      <trkpt lat="44.16509" lon="6.08146">
        <ele>1394</ele>
        <time>2022-03-03T12:05:26.000Z</time>
      </trkpt>
      <trkpt lat="44.16509" lon="6.08146">
        <ele>1394</ele>
        <time>2022-03-03T12:05:27.000Z</time>
      </trkpt>
      <trkpt lat="44.16509" lon="6.08147">
        <ele>1394</ele>
        <time>2022-03-03T12:05:28.000Z</time>
      </trkpt>
      <trkpt lat="44.1651" lon="6.08147">
        <ele>1394</ele>
        <time>2022-03-03T12:05:29.000Z</time>
      </trkpt>
      <trkpt lat="44.1651" lon="6.08147">
        <ele>1394</ele>
        <time>2022-03-03T12:05:30.000Z</time>
      </trkpt>
      <trkpt lat="44.16511" lon="6.08148">
        <ele>1395</ele>
        <time>2022-03-03T12:05:31.000Z</time>
      </trkpt>
      <trkpt lat="44.16512" lon="6.08148">
        <ele>1395</ele>
        <time>2022-03-03T12:05:32.000Z</time>
      </trkpt>
      <trkpt lat="44.16512" lon="6.08148">
        <ele>1395</ele>
        <time>2022-03-03T12:05:33.000Z</time>
      </trkpt>
      <trkpt lat="44.16513" lon="6.08148">
        <ele>1395</ele>
        <time>2022-03-03T12:05:34.000Z</time>
      </trkpt>
      <trkpt lat="44.16513" lon="6.08149">
        <ele>1396</ele>
        <time>2022-03-03T12:05:35.000Z</time>
      </trkpt>
      <trkpt lat="44.16514" lon="6.08149">
        <ele>1396</ele>
        <time>2022-03-03T12:05:36.000Z</time>
      </trkpt>
      <trkpt lat="44.16514" lon="6.0815">
        <ele>1396</ele>
        <time>2022-03-03T12:05:37.000Z</time>
      </trkpt>
      <trkpt lat="44.16515" lon="6.0815">
        <ele>1396</ele>
        <time>2022-03-03T12:05:38.000Z</time>
      </trkpt>
      <trkpt lat="44.16515" lon="6.0815">
        <ele>1397</ele>
        <time>2022-03-03T12:05:39.000Z</time>
      </trkpt>
      <trkpt lat="44.16516" lon="6.0815">
        <ele>1397</ele>
        <time>2022-03-03T12:05:40.000Z</time>
      </trkpt>
      <trkpt lat="44.16517" lon="6.08151">
        <ele>1397</ele>
        <time>2022-03-03T12:05:41.000Z</time>
      </trkpt>
      <trkpt lat="44.16517" lon="6.08151">
        <ele>1397</ele>
        <time>2022-03-03T12:05:42.000Z</time>
      </trkpt>
      <trkpt lat="44.16518" lon="6.08151">
        <ele>1397</ele>
        <time>2022-03-03T12:05:43.000Z</time>
      </trkpt>
      <trkpt lat="44.16518" lon="6.08151">
        <ele>1397</ele>
        <time>2022-03-03T12:05:44.000Z</time>
      </trkpt>
      <trkpt lat="44.16519" lon="6.08151">
        <ele>1398</ele>
        <time>2022-03-03T12:05:45.000Z</time>
      </trkpt>
      <trkpt lat="44.16519" lon="6.08152">
        <ele>1398</ele>
        <time>2022-03-03T12:05:46.000Z</time>
      </trkpt>
      <trkpt lat="44.1652" lon="6.08152">
        <ele>1398</ele>
        <time>2022-03-03T12:05:47.000Z</time>
      </trkpt>
      <trkpt lat="44.16521" lon="6.08152">
        <ele>1398</ele>
        <time>2022-03-03T12:05:48.000Z</time>
      </trkpt>
      <trkpt lat="44.16521" lon="6.08152">
        <ele>1398</ele>
        <time>2022-03-03T12:05:49.000Z</time>
      </trkpt>
      <trkpt lat="44.16522" lon="6.08152">
        <ele>1398</ele>
        <time>2022-03-03T12:05:50.000Z</time>
      </trkpt>
      <trkpt lat="44.16523" lon="6.08153">
        <ele>1399</ele>
        <time>2022-03-03T12:05:51.000Z</time>
      </trkpt>
      <trkpt lat="44.16523" lon="6.08153">
        <ele>1399</ele>
        <time>2022-03-03T12:05:52.000Z</time>
      </trkpt>
      <trkpt lat="44.16524" lon="6.08153">
        <ele>1399</ele>
        <time>2022-03-03T12:05:53.000Z</time>
      </trkpt>
      <trkpt lat="44.16525" lon="6.08153">
        <ele>1399</ele>
        <time>2022-03-03T12:05:54.000Z</time>
      </trkpt>
      <trkpt lat="44.16525" lon="6.08154">
        <ele>1399</ele>
        <time>2022-03-03T12:05:55.000Z</time>
      </trkpt>
      <trkpt lat="44.16526" lon="6.08154">
        <ele>1399</ele>
        <time>2022-03-03T12:05:56.000Z</time>
      </trkpt>
      <trkpt lat="44.16527" lon="6.08154">
        <ele>1400</ele>
        <time>2022-03-03T12:05:57.000Z</time>
      </trkpt>
      <trkpt lat="44.16528" lon="6.08154">
        <ele>1400</ele>
        <time>2022-03-03T12:05:58.000Z</time>
      </trkpt>
      <trkpt lat="44.16528" lon="6.08154">
        <ele>1400</ele>
        <time>2022-03-03T12:05:59.000Z</time>
      </trkpt>
      <trkpt lat="44.16529" lon="6.08154">
        <ele>1400</ele>
        <time>2022-03-03T12:06:00.000Z</time>
      </trkpt>
      <trkpt lat="44.1653" lon="6.08155">
        <ele>1400</ele>
        <time>2022-03-03T12:06:01.000Z</time>
      </trkpt>
      <trkpt lat="44.16531" lon="6.08155">
        <ele>1401</ele>
        <time>2022-03-03T12:06:02.000Z</time>
      </trkpt>
      <trkpt lat="44.16532" lon="6.08155">
        <ele>1401</ele>
        <time>2022-03-03T12:06:03.000Z</time>
      </trkpt>
      <trkpt lat="44.16532" lon="6.08156">
        <ele>1401</ele>
        <time>2022-03-03T12:06:04.000Z</time>
      </trkpt>
      <trkpt lat="44.16533" lon="6.08156">
        <ele>1401</ele>
        <time>2022-03-03T12:06:05.000Z</time>
      </trkpt>
      <trkpt lat="44.16534" lon="6.08156">
        <ele>1401</ele>
        <time>2022-03-03T12:06:06.000Z</time>
      </trkpt>
      <trkpt lat="44.16535" lon="6.08157">
        <ele>1402</ele>
        <time>2022-03-03T12:06:07.000Z</time>
      </trkpt>
      <trkpt lat="44.16535" lon="6.08158">
        <ele>1402</ele>
        <time>2022-03-03T12:06:08.000Z</time>
      </trkpt>
      <trkpt lat="44.16536" lon="6.08158">
        <ele>1402</ele>
        <time>2022-03-03T12:06:09.000Z</time>
      </trkpt>
      <trkpt lat="44.16537" lon="6.08159">
        <ele>1402</ele>
        <time>2022-03-03T12:06:10.000Z</time>
      </trkpt>
      <trkpt lat="44.16537" lon="6.08159">
        <ele>1402</ele>
        <time>2022-03-03T12:06:11.000Z</time>
      </trkpt>
      <trkpt lat="44.16538" lon="6.0816">
        <ele>1403</ele>
        <time>2022-03-03T12:06:12.000Z</time>
      </trkpt>
      <trkpt lat="44.16539" lon="6.08161">
        <ele>1403</ele>
        <time>2022-03-03T12:06:13.000Z</time>
      </trkpt>
      <trkpt lat="44.16539" lon="6.08161">
        <ele>1403</ele>
        <time>2022-03-03T12:06:14.000Z</time>
      </trkpt>
      <trkpt lat="44.1654" lon="6.08162">
        <ele>1403</ele>
        <time>2022-03-03T12:06:15.000Z</time>
      </trkpt>
      <trkpt lat="44.16541" lon="6.08163">
        <ele>1403</ele>
        <time>2022-03-03T12:06:16.000Z</time>
      </trkpt>
      <trkpt lat="44.16541" lon="6.08164">
        <ele>1403</ele>
        <time>2022-03-03T12:06:17.000Z</time>
      </trkpt>
      <trkpt lat="44.16542" lon="6.08164">
        <ele>1403</ele>
        <time>2022-03-03T12:06:18.000Z</time>
      </trkpt>
      <trkpt lat="44.16543" lon="6.08165">
        <ele>1403</ele>
        <time>2022-03-03T12:06:19.000Z</time>
      </trkpt>
      <trkpt lat="44.16543" lon="6.08165">
        <ele>1403</ele>
        <time>2022-03-03T12:06:20.000Z</time>
      </trkpt>
      <trkpt lat="44.16544" lon="6.08165">
        <ele>1403</ele>
        <time>2022-03-03T12:06:21.000Z</time>
      </trkpt>
      <trkpt lat="44.16545" lon="6.08166">
        <ele>1403</ele>
        <time>2022-03-03T12:06:22.000Z</time>
      </trkpt>
      <trkpt lat="44.16545" lon="6.08166">
        <ele>1403</ele>
        <time>2022-03-03T12:06:23.000Z</time>
      </trkpt>
      <trkpt lat="44.16546" lon="6.08167">
        <ele>1403</ele>
        <time>2022-03-03T12:06:24.000Z</time>
      </trkpt>
      <trkpt lat="44.16547" lon="6.08167">
        <ele>1403</ele>
        <time>2022-03-03T12:06:25.000Z</time>
      </trkpt>
      <trkpt lat="44.16548" lon="6.08168">
        <ele>1403</ele>
        <time>2022-03-03T12:06:26.000Z</time>
      </trkpt>
      <trkpt lat="44.16549" lon="6.08168">
        <ele>1403</ele>
        <time>2022-03-03T12:06:27.000Z</time>
      </trkpt>
      <trkpt lat="44.1655" lon="6.08168">
        <ele>1403</ele>
        <time>2022-03-03T12:06:28.000Z</time>
      </trkpt>
      <trkpt lat="44.16551" lon="6.08169">
        <ele>1403</ele>
        <time>2022-03-03T12:06:29.000Z</time>
      </trkpt>
      <trkpt lat="44.16551" lon="6.08169">
        <ele>1403</ele>
        <time>2022-03-03T12:06:30.000Z</time>
      </trkpt>
      <trkpt lat="44.16552" lon="6.0817">
        <ele>1403</ele>
        <time>2022-03-03T12:06:31.000Z</time>
      </trkpt>
      <trkpt lat="44.16553" lon="6.08171">
        <ele>1404</ele>
        <time>2022-03-03T12:06:32.000Z</time>
      </trkpt>
      <trkpt lat="44.16553" lon="6.08172">
        <ele>1404</ele>
        <time>2022-03-03T12:06:33.000Z</time>
      </trkpt>
      <trkpt lat="44.16553" lon="6.08172">
        <ele>1404</ele>
        <time>2022-03-03T12:06:34.000Z</time>
      </trkpt>
      <trkpt lat="44.16554" lon="6.08172">
        <ele>1404</ele>
        <time>2022-03-03T12:06:35.000Z</time>
      </trkpt>
      <trkpt lat="44.16553" lon="6.08172">
        <ele>1404</ele>
        <time>2022-03-03T12:06:36.000Z</time>
      </trkpt>
      <trkpt lat="44.16554" lon="6.08172">
        <ele>1404</ele>
        <time>2022-03-03T12:06:37.000Z</time>
      </trkpt>
      <trkpt lat="44.16554" lon="6.08172">
        <ele>1404</ele>
        <time>2022-03-03T12:06:38.000Z</time>
      </trkpt>
      <trkpt lat="44.16554" lon="6.08172">
        <ele>1404</ele>
        <time>2022-03-03T12:06:39.000Z</time>
      </trkpt>
      <trkpt lat="44.16555" lon="6.08172">
        <ele>1404</ele>
        <time>2022-03-03T12:06:40.000Z</time>
      </trkpt>
      <trkpt lat="44.16555" lon="6.08173">
        <ele>1404</ele>
        <time>2022-03-03T12:06:41.000Z</time>
      </trkpt>
      <trkpt lat="44.16555" lon="6.08173">
        <ele>1404</ele>
        <time>2022-03-03T12:06:42.000Z</time>
      </trkpt>
      <trkpt lat="44.16555" lon="6.08173">
        <ele>1404</ele>
        <time>2022-03-03T12:06:43.000Z</time>
      </trkpt>
      <trkpt lat="44.16555" lon="6.08173">
        <ele>1404</ele>
        <time>2022-03-03T12:06:44.000Z</time>
      </trkpt>
      <trkpt lat="44.16555" lon="6.08173">
        <ele>1404</ele>
        <time>2022-03-03T12:06:45.000Z</time>
      </trkpt>
      <trkpt lat="44.16555" lon="6.08173">
        <ele>1404</ele>
        <time>2022-03-03T12:06:46.000Z</time>
      </trkpt>
      <trkpt lat="44.16555" lon="6.08173">
        <ele>1404</ele>
        <time>2022-03-03T12:06:47.000Z</time>
      </trkpt>
      <trkpt lat="44.16556" lon="6.08173">
        <ele>1404</ele>
        <time>2022-03-03T12:06:48.000Z</time>
      </trkpt>
      <trkpt lat="44.16556" lon="6.08173">
        <ele>1404</ele>
        <time>2022-03-03T12:06:49.000Z</time>
      </trkpt>
      <trkpt lat="44.16556" lon="6.08173">
        <ele>1404</ele>
        <time>2022-03-03T12:06:50.000Z</time>
      </trkpt>
      <trkpt lat="44.16556" lon="6.08173">
        <ele>1404</ele>
        <time>2022-03-03T12:06:51.000Z</time>
      </trkpt>
      <trkpt lat="44.16556" lon="6.08173">
        <ele>1404</ele>
        <time>2022-03-03T12:06:52.000Z</time>
      </trkpt>
      <trkpt lat="44.16556" lon="6.08173">
        <ele>1404</ele>
        <time>2022-03-03T12:06:53.000Z</time>
      </trkpt>
      <trkpt lat="44.16556" lon="6.08173">
        <ele>1404</ele>
        <time>2022-03-03T12:06:54.000Z</time>
      </trkpt>
      <trkpt lat="44.16557" lon="6.08173">
        <ele>1404</ele>
        <time>2022-03-03T12:06:55.000Z</time>
      </trkpt>
      <trkpt lat="44.16557" lon="6.08173">
        <ele>1404</ele>
        <time>2022-03-03T12:06:56.000Z</time>
      </trkpt>
      <trkpt lat="44.16557" lon="6.08173">
        <ele>1404</ele>
        <time>2022-03-03T12:06:57.000Z</time>
      </trkpt>
      <trkpt lat="44.16557" lon="6.08172">
        <ele>1404</ele>
        <time>2022-03-03T12:06:58.000Z</time>
      </trkpt>
      <trkpt lat="44.16557" lon="6.08172">
        <ele>1404</ele>
        <time>2022-03-03T12:06:59.000Z</time>
      </trkpt>
      <trkpt lat="44.16557" lon="6.08172">
        <ele>1404</ele>
        <time>2022-03-03T12:07:00.000Z</time>
      </trkpt>
      <trkpt lat="44.16557" lon="6.08172">
        <ele>1404</ele>
        <time>2022-03-03T12:07:01.000Z</time>
      </trkpt>
      <trkpt lat="44.16557" lon="6.08172">
        <ele>1404</ele>
        <time>2022-03-03T12:07:02.000Z</time>
      </trkpt>
      <trkpt lat="44.16557" lon="6.08172">
        <ele>1404</ele>
        <time>2022-03-03T12:07:03.000Z</time>
      </trkpt>
      <trkpt lat="44.16557" lon="6.08172">
        <ele>1404</ele>
        <time>2022-03-03T12:07:04.000Z</time>
      </trkpt>
      <trkpt lat="44.16557" lon="6.08171">
        <ele>1404</ele>
        <time>2022-03-03T12:07:05.000Z</time>
      </trkpt>
      <trkpt lat="44.16557" lon="6.08171">
        <ele>1404</ele>
        <time>2022-03-03T12:07:06.000Z</time>
      </trkpt>
      <trkpt lat="44.16556" lon="6.08171">
        <ele>1404</ele>
        <time>2022-03-03T12:07:07.000Z</time>
      </trkpt>
      <trkpt lat="44.16556" lon="6.08171">
        <ele>1404</ele>
        <time>2022-03-03T12:07:08.000Z</time>
      </trkpt>
      <trkpt lat="44.16556" lon="6.08171">
        <ele>1404</ele>
        <time>2022-03-03T12:07:09.000Z</time>
      </trkpt>
      <trkpt lat="44.16557" lon="6.08171">
        <ele>1404</ele>
        <time>2022-03-03T12:07:10.000Z</time>
      </trkpt>
      <trkpt lat="44.16557" lon="6.08172">
        <ele>1404</ele>
        <time>2022-03-03T12:07:11.000Z</time>
      </trkpt>
      <trkpt lat="44.16558" lon="6.08172">
        <ele>1405</ele>
        <time>2022-03-03T12:07:12.000Z</time>
      </trkpt>
      <trkpt lat="44.16558" lon="6.08173">
        <ele>1405</ele>
        <time>2022-03-03T12:07:13.000Z</time>
      </trkpt>
      <trkpt lat="44.16558" lon="6.08173">
        <ele>1405</ele>
        <time>2022-03-03T12:07:14.000Z</time>
      </trkpt>
      <trkpt lat="44.16559" lon="6.08174">
        <ele>1405</ele>
        <time>2022-03-03T12:07:15.000Z</time>
      </trkpt>
      <trkpt lat="44.1656" lon="6.08175">
        <ele>1405</ele>
        <time>2022-03-03T12:07:16.000Z</time>
      </trkpt>
      <trkpt lat="44.16561" lon="6.08176">
        <ele>1405</ele>
        <time>2022-03-03T12:07:17.000Z</time>
      </trkpt>
      <trkpt lat="44.16561" lon="6.08176">
        <ele>1405</ele>
        <time>2022-03-03T12:07:18.000Z</time>
      </trkpt>
      <trkpt lat="44.16562" lon="6.08177">
        <ele>1405</ele>
        <time>2022-03-03T12:07:19.000Z</time>
      </trkpt>
      <trkpt lat="44.16563" lon="6.08177">
        <ele>1405</ele>
        <time>2022-03-03T12:07:20.000Z</time>
      </trkpt>
      <trkpt lat="44.16564" lon="6.08178">
        <ele>1405</ele>
        <time>2022-03-03T12:07:21.000Z</time>
      </trkpt>
      <trkpt lat="44.16564" lon="6.08178">
        <ele>1405</ele>
        <time>2022-03-03T12:07:22.000Z</time>
      </trkpt>
      <trkpt lat="44.16565" lon="6.08179">
        <ele>1405</ele>
        <time>2022-03-03T12:07:23.000Z</time>
      </trkpt>
      <trkpt lat="44.16566" lon="6.0818">
        <ele>1406</ele>
        <time>2022-03-03T12:07:24.000Z</time>
      </trkpt>
      <trkpt lat="44.16566" lon="6.0818">
        <ele>1406</ele>
        <time>2022-03-03T12:07:25.000Z</time>
      </trkpt>
      <trkpt lat="44.16567" lon="6.0818">
        <ele>1406</ele>
        <time>2022-03-03T12:07:26.000Z</time>
      </trkpt>
      <trkpt lat="44.16567" lon="6.08181">
        <ele>1406</ele>
        <time>2022-03-03T12:07:27.000Z</time>
      </trkpt>
      <trkpt lat="44.16568" lon="6.08181">
        <ele>1406</ele>
        <time>2022-03-03T12:07:28.000Z</time>
      </trkpt>
      <trkpt lat="44.16568" lon="6.08182">
        <ele>1406</ele>
        <time>2022-03-03T12:07:29.000Z</time>
      </trkpt>
      <trkpt lat="44.16569" lon="6.08182">
        <ele>1406</ele>
        <time>2022-03-03T12:07:30.000Z</time>
      </trkpt>
      <trkpt lat="44.16569" lon="6.08183">
        <ele>1406</ele>
        <time>2022-03-03T12:07:31.000Z</time>
      </trkpt>
      <trkpt lat="44.1657" lon="6.08184">
        <ele>1406</ele>
        <time>2022-03-03T12:07:32.000Z</time>
      </trkpt>
      <trkpt lat="44.16571" lon="6.08185">
        <ele>1406</ele>
        <time>2022-03-03T12:07:33.000Z</time>
      </trkpt>
      <trkpt lat="44.16571" lon="6.08185">
        <ele>1406</ele>
        <time>2022-03-03T12:07:34.000Z</time>
      </trkpt>
      <trkpt lat="44.16572" lon="6.08186">
        <ele>1406</ele>
        <time>2022-03-03T12:07:35.000Z</time>
      </trkpt>
      <trkpt lat="44.16573" lon="6.08187">
        <ele>1406</ele>
        <time>2022-03-03T12:07:36.000Z</time>
      </trkpt>
      <trkpt lat="44.16573" lon="6.08188">
        <ele>1406</ele>
        <time>2022-03-03T12:07:37.000Z</time>
      </trkpt>
      <trkpt lat="44.16574" lon="6.08189">
        <ele>1406</ele>
        <time>2022-03-03T12:07:38.000Z</time>
      </trkpt>
      <trkpt lat="44.16575" lon="6.0819">
        <ele>1406</ele>
        <time>2022-03-03T12:07:39.000Z</time>
      </trkpt>
      <trkpt lat="44.16576" lon="6.08191">
        <ele>1406</ele>
        <time>2022-03-03T12:07:40.000Z</time>
      </trkpt>
      <trkpt lat="44.16576" lon="6.08192">
        <ele>1406</ele>
        <time>2022-03-03T12:07:41.000Z</time>
      </trkpt>
      <trkpt lat="44.16577" lon="6.08193">
        <ele>1406</ele>
        <time>2022-03-03T12:07:42.000Z</time>
      </trkpt>
      <trkpt lat="44.16578" lon="6.08193">
        <ele>1406</ele>
        <time>2022-03-03T12:07:43.000Z</time>
      </trkpt>
      <trkpt lat="44.16579" lon="6.08194">
        <ele>1406</ele>
        <time>2022-03-03T12:07:44.000Z</time>
      </trkpt>
      <trkpt lat="44.1658" lon="6.08195">
        <ele>1406</ele>
        <time>2022-03-03T12:07:45.000Z</time>
      </trkpt>
      <trkpt lat="44.1658" lon="6.08196">
        <ele>1406</ele>
        <time>2022-03-03T12:07:46.000Z</time>
      </trkpt>
      <trkpt lat="44.16581" lon="6.08197">
        <ele>1406</ele>
        <time>2022-03-03T12:07:47.000Z</time>
      </trkpt>
      <trkpt lat="44.16582" lon="6.08198">
        <ele>1406</ele>
        <time>2022-03-03T12:07:48.000Z</time>
      </trkpt>
      <trkpt lat="44.16583" lon="6.08198">
        <ele>1406</ele>
        <time>2022-03-03T12:07:49.000Z</time>
      </trkpt>
      <trkpt lat="44.16584" lon="6.08199">
        <ele>1406</ele>
        <time>2022-03-03T12:07:50.000Z</time>
      </trkpt>
      <trkpt lat="44.16585" lon="6.082">
        <ele>1406</ele>
        <time>2022-03-03T12:07:51.000Z</time>
      </trkpt>
      <trkpt lat="44.16585" lon="6.08201">
        <ele>1406</ele>
        <time>2022-03-03T12:07:52.000Z</time>
      </trkpt>
      <trkpt lat="44.16586" lon="6.08201">
        <ele>1406</ele>
        <time>2022-03-03T12:07:53.000Z</time>
      </trkpt>
      <trkpt lat="44.16587" lon="6.08202">
        <ele>1406</ele>
        <time>2022-03-03T12:07:54.000Z</time>
      </trkpt>
      <trkpt lat="44.16588" lon="6.08203">
        <ele>1406</ele>
        <time>2022-03-03T12:07:55.000Z</time>
      </trkpt>
      <trkpt lat="44.16589" lon="6.08204">
        <ele>1406</ele>
        <time>2022-03-03T12:07:56.000Z</time>
      </trkpt>
      <trkpt lat="44.1659" lon="6.08205">
        <ele>1406</ele>
        <time>2022-03-03T12:07:57.000Z</time>
      </trkpt>
      <trkpt lat="44.16591" lon="6.08205">
        <ele>1406</ele>
        <time>2022-03-03T12:07:58.000Z</time>
      </trkpt>
      <trkpt lat="44.16592" lon="6.08206">
        <ele>1406</ele>
        <time>2022-03-03T12:07:59.000Z</time>
      </trkpt>
      <trkpt lat="44.16594" lon="6.08207">
        <ele>1406</ele>
        <time>2022-03-03T12:08:00.000Z</time>
      </trkpt>
      <trkpt lat="44.16595" lon="6.08208">
        <ele>1406</ele>
        <time>2022-03-03T12:08:01.000Z</time>
      </trkpt>
      <trkpt lat="44.16596" lon="6.08209">
        <ele>1406</ele>
        <time>2022-03-03T12:08:02.000Z</time>
      </trkpt>
      <trkpt lat="44.16597" lon="6.08209">
        <ele>1406</ele>
        <time>2022-03-03T12:08:03.000Z</time>
      </trkpt>
      <trkpt lat="44.16597" lon="6.0821">
        <ele>1406</ele>
        <time>2022-03-03T12:08:04.000Z</time>
      </trkpt>
      <trkpt lat="44.16598" lon="6.0821">
        <ele>1406</ele>
        <time>2022-03-03T12:08:05.000Z</time>
      </trkpt>
      <trkpt lat="44.16599" lon="6.0821">
        <ele>1406</ele>
        <time>2022-03-03T12:08:06.000Z</time>
      </trkpt>
      <trkpt lat="44.166" lon="6.08211">
        <ele>1406</ele>
        <time>2022-03-03T12:08:07.000Z</time>
      </trkpt>
      <trkpt lat="44.16601" lon="6.08211">
        <ele>1405</ele>
        <time>2022-03-03T12:08:08.000Z</time>
      </trkpt>
      <trkpt lat="44.16601" lon="6.08211">
        <ele>1405</ele>
        <time>2022-03-03T12:08:09.000Z</time>
      </trkpt>
      <trkpt lat="44.16601" lon="6.08212">
        <ele>1406</ele>
        <time>2022-03-03T12:08:10.000Z</time>
      </trkpt>
      <trkpt lat="44.16601" lon="6.08212">
        <ele>1406</ele>
        <time>2022-03-03T12:08:11.000Z</time>
      </trkpt>
      <trkpt lat="44.16602" lon="6.08212">
        <ele>1405</ele>
        <time>2022-03-03T12:08:12.000Z</time>
      </trkpt>
      <trkpt lat="44.16602" lon="6.08213">
        <ele>1405</ele>
        <time>2022-03-03T12:08:13.000Z</time>
      </trkpt>
      <trkpt lat="44.16603" lon="6.08214">
        <ele>1405</ele>
        <time>2022-03-03T12:08:14.000Z</time>
      </trkpt>
      <trkpt lat="44.16603" lon="6.08215">
        <ele>1405</ele>
        <time>2022-03-03T12:08:15.000Z</time>
      </trkpt>
      <trkpt lat="44.16604" lon="6.08216">
        <ele>1405</ele>
        <time>2022-03-03T12:08:16.000Z</time>
      </trkpt>
      <trkpt lat="44.16604" lon="6.08217">
        <ele>1405</ele>
        <time>2022-03-03T12:08:17.000Z</time>
      </trkpt>
      <trkpt lat="44.16605" lon="6.08218">
        <ele>1405</ele>
        <time>2022-03-03T12:08:18.000Z</time>
      </trkpt>
      <trkpt lat="44.16606" lon="6.0822">
        <ele>1404</ele>
        <time>2022-03-03T12:08:19.000Z</time>
      </trkpt>
      <trkpt lat="44.16607" lon="6.08221">
        <ele>1404</ele>
        <time>2022-03-03T12:08:20.000Z</time>
      </trkpt>
      <trkpt lat="44.16607" lon="6.08222">
        <ele>1404</ele>
        <time>2022-03-03T12:08:21.000Z</time>
      </trkpt>
      <trkpt lat="44.16608" lon="6.08223">
        <ele>1404</ele>
        <time>2022-03-03T12:08:22.000Z</time>
      </trkpt>
      <trkpt lat="44.16609" lon="6.08224">
        <ele>1404</ele>
        <time>2022-03-03T12:08:23.000Z</time>
      </trkpt>
      <trkpt lat="44.16609" lon="6.08224">
        <ele>1404</ele>
        <time>2022-03-03T12:08:24.000Z</time>
      </trkpt>
      <trkpt lat="44.16609" lon="6.08224">
        <ele>1404</ele>
        <time>2022-03-03T12:08:25.000Z</time>
      </trkpt>
      <trkpt lat="44.16609" lon="6.08224">
        <ele>1403</ele>
        <time>2022-03-03T12:08:26.000Z</time>
      </trkpt>
      <trkpt lat="44.16609" lon="6.08225">
        <ele>1403</ele>
        <time>2022-03-03T12:08:27.000Z</time>
      </trkpt>
      <trkpt lat="44.16609" lon="6.08225">
        <ele>1403</ele>
        <time>2022-03-03T12:08:28.000Z</time>
      </trkpt>
      <trkpt lat="44.16609" lon="6.08225">
        <ele>1403</ele>
        <time>2022-03-03T12:08:29.000Z</time>
      </trkpt>
      <trkpt lat="44.16609" lon="6.08225">
        <ele>1403</ele>
        <time>2022-03-03T12:08:30.000Z</time>
      </trkpt>
      <trkpt lat="44.16609" lon="6.08225">
        <ele>1403</ele>
        <time>2022-03-03T12:08:31.000Z</time>
      </trkpt>
      <trkpt lat="44.16609" lon="6.08225">
        <ele>1403</ele>
        <time>2022-03-03T12:08:32.000Z</time>
      </trkpt>
      <trkpt lat="44.16609" lon="6.08225">
        <ele>1403</ele>
        <time>2022-03-03T12:08:33.000Z</time>
      </trkpt>
      <trkpt lat="44.16609" lon="6.08225">
        <ele>1403</ele>
        <time>2022-03-03T12:08:34.000Z</time>
      </trkpt>
      <trkpt lat="44.16609" lon="6.08225">
        <ele>1403</ele>
        <time>2022-03-03T12:08:35.000Z</time>
      </trkpt>
      <trkpt lat="44.16609" lon="6.08225">
        <ele>1403</ele>
        <time>2022-03-03T12:08:36.000Z</time>
      </trkpt>
      <trkpt lat="44.1661" lon="6.08225">
        <ele>1403</ele>
        <time>2022-03-03T12:08:37.000Z</time>
      </trkpt>
      <trkpt lat="44.1661" lon="6.08226">
        <ele>1402</ele>
        <time>2022-03-03T12:08:38.000Z</time>
      </trkpt>
      <trkpt lat="44.1661" lon="6.08226">
        <ele>1402</ele>
        <time>2022-03-03T12:08:39.000Z</time>
      </trkpt>
      <trkpt lat="44.1661" lon="6.08226">
        <ele>1402</ele>
        <time>2022-03-03T12:08:40.000Z</time>
      </trkpt>
      <trkpt lat="44.1661" lon="6.08226">
        <ele>1402</ele>
        <time>2022-03-03T12:08:41.000Z</time>
      </trkpt>
      <trkpt lat="44.16611" lon="6.08226">
        <ele>1402</ele>
        <time>2022-03-03T12:08:42.000Z</time>
      </trkpt>
      <trkpt lat="44.16611" lon="6.08226">
        <ele>1402</ele>
        <time>2022-03-03T12:08:43.000Z</time>
      </trkpt>
      <trkpt lat="44.16611" lon="6.08226">
        <ele>1402</ele>
        <time>2022-03-03T12:08:44.000Z</time>
      </trkpt>
      <trkpt lat="44.16611" lon="6.08226">
        <ele>1402</ele>
        <time>2022-03-03T12:08:45.000Z</time>
      </trkpt>
      <trkpt lat="44.16611" lon="6.08226">
        <ele>1402</ele>
        <time>2022-03-03T12:08:46.000Z</time>
      </trkpt>
      <trkpt lat="44.16611" lon="6.08226">
        <ele>1402</ele>
        <time>2022-03-03T12:08:47.000Z</time>
      </trkpt>
      <trkpt lat="44.16611" lon="6.08226">
        <ele>1402</ele>
        <time>2022-03-03T12:08:48.000Z</time>
      </trkpt>
      <trkpt lat="44.16611" lon="6.08226">
        <ele>1402</ele>
        <time>2022-03-03T12:08:49.000Z</time>
      </trkpt>
      <trkpt lat="44.16611" lon="6.08226">
        <ele>1402</ele>
        <time>2022-03-03T12:08:50.000Z</time>
      </trkpt>
      <trkpt lat="44.16612" lon="6.08226">
        <ele>1402</ele>
        <time>2022-03-03T12:08:51.000Z</time>
      </trkpt>
      <trkpt lat="44.16612" lon="6.08227">
        <ele>1402</ele>
        <time>2022-03-03T12:08:52.000Z</time>
      </trkpt>
      <trkpt lat="44.16613" lon="6.08228">
        <ele>1402</ele>
        <time>2022-03-03T12:08:53.000Z</time>
      </trkpt>
      <trkpt lat="44.16613" lon="6.08229">
        <ele>1402</ele>
        <time>2022-03-03T12:08:54.000Z</time>
      </trkpt>
      <trkpt lat="44.16614" lon="6.08229">
        <ele>1402</ele>
        <time>2022-03-03T12:08:55.000Z</time>
      </trkpt>
      <trkpt lat="44.16614" lon="6.0823">
        <ele>1402</ele>
        <time>2022-03-03T12:08:56.000Z</time>
      </trkpt>
      <trkpt lat="44.16615" lon="6.08231">
        <ele>1402</ele>
        <time>2022-03-03T12:08:57.000Z</time>
      </trkpt>
      <trkpt lat="44.16615" lon="6.08231">
        <ele>1402</ele>
        <time>2022-03-03T12:08:58.000Z</time>
      </trkpt>
      <trkpt lat="44.16615" lon="6.08232">
        <ele>1402</ele>
        <time>2022-03-03T12:08:59.000Z</time>
      </trkpt>
      <trkpt lat="44.16616" lon="6.08233">
        <ele>1402</ele>
        <time>2022-03-03T12:09:00.000Z</time>
      </trkpt>
      <trkpt lat="44.16616" lon="6.08234">
        <ele>1402</ele>
        <time>2022-03-03T12:09:01.000Z</time>
      </trkpt>
      <trkpt lat="44.16617" lon="6.08234">
        <ele>1402</ele>
        <time>2022-03-03T12:09:02.000Z</time>
      </trkpt>
      <trkpt lat="44.16617" lon="6.08235">
        <ele>1402</ele>
        <time>2022-03-03T12:09:03.000Z</time>
      </trkpt>
      <trkpt lat="44.16617" lon="6.08235">
        <ele>1401</ele>
        <time>2022-03-03T12:09:04.000Z</time>
      </trkpt>
      <trkpt lat="44.16617" lon="6.08236">
        <ele>1402</ele>
        <time>2022-03-03T12:09:05.000Z</time>
      </trkpt>
      <trkpt lat="44.16618" lon="6.08236">
        <ele>1402</ele>
        <time>2022-03-03T12:09:06.000Z</time>
      </trkpt>
      <trkpt lat="44.16618" lon="6.08237">
        <ele>1402</ele>
        <time>2022-03-03T12:09:07.000Z</time>
      </trkpt>
      <trkpt lat="44.16619" lon="6.08238">
        <ele>1402</ele>
        <time>2022-03-03T12:09:08.000Z</time>
      </trkpt>
      <trkpt lat="44.1662" lon="6.08239">
        <ele>1402</ele>
        <time>2022-03-03T12:09:09.000Z</time>
      </trkpt>
      <trkpt lat="44.1662" lon="6.0824">
        <ele>1401</ele>
        <time>2022-03-03T12:09:10.000Z</time>
      </trkpt>
      <trkpt lat="44.16621" lon="6.08241">
        <ele>1401</ele>
        <time>2022-03-03T12:09:11.000Z</time>
      </trkpt>
      <trkpt lat="44.16621" lon="6.08242">
        <ele>1401</ele>
        <time>2022-03-03T12:09:12.000Z</time>
      </trkpt>
      <trkpt lat="44.16621" lon="6.08243">
        <ele>1401</ele>
        <time>2022-03-03T12:09:13.000Z</time>
      </trkpt>
      <trkpt lat="44.16621" lon="6.08245">
        <ele>1401</ele>
        <time>2022-03-03T12:09:14.000Z</time>
      </trkpt>
      <trkpt lat="44.16621" lon="6.08246">
        <ele>1401</ele>
        <time>2022-03-03T12:09:15.000Z</time>
      </trkpt>
      <trkpt lat="44.16622" lon="6.08247">
        <ele>1401</ele>
        <time>2022-03-03T12:09:16.000Z</time>
      </trkpt>
      <trkpt lat="44.16622" lon="6.08248">
        <ele>1401</ele>
        <time>2022-03-03T12:09:17.000Z</time>
      </trkpt>
      <trkpt lat="44.16623" lon="6.0825">
        <ele>1401</ele>
        <time>2022-03-03T12:09:18.000Z</time>
      </trkpt>
      <trkpt lat="44.16623" lon="6.08251">
        <ele>1400</ele>
        <time>2022-03-03T12:09:19.000Z</time>
      </trkpt>
      <trkpt lat="44.16624" lon="6.08252">
        <ele>1400</ele>
        <time>2022-03-03T12:09:20.000Z</time>
      </trkpt>
      <trkpt lat="44.16624" lon="6.08253">
        <ele>1400</ele>
        <time>2022-03-03T12:09:21.000Z</time>
      </trkpt>
      <trkpt lat="44.16625" lon="6.08254">
        <ele>1400</ele>
        <time>2022-03-03T12:09:22.000Z</time>
      </trkpt>
      <trkpt lat="44.16626" lon="6.08255">
        <ele>1400</ele>
        <time>2022-03-03T12:09:23.000Z</time>
      </trkpt>
      <trkpt lat="44.16626" lon="6.08256">
        <ele>1400</ele>
        <time>2022-03-03T12:09:24.000Z</time>
      </trkpt>
      <trkpt lat="44.16626" lon="6.08258">
        <ele>1400</ele>
        <time>2022-03-03T12:09:25.000Z</time>
      </trkpt>
      <trkpt lat="44.16627" lon="6.08259">
        <ele>1400</ele>
        <time>2022-03-03T12:09:26.000Z</time>
      </trkpt>
      <trkpt lat="44.16628" lon="6.0826">
        <ele>1399</ele>
        <time>2022-03-03T12:09:27.000Z</time>
      </trkpt>
      <trkpt lat="44.16628" lon="6.08262">
        <ele>1399</ele>
        <time>2022-03-03T12:09:28.000Z</time>
      </trkpt>
      <trkpt lat="44.16628" lon="6.08263">
        <ele>1399</ele>
        <time>2022-03-03T12:09:29.000Z</time>
      </trkpt>
      <trkpt lat="44.16629" lon="6.08264">
        <ele>1399</ele>
        <time>2022-03-03T12:09:30.000Z</time>
      </trkpt>
      <trkpt lat="44.16629" lon="6.08265">
        <ele>1399</ele>
        <time>2022-03-03T12:09:31.000Z</time>
      </trkpt>
      <trkpt lat="44.1663" lon="6.08266">
        <ele>1399</ele>
        <time>2022-03-03T12:09:32.000Z</time>
      </trkpt>
      <trkpt lat="44.16631" lon="6.08268">
        <ele>1399</ele>
        <time>2022-03-03T12:09:33.000Z</time>
      </trkpt>
      <trkpt lat="44.16631" lon="6.08269">
        <ele>1399</ele>
        <time>2022-03-03T12:09:34.000Z</time>
      </trkpt>
      <trkpt lat="44.16631" lon="6.0827">
        <ele>1399</ele>
        <time>2022-03-03T12:09:35.000Z</time>
      </trkpt>
      <trkpt lat="44.16632" lon="6.08271">
        <ele>1399</ele>
        <time>2022-03-03T12:09:36.000Z</time>
      </trkpt>
      <trkpt lat="44.16632" lon="6.08272">
        <ele>1399</ele>
        <time>2022-03-03T12:09:37.000Z</time>
      </trkpt>
      <trkpt lat="44.16633" lon="6.08274">
        <ele>1399</ele>
        <time>2022-03-03T12:09:38.000Z</time>
      </trkpt>
      <trkpt lat="44.16633" lon="6.08275">
        <ele>1399</ele>
        <time>2022-03-03T12:09:39.000Z</time>
      </trkpt>
      <trkpt lat="44.16634" lon="6.08275">
        <ele>1399</ele>
        <time>2022-03-03T12:09:40.000Z</time>
      </trkpt>
      <trkpt lat="44.16634" lon="6.08277">
        <ele>1399</ele>
        <time>2022-03-03T12:09:41.000Z</time>
      </trkpt>
      <trkpt lat="44.16635" lon="6.08278">
        <ele>1399</ele>
        <time>2022-03-03T12:09:42.000Z</time>
      </trkpt>
      <trkpt lat="44.16635" lon="6.08279">
        <ele>1398</ele>
        <time>2022-03-03T12:09:43.000Z</time>
      </trkpt>
      <trkpt lat="44.16636" lon="6.0828">
        <ele>1398</ele>
        <time>2022-03-03T12:09:44.000Z</time>
      </trkpt>
      <trkpt lat="44.16636" lon="6.08281">
        <ele>1398</ele>
        <time>2022-03-03T12:09:45.000Z</time>
      </trkpt>
      <trkpt lat="44.16636" lon="6.08282">
        <ele>1398</ele>
        <time>2022-03-03T12:09:46.000Z</time>
      </trkpt>
      <trkpt lat="44.16637" lon="6.08283">
        <ele>1398</ele>
        <time>2022-03-03T12:09:47.000Z</time>
      </trkpt>
      <trkpt lat="44.16637" lon="6.08284">
        <ele>1398</ele>
        <time>2022-03-03T12:09:48.000Z</time>
      </trkpt>
      <trkpt lat="44.16637" lon="6.08285">
        <ele>1398</ele>
        <time>2022-03-03T12:09:49.000Z</time>
      </trkpt>
      <trkpt lat="44.16637" lon="6.08285">
        <ele>1398</ele>
        <time>2022-03-03T12:09:50.000Z</time>
      </trkpt>
      <trkpt lat="44.16638" lon="6.08285">
        <ele>1398</ele>
        <time>2022-03-03T12:09:51.000Z</time>
      </trkpt>
      <trkpt lat="44.16638" lon="6.08285">
        <ele>1398</ele>
        <time>2022-03-03T12:09:52.000Z</time>
      </trkpt>
      <trkpt lat="44.16638" lon="6.08285">
        <ele>1398</ele>
        <time>2022-03-03T12:09:53.000Z</time>
      </trkpt>
      <trkpt lat="44.16638" lon="6.08285">
        <ele>1398</ele>
        <time>2022-03-03T12:09:54.000Z</time>
      </trkpt>
      <trkpt lat="44.16638" lon="6.08285">
        <ele>1398</ele>
        <time>2022-03-03T12:09:55.000Z</time>
      </trkpt>
      <trkpt lat="44.16638" lon="6.08285">
        <ele>1398</ele>
        <time>2022-03-03T12:09:56.000Z</time>
      </trkpt>
      <trkpt lat="44.16638" lon="6.08285">
        <ele>1398</ele>
        <time>2022-03-03T12:09:57.000Z</time>
      </trkpt>
      <trkpt lat="44.16638" lon="6.08286">
        <ele>1398</ele>
        <time>2022-03-03T12:09:58.000Z</time>
      </trkpt>
      <trkpt lat="44.16638" lon="6.08286">
        <ele>1398</ele>
        <time>2022-03-03T12:09:59.000Z</time>
      </trkpt>
      <trkpt lat="44.16638" lon="6.08286">
        <ele>1398</ele>
        <time>2022-03-03T12:10:00.000Z</time>
      </trkpt>
      <trkpt lat="44.16638" lon="6.08286">
        <ele>1398</ele>
        <time>2022-03-03T12:10:01.000Z</time>
      </trkpt>
      <trkpt lat="44.16638" lon="6.08286">
        <ele>1398</ele>
        <time>2022-03-03T12:10:02.000Z</time>
      </trkpt>
      <trkpt lat="44.16638" lon="6.08286">
        <ele>1398</ele>
        <time>2022-03-03T12:10:03.000Z</time>
      </trkpt>
      <trkpt lat="44.16637" lon="6.08286">
        <ele>1398</ele>
        <time>2022-03-03T12:10:04.000Z</time>
      </trkpt>
      <trkpt lat="44.16637" lon="6.08286">
        <ele>1398</ele>
        <time>2022-03-03T12:10:05.000Z</time>
      </trkpt>
      <trkpt lat="44.16637" lon="6.08285">
        <ele>1398</ele>
        <time>2022-03-03T12:10:06.000Z</time>
      </trkpt>
      <trkpt lat="44.16637" lon="6.08285">
        <ele>1398</ele>
        <time>2022-03-03T12:10:07.000Z</time>
      </trkpt>
      <trkpt lat="44.16637" lon="6.08286">
        <ele>1398</ele>
        <time>2022-03-03T12:10:08.000Z</time>
      </trkpt>
      <trkpt lat="44.16637" lon="6.08286">
        <ele>1398</ele>
        <time>2022-03-03T12:10:09.000Z</time>
      </trkpt>
      <trkpt lat="44.16637" lon="6.08286">
        <ele>1398</ele>
        <time>2022-03-03T12:10:10.000Z</time>
      </trkpt>
      <trkpt lat="44.16637" lon="6.08286">
        <ele>1398</ele>
        <time>2022-03-03T12:10:11.000Z</time>
      </trkpt>
      <trkpt lat="44.16637" lon="6.08286">
        <ele>1398</ele>
        <time>2022-03-03T12:10:12.000Z</time>
      </trkpt>
      <trkpt lat="44.16637" lon="6.08286">
        <ele>1398</ele>
        <time>2022-03-03T12:10:13.000Z</time>
      </trkpt>
      <trkpt lat="44.16637" lon="6.08286">
        <ele>1398</ele>
        <time>2022-03-03T12:10:14.000Z</time>
      </trkpt>
      <trkpt lat="44.16637" lon="6.08286">
        <ele>1398</ele>
        <time>2022-03-03T12:10:15.000Z</time>
      </trkpt>
      <trkpt lat="44.16638" lon="6.08286">
        <ele>1398</ele>
        <time>2022-03-03T12:10:16.000Z</time>
      </trkpt>
      <trkpt lat="44.16638" lon="6.08287">
        <ele>1398</ele>
        <time>2022-03-03T12:10:17.000Z</time>
      </trkpt>
      <trkpt lat="44.16638" lon="6.08288">
        <ele>1398</ele>
        <time>2022-03-03T12:10:18.000Z</time>
      </trkpt>
      <trkpt lat="44.16639" lon="6.08288">
        <ele>1398</ele>
        <time>2022-03-03T12:10:19.000Z</time>
      </trkpt>
      <trkpt lat="44.16639" lon="6.08289">
        <ele>1398</ele>
        <time>2022-03-03T12:10:20.000Z</time>
      </trkpt>
      <trkpt lat="44.1664" lon="6.0829">
        <ele>1398</ele>
        <time>2022-03-03T12:10:21.000Z</time>
      </trkpt>
      <trkpt lat="44.1664" lon="6.08291">
        <ele>1398</ele>
        <time>2022-03-03T12:10:22.000Z</time>
      </trkpt>
      <trkpt lat="44.16641" lon="6.08292">
        <ele>1398</ele>
        <time>2022-03-03T12:10:23.000Z</time>
      </trkpt>
      <trkpt lat="44.16641" lon="6.08292">
        <ele>1398</ele>
        <time>2022-03-03T12:10:24.000Z</time>
      </trkpt>
      <trkpt lat="44.16641" lon="6.08293">
        <ele>1398</ele>
        <time>2022-03-03T12:10:25.000Z</time>
      </trkpt>
      <trkpt lat="44.16642" lon="6.08294">
        <ele>1398</ele>
        <time>2022-03-03T12:10:26.000Z</time>
      </trkpt>
      <trkpt lat="44.16642" lon="6.08294">
        <ele>1398</ele>
        <time>2022-03-03T12:10:27.000Z</time>
      </trkpt>
      <trkpt lat="44.16643" lon="6.08295">
        <ele>1398</ele>
        <time>2022-03-03T12:10:28.000Z</time>
      </trkpt>
      <trkpt lat="44.16643" lon="6.08296">
        <ele>1398</ele>
        <time>2022-03-03T12:10:29.000Z</time>
      </trkpt>
      <trkpt lat="44.16644" lon="6.08297">
        <ele>1398</ele>
        <time>2022-03-03T12:10:30.000Z</time>
      </trkpt>
      <trkpt lat="44.16644" lon="6.08298">
        <ele>1399</ele>
        <time>2022-03-03T12:10:31.000Z</time>
      </trkpt>
      <trkpt lat="44.16645" lon="6.08298">
        <ele>1399</ele>
        <time>2022-03-03T12:10:32.000Z</time>
      </trkpt>
      <trkpt lat="44.16645" lon="6.08299">
        <ele>1399</ele>
        <time>2022-03-03T12:10:33.000Z</time>
      </trkpt>
      <trkpt lat="44.16645" lon="6.083">
        <ele>1399</ele>
        <time>2022-03-03T12:10:34.000Z</time>
      </trkpt>
      <trkpt lat="44.16645" lon="6.08301">
        <ele>1399</ele>
        <time>2022-03-03T12:10:35.000Z</time>
      </trkpt>
      <trkpt lat="44.16646" lon="6.08302">
        <ele>1399</ele>
        <time>2022-03-03T12:10:36.000Z</time>
      </trkpt>
      <trkpt lat="44.16646" lon="6.08302">
        <ele>1399</ele>
        <time>2022-03-03T12:10:37.000Z</time>
      </trkpt>
      <trkpt lat="44.16646" lon="6.08303">
        <ele>1399</ele>
        <time>2022-03-03T12:10:38.000Z</time>
      </trkpt>
      <trkpt lat="44.16647" lon="6.08304">
        <ele>1399</ele>
        <time>2022-03-03T12:10:39.000Z</time>
      </trkpt>
      <trkpt lat="44.16647" lon="6.08305">
        <ele>1399</ele>
        <time>2022-03-03T12:10:40.000Z</time>
      </trkpt>
      <trkpt lat="44.16647" lon="6.08305">
        <ele>1400</ele>
        <time>2022-03-03T12:10:41.000Z</time>
      </trkpt>
      <trkpt lat="44.16648" lon="6.08306">
        <ele>1400</ele>
        <time>2022-03-03T12:10:42.000Z</time>
      </trkpt>
      <trkpt lat="44.16648" lon="6.08307">
        <ele>1400</ele>
        <time>2022-03-03T12:10:43.000Z</time>
      </trkpt>
      <trkpt lat="44.16648" lon="6.08308">
        <ele>1400</ele>
        <time>2022-03-03T12:10:44.000Z</time>
      </trkpt>
      <trkpt lat="44.16648" lon="6.08309">
        <ele>1400</ele>
        <time>2022-03-03T12:10:45.000Z</time>
      </trkpt>
      <trkpt lat="44.16649" lon="6.0831">
        <ele>1400</ele>
        <time>2022-03-03T12:10:46.000Z</time>
      </trkpt>
      <trkpt lat="44.16649" lon="6.0831">
        <ele>1401</ele>
        <time>2022-03-03T12:10:47.000Z</time>
      </trkpt>
      <trkpt lat="44.16649" lon="6.08311">
        <ele>1401</ele>
        <time>2022-03-03T12:10:48.000Z</time>
      </trkpt>
      <trkpt lat="44.16649" lon="6.08312">
        <ele>1401</ele>
        <time>2022-03-03T12:10:49.000Z</time>
      </trkpt>
      <trkpt lat="44.1665" lon="6.08313">
        <ele>1401</ele>
        <time>2022-03-03T12:10:50.000Z</time>
      </trkpt>
      <trkpt lat="44.1665" lon="6.08313">
        <ele>1401</ele>
        <time>2022-03-03T12:10:51.000Z</time>
      </trkpt>
      <trkpt lat="44.1665" lon="6.08314">
        <ele>1402</ele>
        <time>2022-03-03T12:10:52.000Z</time>
      </trkpt>
      <trkpt lat="44.16651" lon="6.08315">
        <ele>1402</ele>
        <time>2022-03-03T12:10:53.000Z</time>
      </trkpt>
      <trkpt lat="44.16651" lon="6.08316">
        <ele>1402</ele>
        <time>2022-03-03T12:10:54.000Z</time>
      </trkpt>
      <trkpt lat="44.16651" lon="6.08317">
        <ele>1402</ele>
        <time>2022-03-03T12:10:55.000Z</time>
      </trkpt>
      <trkpt lat="44.16652" lon="6.08318">
        <ele>1402</ele>
        <time>2022-03-03T12:10:56.000Z</time>
      </trkpt>
      <trkpt lat="44.16652" lon="6.08319">
        <ele>1402</ele>
        <time>2022-03-03T12:10:57.000Z</time>
      </trkpt>
      <trkpt lat="44.16653" lon="6.0832">
        <ele>1402</ele>
        <time>2022-03-03T12:10:58.000Z</time>
      </trkpt>
      <trkpt lat="44.16653" lon="6.08321">
        <ele>1402</ele>
        <time>2022-03-03T12:10:59.000Z</time>
      </trkpt>
      <trkpt lat="44.16653" lon="6.08322">
        <ele>1402</ele>
        <time>2022-03-03T12:11:00.000Z</time>
      </trkpt>
      <trkpt lat="44.16653" lon="6.08322">
        <ele>1402</ele>
        <time>2022-03-03T12:11:01.000Z</time>
      </trkpt>
      <trkpt lat="44.16654" lon="6.08323">
        <ele>1402</ele>
        <time>2022-03-03T12:11:02.000Z</time>
      </trkpt>
      <trkpt lat="44.16654" lon="6.08324">
        <ele>1402</ele>
        <time>2022-03-03T12:11:03.000Z</time>
      </trkpt>
      <trkpt lat="44.16654" lon="6.08325">
        <ele>1402</ele>
        <time>2022-03-03T12:11:04.000Z</time>
      </trkpt>
      <trkpt lat="44.16654" lon="6.08326">
        <ele>1402</ele>
        <time>2022-03-03T12:11:05.000Z</time>
      </trkpt>
      <trkpt lat="44.16654" lon="6.08327">
        <ele>1402</ele>
        <time>2022-03-03T12:11:06.000Z</time>
      </trkpt>
      <trkpt lat="44.16654" lon="6.08328">
        <ele>1403</ele>
        <time>2022-03-03T12:11:07.000Z</time>
      </trkpt>
      <trkpt lat="44.16655" lon="6.08328">
        <ele>1403</ele>
        <time>2022-03-03T12:11:08.000Z</time>
      </trkpt>
      <trkpt lat="44.16655" lon="6.08329">
        <ele>1403</ele>
        <time>2022-03-03T12:11:09.000Z</time>
      </trkpt>
      <trkpt lat="44.16655" lon="6.0833">
        <ele>1403</ele>
        <time>2022-03-03T12:11:10.000Z</time>
      </trkpt>
      <trkpt lat="44.16655" lon="6.0833">
        <ele>1403</ele>
        <time>2022-03-03T12:11:11.000Z</time>
      </trkpt>
      <trkpt lat="44.16655" lon="6.08331">
        <ele>1404</ele>
        <time>2022-03-03T12:11:12.000Z</time>
      </trkpt>
      <trkpt lat="44.16655" lon="6.08332">
        <ele>1404</ele>
        <time>2022-03-03T12:11:13.000Z</time>
      </trkpt>
      <trkpt lat="44.16656" lon="6.08333">
        <ele>1404</ele>
        <time>2022-03-03T12:11:14.000Z</time>
      </trkpt>
      <trkpt lat="44.16656" lon="6.08333">
        <ele>1404</ele>
        <time>2022-03-03T12:11:15.000Z</time>
      </trkpt>
      <trkpt lat="44.16656" lon="6.08334">
        <ele>1404</ele>
        <time>2022-03-03T12:11:16.000Z</time>
      </trkpt>
      <trkpt lat="44.16656" lon="6.08334">
        <ele>1405</ele>
        <time>2022-03-03T12:11:17.000Z</time>
      </trkpt>
      <trkpt lat="44.16657" lon="6.08335">
        <ele>1405</ele>
        <time>2022-03-03T12:11:18.000Z</time>
      </trkpt>
      <trkpt lat="44.16657" lon="6.08335">
        <ele>1405</ele>
        <time>2022-03-03T12:11:19.000Z</time>
      </trkpt>
      <trkpt lat="44.16657" lon="6.08336">
        <ele>1406</ele>
        <time>2022-03-03T12:11:20.000Z</time>
      </trkpt>
      <trkpt lat="44.16658" lon="6.08337">
        <ele>1406</ele>
        <time>2022-03-03T12:11:21.000Z</time>
      </trkpt>
      <trkpt lat="44.16658" lon="6.08338">
        <ele>1406</ele>
        <time>2022-03-03T12:11:22.000Z</time>
      </trkpt>
      <trkpt lat="44.16658" lon="6.08338">
        <ele>1406</ele>
        <time>2022-03-03T12:11:23.000Z</time>
      </trkpt>
      <trkpt lat="44.16658" lon="6.08339">
        <ele>1406</ele>
        <time>2022-03-03T12:11:24.000Z</time>
      </trkpt>
      <trkpt lat="44.16658" lon="6.08339">
        <ele>1406</ele>
        <time>2022-03-03T12:11:25.000Z</time>
      </trkpt>
      <trkpt lat="44.16659" lon="6.0834">
        <ele>1406</ele>
        <time>2022-03-03T12:11:26.000Z</time>
      </trkpt>
      <trkpt lat="44.16659" lon="6.08341">
        <ele>1406</ele>
        <time>2022-03-03T12:11:27.000Z</time>
      </trkpt>
      <trkpt lat="44.16659" lon="6.08341">
        <ele>1407</ele>
        <time>2022-03-03T12:11:28.000Z</time>
      </trkpt>
      <trkpt lat="44.16659" lon="6.08342">
        <ele>1407</ele>
        <time>2022-03-03T12:11:29.000Z</time>
      </trkpt>
      <trkpt lat="44.16659" lon="6.08342">
        <ele>1407</ele>
        <time>2022-03-03T12:11:30.000Z</time>
      </trkpt>
      <trkpt lat="44.1666" lon="6.08343">
        <ele>1407</ele>
        <time>2022-03-03T12:11:31.000Z</time>
      </trkpt>
      <trkpt lat="44.1666" lon="6.08344">
        <ele>1407</ele>
        <time>2022-03-03T12:11:32.000Z</time>
      </trkpt>
      <trkpt lat="44.1666" lon="6.08345">
        <ele>1407</ele>
        <time>2022-03-03T12:11:33.000Z</time>
      </trkpt>
      <trkpt lat="44.1666" lon="6.08346">
        <ele>1407</ele>
        <time>2022-03-03T12:11:34.000Z</time>
      </trkpt>
      <trkpt lat="44.1666" lon="6.08346">
        <ele>1407</ele>
        <time>2022-03-03T12:11:35.000Z</time>
      </trkpt>
      <trkpt lat="44.16659" lon="6.08347">
        <ele>1408</ele>
        <time>2022-03-03T12:11:36.000Z</time>
      </trkpt>
      <trkpt lat="44.1666" lon="6.08348">
        <ele>1408</ele>
        <time>2022-03-03T12:11:37.000Z</time>
      </trkpt>
      <trkpt lat="44.1666" lon="6.08348">
        <ele>1408</ele>
        <time>2022-03-03T12:11:38.000Z</time>
      </trkpt>
      <trkpt lat="44.1666" lon="6.08349">
        <ele>1408</ele>
        <time>2022-03-03T12:11:39.000Z</time>
      </trkpt>
      <trkpt lat="44.1666" lon="6.0835">
        <ele>1408</ele>
        <time>2022-03-03T12:11:40.000Z</time>
      </trkpt>
      <trkpt lat="44.1666" lon="6.0835">
        <ele>1408</ele>
        <time>2022-03-03T12:11:41.000Z</time>
      </trkpt>
      <trkpt lat="44.1666" lon="6.08351">
        <ele>1409</ele>
        <time>2022-03-03T12:11:42.000Z</time>
      </trkpt>
      <trkpt lat="44.1666" lon="6.08352">
        <ele>1409</ele>
        <time>2022-03-03T12:11:43.000Z</time>
      </trkpt>
      <trkpt lat="44.16661" lon="6.08353">
        <ele>1409</ele>
        <time>2022-03-03T12:11:44.000Z</time>
      </trkpt>
      <trkpt lat="44.16661" lon="6.08353">
        <ele>1409</ele>
        <time>2022-03-03T12:11:45.000Z</time>
      </trkpt>
      <trkpt lat="44.16661" lon="6.08353">
        <ele>1409</ele>
        <time>2022-03-03T12:11:46.000Z</time>
      </trkpt>
      <trkpt lat="44.16661" lon="6.08353">
        <ele>1409</ele>
        <time>2022-03-03T12:11:47.000Z</time>
      </trkpt>
      <trkpt lat="44.16661" lon="6.08353">
        <ele>1409</ele>
        <time>2022-03-03T12:11:48.000Z</time>
      </trkpt>
      <trkpt lat="44.16661" lon="6.08353">
        <ele>1410</ele>
        <time>2022-03-03T12:11:49.000Z</time>
      </trkpt>
      <trkpt lat="44.16661" lon="6.08353">
        <ele>1410</ele>
        <time>2022-03-03T12:11:50.000Z</time>
      </trkpt>
      <trkpt lat="44.16661" lon="6.08353">
        <ele>1410</ele>
        <time>2022-03-03T12:11:51.000Z</time>
      </trkpt>
      <trkpt lat="44.16661" lon="6.08353">
        <ele>1410</ele>
        <time>2022-03-03T12:11:52.000Z</time>
      </trkpt>
      <trkpt lat="44.16661" lon="6.08353">
        <ele>1410</ele>
        <time>2022-03-03T12:11:53.000Z</time>
      </trkpt>
      <trkpt lat="44.16662" lon="6.08353">
        <ele>1410</ele>
        <time>2022-03-03T12:11:54.000Z</time>
      </trkpt>
      <trkpt lat="44.16662" lon="6.08353">
        <ele>1410</ele>
        <time>2022-03-03T12:11:55.000Z</time>
      </trkpt>
      <trkpt lat="44.16662" lon="6.08353">
        <ele>1410</ele>
        <time>2022-03-03T12:11:56.000Z</time>
      </trkpt>
      <trkpt lat="44.16662" lon="6.08353">
        <ele>1410</ele>
        <time>2022-03-03T12:11:57.000Z</time>
      </trkpt>
      <trkpt lat="44.16662" lon="6.08353">
        <ele>1410</ele>
        <time>2022-03-03T12:11:58.000Z</time>
      </trkpt>
      <trkpt lat="44.16662" lon="6.08353">
        <ele>1410</ele>
        <time>2022-03-03T12:11:59.000Z</time>
      </trkpt>
      <trkpt lat="44.16662" lon="6.08353">
        <ele>1410</ele>
        <time>2022-03-03T12:12:00.000Z</time>
      </trkpt>
      <trkpt lat="44.16662" lon="6.08353">
        <ele>1410</ele>
        <time>2022-03-03T12:12:01.000Z</time>
      </trkpt>
      <trkpt lat="44.16662" lon="6.08353">
        <ele>1410</ele>
        <time>2022-03-03T12:12:02.000Z</time>
      </trkpt>
      <trkpt lat="44.16662" lon="6.08353">
        <ele>1410</ele>
        <time>2022-03-03T12:12:03.000Z</time>
      </trkpt>
      <trkpt lat="44.16662" lon="6.08353">
        <ele>1410</ele>
        <time>2022-03-03T12:12:04.000Z</time>
      </trkpt>
      <trkpt lat="44.16662" lon="6.08353">
        <ele>1411</ele>
        <time>2022-03-03T12:12:05.000Z</time>
      </trkpt>
      <trkpt lat="44.16662" lon="6.08353">
        <ele>1411</ele>
        <time>2022-03-03T12:12:06.000Z</time>
      </trkpt>
      <trkpt lat="44.16662" lon="6.08353">
        <ele>1411</ele>
        <time>2022-03-03T12:12:07.000Z</time>
      </trkpt>
      <trkpt lat="44.16662" lon="6.08353">
        <ele>1411</ele>
        <time>2022-03-03T12:12:08.000Z</time>
      </trkpt>
      <trkpt lat="44.16662" lon="6.08353">
        <ele>1411</ele>
        <time>2022-03-03T12:12:09.000Z</time>
      </trkpt>
      <trkpt lat="44.16662" lon="6.08353">
        <ele>1411</ele>
        <time>2022-03-03T12:12:10.000Z</time>
      </trkpt>
      <trkpt lat="44.16662" lon="6.08353">
        <ele>1411</ele>
        <time>2022-03-03T12:12:11.000Z</time>
      </trkpt>
      <trkpt lat="44.16662" lon="6.08353">
        <ele>1411</ele>
        <time>2022-03-03T12:12:12.000Z</time>
      </trkpt>
      <trkpt lat="44.16662" lon="6.08353">
        <ele>1411</ele>
        <time>2022-03-03T12:12:13.000Z</time>
      </trkpt>
      <trkpt lat="44.16662" lon="6.08353">
        <ele>1411</ele>
        <time>2022-03-03T12:12:14.000Z</time>
      </trkpt>
      <trkpt lat="44.16662" lon="6.08353">
        <ele>1411</ele>
        <time>2022-03-03T12:12:15.000Z</time>
      </trkpt>
      <trkpt lat="44.16662" lon="6.08353">
        <ele>1411</ele>
        <time>2022-03-03T12:12:16.000Z</time>
      </trkpt>
      <trkpt lat="44.16662" lon="6.08353">
        <ele>1411</ele>
        <time>2022-03-03T12:12:17.000Z</time>
      </trkpt>
      <trkpt lat="44.16662" lon="6.08353">
        <ele>1411</ele>
        <time>2022-03-03T12:12:18.000Z</time>
      </trkpt>
      <trkpt lat="44.16662" lon="6.08353">
        <ele>1411</ele>
        <time>2022-03-03T12:12:19.000Z</time>
      </trkpt>
      <trkpt lat="44.16662" lon="6.08353">
        <ele>1411</ele>
        <time>2022-03-03T12:12:20.000Z</time>
      </trkpt>
      <trkpt lat="44.16662" lon="6.08353">
        <ele>1411</ele>
        <time>2022-03-03T12:12:21.000Z</time>
      </trkpt>
      <trkpt lat="44.16662" lon="6.08353">
        <ele>1411</ele>
        <time>2022-03-03T12:12:22.000Z</time>
      </trkpt>
      <trkpt lat="44.16662" lon="6.08353">
        <ele>1411</ele>
        <time>2022-03-03T12:12:23.000Z</time>
      </trkpt>
      <trkpt lat="44.16662" lon="6.08353">
        <ele>1411</ele>
        <time>2022-03-03T12:12:24.000Z</time>
      </trkpt>
      <trkpt lat="44.16662" lon="6.08353">
        <ele>1411</ele>
        <time>2022-03-03T12:12:25.000Z</time>
      </trkpt>
      <trkpt lat="44.16662" lon="6.08353">
        <ele>1411</ele>
        <time>2022-03-03T12:12:26.000Z</time>
      </trkpt>
      <trkpt lat="44.16662" lon="6.08353">
        <ele>1411</ele>
        <time>2022-03-03T12:12:27.000Z</time>
      </trkpt>
      <trkpt lat="44.16662" lon="6.08353">
        <ele>1411</ele>
        <time>2022-03-03T12:12:28.000Z</time>
      </trkpt>
      <trkpt lat="44.16662" lon="6.08353">
        <ele>1411</ele>
        <time>2022-03-03T12:12:29.000Z</time>
      </trkpt>
      <trkpt lat="44.16662" lon="6.08353">
        <ele>1411</ele>
        <time>2022-03-03T12:12:30.000Z</time>
      </trkpt>
      <trkpt lat="44.16662" lon="6.08353">
        <ele>1411</ele>
        <time>2022-03-03T12:12:31.000Z</time>
      </trkpt>
      <trkpt lat="44.16662" lon="6.08353">
        <ele>1411</ele>
        <time>2022-03-03T12:12:32.000Z</time>
      </trkpt>
      <trkpt lat="44.16662" lon="6.08353">
        <ele>1411</ele>
        <time>2022-03-03T12:12:33.000Z</time>
      </trkpt>
      <trkpt lat="44.16662" lon="6.08353">
        <ele>1411</ele>
        <time>2022-03-03T12:12:34.000Z</time>
      </trkpt>
      <trkpt lat="44.16662" lon="6.08353">
        <ele>1411</ele>
        <time>2022-03-03T12:12:35.000Z</time>
      </trkpt>
      <trkpt lat="44.16662" lon="6.08353">
        <ele>1411</ele>
        <time>2022-03-03T12:12:36.000Z</time>
      </trkpt>
      <trkpt lat="44.16662" lon="6.08353">
        <ele>1411</ele>
        <time>2022-03-03T12:12:37.000Z</time>
      </trkpt>
      <trkpt lat="44.16662" lon="6.08352">
        <ele>1411</ele>
        <time>2022-03-03T12:12:38.000Z</time>
      </trkpt>
      <trkpt lat="44.16662" lon="6.08352">
        <ele>1411</ele>
        <time>2022-03-03T12:12:39.000Z</time>
      </trkpt>
      <trkpt lat="44.16662" lon="6.08352">
        <ele>1411</ele>
        <time>2022-03-03T12:12:40.000Z</time>
      </trkpt>
      <trkpt lat="44.16662" lon="6.08352">
        <ele>1411</ele>
        <time>2022-03-03T12:12:41.000Z</time>
      </trkpt>
      <trkpt lat="44.16662" lon="6.08353">
        <ele>1412</ele>
        <time>2022-03-03T12:12:42.000Z</time>
      </trkpt>
      <trkpt lat="44.16662" lon="6.08353">
        <ele>1412</ele>
        <time>2022-03-03T12:12:43.000Z</time>
      </trkpt>
      <trkpt lat="44.16663" lon="6.08354">
        <ele>1412</ele>
        <time>2022-03-03T12:12:44.000Z</time>
      </trkpt>
      <trkpt lat="44.16663" lon="6.08355">
        <ele>1412</ele>
        <time>2022-03-03T12:12:45.000Z</time>
      </trkpt>
      <trkpt lat="44.16664" lon="6.08356">
        <ele>1412</ele>
        <time>2022-03-03T12:12:46.000Z</time>
      </trkpt>
      <trkpt lat="44.16664" lon="6.08357">
        <ele>1412</ele>
        <time>2022-03-03T12:12:47.000Z</time>
      </trkpt>
      <trkpt lat="44.16664" lon="6.08357">
        <ele>1412</ele>
        <time>2022-03-03T12:12:48.000Z</time>
      </trkpt>
      <trkpt lat="44.16664" lon="6.08358">
        <ele>1412</ele>
        <time>2022-03-03T12:12:49.000Z</time>
      </trkpt>
      <trkpt lat="44.16664" lon="6.08359">
        <ele>1412</ele>
        <time>2022-03-03T12:12:50.000Z</time>
      </trkpt>
      <trkpt lat="44.16664" lon="6.08359">
        <ele>1412</ele>
        <time>2022-03-03T12:12:51.000Z</time>
      </trkpt>
      <trkpt lat="44.16664" lon="6.0836">
        <ele>1412</ele>
        <time>2022-03-03T12:12:52.000Z</time>
      </trkpt>
      <trkpt lat="44.16664" lon="6.08361">
        <ele>1412</ele>
        <time>2022-03-03T12:12:53.000Z</time>
      </trkpt>
      <trkpt lat="44.16664" lon="6.08361">
        <ele>1412</ele>
        <time>2022-03-03T12:12:54.000Z</time>
      </trkpt>
      <trkpt lat="44.16664" lon="6.08362">
        <ele>1412</ele>
        <time>2022-03-03T12:12:55.000Z</time>
      </trkpt>
      <trkpt lat="44.16664" lon="6.08363">
        <ele>1412</ele>
        <time>2022-03-03T12:12:56.000Z</time>
      </trkpt>
      <trkpt lat="44.16663" lon="6.08364">
        <ele>1412</ele>
        <time>2022-03-03T12:12:57.000Z</time>
      </trkpt>
      <trkpt lat="44.16664" lon="6.08365">
        <ele>1412</ele>
        <time>2022-03-03T12:12:58.000Z</time>
      </trkpt>
      <trkpt lat="44.16664" lon="6.08366">
        <ele>1412</ele>
        <time>2022-03-03T12:12:59.000Z</time>
      </trkpt>
      <trkpt lat="44.16664" lon="6.08367">
        <ele>1412</ele>
        <time>2022-03-03T12:13:00.000Z</time>
      </trkpt>
      <trkpt lat="44.16664" lon="6.08367">
        <ele>1412</ele>
        <time>2022-03-03T12:13:01.000Z</time>
      </trkpt>
      <trkpt lat="44.16664" lon="6.08368">
        <ele>1412</ele>
        <time>2022-03-03T12:13:02.000Z</time>
      </trkpt>
      <trkpt lat="44.16664" lon="6.08369">
        <ele>1412</ele>
        <time>2022-03-03T12:13:03.000Z</time>
      </trkpt>
      <trkpt lat="44.16664" lon="6.0837">
        <ele>1412</ele>
        <time>2022-03-03T12:13:04.000Z</time>
      </trkpt>
      <trkpt lat="44.16665" lon="6.08371">
        <ele>1413</ele>
        <time>2022-03-03T12:13:05.000Z</time>
      </trkpt>
      <trkpt lat="44.16665" lon="6.08371">
        <ele>1413</ele>
        <time>2022-03-03T12:13:06.000Z</time>
      </trkpt>
      <trkpt lat="44.16665" lon="6.08373">
        <ele>1413</ele>
        <time>2022-03-03T12:13:07.000Z</time>
      </trkpt>
      <trkpt lat="44.16665" lon="6.08373">
        <ele>1413</ele>
        <time>2022-03-03T12:13:08.000Z</time>
      </trkpt>
      <trkpt lat="44.16665" lon="6.08374">
        <ele>1413</ele>
        <time>2022-03-03T12:13:09.000Z</time>
      </trkpt>
      <trkpt lat="44.16665" lon="6.08375">
        <ele>1414</ele>
        <time>2022-03-03T12:13:10.000Z</time>
      </trkpt>
      <trkpt lat="44.16665" lon="6.08375">
        <ele>1414</ele>
        <time>2022-03-03T12:13:11.000Z</time>
      </trkpt>
      <trkpt lat="44.16665" lon="6.08376">
        <ele>1414</ele>
        <time>2022-03-03T12:13:12.000Z</time>
      </trkpt>
      <trkpt lat="44.16665" lon="6.08376">
        <ele>1414</ele>
        <time>2022-03-03T12:13:13.000Z</time>
      </trkpt>
      <trkpt lat="44.16666" lon="6.08377">
        <ele>1415</ele>
        <time>2022-03-03T12:13:14.000Z</time>
      </trkpt>
      <trkpt lat="44.16666" lon="6.08378">
        <ele>1415</ele>
        <time>2022-03-03T12:13:15.000Z</time>
      </trkpt>
      <trkpt lat="44.16666" lon="6.08379">
        <ele>1415</ele>
        <time>2022-03-03T12:13:16.000Z</time>
      </trkpt>
      <trkpt lat="44.16666" lon="6.08379">
        <ele>1415</ele>
        <time>2022-03-03T12:13:17.000Z</time>
      </trkpt>
      <trkpt lat="44.16666" lon="6.0838">
        <ele>1415</ele>
        <time>2022-03-03T12:13:18.000Z</time>
      </trkpt>
      <trkpt lat="44.16667" lon="6.08381">
        <ele>1416</ele>
        <time>2022-03-03T12:13:19.000Z</time>
      </trkpt>
      <trkpt lat="44.16667" lon="6.08382">
        <ele>1416</ele>
        <time>2022-03-03T12:13:20.000Z</time>
      </trkpt>
      <trkpt lat="44.16667" lon="6.08382">
        <ele>1416</ele>
        <time>2022-03-03T12:13:21.000Z</time>
      </trkpt>
      <trkpt lat="44.16667" lon="6.08383">
        <ele>1416</ele>
        <time>2022-03-03T12:13:22.000Z</time>
      </trkpt>
      <trkpt lat="44.16667" lon="6.08383">
        <ele>1416</ele>
        <time>2022-03-03T12:13:23.000Z</time>
      </trkpt>
      <trkpt lat="44.16667" lon="6.08384">
        <ele>1417</ele>
        <time>2022-03-03T12:13:24.000Z</time>
      </trkpt>
      <trkpt lat="44.16667" lon="6.08385">
        <ele>1417</ele>
        <time>2022-03-03T12:13:25.000Z</time>
      </trkpt>
      <trkpt lat="44.16667" lon="6.08386">
        <ele>1417</ele>
        <time>2022-03-03T12:13:26.000Z</time>
      </trkpt>
      <trkpt lat="44.16668" lon="6.08386">
        <ele>1417</ele>
        <time>2022-03-03T12:13:27.000Z</time>
      </trkpt>
      <trkpt lat="44.16668" lon="6.08387">
        <ele>1418</ele>
        <time>2022-03-03T12:13:28.000Z</time>
      </trkpt>
      <trkpt lat="44.16667" lon="6.08388">
        <ele>1418</ele>
        <time>2022-03-03T12:13:29.000Z</time>
      </trkpt>
      <trkpt lat="44.16667" lon="6.08388">
        <ele>1418</ele>
        <time>2022-03-03T12:13:30.000Z</time>
      </trkpt>
      <trkpt lat="44.16667" lon="6.08389">
        <ele>1418</ele>
        <time>2022-03-03T12:13:31.000Z</time>
      </trkpt>
      <trkpt lat="44.16667" lon="6.08389">
        <ele>1418</ele>
        <time>2022-03-03T12:13:32.000Z</time>
      </trkpt>
      <trkpt lat="44.16667" lon="6.0839">
        <ele>1418</ele>
        <time>2022-03-03T12:13:33.000Z</time>
      </trkpt>
      <trkpt lat="44.16667" lon="6.0839">
        <ele>1419</ele>
        <time>2022-03-03T12:13:34.000Z</time>
      </trkpt>
      <trkpt lat="44.16667" lon="6.08391">
        <ele>1419</ele>
        <time>2022-03-03T12:13:35.000Z</time>
      </trkpt>
      <trkpt lat="44.16667" lon="6.08392">
        <ele>1419</ele>
        <time>2022-03-03T12:13:36.000Z</time>
      </trkpt>
      <trkpt lat="44.16667" lon="6.08393">
        <ele>1419</ele>
        <time>2022-03-03T12:13:37.000Z</time>
      </trkpt>
      <trkpt lat="44.16667" lon="6.08393">
        <ele>1419</ele>
        <time>2022-03-03T12:13:38.000Z</time>
      </trkpt>
      <trkpt lat="44.16667" lon="6.08394">
        <ele>1419</ele>
        <time>2022-03-03T12:13:39.000Z</time>
      </trkpt>
      <trkpt lat="44.16668" lon="6.08394">
        <ele>1419</ele>
        <time>2022-03-03T12:13:40.000Z</time>
      </trkpt>
      <trkpt lat="44.16668" lon="6.08395">
        <ele>1419</ele>
        <time>2022-03-03T12:13:41.000Z</time>
      </trkpt>
      <trkpt lat="44.16668" lon="6.08396">
        <ele>1419</ele>
        <time>2022-03-03T12:13:42.000Z</time>
      </trkpt>
      <trkpt lat="44.16668" lon="6.08396">
        <ele>1419</ele>
        <time>2022-03-03T12:13:43.000Z</time>
      </trkpt>
      <trkpt lat="44.16668" lon="6.08397">
        <ele>1420</ele>
        <time>2022-03-03T12:13:44.000Z</time>
      </trkpt>
      <trkpt lat="44.16668" lon="6.08397">
        <ele>1420</ele>
        <time>2022-03-03T12:13:45.000Z</time>
      </trkpt>
      <trkpt lat="44.16668" lon="6.08397">
        <ele>1420</ele>
        <time>2022-03-03T12:13:46.000Z</time>
      </trkpt>
      <trkpt lat="44.16668" lon="6.08397">
        <ele>1420</ele>
        <time>2022-03-03T12:13:47.000Z</time>
      </trkpt>
      <trkpt lat="44.16668" lon="6.08397">
        <ele>1420</ele>
        <time>2022-03-03T12:13:48.000Z</time>
      </trkpt>
      <trkpt lat="44.16668" lon="6.08397">
        <ele>1420</ele>
        <time>2022-03-03T12:13:49.000Z</time>
      </trkpt>
      <trkpt lat="44.16668" lon="6.08397">
        <ele>1420</ele>
        <time>2022-03-03T12:13:50.000Z</time>
      </trkpt>
      <trkpt lat="44.16668" lon="6.08397">
        <ele>1420</ele>
        <time>2022-03-03T12:13:51.000Z</time>
      </trkpt>
      <trkpt lat="44.16668" lon="6.08397">
        <ele>1420</ele>
        <time>2022-03-03T12:13:52.000Z</time>
      </trkpt>
      <trkpt lat="44.16668" lon="6.08397">
        <ele>1420</ele>
        <time>2022-03-03T12:13:53.000Z</time>
      </trkpt>
      <trkpt lat="44.16668" lon="6.08397">
        <ele>1420</ele>
        <time>2022-03-03T12:13:54.000Z</time>
      </trkpt>
      <trkpt lat="44.16669" lon="6.08397">
        <ele>1420</ele>
        <time>2022-03-03T12:13:55.000Z</time>
      </trkpt>
      <trkpt lat="44.16669" lon="6.08397">
        <ele>1420</ele>
        <time>2022-03-03T12:13:56.000Z</time>
      </trkpt>
      <trkpt lat="44.16669" lon="6.08397">
        <ele>1420</ele>
        <time>2022-03-03T12:13:57.000Z</time>
      </trkpt>
      <trkpt lat="44.16669" lon="6.08397">
        <ele>1420</ele>
        <time>2022-03-03T12:13:58.000Z</time>
      </trkpt>
      <trkpt lat="44.16669" lon="6.08397">
        <ele>1420</ele>
        <time>2022-03-03T12:13:59.000Z</time>
      </trkpt>
      <trkpt lat="44.16669" lon="6.08397">
        <ele>1420</ele>
        <time>2022-03-03T12:14:00.000Z</time>
      </trkpt>
      <trkpt lat="44.16669" lon="6.08397">
        <ele>1420</ele>
        <time>2022-03-03T12:14:01.000Z</time>
      </trkpt>
      <trkpt lat="44.16669" lon="6.08397">
        <ele>1420</ele>
        <time>2022-03-03T12:14:02.000Z</time>
      </trkpt>
      <trkpt lat="44.16669" lon="6.08397">
        <ele>1420</ele>
        <time>2022-03-03T12:14:03.000Z</time>
      </trkpt>
      <trkpt lat="44.16669" lon="6.08397">
        <ele>1420</ele>
        <time>2022-03-03T12:14:04.000Z</time>
      </trkpt>
      <trkpt lat="44.16669" lon="6.08397">
        <ele>1421</ele>
        <time>2022-03-03T12:14:05.000Z</time>
      </trkpt>
      <trkpt lat="44.16669" lon="6.08397">
        <ele>1421</ele>
        <time>2022-03-03T12:14:06.000Z</time>
      </trkpt>
      <trkpt lat="44.16669" lon="6.08398">
        <ele>1421</ele>
        <time>2022-03-03T12:14:07.000Z</time>
      </trkpt>
      <trkpt lat="44.16668" lon="6.08398">
        <ele>1421</ele>
        <time>2022-03-03T12:14:08.000Z</time>
      </trkpt>
      <trkpt lat="44.16668" lon="6.08398">
        <ele>1421</ele>
        <time>2022-03-03T12:14:09.000Z</time>
      </trkpt>
      <trkpt lat="44.16668" lon="6.08398">
        <ele>1421</ele>
        <time>2022-03-03T12:14:10.000Z</time>
      </trkpt>
      <trkpt lat="44.16669" lon="6.08398">
        <ele>1421</ele>
        <time>2022-03-03T12:14:11.000Z</time>
      </trkpt>
      <trkpt lat="44.16669" lon="6.08398">
        <ele>1421</ele>
        <time>2022-03-03T12:14:12.000Z</time>
      </trkpt>
      <trkpt lat="44.16669" lon="6.08398">
        <ele>1421</ele>
        <time>2022-03-03T12:14:13.000Z</time>
      </trkpt>
      <trkpt lat="44.16669" lon="6.08398">
        <ele>1421</ele>
        <time>2022-03-03T12:14:14.000Z</time>
      </trkpt>
      <trkpt lat="44.16669" lon="6.08398">
        <ele>1421</ele>
        <time>2022-03-03T12:14:15.000Z</time>
      </trkpt>
      <trkpt lat="44.16669" lon="6.08398">
        <ele>1421</ele>
        <time>2022-03-03T12:14:16.000Z</time>
      </trkpt>
      <trkpt lat="44.16669" lon="6.08398">
        <ele>1421</ele>
        <time>2022-03-03T12:14:17.000Z</time>
      </trkpt>
      <trkpt lat="44.16669" lon="6.08398">
        <ele>1421</ele>
        <time>2022-03-03T12:14:18.000Z</time>
      </trkpt>
      <trkpt lat="44.16669" lon="6.08398">
        <ele>1421</ele>
        <time>2022-03-03T12:14:19.000Z</time>
      </trkpt>
      <trkpt lat="44.16669" lon="6.08398">
        <ele>1421</ele>
        <time>2022-03-03T12:14:20.000Z</time>
      </trkpt>
      <trkpt lat="44.16669" lon="6.08398">
        <ele>1421</ele>
        <time>2022-03-03T12:14:21.000Z</time>
      </trkpt>
      <trkpt lat="44.16669" lon="6.08398">
        <ele>1421</ele>
        <time>2022-03-03T12:14:22.000Z</time>
      </trkpt>
      <trkpt lat="44.16669" lon="6.08398">
        <ele>1421</ele>
        <time>2022-03-03T12:14:23.000Z</time>
      </trkpt>
      <trkpt lat="44.16668" lon="6.08398">
        <ele>1421</ele>
        <time>2022-03-03T12:14:24.000Z</time>
      </trkpt>
      <trkpt lat="44.16668" lon="6.08398">
        <ele>1421</ele>
        <time>2022-03-03T12:14:25.000Z</time>
      </trkpt>
      <trkpt lat="44.16668" lon="6.08397">
        <ele>1421</ele>
        <time>2022-03-03T12:14:26.000Z</time>
      </trkpt>
      <trkpt lat="44.16668" lon="6.08397">
        <ele>1421</ele>
        <time>2022-03-03T12:14:27.000Z</time>
      </trkpt>
      <trkpt lat="44.16668" lon="6.08397">
        <ele>1421</ele>
        <time>2022-03-03T12:14:28.000Z</time>
      </trkpt>
      <trkpt lat="44.16668" lon="6.08398">
        <ele>1421</ele>
        <time>2022-03-03T12:14:29.000Z</time>
      </trkpt>
      <trkpt lat="44.16668" lon="6.08398">
        <ele>1421</ele>
        <time>2022-03-03T12:14:30.000Z</time>
      </trkpt>
      <trkpt lat="44.16668" lon="6.08398">
        <ele>1421</ele>
        <time>2022-03-03T12:14:31.000Z</time>
      </trkpt>
      <trkpt lat="44.16668" lon="6.08398">
        <ele>1421</ele>
        <time>2022-03-03T12:14:32.000Z</time>
      </trkpt>
      <trkpt lat="44.16668" lon="6.08398">
        <ele>1421</ele>
        <time>2022-03-03T12:14:33.000Z</time>
      </trkpt>
      <trkpt lat="44.16668" lon="6.08398">
        <ele>1421</ele>
        <time>2022-03-03T12:14:34.000Z</time>
      </trkpt>
      <trkpt lat="44.16668" lon="6.08398">
        <ele>1421</ele>
        <time>2022-03-03T12:14:35.000Z</time>
      </trkpt>
      <trkpt lat="44.16668" lon="6.08398">
        <ele>1421</ele>
        <time>2022-03-03T12:14:36.000Z</time>
      </trkpt>
      <trkpt lat="44.16668" lon="6.08398">
        <ele>1421</ele>
        <time>2022-03-03T12:14:37.000Z</time>
      </trkpt>
      <trkpt lat="44.16668" lon="6.08398">
        <ele>1421</ele>
        <time>2022-03-03T12:14:38.000Z</time>
      </trkpt>
      <trkpt lat="44.16668" lon="6.08398">
        <ele>1421</ele>
        <time>2022-03-03T12:14:39.000Z</time>
      </trkpt>
      <trkpt lat="44.16668" lon="6.08399">
        <ele>1421</ele>
        <time>2022-03-03T12:14:40.000Z</time>
      </trkpt>
      <trkpt lat="44.16668" lon="6.08399">
        <ele>1421</ele>
        <time>2022-03-03T12:14:41.000Z</time>
      </trkpt>
      <trkpt lat="44.16668" lon="6.084">
        <ele>1421</ele>
        <time>2022-03-03T12:14:42.000Z</time>
      </trkpt>
      <trkpt lat="44.16668" lon="6.08401">
        <ele>1421</ele>
        <time>2022-03-03T12:14:43.000Z</time>
      </trkpt>
      <trkpt lat="44.16668" lon="6.08402">
        <ele>1421</ele>
        <time>2022-03-03T12:14:44.000Z</time>
      </trkpt>
      <trkpt lat="44.16667" lon="6.08402">
        <ele>1421</ele>
        <time>2022-03-03T12:14:45.000Z</time>
      </trkpt>
      <trkpt lat="44.16667" lon="6.08403">
        <ele>1421</ele>
        <time>2022-03-03T12:14:46.000Z</time>
      </trkpt>
      <trkpt lat="44.16667" lon="6.08403">
        <ele>1422</ele>
        <time>2022-03-03T12:14:47.000Z</time>
      </trkpt>
      <trkpt lat="44.16667" lon="6.08404">
        <ele>1422</ele>
        <time>2022-03-03T12:14:48.000Z</time>
      </trkpt>
      <trkpt lat="44.16667" lon="6.08404">
        <ele>1422</ele>
        <time>2022-03-03T12:14:49.000Z</time>
      </trkpt>
      <trkpt lat="44.16667" lon="6.08405">
        <ele>1422</ele>
        <time>2022-03-03T12:14:50.000Z</time>
      </trkpt>
      <trkpt lat="44.16667" lon="6.08406">
        <ele>1422</ele>
        <time>2022-03-03T12:14:51.000Z</time>
      </trkpt>
      <trkpt lat="44.16667" lon="6.08406">
        <ele>1423</ele>
        <time>2022-03-03T12:14:52.000Z</time>
      </trkpt>
      <trkpt lat="44.16668" lon="6.08407">
        <ele>1423</ele>
        <time>2022-03-03T12:14:53.000Z</time>
      </trkpt>
      <trkpt lat="44.16668" lon="6.08408">
        <ele>1423</ele>
        <time>2022-03-03T12:14:54.000Z</time>
      </trkpt>
      <trkpt lat="44.16667" lon="6.08409">
        <ele>1423</ele>
        <time>2022-03-03T12:14:55.000Z</time>
      </trkpt>
      <trkpt lat="44.16667" lon="6.08409">
        <ele>1423</ele>
        <time>2022-03-03T12:14:56.000Z</time>
      </trkpt>
      <trkpt lat="44.16667" lon="6.0841">
        <ele>1424</ele>
        <time>2022-03-03T12:14:57.000Z</time>
      </trkpt>
      <trkpt lat="44.16667" lon="6.08411">
        <ele>1424</ele>
        <time>2022-03-03T12:14:58.000Z</time>
      </trkpt>
      <trkpt lat="44.16667" lon="6.08412">
        <ele>1424</ele>
        <time>2022-03-03T12:14:59.000Z</time>
      </trkpt>
      <trkpt lat="44.16667" lon="6.08412">
        <ele>1424</ele>
        <time>2022-03-03T12:15:00.000Z</time>
      </trkpt>
      <trkpt lat="44.16667" lon="6.08413">
        <ele>1424</ele>
        <time>2022-03-03T12:15:01.000Z</time>
      </trkpt>
      <trkpt lat="44.16667" lon="6.08414">
        <ele>1425</ele>
        <time>2022-03-03T12:15:02.000Z</time>
      </trkpt>
      <trkpt lat="44.16668" lon="6.08414">
        <ele>1425</ele>
        <time>2022-03-03T12:15:03.000Z</time>
      </trkpt>
      <trkpt lat="44.16668" lon="6.08415">
        <ele>1425</ele>
        <time>2022-03-03T12:15:04.000Z</time>
      </trkpt>
      <trkpt lat="44.16668" lon="6.08416">
        <ele>1425</ele>
        <time>2022-03-03T12:15:05.000Z</time>
      </trkpt>
      <trkpt lat="44.16668" lon="6.08416">
        <ele>1425</ele>
        <time>2022-03-03T12:15:06.000Z</time>
      </trkpt>
      <trkpt lat="44.16668" lon="6.08417">
        <ele>1425</ele>
        <time>2022-03-03T12:15:07.000Z</time>
      </trkpt>
      <trkpt lat="44.16668" lon="6.08418">
        <ele>1425</ele>
        <time>2022-03-03T12:15:08.000Z</time>
      </trkpt>
      <trkpt lat="44.16669" lon="6.08419">
        <ele>1425</ele>
        <time>2022-03-03T12:15:09.000Z</time>
      </trkpt>
      <trkpt lat="44.16669" lon="6.08419">
        <ele>1425</ele>
        <time>2022-03-03T12:15:10.000Z</time>
      </trkpt>
      <trkpt lat="44.16669" lon="6.0842">
        <ele>1426</ele>
        <time>2022-03-03T12:15:11.000Z</time>
      </trkpt>
      <trkpt lat="44.16669" lon="6.08421">
        <ele>1426</ele>
        <time>2022-03-03T12:15:12.000Z</time>
      </trkpt>
      <trkpt lat="44.16669" lon="6.08422">
        <ele>1426</ele>
        <time>2022-03-03T12:15:13.000Z</time>
      </trkpt>
      <trkpt lat="44.16669" lon="6.08422">
        <ele>1426</ele>
        <time>2022-03-03T12:15:14.000Z</time>
      </trkpt>
      <trkpt lat="44.16669" lon="6.08423">
        <ele>1426</ele>
        <time>2022-03-03T12:15:15.000Z</time>
      </trkpt>
      <trkpt lat="44.16669" lon="6.08423">
        <ele>1426</ele>
        <time>2022-03-03T12:15:16.000Z</time>
      </trkpt>
      <trkpt lat="44.16669" lon="6.08424">
        <ele>1426</ele>
        <time>2022-03-03T12:15:17.000Z</time>
      </trkpt>
      <trkpt lat="44.16669" lon="6.08424">
        <ele>1426</ele>
        <time>2022-03-03T12:15:18.000Z</time>
      </trkpt>
      <trkpt lat="44.16669" lon="6.08425">
        <ele>1427</ele>
        <time>2022-03-03T12:15:19.000Z</time>
      </trkpt>
      <trkpt lat="44.16669" lon="6.08426">
        <ele>1427</ele>
        <time>2022-03-03T12:15:20.000Z</time>
      </trkpt>
      <trkpt lat="44.16669" lon="6.08427">
        <ele>1427</ele>
        <time>2022-03-03T12:15:21.000Z</time>
      </trkpt>
      <trkpt lat="44.16669" lon="6.08427">
        <ele>1427</ele>
        <time>2022-03-03T12:15:22.000Z</time>
      </trkpt>
      <trkpt lat="44.16669" lon="6.08428">
        <ele>1427</ele>
        <time>2022-03-03T12:15:23.000Z</time>
      </trkpt>
      <trkpt lat="44.16669" lon="6.08428">
        <ele>1427</ele>
        <time>2022-03-03T12:15:24.000Z</time>
      </trkpt>
      <trkpt lat="44.16669" lon="6.08429">
        <ele>1427</ele>
        <time>2022-03-03T12:15:25.000Z</time>
      </trkpt>
      <trkpt lat="44.16669" lon="6.0843">
        <ele>1427</ele>
        <time>2022-03-03T12:15:26.000Z</time>
      </trkpt>
      <trkpt lat="44.1667" lon="6.0843">
        <ele>1427</ele>
        <time>2022-03-03T12:15:27.000Z</time>
      </trkpt>
      <trkpt lat="44.1667" lon="6.08431">
        <ele>1428</ele>
        <time>2022-03-03T12:15:28.000Z</time>
      </trkpt>
      <trkpt lat="44.1667" lon="6.08431">
        <ele>1428</ele>
        <time>2022-03-03T12:15:29.000Z</time>
      </trkpt>
      <trkpt lat="44.1667" lon="6.08432">
        <ele>1428</ele>
        <time>2022-03-03T12:15:30.000Z</time>
      </trkpt>
      <trkpt lat="44.1667" lon="6.08432">
        <ele>1428</ele>
        <time>2022-03-03T12:15:31.000Z</time>
      </trkpt>
      <trkpt lat="44.16671" lon="6.08433">
        <ele>1428</ele>
        <time>2022-03-03T12:15:32.000Z</time>
      </trkpt>
      <trkpt lat="44.16671" lon="6.08434">
        <ele>1428</ele>
        <time>2022-03-03T12:15:33.000Z</time>
      </trkpt>
      <trkpt lat="44.16671" lon="6.08434">
        <ele>1428</ele>
        <time>2022-03-03T12:15:34.000Z</time>
      </trkpt>
      <trkpt lat="44.16671" lon="6.08434">
        <ele>1428</ele>
        <time>2022-03-03T12:15:35.000Z</time>
      </trkpt>
      <trkpt lat="44.16671" lon="6.08434">
        <ele>1428</ele>
        <time>2022-03-03T12:15:36.000Z</time>
      </trkpt>
      <trkpt lat="44.16671" lon="6.08434">
        <ele>1428</ele>
        <time>2022-03-03T12:15:37.000Z</time>
      </trkpt>
      <trkpt lat="44.16671" lon="6.08434">
        <ele>1428</ele>
        <time>2022-03-03T12:15:38.000Z</time>
      </trkpt>
      <trkpt lat="44.16671" lon="6.08434">
        <ele>1428</ele>
        <time>2022-03-03T12:15:39.000Z</time>
      </trkpt>
      <trkpt lat="44.16671" lon="6.08434">
        <ele>1428</ele>
        <time>2022-03-03T12:15:40.000Z</time>
      </trkpt>
      <trkpt lat="44.16671" lon="6.08434">
        <ele>1428</ele>
        <time>2022-03-03T12:15:41.000Z</time>
      </trkpt>
      <trkpt lat="44.16671" lon="6.08434">
        <ele>1428</ele>
        <time>2022-03-03T12:15:42.000Z</time>
      </trkpt>
      <trkpt lat="44.16671" lon="6.08434">
        <ele>1428</ele>
        <time>2022-03-03T12:15:43.000Z</time>
      </trkpt>
      <trkpt lat="44.16671" lon="6.08434">
        <ele>1428</ele>
        <time>2022-03-03T12:15:44.000Z</time>
      </trkpt>
      <trkpt lat="44.16671" lon="6.08434">
        <ele>1428</ele>
        <time>2022-03-03T12:15:45.000Z</time>
      </trkpt>
      <trkpt lat="44.16671" lon="6.08434">
        <ele>1428</ele>
        <time>2022-03-03T12:15:46.000Z</time>
      </trkpt>
      <trkpt lat="44.16671" lon="6.08434">
        <ele>1428</ele>
        <time>2022-03-03T12:15:47.000Z</time>
      </trkpt>
      <trkpt lat="44.16671" lon="6.08434">
        <ele>1428</ele>
        <time>2022-03-03T12:15:48.000Z</time>
      </trkpt>
      <trkpt lat="44.16671" lon="6.08434">
        <ele>1428</ele>
        <time>2022-03-03T12:15:49.000Z</time>
      </trkpt>
      <trkpt lat="44.16671" lon="6.08434">
        <ele>1428</ele>
        <time>2022-03-03T12:15:50.000Z</time>
      </trkpt>
      <trkpt lat="44.16671" lon="6.08434">
        <ele>1428</ele>
        <time>2022-03-03T12:15:51.000Z</time>
      </trkpt>
      <trkpt lat="44.16671" lon="6.08434">
        <ele>1428</ele>
        <time>2022-03-03T12:15:52.000Z</time>
      </trkpt>
      <trkpt lat="44.16671" lon="6.08434">
        <ele>1428</ele>
        <time>2022-03-03T12:15:53.000Z</time>
      </trkpt>
      <trkpt lat="44.16671" lon="6.08434">
        <ele>1428</ele>
        <time>2022-03-03T12:15:54.000Z</time>
      </trkpt>
      <trkpt lat="44.16671" lon="6.08434">
        <ele>1428</ele>
        <time>2022-03-03T12:15:55.000Z</time>
      </trkpt>
      <trkpt lat="44.16671" lon="6.08435">
        <ele>1428</ele>
        <time>2022-03-03T12:15:56.000Z</time>
      </trkpt>
      <trkpt lat="44.16671" lon="6.08435">
        <ele>1428</ele>
        <time>2022-03-03T12:15:57.000Z</time>
      </trkpt>
      <trkpt lat="44.16671" lon="6.08436">
        <ele>1428</ele>
        <time>2022-03-03T12:15:58.000Z</time>
      </trkpt>
      <trkpt lat="44.16671" lon="6.08436">
        <ele>1428</ele>
        <time>2022-03-03T12:15:59.000Z</time>
      </trkpt>
      <trkpt lat="44.16671" lon="6.08437">
        <ele>1429</ele>
        <time>2022-03-03T12:16:00.000Z</time>
      </trkpt>
      <trkpt lat="44.16671" lon="6.08437">
        <ele>1429</ele>
        <time>2022-03-03T12:16:01.000Z</time>
      </trkpt>
      <trkpt lat="44.16671" lon="6.08438">
        <ele>1429</ele>
        <time>2022-03-03T12:16:02.000Z</time>
      </trkpt>
      <trkpt lat="44.16671" lon="6.08439">
        <ele>1429</ele>
        <time>2022-03-03T12:16:03.000Z</time>
      </trkpt>
      <trkpt lat="44.16671" lon="6.08439">
        <ele>1429</ele>
        <time>2022-03-03T12:16:04.000Z</time>
      </trkpt>
      <trkpt lat="44.16672" lon="6.0844">
        <ele>1429</ele>
        <time>2022-03-03T12:16:05.000Z</time>
      </trkpt>
      <trkpt lat="44.16672" lon="6.08441">
        <ele>1429</ele>
        <time>2022-03-03T12:16:06.000Z</time>
      </trkpt>
      <trkpt lat="44.16672" lon="6.08442">
        <ele>1430</ele>
        <time>2022-03-03T12:16:07.000Z</time>
      </trkpt>
      <trkpt lat="44.16672" lon="6.08442">
        <ele>1430</ele>
        <time>2022-03-03T12:16:08.000Z</time>
      </trkpt>
      <trkpt lat="44.16672" lon="6.08443">
        <ele>1430</ele>
        <time>2022-03-03T12:16:09.000Z</time>
      </trkpt>
      <trkpt lat="44.16671" lon="6.08444">
        <ele>1430</ele>
        <time>2022-03-03T12:16:10.000Z</time>
      </trkpt>
      <trkpt lat="44.16671" lon="6.08445">
        <ele>1430</ele>
        <time>2022-03-03T12:16:11.000Z</time>
      </trkpt>
      <trkpt lat="44.16671" lon="6.08445">
        <ele>1430</ele>
        <time>2022-03-03T12:16:12.000Z</time>
      </trkpt>
      <trkpt lat="44.16671" lon="6.08446">
        <ele>1430</ele>
        <time>2022-03-03T12:16:13.000Z</time>
      </trkpt>
      <trkpt lat="44.16672" lon="6.08447">
        <ele>1431</ele>
        <time>2022-03-03T12:16:14.000Z</time>
      </trkpt>
      <trkpt lat="44.16672" lon="6.08447">
        <ele>1431</ele>
        <time>2022-03-03T12:16:15.000Z</time>
      </trkpt>
      <trkpt lat="44.16672" lon="6.08448">
        <ele>1431</ele>
        <time>2022-03-03T12:16:16.000Z</time>
      </trkpt>
      <trkpt lat="44.16672" lon="6.08449">
        <ele>1431</ele>
        <time>2022-03-03T12:16:17.000Z</time>
      </trkpt>
      <trkpt lat="44.16672" lon="6.08449">
        <ele>1431</ele>
        <time>2022-03-03T12:16:18.000Z</time>
      </trkpt>
      <trkpt lat="44.16671" lon="6.0845">
        <ele>1431</ele>
        <time>2022-03-03T12:16:19.000Z</time>
      </trkpt>
      <trkpt lat="44.16671" lon="6.08451">
        <ele>1431</ele>
        <time>2022-03-03T12:16:20.000Z</time>
      </trkpt>
      <trkpt lat="44.16672" lon="6.08452">
        <ele>1432</ele>
        <time>2022-03-03T12:16:21.000Z</time>
      </trkpt>
      <trkpt lat="44.16672" lon="6.08452">
        <ele>1432</ele>
        <time>2022-03-03T12:16:22.000Z</time>
      </trkpt>
      <trkpt lat="44.16672" lon="6.08453">
        <ele>1432</ele>
        <time>2022-03-03T12:16:23.000Z</time>
      </trkpt>
      <trkpt lat="44.16672" lon="6.08454">
        <ele>1432</ele>
        <time>2022-03-03T12:16:24.000Z</time>
      </trkpt>
      <trkpt lat="44.16672" lon="6.08455">
        <ele>1432</ele>
        <time>2022-03-03T12:16:25.000Z</time>
      </trkpt>
      <trkpt lat="44.16672" lon="6.08456">
        <ele>1433</ele>
        <time>2022-03-03T12:16:26.000Z</time>
      </trkpt>
      <trkpt lat="44.16672" lon="6.08456">
        <ele>1433</ele>
        <time>2022-03-03T12:16:27.000Z</time>
      </trkpt>
      <trkpt lat="44.16673" lon="6.08457">
        <ele>1433</ele>
        <time>2022-03-03T12:16:28.000Z</time>
      </trkpt>
      <trkpt lat="44.16673" lon="6.08458">
        <ele>1433</ele>
        <time>2022-03-03T12:16:29.000Z</time>
      </trkpt>
      <trkpt lat="44.16673" lon="6.08459">
        <ele>1434</ele>
        <time>2022-03-03T12:16:30.000Z</time>
      </trkpt>
      <trkpt lat="44.16674" lon="6.08459">
        <ele>1434</ele>
        <time>2022-03-03T12:16:31.000Z</time>
      </trkpt>
      <trkpt lat="44.16674" lon="6.0846">
        <ele>1434</ele>
        <time>2022-03-03T12:16:32.000Z</time>
      </trkpt>
      <trkpt lat="44.16674" lon="6.08461">
        <ele>1435</ele>
        <time>2022-03-03T12:16:33.000Z</time>
      </trkpt>
      <trkpt lat="44.16674" lon="6.08461">
        <ele>1435</ele>
        <time>2022-03-03T12:16:34.000Z</time>
      </trkpt>
      <trkpt lat="44.16674" lon="6.08462">
        <ele>1435</ele>
        <time>2022-03-03T12:16:35.000Z</time>
      </trkpt>
      <trkpt lat="44.16675" lon="6.08463">
        <ele>1435</ele>
        <time>2022-03-03T12:16:36.000Z</time>
      </trkpt>
      <trkpt lat="44.16674" lon="6.08464">
        <ele>1435</ele>
        <time>2022-03-03T12:16:37.000Z</time>
      </trkpt>
      <trkpt lat="44.16674" lon="6.08465">
        <ele>1436</ele>
        <time>2022-03-03T12:16:38.000Z</time>
      </trkpt>
      <trkpt lat="44.16674" lon="6.08466">
        <ele>1436</ele>
        <time>2022-03-03T12:16:39.000Z</time>
      </trkpt>
      <trkpt lat="44.16674" lon="6.08466">
        <ele>1436</ele>
        <time>2022-03-03T12:16:40.000Z</time>
      </trkpt>
      <trkpt lat="44.16674" lon="6.08466">
        <ele>1436</ele>
        <time>2022-03-03T12:16:41.000Z</time>
      </trkpt>
      <trkpt lat="44.16674" lon="6.08466">
        <ele>1437</ele>
        <time>2022-03-03T12:16:42.000Z</time>
      </trkpt>
      <trkpt lat="44.16674" lon="6.08466">
        <ele>1437</ele>
        <time>2022-03-03T12:16:43.000Z</time>
      </trkpt>
      <trkpt lat="44.16674" lon="6.08466">
        <ele>1437</ele>
        <time>2022-03-03T12:16:44.000Z</time>
      </trkpt>
      <trkpt lat="44.16674" lon="6.08466">
        <ele>1437</ele>
        <time>2022-03-03T12:16:45.000Z</time>
      </trkpt>
      <trkpt lat="44.16674" lon="6.08466">
        <ele>1437</ele>
        <time>2022-03-03T12:16:46.000Z</time>
      </trkpt>
      <trkpt lat="44.16674" lon="6.08466">
        <ele>1437</ele>
        <time>2022-03-03T12:16:47.000Z</time>
      </trkpt>
      <trkpt lat="44.16674" lon="6.08466">
        <ele>1437</ele>
        <time>2022-03-03T12:16:48.000Z</time>
      </trkpt>
      <trkpt lat="44.16674" lon="6.08466">
        <ele>1437</ele>
        <time>2022-03-03T12:16:49.000Z</time>
      </trkpt>
      <trkpt lat="44.16674" lon="6.08466">
        <ele>1437</ele>
        <time>2022-03-03T12:16:50.000Z</time>
      </trkpt>
      <trkpt lat="44.16674" lon="6.08466">
        <ele>1438</ele>
        <time>2022-03-03T12:16:51.000Z</time>
      </trkpt>
      <trkpt lat="44.16674" lon="6.08466">
        <ele>1438</ele>
        <time>2022-03-03T12:16:52.000Z</time>
      </trkpt>
      <trkpt lat="44.16674" lon="6.08466">
        <ele>1438</ele>
        <time>2022-03-03T12:16:53.000Z</time>
      </trkpt>
      <trkpt lat="44.16674" lon="6.08467">
        <ele>1438</ele>
        <time>2022-03-03T12:16:54.000Z</time>
      </trkpt>
      <trkpt lat="44.16674" lon="6.08467">
        <ele>1438</ele>
        <time>2022-03-03T12:16:55.000Z</time>
      </trkpt>
      <trkpt lat="44.16674" lon="6.08468">
        <ele>1438</ele>
        <time>2022-03-03T12:16:56.000Z</time>
      </trkpt>
      <trkpt lat="44.16674" lon="6.08468">
        <ele>1438</ele>
        <time>2022-03-03T12:16:57.000Z</time>
      </trkpt>
      <trkpt lat="44.16674" lon="6.08468">
        <ele>1438</ele>
        <time>2022-03-03T12:16:58.000Z</time>
      </trkpt>
      <trkpt lat="44.16674" lon="6.08468">
        <ele>1438</ele>
        <time>2022-03-03T12:16:59.000Z</time>
      </trkpt>
      <trkpt lat="44.16674" lon="6.08468">
        <ele>1438</ele>
        <time>2022-03-03T12:17:00.000Z</time>
      </trkpt>
      <trkpt lat="44.16674" lon="6.08467">
        <ele>1438</ele>
        <time>2022-03-03T12:17:01.000Z</time>
      </trkpt>
      <trkpt lat="44.16674" lon="6.08467">
        <ele>1438</ele>
        <time>2022-03-03T12:17:02.000Z</time>
      </trkpt>
      <trkpt lat="44.16674" lon="6.08467">
        <ele>1438</ele>
        <time>2022-03-03T12:17:03.000Z</time>
      </trkpt>
      <trkpt lat="44.16674" lon="6.08468">
        <ele>1438</ele>
        <time>2022-03-03T12:17:04.000Z</time>
      </trkpt>
      <trkpt lat="44.16674" lon="6.08468">
        <ele>1438</ele>
        <time>2022-03-03T12:17:05.000Z</time>
      </trkpt>
      <trkpt lat="44.16674" lon="6.08468">
        <ele>1438</ele>
        <time>2022-03-03T12:17:06.000Z</time>
      </trkpt>
      <trkpt lat="44.16674" lon="6.08467">
        <ele>1439</ele>
        <time>2022-03-03T12:17:07.000Z</time>
      </trkpt>
      <trkpt lat="44.16674" lon="6.08467">
        <ele>1438</ele>
        <time>2022-03-03T12:17:08.000Z</time>
      </trkpt>
      <trkpt lat="44.16674" lon="6.08468">
        <ele>1438</ele>
        <time>2022-03-03T12:17:09.000Z</time>
      </trkpt>
      <trkpt lat="44.16674" lon="6.08469">
        <ele>1439</ele>
        <time>2022-03-03T12:17:10.000Z</time>
      </trkpt>
      <trkpt lat="44.16675" lon="6.08469">
        <ele>1439</ele>
        <time>2022-03-03T12:17:11.000Z</time>
      </trkpt>
      <trkpt lat="44.16675" lon="6.08469">
        <ele>1439</ele>
        <time>2022-03-03T12:17:12.000Z</time>
      </trkpt>
      <trkpt lat="44.16675" lon="6.08469">
        <ele>1439</ele>
        <time>2022-03-03T12:17:13.000Z</time>
      </trkpt>
      <trkpt lat="44.16674" lon="6.0847">
        <ele>1439</ele>
        <time>2022-03-03T12:17:14.000Z</time>
      </trkpt>
      <trkpt lat="44.16674" lon="6.0847">
        <ele>1439</ele>
        <time>2022-03-03T12:17:15.000Z</time>
      </trkpt>
      <trkpt lat="44.16674" lon="6.0847">
        <ele>1439</ele>
        <time>2022-03-03T12:17:16.000Z</time>
      </trkpt>
      <trkpt lat="44.16674" lon="6.08469">
        <ele>1439</ele>
        <time>2022-03-03T12:17:17.000Z</time>
      </trkpt>
      <trkpt lat="44.16674" lon="6.08469">
        <ele>1439</ele>
        <time>2022-03-03T12:17:18.000Z</time>
      </trkpt>
      <trkpt lat="44.16674" lon="6.08469">
        <ele>1439</ele>
        <time>2022-03-03T12:17:19.000Z</time>
      </trkpt>
      <trkpt lat="44.16674" lon="6.08469">
        <ele>1439</ele>
        <time>2022-03-03T12:17:20.000Z</time>
      </trkpt>
      <trkpt lat="44.16674" lon="6.08469">
        <ele>1439</ele>
        <time>2022-03-03T12:17:21.000Z</time>
      </trkpt>
      <trkpt lat="44.16674" lon="6.08469">
        <ele>1439</ele>
        <time>2022-03-03T12:17:22.000Z</time>
      </trkpt>
      <trkpt lat="44.16674" lon="6.08469">
        <ele>1439</ele>
        <time>2022-03-03T12:17:23.000Z</time>
      </trkpt>
      <trkpt lat="44.16674" lon="6.08469">
        <ele>1439</ele>
        <time>2022-03-03T12:17:24.000Z</time>
      </trkpt>
      <trkpt lat="44.16674" lon="6.08469">
        <ele>1439</ele>
        <time>2022-03-03T12:17:25.000Z</time>
      </trkpt>
      <trkpt lat="44.16674" lon="6.08469">
        <ele>1439</ele>
        <time>2022-03-03T12:17:26.000Z</time>
      </trkpt>
      <trkpt lat="44.16674" lon="6.08469">
        <ele>1439</ele>
        <time>2022-03-03T12:17:27.000Z</time>
      </trkpt>
      <trkpt lat="44.16674" lon="6.08469">
        <ele>1439</ele>
        <time>2022-03-03T12:17:28.000Z</time>
      </trkpt>
      <trkpt lat="44.16674" lon="6.08469">
        <ele>1439</ele>
        <time>2022-03-03T12:19:51.644Z</time>
      </trkpt>
      <trkpt lat="44.16674" lon="6.08469">
        <ele>1439</ele>
        <time>2022-03-03T12:19:52.644Z</time>
      </trkpt>
      <trkpt lat="44.16674" lon="6.08469">
        <ele>1439</ele>
        <time>2022-03-03T12:19:53.644Z</time>
      </trkpt>
      <trkpt lat="44.16674" lon="6.0847">
        <ele>1439</ele>
        <time>2022-03-03T12:19:54.644Z</time>
      </trkpt>
      <trkpt lat="44.16675" lon="6.0847">
        <ele>1439</ele>
        <time>2022-03-03T12:19:55.644Z</time>
      </trkpt>
      <trkpt lat="44.16675" lon="6.0847">
        <ele>1439</ele>
        <time>2022-03-03T12:19:56.644Z</time>
      </trkpt>
      <trkpt lat="44.16675" lon="6.0847">
        <ele>1439</ele>
        <time>2022-03-03T12:19:57.644Z</time>
      </trkpt>
      <trkpt lat="44.16675" lon="6.0847">
        <ele>1439</ele>
        <time>2022-03-03T12:19:58.644Z</time>
      </trkpt>
      <trkpt lat="44.16675" lon="6.0847">
        <ele>1439</ele>
        <time>2022-03-03T12:19:59.644Z</time>
      </trkpt>
      <trkpt lat="44.16675" lon="6.0847">
        <ele>1439</ele>
        <time>2022-03-03T12:20:00.644Z</time>
      </trkpt>
      <trkpt lat="44.16675" lon="6.0847">
        <ele>1439</ele>
        <time>2022-03-03T12:20:01.644Z</time>
      </trkpt>
      <trkpt lat="44.16675" lon="6.08469">
        <ele>1439</ele>
        <time>2022-03-03T12:20:02.644Z</time>
      </trkpt>
      <trkpt lat="44.16675" lon="6.08469">
        <ele>1439</ele>
        <time>2022-03-03T12:20:03.644Z</time>
      </trkpt>
      <trkpt lat="44.16675" lon="6.08469">
        <ele>1440</ele>
        <time>2022-03-03T12:20:04.644Z</time>
      </trkpt>
      <trkpt lat="44.16675" lon="6.08469">
        <ele>1440</ele>
        <time>2022-03-03T12:20:05.644Z</time>
      </trkpt>
      <trkpt lat="44.16675" lon="6.08469">
        <ele>1440</ele>
        <time>2022-03-03T12:20:06.644Z</time>
      </trkpt>
      <trkpt lat="44.16675" lon="6.08469">
        <ele>1440</ele>
        <time>2022-03-03T12:20:07.644Z</time>
      </trkpt>
      <trkpt lat="44.16675" lon="6.08469">
        <ele>1440</ele>
        <time>2022-03-03T12:20:08.644Z</time>
      </trkpt>
      <trkpt lat="44.16675" lon="6.08469">
        <ele>1440</ele>
        <time>2022-03-03T12:20:09.644Z</time>
      </trkpt>
      <trkpt lat="44.16675" lon="6.08469">
        <ele>1440</ele>
        <time>2022-03-03T12:20:10.644Z</time>
      </trkpt>
      <trkpt lat="44.16675" lon="6.08469">
        <ele>1440</ele>
        <time>2022-03-03T12:20:11.644Z</time>
      </trkpt>
      <trkpt lat="44.16675" lon="6.08469">
        <ele>1440</ele>
        <time>2022-03-03T12:20:12.644Z</time>
      </trkpt>
      <trkpt lat="44.16675" lon="6.08469">
        <ele>1440</ele>
        <time>2022-03-03T12:20:13.644Z</time>
      </trkpt>
      <trkpt lat="44.16675" lon="6.08469">
        <ele>1440</ele>
        <time>2022-03-03T12:20:14.644Z</time>
      </trkpt>
      <trkpt lat="44.16675" lon="6.0847">
        <ele>1440</ele>
        <time>2022-03-03T12:20:15.644Z</time>
      </trkpt>
      <trkpt lat="44.16675" lon="6.0847">
        <ele>1440</ele>
        <time>2022-03-03T12:20:16.644Z</time>
      </trkpt>
      <trkpt lat="44.16675" lon="6.0847">
        <ele>1440</ele>
        <time>2022-03-03T12:20:17.644Z</time>
      </trkpt>
      <trkpt lat="44.16675" lon="6.0847">
        <ele>1440</ele>
        <time>2022-03-03T12:20:18.644Z</time>
      </trkpt>
      <trkpt lat="44.16675" lon="6.0847">
        <ele>1440</ele>
        <time>2022-03-03T12:20:19.644Z</time>
      </trkpt>
      <trkpt lat="44.16675" lon="6.0847">
        <ele>1440</ele>
        <time>2022-03-03T12:20:20.644Z</time>
      </trkpt>
      <trkpt lat="44.16675" lon="6.0847">
        <ele>1440</ele>
        <time>2022-03-03T12:20:21.644Z</time>
      </trkpt>
      <trkpt lat="44.16675" lon="6.0847">
        <ele>1440</ele>
        <time>2022-03-03T12:20:22.644Z</time>
      </trkpt>
      <trkpt lat="44.16675" lon="6.0847">
        <ele>1440</ele>
        <time>2022-03-03T12:20:23.644Z</time>
      </trkpt>
      <trkpt lat="44.16675" lon="6.0847">
        <ele>1440</ele>
        <time>2022-03-03T12:20:24.644Z</time>
      </trkpt>
      <trkpt lat="44.16675" lon="6.0847">
        <ele>1440</ele>
        <time>2022-03-03T12:20:25.644Z</time>
      </trkpt>
      <trkpt lat="44.16675" lon="6.0847">
        <ele>1440</ele>
        <time>2022-03-03T12:20:26.644Z</time>
      </trkpt>
      <trkpt lat="44.16675" lon="6.0847">
        <ele>1440</ele>
        <time>2022-03-03T12:20:27.644Z</time>
      </trkpt>
      <trkpt lat="44.16675" lon="6.0847">
        <ele>1440</ele>
        <time>2022-03-03T12:20:28.644Z</time>
      </trkpt>
      <trkpt lat="44.16675" lon="6.0847">
        <ele>1440</ele>
        <time>2022-03-03T12:20:29.644Z</time>
      </trkpt>
      <trkpt lat="44.16675" lon="6.0847">
        <ele>1440</ele>
        <time>2022-03-03T12:20:30.644Z</time>
      </trkpt>
      <trkpt lat="44.16675" lon="6.0847">
        <ele>1440</ele>
        <time>2022-03-03T12:20:31.644Z</time>
      </trkpt>
      <trkpt lat="44.16675" lon="6.0847">
        <ele>1440</ele>
        <time>2022-03-03T12:20:32.644Z</time>
      </trkpt>
      <trkpt lat="44.16675" lon="6.0847">
        <ele>1440</ele>
        <time>2022-03-03T12:20:33.644Z</time>
      </trkpt>
      <trkpt lat="44.16675" lon="6.0847">
        <ele>1440</ele>
        <time>2022-03-03T12:20:34.644Z</time>
      </trkpt>
      <trkpt lat="44.16675" lon="6.0847">
        <ele>1440</ele>
        <time>2022-03-03T12:20:35.644Z</time>
      </trkpt>
      <trkpt lat="44.16675" lon="6.0847">
        <ele>1440</ele>
        <time>2022-03-03T12:20:36.644Z</time>
      </trkpt>
      <trkpt lat="44.16675" lon="6.0847">
        <ele>1440</ele>
        <time>2022-03-03T12:20:37.644Z</time>
      </trkpt>
      <trkpt lat="44.16675" lon="6.0847">
        <ele>1440</ele>
        <time>2022-03-03T12:20:38.644Z</time>
      </trkpt>
      <trkpt lat="44.16675" lon="6.0847">
        <ele>1440</ele>
        <time>2022-03-03T12:20:39.644Z</time>
      </trkpt>
      <trkpt lat="44.16675" lon="6.0847">
        <ele>1440</ele>
        <time>2022-03-03T12:20:40.644Z</time>
      </trkpt>
      <trkpt lat="44.16675" lon="6.0847">
        <ele>1440</ele>
        <time>2022-03-03T12:20:41.644Z</time>
      </trkpt>
      <trkpt lat="44.16675" lon="6.0847">
        <ele>1440</ele>
        <time>2022-03-03T12:20:42.644Z</time>
      </trkpt>
      <trkpt lat="44.16675" lon="6.0847">
        <ele>1440</ele>
        <time>2022-03-03T12:20:43.644Z</time>
      </trkpt>
      <trkpt lat="44.16676" lon="6.0847">
        <ele>1440</ele>
        <time>2022-03-03T12:20:44.644Z</time>
      </trkpt>
      <trkpt lat="44.16676" lon="6.0847">
        <ele>1440</ele>
        <time>2022-03-03T12:20:45.644Z</time>
      </trkpt>
      <trkpt lat="44.16676" lon="6.0847">
        <ele>1440</ele>
        <time>2022-03-03T12:20:46.644Z</time>
      </trkpt>
      <trkpt lat="44.16676" lon="6.0847">
        <ele>1440</ele>
        <time>2022-03-03T12:20:47.644Z</time>
      </trkpt>
      <trkpt lat="44.16676" lon="6.0847">
        <ele>1440</ele>
        <time>2022-03-03T12:20:48.644Z</time>
      </trkpt>
      <trkpt lat="44.16676" lon="6.0847">
        <ele>1440</ele>
        <time>2022-03-03T12:20:49.644Z</time>
      </trkpt>
      <trkpt lat="44.16676" lon="6.0847">
        <ele>1440</ele>
        <time>2022-03-03T12:20:50.644Z</time>
      </trkpt>
      <trkpt lat="44.16676" lon="6.0847">
        <ele>1440</ele>
        <time>2022-03-03T12:20:51.644Z</time>
      </trkpt>
      <trkpt lat="44.16676" lon="6.0847">
        <ele>1440</ele>
        <time>2022-03-03T12:20:52.644Z</time>
      </trkpt>
      <trkpt lat="44.16676" lon="6.0847">
        <ele>1440</ele>
        <time>2022-03-03T12:20:53.644Z</time>
      </trkpt>
      <trkpt lat="44.16676" lon="6.0847">
        <ele>1440</ele>
        <time>2022-03-03T12:20:54.644Z</time>
      </trkpt>
      <trkpt lat="44.16676" lon="6.0847">
        <ele>1440</ele>
        <time>2022-03-03T12:20:55.644Z</time>
      </trkpt>
      <trkpt lat="44.16676" lon="6.0847">
        <ele>1440</ele>
        <time>2022-03-03T12:20:56.644Z</time>
      </trkpt>
      <trkpt lat="44.16676" lon="6.0847">
        <ele>1440</ele>
        <time>2022-03-03T12:20:57.644Z</time>
      </trkpt>
      <trkpt lat="44.16676" lon="6.0847">
        <ele>1440</ele>
        <time>2022-03-03T12:20:58.644Z</time>
      </trkpt>
      <trkpt lat="44.16676" lon="6.0847">
        <ele>1440</ele>
        <time>2022-03-03T12:20:59.644Z</time>
      </trkpt>
      <trkpt lat="44.16676" lon="6.0847">
        <ele>1440</ele>
        <time>2022-03-03T12:21:00.644Z</time>
      </trkpt>
      <trkpt lat="44.16676" lon="6.0847">
        <ele>1440</ele>
        <time>2022-03-03T12:21:01.644Z</time>
      </trkpt>
      <trkpt lat="44.16676" lon="6.0847">
        <ele>1440</ele>
        <time>2022-03-03T12:21:02.644Z</time>
      </trkpt>
      <trkpt lat="44.16676" lon="6.0847">
        <ele>1440</ele>
        <time>2022-03-03T12:21:03.644Z</time>
      </trkpt>
      <trkpt lat="44.16676" lon="6.0847">
        <ele>1440</ele>
        <time>2022-03-03T12:21:04.644Z</time>
      </trkpt>
      <trkpt lat="44.16676" lon="6.0847">
        <ele>1440</ele>
        <time>2022-03-03T12:21:05.644Z</time>
      </trkpt>
      <trkpt lat="44.16676" lon="6.0847">
        <ele>1440</ele>
        <time>2022-03-03T12:21:06.644Z</time>
      </trkpt>
      <trkpt lat="44.16676" lon="6.0847">
        <ele>1440</ele>
        <time>2022-03-03T12:21:07.644Z</time>
      </trkpt>
      <trkpt lat="44.16676" lon="6.0847">
        <ele>1440</ele>
        <time>2022-03-03T12:21:08.644Z</time>
      </trkpt>
      <trkpt lat="44.16676" lon="6.0847">
        <ele>1440</ele>
        <time>2022-03-03T12:21:09.644Z</time>
      </trkpt>
      <trkpt lat="44.16676" lon="6.0847">
        <ele>1440</ele>
        <time>2022-03-03T12:21:10.644Z</time>
      </trkpt>
      <trkpt lat="44.16676" lon="6.0847">
        <ele>1440</ele>
        <time>2022-03-03T12:21:11.644Z</time>
      </trkpt>
      <trkpt lat="44.16676" lon="6.0847">
        <ele>1440</ele>
        <time>2022-03-03T12:21:12.644Z</time>
      </trkpt>
      <trkpt lat="44.16676" lon="6.0847">
        <ele>1440</ele>
        <time>2022-03-03T12:21:13.644Z</time>
      </trkpt>
      <trkpt lat="44.16676" lon="6.0847">
        <ele>1440</ele>
        <time>2022-03-03T12:21:14.644Z</time>
      </trkpt>
      <trkpt lat="44.16676" lon="6.0847">
        <ele>1440</ele>
        <time>2022-03-03T12:21:15.644Z</time>
      </trkpt>
      <trkpt lat="44.16676" lon="6.0847">
        <ele>1440</ele>
        <time>2022-03-03T12:21:16.644Z</time>
      </trkpt>
      <trkpt lat="44.16676" lon="6.0847">
        <ele>1440</ele>
        <time>2022-03-03T12:21:17.644Z</time>
      </trkpt>
      <trkpt lat="44.16676" lon="6.0847">
        <ele>1440</ele>
        <time>2022-03-03T12:21:18.644Z</time>
      </trkpt>
      <trkpt lat="44.16676" lon="6.0847">
        <ele>1440</ele>
        <time>2022-03-03T12:21:19.644Z</time>
      </trkpt>
      <trkpt lat="44.16676" lon="6.0847">
        <ele>1440</ele>
        <time>2022-03-03T12:21:20.644Z</time>
      </trkpt>
      <trkpt lat="44.16676" lon="6.0847">
        <ele>1440</ele>
        <time>2022-03-03T12:21:21.644Z</time>
      </trkpt>
      <trkpt lat="44.16676" lon="6.0847">
        <ele>1440</ele>
        <time>2022-03-03T12:21:22.644Z</time>
      </trkpt>
      <trkpt lat="44.16676" lon="6.0847">
        <ele>1440</ele>
        <time>2022-03-03T12:21:23.644Z</time>
      </trkpt>
      <trkpt lat="44.16676" lon="6.0847">
        <ele>1440</ele>
        <time>2022-03-03T12:21:24.644Z</time>
      </trkpt>
      <trkpt lat="44.16676" lon="6.0847">
        <ele>1440</ele>
        <time>2022-03-03T12:21:25.644Z</time>
      </trkpt>
      <trkpt lat="44.16676" lon="6.0847">
        <ele>1440</ele>
        <time>2022-03-03T12:21:26.644Z</time>
      </trkpt>
      <trkpt lat="44.16676" lon="6.0847">
        <ele>1440</ele>
        <time>2022-03-03T12:21:27.644Z</time>
      </trkpt>
      <trkpt lat="44.16676" lon="6.0847">
        <ele>1440</ele>
        <time>2022-03-03T12:21:28.644Z</time>
      </trkpt>
      <trkpt lat="44.16676" lon="6.0847">
        <ele>1440</ele>
        <time>2022-03-03T12:21:29.644Z</time>
      </trkpt>
      <trkpt lat="44.16676" lon="6.0847">
        <ele>1440</ele>
        <time>2022-03-03T12:21:30.644Z</time>
      </trkpt>
      <trkpt lat="44.16676" lon="6.0847">
        <ele>1440</ele>
        <time>2022-03-03T12:21:31.644Z</time>
      </trkpt>
      <trkpt lat="44.16676" lon="6.0847">
        <ele>1440</ele>
        <time>2022-03-03T12:21:32.644Z</time>
      </trkpt>
      <trkpt lat="44.16676" lon="6.0847">
        <ele>1440</ele>
        <time>2022-03-03T12:21:33.644Z</time>
      </trkpt>
      <trkpt lat="44.16676" lon="6.0847">
        <ele>1440</ele>
        <time>2022-03-03T12:21:34.644Z</time>
      </trkpt>
      <trkpt lat="44.16676" lon="6.0847">
        <ele>1440</ele>
        <time>2022-03-03T12:21:35.644Z</time>
      </trkpt>
      <trkpt lat="44.16676" lon="6.0847">
        <ele>1440</ele>
        <time>2022-03-03T12:21:36.644Z</time>
      </trkpt>
      <trkpt lat="44.16676" lon="6.0847">
        <ele>1440</ele>
        <time>2022-03-03T12:21:37.644Z</time>
      </trkpt>
      <trkpt lat="44.16676" lon="6.0847">
        <ele>1440</ele>
        <time>2022-03-03T12:21:38.644Z</time>
      </trkpt>
      <trkpt lat="44.16676" lon="6.08469">
        <ele>1440</ele>
        <time>2022-03-03T12:21:39.644Z</time>
      </trkpt>
      <trkpt lat="44.16676" lon="6.08469">
        <ele>1440</ele>
        <time>2022-03-03T12:21:40.644Z</time>
      </trkpt>
      <trkpt lat="44.16676" lon="6.08469">
        <ele>1440</ele>
        <time>2022-03-03T12:21:41.644Z</time>
      </trkpt>
      <trkpt lat="44.16676" lon="6.08469">
        <ele>1440</ele>
        <time>2022-03-03T12:21:42.644Z</time>
      </trkpt>
      <trkpt lat="44.16676" lon="6.08469">
        <ele>1440</ele>
        <time>2022-03-03T12:21:43.644Z</time>
      </trkpt>
      <trkpt lat="44.16676" lon="6.08469">
        <ele>1440</ele>
        <time>2022-03-03T12:21:44.644Z</time>
      </trkpt>
      <trkpt lat="44.16676" lon="6.08469">
        <ele>1440</ele>
        <time>2022-03-03T12:21:45.644Z</time>
      </trkpt>
      <trkpt lat="44.16676" lon="6.08469">
        <ele>1440</ele>
        <time>2022-03-03T12:21:46.644Z</time>
      </trkpt>
      <trkpt lat="44.16676" lon="6.08469">
        <ele>1440</ele>
        <time>2022-03-03T12:21:47.644Z</time>
      </trkpt>
      <trkpt lat="44.16681" lon="6.08482">
        <ele>1438</ele>
        <time>2022-03-03T12:21:48.644Z</time>
      </trkpt>
      <trkpt lat="44.16681" lon="6.08482">
        <ele>1438</ele>
        <time>2022-03-03T12:21:49.644Z</time>
      </trkpt>
      <trkpt lat="44.16681" lon="6.08482">
        <ele>1438</ele>
        <time>2022-03-03T12:21:50.644Z</time>
      </trkpt>
      <trkpt lat="44.16681" lon="6.08482">
        <ele>1438</ele>
        <time>2022-03-03T12:21:51.644Z</time>
      </trkpt>
      <trkpt lat="44.16681" lon="6.08482">
        <ele>1438</ele>
        <time>2022-03-03T12:21:52.644Z</time>
      </trkpt>
      <trkpt lat="44.16681" lon="6.08482">
        <ele>1438</ele>
        <time>2022-03-03T12:21:53.644Z</time>
      </trkpt>
      <trkpt lat="44.16681" lon="6.08482">
        <ele>1438</ele>
        <time>2022-03-03T12:21:54.644Z</time>
      </trkpt>
      <trkpt lat="44.16681" lon="6.08482">
        <ele>1438</ele>
        <time>2022-03-03T12:21:55.644Z</time>
      </trkpt>
      <trkpt lat="44.16681" lon="6.08482">
        <ele>1438</ele>
        <time>2022-03-03T12:21:56.644Z</time>
      </trkpt>
      <trkpt lat="44.16681" lon="6.08482">
        <ele>1438</ele>
        <time>2022-03-03T12:21:57.644Z</time>
      </trkpt>
      <trkpt lat="44.16681" lon="6.08482">
        <ele>1438</ele>
        <time>2022-03-03T12:21:58.644Z</time>
      </trkpt>
      <trkpt lat="44.16681" lon="6.08482">
        <ele>1438</ele>
        <time>2022-03-03T12:21:59.644Z</time>
      </trkpt>
      <trkpt lat="44.16681" lon="6.08482">
        <ele>1438</ele>
        <time>2022-03-03T12:22:00.644Z</time>
      </trkpt>
      <trkpt lat="44.16681" lon="6.08482">
        <ele>1438</ele>
        <time>2022-03-03T12:22:01.644Z</time>
      </trkpt>
      <trkpt lat="44.16681" lon="6.08482">
        <ele>1438</ele>
        <time>2022-03-03T12:22:02.644Z</time>
      </trkpt>
      <trkpt lat="44.16681" lon="6.08482">
        <ele>1438</ele>
        <time>2022-03-03T12:22:03.644Z</time>
      </trkpt>
      <trkpt lat="44.16681" lon="6.08482">
        <ele>1438</ele>
        <time>2022-03-03T12:22:04.644Z</time>
      </trkpt>
      <trkpt lat="44.16681" lon="6.08482">
        <ele>1438</ele>
        <time>2022-03-03T12:22:05.644Z</time>
      </trkpt>
      <trkpt lat="44.16681" lon="6.08482">
        <ele>1438</ele>
        <time>2022-03-03T12:22:06.644Z</time>
      </trkpt>
      <trkpt lat="44.16681" lon="6.08482">
        <ele>1438</ele>
        <time>2022-03-03T12:22:07.644Z</time>
      </trkpt>
      <trkpt lat="44.16681" lon="6.08482">
        <ele>1438</ele>
        <time>2022-03-03T12:22:08.644Z</time>
      </trkpt>
      <trkpt lat="44.16681" lon="6.08482">
        <ele>1438</ele>
        <time>2022-03-03T12:22:09.644Z</time>
      </trkpt>
      <trkpt lat="44.16681" lon="6.08482">
        <ele>1438</ele>
        <time>2022-03-03T12:22:10.644Z</time>
      </trkpt>
      <trkpt lat="44.16681" lon="6.08482">
        <ele>1438</ele>
        <time>2022-03-03T12:22:11.644Z</time>
      </trkpt>
      <trkpt lat="44.16681" lon="6.08482">
        <ele>1438</ele>
        <time>2022-03-03T12:22:12.644Z</time>
      </trkpt>
      <trkpt lat="44.16681" lon="6.08482">
        <ele>1438</ele>
        <time>2022-03-03T12:22:13.644Z</time>
      </trkpt>
      <trkpt lat="44.16681" lon="6.08482">
        <ele>1438</ele>
        <time>2022-03-03T12:22:14.644Z</time>
      </trkpt>
      <trkpt lat="44.16681" lon="6.08482">
        <ele>1438</ele>
        <time>2022-03-03T12:22:15.644Z</time>
      </trkpt>
      <trkpt lat="44.16681" lon="6.08481">
        <ele>1438</ele>
        <time>2022-03-03T12:22:16.644Z</time>
      </trkpt>
      <trkpt lat="44.16681" lon="6.08481">
        <ele>1438</ele>
        <time>2022-03-03T12:22:17.644Z</time>
      </trkpt>
      <trkpt lat="44.16681" lon="6.08481">
        <ele>1438</ele>
        <time>2022-03-03T12:22:18.644Z</time>
      </trkpt>
      <trkpt lat="44.16681" lon="6.08481">
        <ele>1438</ele>
        <time>2022-03-03T12:22:19.644Z</time>
      </trkpt>
      <trkpt lat="44.16681" lon="6.08481">
        <ele>1438</ele>
        <time>2022-03-03T12:22:20.644Z</time>
      </trkpt>
      <trkpt lat="44.16681" lon="6.08481">
        <ele>1438</ele>
        <time>2022-03-03T12:22:21.644Z</time>
      </trkpt>
      <trkpt lat="44.16681" lon="6.08481">
        <ele>1438</ele>
        <time>2022-03-03T12:22:22.644Z</time>
      </trkpt>
      <trkpt lat="44.16681" lon="6.08481">
        <ele>1437</ele>
        <time>2022-03-03T12:22:23.644Z</time>
      </trkpt>
      <trkpt lat="44.16681" lon="6.08482">
        <ele>1437</ele>
        <time>2022-03-03T12:22:24.644Z</time>
      </trkpt>
      <trkpt lat="44.16681" lon="6.08482">
        <ele>1437</ele>
        <time>2022-03-03T12:22:25.644Z</time>
      </trkpt>
      <trkpt lat="44.16681" lon="6.08482">
        <ele>1437</ele>
        <time>2022-03-03T12:22:26.644Z</time>
      </trkpt>
      <trkpt lat="44.16681" lon="6.08482">
        <ele>1437</ele>
        <time>2022-03-03T12:22:27.644Z</time>
      </trkpt>
      <trkpt lat="44.16681" lon="6.08482">
        <ele>1437</ele>
        <time>2022-03-03T12:22:28.644Z</time>
      </trkpt>
      <trkpt lat="44.16681" lon="6.08482">
        <ele>1437</ele>
        <time>2022-03-03T12:22:29.644Z</time>
      </trkpt>
      <trkpt lat="44.1668" lon="6.08482">
        <ele>1437</ele>
        <time>2022-03-03T12:22:30.644Z</time>
      </trkpt>
      <trkpt lat="44.1668" lon="6.08482">
        <ele>1437</ele>
        <time>2022-03-03T12:22:31.644Z</time>
      </trkpt>
      <trkpt lat="44.1668" lon="6.08481">
        <ele>1437</ele>
        <time>2022-03-03T12:22:32.644Z</time>
      </trkpt>
      <trkpt lat="44.1668" lon="6.08481">
        <ele>1437</ele>
        <time>2022-03-03T12:22:33.644Z</time>
      </trkpt>
      <trkpt lat="44.1668" lon="6.08481">
        <ele>1437</ele>
        <time>2022-03-03T12:22:34.644Z</time>
      </trkpt>
      <trkpt lat="44.1668" lon="6.08481">
        <ele>1437</ele>
        <time>2022-03-03T12:22:35.644Z</time>
      </trkpt>
      <trkpt lat="44.1668" lon="6.08481">
        <ele>1437</ele>
        <time>2022-03-03T12:22:36.644Z</time>
      </trkpt>
      <trkpt lat="44.1668" lon="6.08481">
        <ele>1437</ele>
        <time>2022-03-03T12:22:37.644Z</time>
      </trkpt>
      <trkpt lat="44.1668" lon="6.08481">
        <ele>1437</ele>
        <time>2022-03-03T12:22:38.644Z</time>
      </trkpt>
      <trkpt lat="44.1668" lon="6.08481">
        <ele>1437</ele>
        <time>2022-03-03T12:22:39.644Z</time>
      </trkpt>
      <trkpt lat="44.1668" lon="6.08481">
        <ele>1437</ele>
        <time>2022-03-03T12:22:40.644Z</time>
      </trkpt>
      <trkpt lat="44.1668" lon="6.08481">
        <ele>1437</ele>
        <time>2022-03-03T12:22:41.644Z</time>
      </trkpt>
      <trkpt lat="44.1668" lon="6.08481">
        <ele>1437</ele>
        <time>2022-03-03T12:22:42.644Z</time>
      </trkpt>
      <trkpt lat="44.1668" lon="6.08481">
        <ele>1437</ele>
        <time>2022-03-03T12:22:43.644Z</time>
      </trkpt>
      <trkpt lat="44.1668" lon="6.08481">
        <ele>1437</ele>
        <time>2022-03-03T12:22:44.644Z</time>
      </trkpt>
      <trkpt lat="44.1668" lon="6.08481">
        <ele>1437</ele>
        <time>2022-03-03T12:22:45.644Z</time>
      </trkpt>
      <trkpt lat="44.1668" lon="6.08481">
        <ele>1437</ele>
        <time>2022-03-03T12:22:46.644Z</time>
      </trkpt>
      <trkpt lat="44.1668" lon="6.08481">
        <ele>1437</ele>
        <time>2022-03-03T12:22:47.644Z</time>
      </trkpt>
      <trkpt lat="44.1668" lon="6.08481">
        <ele>1437</ele>
        <time>2022-03-03T12:22:48.644Z</time>
      </trkpt>
      <trkpt lat="44.1668" lon="6.08481">
        <ele>1437</ele>
        <time>2022-03-03T12:22:49.644Z</time>
      </trkpt>
      <trkpt lat="44.1668" lon="6.08481">
        <ele>1437</ele>
        <time>2022-03-03T12:22:50.644Z</time>
      </trkpt>
      <trkpt lat="44.1668" lon="6.08481">
        <ele>1437</ele>
        <time>2022-03-03T12:22:51.644Z</time>
      </trkpt>
      <trkpt lat="44.1668" lon="6.08481">
        <ele>1437</ele>
        <time>2022-03-03T12:22:52.644Z</time>
      </trkpt>
      <trkpt lat="44.1668" lon="6.08481">
        <ele>1436</ele>
        <time>2022-03-03T12:22:53.644Z</time>
      </trkpt>
      <trkpt lat="44.1668" lon="6.08481">
        <ele>1436</ele>
        <time>2022-03-03T12:22:54.644Z</time>
      </trkpt>
      <trkpt lat="44.1668" lon="6.08481">
        <ele>1436</ele>
        <time>2022-03-03T12:22:55.644Z</time>
      </trkpt>
      <trkpt lat="44.1668" lon="6.08481">
        <ele>1436</ele>
        <time>2022-03-03T12:22:56.644Z</time>
      </trkpt>
      <trkpt lat="44.1668" lon="6.08481">
        <ele>1436</ele>
        <time>2022-03-03T12:22:57.644Z</time>
      </trkpt>
      <trkpt lat="44.1668" lon="6.08481">
        <ele>1436</ele>
        <time>2022-03-03T12:22:58.644Z</time>
      </trkpt>
      <trkpt lat="44.1668" lon="6.08481">
        <ele>1436</ele>
        <time>2022-03-03T12:22:59.644Z</time>
      </trkpt>
      <trkpt lat="44.1668" lon="6.08481">
        <ele>1436</ele>
        <time>2022-03-03T12:23:00.644Z</time>
      </trkpt>
      <trkpt lat="44.1668" lon="6.08481">
        <ele>1436</ele>
        <time>2022-03-03T12:23:01.644Z</time>
      </trkpt>
      <trkpt lat="44.1668" lon="6.08481">
        <ele>1436</ele>
        <time>2022-03-03T12:23:02.644Z</time>
      </trkpt>
      <trkpt lat="44.1668" lon="6.08481">
        <ele>1436</ele>
        <time>2022-03-03T12:23:03.644Z</time>
      </trkpt>
      <trkpt lat="44.1668" lon="6.0848">
        <ele>1436</ele>
        <time>2022-03-03T12:23:04.644Z</time>
      </trkpt>
      <trkpt lat="44.1668" lon="6.0848">
        <ele>1436</ele>
        <time>2022-03-03T12:23:05.644Z</time>
      </trkpt>
      <trkpt lat="44.16681" lon="6.0848">
        <ele>1436</ele>
        <time>2022-03-03T12:23:06.644Z</time>
      </trkpt>
      <trkpt lat="44.16681" lon="6.0848">
        <ele>1436</ele>
        <time>2022-03-03T12:23:07.644Z</time>
      </trkpt>
      <trkpt lat="44.16681" lon="6.0848">
        <ele>1436</ele>
        <time>2022-03-03T12:23:08.644Z</time>
      </trkpt>
      <trkpt lat="44.16682" lon="6.0848">
        <ele>1436</ele>
        <time>2022-03-03T12:23:09.644Z</time>
      </trkpt>
      <trkpt lat="44.16682" lon="6.0848">
        <ele>1436</ele>
        <time>2022-03-03T12:23:10.644Z</time>
      </trkpt>
      <trkpt lat="44.16682" lon="6.0848">
        <ele>1436</ele>
        <time>2022-03-03T12:23:11.644Z</time>
      </trkpt>
      <trkpt lat="44.16682" lon="6.0848">
        <ele>1436</ele>
        <time>2022-03-03T12:23:12.644Z</time>
      </trkpt>
      <trkpt lat="44.16682" lon="6.0848">
        <ele>1436</ele>
        <time>2022-03-03T12:23:13.644Z</time>
      </trkpt>
      <trkpt lat="44.16682" lon="6.08481">
        <ele>1436</ele>
        <time>2022-03-03T12:23:14.644Z</time>
      </trkpt>
      <trkpt lat="44.16682" lon="6.08481">
        <ele>1436</ele>
        <time>2022-03-03T12:23:15.644Z</time>
      </trkpt>
      <trkpt lat="44.16682" lon="6.0848">
        <ele>1436</ele>
        <time>2022-03-03T12:23:16.644Z</time>
      </trkpt>
      <trkpt lat="44.16682" lon="6.0848">
        <ele>1436</ele>
        <time>2022-03-03T12:23:17.644Z</time>
      </trkpt>
      <trkpt lat="44.16682" lon="6.0848">
        <ele>1436</ele>
        <time>2022-03-03T12:23:18.644Z</time>
      </trkpt>
      <trkpt lat="44.16682" lon="6.0848">
        <ele>1436</ele>
        <time>2022-03-03T12:23:19.644Z</time>
      </trkpt>
      <trkpt lat="44.16682" lon="6.0848">
        <ele>1436</ele>
        <time>2022-03-03T12:23:20.644Z</time>
      </trkpt>
      <trkpt lat="44.16682" lon="6.0848">
        <ele>1436</ele>
        <time>2022-03-03T12:23:21.644Z</time>
      </trkpt>
      <trkpt lat="44.16682" lon="6.0848">
        <ele>1436</ele>
        <time>2022-03-03T12:23:22.644Z</time>
      </trkpt>
      <trkpt lat="44.16682" lon="6.0848">
        <ele>1436</ele>
        <time>2022-03-03T12:23:23.644Z</time>
      </trkpt>
      <trkpt lat="44.16682" lon="6.0848">
        <ele>1436</ele>
        <time>2022-03-03T12:23:24.644Z</time>
      </trkpt>
      <trkpt lat="44.16682" lon="6.0848">
        <ele>1436</ele>
        <time>2022-03-03T12:23:25.644Z</time>
      </trkpt>
      <trkpt lat="44.16682" lon="6.08481">
        <ele>1436</ele>
        <time>2022-03-03T12:23:26.644Z</time>
      </trkpt>
      <trkpt lat="44.16682" lon="6.08481">
        <ele>1436</ele>
        <time>2022-03-03T12:23:27.644Z</time>
      </trkpt>
      <trkpt lat="44.16682" lon="6.08481">
        <ele>1436</ele>
        <time>2022-03-03T12:23:28.644Z</time>
      </trkpt>
      <trkpt lat="44.16682" lon="6.08481">
        <ele>1436</ele>
        <time>2022-03-03T12:23:29.644Z</time>
      </trkpt>
      <trkpt lat="44.16682" lon="6.08481">
        <ele>1436</ele>
        <time>2022-03-03T12:23:30.644Z</time>
      </trkpt>
      <trkpt lat="44.16681" lon="6.08481">
        <ele>1436</ele>
        <time>2022-03-03T12:23:31.644Z</time>
      </trkpt>
      <trkpt lat="44.16681" lon="6.0848">
        <ele>1436</ele>
        <time>2022-03-03T12:23:32.644Z</time>
      </trkpt>
      <trkpt lat="44.16681" lon="6.0848">
        <ele>1436</ele>
        <time>2022-03-03T12:23:33.644Z</time>
      </trkpt>
      <trkpt lat="44.16681" lon="6.0848">
        <ele>1436</ele>
        <time>2022-03-03T12:23:34.644Z</time>
      </trkpt>
      <trkpt lat="44.16682" lon="6.0848">
        <ele>1436</ele>
        <time>2022-03-03T12:23:35.644Z</time>
      </trkpt>
      <trkpt lat="44.16681" lon="6.0848">
        <ele>1436</ele>
        <time>2022-03-03T12:23:36.644Z</time>
      </trkpt>
      <trkpt lat="44.16681" lon="6.0848">
        <ele>1436</ele>
        <time>2022-03-03T12:23:37.644Z</time>
      </trkpt>
      <trkpt lat="44.16681" lon="6.08481">
        <ele>1436</ele>
        <time>2022-03-03T12:23:38.644Z</time>
      </trkpt>
      <trkpt lat="44.16681" lon="6.08481">
        <ele>1436</ele>
        <time>2022-03-03T12:23:39.644Z</time>
      </trkpt>
      <trkpt lat="44.16681" lon="6.08481">
        <ele>1436</ele>
        <time>2022-03-03T12:23:40.644Z</time>
      </trkpt>
      <trkpt lat="44.16681" lon="6.08481">
        <ele>1435</ele>
        <time>2022-03-03T12:23:41.644Z</time>
      </trkpt>
      <trkpt lat="44.16681" lon="6.08481">
        <ele>1435</ele>
        <time>2022-03-03T12:23:42.644Z</time>
      </trkpt>
      <trkpt lat="44.16681" lon="6.08481">
        <ele>1435</ele>
        <time>2022-03-03T12:23:43.644Z</time>
      </trkpt>
      <trkpt lat="44.16681" lon="6.08481">
        <ele>1435</ele>
        <time>2022-03-03T12:23:44.644Z</time>
      </trkpt>
      <trkpt lat="44.16681" lon="6.08481">
        <ele>1435</ele>
        <time>2022-03-03T12:23:45.644Z</time>
      </trkpt>
      <trkpt lat="44.16681" lon="6.08481">
        <ele>1435</ele>
        <time>2022-03-03T12:23:46.644Z</time>
      </trkpt>
      <trkpt lat="44.16681" lon="6.08481">
        <ele>1435</ele>
        <time>2022-03-03T12:23:47.644Z</time>
      </trkpt>
      <trkpt lat="44.16681" lon="6.08481">
        <ele>1435</ele>
        <time>2022-03-03T12:23:48.644Z</time>
      </trkpt>
      <trkpt lat="44.16681" lon="6.08481">
        <ele>1435</ele>
        <time>2022-03-03T12:23:49.644Z</time>
      </trkpt>
      <trkpt lat="44.16681" lon="6.08481">
        <ele>1435</ele>
        <time>2022-03-03T12:23:50.644Z</time>
      </trkpt>
      <trkpt lat="44.16681" lon="6.08481">
        <ele>1436</ele>
        <time>2022-03-03T12:23:51.644Z</time>
      </trkpt>
      <trkpt lat="44.16681" lon="6.08481">
        <ele>1435</ele>
        <time>2022-03-03T12:23:52.644Z</time>
      </trkpt>
      <trkpt lat="44.16681" lon="6.08481">
        <ele>1435</ele>
        <time>2022-03-03T12:23:53.644Z</time>
      </trkpt>
      <trkpt lat="44.16681" lon="6.08481">
        <ele>1435</ele>
        <time>2022-03-03T12:23:54.644Z</time>
      </trkpt>
      <trkpt lat="44.16681" lon="6.08481">
        <ele>1435</ele>
        <time>2022-03-03T12:23:55.644Z</time>
      </trkpt>
      <trkpt lat="44.16681" lon="6.08481">
        <ele>1435</ele>
        <time>2022-03-03T12:23:56.644Z</time>
      </trkpt>
      <trkpt lat="44.16681" lon="6.08481">
        <ele>1435</ele>
        <time>2022-03-03T12:23:57.644Z</time>
      </trkpt>
      <trkpt lat="44.16681" lon="6.08481">
        <ele>1436</ele>
        <time>2022-03-03T12:23:58.644Z</time>
      </trkpt>
      <trkpt lat="44.16681" lon="6.08481">
        <ele>1436</ele>
        <time>2022-03-03T12:23:59.644Z</time>
      </trkpt>
      <trkpt lat="44.16681" lon="6.08481">
        <ele>1436</ele>
        <time>2022-03-03T12:24:00.644Z</time>
      </trkpt>
      <trkpt lat="44.16681" lon="6.08481">
        <ele>1436</ele>
        <time>2022-03-03T12:24:01.644Z</time>
      </trkpt>
      <trkpt lat="44.16681" lon="6.08481">
        <ele>1436</ele>
        <time>2022-03-03T12:24:02.644Z</time>
      </trkpt>
      <trkpt lat="44.16681" lon="6.08481">
        <ele>1436</ele>
        <time>2022-03-03T12:24:03.644Z</time>
      </trkpt>
      <trkpt lat="44.16681" lon="6.08481">
        <ele>1436</ele>
        <time>2022-03-03T12:24:04.644Z</time>
      </trkpt>
      <trkpt lat="44.16681" lon="6.08481">
        <ele>1436</ele>
        <time>2022-03-03T12:24:05.644Z</time>
      </trkpt>
      <trkpt lat="44.16681" lon="6.08481">
        <ele>1436</ele>
        <time>2022-03-03T12:24:06.644Z</time>
      </trkpt>
      <trkpt lat="44.16681" lon="6.08481">
        <ele>1436</ele>
        <time>2022-03-03T12:24:07.644Z</time>
      </trkpt>
      <trkpt lat="44.16681" lon="6.08481">
        <ele>1436</ele>
        <time>2022-03-03T12:24:08.644Z</time>
      </trkpt>
      <trkpt lat="44.16681" lon="6.08481">
        <ele>1436</ele>
        <time>2022-03-03T12:24:09.644Z</time>
      </trkpt>
      <trkpt lat="44.16681" lon="6.08481">
        <ele>1436</ele>
        <time>2022-03-03T12:24:10.644Z</time>
      </trkpt>
      <trkpt lat="44.16682" lon="6.08481">
        <ele>1436</ele>
        <time>2022-03-03T12:24:11.644Z</time>
      </trkpt>
      <trkpt lat="44.16682" lon="6.08481">
        <ele>1436</ele>
        <time>2022-03-03T12:24:12.644Z</time>
      </trkpt>
      <trkpt lat="44.16682" lon="6.08481">
        <ele>1436</ele>
        <time>2022-03-03T12:24:13.644Z</time>
      </trkpt>
      <trkpt lat="44.16682" lon="6.08481">
        <ele>1436</ele>
        <time>2022-03-03T12:24:14.644Z</time>
      </trkpt>
      <trkpt lat="44.16682" lon="6.08481">
        <ele>1436</ele>
        <time>2022-03-03T12:24:15.644Z</time>
      </trkpt>
      <trkpt lat="44.16682" lon="6.08481">
        <ele>1436</ele>
        <time>2022-03-03T12:24:16.644Z</time>
      </trkpt>
      <trkpt lat="44.16682" lon="6.08481">
        <ele>1436</ele>
        <time>2022-03-03T12:24:17.644Z</time>
      </trkpt>
      <trkpt lat="44.16682" lon="6.08481">
        <ele>1436</ele>
        <time>2022-03-03T12:24:18.644Z</time>
      </trkpt>
      <trkpt lat="44.16682" lon="6.08481">
        <ele>1436</ele>
        <time>2022-03-03T12:24:19.644Z</time>
      </trkpt>
      <trkpt lat="44.16682" lon="6.08481">
        <ele>1436</ele>
        <time>2022-03-03T12:24:20.644Z</time>
      </trkpt>
      <trkpt lat="44.16682" lon="6.08481">
        <ele>1436</ele>
        <time>2022-03-03T12:24:21.644Z</time>
      </trkpt>
      <trkpt lat="44.16682" lon="6.08481">
        <ele>1436</ele>
        <time>2022-03-03T12:24:22.644Z</time>
      </trkpt>
      <trkpt lat="44.16682" lon="6.08481">
        <ele>1436</ele>
        <time>2022-03-03T12:24:23.644Z</time>
      </trkpt>
      <trkpt lat="44.16682" lon="6.0848">
        <ele>1436</ele>
        <time>2022-03-03T12:24:24.644Z</time>
      </trkpt>
      <trkpt lat="44.16683" lon="6.0848">
        <ele>1436</ele>
        <time>2022-03-03T12:24:25.644Z</time>
      </trkpt>
      <trkpt lat="44.16683" lon="6.0848">
        <ele>1436</ele>
        <time>2022-03-03T12:24:26.644Z</time>
      </trkpt>
      <trkpt lat="44.16683" lon="6.0848">
        <ele>1436</ele>
        <time>2022-03-03T12:24:27.644Z</time>
      </trkpt>
      <trkpt lat="44.16683" lon="6.08481">
        <ele>1436</ele>
        <time>2022-03-03T12:24:28.644Z</time>
      </trkpt>
      <trkpt lat="44.16683" lon="6.08481">
        <ele>1436</ele>
        <time>2022-03-03T12:24:29.644Z</time>
      </trkpt>
      <trkpt lat="44.16683" lon="6.08481">
        <ele>1436</ele>
        <time>2022-03-03T12:24:30.644Z</time>
      </trkpt>
      <trkpt lat="44.16683" lon="6.08481">
        <ele>1436</ele>
        <time>2022-03-03T12:24:31.644Z</time>
      </trkpt>
      <trkpt lat="44.16683" lon="6.08481">
        <ele>1436</ele>
        <time>2022-03-03T12:24:32.644Z</time>
      </trkpt>
      <trkpt lat="44.16683" lon="6.08481">
        <ele>1436</ele>
        <time>2022-03-03T12:24:33.644Z</time>
      </trkpt>
      <trkpt lat="44.16683" lon="6.08481">
        <ele>1436</ele>
        <time>2022-03-03T12:24:34.644Z</time>
      </trkpt>
      <trkpt lat="44.16683" lon="6.08481">
        <ele>1436</ele>
        <time>2022-03-03T12:24:35.644Z</time>
      </trkpt>
      <trkpt lat="44.16683" lon="6.08481">
        <ele>1436</ele>
        <time>2022-03-03T12:24:36.644Z</time>
      </trkpt>
      <trkpt lat="44.16683" lon="6.08481">
        <ele>1436</ele>
        <time>2022-03-03T12:24:37.644Z</time>
      </trkpt>
      <trkpt lat="44.16683" lon="6.08481">
        <ele>1436</ele>
        <time>2022-03-03T12:24:38.644Z</time>
      </trkpt>
      <trkpt lat="44.16683" lon="6.08481">
        <ele>1436</ele>
        <time>2022-03-03T12:24:39.644Z</time>
      </trkpt>
      <trkpt lat="44.16683" lon="6.08481">
        <ele>1436</ele>
        <time>2022-03-03T12:24:40.644Z</time>
      </trkpt>
      <trkpt lat="44.16683" lon="6.08481">
        <ele>1436</ele>
        <time>2022-03-03T12:24:41.644Z</time>
      </trkpt>
      <trkpt lat="44.16683" lon="6.08481">
        <ele>1436</ele>
        <time>2022-03-03T12:24:42.644Z</time>
      </trkpt>
      <trkpt lat="44.16684" lon="6.0848">
        <ele>1436</ele>
        <time>2022-03-03T12:24:43.644Z</time>
      </trkpt>
      <trkpt lat="44.16684" lon="6.0848">
        <ele>1436</ele>
        <time>2022-03-03T12:24:44.644Z</time>
      </trkpt>
      <trkpt lat="44.16685" lon="6.0848">
        <ele>1436</ele>
        <time>2022-03-03T12:24:45.644Z</time>
      </trkpt>
      <trkpt lat="44.16686" lon="6.08479">
        <ele>1435</ele>
        <time>2022-03-03T12:24:46.644Z</time>
      </trkpt>
      <trkpt lat="44.16686" lon="6.08478">
        <ele>1435</ele>
        <time>2022-03-03T12:24:47.644Z</time>
      </trkpt>
      <trkpt lat="44.16687" lon="6.08478">
        <ele>1435</ele>
        <time>2022-03-03T12:24:48.644Z</time>
      </trkpt>
      <trkpt lat="44.16687" lon="6.08478">
        <ele>1435</ele>
        <time>2022-03-03T12:24:49.644Z</time>
      </trkpt>
      <trkpt lat="44.16688" lon="6.08478">
        <ele>1435</ele>
        <time>2022-03-03T12:24:50.644Z</time>
      </trkpt>
      <trkpt lat="44.16689" lon="6.08478">
        <ele>1435</ele>
        <time>2022-03-03T12:24:51.644Z</time>
      </trkpt>
      <trkpt lat="44.16689" lon="6.08479">
        <ele>1435</ele>
        <time>2022-03-03T12:24:52.644Z</time>
      </trkpt>
      <trkpt lat="44.1669" lon="6.08479">
        <ele>1435</ele>
        <time>2022-03-03T12:24:53.644Z</time>
      </trkpt>
      <trkpt lat="44.16691" lon="6.08479">
        <ele>1435</ele>
        <time>2022-03-03T12:24:54.644Z</time>
      </trkpt>
      <trkpt lat="44.16692" lon="6.0848">
        <ele>1435</ele>
        <time>2022-03-03T12:24:55.644Z</time>
      </trkpt>
      <trkpt lat="44.16692" lon="6.0848">
        <ele>1434</ele>
        <time>2022-03-03T12:24:56.644Z</time>
      </trkpt>
      <trkpt lat="44.16693" lon="6.0848">
        <ele>1434</ele>
        <time>2022-03-03T12:24:57.644Z</time>
      </trkpt>
      <trkpt lat="44.16694" lon="6.08481">
        <ele>1434</ele>
        <time>2022-03-03T12:24:58.644Z</time>
      </trkpt>
      <trkpt lat="44.16695" lon="6.08481">
        <ele>1434</ele>
        <time>2022-03-03T12:24:59.644Z</time>
      </trkpt>
      <trkpt lat="44.16695" lon="6.08481">
        <ele>1434</ele>
        <time>2022-03-03T12:25:00.644Z</time>
      </trkpt>
      <trkpt lat="44.16696" lon="6.08481">
        <ele>1434</ele>
        <time>2022-03-03T12:25:01.644Z</time>
      </trkpt>
      <trkpt lat="44.16697" lon="6.08481">
        <ele>1434</ele>
        <time>2022-03-03T12:25:02.644Z</time>
      </trkpt>
      <trkpt lat="44.16698" lon="6.08481">
        <ele>1433</ele>
        <time>2022-03-03T12:25:03.644Z</time>
      </trkpt>
      <trkpt lat="44.16698" lon="6.08481">
        <ele>1433</ele>
        <time>2022-03-03T12:25:04.644Z</time>
      </trkpt>
      <trkpt lat="44.16699" lon="6.08481">
        <ele>1433</ele>
        <time>2022-03-03T12:25:05.644Z</time>
      </trkpt>
      <trkpt lat="44.167" lon="6.0848">
        <ele>1433</ele>
        <time>2022-03-03T12:25:06.644Z</time>
      </trkpt>
      <trkpt lat="44.16701" lon="6.0848">
        <ele>1433</ele>
        <time>2022-03-03T12:25:07.644Z</time>
      </trkpt>
      <trkpt lat="44.16702" lon="6.0848">
        <ele>1433</ele>
        <time>2022-03-03T12:25:08.644Z</time>
      </trkpt>
      <trkpt lat="44.16703" lon="6.0848">
        <ele>1432</ele>
        <time>2022-03-03T12:25:09.644Z</time>
      </trkpt>
      <trkpt lat="44.16704" lon="6.0848">
        <ele>1432</ele>
        <time>2022-03-03T12:25:10.644Z</time>
      </trkpt>
      <trkpt lat="44.16704" lon="6.0848">
        <ele>1432</ele>
        <time>2022-03-03T12:25:11.644Z</time>
      </trkpt>
      <trkpt lat="44.16705" lon="6.0848">
        <ele>1432</ele>
        <time>2022-03-03T12:25:12.644Z</time>
      </trkpt>
      <trkpt lat="44.16706" lon="6.0848">
        <ele>1432</ele>
        <time>2022-03-03T12:25:13.644Z</time>
      </trkpt>
      <trkpt lat="44.16706" lon="6.0848">
        <ele>1432</ele>
        <time>2022-03-03T12:25:14.644Z</time>
      </trkpt>
      <trkpt lat="44.16707" lon="6.0848">
        <ele>1432</ele>
        <time>2022-03-03T12:25:15.644Z</time>
      </trkpt>
      <trkpt lat="44.16708" lon="6.0848">
        <ele>1432</ele>
        <time>2022-03-03T12:25:16.644Z</time>
      </trkpt>
      <trkpt lat="44.16709" lon="6.0848">
        <ele>1432</ele>
        <time>2022-03-03T12:25:17.644Z</time>
      </trkpt>
      <trkpt lat="44.1671" lon="6.0848">
        <ele>1432</ele>
        <time>2022-03-03T12:25:18.644Z</time>
      </trkpt>
      <trkpt lat="44.16711" lon="6.0848">
        <ele>1432</ele>
        <time>2022-03-03T12:25:19.644Z</time>
      </trkpt>
      <trkpt lat="44.16711" lon="6.08479">
        <ele>1431</ele>
        <time>2022-03-03T12:25:20.644Z</time>
      </trkpt>
      <trkpt lat="44.16712" lon="6.08479">
        <ele>1431</ele>
        <time>2022-03-03T12:25:21.644Z</time>
      </trkpt>
      <trkpt lat="44.16713" lon="6.08478">
        <ele>1431</ele>
        <time>2022-03-03T12:25:22.644Z</time>
      </trkpt>
      <trkpt lat="44.16714" lon="6.08478">
        <ele>1431</ele>
        <time>2022-03-03T12:25:23.644Z</time>
      </trkpt>
      <trkpt lat="44.16715" lon="6.08479">
        <ele>1431</ele>
        <time>2022-03-03T12:25:24.644Z</time>
      </trkpt>
      <trkpt lat="44.16716" lon="6.08479">
        <ele>1431</ele>
        <time>2022-03-03T12:25:25.644Z</time>
      </trkpt>
      <trkpt lat="44.16717" lon="6.08479">
        <ele>1431</ele>
        <time>2022-03-03T12:25:26.644Z</time>
      </trkpt>
      <trkpt lat="44.16718" lon="6.0848">
        <ele>1431</ele>
        <time>2022-03-03T12:25:27.644Z</time>
      </trkpt>
      <trkpt lat="44.16719" lon="6.08481">
        <ele>1431</ele>
        <time>2022-03-03T12:25:28.644Z</time>
      </trkpt>
      <trkpt lat="44.1672" lon="6.08481">
        <ele>1431</ele>
        <time>2022-03-03T12:25:29.644Z</time>
      </trkpt>
      <trkpt lat="44.16721" lon="6.08481">
        <ele>1431</ele>
        <time>2022-03-03T12:25:30.644Z</time>
      </trkpt>
      <trkpt lat="44.16722" lon="6.08482">
        <ele>1431</ele>
        <time>2022-03-03T12:25:31.644Z</time>
      </trkpt>
      <trkpt lat="44.16724" lon="6.08482">
        <ele>1431</ele>
        <time>2022-03-03T12:25:32.644Z</time>
      </trkpt>
      <trkpt lat="44.16725" lon="6.08482">
        <ele>1431</ele>
        <time>2022-03-03T12:25:33.644Z</time>
      </trkpt>
      <trkpt lat="44.16726" lon="6.08482">
        <ele>1431</ele>
        <time>2022-03-03T12:25:34.644Z</time>
      </trkpt>
      <trkpt lat="44.16727" lon="6.08482">
        <ele>1431</ele>
        <time>2022-03-03T12:25:35.644Z</time>
      </trkpt>
      <trkpt lat="44.16728" lon="6.08483">
        <ele>1431</ele>
        <time>2022-03-03T12:25:36.644Z</time>
      </trkpt>
      <trkpt lat="44.16729" lon="6.08483">
        <ele>1431</ele>
        <time>2022-03-03T12:25:37.644Z</time>
      </trkpt>
      <trkpt lat="44.1673" lon="6.08483">
        <ele>1431</ele>
        <time>2022-03-03T12:25:38.644Z</time>
      </trkpt>
      <trkpt lat="44.16731" lon="6.08483">
        <ele>1431</ele>
        <time>2022-03-03T12:25:39.644Z</time>
      </trkpt>
      <trkpt lat="44.16733" lon="6.08483">
        <ele>1431</ele>
        <time>2022-03-03T12:25:40.644Z</time>
      </trkpt>
      <trkpt lat="44.16734" lon="6.08483">
        <ele>1431</ele>
        <time>2022-03-03T12:25:41.644Z</time>
      </trkpt>
      <trkpt lat="44.16735" lon="6.08483">
        <ele>1431</ele>
        <time>2022-03-03T12:25:42.644Z</time>
      </trkpt>
      <trkpt lat="44.16736" lon="6.08483">
        <ele>1431</ele>
        <time>2022-03-03T12:25:43.644Z</time>
      </trkpt>
      <trkpt lat="44.16737" lon="6.08483">
        <ele>1431</ele>
        <time>2022-03-03T12:25:44.644Z</time>
      </trkpt>
      <trkpt lat="44.16738" lon="6.08483">
        <ele>1431</ele>
        <time>2022-03-03T12:25:45.644Z</time>
      </trkpt>
      <trkpt lat="44.16739" lon="6.08483">
        <ele>1431</ele>
        <time>2022-03-03T12:25:46.644Z</time>
      </trkpt>
      <trkpt lat="44.1674" lon="6.08483">
        <ele>1431</ele>
        <time>2022-03-03T12:25:47.644Z</time>
      </trkpt>
      <trkpt lat="44.16741" lon="6.08483">
        <ele>1431</ele>
        <time>2022-03-03T12:25:48.644Z</time>
      </trkpt>
      <trkpt lat="44.16743" lon="6.08484">
        <ele>1431</ele>
        <time>2022-03-03T12:25:49.644Z</time>
      </trkpt>
      <trkpt lat="44.16743" lon="6.08484">
        <ele>1431</ele>
        <time>2022-03-03T12:25:50.644Z</time>
      </trkpt>
      <trkpt lat="44.16744" lon="6.08484">
        <ele>1431</ele>
        <time>2022-03-03T12:25:51.644Z</time>
      </trkpt>
      <trkpt lat="44.16745" lon="6.08484">
        <ele>1430</ele>
        <time>2022-03-03T12:25:52.644Z</time>
      </trkpt>
      <trkpt lat="44.16746" lon="6.08484">
        <ele>1430</ele>
        <time>2022-03-03T12:25:53.644Z</time>
      </trkpt>
      <trkpt lat="44.16747" lon="6.08485">
        <ele>1430</ele>
        <time>2022-03-03T12:25:54.644Z</time>
      </trkpt>
      <trkpt lat="44.16749" lon="6.08485">
        <ele>1430</ele>
        <time>2022-03-03T12:25:55.644Z</time>
      </trkpt>
      <trkpt lat="44.1675" lon="6.08485">
        <ele>1430</ele>
        <time>2022-03-03T12:25:56.644Z</time>
      </trkpt>
      <trkpt lat="44.16751" lon="6.08485">
        <ele>1430</ele>
        <time>2022-03-03T12:25:57.644Z</time>
      </trkpt>
      <trkpt lat="44.16753" lon="6.08486">
        <ele>1429</ele>
        <time>2022-03-03T12:25:58.644Z</time>
      </trkpt>
      <trkpt lat="44.16753" lon="6.08486">
        <ele>1429</ele>
        <time>2022-03-03T12:25:59.644Z</time>
      </trkpt>
      <trkpt lat="44.16754" lon="6.08486">
        <ele>1429</ele>
        <time>2022-03-03T12:26:00.644Z</time>
      </trkpt>
      <trkpt lat="44.16755" lon="6.08487">
        <ele>1429</ele>
        <time>2022-03-03T12:26:01.644Z</time>
      </trkpt>
      <trkpt lat="44.16756" lon="6.08488">
        <ele>1429</ele>
        <time>2022-03-03T12:26:02.644Z</time>
      </trkpt>
      <trkpt lat="44.16757" lon="6.08488">
        <ele>1429</ele>
        <time>2022-03-03T12:26:03.644Z</time>
      </trkpt>
      <trkpt lat="44.16758" lon="6.08489">
        <ele>1428</ele>
        <time>2022-03-03T12:26:04.644Z</time>
      </trkpt>
      <trkpt lat="44.16759" lon="6.0849">
        <ele>1428</ele>
        <time>2022-03-03T12:26:05.644Z</time>
      </trkpt>
      <trkpt lat="44.1676" lon="6.0849">
        <ele>1428</ele>
        <time>2022-03-03T12:26:06.644Z</time>
      </trkpt>
      <trkpt lat="44.16761" lon="6.08491">
        <ele>1428</ele>
        <time>2022-03-03T12:26:07.644Z</time>
      </trkpt>
      <trkpt lat="44.16762" lon="6.08491">
        <ele>1427</ele>
        <time>2022-03-03T12:26:08.644Z</time>
      </trkpt>
      <trkpt lat="44.16763" lon="6.08491">
        <ele>1427</ele>
        <time>2022-03-03T12:26:09.644Z</time>
      </trkpt>
      <trkpt lat="44.16763" lon="6.08491">
        <ele>1427</ele>
        <time>2022-03-03T12:26:10.644Z</time>
      </trkpt>
      <trkpt lat="44.16764" lon="6.08492">
        <ele>1427</ele>
        <time>2022-03-03T12:26:11.644Z</time>
      </trkpt>
      <trkpt lat="44.16765" lon="6.08492">
        <ele>1426</ele>
        <time>2022-03-03T12:26:12.644Z</time>
      </trkpt>
      <trkpt lat="44.16766" lon="6.08492">
        <ele>1426</ele>
        <time>2022-03-03T12:26:13.644Z</time>
      </trkpt>
      <trkpt lat="44.16767" lon="6.08493">
        <ele>1426</ele>
        <time>2022-03-03T12:26:14.644Z</time>
      </trkpt>
      <trkpt lat="44.16768" lon="6.08493">
        <ele>1426</ele>
        <time>2022-03-03T12:26:15.644Z</time>
      </trkpt>
      <trkpt lat="44.16769" lon="6.08493">
        <ele>1425</ele>
        <time>2022-03-03T12:26:16.644Z</time>
      </trkpt>
      <trkpt lat="44.1677" lon="6.08494">
        <ele>1425</ele>
        <time>2022-03-03T12:26:17.644Z</time>
      </trkpt>
      <trkpt lat="44.16771" lon="6.08494">
        <ele>1425</ele>
        <time>2022-03-03T12:26:18.644Z</time>
      </trkpt>
      <trkpt lat="44.16772" lon="6.08495">
        <ele>1425</ele>
        <time>2022-03-03T12:26:19.644Z</time>
      </trkpt>
      <trkpt lat="44.16773" lon="6.08495">
        <ele>1424</ele>
        <time>2022-03-03T12:26:20.644Z</time>
      </trkpt>
      <trkpt lat="44.16774" lon="6.08496">
        <ele>1424</ele>
        <time>2022-03-03T12:26:21.644Z</time>
      </trkpt>
      <trkpt lat="44.16775" lon="6.08497">
        <ele>1424</ele>
        <time>2022-03-03T12:26:22.644Z</time>
      </trkpt>
      <trkpt lat="44.16776" lon="6.08498">
        <ele>1424</ele>
        <time>2022-03-03T12:26:23.644Z</time>
      </trkpt>
      <trkpt lat="44.16777" lon="6.08499">
        <ele>1424</ele>
        <time>2022-03-03T12:26:24.644Z</time>
      </trkpt>
      <trkpt lat="44.16778" lon="6.08499">
        <ele>1423</ele>
        <time>2022-03-03T12:26:25.644Z</time>
      </trkpt>
      <trkpt lat="44.16779" lon="6.08499">
        <ele>1423</ele>
        <time>2022-03-03T12:26:26.644Z</time>
      </trkpt>
      <trkpt lat="44.16781" lon="6.085">
        <ele>1423</ele>
        <time>2022-03-03T12:26:27.644Z</time>
      </trkpt>
      <trkpt lat="44.16782" lon="6.08501">
        <ele>1423</ele>
        <time>2022-03-03T12:26:28.644Z</time>
      </trkpt>
      <trkpt lat="44.16783" lon="6.08501">
        <ele>1423</ele>
        <time>2022-03-03T12:26:29.644Z</time>
      </trkpt>
      <trkpt lat="44.16784" lon="6.08502">
        <ele>1423</ele>
        <time>2022-03-03T12:26:30.644Z</time>
      </trkpt>
      <trkpt lat="44.16785" lon="6.08502">
        <ele>1422</ele>
        <time>2022-03-03T12:26:31.644Z</time>
      </trkpt>
      <trkpt lat="44.16786" lon="6.08503">
        <ele>1422</ele>
        <time>2022-03-03T12:26:32.644Z</time>
      </trkpt>
      <trkpt lat="44.16787" lon="6.08503">
        <ele>1422</ele>
        <time>2022-03-03T12:26:33.644Z</time>
      </trkpt>
      <trkpt lat="44.16788" lon="6.08504">
        <ele>1422</ele>
        <time>2022-03-03T12:26:34.644Z</time>
      </trkpt>
      <trkpt lat="44.16789" lon="6.08504">
        <ele>1422</ele>
        <time>2022-03-03T12:26:35.644Z</time>
      </trkpt>
      <trkpt lat="44.1679" lon="6.08505">
        <ele>1422</ele>
        <time>2022-03-03T12:26:36.644Z</time>
      </trkpt>
      <trkpt lat="44.16791" lon="6.08506">
        <ele>1421</ele>
        <time>2022-03-03T12:26:37.644Z</time>
      </trkpt>
      <trkpt lat="44.16792" lon="6.08506">
        <ele>1421</ele>
        <time>2022-03-03T12:26:38.644Z</time>
      </trkpt>
      <trkpt lat="44.16793" lon="6.08507">
        <ele>1421</ele>
        <time>2022-03-03T12:26:39.644Z</time>
      </trkpt>
      <trkpt lat="44.16794" lon="6.08507">
        <ele>1421</ele>
        <time>2022-03-03T12:26:40.644Z</time>
      </trkpt>
      <trkpt lat="44.16795" lon="6.08508">
        <ele>1421</ele>
        <time>2022-03-03T12:26:41.644Z</time>
      </trkpt>
      <trkpt lat="44.16796" lon="6.08508">
        <ele>1421</ele>
        <time>2022-03-03T12:26:42.644Z</time>
      </trkpt>
      <trkpt lat="44.16796" lon="6.08508">
        <ele>1421</ele>
        <time>2022-03-03T12:26:43.644Z</time>
      </trkpt>
      <trkpt lat="44.16798" lon="6.08509">
        <ele>1420</ele>
        <time>2022-03-03T12:26:44.644Z</time>
      </trkpt>
      <trkpt lat="44.16799" lon="6.08509">
        <ele>1420</ele>
        <time>2022-03-03T12:26:45.644Z</time>
      </trkpt>
      <trkpt lat="44.168" lon="6.0851">
        <ele>1420</ele>
        <time>2022-03-03T12:26:46.644Z</time>
      </trkpt>
      <trkpt lat="44.16801" lon="6.0851">
        <ele>1420</ele>
        <time>2022-03-03T12:26:47.644Z</time>
      </trkpt>
      <trkpt lat="44.16802" lon="6.08511">
        <ele>1420</ele>
        <time>2022-03-03T12:26:48.644Z</time>
      </trkpt>
      <trkpt lat="44.16802" lon="6.08511">
        <ele>1420</ele>
        <time>2022-03-03T12:26:49.644Z</time>
      </trkpt>
      <trkpt lat="44.16803" lon="6.08512">
        <ele>1420</ele>
        <time>2022-03-03T12:26:50.644Z</time>
      </trkpt>
      <trkpt lat="44.16804" lon="6.08513">
        <ele>1419</ele>
        <time>2022-03-03T12:26:51.644Z</time>
      </trkpt>
      <trkpt lat="44.16805" lon="6.08513">
        <ele>1419</ele>
        <time>2022-03-03T12:26:52.644Z</time>
      </trkpt>
      <trkpt lat="44.16806" lon="6.08513">
        <ele>1419</ele>
        <time>2022-03-03T12:26:53.644Z</time>
      </trkpt>
      <trkpt lat="44.16807" lon="6.08514">
        <ele>1419</ele>
        <time>2022-03-03T12:26:54.644Z</time>
      </trkpt>
      <trkpt lat="44.16807" lon="6.08515">
        <ele>1419</ele>
        <time>2022-03-03T12:26:55.644Z</time>
      </trkpt>
      <trkpt lat="44.16808" lon="6.08515">
        <ele>1419</ele>
        <time>2022-03-03T12:26:56.644Z</time>
      </trkpt>
      <trkpt lat="44.16809" lon="6.08516">
        <ele>1418</ele>
        <time>2022-03-03T12:26:57.644Z</time>
      </trkpt>
      <trkpt lat="44.1681" lon="6.08516">
        <ele>1418</ele>
        <time>2022-03-03T12:26:58.644Z</time>
      </trkpt>
      <trkpt lat="44.16811" lon="6.08517">
        <ele>1418</ele>
        <time>2022-03-03T12:26:59.644Z</time>
      </trkpt>
      <trkpt lat="44.16812" lon="6.08518">
        <ele>1418</ele>
        <time>2022-03-03T12:27:00.644Z</time>
      </trkpt>
      <trkpt lat="44.16813" lon="6.08519">
        <ele>1418</ele>
        <time>2022-03-03T12:27:01.644Z</time>
      </trkpt>
      <trkpt lat="44.16814" lon="6.0852">
        <ele>1417</ele>
        <time>2022-03-03T12:27:02.644Z</time>
      </trkpt>
      <trkpt lat="44.16815" lon="6.0852">
        <ele>1417</ele>
        <time>2022-03-03T12:27:03.644Z</time>
      </trkpt>
      <trkpt lat="44.16816" lon="6.08521">
        <ele>1417</ele>
        <time>2022-03-03T12:27:04.644Z</time>
      </trkpt>
      <trkpt lat="44.16817" lon="6.08521">
        <ele>1417</ele>
        <time>2022-03-03T12:27:05.644Z</time>
      </trkpt>
      <trkpt lat="44.16818" lon="6.08522">
        <ele>1417</ele>
        <time>2022-03-03T12:27:06.644Z</time>
      </trkpt>
      <trkpt lat="44.16819" lon="6.08522">
        <ele>1416</ele>
        <time>2022-03-03T12:27:07.644Z</time>
      </trkpt>
      <trkpt lat="44.16819" lon="6.08523">
        <ele>1416</ele>
        <time>2022-03-03T12:27:08.644Z</time>
      </trkpt>
      <trkpt lat="44.1682" lon="6.08523">
        <ele>1416</ele>
        <time>2022-03-03T12:27:09.644Z</time>
      </trkpt>
      <trkpt lat="44.16821" lon="6.08524">
        <ele>1416</ele>
        <time>2022-03-03T12:27:10.644Z</time>
      </trkpt>
      <trkpt lat="44.16822" lon="6.08524">
        <ele>1415</ele>
        <time>2022-03-03T12:27:11.644Z</time>
      </trkpt>
      <trkpt lat="44.16823" lon="6.08525">
        <ele>1415</ele>
        <time>2022-03-03T12:27:12.644Z</time>
      </trkpt>
      <trkpt lat="44.16824" lon="6.08526">
        <ele>1415</ele>
        <time>2022-03-03T12:27:13.644Z</time>
      </trkpt>
      <trkpt lat="44.16825" lon="6.08526">
        <ele>1415</ele>
        <time>2022-03-03T12:27:14.644Z</time>
      </trkpt>
      <trkpt lat="44.16825" lon="6.08527">
        <ele>1415</ele>
        <time>2022-03-03T12:27:15.644Z</time>
      </trkpt>
      <trkpt lat="44.16826" lon="6.08527">
        <ele>1414</ele>
        <time>2022-03-03T12:27:16.644Z</time>
      </trkpt>
      <trkpt lat="44.16827" lon="6.08528">
        <ele>1414</ele>
        <time>2022-03-03T12:27:17.644Z</time>
      </trkpt>
      <trkpt lat="44.16828" lon="6.08528">
        <ele>1414</ele>
        <time>2022-03-03T12:27:18.644Z</time>
      </trkpt>
      <trkpt lat="44.16829" lon="6.08529">
        <ele>1414</ele>
        <time>2022-03-03T12:27:19.644Z</time>
      </trkpt>
      <trkpt lat="44.1683" lon="6.0853">
        <ele>1413</ele>
        <time>2022-03-03T12:27:20.644Z</time>
      </trkpt>
      <trkpt lat="44.16831" lon="6.0853">
        <ele>1413</ele>
        <time>2022-03-03T12:27:21.644Z</time>
      </trkpt>
      <trkpt lat="44.16832" lon="6.08531">
        <ele>1413</ele>
        <time>2022-03-03T12:27:22.644Z</time>
      </trkpt>
      <trkpt lat="44.16833" lon="6.08531">
        <ele>1413</ele>
        <time>2022-03-03T12:27:23.644Z</time>
      </trkpt>
      <trkpt lat="44.16834" lon="6.08532">
        <ele>1413</ele>
        <time>2022-03-03T12:27:24.644Z</time>
      </trkpt>
      <trkpt lat="44.16834" lon="6.08533">
        <ele>1412</ele>
        <time>2022-03-03T12:27:25.644Z</time>
      </trkpt>
      <trkpt lat="44.16835" lon="6.08533">
        <ele>1412</ele>
        <time>2022-03-03T12:27:26.644Z</time>
      </trkpt>
      <trkpt lat="44.16836" lon="6.08534">
        <ele>1412</ele>
        <time>2022-03-03T12:27:27.644Z</time>
      </trkpt>
      <trkpt lat="44.16837" lon="6.08535">
        <ele>1412</ele>
        <time>2022-03-03T12:27:28.644Z</time>
      </trkpt>
      <trkpt lat="44.16837" lon="6.08536">
        <ele>1411</ele>
        <time>2022-03-03T12:27:29.644Z</time>
      </trkpt>
      <trkpt lat="44.16838" lon="6.08537">
        <ele>1411</ele>
        <time>2022-03-03T12:27:30.644Z</time>
      </trkpt>
      <trkpt lat="44.16839" lon="6.08538">
        <ele>1411</ele>
        <time>2022-03-03T12:27:31.644Z</time>
      </trkpt>
      <trkpt lat="44.1684" lon="6.08539">
        <ele>1411</ele>
        <time>2022-03-03T12:27:32.644Z</time>
      </trkpt>
      <trkpt lat="44.16841" lon="6.0854">
        <ele>1410</ele>
        <time>2022-03-03T12:27:33.644Z</time>
      </trkpt>
      <trkpt lat="44.16842" lon="6.0854">
        <ele>1410</ele>
        <time>2022-03-03T12:27:34.644Z</time>
      </trkpt>
      <trkpt lat="44.16843" lon="6.08541">
        <ele>1410</ele>
        <time>2022-03-03T12:27:35.644Z</time>
      </trkpt>
      <trkpt lat="44.16843" lon="6.08542">
        <ele>1410</ele>
        <time>2022-03-03T12:27:36.644Z</time>
      </trkpt>
      <trkpt lat="44.16844" lon="6.08543">
        <ele>1410</ele>
        <time>2022-03-03T12:27:37.644Z</time>
      </trkpt>
      <trkpt lat="44.16845" lon="6.08544">
        <ele>1410</ele>
        <time>2022-03-03T12:27:38.644Z</time>
      </trkpt>
      <trkpt lat="44.16846" lon="6.08545">
        <ele>1409</ele>
        <time>2022-03-03T12:27:39.644Z</time>
      </trkpt>
      <trkpt lat="44.16846" lon="6.08546">
        <ele>1409</ele>
        <time>2022-03-03T12:27:40.644Z</time>
      </trkpt>
      <trkpt lat="44.16847" lon="6.08548">
        <ele>1409</ele>
        <time>2022-03-03T12:27:41.644Z</time>
      </trkpt>
      <trkpt lat="44.16848" lon="6.08549">
        <ele>1409</ele>
        <time>2022-03-03T12:27:42.644Z</time>
      </trkpt>
      <trkpt lat="44.16848" lon="6.0855">
        <ele>1409</ele>
        <time>2022-03-03T12:27:43.644Z</time>
      </trkpt>
      <trkpt lat="44.16849" lon="6.08552">
        <ele>1409</ele>
        <time>2022-03-03T12:27:44.644Z</time>
      </trkpt>
      <trkpt lat="44.1685" lon="6.08553">
        <ele>1409</ele>
        <time>2022-03-03T12:27:45.644Z</time>
      </trkpt>
      <trkpt lat="44.16851" lon="6.08554">
        <ele>1408</ele>
        <time>2022-03-03T12:27:46.644Z</time>
      </trkpt>
      <trkpt lat="44.16851" lon="6.08556">
        <ele>1408</ele>
        <time>2022-03-03T12:27:47.644Z</time>
      </trkpt>
      <trkpt lat="44.16852" lon="6.08557">
        <ele>1408</ele>
        <time>2022-03-03T12:27:48.644Z</time>
      </trkpt>
      <trkpt lat="44.16853" lon="6.08558">
        <ele>1408</ele>
        <time>2022-03-03T12:27:49.644Z</time>
      </trkpt>
      <trkpt lat="44.16854" lon="6.08559">
        <ele>1408</ele>
        <time>2022-03-03T12:27:50.644Z</time>
      </trkpt>
      <trkpt lat="44.16855" lon="6.08559">
        <ele>1408</ele>
        <time>2022-03-03T12:27:51.644Z</time>
      </trkpt>
      <trkpt lat="44.16856" lon="6.0856">
        <ele>1408</ele>
        <time>2022-03-03T12:27:52.644Z</time>
      </trkpt>
      <trkpt lat="44.16857" lon="6.08561">
        <ele>1408</ele>
        <time>2022-03-03T12:27:53.644Z</time>
      </trkpt>
      <trkpt lat="44.16858" lon="6.08561">
        <ele>1408</ele>
        <time>2022-03-03T12:27:54.644Z</time>
      </trkpt>
      <trkpt lat="44.16859" lon="6.08562">
        <ele>1408</ele>
        <time>2022-03-03T12:27:55.644Z</time>
      </trkpt>
      <trkpt lat="44.1686" lon="6.08562">
        <ele>1407</ele>
        <time>2022-03-03T12:27:56.644Z</time>
      </trkpt>
      <trkpt lat="44.16862" lon="6.08563">
        <ele>1407</ele>
        <time>2022-03-03T12:27:57.644Z</time>
      </trkpt>
      <trkpt lat="44.16862" lon="6.08564">
        <ele>1407</ele>
        <time>2022-03-03T12:27:58.644Z</time>
      </trkpt>
      <trkpt lat="44.16863" lon="6.08565">
        <ele>1407</ele>
        <time>2022-03-03T12:27:59.644Z</time>
      </trkpt>
      <trkpt lat="44.16864" lon="6.08566">
        <ele>1407</ele>
        <time>2022-03-03T12:28:00.644Z</time>
      </trkpt>
      <trkpt lat="44.16865" lon="6.08567">
        <ele>1407</ele>
        <time>2022-03-03T12:28:01.644Z</time>
      </trkpt>
      <trkpt lat="44.16866" lon="6.08567">
        <ele>1407</ele>
        <time>2022-03-03T12:28:02.644Z</time>
      </trkpt>
      <trkpt lat="44.16867" lon="6.08569">
        <ele>1406</ele>
        <time>2022-03-03T12:28:03.644Z</time>
      </trkpt>
      <trkpt lat="44.16868" lon="6.0857">
        <ele>1406</ele>
        <time>2022-03-03T12:28:04.644Z</time>
      </trkpt>
      <trkpt lat="44.16868" lon="6.08571">
        <ele>1406</ele>
        <time>2022-03-03T12:28:05.644Z</time>
      </trkpt>
      <trkpt lat="44.16869" lon="6.08572">
        <ele>1406</ele>
        <time>2022-03-03T12:28:06.644Z</time>
      </trkpt>
      <trkpt lat="44.1687" lon="6.08573">
        <ele>1406</ele>
        <time>2022-03-03T12:28:07.644Z</time>
      </trkpt>
      <trkpt lat="44.1687" lon="6.08574">
        <ele>1406</ele>
        <time>2022-03-03T12:28:08.644Z</time>
      </trkpt>
      <trkpt lat="44.16871" lon="6.08575">
        <ele>1406</ele>
        <time>2022-03-03T12:28:09.644Z</time>
      </trkpt>
      <trkpt lat="44.16871" lon="6.08576">
        <ele>1406</ele>
        <time>2022-03-03T12:28:10.644Z</time>
      </trkpt>
      <trkpt lat="44.16872" lon="6.08577">
        <ele>1406</ele>
        <time>2022-03-03T12:28:11.644Z</time>
      </trkpt>
      <trkpt lat="44.16873" lon="6.08578">
        <ele>1405</ele>
        <time>2022-03-03T12:28:12.644Z</time>
      </trkpt>
      <trkpt lat="44.16874" lon="6.08579">
        <ele>1405</ele>
        <time>2022-03-03T12:28:13.644Z</time>
      </trkpt>
      <trkpt lat="44.16875" lon="6.0858">
        <ele>1405</ele>
        <time>2022-03-03T12:28:14.644Z</time>
      </trkpt>
      <trkpt lat="44.16876" lon="6.08581">
        <ele>1405</ele>
        <time>2022-03-03T12:28:15.644Z</time>
      </trkpt>
      <trkpt lat="44.16877" lon="6.08582">
        <ele>1405</ele>
        <time>2022-03-03T12:28:16.644Z</time>
      </trkpt>
      <trkpt lat="44.16878" lon="6.08583">
        <ele>1405</ele>
        <time>2022-03-03T12:28:17.644Z</time>
      </trkpt>
      <trkpt lat="44.16878" lon="6.08583">
        <ele>1404</ele>
        <time>2022-03-03T12:28:18.644Z</time>
      </trkpt>
      <trkpt lat="44.16879" lon="6.08584">
        <ele>1404</ele>
        <time>2022-03-03T12:28:19.644Z</time>
      </trkpt>
      <trkpt lat="44.1688" lon="6.08585">
        <ele>1404</ele>
        <time>2022-03-03T12:28:20.644Z</time>
      </trkpt>
      <trkpt lat="44.16882" lon="6.08585">
        <ele>1404</ele>
        <time>2022-03-03T12:28:21.644Z</time>
      </trkpt>
      <trkpt lat="44.16883" lon="6.08586">
        <ele>1404</ele>
        <time>2022-03-03T12:28:22.644Z</time>
      </trkpt>
      <trkpt lat="44.16884" lon="6.08587">
        <ele>1404</ele>
        <time>2022-03-03T12:28:23.644Z</time>
      </trkpt>
      <trkpt lat="44.16885" lon="6.08588">
        <ele>1404</ele>
        <time>2022-03-03T12:28:24.644Z</time>
      </trkpt>
      <trkpt lat="44.16886" lon="6.08589">
        <ele>1403</ele>
        <time>2022-03-03T12:28:25.644Z</time>
      </trkpt>
      <trkpt lat="44.16886" lon="6.0859">
        <ele>1403</ele>
        <time>2022-03-03T12:28:26.644Z</time>
      </trkpt>
      <trkpt lat="44.16887" lon="6.08591">
        <ele>1403</ele>
        <time>2022-03-03T12:28:27.644Z</time>
      </trkpt>
      <trkpt lat="44.16888" lon="6.08592">
        <ele>1403</ele>
        <time>2022-03-03T12:28:28.644Z</time>
      </trkpt>
      <trkpt lat="44.16889" lon="6.08593">
        <ele>1403</ele>
        <time>2022-03-03T12:28:29.644Z</time>
      </trkpt>
      <trkpt lat="44.1689" lon="6.08594">
        <ele>1403</ele>
        <time>2022-03-03T12:28:30.644Z</time>
      </trkpt>
      <trkpt lat="44.1689" lon="6.08595">
        <ele>1403</ele>
        <time>2022-03-03T12:28:31.644Z</time>
      </trkpt>
      <trkpt lat="44.16891" lon="6.08597">
        <ele>1403</ele>
        <time>2022-03-03T12:28:32.644Z</time>
      </trkpt>
      <trkpt lat="44.16892" lon="6.08598">
        <ele>1403</ele>
        <time>2022-03-03T12:28:33.644Z</time>
      </trkpt>
      <trkpt lat="44.16893" lon="6.08599">
        <ele>1403</ele>
        <time>2022-03-03T12:28:34.644Z</time>
      </trkpt>
      <trkpt lat="44.16894" lon="6.086">
        <ele>1403</ele>
        <time>2022-03-03T12:28:35.644Z</time>
      </trkpt>
      <trkpt lat="44.16894" lon="6.08601">
        <ele>1403</ele>
        <time>2022-03-03T12:28:36.644Z</time>
      </trkpt>
      <trkpt lat="44.16895" lon="6.08602">
        <ele>1403</ele>
        <time>2022-03-03T12:28:37.644Z</time>
      </trkpt>
      <trkpt lat="44.16896" lon="6.08603">
        <ele>1403</ele>
        <time>2022-03-03T12:28:38.644Z</time>
      </trkpt>
      <trkpt lat="44.16897" lon="6.08604">
        <ele>1403</ele>
        <time>2022-03-03T12:28:39.644Z</time>
      </trkpt>
      <trkpt lat="44.16898" lon="6.08605">
        <ele>1403</ele>
        <time>2022-03-03T12:28:40.644Z</time>
      </trkpt>
      <trkpt lat="44.16898" lon="6.08606">
        <ele>1403</ele>
        <time>2022-03-03T12:28:41.644Z</time>
      </trkpt>
      <trkpt lat="44.16899" lon="6.08608">
        <ele>1403</ele>
        <time>2022-03-03T12:28:42.644Z</time>
      </trkpt>
      <trkpt lat="44.169" lon="6.08609">
        <ele>1403</ele>
        <time>2022-03-03T12:28:43.644Z</time>
      </trkpt>
      <trkpt lat="44.16901" lon="6.0861">
        <ele>1403</ele>
        <time>2022-03-03T12:28:44.644Z</time>
      </trkpt>
      <trkpt lat="44.16902" lon="6.08611">
        <ele>1403</ele>
        <time>2022-03-03T12:28:45.644Z</time>
      </trkpt>
      <trkpt lat="44.16902" lon="6.08612">
        <ele>1403</ele>
        <time>2022-03-03T12:28:46.644Z</time>
      </trkpt>
      <trkpt lat="44.16903" lon="6.08613">
        <ele>1403</ele>
        <time>2022-03-03T12:28:47.644Z</time>
      </trkpt>
      <trkpt lat="44.16904" lon="6.08614">
        <ele>1403</ele>
        <time>2022-03-03T12:28:48.644Z</time>
      </trkpt>
      <trkpt lat="44.16905" lon="6.08615">
        <ele>1403</ele>
        <time>2022-03-03T12:28:49.644Z</time>
      </trkpt>
      <trkpt lat="44.16906" lon="6.08616">
        <ele>1403</ele>
        <time>2022-03-03T12:28:50.644Z</time>
      </trkpt>
      <trkpt lat="44.16906" lon="6.08617">
        <ele>1403</ele>
        <time>2022-03-03T12:28:51.644Z</time>
      </trkpt>
      <trkpt lat="44.16907" lon="6.08618">
        <ele>1403</ele>
        <time>2022-03-03T12:28:52.644Z</time>
      </trkpt>
      <trkpt lat="44.16908" lon="6.08619">
        <ele>1403</ele>
        <time>2022-03-03T12:28:53.644Z</time>
      </trkpt>
      <trkpt lat="44.16908" lon="6.0862">
        <ele>1403</ele>
        <time>2022-03-03T12:28:54.644Z</time>
      </trkpt>
      <trkpt lat="44.16909" lon="6.08622">
        <ele>1403</ele>
        <time>2022-03-03T12:28:55.644Z</time>
      </trkpt>
      <trkpt lat="44.1691" lon="6.08623">
        <ele>1403</ele>
        <time>2022-03-03T12:28:56.644Z</time>
      </trkpt>
      <trkpt lat="44.16911" lon="6.08624">
        <ele>1403</ele>
        <time>2022-03-03T12:28:57.644Z</time>
      </trkpt>
      <trkpt lat="44.16911" lon="6.08625">
        <ele>1403</ele>
        <time>2022-03-03T12:28:58.644Z</time>
      </trkpt>
      <trkpt lat="44.16912" lon="6.08627">
        <ele>1403</ele>
        <time>2022-03-03T12:28:59.644Z</time>
      </trkpt>
      <trkpt lat="44.16912" lon="6.08628">
        <ele>1403</ele>
        <time>2022-03-03T12:29:00.644Z</time>
      </trkpt>
      <trkpt lat="44.16913" lon="6.08628">
        <ele>1404</ele>
        <time>2022-03-03T12:29:01.644Z</time>
      </trkpt>
      <trkpt lat="44.16914" lon="6.08629">
        <ele>1404</ele>
        <time>2022-03-03T12:29:02.644Z</time>
      </trkpt>
      <trkpt lat="44.16915" lon="6.0863">
        <ele>1404</ele>
        <time>2022-03-03T12:29:03.644Z</time>
      </trkpt>
      <trkpt lat="44.16915" lon="6.08631">
        <ele>1404</ele>
        <time>2022-03-03T12:29:04.644Z</time>
      </trkpt>
      <trkpt lat="44.16916" lon="6.08632">
        <ele>1404</ele>
        <time>2022-03-03T12:29:05.644Z</time>
      </trkpt>
      <trkpt lat="44.16916" lon="6.08633">
        <ele>1404</ele>
        <time>2022-03-03T12:29:06.644Z</time>
      </trkpt>
      <trkpt lat="44.16917" lon="6.08635">
        <ele>1404</ele>
        <time>2022-03-03T12:29:07.644Z</time>
      </trkpt>
      <trkpt lat="44.16918" lon="6.08636">
        <ele>1404</ele>
        <time>2022-03-03T12:29:08.644Z</time>
      </trkpt>
      <trkpt lat="44.16918" lon="6.08637">
        <ele>1404</ele>
        <time>2022-03-03T12:29:09.644Z</time>
      </trkpt>
      <trkpt lat="44.16919" lon="6.08638">
        <ele>1405</ele>
        <time>2022-03-03T12:29:10.644Z</time>
      </trkpt>
      <trkpt lat="44.1692" lon="6.08639">
        <ele>1405</ele>
        <time>2022-03-03T12:29:11.644Z</time>
      </trkpt>
      <trkpt lat="44.16921" lon="6.0864">
        <ele>1405</ele>
        <time>2022-03-03T12:29:12.644Z</time>
      </trkpt>
      <trkpt lat="44.16922" lon="6.08641">
        <ele>1405</ele>
        <time>2022-03-03T12:29:13.644Z</time>
      </trkpt>
      <trkpt lat="44.16922" lon="6.08642">
        <ele>1405</ele>
        <time>2022-03-03T12:29:14.644Z</time>
      </trkpt>
      <trkpt lat="44.16923" lon="6.08643">
        <ele>1405</ele>
        <time>2022-03-03T12:29:15.644Z</time>
      </trkpt>
      <trkpt lat="44.16924" lon="6.08644">
        <ele>1405</ele>
        <time>2022-03-03T12:29:16.644Z</time>
      </trkpt>
      <trkpt lat="44.16925" lon="6.08645">
        <ele>1405</ele>
        <time>2022-03-03T12:29:17.644Z</time>
      </trkpt>
      <trkpt lat="44.16926" lon="6.08646">
        <ele>1405</ele>
        <time>2022-03-03T12:29:18.644Z</time>
      </trkpt>
      <trkpt lat="44.16927" lon="6.08647">
        <ele>1405</ele>
        <time>2022-03-03T12:29:19.644Z</time>
      </trkpt>
      <trkpt lat="44.16928" lon="6.08648">
        <ele>1405</ele>
        <time>2022-03-03T12:29:20.644Z</time>
      </trkpt>
      <trkpt lat="44.16928" lon="6.08648">
        <ele>1405</ele>
        <time>2022-03-03T12:29:21.644Z</time>
      </trkpt>
      <trkpt lat="44.16929" lon="6.08649">
        <ele>1405</ele>
        <time>2022-03-03T12:29:22.644Z</time>
      </trkpt>
      <trkpt lat="44.1693" lon="6.0865">
        <ele>1405</ele>
        <time>2022-03-03T12:29:23.644Z</time>
      </trkpt>
      <trkpt lat="44.16931" lon="6.08651">
        <ele>1405</ele>
        <time>2022-03-03T12:29:24.644Z</time>
      </trkpt>
      <trkpt lat="44.16932" lon="6.08652">
        <ele>1405</ele>
        <time>2022-03-03T12:29:25.644Z</time>
      </trkpt>
      <trkpt lat="44.16933" lon="6.08653">
        <ele>1405</ele>
        <time>2022-03-03T12:29:26.644Z</time>
      </trkpt>
      <trkpt lat="44.16934" lon="6.08654">
        <ele>1404</ele>
        <time>2022-03-03T12:29:27.644Z</time>
      </trkpt>
      <trkpt lat="44.16935" lon="6.08655">
        <ele>1405</ele>
        <time>2022-03-03T12:29:28.644Z</time>
      </trkpt>
      <trkpt lat="44.16936" lon="6.08656">
        <ele>1405</ele>
        <time>2022-03-03T12:29:29.644Z</time>
      </trkpt>
      <trkpt lat="44.16936" lon="6.08656">
        <ele>1405</ele>
        <time>2022-03-03T12:29:30.644Z</time>
      </trkpt>
      <trkpt lat="44.16937" lon="6.08657">
        <ele>1405</ele>
        <time>2022-03-03T12:29:31.644Z</time>
      </trkpt>
      <trkpt lat="44.16938" lon="6.08657">
        <ele>1405</ele>
        <time>2022-03-03T12:29:32.644Z</time>
      </trkpt>
      <trkpt lat="44.16939" lon="6.08657">
        <ele>1405</ele>
        <time>2022-03-03T12:29:33.644Z</time>
      </trkpt>
      <trkpt lat="44.1694" lon="6.08658">
        <ele>1405</ele>
        <time>2022-03-03T12:29:34.644Z</time>
      </trkpt>
      <trkpt lat="44.16941" lon="6.08659">
        <ele>1405</ele>
        <time>2022-03-03T12:29:35.644Z</time>
      </trkpt>
      <trkpt lat="44.16942" lon="6.0866">
        <ele>1405</ele>
        <time>2022-03-03T12:29:36.644Z</time>
      </trkpt>
      <trkpt lat="44.16943" lon="6.08661">
        <ele>1405</ele>
        <time>2022-03-03T12:29:37.644Z</time>
      </trkpt>
      <trkpt lat="44.16944" lon="6.08661">
        <ele>1405</ele>
        <time>2022-03-03T12:29:38.644Z</time>
      </trkpt>
      <trkpt lat="44.16945" lon="6.08662">
        <ele>1405</ele>
        <time>2022-03-03T12:29:39.644Z</time>
      </trkpt>
      <trkpt lat="44.16946" lon="6.08662">
        <ele>1405</ele>
        <time>2022-03-03T12:29:40.644Z</time>
      </trkpt>
      <trkpt lat="44.16947" lon="6.08663">
        <ele>1405</ele>
        <time>2022-03-03T12:29:41.644Z</time>
      </trkpt>
      <trkpt lat="44.16948" lon="6.08664">
        <ele>1405</ele>
        <time>2022-03-03T12:29:42.644Z</time>
      </trkpt>
      <trkpt lat="44.16949" lon="6.08664">
        <ele>1405</ele>
        <time>2022-03-03T12:29:43.644Z</time>
      </trkpt>
      <trkpt lat="44.1695" lon="6.08665">
        <ele>1405</ele>
        <time>2022-03-03T12:29:44.644Z</time>
      </trkpt>
      <trkpt lat="44.1695" lon="6.08666">
        <ele>1405</ele>
        <time>2022-03-03T12:29:45.644Z</time>
      </trkpt>
      <trkpt lat="44.16951" lon="6.08666">
        <ele>1405</ele>
        <time>2022-03-03T12:29:46.644Z</time>
      </trkpt>
      <trkpt lat="44.16952" lon="6.08667">
        <ele>1405</ele>
        <time>2022-03-03T12:29:47.644Z</time>
      </trkpt>
      <trkpt lat="44.16953" lon="6.08667">
        <ele>1405</ele>
        <time>2022-03-03T12:29:48.644Z</time>
      </trkpt>
      <trkpt lat="44.16954" lon="6.08667">
        <ele>1405</ele>
        <time>2022-03-03T12:29:49.644Z</time>
      </trkpt>
      <trkpt lat="44.16955" lon="6.08668">
        <ele>1405</ele>
        <time>2022-03-03T12:29:50.644Z</time>
      </trkpt>
      <trkpt lat="44.16956" lon="6.08668">
        <ele>1405</ele>
        <time>2022-03-03T12:29:51.644Z</time>
      </trkpt>
      <trkpt lat="44.16957" lon="6.08668">
        <ele>1405</ele>
        <time>2022-03-03T12:29:52.644Z</time>
      </trkpt>
      <trkpt lat="44.16959" lon="6.08669">
        <ele>1405</ele>
        <time>2022-03-03T12:29:53.644Z</time>
      </trkpt>
      <trkpt lat="44.1696" lon="6.08669">
        <ele>1405</ele>
        <time>2022-03-03T12:29:54.644Z</time>
      </trkpt>
      <trkpt lat="44.16961" lon="6.0867">
        <ele>1405</ele>
        <time>2022-03-03T12:29:55.644Z</time>
      </trkpt>
      <trkpt lat="44.16962" lon="6.0867">
        <ele>1405</ele>
        <time>2022-03-03T12:29:56.644Z</time>
      </trkpt>
      <trkpt lat="44.16963" lon="6.08671">
        <ele>1405</ele>
        <time>2022-03-03T12:29:57.644Z</time>
      </trkpt>
      <trkpt lat="44.16964" lon="6.08672">
        <ele>1405</ele>
        <time>2022-03-03T12:29:58.644Z</time>
      </trkpt>
      <trkpt lat="44.16964" lon="6.08672">
        <ele>1405</ele>
        <time>2022-03-03T12:29:59.644Z</time>
      </trkpt>
      <trkpt lat="44.16965" lon="6.08673">
        <ele>1405</ele>
        <time>2022-03-03T12:30:00.644Z</time>
      </trkpt>
      <trkpt lat="44.16966" lon="6.08673">
        <ele>1405</ele>
        <time>2022-03-03T12:30:01.644Z</time>
      </trkpt>
      <trkpt lat="44.16967" lon="6.08674">
        <ele>1405</ele>
        <time>2022-03-03T12:30:02.644Z</time>
      </trkpt>
      <trkpt lat="44.16968" lon="6.08675">
        <ele>1405</ele>
        <time>2022-03-03T12:30:03.644Z</time>
      </trkpt>
      <trkpt lat="44.16969" lon="6.08675">
        <ele>1405</ele>
        <time>2022-03-03T12:30:04.644Z</time>
      </trkpt>
      <trkpt lat="44.1697" lon="6.08676">
        <ele>1405</ele>
        <time>2022-03-03T12:30:05.644Z</time>
      </trkpt>
      <trkpt lat="44.16971" lon="6.08676">
        <ele>1405</ele>
        <time>2022-03-03T12:30:06.644Z</time>
      </trkpt>
      <trkpt lat="44.16972" lon="6.08677">
        <ele>1405</ele>
        <time>2022-03-03T12:30:07.644Z</time>
      </trkpt>
      <trkpt lat="44.16973" lon="6.08677">
        <ele>1405</ele>
        <time>2022-03-03T12:30:08.644Z</time>
      </trkpt>
      <trkpt lat="44.16974" lon="6.08678">
        <ele>1405</ele>
        <time>2022-03-03T12:30:09.644Z</time>
      </trkpt>
      <trkpt lat="44.16975" lon="6.08679">
        <ele>1405</ele>
        <time>2022-03-03T12:30:10.644Z</time>
      </trkpt>
      <trkpt lat="44.16976" lon="6.08679">
        <ele>1405</ele>
        <time>2022-03-03T12:30:11.644Z</time>
      </trkpt>
      <trkpt lat="44.16977" lon="6.0868">
        <ele>1405</ele>
        <time>2022-03-03T12:30:12.644Z</time>
      </trkpt>
      <trkpt lat="44.16978" lon="6.08681">
        <ele>1405</ele>
        <time>2022-03-03T12:30:13.644Z</time>
      </trkpt>
      <trkpt lat="44.16979" lon="6.08681">
        <ele>1405</ele>
        <time>2022-03-03T12:30:14.644Z</time>
      </trkpt>
      <trkpt lat="44.1698" lon="6.08681">
        <ele>1405</ele>
        <time>2022-03-03T12:30:15.644Z</time>
      </trkpt>
      <trkpt lat="44.16981" lon="6.08681">
        <ele>1405</ele>
        <time>2022-03-03T12:30:16.644Z</time>
      </trkpt>
      <trkpt lat="44.16982" lon="6.08681">
        <ele>1405</ele>
        <time>2022-03-03T12:30:17.644Z</time>
      </trkpt>
      <trkpt lat="44.16983" lon="6.08682">
        <ele>1405</ele>
        <time>2022-03-03T12:30:18.644Z</time>
      </trkpt>
      <trkpt lat="44.16984" lon="6.08682">
        <ele>1405</ele>
        <time>2022-03-03T12:30:19.644Z</time>
      </trkpt>
      <trkpt lat="44.16985" lon="6.08682">
        <ele>1405</ele>
        <time>2022-03-03T12:30:20.644Z</time>
      </trkpt>
      <trkpt lat="44.16986" lon="6.08682">
        <ele>1405</ele>
        <time>2022-03-03T12:30:21.644Z</time>
      </trkpt>
      <trkpt lat="44.16987" lon="6.08682">
        <ele>1405</ele>
        <time>2022-03-03T12:30:22.644Z</time>
      </trkpt>
      <trkpt lat="44.16988" lon="6.08682">
        <ele>1406</ele>
        <time>2022-03-03T12:30:23.644Z</time>
      </trkpt>
      <trkpt lat="44.1699" lon="6.08682">
        <ele>1406</ele>
        <time>2022-03-03T12:30:24.644Z</time>
      </trkpt>
      <trkpt lat="44.16991" lon="6.08682">
        <ele>1406</ele>
        <time>2022-03-03T12:30:25.644Z</time>
      </trkpt>
      <trkpt lat="44.16992" lon="6.08682">
        <ele>1406</ele>
        <time>2022-03-03T12:30:26.644Z</time>
      </trkpt>
      <trkpt lat="44.16993" lon="6.08682">
        <ele>1406</ele>
        <time>2022-03-03T12:30:27.644Z</time>
      </trkpt>
      <trkpt lat="44.16993" lon="6.08682">
        <ele>1406</ele>
        <time>2022-03-03T12:30:28.644Z</time>
      </trkpt>
      <trkpt lat="44.16995" lon="6.08682">
        <ele>1406</ele>
        <time>2022-03-03T12:30:29.644Z</time>
      </trkpt>
      <trkpt lat="44.16996" lon="6.08682">
        <ele>1406</ele>
        <time>2022-03-03T12:30:30.644Z</time>
      </trkpt>
      <trkpt lat="44.16997" lon="6.08682">
        <ele>1406</ele>
        <time>2022-03-03T12:30:31.644Z</time>
      </trkpt>
      <trkpt lat="44.16998" lon="6.08683">
        <ele>1406</ele>
        <time>2022-03-03T12:30:32.644Z</time>
      </trkpt>
      <trkpt lat="44.16999" lon="6.08683">
        <ele>1407</ele>
        <time>2022-03-03T12:30:33.644Z</time>
      </trkpt>
      <trkpt lat="44.17" lon="6.08683">
        <ele>1407</ele>
        <time>2022-03-03T12:30:34.644Z</time>
      </trkpt>
      <trkpt lat="44.17002" lon="6.08683">
        <ele>1407</ele>
        <time>2022-03-03T12:30:35.644Z</time>
      </trkpt>
      <trkpt lat="44.17003" lon="6.08683">
        <ele>1407</ele>
        <time>2022-03-03T12:30:36.644Z</time>
      </trkpt>
      <trkpt lat="44.17004" lon="6.08683">
        <ele>1407</ele>
        <time>2022-03-03T12:30:37.644Z</time>
      </trkpt>
      <trkpt lat="44.17005" lon="6.08684">
        <ele>1407</ele>
        <time>2022-03-03T12:30:38.644Z</time>
      </trkpt>
      <trkpt lat="44.17006" lon="6.08684">
        <ele>1407</ele>
        <time>2022-03-03T12:30:39.644Z</time>
      </trkpt>
      <trkpt lat="44.17007" lon="6.08684">
        <ele>1407</ele>
        <time>2022-03-03T12:30:40.644Z</time>
      </trkpt>
      <trkpt lat="44.17008" lon="6.08684">
        <ele>1407</ele>
        <time>2022-03-03T12:30:41.644Z</time>
      </trkpt>
      <trkpt lat="44.17009" lon="6.08685">
        <ele>1407</ele>
        <time>2022-03-03T12:30:42.644Z</time>
      </trkpt>
      <trkpt lat="44.1701" lon="6.08685">
        <ele>1407</ele>
        <time>2022-03-03T12:30:43.644Z</time>
      </trkpt>
      <trkpt lat="44.17011" lon="6.08685">
        <ele>1407</ele>
        <time>2022-03-03T12:30:44.644Z</time>
      </trkpt>
      <trkpt lat="44.17012" lon="6.08686">
        <ele>1406</ele>
        <time>2022-03-03T12:30:45.644Z</time>
      </trkpt>
      <trkpt lat="44.17013" lon="6.08686">
        <ele>1406</ele>
        <time>2022-03-03T12:30:46.644Z</time>
      </trkpt>
      <trkpt lat="44.17015" lon="6.08686">
        <ele>1406</ele>
        <time>2022-03-03T12:30:47.644Z</time>
      </trkpt>
      <trkpt lat="44.17016" lon="6.08686">
        <ele>1406</ele>
        <time>2022-03-03T12:30:48.644Z</time>
      </trkpt>
      <trkpt lat="44.17017" lon="6.08687">
        <ele>1406</ele>
        <time>2022-03-03T12:30:49.644Z</time>
      </trkpt>
      <trkpt lat="44.17018" lon="6.08687">
        <ele>1406</ele>
        <time>2022-03-03T12:30:50.644Z</time>
      </trkpt>
      <trkpt lat="44.17019" lon="6.08687">
        <ele>1406</ele>
        <time>2022-03-03T12:30:51.644Z</time>
      </trkpt>
      <trkpt lat="44.1702" lon="6.08687">
        <ele>1406</ele>
        <time>2022-03-03T12:30:52.644Z</time>
      </trkpt>
      <trkpt lat="44.17021" lon="6.08687">
        <ele>1406</ele>
        <time>2022-03-03T12:30:53.644Z</time>
      </trkpt>
      <trkpt lat="44.17022" lon="6.08688">
        <ele>1405</ele>
        <time>2022-03-03T12:30:54.644Z</time>
      </trkpt>
      <trkpt lat="44.17023" lon="6.08689">
        <ele>1405</ele>
        <time>2022-03-03T12:30:55.644Z</time>
      </trkpt>
      <trkpt lat="44.17024" lon="6.08689">
        <ele>1405</ele>
        <time>2022-03-03T12:30:56.644Z</time>
      </trkpt>
      <trkpt lat="44.17025" lon="6.08689">
        <ele>1405</ele>
        <time>2022-03-03T12:30:57.644Z</time>
      </trkpt>
      <trkpt lat="44.17026" lon="6.0869">
        <ele>1404</ele>
        <time>2022-03-03T12:30:58.644Z</time>
      </trkpt>
      <trkpt lat="44.17028" lon="6.0869">
        <ele>1404</ele>
        <time>2022-03-03T12:30:59.644Z</time>
      </trkpt>
      <trkpt lat="44.17029" lon="6.08691">
        <ele>1404</ele>
        <time>2022-03-03T12:31:00.644Z</time>
      </trkpt>
      <trkpt lat="44.1703" lon="6.08692">
        <ele>1404</ele>
        <time>2022-03-03T12:31:01.644Z</time>
      </trkpt>
      <trkpt lat="44.17031" lon="6.08692">
        <ele>1403</ele>
        <time>2022-03-03T12:31:02.644Z</time>
      </trkpt>
      <trkpt lat="44.17032" lon="6.08693">
        <ele>1403</ele>
        <time>2022-03-03T12:31:03.644Z</time>
      </trkpt>
      <trkpt lat="44.17034" lon="6.08693">
        <ele>1403</ele>
        <time>2022-03-03T12:31:04.644Z</time>
      </trkpt>
      <trkpt lat="44.17035" lon="6.08694">
        <ele>1403</ele>
        <time>2022-03-03T12:31:05.644Z</time>
      </trkpt>
      <trkpt lat="44.17036" lon="6.08694">
        <ele>1402</ele>
        <time>2022-03-03T12:31:06.644Z</time>
      </trkpt>
      <trkpt lat="44.17037" lon="6.08694">
        <ele>1402</ele>
        <time>2022-03-03T12:31:07.644Z</time>
      </trkpt>
      <trkpt lat="44.17038" lon="6.08695">
        <ele>1402</ele>
        <time>2022-03-03T12:31:08.644Z</time>
      </trkpt>
      <trkpt lat="44.1704" lon="6.08696">
        <ele>1402</ele>
        <time>2022-03-03T12:31:09.644Z</time>
      </trkpt>
      <trkpt lat="44.1704" lon="6.08696">
        <ele>1402</ele>
        <time>2022-03-03T12:31:10.644Z</time>
      </trkpt>
      <trkpt lat="44.17042" lon="6.08697">
        <ele>1401</ele>
        <time>2022-03-03T12:31:11.644Z</time>
      </trkpt>
      <trkpt lat="44.17043" lon="6.08697">
        <ele>1401</ele>
        <time>2022-03-03T12:31:12.644Z</time>
      </trkpt>
      <trkpt lat="44.17044" lon="6.08698">
        <ele>1401</ele>
        <time>2022-03-03T12:31:13.644Z</time>
      </trkpt>
      <trkpt lat="44.17045" lon="6.08698">
        <ele>1401</ele>
        <time>2022-03-03T12:31:14.644Z</time>
      </trkpt>
      <trkpt lat="44.17046" lon="6.08698">
        <ele>1401</ele>
        <time>2022-03-03T12:31:15.644Z</time>
      </trkpt>
      <trkpt lat="44.17047" lon="6.08699">
        <ele>1400</ele>
        <time>2022-03-03T12:31:16.644Z</time>
      </trkpt>
      <trkpt lat="44.17048" lon="6.08699">
        <ele>1400</ele>
        <time>2022-03-03T12:31:17.644Z</time>
      </trkpt>
      <trkpt lat="44.1705" lon="6.087">
        <ele>1400</ele>
        <time>2022-03-03T12:31:18.644Z</time>
      </trkpt>
      <trkpt lat="44.17051" lon="6.087">
        <ele>1400</ele>
        <time>2022-03-03T12:31:19.644Z</time>
      </trkpt>
      <trkpt lat="44.17052" lon="6.087">
        <ele>1400</ele>
        <time>2022-03-03T12:31:20.644Z</time>
      </trkpt>
      <trkpt lat="44.17053" lon="6.08701">
        <ele>1400</ele>
        <time>2022-03-03T12:31:21.644Z</time>
      </trkpt>
      <trkpt lat="44.17054" lon="6.08701">
        <ele>1400</ele>
        <time>2022-03-03T12:31:22.644Z</time>
      </trkpt>
      <trkpt lat="44.17056" lon="6.08702">
        <ele>1399</ele>
        <time>2022-03-03T12:31:23.644Z</time>
      </trkpt>
      <trkpt lat="44.17057" lon="6.08702">
        <ele>1399</ele>
        <time>2022-03-03T12:31:24.644Z</time>
      </trkpt>
      <trkpt lat="44.17058" lon="6.08703">
        <ele>1399</ele>
        <time>2022-03-03T12:31:25.644Z</time>
      </trkpt>
      <trkpt lat="44.17059" lon="6.08703">
        <ele>1399</ele>
        <time>2022-03-03T12:31:26.644Z</time>
      </trkpt>
      <trkpt lat="44.1706" lon="6.08704">
        <ele>1399</ele>
        <time>2022-03-03T12:31:27.644Z</time>
      </trkpt>
      <trkpt lat="44.1706" lon="6.08705">
        <ele>1399</ele>
        <time>2022-03-03T12:31:28.644Z</time>
      </trkpt>
      <trkpt lat="44.17061" lon="6.08705">
        <ele>1399</ele>
        <time>2022-03-03T12:31:29.644Z</time>
      </trkpt>
      <trkpt lat="44.17062" lon="6.08706">
        <ele>1399</ele>
        <time>2022-03-03T12:31:30.644Z</time>
      </trkpt>
      <trkpt lat="44.17063" lon="6.08707">
        <ele>1398</ele>
        <time>2022-03-03T12:31:31.644Z</time>
      </trkpt>
      <trkpt lat="44.17064" lon="6.08707">
        <ele>1398</ele>
        <time>2022-03-03T12:31:32.644Z</time>
      </trkpt>
      <trkpt lat="44.17066" lon="6.08708">
        <ele>1398</ele>
        <time>2022-03-03T12:31:33.644Z</time>
      </trkpt>
      <trkpt lat="44.17067" lon="6.08709">
        <ele>1398</ele>
        <time>2022-03-03T12:31:34.644Z</time>
      </trkpt>
      <trkpt lat="44.17068" lon="6.08709">
        <ele>1398</ele>
        <time>2022-03-03T12:31:35.644Z</time>
      </trkpt>
      <trkpt lat="44.17069" lon="6.0871">
        <ele>1398</ele>
        <time>2022-03-03T12:31:36.644Z</time>
      </trkpt>
      <trkpt lat="44.1707" lon="6.0871">
        <ele>1397</ele>
        <time>2022-03-03T12:31:37.644Z</time>
      </trkpt>
      <trkpt lat="44.17071" lon="6.08711">
        <ele>1397</ele>
        <time>2022-03-03T12:31:38.644Z</time>
      </trkpt>
      <trkpt lat="44.17072" lon="6.08712">
        <ele>1397</ele>
        <time>2022-03-03T12:31:39.644Z</time>
      </trkpt>
      <trkpt lat="44.17073" lon="6.08712">
        <ele>1397</ele>
        <time>2022-03-03T12:31:40.644Z</time>
      </trkpt>
      <trkpt lat="44.17074" lon="6.08713">
        <ele>1397</ele>
        <time>2022-03-03T12:31:41.644Z</time>
      </trkpt>
      <trkpt lat="44.17075" lon="6.08713">
        <ele>1397</ele>
        <time>2022-03-03T12:31:42.644Z</time>
      </trkpt>
      <trkpt lat="44.17075" lon="6.08714">
        <ele>1397</ele>
        <time>2022-03-03T12:31:43.644Z</time>
      </trkpt>
      <trkpt lat="44.17077" lon="6.08714">
        <ele>1397</ele>
        <time>2022-03-03T12:31:44.644Z</time>
      </trkpt>
      <trkpt lat="44.17077" lon="6.08714">
        <ele>1397</ele>
        <time>2022-03-03T12:31:45.644Z</time>
      </trkpt>
      <trkpt lat="44.17078" lon="6.08715">
        <ele>1397</ele>
        <time>2022-03-03T12:31:46.644Z</time>
      </trkpt>
      <trkpt lat="44.17079" lon="6.08715">
        <ele>1397</ele>
        <time>2022-03-03T12:31:47.644Z</time>
      </trkpt>
      <trkpt lat="44.1708" lon="6.08716">
        <ele>1397</ele>
        <time>2022-03-03T12:31:48.644Z</time>
      </trkpt>
      <trkpt lat="44.17081" lon="6.08716">
        <ele>1397</ele>
        <time>2022-03-03T12:31:49.644Z</time>
      </trkpt>
      <trkpt lat="44.17082" lon="6.08716">
        <ele>1397</ele>
        <time>2022-03-03T12:31:50.644Z</time>
      </trkpt>
      <trkpt lat="44.17083" lon="6.08717">
        <ele>1397</ele>
        <time>2022-03-03T12:31:51.644Z</time>
      </trkpt>
      <trkpt lat="44.17084" lon="6.08717">
        <ele>1397</ele>
        <time>2022-03-03T12:31:52.644Z</time>
      </trkpt>
      <trkpt lat="44.17085" lon="6.08717">
        <ele>1397</ele>
        <time>2022-03-03T12:31:53.644Z</time>
      </trkpt>
      <trkpt lat="44.17087" lon="6.08717">
        <ele>1397</ele>
        <time>2022-03-03T12:31:54.644Z</time>
      </trkpt>
      <trkpt lat="44.17088" lon="6.08718">
        <ele>1397</ele>
        <time>2022-03-03T12:31:55.644Z</time>
      </trkpt>
      <trkpt lat="44.17089" lon="6.08719">
        <ele>1397</ele>
        <time>2022-03-03T12:31:56.644Z</time>
      </trkpt>
      <trkpt lat="44.1709" lon="6.08719">
        <ele>1397</ele>
        <time>2022-03-03T12:31:57.644Z</time>
      </trkpt>
      <trkpt lat="44.17091" lon="6.0872">
        <ele>1397</ele>
        <time>2022-03-03T12:31:58.644Z</time>
      </trkpt>
      <trkpt lat="44.17092" lon="6.0872">
        <ele>1397</ele>
        <time>2022-03-03T12:31:59.644Z</time>
      </trkpt>
      <trkpt lat="44.17093" lon="6.08721">
        <ele>1397</ele>
        <time>2022-03-03T12:32:00.644Z</time>
      </trkpt>
      <trkpt lat="44.17094" lon="6.08721">
        <ele>1397</ele>
        <time>2022-03-03T12:32:01.644Z</time>
      </trkpt>
      <trkpt lat="44.17095" lon="6.08721">
        <ele>1397</ele>
        <time>2022-03-03T12:32:02.644Z</time>
      </trkpt>
      <trkpt lat="44.17096" lon="6.08721">
        <ele>1397</ele>
        <time>2022-03-03T12:32:03.644Z</time>
      </trkpt>
      <trkpt lat="44.17097" lon="6.08722">
        <ele>1397</ele>
        <time>2022-03-03T12:32:04.644Z</time>
      </trkpt>
      <trkpt lat="44.17098" lon="6.08723">
        <ele>1397</ele>
        <time>2022-03-03T12:32:05.644Z</time>
      </trkpt>
      <trkpt lat="44.17099" lon="6.08723">
        <ele>1397</ele>
        <time>2022-03-03T12:32:06.644Z</time>
      </trkpt>
      <trkpt lat="44.171" lon="6.08724">
        <ele>1397</ele>
        <time>2022-03-03T12:32:07.644Z</time>
      </trkpt>
      <trkpt lat="44.17101" lon="6.08724">
        <ele>1397</ele>
        <time>2022-03-03T12:32:08.644Z</time>
      </trkpt>
      <trkpt lat="44.17102" lon="6.08724">
        <ele>1397</ele>
        <time>2022-03-03T12:32:09.644Z</time>
      </trkpt>
      <trkpt lat="44.17103" lon="6.08725">
        <ele>1397</ele>
        <time>2022-03-03T12:32:10.644Z</time>
      </trkpt>
      <trkpt lat="44.17104" lon="6.08726">
        <ele>1397</ele>
        <time>2022-03-03T12:32:11.644Z</time>
      </trkpt>
      <trkpt lat="44.17105" lon="6.08726">
        <ele>1397</ele>
        <time>2022-03-03T12:32:12.644Z</time>
      </trkpt>
      <trkpt lat="44.17106" lon="6.08727">
        <ele>1397</ele>
        <time>2022-03-03T12:32:13.644Z</time>
      </trkpt>
      <trkpt lat="44.17107" lon="6.08727">
        <ele>1397</ele>
        <time>2022-03-03T12:32:14.644Z</time>
      </trkpt>
      <trkpt lat="44.17108" lon="6.08727">
        <ele>1397</ele>
        <time>2022-03-03T12:32:15.644Z</time>
      </trkpt>
      <trkpt lat="44.17109" lon="6.08728">
        <ele>1398</ele>
        <time>2022-03-03T12:32:16.644Z</time>
      </trkpt>
      <trkpt lat="44.1711" lon="6.08729">
        <ele>1398</ele>
        <time>2022-03-03T12:32:17.644Z</time>
      </trkpt>
      <trkpt lat="44.17111" lon="6.08729">
        <ele>1398</ele>
        <time>2022-03-03T12:32:18.644Z</time>
      </trkpt>
      <trkpt lat="44.17112" lon="6.08729">
        <ele>1398</ele>
        <time>2022-03-03T12:32:19.644Z</time>
      </trkpt>
      <trkpt lat="44.17113" lon="6.0873">
        <ele>1398</ele>
        <time>2022-03-03T12:32:20.644Z</time>
      </trkpt>
      <trkpt lat="44.17114" lon="6.08731">
        <ele>1398</ele>
        <time>2022-03-03T12:32:21.644Z</time>
      </trkpt>
      <trkpt lat="44.17116" lon="6.08731">
        <ele>1398</ele>
        <time>2022-03-03T12:32:22.644Z</time>
      </trkpt>
      <trkpt lat="44.17116" lon="6.08732">
        <ele>1397</ele>
        <time>2022-03-03T12:32:23.644Z</time>
      </trkpt>
      <trkpt lat="44.17117" lon="6.08732">
        <ele>1397</ele>
        <time>2022-03-03T12:32:24.644Z</time>
      </trkpt>
      <trkpt lat="44.17118" lon="6.08733">
        <ele>1397</ele>
        <time>2022-03-03T12:32:25.644Z</time>
      </trkpt>
      <trkpt lat="44.17119" lon="6.08733">
        <ele>1397</ele>
        <time>2022-03-03T12:32:26.644Z</time>
      </trkpt>
      <trkpt lat="44.17121" lon="6.08734">
        <ele>1397</ele>
        <time>2022-03-03T12:32:27.644Z</time>
      </trkpt>
      <trkpt lat="44.17122" lon="6.08734">
        <ele>1397</ele>
        <time>2022-03-03T12:32:28.644Z</time>
      </trkpt>
      <trkpt lat="44.17122" lon="6.08735">
        <ele>1397</ele>
        <time>2022-03-03T12:32:29.644Z</time>
      </trkpt>
      <trkpt lat="44.17123" lon="6.08736">
        <ele>1397</ele>
        <time>2022-03-03T12:32:30.644Z</time>
      </trkpt>
      <trkpt lat="44.17124" lon="6.08736">
        <ele>1397</ele>
        <time>2022-03-03T12:32:31.644Z</time>
      </trkpt>
      <trkpt lat="44.17125" lon="6.08737">
        <ele>1397</ele>
        <time>2022-03-03T12:32:32.644Z</time>
      </trkpt>
      <trkpt lat="44.17126" lon="6.08737">
        <ele>1397</ele>
        <time>2022-03-03T12:32:33.644Z</time>
      </trkpt>
      <trkpt lat="44.17127" lon="6.08738">
        <ele>1397</ele>
        <time>2022-03-03T12:32:34.644Z</time>
      </trkpt>
      <trkpt lat="44.17128" lon="6.08739">
        <ele>1397</ele>
        <time>2022-03-03T12:32:35.644Z</time>
      </trkpt>
      <trkpt lat="44.17129" lon="6.08739">
        <ele>1397</ele>
        <time>2022-03-03T12:32:36.644Z</time>
      </trkpt>
      <trkpt lat="44.1713" lon="6.0874">
        <ele>1397</ele>
        <time>2022-03-03T12:32:37.644Z</time>
      </trkpt>
      <trkpt lat="44.17131" lon="6.08741">
        <ele>1397</ele>
        <time>2022-03-03T12:32:38.644Z</time>
      </trkpt>
      <trkpt lat="44.17132" lon="6.08742">
        <ele>1397</ele>
        <time>2022-03-03T12:32:39.644Z</time>
      </trkpt>
      <trkpt lat="44.17132" lon="6.08743">
        <ele>1397</ele>
        <time>2022-03-03T12:32:40.644Z</time>
      </trkpt>
      <trkpt lat="44.17133" lon="6.08744">
        <ele>1397</ele>
        <time>2022-03-03T12:32:41.644Z</time>
      </trkpt>
      <trkpt lat="44.17134" lon="6.08745">
        <ele>1397</ele>
        <time>2022-03-03T12:32:42.644Z</time>
      </trkpt>
      <trkpt lat="44.17135" lon="6.08746">
        <ele>1397</ele>
        <time>2022-03-03T12:32:43.644Z</time>
      </trkpt>
      <trkpt lat="44.17135" lon="6.08748">
        <ele>1398</ele>
        <time>2022-03-03T12:32:44.644Z</time>
      </trkpt>
      <trkpt lat="44.17136" lon="6.08749">
        <ele>1398</ele>
        <time>2022-03-03T12:32:45.644Z</time>
      </trkpt>
      <trkpt lat="44.17137" lon="6.0875">
        <ele>1398</ele>
        <time>2022-03-03T12:32:46.644Z</time>
      </trkpt>
      <trkpt lat="44.17138" lon="6.0875">
        <ele>1398</ele>
        <time>2022-03-03T12:32:47.644Z</time>
      </trkpt>
      <trkpt lat="44.17139" lon="6.08751">
        <ele>1398</ele>
        <time>2022-03-03T12:32:48.644Z</time>
      </trkpt>
      <trkpt lat="44.17139" lon="6.08752">
        <ele>1398</ele>
        <time>2022-03-03T12:32:49.644Z</time>
      </trkpt>
      <trkpt lat="44.1714" lon="6.08753">
        <ele>1398</ele>
        <time>2022-03-03T12:32:50.644Z</time>
      </trkpt>
      <trkpt lat="44.17141" lon="6.08754">
        <ele>1398</ele>
        <time>2022-03-03T12:32:51.644Z</time>
      </trkpt>
      <trkpt lat="44.17142" lon="6.08754">
        <ele>1398</ele>
        <time>2022-03-03T12:32:52.644Z</time>
      </trkpt>
      <trkpt lat="44.17143" lon="6.08755">
        <ele>1399</ele>
        <time>2022-03-03T12:32:53.644Z</time>
      </trkpt>
      <trkpt lat="44.17144" lon="6.08756">
        <ele>1399</ele>
        <time>2022-03-03T12:32:54.644Z</time>
      </trkpt>
      <trkpt lat="44.17145" lon="6.08757">
        <ele>1399</ele>
        <time>2022-03-03T12:32:55.644Z</time>
      </trkpt>
      <trkpt lat="44.17146" lon="6.08758">
        <ele>1399</ele>
        <time>2022-03-03T12:32:56.644Z</time>
      </trkpt>
      <trkpt lat="44.17146" lon="6.0876">
        <ele>1399</ele>
        <time>2022-03-03T12:32:57.644Z</time>
      </trkpt>
      <trkpt lat="44.17146" lon="6.08761">
        <ele>1399</ele>
        <time>2022-03-03T12:32:58.644Z</time>
      </trkpt>
      <trkpt lat="44.17147" lon="6.08762">
        <ele>1398</ele>
        <time>2022-03-03T12:32:59.644Z</time>
      </trkpt>
      <trkpt lat="44.17147" lon="6.08763">
        <ele>1398</ele>
        <time>2022-03-03T12:33:00.644Z</time>
      </trkpt>
      <trkpt lat="44.17147" lon="6.08765">
        <ele>1399</ele>
        <time>2022-03-03T12:33:01.644Z</time>
      </trkpt>
      <trkpt lat="44.17147" lon="6.08766">
        <ele>1399</ele>
        <time>2022-03-03T12:33:02.644Z</time>
      </trkpt>
      <trkpt lat="44.17147" lon="6.08767">
        <ele>1398</ele>
        <time>2022-03-03T12:33:03.644Z</time>
      </trkpt>
      <trkpt lat="44.17148" lon="6.08769">
        <ele>1398</ele>
        <time>2022-03-03T12:33:04.644Z</time>
      </trkpt>
      <trkpt lat="44.17148" lon="6.0877">
        <ele>1398</ele>
        <time>2022-03-03T12:33:05.644Z</time>
      </trkpt>
      <trkpt lat="44.17148" lon="6.08772">
        <ele>1398</ele>
        <time>2022-03-03T12:33:06.644Z</time>
      </trkpt>
      <trkpt lat="44.17148" lon="6.08773">
        <ele>1398</ele>
        <time>2022-03-03T12:33:07.644Z</time>
      </trkpt>
      <trkpt lat="44.17148" lon="6.08775">
        <ele>1398</ele>
        <time>2022-03-03T12:33:08.644Z</time>
      </trkpt>
      <trkpt lat="44.17148" lon="6.08777">
        <ele>1398</ele>
        <time>2022-03-03T12:33:09.644Z</time>
      </trkpt>
      <trkpt lat="44.17148" lon="6.08778">
        <ele>1398</ele>
        <time>2022-03-03T12:33:10.644Z</time>
      </trkpt>
      <trkpt lat="44.17149" lon="6.08779">
        <ele>1398</ele>
        <time>2022-03-03T12:33:11.644Z</time>
      </trkpt>
      <trkpt lat="44.17149" lon="6.08781">
        <ele>1398</ele>
        <time>2022-03-03T12:33:12.644Z</time>
      </trkpt>
      <trkpt lat="44.1715" lon="6.08783">
        <ele>1397</ele>
        <time>2022-03-03T12:33:13.644Z</time>
      </trkpt>
      <trkpt lat="44.17151" lon="6.08784">
        <ele>1397</ele>
        <time>2022-03-03T12:33:14.644Z</time>
      </trkpt>
      <trkpt lat="44.17151" lon="6.08785">
        <ele>1397</ele>
        <time>2022-03-03T12:33:15.644Z</time>
      </trkpt>
      <trkpt lat="44.17152" lon="6.08787">
        <ele>1397</ele>
        <time>2022-03-03T12:33:16.644Z</time>
      </trkpt>
      <trkpt lat="44.17153" lon="6.08788">
        <ele>1397</ele>
        <time>2022-03-03T12:33:17.644Z</time>
      </trkpt>
      <trkpt lat="44.17154" lon="6.08789">
        <ele>1397</ele>
        <time>2022-03-03T12:33:18.644Z</time>
      </trkpt>
      <trkpt lat="44.17154" lon="6.0879">
        <ele>1397</ele>
        <time>2022-03-03T12:33:19.644Z</time>
      </trkpt>
      <trkpt lat="44.17155" lon="6.08792">
        <ele>1397</ele>
        <time>2022-03-03T12:33:20.644Z</time>
      </trkpt>
      <trkpt lat="44.17156" lon="6.08793">
        <ele>1397</ele>
        <time>2022-03-03T12:33:21.644Z</time>
      </trkpt>
      <trkpt lat="44.17157" lon="6.08795">
        <ele>1397</ele>
        <time>2022-03-03T12:33:22.644Z</time>
      </trkpt>
      <trkpt lat="44.17158" lon="6.08796">
        <ele>1396</ele>
        <time>2022-03-03T12:33:23.644Z</time>
      </trkpt>
      <trkpt lat="44.17159" lon="6.08797">
        <ele>1396</ele>
        <time>2022-03-03T12:33:24.644Z</time>
      </trkpt>
      <trkpt lat="44.1716" lon="6.08799">
        <ele>1396</ele>
        <time>2022-03-03T12:33:25.644Z</time>
      </trkpt>
      <trkpt lat="44.17161" lon="6.088">
        <ele>1396</ele>
        <time>2022-03-03T12:33:26.644Z</time>
      </trkpt>
      <trkpt lat="44.17161" lon="6.08802">
        <ele>1396</ele>
        <time>2022-03-03T12:33:27.644Z</time>
      </trkpt>
      <trkpt lat="44.17162" lon="6.08803">
        <ele>1396</ele>
        <time>2022-03-03T12:33:28.644Z</time>
      </trkpt>
      <trkpt lat="44.17162" lon="6.08804">
        <ele>1396</ele>
        <time>2022-03-03T12:33:29.644Z</time>
      </trkpt>
      <trkpt lat="44.17163" lon="6.08805">
        <ele>1396</ele>
        <time>2022-03-03T12:33:30.644Z</time>
      </trkpt>
      <trkpt lat="44.17164" lon="6.08806">
        <ele>1396</ele>
        <time>2022-03-03T12:33:31.644Z</time>
      </trkpt>
      <trkpt lat="44.17165" lon="6.08807">
        <ele>1396</ele>
        <time>2022-03-03T12:33:32.644Z</time>
      </trkpt>
      <trkpt lat="44.17165" lon="6.08808">
        <ele>1396</ele>
        <time>2022-03-03T12:33:33.644Z</time>
      </trkpt>
      <trkpt lat="44.17166" lon="6.08809">
        <ele>1396</ele>
        <time>2022-03-03T12:33:34.644Z</time>
      </trkpt>
      <trkpt lat="44.17167" lon="6.08811">
        <ele>1396</ele>
        <time>2022-03-03T12:33:35.644Z</time>
      </trkpt>
      <trkpt lat="44.17168" lon="6.08812">
        <ele>1396</ele>
        <time>2022-03-03T12:33:36.644Z</time>
      </trkpt>
      <trkpt lat="44.17168" lon="6.08813">
        <ele>1396</ele>
        <time>2022-03-03T12:33:37.644Z</time>
      </trkpt>
      <trkpt lat="44.17169" lon="6.08814">
        <ele>1396</ele>
        <time>2022-03-03T12:33:38.644Z</time>
      </trkpt>
      <trkpt lat="44.1717" lon="6.08815">
        <ele>1396</ele>
        <time>2022-03-03T12:33:39.644Z</time>
      </trkpt>
      <trkpt lat="44.1717" lon="6.08816">
        <ele>1396</ele>
        <time>2022-03-03T12:33:40.644Z</time>
      </trkpt>
      <trkpt lat="44.17171" lon="6.08816">
        <ele>1396</ele>
        <time>2022-03-03T12:33:41.644Z</time>
      </trkpt>
      <trkpt lat="44.17171" lon="6.08817">
        <ele>1396</ele>
        <time>2022-03-03T12:33:42.644Z</time>
      </trkpt>
      <trkpt lat="44.17171" lon="6.08817">
        <ele>1396</ele>
        <time>2022-03-03T12:33:43.644Z</time>
      </trkpt>
      <trkpt lat="44.17171" lon="6.08818">
        <ele>1396</ele>
        <time>2022-03-03T12:33:44.644Z</time>
      </trkpt>
      <trkpt lat="44.17172" lon="6.08819">
        <ele>1396</ele>
        <time>2022-03-03T12:33:45.644Z</time>
      </trkpt>
      <trkpt lat="44.17173" lon="6.08819">
        <ele>1396</ele>
        <time>2022-03-03T12:33:46.644Z</time>
      </trkpt>
      <trkpt lat="44.17174" lon="6.0882">
        <ele>1396</ele>
        <time>2022-03-03T12:33:47.644Z</time>
      </trkpt>
      <trkpt lat="44.17174" lon="6.0882">
        <ele>1396</ele>
        <time>2022-03-03T12:33:48.644Z</time>
      </trkpt>
      <trkpt lat="44.17175" lon="6.08821">
        <ele>1397</ele>
        <time>2022-03-03T12:33:49.644Z</time>
      </trkpt>
      <trkpt lat="44.17177" lon="6.08822">
        <ele>1397</ele>
        <time>2022-03-03T12:33:50.644Z</time>
      </trkpt>
      <trkpt lat="44.17178" lon="6.08823">
        <ele>1397</ele>
        <time>2022-03-03T12:33:51.644Z</time>
      </trkpt>
      <trkpt lat="44.17178" lon="6.08823">
        <ele>1397</ele>
        <time>2022-03-03T12:33:52.644Z</time>
      </trkpt>
      <trkpt lat="44.17179" lon="6.08824">
        <ele>1397</ele>
        <time>2022-03-03T12:33:53.644Z</time>
      </trkpt>
      <trkpt lat="44.1718" lon="6.08825">
        <ele>1397</ele>
        <time>2022-03-03T12:33:54.644Z</time>
      </trkpt>
      <trkpt lat="44.17182" lon="6.08826">
        <ele>1397</ele>
        <time>2022-03-03T12:33:55.644Z</time>
      </trkpt>
      <trkpt lat="44.17182" lon="6.08827">
        <ele>1397</ele>
        <time>2022-03-03T12:33:56.644Z</time>
      </trkpt>
      <trkpt lat="44.17183" lon="6.08828">
        <ele>1398</ele>
        <time>2022-03-03T12:33:57.644Z</time>
      </trkpt>
      <trkpt lat="44.17184" lon="6.08829">
        <ele>1398</ele>
        <time>2022-03-03T12:33:58.644Z</time>
      </trkpt>
      <trkpt lat="44.17185" lon="6.0883">
        <ele>1398</ele>
        <time>2022-03-03T12:33:59.644Z</time>
      </trkpt>
      <trkpt lat="44.17186" lon="6.08831">
        <ele>1398</ele>
        <time>2022-03-03T12:34:00.644Z</time>
      </trkpt>
      <trkpt lat="44.17187" lon="6.08831">
        <ele>1398</ele>
        <time>2022-03-03T12:34:01.644Z</time>
      </trkpt>
      <trkpt lat="44.17188" lon="6.08832">
        <ele>1398</ele>
        <time>2022-03-03T12:34:02.644Z</time>
      </trkpt>
      <trkpt lat="44.17189" lon="6.08833">
        <ele>1398</ele>
        <time>2022-03-03T12:34:03.644Z</time>
      </trkpt>
      <trkpt lat="44.1719" lon="6.08834">
        <ele>1398</ele>
        <time>2022-03-03T12:34:04.644Z</time>
      </trkpt>
      <trkpt lat="44.1719" lon="6.08835">
        <ele>1398</ele>
        <time>2022-03-03T12:34:05.644Z</time>
      </trkpt>
      <trkpt lat="44.17191" lon="6.08836">
        <ele>1399</ele>
        <time>2022-03-03T12:34:06.644Z</time>
      </trkpt>
      <trkpt lat="44.17192" lon="6.08837">
        <ele>1399</ele>
        <time>2022-03-03T12:34:07.644Z</time>
      </trkpt>
      <trkpt lat="44.17193" lon="6.08837">
        <ele>1399</ele>
        <time>2022-03-03T12:34:08.644Z</time>
      </trkpt>
      <trkpt lat="44.17194" lon="6.08838">
        <ele>1399</ele>
        <time>2022-03-03T12:34:09.644Z</time>
      </trkpt>
      <trkpt lat="44.17195" lon="6.08839">
        <ele>1399</ele>
        <time>2022-03-03T12:34:10.644Z</time>
      </trkpt>
      <trkpt lat="44.17196" lon="6.0884">
        <ele>1399</ele>
        <time>2022-03-03T12:34:11.644Z</time>
      </trkpt>
      <trkpt lat="44.17197" lon="6.08841">
        <ele>1399</ele>
        <time>2022-03-03T12:34:12.644Z</time>
      </trkpt>
      <trkpt lat="44.17197" lon="6.08842">
        <ele>1399</ele>
        <time>2022-03-03T12:34:13.644Z</time>
      </trkpt>
      <trkpt lat="44.17198" lon="6.08843">
        <ele>1399</ele>
        <time>2022-03-03T12:34:14.644Z</time>
      </trkpt>
      <trkpt lat="44.17199" lon="6.08844">
        <ele>1399</ele>
        <time>2022-03-03T12:34:15.644Z</time>
      </trkpt>
      <trkpt lat="44.172" lon="6.08844">
        <ele>1400</ele>
        <time>2022-03-03T12:34:16.644Z</time>
      </trkpt>
      <trkpt lat="44.17201" lon="6.08845">
        <ele>1400</ele>
        <time>2022-03-03T12:34:17.644Z</time>
      </trkpt>
      <trkpt lat="44.17202" lon="6.08846">
        <ele>1400</ele>
        <time>2022-03-03T12:34:18.644Z</time>
      </trkpt>
      <trkpt lat="44.17202" lon="6.08847">
        <ele>1400</ele>
        <time>2022-03-03T12:34:19.644Z</time>
      </trkpt>
      <trkpt lat="44.17203" lon="6.08848">
        <ele>1400</ele>
        <time>2022-03-03T12:34:20.644Z</time>
      </trkpt>
      <trkpt lat="44.17204" lon="6.08849">
        <ele>1400</ele>
        <time>2022-03-03T12:34:21.644Z</time>
      </trkpt>
      <trkpt lat="44.17205" lon="6.0885">
        <ele>1400</ele>
        <time>2022-03-03T12:34:22.644Z</time>
      </trkpt>
      <trkpt lat="44.17206" lon="6.08851">
        <ele>1400</ele>
        <time>2022-03-03T12:34:23.644Z</time>
      </trkpt>
      <trkpt lat="44.17206" lon="6.08852">
        <ele>1401</ele>
        <time>2022-03-03T12:34:24.644Z</time>
      </trkpt>
      <trkpt lat="44.17207" lon="6.08852">
        <ele>1401</ele>
        <time>2022-03-03T12:34:25.644Z</time>
      </trkpt>
      <trkpt lat="44.17208" lon="6.08853">
        <ele>1401</ele>
        <time>2022-03-03T12:34:26.644Z</time>
      </trkpt>
      <trkpt lat="44.17209" lon="6.08854">
        <ele>1401</ele>
        <time>2022-03-03T12:34:27.644Z</time>
      </trkpt>
      <trkpt lat="44.1721" lon="6.08855">
        <ele>1401</ele>
        <time>2022-03-03T12:34:28.644Z</time>
      </trkpt>
      <trkpt lat="44.17211" lon="6.08856">
        <ele>1401</ele>
        <time>2022-03-03T12:34:29.644Z</time>
      </trkpt>
      <trkpt lat="44.17212" lon="6.08856">
        <ele>1401</ele>
        <time>2022-03-03T12:34:30.644Z</time>
      </trkpt>
      <trkpt lat="44.17213" lon="6.08857">
        <ele>1401</ele>
        <time>2022-03-03T12:34:31.644Z</time>
      </trkpt>
      <trkpt lat="44.17213" lon="6.08858">
        <ele>1400</ele>
        <time>2022-03-03T12:34:32.644Z</time>
      </trkpt>
      <trkpt lat="44.17214" lon="6.08859">
        <ele>1400</ele>
        <time>2022-03-03T12:34:33.644Z</time>
      </trkpt>
      <trkpt lat="44.17215" lon="6.08859">
        <ele>1400</ele>
        <time>2022-03-03T12:34:34.644Z</time>
      </trkpt>
      <trkpt lat="44.17216" lon="6.0886">
        <ele>1400</ele>
        <time>2022-03-03T12:34:35.644Z</time>
      </trkpt>
      <trkpt lat="44.17217" lon="6.08861">
        <ele>1400</ele>
        <time>2022-03-03T12:34:36.644Z</time>
      </trkpt>
      <trkpt lat="44.17217" lon="6.08861">
        <ele>1400</ele>
        <time>2022-03-03T12:34:37.644Z</time>
      </trkpt>
      <trkpt lat="44.17218" lon="6.08862">
        <ele>1400</ele>
        <time>2022-03-03T12:34:38.644Z</time>
      </trkpt>
      <trkpt lat="44.17219" lon="6.08863">
        <ele>1400</ele>
        <time>2022-03-03T12:34:39.644Z</time>
      </trkpt>
      <trkpt lat="44.17219" lon="6.08863">
        <ele>1400</ele>
        <time>2022-03-03T12:34:40.644Z</time>
      </trkpt>
      <trkpt lat="44.1722" lon="6.08864">
        <ele>1400</ele>
        <time>2022-03-03T12:34:41.644Z</time>
      </trkpt>
      <trkpt lat="44.17221" lon="6.08864">
        <ele>1400</ele>
        <time>2022-03-03T12:34:42.644Z</time>
      </trkpt>
      <trkpt lat="44.17222" lon="6.08865">
        <ele>1400</ele>
        <time>2022-03-03T12:34:43.644Z</time>
      </trkpt>
      <trkpt lat="44.17222" lon="6.08865">
        <ele>1400</ele>
        <time>2022-03-03T12:34:44.644Z</time>
      </trkpt>
      <trkpt lat="44.17223" lon="6.08866">
        <ele>1401</ele>
        <time>2022-03-03T12:34:45.644Z</time>
      </trkpt>
      <trkpt lat="44.17224" lon="6.08867">
        <ele>1401</ele>
        <time>2022-03-03T12:34:46.644Z</time>
      </trkpt>
      <trkpt lat="44.17224" lon="6.08867">
        <ele>1401</ele>
        <time>2022-03-03T12:34:47.644Z</time>
      </trkpt>
      <trkpt lat="44.17225" lon="6.08868">
        <ele>1401</ele>
        <time>2022-03-03T12:34:48.644Z</time>
      </trkpt>
      <trkpt lat="44.17225" lon="6.08868">
        <ele>1401</ele>
        <time>2022-03-03T12:34:49.644Z</time>
      </trkpt>
      <trkpt lat="44.17226" lon="6.08869">
        <ele>1401</ele>
        <time>2022-03-03T12:34:50.644Z</time>
      </trkpt>
      <trkpt lat="44.17226" lon="6.08869">
        <ele>1401</ele>
        <time>2022-03-03T12:34:51.644Z</time>
      </trkpt>
      <trkpt lat="44.17227" lon="6.08869">
        <ele>1401</ele>
        <time>2022-03-03T12:34:52.644Z</time>
      </trkpt>
      <trkpt lat="44.17227" lon="6.08869">
        <ele>1401</ele>
        <time>2022-03-03T12:34:53.644Z</time>
      </trkpt>
      <trkpt lat="44.17228" lon="6.0887">
        <ele>1401</ele>
        <time>2022-03-03T12:34:54.644Z</time>
      </trkpt>
      <trkpt lat="44.17229" lon="6.0887">
        <ele>1401</ele>
        <time>2022-03-03T12:34:55.644Z</time>
      </trkpt>
      <trkpt lat="44.17229" lon="6.08871">
        <ele>1401</ele>
        <time>2022-03-03T12:34:56.644Z</time>
      </trkpt>
      <trkpt lat="44.1723" lon="6.08871">
        <ele>1401</ele>
        <time>2022-03-03T12:34:57.644Z</time>
      </trkpt>
      <trkpt lat="44.17231" lon="6.08872">
        <ele>1402</ele>
        <time>2022-03-03T12:34:58.644Z</time>
      </trkpt>
      <trkpt lat="44.17232" lon="6.08872">
        <ele>1402</ele>
        <time>2022-03-03T12:34:59.644Z</time>
      </trkpt>
      <trkpt lat="44.17232" lon="6.08872">
        <ele>1402</ele>
        <time>2022-03-03T12:35:00.644Z</time>
      </trkpt>
      <trkpt lat="44.17233" lon="6.08872">
        <ele>1402</ele>
        <time>2022-03-03T12:35:01.644Z</time>
      </trkpt>
      <trkpt lat="44.17234" lon="6.08872">
        <ele>1402</ele>
        <time>2022-03-03T12:35:02.644Z</time>
      </trkpt>
      <trkpt lat="44.17234" lon="6.08873">
        <ele>1402</ele>
        <time>2022-03-03T12:35:03.644Z</time>
      </trkpt>
      <trkpt lat="44.17234" lon="6.08873">
        <ele>1402</ele>
        <time>2022-03-03T12:35:04.644Z</time>
      </trkpt>
      <trkpt lat="44.17235" lon="6.08873">
        <ele>1403</ele>
        <time>2022-03-03T12:35:05.644Z</time>
      </trkpt>
      <trkpt lat="44.17237" lon="6.08873">
        <ele>1403</ele>
        <time>2022-03-03T12:35:06.644Z</time>
      </trkpt>
      <trkpt lat="44.17238" lon="6.08874">
        <ele>1403</ele>
        <time>2022-03-03T12:35:07.644Z</time>
      </trkpt>
      <trkpt lat="44.17239" lon="6.08874">
        <ele>1403</ele>
        <time>2022-03-03T12:35:08.644Z</time>
      </trkpt>
      <trkpt lat="44.1724" lon="6.08874">
        <ele>1404</ele>
        <time>2022-03-03T12:35:09.644Z</time>
      </trkpt>
      <trkpt lat="44.17241" lon="6.08874">
        <ele>1404</ele>
        <time>2022-03-03T12:35:10.644Z</time>
      </trkpt>
      <trkpt lat="44.17242" lon="6.08875">
        <ele>1404</ele>
        <time>2022-03-03T12:35:11.644Z</time>
      </trkpt>
      <trkpt lat="44.17243" lon="6.08875">
        <ele>1404</ele>
        <time>2022-03-03T12:35:12.644Z</time>
      </trkpt>
      <trkpt lat="44.17244" lon="6.08876">
        <ele>1405</ele>
        <time>2022-03-03T12:35:13.644Z</time>
      </trkpt>
      <trkpt lat="44.17244" lon="6.08877">
        <ele>1405</ele>
        <time>2022-03-03T12:35:14.644Z</time>
      </trkpt>
      <trkpt lat="44.17245" lon="6.08877">
        <ele>1405</ele>
        <time>2022-03-03T12:35:15.644Z</time>
      </trkpt>
      <trkpt lat="44.17246" lon="6.08878">
        <ele>1405</ele>
        <time>2022-03-03T12:35:16.644Z</time>
      </trkpt>
      <trkpt lat="44.17247" lon="6.08879">
        <ele>1405</ele>
        <time>2022-03-03T12:35:17.644Z</time>
      </trkpt>
      <trkpt lat="44.17248" lon="6.0888">
        <ele>1405</ele>
        <time>2022-03-03T12:35:18.644Z</time>
      </trkpt>
      <trkpt lat="44.17249" lon="6.08881">
        <ele>1405</ele>
        <time>2022-03-03T12:35:19.644Z</time>
      </trkpt>
      <trkpt lat="44.1725" lon="6.08882">
        <ele>1405</ele>
        <time>2022-03-03T12:35:20.644Z</time>
      </trkpt>
      <trkpt lat="44.17251" lon="6.08883">
        <ele>1405</ele>
        <time>2022-03-03T12:35:21.644Z</time>
      </trkpt>
      <trkpt lat="44.17252" lon="6.08884">
        <ele>1406</ele>
        <time>2022-03-03T12:35:22.644Z</time>
      </trkpt>
      <trkpt lat="44.17253" lon="6.08886">
        <ele>1406</ele>
        <time>2022-03-03T12:35:23.644Z</time>
      </trkpt>
      <trkpt lat="44.17254" lon="6.08887">
        <ele>1406</ele>
        <time>2022-03-03T12:35:24.644Z</time>
      </trkpt>
      <trkpt lat="44.17255" lon="6.08888">
        <ele>1406</ele>
        <time>2022-03-03T12:35:25.644Z</time>
      </trkpt>
      <trkpt lat="44.17256" lon="6.08889">
        <ele>1406</ele>
        <time>2022-03-03T12:35:26.644Z</time>
      </trkpt>
      <trkpt lat="44.17257" lon="6.0889">
        <ele>1406</ele>
        <time>2022-03-03T12:35:27.644Z</time>
      </trkpt>
      <trkpt lat="44.17257" lon="6.08891">
        <ele>1406</ele>
        <time>2022-03-03T12:35:28.644Z</time>
      </trkpt>
      <trkpt lat="44.17258" lon="6.08892">
        <ele>1406</ele>
        <time>2022-03-03T12:35:29.644Z</time>
      </trkpt>
      <trkpt lat="44.17259" lon="6.08894">
        <ele>1406</ele>
        <time>2022-03-03T12:35:30.644Z</time>
      </trkpt>
      <trkpt lat="44.1726" lon="6.08895">
        <ele>1406</ele>
        <time>2022-03-03T12:35:31.644Z</time>
      </trkpt>
      <trkpt lat="44.17261" lon="6.08896">
        <ele>1406</ele>
        <time>2022-03-03T12:35:32.644Z</time>
      </trkpt>
      <trkpt lat="44.17262" lon="6.08897">
        <ele>1406</ele>
        <time>2022-03-03T12:35:33.644Z</time>
      </trkpt>
      <trkpt lat="44.17263" lon="6.08898">
        <ele>1406</ele>
        <time>2022-03-03T12:35:34.644Z</time>
      </trkpt>
      <trkpt lat="44.17265" lon="6.08899">
        <ele>1405</ele>
        <time>2022-03-03T12:35:35.644Z</time>
      </trkpt>
      <trkpt lat="44.17266" lon="6.089">
        <ele>1405</ele>
        <time>2022-03-03T12:35:36.644Z</time>
      </trkpt>
      <trkpt lat="44.17267" lon="6.08901">
        <ele>1405</ele>
        <time>2022-03-03T12:35:37.644Z</time>
      </trkpt>
      <trkpt lat="44.17268" lon="6.08902">
        <ele>1405</ele>
        <time>2022-03-03T12:35:38.644Z</time>
      </trkpt>
      <trkpt lat="44.17269" lon="6.08904">
        <ele>1405</ele>
        <time>2022-03-03T12:35:39.644Z</time>
      </trkpt>
      <trkpt lat="44.17269" lon="6.08906">
        <ele>1405</ele>
        <time>2022-03-03T12:35:40.644Z</time>
      </trkpt>
      <trkpt lat="44.1727" lon="6.08907">
        <ele>1405</ele>
        <time>2022-03-03T12:35:41.644Z</time>
      </trkpt>
      <trkpt lat="44.17271" lon="6.08908">
        <ele>1405</ele>
        <time>2022-03-03T12:35:42.644Z</time>
      </trkpt>
      <trkpt lat="44.17272" lon="6.0891">
        <ele>1405</ele>
        <time>2022-03-03T12:35:43.644Z</time>
      </trkpt>
      <trkpt lat="44.17273" lon="6.08911">
        <ele>1405</ele>
        <time>2022-03-03T12:35:44.644Z</time>
      </trkpt>
      <trkpt lat="44.17274" lon="6.08912">
        <ele>1405</ele>
        <time>2022-03-03T12:35:45.644Z</time>
      </trkpt>
      <trkpt lat="44.17275" lon="6.08913">
        <ele>1405</ele>
        <time>2022-03-03T12:35:46.644Z</time>
      </trkpt>
      <trkpt lat="44.17276" lon="6.08914">
        <ele>1405</ele>
        <time>2022-03-03T12:35:47.644Z</time>
      </trkpt>
      <trkpt lat="44.17277" lon="6.08915">
        <ele>1405</ele>
        <time>2022-03-03T12:35:48.644Z</time>
      </trkpt>
      <trkpt lat="44.17278" lon="6.08917">
        <ele>1405</ele>
        <time>2022-03-03T12:35:49.644Z</time>
      </trkpt>
      <trkpt lat="44.17279" lon="6.08918">
        <ele>1404</ele>
        <time>2022-03-03T12:35:50.644Z</time>
      </trkpt>
      <trkpt lat="44.1728" lon="6.08919">
        <ele>1404</ele>
        <time>2022-03-03T12:35:51.644Z</time>
      </trkpt>
      <trkpt lat="44.17281" lon="6.08921">
        <ele>1404</ele>
        <time>2022-03-03T12:35:52.644Z</time>
      </trkpt>
      <trkpt lat="44.17282" lon="6.08922">
        <ele>1404</ele>
        <time>2022-03-03T12:35:53.644Z</time>
      </trkpt>
      <trkpt lat="44.17282" lon="6.08923">
        <ele>1404</ele>
        <time>2022-03-03T12:35:54.644Z</time>
      </trkpt>
      <trkpt lat="44.17283" lon="6.08925">
        <ele>1404</ele>
        <time>2022-03-03T12:35:55.644Z</time>
      </trkpt>
      <trkpt lat="44.17283" lon="6.08926">
        <ele>1404</ele>
        <time>2022-03-03T12:35:56.644Z</time>
      </trkpt>
      <trkpt lat="44.17284" lon="6.08928">
        <ele>1404</ele>
        <time>2022-03-03T12:35:57.644Z</time>
      </trkpt>
      <trkpt lat="44.17284" lon="6.0893">
        <ele>1404</ele>
        <time>2022-03-03T12:35:58.644Z</time>
      </trkpt>
      <trkpt lat="44.17285" lon="6.08931">
        <ele>1404</ele>
        <time>2022-03-03T12:35:59.644Z</time>
      </trkpt>
      <trkpt lat="44.17286" lon="6.08933">
        <ele>1404</ele>
        <time>2022-03-03T12:36:00.644Z</time>
      </trkpt>
      <trkpt lat="44.17286" lon="6.08935">
        <ele>1404</ele>
        <time>2022-03-03T12:36:01.644Z</time>
      </trkpt>
      <trkpt lat="44.17287" lon="6.08936">
        <ele>1404</ele>
        <time>2022-03-03T12:36:02.644Z</time>
      </trkpt>
      <trkpt lat="44.17288" lon="6.08938">
        <ele>1404</ele>
        <time>2022-03-03T12:36:03.644Z</time>
      </trkpt>
      <trkpt lat="44.17288" lon="6.08939">
        <ele>1404</ele>
        <time>2022-03-03T12:36:04.644Z</time>
      </trkpt>
      <trkpt lat="44.17289" lon="6.0894">
        <ele>1403</ele>
        <time>2022-03-03T12:36:05.644Z</time>
      </trkpt>
      <trkpt lat="44.17289" lon="6.08942">
        <ele>1403</ele>
        <time>2022-03-03T12:36:06.644Z</time>
      </trkpt>
      <trkpt lat="44.1729" lon="6.08943">
        <ele>1403</ele>
        <time>2022-03-03T12:36:07.644Z</time>
      </trkpt>
      <trkpt lat="44.17291" lon="6.08944">
        <ele>1403</ele>
        <time>2022-03-03T12:36:08.644Z</time>
      </trkpt>
      <trkpt lat="44.17291" lon="6.08945">
        <ele>1403</ele>
        <time>2022-03-03T12:36:09.644Z</time>
      </trkpt>
      <trkpt lat="44.17291" lon="6.08946">
        <ele>1403</ele>
        <time>2022-03-03T12:36:10.644Z</time>
      </trkpt>
      <trkpt lat="44.17292" lon="6.08946">
        <ele>1403</ele>
        <time>2022-03-03T12:36:11.644Z</time>
      </trkpt>
      <trkpt lat="44.17292" lon="6.08946">
        <ele>1403</ele>
        <time>2022-03-03T12:36:12.644Z</time>
      </trkpt>
      <trkpt lat="44.17293" lon="6.08947">
        <ele>1403</ele>
        <time>2022-03-03T12:36:13.644Z</time>
      </trkpt>
      <trkpt lat="44.17294" lon="6.08948">
        <ele>1403</ele>
        <time>2022-03-03T12:36:14.644Z</time>
      </trkpt>
      <trkpt lat="44.17295" lon="6.08949">
        <ele>1403</ele>
        <time>2022-03-03T12:36:15.644Z</time>
      </trkpt>
      <trkpt lat="44.17295" lon="6.08949">
        <ele>1403</ele>
        <time>2022-03-03T12:36:16.644Z</time>
      </trkpt>
      <trkpt lat="44.17296" lon="6.08951">
        <ele>1403</ele>
        <time>2022-03-03T12:36:17.644Z</time>
      </trkpt>
      <trkpt lat="44.17297" lon="6.08952">
        <ele>1403</ele>
        <time>2022-03-03T12:36:18.644Z</time>
      </trkpt>
      <trkpt lat="44.17297" lon="6.08953">
        <ele>1403</ele>
        <time>2022-03-03T12:36:19.644Z</time>
      </trkpt>
      <trkpt lat="44.17297" lon="6.08954">
        <ele>1403</ele>
        <time>2022-03-03T12:36:20.644Z</time>
      </trkpt>
      <trkpt lat="44.17298" lon="6.08955">
        <ele>1403</ele>
        <time>2022-03-03T12:36:21.644Z</time>
      </trkpt>
      <trkpt lat="44.17298" lon="6.08957">
        <ele>1403</ele>
        <time>2022-03-03T12:36:22.644Z</time>
      </trkpt>
      <trkpt lat="44.17298" lon="6.08958">
        <ele>1403</ele>
        <time>2022-03-03T12:36:23.644Z</time>
      </trkpt>
      <trkpt lat="44.17298" lon="6.08959">
        <ele>1403</ele>
        <time>2022-03-03T12:36:24.644Z</time>
      </trkpt>
      <trkpt lat="44.17299" lon="6.0896">
        <ele>1403</ele>
        <time>2022-03-03T12:36:25.644Z</time>
      </trkpt>
      <trkpt lat="44.17299" lon="6.08962">
        <ele>1403</ele>
        <time>2022-03-03T12:36:26.644Z</time>
      </trkpt>
      <trkpt lat="44.17299" lon="6.08963">
        <ele>1403</ele>
        <time>2022-03-03T12:36:27.644Z</time>
      </trkpt>
      <trkpt lat="44.17299" lon="6.08965">
        <ele>1403</ele>
        <time>2022-03-03T12:36:28.644Z</time>
      </trkpt>
      <trkpt lat="44.17299" lon="6.08966">
        <ele>1403</ele>
        <time>2022-03-03T12:36:29.644Z</time>
      </trkpt>
      <trkpt lat="44.17299" lon="6.08967">
        <ele>1402</ele>
        <time>2022-03-03T12:36:30.644Z</time>
      </trkpt>
      <trkpt lat="44.17299" lon="6.08969">
        <ele>1403</ele>
        <time>2022-03-03T12:36:31.644Z</time>
      </trkpt>
      <trkpt lat="44.17299" lon="6.0897">
        <ele>1402</ele>
        <time>2022-03-03T12:36:32.644Z</time>
      </trkpt>
      <trkpt lat="44.17299" lon="6.08971">
        <ele>1402</ele>
        <time>2022-03-03T12:36:33.644Z</time>
      </trkpt>
      <trkpt lat="44.17299" lon="6.08972">
        <ele>1402</ele>
        <time>2022-03-03T12:36:34.644Z</time>
      </trkpt>
      <trkpt lat="44.173" lon="6.08973">
        <ele>1402</ele>
        <time>2022-03-03T12:36:35.644Z</time>
      </trkpt>
      <trkpt lat="44.173" lon="6.08975">
        <ele>1402</ele>
        <time>2022-03-03T12:36:36.644Z</time>
      </trkpt>
      <trkpt lat="44.173" lon="6.08976">
        <ele>1402</ele>
        <time>2022-03-03T12:36:37.644Z</time>
      </trkpt>
      <trkpt lat="44.173" lon="6.08978">
        <ele>1402</ele>
        <time>2022-03-03T12:36:38.644Z</time>
      </trkpt>
      <trkpt lat="44.173" lon="6.08979">
        <ele>1402</ele>
        <time>2022-03-03T12:36:39.644Z</time>
      </trkpt>
      <trkpt lat="44.173" lon="6.0898">
        <ele>1402</ele>
        <time>2022-03-03T12:36:40.644Z</time>
      </trkpt>
      <trkpt lat="44.17299" lon="6.08981">
        <ele>1403</ele>
        <time>2022-03-03T12:36:41.644Z</time>
      </trkpt>
      <trkpt lat="44.17299" lon="6.08982">
        <ele>1403</ele>
        <time>2022-03-03T12:36:42.644Z</time>
      </trkpt>
      <trkpt lat="44.17299" lon="6.08983">
        <ele>1403</ele>
        <time>2022-03-03T12:36:43.644Z</time>
      </trkpt>
      <trkpt lat="44.17299" lon="6.08984">
        <ele>1403</ele>
        <time>2022-03-03T12:36:44.644Z</time>
      </trkpt>
      <trkpt lat="44.17299" lon="6.08984">
        <ele>1403</ele>
        <time>2022-03-03T12:36:45.644Z</time>
      </trkpt>
      <trkpt lat="44.17299" lon="6.08984">
        <ele>1403</ele>
        <time>2022-03-03T12:36:46.644Z</time>
      </trkpt>
      <trkpt lat="44.17299" lon="6.08984">
        <ele>1403</ele>
        <time>2022-03-03T12:36:47.644Z</time>
      </trkpt>
      <trkpt lat="44.17299" lon="6.08984">
        <ele>1403</ele>
        <time>2022-03-03T12:36:48.644Z</time>
      </trkpt>
      <trkpt lat="44.17299" lon="6.08984">
        <ele>1403</ele>
        <time>2022-03-03T12:36:49.644Z</time>
      </trkpt>
      <trkpt lat="44.17299" lon="6.08984">
        <ele>1403</ele>
        <time>2022-03-03T12:36:50.644Z</time>
      </trkpt>
      <trkpt lat="44.17299" lon="6.08984">
        <ele>1403</ele>
        <time>2022-03-03T12:36:51.644Z</time>
      </trkpt>
      <trkpt lat="44.17299" lon="6.08984">
        <ele>1403</ele>
        <time>2022-03-03T12:36:52.644Z</time>
      </trkpt>
      <trkpt lat="44.17299" lon="6.08984">
        <ele>1403</ele>
        <time>2022-03-03T12:36:53.644Z</time>
      </trkpt>
      <trkpt lat="44.17299" lon="6.08984">
        <ele>1403</ele>
        <time>2022-03-03T12:36:54.644Z</time>
      </trkpt>
      <trkpt lat="44.17299" lon="6.08985">
        <ele>1403</ele>
        <time>2022-03-03T12:36:55.644Z</time>
      </trkpt>
      <trkpt lat="44.17299" lon="6.08985">
        <ele>1403</ele>
        <time>2022-03-03T12:36:56.644Z</time>
      </trkpt>
      <trkpt lat="44.17299" lon="6.08985">
        <ele>1403</ele>
        <time>2022-03-03T12:36:57.644Z</time>
      </trkpt>
      <trkpt lat="44.17299" lon="6.08985">
        <ele>1403</ele>
        <time>2022-03-03T12:36:58.644Z</time>
      </trkpt>
      <trkpt lat="44.17299" lon="6.08985">
        <ele>1403</ele>
        <time>2022-03-03T12:36:59.644Z</time>
      </trkpt>
      <trkpt lat="44.17299" lon="6.08985">
        <ele>1403</ele>
        <time>2022-03-03T12:37:00.644Z</time>
      </trkpt>
      <trkpt lat="44.17299" lon="6.08985">
        <ele>1403</ele>
        <time>2022-03-03T12:37:01.644Z</time>
      </trkpt>
      <trkpt lat="44.17299" lon="6.08985">
        <ele>1403</ele>
        <time>2022-03-03T12:37:02.644Z</time>
      </trkpt>
      <trkpt lat="44.17299" lon="6.08985">
        <ele>1403</ele>
        <time>2022-03-03T12:37:03.644Z</time>
      </trkpt>
      <trkpt lat="44.17299" lon="6.08985">
        <ele>1403</ele>
        <time>2022-03-03T12:37:04.644Z</time>
      </trkpt>
      <trkpt lat="44.17299" lon="6.08985">
        <ele>1403</ele>
        <time>2022-03-03T12:37:05.644Z</time>
      </trkpt>
      <trkpt lat="44.17299" lon="6.08985">
        <ele>1403</ele>
        <time>2022-03-03T12:37:06.644Z</time>
      </trkpt>
      <trkpt lat="44.17299" lon="6.08985">
        <ele>1403</ele>
        <time>2022-03-03T12:37:07.644Z</time>
      </trkpt>
      <trkpt lat="44.17299" lon="6.08985">
        <ele>1403</ele>
        <time>2022-03-03T12:37:08.644Z</time>
      </trkpt>
      <trkpt lat="44.17299" lon="6.08985">
        <ele>1403</ele>
        <time>2022-03-03T12:37:09.644Z</time>
      </trkpt>
      <trkpt lat="44.17299" lon="6.08985">
        <ele>1403</ele>
        <time>2022-03-03T12:37:10.644Z</time>
      </trkpt>
      <trkpt lat="44.17299" lon="6.08985">
        <ele>1403</ele>
        <time>2022-03-03T12:37:11.644Z</time>
      </trkpt>
      <trkpt lat="44.17299" lon="6.08985">
        <ele>1403</ele>
        <time>2022-03-03T12:37:12.644Z</time>
      </trkpt>
      <trkpt lat="44.17299" lon="6.08985">
        <ele>1403</ele>
        <time>2022-03-03T12:37:13.644Z</time>
      </trkpt>
      <trkpt lat="44.17299" lon="6.08985">
        <ele>1403</ele>
        <time>2022-03-03T12:37:14.644Z</time>
      </trkpt>
      <trkpt lat="44.17299" lon="6.08985">
        <ele>1403</ele>
        <time>2022-03-03T12:37:15.644Z</time>
      </trkpt>
      <trkpt lat="44.17299" lon="6.08985">
        <ele>1403</ele>
        <time>2022-03-03T12:37:16.644Z</time>
      </trkpt>
      <trkpt lat="44.17299" lon="6.08985">
        <ele>1403</ele>
        <time>2022-03-03T12:37:17.644Z</time>
      </trkpt>
      <trkpt lat="44.17299" lon="6.08985">
        <ele>1403</ele>
        <time>2022-03-03T12:37:18.644Z</time>
      </trkpt>
      <trkpt lat="44.17299" lon="6.08985">
        <ele>1403</ele>
        <time>2022-03-03T12:37:19.644Z</time>
      </trkpt>
      <trkpt lat="44.17299" lon="6.08985">
        <ele>1403</ele>
        <time>2022-03-03T12:37:20.644Z</time>
      </trkpt>
      <trkpt lat="44.17299" lon="6.08985">
        <ele>1403</ele>
        <time>2022-03-03T12:37:21.644Z</time>
      </trkpt>
      <trkpt lat="44.17299" lon="6.08985">
        <ele>1403</ele>
        <time>2022-03-03T12:37:22.644Z</time>
      </trkpt>
      <trkpt lat="44.17299" lon="6.08985">
        <ele>1403</ele>
        <time>2022-03-03T12:37:23.644Z</time>
      </trkpt>
      <trkpt lat="44.17299" lon="6.08985">
        <ele>1403</ele>
        <time>2022-03-03T12:37:24.644Z</time>
      </trkpt>
      <trkpt lat="44.17299" lon="6.08985">
        <ele>1403</ele>
        <time>2022-03-03T12:37:25.644Z</time>
      </trkpt>
      <trkpt lat="44.17299" lon="6.08985">
        <ele>1404</ele>
        <time>2022-03-03T12:37:26.644Z</time>
      </trkpt>
      <trkpt lat="44.17299" lon="6.08985">
        <ele>1404</ele>
        <time>2022-03-03T12:37:27.644Z</time>
      </trkpt>
      <trkpt lat="44.17299" lon="6.08985">
        <ele>1404</ele>
        <time>2022-03-03T12:37:28.644Z</time>
      </trkpt>
      <trkpt lat="44.17299" lon="6.08985">
        <ele>1404</ele>
        <time>2022-03-03T12:37:29.644Z</time>
      </trkpt>
      <trkpt lat="44.17299" lon="6.08985">
        <ele>1404</ele>
        <time>2022-03-03T12:37:30.644Z</time>
      </trkpt>
      <trkpt lat="44.17299" lon="6.08985">
        <ele>1404</ele>
        <time>2022-03-03T12:37:31.644Z</time>
      </trkpt>
      <trkpt lat="44.17299" lon="6.08985">
        <ele>1404</ele>
        <time>2022-03-03T12:37:32.644Z</time>
      </trkpt>
      <trkpt lat="44.17299" lon="6.08985">
        <ele>1404</ele>
        <time>2022-03-03T12:37:33.644Z</time>
      </trkpt>
      <trkpt lat="44.17299" lon="6.08985">
        <ele>1404</ele>
        <time>2022-03-03T12:37:34.644Z</time>
      </trkpt>
      <trkpt lat="44.17299" lon="6.08985">
        <ele>1404</ele>
        <time>2022-03-03T12:37:35.644Z</time>
      </trkpt>
      <trkpt lat="44.17299" lon="6.08985">
        <ele>1404</ele>
        <time>2022-03-03T12:37:36.644Z</time>
      </trkpt>
      <trkpt lat="44.173" lon="6.08985">
        <ele>1404</ele>
        <time>2022-03-03T12:37:37.644Z</time>
      </trkpt>
      <trkpt lat="44.173" lon="6.08985">
        <ele>1404</ele>
        <time>2022-03-03T12:37:38.644Z</time>
      </trkpt>
      <trkpt lat="44.173" lon="6.08985">
        <ele>1404</ele>
        <time>2022-03-03T12:37:39.644Z</time>
      </trkpt>
      <trkpt lat="44.173" lon="6.08985">
        <ele>1404</ele>
        <time>2022-03-03T12:37:40.644Z</time>
      </trkpt>
      <trkpt lat="44.173" lon="6.08985">
        <ele>1404</ele>
        <time>2022-03-03T12:37:41.644Z</time>
      </trkpt>
      <trkpt lat="44.173" lon="6.08985">
        <ele>1404</ele>
        <time>2022-03-03T12:37:42.644Z</time>
      </trkpt>
      <trkpt lat="44.173" lon="6.08985">
        <ele>1404</ele>
        <time>2022-03-03T12:37:43.644Z</time>
      </trkpt>
      <trkpt lat="44.173" lon="6.08984">
        <ele>1404</ele>
        <time>2022-03-03T12:37:44.644Z</time>
      </trkpt>
      <trkpt lat="44.173" lon="6.08984">
        <ele>1404</ele>
        <time>2022-03-03T12:37:45.644Z</time>
      </trkpt>
      <trkpt lat="44.173" lon="6.08984">
        <ele>1404</ele>
        <time>2022-03-03T12:37:46.644Z</time>
      </trkpt>
      <trkpt lat="44.173" lon="6.08984">
        <ele>1404</ele>
        <time>2022-03-03T12:37:47.644Z</time>
      </trkpt>
      <trkpt lat="44.173" lon="6.08984">
        <ele>1404</ele>
        <time>2022-03-03T12:37:48.644Z</time>
      </trkpt>
      <trkpt lat="44.173" lon="6.08984">
        <ele>1404</ele>
        <time>2022-03-03T12:37:49.644Z</time>
      </trkpt>
      <trkpt lat="44.173" lon="6.08984">
        <ele>1404</ele>
        <time>2022-03-03T12:37:50.644Z</time>
      </trkpt>
      <trkpt lat="44.173" lon="6.08984">
        <ele>1404</ele>
        <time>2022-03-03T12:37:51.644Z</time>
      </trkpt>
      <trkpt lat="44.173" lon="6.08984">
        <ele>1404</ele>
        <time>2022-03-03T12:37:52.644Z</time>
      </trkpt>
      <trkpt lat="44.173" lon="6.08984">
        <ele>1404</ele>
        <time>2022-03-03T12:37:53.644Z</time>
      </trkpt>
      <trkpt lat="44.173" lon="6.08984">
        <ele>1404</ele>
        <time>2022-03-03T12:37:54.644Z</time>
      </trkpt>
      <trkpt lat="44.173" lon="6.08984">
        <ele>1404</ele>
        <time>2022-03-03T12:37:55.644Z</time>
      </trkpt>
      <trkpt lat="44.173" lon="6.08984">
        <ele>1404</ele>
        <time>2022-03-03T12:37:56.644Z</time>
      </trkpt>
      <trkpt lat="44.173" lon="6.08984">
        <ele>1404</ele>
        <time>2022-03-03T12:37:57.644Z</time>
      </trkpt>
      <trkpt lat="44.173" lon="6.08984">
        <ele>1404</ele>
        <time>2022-03-03T12:37:58.644Z</time>
      </trkpt>
      <trkpt lat="44.173" lon="6.08984">
        <ele>1404</ele>
        <time>2022-03-03T12:37:59.644Z</time>
      </trkpt>
      <trkpt lat="44.173" lon="6.08984">
        <ele>1404</ele>
        <time>2022-03-03T12:38:00.644Z</time>
      </trkpt>
      <trkpt lat="44.173" lon="6.08984">
        <ele>1404</ele>
        <time>2022-03-03T12:38:01.644Z</time>
      </trkpt>
      <trkpt lat="44.173" lon="6.08984">
        <ele>1404</ele>
        <time>2022-03-03T12:38:02.644Z</time>
      </trkpt>
      <trkpt lat="44.173" lon="6.08984">
        <ele>1404</ele>
        <time>2022-03-03T12:38:03.644Z</time>
      </trkpt>
      <trkpt lat="44.173" lon="6.08984">
        <ele>1404</ele>
        <time>2022-03-03T12:38:04.644Z</time>
      </trkpt>
      <trkpt lat="44.173" lon="6.08984">
        <ele>1404</ele>
        <time>2022-03-03T12:38:05.644Z</time>
      </trkpt>
      <trkpt lat="44.173" lon="6.08984">
        <ele>1404</ele>
        <time>2022-03-03T12:38:06.644Z</time>
      </trkpt>
      <trkpt lat="44.173" lon="6.08984">
        <ele>1404</ele>
        <time>2022-03-03T12:38:07.644Z</time>
      </trkpt>
      <trkpt lat="44.173" lon="6.08984">
        <ele>1404</ele>
        <time>2022-03-03T12:38:08.644Z</time>
      </trkpt>
      <trkpt lat="44.173" lon="6.08984">
        <ele>1404</ele>
        <time>2022-03-03T12:38:09.644Z</time>
      </trkpt>
      <trkpt lat="44.173" lon="6.08984">
        <ele>1404</ele>
        <time>2022-03-03T12:38:10.644Z</time>
      </trkpt>
      <trkpt lat="44.173" lon="6.08984">
        <ele>1404</ele>
        <time>2022-03-03T12:38:11.644Z</time>
      </trkpt>
      <trkpt lat="44.173" lon="6.08984">
        <ele>1404</ele>
        <time>2022-03-03T12:38:12.644Z</time>
      </trkpt>
      <trkpt lat="44.173" lon="6.08984">
        <ele>1404</ele>
        <time>2022-03-03T12:38:13.644Z</time>
      </trkpt>
      <trkpt lat="44.173" lon="6.08984">
        <ele>1404</ele>
        <time>2022-03-03T12:38:14.644Z</time>
      </trkpt>
      <trkpt lat="44.173" lon="6.08984">
        <ele>1404</ele>
        <time>2022-03-03T12:38:15.644Z</time>
      </trkpt>
      <trkpt lat="44.173" lon="6.08984">
        <ele>1404</ele>
        <time>2022-03-03T12:38:16.644Z</time>
      </trkpt>
      <trkpt lat="44.173" lon="6.08984">
        <ele>1404</ele>
        <time>2022-03-03T12:38:17.644Z</time>
      </trkpt>
      <trkpt lat="44.173" lon="6.08984">
        <ele>1404</ele>
        <time>2022-03-03T12:38:18.644Z</time>
      </trkpt>
      <trkpt lat="44.173" lon="6.08984">
        <ele>1404</ele>
        <time>2022-03-03T12:38:19.644Z</time>
      </trkpt>
      <trkpt lat="44.173" lon="6.08984">
        <ele>1404</ele>
        <time>2022-03-03T12:38:20.644Z</time>
      </trkpt>
      <trkpt lat="44.173" lon="6.08984">
        <ele>1404</ele>
        <time>2022-03-03T12:38:21.644Z</time>
      </trkpt>
      <trkpt lat="44.173" lon="6.08984">
        <ele>1404</ele>
        <time>2022-03-03T12:38:22.644Z</time>
      </trkpt>
      <trkpt lat="44.173" lon="6.08984">
        <ele>1404</ele>
        <time>2022-03-03T12:38:23.644Z</time>
      </trkpt>
      <trkpt lat="44.173" lon="6.08984">
        <ele>1404</ele>
        <time>2022-03-03T12:38:24.644Z</time>
      </trkpt>
      <trkpt lat="44.173" lon="6.08984">
        <ele>1404</ele>
        <time>2022-03-03T12:38:25.644Z</time>
      </trkpt>
      <trkpt lat="44.173" lon="6.08984">
        <ele>1404</ele>
        <time>2022-03-03T12:38:26.644Z</time>
      </trkpt>
      <trkpt lat="44.173" lon="6.08984">
        <ele>1404</ele>
        <time>2022-03-03T12:38:27.644Z</time>
      </trkpt>
      <trkpt lat="44.173" lon="6.08984">
        <ele>1403</ele>
        <time>2022-03-03T12:38:28.644Z</time>
      </trkpt>
      <trkpt lat="44.173" lon="6.08985">
        <ele>1403</ele>
        <time>2022-03-03T12:38:29.644Z</time>
      </trkpt>
      <trkpt lat="44.173" lon="6.08985">
        <ele>1403</ele>
        <time>2022-03-03T12:38:30.644Z</time>
      </trkpt>
      <trkpt lat="44.173" lon="6.08985">
        <ele>1403</ele>
        <time>2022-03-03T12:38:31.644Z</time>
      </trkpt>
      <trkpt lat="44.173" lon="6.08985">
        <ele>1403</ele>
        <time>2022-03-03T12:38:32.644Z</time>
      </trkpt>
      <trkpt lat="44.173" lon="6.08985">
        <ele>1403</ele>
        <time>2022-03-03T12:38:33.644Z</time>
      </trkpt>
      <trkpt lat="44.173" lon="6.08985">
        <ele>1403</ele>
        <time>2022-03-03T12:38:34.644Z</time>
      </trkpt>
      <trkpt lat="44.173" lon="6.08985">
        <ele>1403</ele>
        <time>2022-03-03T12:38:35.644Z</time>
      </trkpt>
      <trkpt lat="44.173" lon="6.08985">
        <ele>1403</ele>
        <time>2022-03-03T12:38:36.644Z</time>
      </trkpt>
      <trkpt lat="44.173" lon="6.08985">
        <ele>1403</ele>
        <time>2022-03-03T12:38:37.644Z</time>
      </trkpt>
      <trkpt lat="44.173" lon="6.08985">
        <ele>1403</ele>
        <time>2022-03-03T12:38:38.644Z</time>
      </trkpt>
      <trkpt lat="44.173" lon="6.08985">
        <ele>1403</ele>
        <time>2022-03-03T12:38:39.644Z</time>
      </trkpt>
      <trkpt lat="44.173" lon="6.08985">
        <ele>1403</ele>
        <time>2022-03-03T12:38:40.644Z</time>
      </trkpt>
      <trkpt lat="44.173" lon="6.08985">
        <ele>1403</ele>
        <time>2022-03-03T12:38:41.644Z</time>
      </trkpt>
      <trkpt lat="44.173" lon="6.08985">
        <ele>1403</ele>
        <time>2022-03-03T12:38:42.644Z</time>
      </trkpt>
      <trkpt lat="44.173" lon="6.08985">
        <ele>1403</ele>
        <time>2022-03-03T12:38:43.644Z</time>
      </trkpt>
      <trkpt lat="44.173" lon="6.08985">
        <ele>1403</ele>
        <time>2022-03-03T12:38:44.644Z</time>
      </trkpt>
      <trkpt lat="44.17301" lon="6.08985">
        <ele>1403</ele>
        <time>2022-03-03T12:38:45.644Z</time>
      </trkpt>
      <trkpt lat="44.17301" lon="6.08986">
        <ele>1403</ele>
        <time>2022-03-03T12:38:46.644Z</time>
      </trkpt>
      <trkpt lat="44.17301" lon="6.08986">
        <ele>1403</ele>
        <time>2022-03-03T12:38:47.644Z</time>
      </trkpt>
      <trkpt lat="44.17301" lon="6.08986">
        <ele>1403</ele>
        <time>2022-03-03T12:38:48.644Z</time>
      </trkpt>
      <trkpt lat="44.17301" lon="6.08985">
        <ele>1403</ele>
        <time>2022-03-03T12:38:49.644Z</time>
      </trkpt>
      <trkpt lat="44.17301" lon="6.08985">
        <ele>1403</ele>
        <time>2022-03-03T12:38:50.644Z</time>
      </trkpt>
      <trkpt lat="44.17301" lon="6.08985">
        <ele>1403</ele>
        <time>2022-03-03T12:38:51.644Z</time>
      </trkpt>
      <trkpt lat="44.17301" lon="6.08985">
        <ele>1403</ele>
        <time>2022-03-03T12:38:52.644Z</time>
      </trkpt>
      <trkpt lat="44.17301" lon="6.08985">
        <ele>1404</ele>
        <time>2022-03-03T12:38:53.644Z</time>
      </trkpt>
      <trkpt lat="44.17301" lon="6.08985">
        <ele>1404</ele>
        <time>2022-03-03T12:38:54.644Z</time>
      </trkpt>
      <trkpt lat="44.17301" lon="6.08986">
        <ele>1404</ele>
        <time>2022-03-03T12:38:55.644Z</time>
      </trkpt>
      <trkpt lat="44.17301" lon="6.08986">
        <ele>1404</ele>
        <time>2022-03-03T12:38:56.644Z</time>
      </trkpt>
      <trkpt lat="44.17301" lon="6.08986">
        <ele>1404</ele>
        <time>2022-03-03T12:38:57.644Z</time>
      </trkpt>
      <trkpt lat="44.17301" lon="6.08986">
        <ele>1404</ele>
        <time>2022-03-03T12:38:58.644Z</time>
      </trkpt>
      <trkpt lat="44.17301" lon="6.08986">
        <ele>1404</ele>
        <time>2022-03-03T12:38:59.644Z</time>
      </trkpt>
      <trkpt lat="44.17301" lon="6.08986">
        <ele>1404</ele>
        <time>2022-03-03T12:39:00.644Z</time>
      </trkpt>
      <trkpt lat="44.17301" lon="6.08986">
        <ele>1404</ele>
        <time>2022-03-03T12:39:01.644Z</time>
      </trkpt>
      <trkpt lat="44.17301" lon="6.08986">
        <ele>1404</ele>
        <time>2022-03-03T12:39:02.644Z</time>
      </trkpt>
      <trkpt lat="44.17301" lon="6.08986">
        <ele>1404</ele>
        <time>2022-03-03T12:39:03.644Z</time>
      </trkpt>
      <trkpt lat="44.17301" lon="6.08986">
        <ele>1404</ele>
        <time>2022-03-03T12:39:04.644Z</time>
      </trkpt>
      <trkpt lat="44.17301" lon="6.08986">
        <ele>1404</ele>
        <time>2022-03-03T12:39:05.644Z</time>
      </trkpt>
      <trkpt lat="44.17301" lon="6.08986">
        <ele>1404</ele>
        <time>2022-03-03T12:39:06.644Z</time>
      </trkpt>
      <trkpt lat="44.17301" lon="6.08986">
        <ele>1404</ele>
        <time>2022-03-03T12:39:07.644Z</time>
      </trkpt>
      <trkpt lat="44.17301" lon="6.08985">
        <ele>1404</ele>
        <time>2022-03-03T12:39:08.644Z</time>
      </trkpt>
      <trkpt lat="44.17301" lon="6.08986">
        <ele>1404</ele>
        <time>2022-03-03T12:39:09.644Z</time>
      </trkpt>
      <trkpt lat="44.17301" lon="6.08986">
        <ele>1404</ele>
        <time>2022-03-03T12:39:10.644Z</time>
      </trkpt>
      <trkpt lat="44.17301" lon="6.08987">
        <ele>1404</ele>
        <time>2022-03-03T12:39:11.644Z</time>
      </trkpt>
      <trkpt lat="44.17301" lon="6.08989">
        <ele>1404</ele>
        <time>2022-03-03T12:39:12.644Z</time>
      </trkpt>
      <trkpt lat="44.17301" lon="6.0899">
        <ele>1404</ele>
        <time>2022-03-03T12:39:13.644Z</time>
      </trkpt>
      <trkpt lat="44.17301" lon="6.08992">
        <ele>1404</ele>
        <time>2022-03-03T12:39:14.644Z</time>
      </trkpt>
      <trkpt lat="44.17301" lon="6.08993">
        <ele>1404</ele>
        <time>2022-03-03T12:39:15.644Z</time>
      </trkpt>
      <trkpt lat="44.17301" lon="6.08994">
        <ele>1404</ele>
        <time>2022-03-03T12:39:16.644Z</time>
      </trkpt>
      <trkpt lat="44.17301" lon="6.08995">
        <ele>1405</ele>
        <time>2022-03-03T12:39:17.644Z</time>
      </trkpt>
      <trkpt lat="44.17302" lon="6.08997">
        <ele>1405</ele>
        <time>2022-03-03T12:39:18.644Z</time>
      </trkpt>
      <trkpt lat="44.17301" lon="6.08998">
        <ele>1405</ele>
        <time>2022-03-03T12:39:19.644Z</time>
      </trkpt>
      <trkpt lat="44.17301" lon="6.08999">
        <ele>1405</ele>
        <time>2022-03-03T12:39:20.644Z</time>
      </trkpt>
      <trkpt lat="44.17302" lon="6.09001">
        <ele>1405</ele>
        <time>2022-03-03T12:39:21.644Z</time>
      </trkpt>
      <trkpt lat="44.17302" lon="6.09002">
        <ele>1405</ele>
        <time>2022-03-03T12:39:22.644Z</time>
      </trkpt>
      <trkpt lat="44.17302" lon="6.09004">
        <ele>1405</ele>
        <time>2022-03-03T12:39:23.644Z</time>
      </trkpt>
      <trkpt lat="44.17302" lon="6.09005">
        <ele>1405</ele>
        <time>2022-03-03T12:39:24.644Z</time>
      </trkpt>
      <trkpt lat="44.17302" lon="6.09007">
        <ele>1405</ele>
        <time>2022-03-03T12:39:25.644Z</time>
      </trkpt>
      <trkpt lat="44.17302" lon="6.09008">
        <ele>1405</ele>
        <time>2022-03-03T12:39:26.644Z</time>
      </trkpt>
      <trkpt lat="44.17302" lon="6.09009">
        <ele>1405</ele>
        <time>2022-03-03T12:39:27.644Z</time>
      </trkpt>
      <trkpt lat="44.17302" lon="6.09011">
        <ele>1405</ele>
        <time>2022-03-03T12:39:28.644Z</time>
      </trkpt>
      <trkpt lat="44.17302" lon="6.09012">
        <ele>1405</ele>
        <time>2022-03-03T12:39:29.644Z</time>
      </trkpt>
      <trkpt lat="44.17302" lon="6.09014">
        <ele>1405</ele>
        <time>2022-03-03T12:39:30.644Z</time>
      </trkpt>
      <trkpt lat="44.17302" lon="6.09015">
        <ele>1406</ele>
        <time>2022-03-03T12:39:31.644Z</time>
      </trkpt>
      <trkpt lat="44.17302" lon="6.09016">
        <ele>1405</ele>
        <time>2022-03-03T12:39:32.644Z</time>
      </trkpt>
      <trkpt lat="44.17302" lon="6.09018">
        <ele>1406</ele>
        <time>2022-03-03T12:39:33.644Z</time>
      </trkpt>
      <trkpt lat="44.17303" lon="6.09019">
        <ele>1405</ele>
        <time>2022-03-03T12:39:34.644Z</time>
      </trkpt>
      <trkpt lat="44.17303" lon="6.09021">
        <ele>1405</ele>
        <time>2022-03-03T12:39:35.644Z</time>
      </trkpt>
      <trkpt lat="44.17303" lon="6.09022">
        <ele>1405</ele>
        <time>2022-03-03T12:39:36.644Z</time>
      </trkpt>
      <trkpt lat="44.17303" lon="6.09023">
        <ele>1405</ele>
        <time>2022-03-03T12:39:37.644Z</time>
      </trkpt>
      <trkpt lat="44.17303" lon="6.09025">
        <ele>1405</ele>
        <time>2022-03-03T12:39:38.644Z</time>
      </trkpt>
      <trkpt lat="44.17304" lon="6.09026">
        <ele>1405</ele>
        <time>2022-03-03T12:39:39.644Z</time>
      </trkpt>
      <trkpt lat="44.17304" lon="6.09027">
        <ele>1405</ele>
        <time>2022-03-03T12:39:40.644Z</time>
      </trkpt>
      <trkpt lat="44.17304" lon="6.09029">
        <ele>1405</ele>
        <time>2022-03-03T12:39:41.644Z</time>
      </trkpt>
      <trkpt lat="44.17304" lon="6.0903">
        <ele>1404</ele>
        <time>2022-03-03T12:39:42.644Z</time>
      </trkpt>
      <trkpt lat="44.17304" lon="6.09031">
        <ele>1404</ele>
        <time>2022-03-03T12:39:43.644Z</time>
      </trkpt>
      <trkpt lat="44.17305" lon="6.09033">
        <ele>1404</ele>
        <time>2022-03-03T12:39:44.644Z</time>
      </trkpt>
      <trkpt lat="44.17305" lon="6.09034">
        <ele>1404</ele>
        <time>2022-03-03T12:39:45.644Z</time>
      </trkpt>
      <trkpt lat="44.17306" lon="6.09035">
        <ele>1404</ele>
        <time>2022-03-03T12:39:46.644Z</time>
      </trkpt>
      <trkpt lat="44.17306" lon="6.09036">
        <ele>1404</ele>
        <time>2022-03-03T12:39:47.644Z</time>
      </trkpt>
      <trkpt lat="44.17306" lon="6.09038">
        <ele>1404</ele>
        <time>2022-03-03T12:39:48.644Z</time>
      </trkpt>
      <trkpt lat="44.17307" lon="6.09039">
        <ele>1404</ele>
        <time>2022-03-03T12:39:49.644Z</time>
      </trkpt>
      <trkpt lat="44.17307" lon="6.09041">
        <ele>1404</ele>
        <time>2022-03-03T12:39:50.644Z</time>
      </trkpt>
      <trkpt lat="44.17307" lon="6.09042">
        <ele>1404</ele>
        <time>2022-03-03T12:39:51.644Z</time>
      </trkpt>
      <trkpt lat="44.17308" lon="6.09043">
        <ele>1404</ele>
        <time>2022-03-03T12:39:52.644Z</time>
      </trkpt>
      <trkpt lat="44.17308" lon="6.09045">
        <ele>1404</ele>
        <time>2022-03-03T12:39:53.644Z</time>
      </trkpt>
      <trkpt lat="44.17308" lon="6.09046">
        <ele>1404</ele>
        <time>2022-03-03T12:39:54.644Z</time>
      </trkpt>
      <trkpt lat="44.17309" lon="6.09047">
        <ele>1403</ele>
        <time>2022-03-03T12:39:55.644Z</time>
      </trkpt>
      <trkpt lat="44.17309" lon="6.09048">
        <ele>1403</ele>
        <time>2022-03-03T12:39:56.644Z</time>
      </trkpt>
      <trkpt lat="44.17309" lon="6.0905">
        <ele>1403</ele>
        <time>2022-03-03T12:39:57.644Z</time>
      </trkpt>
      <trkpt lat="44.17309" lon="6.09051">
        <ele>1403</ele>
        <time>2022-03-03T12:39:58.644Z</time>
      </trkpt>
      <trkpt lat="44.1731" lon="6.09053">
        <ele>1403</ele>
        <time>2022-03-03T12:39:59.644Z</time>
      </trkpt>
      <trkpt lat="44.1731" lon="6.09053">
        <ele>1403</ele>
        <time>2022-03-03T12:40:00.644Z</time>
      </trkpt>
      <trkpt lat="44.1731" lon="6.09055">
        <ele>1403</ele>
        <time>2022-03-03T12:40:01.644Z</time>
      </trkpt>
      <trkpt lat="44.1731" lon="6.09057">
        <ele>1403</ele>
        <time>2022-03-03T12:40:02.644Z</time>
      </trkpt>
      <trkpt lat="44.1731" lon="6.09058">
        <ele>1403</ele>
        <time>2022-03-03T12:40:03.644Z</time>
      </trkpt>
      <trkpt lat="44.1731" lon="6.0906">
        <ele>1403</ele>
        <time>2022-03-03T12:40:04.644Z</time>
      </trkpt>
      <trkpt lat="44.1731" lon="6.09061">
        <ele>1403</ele>
        <time>2022-03-03T12:40:05.644Z</time>
      </trkpt>
      <trkpt lat="44.1731" lon="6.09063">
        <ele>1403</ele>
        <time>2022-03-03T12:40:06.644Z</time>
      </trkpt>
      <trkpt lat="44.17311" lon="6.09064">
        <ele>1403</ele>
        <time>2022-03-03T12:40:07.644Z</time>
      </trkpt>
      <trkpt lat="44.17311" lon="6.09066">
        <ele>1403</ele>
        <time>2022-03-03T12:40:08.644Z</time>
      </trkpt>
      <trkpt lat="44.17311" lon="6.09068">
        <ele>1403</ele>
        <time>2022-03-03T12:40:09.644Z</time>
      </trkpt>
      <trkpt lat="44.17311" lon="6.09069">
        <ele>1403</ele>
        <time>2022-03-03T12:40:10.644Z</time>
      </trkpt>
      <trkpt lat="44.17311" lon="6.09071">
        <ele>1403</ele>
        <time>2022-03-03T12:40:11.644Z</time>
      </trkpt>
      <trkpt lat="44.17311" lon="6.09072">
        <ele>1403</ele>
        <time>2022-03-03T12:40:12.644Z</time>
      </trkpt>
      <trkpt lat="44.17311" lon="6.09074">
        <ele>1403</ele>
        <time>2022-03-03T12:40:13.644Z</time>
      </trkpt>
      <trkpt lat="44.17311" lon="6.09076">
        <ele>1403</ele>
        <time>2022-03-03T12:40:14.644Z</time>
      </trkpt>
      <trkpt lat="44.17311" lon="6.09078">
        <ele>1403</ele>
        <time>2022-03-03T12:40:15.644Z</time>
      </trkpt>
      <trkpt lat="44.17312" lon="6.09079">
        <ele>1403</ele>
        <time>2022-03-03T12:40:16.644Z</time>
      </trkpt>
      <trkpt lat="44.17312" lon="6.09081">
        <ele>1402</ele>
        <time>2022-03-03T12:40:17.644Z</time>
      </trkpt>
      <trkpt lat="44.17312" lon="6.09082">
        <ele>1402</ele>
        <time>2022-03-03T12:40:18.644Z</time>
      </trkpt>
      <trkpt lat="44.17312" lon="6.09084">
        <ele>1402</ele>
        <time>2022-03-03T12:40:19.644Z</time>
      </trkpt>
      <trkpt lat="44.17312" lon="6.09085">
        <ele>1402</ele>
        <time>2022-03-03T12:40:20.644Z</time>
      </trkpt>
      <trkpt lat="44.17313" lon="6.09087">
        <ele>1402</ele>
        <time>2022-03-03T12:40:21.644Z</time>
      </trkpt>
      <trkpt lat="44.17313" lon="6.09088">
        <ele>1402</ele>
        <time>2022-03-03T12:40:22.644Z</time>
      </trkpt>
      <trkpt lat="44.17313" lon="6.0909">
        <ele>1402</ele>
        <time>2022-03-03T12:40:23.644Z</time>
      </trkpt>
      <trkpt lat="44.17313" lon="6.09091">
        <ele>1402</ele>
        <time>2022-03-03T12:40:24.644Z</time>
      </trkpt>
      <trkpt lat="44.17313" lon="6.09093">
        <ele>1402</ele>
        <time>2022-03-03T12:40:25.644Z</time>
      </trkpt>
      <trkpt lat="44.17313" lon="6.09095">
        <ele>1402</ele>
        <time>2022-03-03T12:40:26.644Z</time>
      </trkpt>
      <trkpt lat="44.17313" lon="6.09097">
        <ele>1401</ele>
        <time>2022-03-03T12:40:27.644Z</time>
      </trkpt>
      <trkpt lat="44.17313" lon="6.09098">
        <ele>1401</ele>
        <time>2022-03-03T12:40:28.644Z</time>
      </trkpt>
      <trkpt lat="44.17313" lon="6.091">
        <ele>1401</ele>
        <time>2022-03-03T12:40:29.644Z</time>
      </trkpt>
      <trkpt lat="44.17313" lon="6.09102">
        <ele>1401</ele>
        <time>2022-03-03T12:40:30.644Z</time>
      </trkpt>
      <trkpt lat="44.17313" lon="6.09103">
        <ele>1401</ele>
        <time>2022-03-03T12:40:31.644Z</time>
      </trkpt>
      <trkpt lat="44.17313" lon="6.09105">
        <ele>1401</ele>
        <time>2022-03-03T12:40:32.644Z</time>
      </trkpt>
      <trkpt lat="44.17313" lon="6.09106">
        <ele>1401</ele>
        <time>2022-03-03T12:40:33.644Z</time>
      </trkpt>
      <trkpt lat="44.17313" lon="6.09107">
        <ele>1401</ele>
        <time>2022-03-03T12:40:34.644Z</time>
      </trkpt>
      <trkpt lat="44.17312" lon="6.09109">
        <ele>1401</ele>
        <time>2022-03-03T12:40:35.644Z</time>
      </trkpt>
      <trkpt lat="44.17312" lon="6.09111">
        <ele>1401</ele>
        <time>2022-03-03T12:40:36.644Z</time>
      </trkpt>
      <trkpt lat="44.17312" lon="6.09112">
        <ele>1400</ele>
        <time>2022-03-03T12:40:37.644Z</time>
      </trkpt>
      <trkpt lat="44.17312" lon="6.09114">
        <ele>1400</ele>
        <time>2022-03-03T12:40:38.644Z</time>
      </trkpt>
      <trkpt lat="44.17311" lon="6.09116">
        <ele>1400</ele>
        <time>2022-03-03T12:40:39.644Z</time>
      </trkpt>
      <trkpt lat="44.17311" lon="6.09117">
        <ele>1400</ele>
        <time>2022-03-03T12:40:40.644Z</time>
      </trkpt>
      <trkpt lat="44.17311" lon="6.09118">
        <ele>1400</ele>
        <time>2022-03-03T12:40:41.644Z</time>
      </trkpt>
      <trkpt lat="44.17311" lon="6.0912">
        <ele>1400</ele>
        <time>2022-03-03T12:40:42.644Z</time>
      </trkpt>
      <trkpt lat="44.17311" lon="6.09121">
        <ele>1400</ele>
        <time>2022-03-03T12:40:43.644Z</time>
      </trkpt>
      <trkpt lat="44.17312" lon="6.09123">
        <ele>1400</ele>
        <time>2022-03-03T12:40:44.644Z</time>
      </trkpt>
      <trkpt lat="44.17312" lon="6.09124">
        <ele>1400</ele>
        <time>2022-03-03T12:40:45.644Z</time>
      </trkpt>
      <trkpt lat="44.17312" lon="6.09126">
        <ele>1400</ele>
        <time>2022-03-03T12:40:46.644Z</time>
      </trkpt>
      <trkpt lat="44.17312" lon="6.09127">
        <ele>1400</ele>
        <time>2022-03-03T12:40:47.644Z</time>
      </trkpt>
      <trkpt lat="44.17312" lon="6.09129">
        <ele>1400</ele>
        <time>2022-03-03T12:40:48.644Z</time>
      </trkpt>
      <trkpt lat="44.17312" lon="6.0913">
        <ele>1400</ele>
        <time>2022-03-03T12:40:49.644Z</time>
      </trkpt>
      <trkpt lat="44.17312" lon="6.09132">
        <ele>1400</ele>
        <time>2022-03-03T12:40:50.644Z</time>
      </trkpt>
      <trkpt lat="44.17312" lon="6.09133">
        <ele>1399</ele>
        <time>2022-03-03T12:40:51.644Z</time>
      </trkpt>
      <trkpt lat="44.17313" lon="6.09135">
        <ele>1399</ele>
        <time>2022-03-03T12:40:52.644Z</time>
      </trkpt>
      <trkpt lat="44.17313" lon="6.09136">
        <ele>1399</ele>
        <time>2022-03-03T12:40:53.644Z</time>
      </trkpt>
      <trkpt lat="44.17313" lon="6.09137">
        <ele>1399</ele>
        <time>2022-03-03T12:40:54.644Z</time>
      </trkpt>
      <trkpt lat="44.17314" lon="6.09139">
        <ele>1399</ele>
        <time>2022-03-03T12:40:55.644Z</time>
      </trkpt>
      <trkpt lat="44.17314" lon="6.0914">
        <ele>1399</ele>
        <time>2022-03-03T12:40:56.644Z</time>
      </trkpt>
      <trkpt lat="44.17315" lon="6.09141">
        <ele>1398</ele>
        <time>2022-03-03T12:40:57.644Z</time>
      </trkpt>
      <trkpt lat="44.17315" lon="6.09142">
        <ele>1398</ele>
        <time>2022-03-03T12:40:58.644Z</time>
      </trkpt>
      <trkpt lat="44.17315" lon="6.09144">
        <ele>1398</ele>
        <time>2022-03-03T12:40:59.644Z</time>
      </trkpt>
      <trkpt lat="44.17316" lon="6.09145">
        <ele>1398</ele>
        <time>2022-03-03T12:41:00.644Z</time>
      </trkpt>
      <trkpt lat="44.17316" lon="6.09146">
        <ele>1398</ele>
        <time>2022-03-03T12:41:01.644Z</time>
      </trkpt>
      <trkpt lat="44.17317" lon="6.09148">
        <ele>1397</ele>
        <time>2022-03-03T12:41:02.644Z</time>
      </trkpt>
      <trkpt lat="44.17317" lon="6.09149">
        <ele>1397</ele>
        <time>2022-03-03T12:41:03.644Z</time>
      </trkpt>
      <trkpt lat="44.17318" lon="6.0915">
        <ele>1397</ele>
        <time>2022-03-03T12:41:04.644Z</time>
      </trkpt>
      <trkpt lat="44.17318" lon="6.09152">
        <ele>1397</ele>
        <time>2022-03-03T12:41:05.644Z</time>
      </trkpt>
      <trkpt lat="44.17319" lon="6.09153">
        <ele>1397</ele>
        <time>2022-03-03T12:41:06.644Z</time>
      </trkpt>
      <trkpt lat="44.17319" lon="6.09154">
        <ele>1397</ele>
        <time>2022-03-03T12:41:07.644Z</time>
      </trkpt>
      <trkpt lat="44.1732" lon="6.09155">
        <ele>1397</ele>
        <time>2022-03-03T12:41:08.644Z</time>
      </trkpt>
      <trkpt lat="44.1732" lon="6.09156">
        <ele>1397</ele>
        <time>2022-03-03T12:41:09.644Z</time>
      </trkpt>
      <trkpt lat="44.17321" lon="6.09158">
        <ele>1397</ele>
        <time>2022-03-03T12:41:10.644Z</time>
      </trkpt>
      <trkpt lat="44.17322" lon="6.09159">
        <ele>1397</ele>
        <time>2022-03-03T12:41:11.644Z</time>
      </trkpt>
      <trkpt lat="44.17322" lon="6.0916">
        <ele>1397</ele>
        <time>2022-03-03T12:41:12.644Z</time>
      </trkpt>
      <trkpt lat="44.17322" lon="6.09161">
        <ele>1397</ele>
        <time>2022-03-03T12:41:13.644Z</time>
      </trkpt>
      <trkpt lat="44.17322" lon="6.09163">
        <ele>1397</ele>
        <time>2022-03-03T12:41:14.644Z</time>
      </trkpt>
      <trkpt lat="44.17323" lon="6.09164">
        <ele>1397</ele>
        <time>2022-03-03T12:41:15.644Z</time>
      </trkpt>
      <trkpt lat="44.17323" lon="6.09165">
        <ele>1397</ele>
        <time>2022-03-03T12:41:16.644Z</time>
      </trkpt>
      <trkpt lat="44.17323" lon="6.09166">
        <ele>1397</ele>
        <time>2022-03-03T12:41:17.644Z</time>
      </trkpt>
      <trkpt lat="44.17323" lon="6.09168">
        <ele>1397</ele>
        <time>2022-03-03T12:41:18.644Z</time>
      </trkpt>
      <trkpt lat="44.17323" lon="6.09169">
        <ele>1397</ele>
        <time>2022-03-03T12:41:19.644Z</time>
      </trkpt>
      <trkpt lat="44.17323" lon="6.0917">
        <ele>1397</ele>
        <time>2022-03-03T12:41:20.644Z</time>
      </trkpt>
      <trkpt lat="44.17323" lon="6.09172">
        <ele>1397</ele>
        <time>2022-03-03T12:41:21.644Z</time>
      </trkpt>
      <trkpt lat="44.17324" lon="6.09173">
        <ele>1397</ele>
        <time>2022-03-03T12:41:22.644Z</time>
      </trkpt>
      <trkpt lat="44.17324" lon="6.09174">
        <ele>1397</ele>
        <time>2022-03-03T12:41:23.644Z</time>
      </trkpt>
      <trkpt lat="44.17324" lon="6.09176">
        <ele>1397</ele>
        <time>2022-03-03T12:41:24.644Z</time>
      </trkpt>
      <trkpt lat="44.17325" lon="6.09177">
        <ele>1397</ele>
        <time>2022-03-03T12:41:25.644Z</time>
      </trkpt>
      <trkpt lat="44.17325" lon="6.09179">
        <ele>1397</ele>
        <time>2022-03-03T12:41:26.644Z</time>
      </trkpt>
      <trkpt lat="44.17325" lon="6.0918">
        <ele>1397</ele>
        <time>2022-03-03T12:41:27.644Z</time>
      </trkpt>
      <trkpt lat="44.17325" lon="6.0918">
        <ele>1397</ele>
        <time>2022-03-03T12:41:28.644Z</time>
      </trkpt>
      <trkpt lat="44.17325" lon="6.09181">
        <ele>1397</ele>
        <time>2022-03-03T12:41:29.644Z</time>
      </trkpt>
      <trkpt lat="44.17325" lon="6.09182">
        <ele>1397</ele>
        <time>2022-03-03T12:41:30.644Z</time>
      </trkpt>
      <trkpt lat="44.17326" lon="6.09183">
        <ele>1396</ele>
        <time>2022-03-03T12:41:31.644Z</time>
      </trkpt>
      <trkpt lat="44.17326" lon="6.09184">
        <ele>1396</ele>
        <time>2022-03-03T12:41:32.644Z</time>
      </trkpt>
      <trkpt lat="44.17327" lon="6.09186">
        <ele>1396</ele>
        <time>2022-03-03T12:41:33.644Z</time>
      </trkpt>
      <trkpt lat="44.17328" lon="6.09187">
        <ele>1396</ele>
        <time>2022-03-03T12:41:34.644Z</time>
      </trkpt>
      <trkpt lat="44.17328" lon="6.09188">
        <ele>1395</ele>
        <time>2022-03-03T12:41:35.644Z</time>
      </trkpt>
      <trkpt lat="44.17329" lon="6.0919">
        <ele>1395</ele>
        <time>2022-03-03T12:41:36.644Z</time>
      </trkpt>
      <trkpt lat="44.1733" lon="6.09191">
        <ele>1395</ele>
        <time>2022-03-03T12:41:37.644Z</time>
      </trkpt>
      <trkpt lat="44.17331" lon="6.09192">
        <ele>1395</ele>
        <time>2022-03-03T12:41:38.644Z</time>
      </trkpt>
      <trkpt lat="44.17331" lon="6.09193">
        <ele>1395</ele>
        <time>2022-03-03T12:41:39.644Z</time>
      </trkpt>
      <trkpt lat="44.17332" lon="6.09194">
        <ele>1394</ele>
        <time>2022-03-03T12:41:40.644Z</time>
      </trkpt>
      <trkpt lat="44.17332" lon="6.09196">
        <ele>1394</ele>
        <time>2022-03-03T12:41:41.644Z</time>
      </trkpt>
      <trkpt lat="44.17333" lon="6.09197">
        <ele>1394</ele>
        <time>2022-03-03T12:41:42.644Z</time>
      </trkpt>
      <trkpt lat="44.17334" lon="6.09198">
        <ele>1394</ele>
        <time>2022-03-03T12:41:43.644Z</time>
      </trkpt>
      <trkpt lat="44.17334" lon="6.09199">
        <ele>1394</ele>
        <time>2022-03-03T12:41:44.644Z</time>
      </trkpt>
      <trkpt lat="44.17335" lon="6.09201">
        <ele>1394</ele>
        <time>2022-03-03T12:41:45.644Z</time>
      </trkpt>
      <trkpt lat="44.17335" lon="6.09202">
        <ele>1394</ele>
        <time>2022-03-03T12:41:46.644Z</time>
      </trkpt>
      <trkpt lat="44.17336" lon="6.09204">
        <ele>1394</ele>
        <time>2022-03-03T12:41:47.644Z</time>
      </trkpt>
      <trkpt lat="44.17336" lon="6.09205">
        <ele>1394</ele>
        <time>2022-03-03T12:41:48.644Z</time>
      </trkpt>
      <trkpt lat="44.17336" lon="6.09207">
        <ele>1393</ele>
        <time>2022-03-03T12:41:49.644Z</time>
      </trkpt>
      <trkpt lat="44.17336" lon="6.09208">
        <ele>1393</ele>
        <time>2022-03-03T12:41:50.644Z</time>
      </trkpt>
      <trkpt lat="44.17337" lon="6.0921">
        <ele>1393</ele>
        <time>2022-03-03T12:41:51.644Z</time>
      </trkpt>
      <trkpt lat="44.17338" lon="6.09211">
        <ele>1393</ele>
        <time>2022-03-03T12:41:52.644Z</time>
      </trkpt>
      <trkpt lat="44.17338" lon="6.09213">
        <ele>1393</ele>
        <time>2022-03-03T12:41:53.644Z</time>
      </trkpt>
      <trkpt lat="44.17339" lon="6.09214">
        <ele>1393</ele>
        <time>2022-03-03T12:41:54.644Z</time>
      </trkpt>
      <trkpt lat="44.17339" lon="6.09215">
        <ele>1393</ele>
        <time>2022-03-03T12:41:55.644Z</time>
      </trkpt>
      <trkpt lat="44.1734" lon="6.09217">
        <ele>1393</ele>
        <time>2022-03-03T12:41:56.644Z</time>
      </trkpt>
      <trkpt lat="44.1734" lon="6.09218">
        <ele>1392</ele>
        <time>2022-03-03T12:41:57.644Z</time>
      </trkpt>
      <trkpt lat="44.1734" lon="6.09219">
        <ele>1392</ele>
        <time>2022-03-03T12:41:58.644Z</time>
      </trkpt>
      <trkpt lat="44.17341" lon="6.09221">
        <ele>1392</ele>
        <time>2022-03-03T12:41:59.644Z</time>
      </trkpt>
      <trkpt lat="44.17341" lon="6.09222">
        <ele>1392</ele>
        <time>2022-03-03T12:42:00.644Z</time>
      </trkpt>
      <trkpt lat="44.17342" lon="6.09223">
        <ele>1392</ele>
        <time>2022-03-03T12:42:01.644Z</time>
      </trkpt>
      <trkpt lat="44.17342" lon="6.09225">
        <ele>1392</ele>
        <time>2022-03-03T12:42:02.644Z</time>
      </trkpt>
      <trkpt lat="44.17342" lon="6.09226">
        <ele>1392</ele>
        <time>2022-03-03T12:42:03.644Z</time>
      </trkpt>
      <trkpt lat="44.17342" lon="6.09227">
        <ele>1392</ele>
        <time>2022-03-03T12:42:04.644Z</time>
      </trkpt>
      <trkpt lat="44.17342" lon="6.09228">
        <ele>1392</ele>
        <time>2022-03-03T12:42:05.644Z</time>
      </trkpt>
      <trkpt lat="44.17342" lon="6.09229">
        <ele>1391</ele>
        <time>2022-03-03T12:42:06.644Z</time>
      </trkpt>
      <trkpt lat="44.17343" lon="6.0923">
        <ele>1391</ele>
        <time>2022-03-03T12:42:07.644Z</time>
      </trkpt>
      <trkpt lat="44.17343" lon="6.09231">
        <ele>1391</ele>
        <time>2022-03-03T12:42:08.644Z</time>
      </trkpt>
      <trkpt lat="44.17344" lon="6.09232">
        <ele>1391</ele>
        <time>2022-03-03T12:42:09.644Z</time>
      </trkpt>
      <trkpt lat="44.17344" lon="6.09233">
        <ele>1391</ele>
        <time>2022-03-03T12:42:10.644Z</time>
      </trkpt>
      <trkpt lat="44.17345" lon="6.09234">
        <ele>1391</ele>
        <time>2022-03-03T12:42:11.644Z</time>
      </trkpt>
      <trkpt lat="44.17345" lon="6.09235">
        <ele>1391</ele>
        <time>2022-03-03T12:42:12.644Z</time>
      </trkpt>
      <trkpt lat="44.17345" lon="6.09236">
        <ele>1391</ele>
        <time>2022-03-03T12:42:13.644Z</time>
      </trkpt>
      <trkpt lat="44.17346" lon="6.09237">
        <ele>1391</ele>
        <time>2022-03-03T12:42:14.644Z</time>
      </trkpt>
      <trkpt lat="44.17347" lon="6.09239">
        <ele>1391</ele>
        <time>2022-03-03T12:42:15.644Z</time>
      </trkpt>
      <trkpt lat="44.17347" lon="6.09241">
        <ele>1391</ele>
        <time>2022-03-03T12:42:16.644Z</time>
      </trkpt>
      <trkpt lat="44.17348" lon="6.09243">
        <ele>1391</ele>
        <time>2022-03-03T12:42:17.644Z</time>
      </trkpt>
      <trkpt lat="44.17348" lon="6.09244">
        <ele>1391</ele>
        <time>2022-03-03T12:42:18.644Z</time>
      </trkpt>
      <trkpt lat="44.17348" lon="6.09246">
        <ele>1391</ele>
        <time>2022-03-03T12:42:19.644Z</time>
      </trkpt>
      <trkpt lat="44.17348" lon="6.09247">
        <ele>1391</ele>
        <time>2022-03-03T12:42:20.644Z</time>
      </trkpt>
      <trkpt lat="44.17349" lon="6.09249">
        <ele>1391</ele>
        <time>2022-03-03T12:42:21.644Z</time>
      </trkpt>
      <trkpt lat="44.17349" lon="6.0925">
        <ele>1390</ele>
        <time>2022-03-03T12:42:22.644Z</time>
      </trkpt>
      <trkpt lat="44.1735" lon="6.09251">
        <ele>1390</ele>
        <time>2022-03-03T12:42:23.644Z</time>
      </trkpt>
      <trkpt lat="44.17351" lon="6.09253">
        <ele>1390</ele>
        <time>2022-03-03T12:42:24.644Z</time>
      </trkpt>
      <trkpt lat="44.17351" lon="6.09254">
        <ele>1390</ele>
        <time>2022-03-03T12:42:25.644Z</time>
      </trkpt>
      <trkpt lat="44.17352" lon="6.09255">
        <ele>1390</ele>
        <time>2022-03-03T12:42:26.644Z</time>
      </trkpt>
      <trkpt lat="44.17353" lon="6.09257">
        <ele>1390</ele>
        <time>2022-03-03T12:42:27.644Z</time>
      </trkpt>
      <trkpt lat="44.17353" lon="6.09258">
        <ele>1390</ele>
        <time>2022-03-03T12:42:28.644Z</time>
      </trkpt>
      <trkpt lat="44.17353" lon="6.09259">
        <ele>1390</ele>
        <time>2022-03-03T12:42:29.644Z</time>
      </trkpt>
      <trkpt lat="44.17353" lon="6.09261">
        <ele>1390</ele>
        <time>2022-03-03T12:42:30.644Z</time>
      </trkpt>
      <trkpt lat="44.17353" lon="6.09262">
        <ele>1390</ele>
        <time>2022-03-03T12:42:31.644Z</time>
      </trkpt>
      <trkpt lat="44.17354" lon="6.09263">
        <ele>1389</ele>
        <time>2022-03-03T12:42:32.644Z</time>
      </trkpt>
      <trkpt lat="44.17353" lon="6.09265">
        <ele>1389</ele>
        <time>2022-03-03T12:42:33.644Z</time>
      </trkpt>
      <trkpt lat="44.17354" lon="6.09266">
        <ele>1389</ele>
        <time>2022-03-03T12:42:34.644Z</time>
      </trkpt>
      <trkpt lat="44.17353" lon="6.09267">
        <ele>1389</ele>
        <time>2022-03-03T12:42:35.644Z</time>
      </trkpt>
      <trkpt lat="44.17353" lon="6.09268">
        <ele>1389</ele>
        <time>2022-03-03T12:42:36.644Z</time>
      </trkpt>
      <trkpt lat="44.17353" lon="6.0927">
        <ele>1388</ele>
        <time>2022-03-03T12:42:37.644Z</time>
      </trkpt>
      <trkpt lat="44.17353" lon="6.09271">
        <ele>1388</ele>
        <time>2022-03-03T12:42:38.644Z</time>
      </trkpt>
      <trkpt lat="44.17353" lon="6.09273">
        <ele>1388</ele>
        <time>2022-03-03T12:42:39.644Z</time>
      </trkpt>
      <trkpt lat="44.17353" lon="6.09274">
        <ele>1388</ele>
        <time>2022-03-03T12:42:40.644Z</time>
      </trkpt>
      <trkpt lat="44.17353" lon="6.09276">
        <ele>1388</ele>
        <time>2022-03-03T12:42:41.644Z</time>
      </trkpt>
      <trkpt lat="44.17352" lon="6.09278">
        <ele>1388</ele>
        <time>2022-03-03T12:42:42.644Z</time>
      </trkpt>
      <trkpt lat="44.17352" lon="6.0928">
        <ele>1388</ele>
        <time>2022-03-03T12:42:43.644Z</time>
      </trkpt>
      <trkpt lat="44.17351" lon="6.09281">
        <ele>1388</ele>
        <time>2022-03-03T12:42:44.644Z</time>
      </trkpt>
      <trkpt lat="44.17351" lon="6.09283">
        <ele>1388</ele>
        <time>2022-03-03T12:42:45.644Z</time>
      </trkpt>
      <trkpt lat="44.1735" lon="6.09285">
        <ele>1388</ele>
        <time>2022-03-03T12:42:46.644Z</time>
      </trkpt>
      <trkpt lat="44.1735" lon="6.09286">
        <ele>1388</ele>
        <time>2022-03-03T12:42:47.644Z</time>
      </trkpt>
      <trkpt lat="44.1735" lon="6.09288">
        <ele>1388</ele>
        <time>2022-03-03T12:42:48.644Z</time>
      </trkpt>
      <trkpt lat="44.1735" lon="6.0929">
        <ele>1388</ele>
        <time>2022-03-03T12:42:49.644Z</time>
      </trkpt>
      <trkpt lat="44.1735" lon="6.09291">
        <ele>1388</ele>
        <time>2022-03-03T12:42:50.644Z</time>
      </trkpt>
      <trkpt lat="44.1735" lon="6.09292">
        <ele>1388</ele>
        <time>2022-03-03T12:42:51.644Z</time>
      </trkpt>
      <trkpt lat="44.17351" lon="6.09294">
        <ele>1388</ele>
        <time>2022-03-03T12:42:52.644Z</time>
      </trkpt>
      <trkpt lat="44.17351" lon="6.09295">
        <ele>1388</ele>
        <time>2022-03-03T12:42:53.644Z</time>
      </trkpt>
      <trkpt lat="44.17351" lon="6.09296">
        <ele>1388</ele>
        <time>2022-03-03T12:42:54.644Z</time>
      </trkpt>
      <trkpt lat="44.17351" lon="6.09298">
        <ele>1388</ele>
        <time>2022-03-03T12:42:55.644Z</time>
      </trkpt>
      <trkpt lat="44.17351" lon="6.09299">
        <ele>1387</ele>
        <time>2022-03-03T12:42:56.644Z</time>
      </trkpt>
      <trkpt lat="44.17352" lon="6.09301">
        <ele>1387</ele>
        <time>2022-03-03T12:42:57.644Z</time>
      </trkpt>
      <trkpt lat="44.17352" lon="6.09302">
        <ele>1387</ele>
        <time>2022-03-03T12:42:58.644Z</time>
      </trkpt>
      <trkpt lat="44.17352" lon="6.09304">
        <ele>1387</ele>
        <time>2022-03-03T12:42:59.644Z</time>
      </trkpt>
      <trkpt lat="44.17352" lon="6.09306">
        <ele>1387</ele>
        <time>2022-03-03T12:43:00.644Z</time>
      </trkpt>
      <trkpt lat="44.17352" lon="6.09307">
        <ele>1387</ele>
        <time>2022-03-03T12:43:01.644Z</time>
      </trkpt>
      <trkpt lat="44.17351" lon="6.09309">
        <ele>1387</ele>
        <time>2022-03-03T12:43:02.644Z</time>
      </trkpt>
      <trkpt lat="44.17351" lon="6.0931">
        <ele>1387</ele>
        <time>2022-03-03T12:43:03.644Z</time>
      </trkpt>
      <trkpt lat="44.17351" lon="6.09311">
        <ele>1387</ele>
        <time>2022-03-03T12:43:04.644Z</time>
      </trkpt>
      <trkpt lat="44.17351" lon="6.09312">
        <ele>1387</ele>
        <time>2022-03-03T12:43:05.644Z</time>
      </trkpt>
      <trkpt lat="44.17351" lon="6.09314">
        <ele>1387</ele>
        <time>2022-03-03T12:43:06.644Z</time>
      </trkpt>
      <trkpt lat="44.17351" lon="6.09316">
        <ele>1387</ele>
        <time>2022-03-03T12:43:07.644Z</time>
      </trkpt>
      <trkpt lat="44.17351" lon="6.09317">
        <ele>1387</ele>
        <time>2022-03-03T12:43:08.644Z</time>
      </trkpt>
      <trkpt lat="44.1735" lon="6.09319">
        <ele>1386</ele>
        <time>2022-03-03T12:43:09.644Z</time>
      </trkpt>
      <trkpt lat="44.1735" lon="6.09321">
        <ele>1386</ele>
        <time>2022-03-03T12:43:10.644Z</time>
      </trkpt>
      <trkpt lat="44.1735" lon="6.09322">
        <ele>1386</ele>
        <time>2022-03-03T12:43:11.644Z</time>
      </trkpt>
      <trkpt lat="44.17351" lon="6.09324">
        <ele>1386</ele>
        <time>2022-03-03T12:43:12.644Z</time>
      </trkpt>
      <trkpt lat="44.17351" lon="6.09325">
        <ele>1386</ele>
        <time>2022-03-03T12:43:13.644Z</time>
      </trkpt>
      <trkpt lat="44.1735" lon="6.09327">
        <ele>1385</ele>
        <time>2022-03-03T12:43:14.644Z</time>
      </trkpt>
      <trkpt lat="44.1735" lon="6.09329">
        <ele>1385</ele>
        <time>2022-03-03T12:43:15.644Z</time>
      </trkpt>
      <trkpt lat="44.1735" lon="6.09331">
        <ele>1385</ele>
        <time>2022-03-03T12:43:16.644Z</time>
      </trkpt>
      <trkpt lat="44.17351" lon="6.09332">
        <ele>1384</ele>
        <time>2022-03-03T12:43:17.644Z</time>
      </trkpt>
      <trkpt lat="44.17351" lon="6.09334">
        <ele>1384</ele>
        <time>2022-03-03T12:43:18.644Z</time>
      </trkpt>
      <trkpt lat="44.17351" lon="6.09335">
        <ele>1384</ele>
        <time>2022-03-03T12:43:19.644Z</time>
      </trkpt>
      <trkpt lat="44.17351" lon="6.09337">
        <ele>1384</ele>
        <time>2022-03-03T12:43:20.644Z</time>
      </trkpt>
      <trkpt lat="44.17351" lon="6.09338">
        <ele>1383</ele>
        <time>2022-03-03T12:43:21.644Z</time>
      </trkpt>
      <trkpt lat="44.17351" lon="6.0934">
        <ele>1383</ele>
        <time>2022-03-03T12:43:22.644Z</time>
      </trkpt>
      <trkpt lat="44.17352" lon="6.09341">
        <ele>1383</ele>
        <time>2022-03-03T12:43:23.644Z</time>
      </trkpt>
      <trkpt lat="44.17352" lon="6.09343">
        <ele>1382</ele>
        <time>2022-03-03T12:43:24.644Z</time>
      </trkpt>
      <trkpt lat="44.17352" lon="6.09345">
        <ele>1382</ele>
        <time>2022-03-03T12:43:25.644Z</time>
      </trkpt>
      <trkpt lat="44.17353" lon="6.09346">
        <ele>1382</ele>
        <time>2022-03-03T12:43:26.644Z</time>
      </trkpt>
      <trkpt lat="44.17353" lon="6.09348">
        <ele>1382</ele>
        <time>2022-03-03T12:43:27.644Z</time>
      </trkpt>
      <trkpt lat="44.17352" lon="6.0935">
        <ele>1381</ele>
        <time>2022-03-03T12:43:28.644Z</time>
      </trkpt>
      <trkpt lat="44.17352" lon="6.09352">
        <ele>1381</ele>
        <time>2022-03-03T12:43:29.644Z</time>
      </trkpt>
      <trkpt lat="44.17353" lon="6.09353">
        <ele>1381</ele>
        <time>2022-03-03T12:43:30.644Z</time>
      </trkpt>
      <trkpt lat="44.17353" lon="6.09354">
        <ele>1381</ele>
        <time>2022-03-03T12:43:31.644Z</time>
      </trkpt>
      <trkpt lat="44.17353" lon="6.09356">
        <ele>1381</ele>
        <time>2022-03-03T12:43:32.644Z</time>
      </trkpt>
      <trkpt lat="44.17353" lon="6.09357">
        <ele>1381</ele>
        <time>2022-03-03T12:43:33.644Z</time>
      </trkpt>
      <trkpt lat="44.17353" lon="6.09359">
        <ele>1380</ele>
        <time>2022-03-03T12:43:34.644Z</time>
      </trkpt>
      <trkpt lat="44.17352" lon="6.0936">
        <ele>1380</ele>
        <time>2022-03-03T12:43:35.644Z</time>
      </trkpt>
      <trkpt lat="44.17352" lon="6.09361">
        <ele>1380</ele>
        <time>2022-03-03T12:43:36.644Z</time>
      </trkpt>
      <trkpt lat="44.17352" lon="6.09363">
        <ele>1380</ele>
        <time>2022-03-03T12:43:37.644Z</time>
      </trkpt>
      <trkpt lat="44.17352" lon="6.09364">
        <ele>1380</ele>
        <time>2022-03-03T12:43:38.644Z</time>
      </trkpt>
      <trkpt lat="44.17352" lon="6.09365">
        <ele>1380</ele>
        <time>2022-03-03T12:43:39.644Z</time>
      </trkpt>
      <trkpt lat="44.17352" lon="6.09367">
        <ele>1380</ele>
        <time>2022-03-03T12:43:40.644Z</time>
      </trkpt>
      <trkpt lat="44.17352" lon="6.09369">
        <ele>1380</ele>
        <time>2022-03-03T12:43:41.644Z</time>
      </trkpt>
      <trkpt lat="44.17352" lon="6.0937">
        <ele>1380</ele>
        <time>2022-03-03T12:43:42.644Z</time>
      </trkpt>
      <trkpt lat="44.17351" lon="6.09372">
        <ele>1379</ele>
        <time>2022-03-03T12:43:43.644Z</time>
      </trkpt>
      <trkpt lat="44.17351" lon="6.09373">
        <ele>1379</ele>
        <time>2022-03-03T12:43:44.644Z</time>
      </trkpt>
      <trkpt lat="44.17351" lon="6.09375">
        <ele>1379</ele>
        <time>2022-03-03T12:43:45.644Z</time>
      </trkpt>
      <trkpt lat="44.17351" lon="6.09376">
        <ele>1379</ele>
        <time>2022-03-03T12:43:46.644Z</time>
      </trkpt>
      <trkpt lat="44.1735" lon="6.09378">
        <ele>1379</ele>
        <time>2022-03-03T12:43:47.644Z</time>
      </trkpt>
      <trkpt lat="44.1735" lon="6.09379">
        <ele>1379</ele>
        <time>2022-03-03T12:43:48.644Z</time>
      </trkpt>
      <trkpt lat="44.1735" lon="6.09381">
        <ele>1379</ele>
        <time>2022-03-03T12:43:49.644Z</time>
      </trkpt>
      <trkpt lat="44.1735" lon="6.09382">
        <ele>1379</ele>
        <time>2022-03-03T12:43:50.644Z</time>
      </trkpt>
      <trkpt lat="44.1735" lon="6.09384">
        <ele>1379</ele>
        <time>2022-03-03T12:43:51.644Z</time>
      </trkpt>
      <trkpt lat="44.1735" lon="6.09386">
        <ele>1379</ele>
        <time>2022-03-03T12:43:52.644Z</time>
      </trkpt>
      <trkpt lat="44.17351" lon="6.09387">
        <ele>1378</ele>
        <time>2022-03-03T12:43:53.644Z</time>
      </trkpt>
      <trkpt lat="44.1735" lon="6.09389">
        <ele>1378</ele>
        <time>2022-03-03T12:43:54.644Z</time>
      </trkpt>
      <trkpt lat="44.1735" lon="6.0939">
        <ele>1378</ele>
        <time>2022-03-03T12:43:55.644Z</time>
      </trkpt>
      <trkpt lat="44.1735" lon="6.09392">
        <ele>1378</ele>
        <time>2022-03-03T12:43:56.644Z</time>
      </trkpt>
      <trkpt lat="44.1735" lon="6.09394">
        <ele>1378</ele>
        <time>2022-03-03T12:43:57.644Z</time>
      </trkpt>
      <trkpt lat="44.1735" lon="6.09395">
        <ele>1378</ele>
        <time>2022-03-03T12:43:58.644Z</time>
      </trkpt>
      <trkpt lat="44.1735" lon="6.09397">
        <ele>1378</ele>
        <time>2022-03-03T12:43:59.644Z</time>
      </trkpt>
      <trkpt lat="44.1735" lon="6.09398">
        <ele>1378</ele>
        <time>2022-03-03T12:44:00.644Z</time>
      </trkpt>
      <trkpt lat="44.1735" lon="6.094">
        <ele>1377</ele>
        <time>2022-03-03T12:44:01.644Z</time>
      </trkpt>
      <trkpt lat="44.17349" lon="6.09401">
        <ele>1377</ele>
        <time>2022-03-03T12:44:02.644Z</time>
      </trkpt>
      <trkpt lat="44.17349" lon="6.09403">
        <ele>1377</ele>
        <time>2022-03-03T12:44:03.644Z</time>
      </trkpt>
      <trkpt lat="44.17349" lon="6.09405">
        <ele>1377</ele>
        <time>2022-03-03T12:44:04.644Z</time>
      </trkpt>
      <trkpt lat="44.17349" lon="6.09406">
        <ele>1377</ele>
        <time>2022-03-03T12:44:05.644Z</time>
      </trkpt>
      <trkpt lat="44.17349" lon="6.09408">
        <ele>1377</ele>
        <time>2022-03-03T12:44:06.644Z</time>
      </trkpt>
      <trkpt lat="44.17348" lon="6.09409">
        <ele>1376</ele>
        <time>2022-03-03T12:44:07.644Z</time>
      </trkpt>
      <trkpt lat="44.17349" lon="6.09411">
        <ele>1376</ele>
        <time>2022-03-03T12:44:08.644Z</time>
      </trkpt>
      <trkpt lat="44.17348" lon="6.09413">
        <ele>1376</ele>
        <time>2022-03-03T12:44:09.644Z</time>
      </trkpt>
      <trkpt lat="44.17348" lon="6.09414">
        <ele>1376</ele>
        <time>2022-03-03T12:44:10.644Z</time>
      </trkpt>
      <trkpt lat="44.17348" lon="6.09416">
        <ele>1376</ele>
        <time>2022-03-03T12:44:11.644Z</time>
      </trkpt>
      <trkpt lat="44.17348" lon="6.09418">
        <ele>1375</ele>
        <time>2022-03-03T12:44:12.644Z</time>
      </trkpt>
      <trkpt lat="44.17347" lon="6.09419">
        <ele>1375</ele>
        <time>2022-03-03T12:44:13.644Z</time>
      </trkpt>
      <trkpt lat="44.17347" lon="6.09421">
        <ele>1375</ele>
        <time>2022-03-03T12:44:14.644Z</time>
      </trkpt>
      <trkpt lat="44.17347" lon="6.09422">
        <ele>1375</ele>
        <time>2022-03-03T12:44:15.644Z</time>
      </trkpt>
      <trkpt lat="44.17347" lon="6.09424">
        <ele>1375</ele>
        <time>2022-03-03T12:44:16.644Z</time>
      </trkpt>
      <trkpt lat="44.17347" lon="6.09425">
        <ele>1375</ele>
        <time>2022-03-03T12:44:17.644Z</time>
      </trkpt>
      <trkpt lat="44.17347" lon="6.09427">
        <ele>1375</ele>
        <time>2022-03-03T12:44:18.644Z</time>
      </trkpt>
      <trkpt lat="44.17347" lon="6.09428">
        <ele>1374</ele>
        <time>2022-03-03T12:44:19.644Z</time>
      </trkpt>
      <trkpt lat="44.17346" lon="6.0943">
        <ele>1374</ele>
        <time>2022-03-03T12:44:20.644Z</time>
      </trkpt>
      <trkpt lat="44.17346" lon="6.09431">
        <ele>1374</ele>
        <time>2022-03-03T12:44:21.644Z</time>
      </trkpt>
      <trkpt lat="44.17346" lon="6.09433">
        <ele>1374</ele>
        <time>2022-03-03T12:44:22.644Z</time>
      </trkpt>
      <trkpt lat="44.17346" lon="6.09434">
        <ele>1374</ele>
        <time>2022-03-03T12:44:23.644Z</time>
      </trkpt>
      <trkpt lat="44.17346" lon="6.09436">
        <ele>1373</ele>
        <time>2022-03-03T12:44:24.644Z</time>
      </trkpt>
      <trkpt lat="44.17346" lon="6.09437">
        <ele>1373</ele>
        <time>2022-03-03T12:44:25.644Z</time>
      </trkpt>
      <trkpt lat="44.17346" lon="6.09439">
        <ele>1373</ele>
        <time>2022-03-03T12:44:26.644Z</time>
      </trkpt>
      <trkpt lat="44.17346" lon="6.0944">
        <ele>1373</ele>
        <time>2022-03-03T12:44:27.644Z</time>
      </trkpt>
      <trkpt lat="44.17346" lon="6.09442">
        <ele>1373</ele>
        <time>2022-03-03T12:44:28.644Z</time>
      </trkpt>
      <trkpt lat="44.17346" lon="6.09443">
        <ele>1373</ele>
        <time>2022-03-03T12:44:29.644Z</time>
      </trkpt>
      <trkpt lat="44.17346" lon="6.09445">
        <ele>1373</ele>
        <time>2022-03-03T12:44:30.644Z</time>
      </trkpt>
      <trkpt lat="44.17346" lon="6.09446">
        <ele>1372</ele>
        <time>2022-03-03T12:44:31.644Z</time>
      </trkpt>
      <trkpt lat="44.17346" lon="6.09448">
        <ele>1372</ele>
        <time>2022-03-03T12:44:32.644Z</time>
      </trkpt>
      <trkpt lat="44.17346" lon="6.0945">
        <ele>1372</ele>
        <time>2022-03-03T12:44:33.644Z</time>
      </trkpt>
      <trkpt lat="44.17346" lon="6.09451">
        <ele>1372</ele>
        <time>2022-03-03T12:44:34.644Z</time>
      </trkpt>
      <trkpt lat="44.17345" lon="6.09453">
        <ele>1372</ele>
        <time>2022-03-03T12:44:35.644Z</time>
      </trkpt>
      <trkpt lat="44.17345" lon="6.09454">
        <ele>1372</ele>
        <time>2022-03-03T12:44:36.644Z</time>
      </trkpt>
      <trkpt lat="44.17345" lon="6.09456">
        <ele>1372</ele>
        <time>2022-03-03T12:44:37.644Z</time>
      </trkpt>
      <trkpt lat="44.17345" lon="6.09457">
        <ele>1371</ele>
        <time>2022-03-03T12:44:38.644Z</time>
      </trkpt>
      <trkpt lat="44.17345" lon="6.09459">
        <ele>1371</ele>
        <time>2022-03-03T12:44:39.644Z</time>
      </trkpt>
      <trkpt lat="44.17345" lon="6.0946">
        <ele>1371</ele>
        <time>2022-03-03T12:44:40.644Z</time>
      </trkpt>
      <trkpt lat="44.17345" lon="6.09462">
        <ele>1371</ele>
        <time>2022-03-03T12:44:41.644Z</time>
      </trkpt>
      <trkpt lat="44.17345" lon="6.09463">
        <ele>1371</ele>
        <time>2022-03-03T12:44:42.644Z</time>
      </trkpt>
      <trkpt lat="44.17345" lon="6.09464">
        <ele>1371</ele>
        <time>2022-03-03T12:44:43.644Z</time>
      </trkpt>
      <trkpt lat="44.17345" lon="6.09466">
        <ele>1371</ele>
        <time>2022-03-03T12:44:44.644Z</time>
      </trkpt>
      <trkpt lat="44.17345" lon="6.09468">
        <ele>1371</ele>
        <time>2022-03-03T12:44:45.644Z</time>
      </trkpt>
      <trkpt lat="44.17345" lon="6.09469">
        <ele>1370</ele>
        <time>2022-03-03T12:44:46.644Z</time>
      </trkpt>
      <trkpt lat="44.17344" lon="6.09471">
        <ele>1370</ele>
        <time>2022-03-03T12:44:47.644Z</time>
      </trkpt>
      <trkpt lat="44.17344" lon="6.09472">
        <ele>1370</ele>
        <time>2022-03-03T12:44:48.644Z</time>
      </trkpt>
      <trkpt lat="44.17345" lon="6.09474">
        <ele>1370</ele>
        <time>2022-03-03T12:44:49.644Z</time>
      </trkpt>
      <trkpt lat="44.17345" lon="6.09475">
        <ele>1370</ele>
        <time>2022-03-03T12:44:50.644Z</time>
      </trkpt>
      <trkpt lat="44.17345" lon="6.09477">
        <ele>1369</ele>
        <time>2022-03-03T12:44:51.644Z</time>
      </trkpt>
      <trkpt lat="44.17345" lon="6.09478">
        <ele>1369</ele>
        <time>2022-03-03T12:44:52.644Z</time>
      </trkpt>
      <trkpt lat="44.17345" lon="6.0948">
        <ele>1369</ele>
        <time>2022-03-03T12:44:53.644Z</time>
      </trkpt>
      <trkpt lat="44.17345" lon="6.09481">
        <ele>1369</ele>
        <time>2022-03-03T12:44:54.644Z</time>
      </trkpt>
      <trkpt lat="44.17345" lon="6.09482">
        <ele>1369</ele>
        <time>2022-03-03T12:44:55.644Z</time>
      </trkpt>
      <trkpt lat="44.17345" lon="6.09483">
        <ele>1369</ele>
        <time>2022-03-03T12:44:56.644Z</time>
      </trkpt>
      <trkpt lat="44.17345" lon="6.09484">
        <ele>1368</ele>
        <time>2022-03-03T12:44:57.644Z</time>
      </trkpt>
      <trkpt lat="44.17345" lon="6.09485">
        <ele>1368</ele>
        <time>2022-03-03T12:44:58.644Z</time>
      </trkpt>
      <trkpt lat="44.17345" lon="6.09486">
        <ele>1368</ele>
        <time>2022-03-03T12:44:59.644Z</time>
      </trkpt>
      <trkpt lat="44.17346" lon="6.09487">
        <ele>1368</ele>
        <time>2022-03-03T12:45:00.644Z</time>
      </trkpt>
      <trkpt lat="44.17346" lon="6.09488">
        <ele>1368</ele>
        <time>2022-03-03T12:45:01.644Z</time>
      </trkpt>
      <trkpt lat="44.17346" lon="6.0949">
        <ele>1368</ele>
        <time>2022-03-03T12:45:02.644Z</time>
      </trkpt>
      <trkpt lat="44.17346" lon="6.09491">
        <ele>1367</ele>
        <time>2022-03-03T12:45:03.644Z</time>
      </trkpt>
      <trkpt lat="44.17346" lon="6.09493">
        <ele>1367</ele>
        <time>2022-03-03T12:45:04.644Z</time>
      </trkpt>
      <trkpt lat="44.17347" lon="6.09495">
        <ele>1367</ele>
        <time>2022-03-03T12:45:05.644Z</time>
      </trkpt>
      <trkpt lat="44.17347" lon="6.09496">
        <ele>1366</ele>
        <time>2022-03-03T12:45:06.644Z</time>
      </trkpt>
      <trkpt lat="44.17347" lon="6.09498">
        <ele>1366</ele>
        <time>2022-03-03T12:45:07.644Z</time>
      </trkpt>
      <trkpt lat="44.17347" lon="6.095">
        <ele>1366</ele>
        <time>2022-03-03T12:45:08.644Z</time>
      </trkpt>
      <trkpt lat="44.17347" lon="6.09501">
        <ele>1366</ele>
        <time>2022-03-03T12:45:09.644Z</time>
      </trkpt>
      <trkpt lat="44.17347" lon="6.09503">
        <ele>1366</ele>
        <time>2022-03-03T12:45:10.644Z</time>
      </trkpt>
      <trkpt lat="44.17347" lon="6.09504">
        <ele>1365</ele>
        <time>2022-03-03T12:45:11.644Z</time>
      </trkpt>
      <trkpt lat="44.17348" lon="6.09506">
        <ele>1365</ele>
        <time>2022-03-03T12:45:12.644Z</time>
      </trkpt>
      <trkpt lat="44.17348" lon="6.09508">
        <ele>1365</ele>
        <time>2022-03-03T12:45:13.644Z</time>
      </trkpt>
      <trkpt lat="44.17348" lon="6.09509">
        <ele>1365</ele>
        <time>2022-03-03T12:45:14.644Z</time>
      </trkpt>
      <trkpt lat="44.17348" lon="6.09511">
        <ele>1365</ele>
        <time>2022-03-03T12:45:15.644Z</time>
      </trkpt>
      <trkpt lat="44.17348" lon="6.09513">
        <ele>1365</ele>
        <time>2022-03-03T12:45:16.644Z</time>
      </trkpt>
      <trkpt lat="44.17348" lon="6.09514">
        <ele>1364</ele>
        <time>2022-03-03T12:45:17.644Z</time>
      </trkpt>
      <trkpt lat="44.17348" lon="6.09516">
        <ele>1364</ele>
        <time>2022-03-03T12:45:18.644Z</time>
      </trkpt>
      <trkpt lat="44.17348" lon="6.09517">
        <ele>1364</ele>
        <time>2022-03-03T12:45:19.644Z</time>
      </trkpt>
      <trkpt lat="44.17348" lon="6.09519">
        <ele>1364</ele>
        <time>2022-03-03T12:45:20.644Z</time>
      </trkpt>
      <trkpt lat="44.17348" lon="6.0952">
        <ele>1364</ele>
        <time>2022-03-03T12:45:21.644Z</time>
      </trkpt>
      <trkpt lat="44.17348" lon="6.09522">
        <ele>1364</ele>
        <time>2022-03-03T12:45:22.644Z</time>
      </trkpt>
      <trkpt lat="44.17348" lon="6.09524">
        <ele>1363</ele>
        <time>2022-03-03T12:45:23.644Z</time>
      </trkpt>
      <trkpt lat="44.17348" lon="6.09525">
        <ele>1363</ele>
        <time>2022-03-03T12:45:24.644Z</time>
      </trkpt>
      <trkpt lat="44.17348" lon="6.09527">
        <ele>1363</ele>
        <time>2022-03-03T12:45:25.644Z</time>
      </trkpt>
      <trkpt lat="44.17347" lon="6.09528">
        <ele>1363</ele>
        <time>2022-03-03T12:45:26.644Z</time>
      </trkpt>
      <trkpt lat="44.17347" lon="6.0953">
        <ele>1363</ele>
        <time>2022-03-03T12:45:27.644Z</time>
      </trkpt>
      <trkpt lat="44.17347" lon="6.09531">
        <ele>1363</ele>
        <time>2022-03-03T12:45:28.644Z</time>
      </trkpt>
      <trkpt lat="44.17347" lon="6.09533">
        <ele>1363</ele>
        <time>2022-03-03T12:45:29.644Z</time>
      </trkpt>
      <trkpt lat="44.17347" lon="6.09534">
        <ele>1362</ele>
        <time>2022-03-03T12:45:30.644Z</time>
      </trkpt>
      <trkpt lat="44.17347" lon="6.09536">
        <ele>1362</ele>
        <time>2022-03-03T12:45:31.644Z</time>
      </trkpt>
      <trkpt lat="44.17347" lon="6.09537">
        <ele>1362</ele>
        <time>2022-03-03T12:45:32.644Z</time>
      </trkpt>
      <trkpt lat="44.17347" lon="6.09539">
        <ele>1362</ele>
        <time>2022-03-03T12:45:33.644Z</time>
      </trkpt>
      <trkpt lat="44.17347" lon="6.0954">
        <ele>1362</ele>
        <time>2022-03-03T12:45:34.644Z</time>
      </trkpt>
      <trkpt lat="44.17347" lon="6.09542">
        <ele>1362</ele>
        <time>2022-03-03T12:45:35.644Z</time>
      </trkpt>
      <trkpt lat="44.17347" lon="6.09543">
        <ele>1361</ele>
        <time>2022-03-03T12:45:36.644Z</time>
      </trkpt>
      <trkpt lat="44.17347" lon="6.09545">
        <ele>1361</ele>
        <time>2022-03-03T12:45:37.644Z</time>
      </trkpt>
      <trkpt lat="44.17347" lon="6.09546">
        <ele>1361</ele>
        <time>2022-03-03T12:45:38.644Z</time>
      </trkpt>
      <trkpt lat="44.17347" lon="6.09547">
        <ele>1360</ele>
        <time>2022-03-03T12:45:39.644Z</time>
      </trkpt>
      <trkpt lat="44.17346" lon="6.09549">
        <ele>1360</ele>
        <time>2022-03-03T12:45:40.644Z</time>
      </trkpt>
      <trkpt lat="44.17346" lon="6.0955">
        <ele>1360</ele>
        <time>2022-03-03T12:45:41.644Z</time>
      </trkpt>
      <trkpt lat="44.17346" lon="6.09552">
        <ele>1359</ele>
        <time>2022-03-03T12:45:42.644Z</time>
      </trkpt>
      <trkpt lat="44.17346" lon="6.09553">
        <ele>1359</ele>
        <time>2022-03-03T12:45:43.644Z</time>
      </trkpt>
      <trkpt lat="44.17346" lon="6.09555">
        <ele>1359</ele>
        <time>2022-03-03T12:45:44.644Z</time>
      </trkpt>
      <trkpt lat="44.17346" lon="6.09556">
        <ele>1359</ele>
        <time>2022-03-03T12:45:45.644Z</time>
      </trkpt>
      <trkpt lat="44.17346" lon="6.09557">
        <ele>1359</ele>
        <time>2022-03-03T12:45:46.644Z</time>
      </trkpt>
      <trkpt lat="44.17345" lon="6.09559">
        <ele>1359</ele>
        <time>2022-03-03T12:45:47.644Z</time>
      </trkpt>
      <trkpt lat="44.17345" lon="6.0956">
        <ele>1359</ele>
        <time>2022-03-03T12:45:48.644Z</time>
      </trkpt>
      <trkpt lat="44.17345" lon="6.09561">
        <ele>1359</ele>
        <time>2022-03-03T12:45:49.644Z</time>
      </trkpt>
      <trkpt lat="44.17345" lon="6.09563">
        <ele>1358</ele>
        <time>2022-03-03T12:45:50.644Z</time>
      </trkpt>
      <trkpt lat="44.17345" lon="6.09564">
        <ele>1358</ele>
        <time>2022-03-03T12:45:51.644Z</time>
      </trkpt>
      <trkpt lat="44.17344" lon="6.09566">
        <ele>1358</ele>
        <time>2022-03-03T12:45:52.644Z</time>
      </trkpt>
      <trkpt lat="44.17344" lon="6.09567">
        <ele>1358</ele>
        <time>2022-03-03T12:45:53.644Z</time>
      </trkpt>
      <trkpt lat="44.17344" lon="6.09568">
        <ele>1358</ele>
        <time>2022-03-03T12:45:54.644Z</time>
      </trkpt>
      <trkpt lat="44.17343" lon="6.0957">
        <ele>1357</ele>
        <time>2022-03-03T12:45:55.644Z</time>
      </trkpt>
      <trkpt lat="44.17342" lon="6.09572">
        <ele>1357</ele>
        <time>2022-03-03T12:45:56.644Z</time>
      </trkpt>
      <trkpt lat="44.17342" lon="6.09573">
        <ele>1357</ele>
        <time>2022-03-03T12:45:57.644Z</time>
      </trkpt>
      <trkpt lat="44.17342" lon="6.09575">
        <ele>1356</ele>
        <time>2022-03-03T12:45:58.644Z</time>
      </trkpt>
      <trkpt lat="44.17341" lon="6.09576">
        <ele>1356</ele>
        <time>2022-03-03T12:45:59.644Z</time>
      </trkpt>
      <trkpt lat="44.1734" lon="6.09578">
        <ele>1356</ele>
        <time>2022-03-03T12:46:00.644Z</time>
      </trkpt>
      <trkpt lat="44.1734" lon="6.09579">
        <ele>1356</ele>
        <time>2022-03-03T12:46:01.644Z</time>
      </trkpt>
      <trkpt lat="44.1734" lon="6.0958">
        <ele>1356</ele>
        <time>2022-03-03T12:46:02.644Z</time>
      </trkpt>
      <trkpt lat="44.17339" lon="6.09582">
        <ele>1356</ele>
        <time>2022-03-03T12:46:03.644Z</time>
      </trkpt>
      <trkpt lat="44.17338" lon="6.09583">
        <ele>1356</ele>
        <time>2022-03-03T12:46:04.644Z</time>
      </trkpt>
      <trkpt lat="44.17337" lon="6.09584">
        <ele>1356</ele>
        <time>2022-03-03T12:46:05.644Z</time>
      </trkpt>
      <trkpt lat="44.17337" lon="6.09585">
        <ele>1356</ele>
        <time>2022-03-03T12:46:06.644Z</time>
      </trkpt>
      <trkpt lat="44.17336" lon="6.09586">
        <ele>1356</ele>
        <time>2022-03-03T12:46:07.644Z</time>
      </trkpt>
      <trkpt lat="44.17335" lon="6.09587">
        <ele>1356</ele>
        <time>2022-03-03T12:46:08.644Z</time>
      </trkpt>
      <trkpt lat="44.17334" lon="6.09588">
        <ele>1356</ele>
        <time>2022-03-03T12:46:09.644Z</time>
      </trkpt>
      <trkpt lat="44.17334" lon="6.09589">
        <ele>1356</ele>
        <time>2022-03-03T12:46:10.644Z</time>
      </trkpt>
      <trkpt lat="44.17333" lon="6.09589">
        <ele>1356</ele>
        <time>2022-03-03T12:46:11.644Z</time>
      </trkpt>
      <trkpt lat="44.17332" lon="6.0959">
        <ele>1356</ele>
        <time>2022-03-03T12:46:12.644Z</time>
      </trkpt>
      <trkpt lat="44.17332" lon="6.09591">
        <ele>1356</ele>
        <time>2022-03-03T12:46:13.644Z</time>
      </trkpt>
      <trkpt lat="44.17331" lon="6.09591">
        <ele>1356</ele>
        <time>2022-03-03T12:46:14.644Z</time>
      </trkpt>
      <trkpt lat="44.17331" lon="6.09592">
        <ele>1356</ele>
        <time>2022-03-03T12:46:15.644Z</time>
      </trkpt>
      <trkpt lat="44.17331" lon="6.09592">
        <ele>1356</ele>
        <time>2022-03-03T12:46:16.644Z</time>
      </trkpt>
      <trkpt lat="44.17331" lon="6.09592">
        <ele>1356</ele>
        <time>2022-03-03T12:46:17.644Z</time>
      </trkpt>
      <trkpt lat="44.17331" lon="6.09592">
        <ele>1356</ele>
        <time>2022-03-03T12:46:18.644Z</time>
      </trkpt>
      <trkpt lat="44.17331" lon="6.09592">
        <ele>1356</ele>
        <time>2022-03-03T12:46:19.644Z</time>
      </trkpt>
      <trkpt lat="44.17331" lon="6.09592">
        <ele>1356</ele>
        <time>2022-03-03T12:46:20.644Z</time>
      </trkpt>
      <trkpt lat="44.17331" lon="6.09592">
        <ele>1356</ele>
        <time>2022-03-03T12:46:21.644Z</time>
      </trkpt>
      <trkpt lat="44.17331" lon="6.09592">
        <ele>1356</ele>
        <time>2022-03-03T12:46:22.644Z</time>
      </trkpt>
      <trkpt lat="44.17331" lon="6.09592">
        <ele>1356</ele>
        <time>2022-03-03T12:46:23.644Z</time>
      </trkpt>
      <trkpt lat="44.17331" lon="6.09592">
        <ele>1356</ele>
        <time>2022-03-03T12:46:24.644Z</time>
      </trkpt>
      <trkpt lat="44.17331" lon="6.09592">
        <ele>1356</ele>
        <time>2022-03-03T12:46:25.644Z</time>
      </trkpt>
      <trkpt lat="44.17331" lon="6.09592">
        <ele>1356</ele>
        <time>2022-03-03T12:46:26.644Z</time>
      </trkpt>
      <trkpt lat="44.17331" lon="6.09593">
        <ele>1356</ele>
        <time>2022-03-03T12:46:27.644Z</time>
      </trkpt>
      <trkpt lat="44.17331" lon="6.09594">
        <ele>1356</ele>
        <time>2022-03-03T12:46:28.644Z</time>
      </trkpt>
      <trkpt lat="44.1733" lon="6.09595">
        <ele>1356</ele>
        <time>2022-03-03T12:46:29.644Z</time>
      </trkpt>
      <trkpt lat="44.17329" lon="6.09596">
        <ele>1356</ele>
        <time>2022-03-03T12:46:30.644Z</time>
      </trkpt>
      <trkpt lat="44.17329" lon="6.09596">
        <ele>1356</ele>
        <time>2022-03-03T12:46:31.644Z</time>
      </trkpt>
      <trkpt lat="44.17328" lon="6.09597">
        <ele>1356</ele>
        <time>2022-03-03T12:46:32.644Z</time>
      </trkpt>
      <trkpt lat="44.17328" lon="6.09598">
        <ele>1356</ele>
        <time>2022-03-03T12:46:33.644Z</time>
      </trkpt>
      <trkpt lat="44.17327" lon="6.09599">
        <ele>1356</ele>
        <time>2022-03-03T12:46:34.644Z</time>
      </trkpt>
      <trkpt lat="44.17327" lon="6.096">
        <ele>1356</ele>
        <time>2022-03-03T12:46:35.644Z</time>
      </trkpt>
      <trkpt lat="44.17326" lon="6.09601">
        <ele>1356</ele>
        <time>2022-03-03T12:46:36.644Z</time>
      </trkpt>
      <trkpt lat="44.17325" lon="6.09601">
        <ele>1356</ele>
        <time>2022-03-03T12:46:37.644Z</time>
      </trkpt>
      <trkpt lat="44.17325" lon="6.09602">
        <ele>1356</ele>
        <time>2022-03-03T12:46:38.644Z</time>
      </trkpt>
      <trkpt lat="44.17324" lon="6.09603">
        <ele>1356</ele>
        <time>2022-03-03T12:46:39.644Z</time>
      </trkpt>
      <trkpt lat="44.17324" lon="6.09604">
        <ele>1356</ele>
        <time>2022-03-03T12:46:40.644Z</time>
      </trkpt>
      <trkpt lat="44.17323" lon="6.09605">
        <ele>1356</ele>
        <time>2022-03-03T12:46:41.644Z</time>
      </trkpt>
      <trkpt lat="44.17323" lon="6.09605">
        <ele>1356</ele>
        <time>2022-03-03T12:46:42.644Z</time>
      </trkpt>
      <trkpt lat="44.17322" lon="6.09606">
        <ele>1356</ele>
        <time>2022-03-03T12:46:43.644Z</time>
      </trkpt>
      <trkpt lat="44.17322" lon="6.09607">
        <ele>1356</ele>
        <time>2022-03-03T12:46:44.644Z</time>
      </trkpt>
      <trkpt lat="44.17321" lon="6.09608">
        <ele>1356</ele>
        <time>2022-03-03T12:46:45.644Z</time>
      </trkpt>
      <trkpt lat="44.17321" lon="6.09609">
        <ele>1356</ele>
        <time>2022-03-03T12:46:46.644Z</time>
      </trkpt>
      <trkpt lat="44.1732" lon="6.0961">
        <ele>1356</ele>
        <time>2022-03-03T12:46:47.644Z</time>
      </trkpt>
      <trkpt lat="44.17319" lon="6.0961">
        <ele>1356</ele>
        <time>2022-03-03T12:46:48.644Z</time>
      </trkpt>
      <trkpt lat="44.17318" lon="6.09611">
        <ele>1356</ele>
        <time>2022-03-03T12:46:49.644Z</time>
      </trkpt>
      <trkpt lat="44.17317" lon="6.09611">
        <ele>1356</ele>
        <time>2022-03-03T12:46:50.644Z</time>
      </trkpt>
      <trkpt lat="44.17316" lon="6.09612">
        <ele>1356</ele>
        <time>2022-03-03T12:46:51.644Z</time>
      </trkpt>
      <trkpt lat="44.17315" lon="6.09612">
        <ele>1356</ele>
        <time>2022-03-03T12:46:52.644Z</time>
      </trkpt>
      <trkpt lat="44.17314" lon="6.09613">
        <ele>1356</ele>
        <time>2022-03-03T12:46:53.644Z</time>
      </trkpt>
      <trkpt lat="44.17313" lon="6.09614">
        <ele>1356</ele>
        <time>2022-03-03T12:46:54.644Z</time>
      </trkpt>
      <trkpt lat="44.17312" lon="6.09614">
        <ele>1356</ele>
        <time>2022-03-03T12:46:55.644Z</time>
      </trkpt>
      <trkpt lat="44.17311" lon="6.09615">
        <ele>1356</ele>
        <time>2022-03-03T12:46:56.644Z</time>
      </trkpt>
      <trkpt lat="44.1731" lon="6.09615">
        <ele>1356</ele>
        <time>2022-03-03T12:46:57.644Z</time>
      </trkpt>
      <trkpt lat="44.17309" lon="6.09616">
        <ele>1356</ele>
        <time>2022-03-03T12:46:58.644Z</time>
      </trkpt>
      <trkpt lat="44.17308" lon="6.09616">
        <ele>1356</ele>
        <time>2022-03-03T12:46:59.644Z</time>
      </trkpt>
      <trkpt lat="44.17307" lon="6.09617">
        <ele>1356</ele>
        <time>2022-03-03T12:47:00.644Z</time>
      </trkpt>
      <trkpt lat="44.17306" lon="6.09617">
        <ele>1356</ele>
        <time>2022-03-03T12:47:01.644Z</time>
      </trkpt>
      <trkpt lat="44.17305" lon="6.09618">
        <ele>1356</ele>
        <time>2022-03-03T12:47:02.644Z</time>
      </trkpt>
      <trkpt lat="44.17304" lon="6.09619">
        <ele>1356</ele>
        <time>2022-03-03T12:47:03.644Z</time>
      </trkpt>
      <trkpt lat="44.17303" lon="6.09619">
        <ele>1356</ele>
        <time>2022-03-03T12:47:04.644Z</time>
      </trkpt>
      <trkpt lat="44.17302" lon="6.0962">
        <ele>1356</ele>
        <time>2022-03-03T12:47:05.644Z</time>
      </trkpt>
      <trkpt lat="44.17301" lon="6.09621">
        <ele>1356</ele>
        <time>2022-03-03T12:47:06.644Z</time>
      </trkpt>
      <trkpt lat="44.173" lon="6.09622">
        <ele>1356</ele>
        <time>2022-03-03T12:47:07.644Z</time>
      </trkpt>
      <trkpt lat="44.17299" lon="6.09622">
        <ele>1355</ele>
        <time>2022-03-03T12:47:08.644Z</time>
      </trkpt>
      <trkpt lat="44.17298" lon="6.09623">
        <ele>1356</ele>
        <time>2022-03-03T12:47:09.644Z</time>
      </trkpt>
      <trkpt lat="44.17297" lon="6.09625">
        <ele>1356</ele>
        <time>2022-03-03T12:47:10.644Z</time>
      </trkpt>
      <trkpt lat="44.17296" lon="6.09625">
        <ele>1356</ele>
        <time>2022-03-03T12:47:11.644Z</time>
      </trkpt>
      <trkpt lat="44.17296" lon="6.09626">
        <ele>1355</ele>
        <time>2022-03-03T12:47:12.644Z</time>
      </trkpt>
      <trkpt lat="44.17295" lon="6.09627">
        <ele>1355</ele>
        <time>2022-03-03T12:47:13.644Z</time>
      </trkpt>
      <trkpt lat="44.17294" lon="6.09628">
        <ele>1355</ele>
        <time>2022-03-03T12:47:14.644Z</time>
      </trkpt>
      <trkpt lat="44.17293" lon="6.09629">
        <ele>1355</ele>
        <time>2022-03-03T12:47:15.644Z</time>
      </trkpt>
      <trkpt lat="44.17292" lon="6.0963">
        <ele>1355</ele>
        <time>2022-03-03T12:47:16.644Z</time>
      </trkpt>
      <trkpt lat="44.17292" lon="6.0963">
        <ele>1355</ele>
        <time>2022-03-03T12:47:17.644Z</time>
      </trkpt>
      <trkpt lat="44.17291" lon="6.09631">
        <ele>1355</ele>
        <time>2022-03-03T12:47:18.644Z</time>
      </trkpt>
      <trkpt lat="44.1729" lon="6.09632">
        <ele>1355</ele>
        <time>2022-03-03T12:47:19.644Z</time>
      </trkpt>
      <trkpt lat="44.17289" lon="6.09633">
        <ele>1355</ele>
        <time>2022-03-03T12:47:20.644Z</time>
      </trkpt>
      <trkpt lat="44.17288" lon="6.09634">
        <ele>1355</ele>
        <time>2022-03-03T12:47:21.644Z</time>
      </trkpt>
      <trkpt lat="44.17287" lon="6.09634">
        <ele>1355</ele>
        <time>2022-03-03T12:47:22.644Z</time>
      </trkpt>
      <trkpt lat="44.17286" lon="6.09635">
        <ele>1355</ele>
        <time>2022-03-03T12:47:23.644Z</time>
      </trkpt>
      <trkpt lat="44.17285" lon="6.09636">
        <ele>1355</ele>
        <time>2022-03-03T12:47:24.644Z</time>
      </trkpt>
      <trkpt lat="44.17284" lon="6.09636">
        <ele>1355</ele>
        <time>2022-03-03T12:47:25.644Z</time>
      </trkpt>
      <trkpt lat="44.17284" lon="6.09637">
        <ele>1355</ele>
        <time>2022-03-03T12:47:26.644Z</time>
      </trkpt>
      <trkpt lat="44.17283" lon="6.09638">
        <ele>1355</ele>
        <time>2022-03-03T12:47:27.644Z</time>
      </trkpt>
      <trkpt lat="44.17282" lon="6.0964">
        <ele>1355</ele>
        <time>2022-03-03T12:47:28.644Z</time>
      </trkpt>
      <trkpt lat="44.17281" lon="6.09641">
        <ele>1355</ele>
        <time>2022-03-03T12:47:29.644Z</time>
      </trkpt>
      <trkpt lat="44.1728" lon="6.09642">
        <ele>1355</ele>
        <time>2022-03-03T12:47:30.644Z</time>
      </trkpt>
      <trkpt lat="44.1728" lon="6.09643">
        <ele>1355</ele>
        <time>2022-03-03T12:47:31.644Z</time>
      </trkpt>
      <trkpt lat="44.17279" lon="6.09644">
        <ele>1355</ele>
        <time>2022-03-03T12:47:32.644Z</time>
      </trkpt>
      <trkpt lat="44.17279" lon="6.09645">
        <ele>1355</ele>
        <time>2022-03-03T12:47:33.644Z</time>
      </trkpt>
      <trkpt lat="44.17278" lon="6.09646">
        <ele>1355</ele>
        <time>2022-03-03T12:47:34.644Z</time>
      </trkpt>
      <trkpt lat="44.17277" lon="6.09647">
        <ele>1355</ele>
        <time>2022-03-03T12:47:35.644Z</time>
      </trkpt>
      <trkpt lat="44.17277" lon="6.09648">
        <ele>1355</ele>
        <time>2022-03-03T12:47:36.644Z</time>
      </trkpt>
      <trkpt lat="44.17276" lon="6.09648">
        <ele>1355</ele>
        <time>2022-03-03T12:47:37.644Z</time>
      </trkpt>
      <trkpt lat="44.17275" lon="6.09649">
        <ele>1355</ele>
        <time>2022-03-03T12:47:38.644Z</time>
      </trkpt>
      <trkpt lat="44.17275" lon="6.0965">
        <ele>1355</ele>
        <time>2022-03-03T12:47:39.644Z</time>
      </trkpt>
      <trkpt lat="44.17274" lon="6.09651">
        <ele>1355</ele>
        <time>2022-03-03T12:47:40.644Z</time>
      </trkpt>
      <trkpt lat="44.17273" lon="6.09653">
        <ele>1355</ele>
        <time>2022-03-03T12:47:41.644Z</time>
      </trkpt>
      <trkpt lat="44.17272" lon="6.09654">
        <ele>1355</ele>
        <time>2022-03-03T12:47:42.644Z</time>
      </trkpt>
      <trkpt lat="44.17272" lon="6.09654">
        <ele>1355</ele>
        <time>2022-03-03T12:47:43.644Z</time>
      </trkpt>
      <trkpt lat="44.17271" lon="6.09655">
        <ele>1354</ele>
        <time>2022-03-03T12:47:44.644Z</time>
      </trkpt>
      <trkpt lat="44.1727" lon="6.09656">
        <ele>1354</ele>
        <time>2022-03-03T12:47:45.644Z</time>
      </trkpt>
      <trkpt lat="44.17269" lon="6.09657">
        <ele>1354</ele>
        <time>2022-03-03T12:47:46.644Z</time>
      </trkpt>
      <trkpt lat="44.17268" lon="6.09658">
        <ele>1354</ele>
        <time>2022-03-03T12:47:47.644Z</time>
      </trkpt>
      <trkpt lat="44.17267" lon="6.09659">
        <ele>1354</ele>
        <time>2022-03-03T12:47:48.644Z</time>
      </trkpt>
      <trkpt lat="44.17266" lon="6.0966">
        <ele>1354</ele>
        <time>2022-03-03T12:47:49.644Z</time>
      </trkpt>
      <trkpt lat="44.17266" lon="6.0966">
        <ele>1354</ele>
        <time>2022-03-03T12:47:50.644Z</time>
      </trkpt>
      <trkpt lat="44.17265" lon="6.09661">
        <ele>1354</ele>
        <time>2022-03-03T12:47:51.644Z</time>
      </trkpt>
      <trkpt lat="44.17264" lon="6.09662">
        <ele>1353</ele>
        <time>2022-03-03T12:47:52.644Z</time>
      </trkpt>
      <trkpt lat="44.17263" lon="6.09663">
        <ele>1353</ele>
        <time>2022-03-03T12:47:53.644Z</time>
      </trkpt>
      <trkpt lat="44.17262" lon="6.09663">
        <ele>1353</ele>
        <time>2022-03-03T12:47:54.644Z</time>
      </trkpt>
      <trkpt lat="44.17261" lon="6.09664">
        <ele>1353</ele>
        <time>2022-03-03T12:47:55.644Z</time>
      </trkpt>
      <trkpt lat="44.1726" lon="6.09664">
        <ele>1353</ele>
        <time>2022-03-03T12:47:56.644Z</time>
      </trkpt>
      <trkpt lat="44.17259" lon="6.09665">
        <ele>1353</ele>
        <time>2022-03-03T12:47:57.644Z</time>
      </trkpt>
      <trkpt lat="44.17258" lon="6.09665">
        <ele>1353</ele>
        <time>2022-03-03T12:47:58.644Z</time>
      </trkpt>
      <trkpt lat="44.17257" lon="6.09666">
        <ele>1353</ele>
        <time>2022-03-03T12:47:59.644Z</time>
      </trkpt>
      <trkpt lat="44.17256" lon="6.09666">
        <ele>1353</ele>
        <time>2022-03-03T12:48:00.644Z</time>
      </trkpt>
      <trkpt lat="44.17255" lon="6.09667">
        <ele>1352</ele>
        <time>2022-03-03T12:48:01.644Z</time>
      </trkpt>
      <trkpt lat="44.17254" lon="6.09668">
        <ele>1352</ele>
        <time>2022-03-03T12:48:02.644Z</time>
      </trkpt>
      <trkpt lat="44.17253" lon="6.09668">
        <ele>1352</ele>
        <time>2022-03-03T12:48:03.644Z</time>
      </trkpt>
      <trkpt lat="44.17252" lon="6.09669">
        <ele>1352</ele>
        <time>2022-03-03T12:48:04.644Z</time>
      </trkpt>
      <trkpt lat="44.17252" lon="6.0967">
        <ele>1352</ele>
        <time>2022-03-03T12:48:05.644Z</time>
      </trkpt>
      <trkpt lat="44.17251" lon="6.09671">
        <ele>1352</ele>
        <time>2022-03-03T12:48:06.644Z</time>
      </trkpt>
      <trkpt lat="44.1725" lon="6.09672">
        <ele>1351</ele>
        <time>2022-03-03T12:48:07.644Z</time>
      </trkpt>
      <trkpt lat="44.17249" lon="6.09672">
        <ele>1351</ele>
        <time>2022-03-03T12:48:08.644Z</time>
      </trkpt>
      <trkpt lat="44.17248" lon="6.09673">
        <ele>1351</ele>
        <time>2022-03-03T12:48:09.644Z</time>
      </trkpt>
      <trkpt lat="44.17247" lon="6.09674">
        <ele>1350</ele>
        <time>2022-03-03T12:48:10.644Z</time>
      </trkpt>
      <trkpt lat="44.17246" lon="6.09675">
        <ele>1350</ele>
        <time>2022-03-03T12:48:11.644Z</time>
      </trkpt>
      <trkpt lat="44.17245" lon="6.09675">
        <ele>1350</ele>
        <time>2022-03-03T12:48:12.644Z</time>
      </trkpt>
      <trkpt lat="44.17245" lon="6.09676">
        <ele>1350</ele>
        <time>2022-03-03T12:48:13.644Z</time>
      </trkpt>
      <trkpt lat="44.17244" lon="6.09677">
        <ele>1349</ele>
        <time>2022-03-03T12:48:14.644Z</time>
      </trkpt>
      <trkpt lat="44.17244" lon="6.09677">
        <ele>1349</ele>
        <time>2022-03-03T12:48:15.644Z</time>
      </trkpt>
      <trkpt lat="44.17243" lon="6.09678">
        <ele>1349</ele>
        <time>2022-03-03T12:48:16.644Z</time>
      </trkpt>
      <trkpt lat="44.17243" lon="6.09679">
        <ele>1348</ele>
        <time>2022-03-03T12:48:17.644Z</time>
      </trkpt>
      <trkpt lat="44.17242" lon="6.0968">
        <ele>1348</ele>
        <time>2022-03-03T12:48:18.644Z</time>
      </trkpt>
      <trkpt lat="44.17242" lon="6.09681">
        <ele>1348</ele>
        <time>2022-03-03T12:48:19.644Z</time>
      </trkpt>
      <trkpt lat="44.17241" lon="6.09682">
        <ele>1348</ele>
        <time>2022-03-03T12:48:20.644Z</time>
      </trkpt>
      <trkpt lat="44.1724" lon="6.09683">
        <ele>1348</ele>
        <time>2022-03-03T12:48:21.644Z</time>
      </trkpt>
      <trkpt lat="44.1724" lon="6.09684">
        <ele>1347</ele>
        <time>2022-03-03T12:48:22.644Z</time>
      </trkpt>
      <trkpt lat="44.17239" lon="6.09685">
        <ele>1347</ele>
        <time>2022-03-03T12:48:23.644Z</time>
      </trkpt>
      <trkpt lat="44.17238" lon="6.09686">
        <ele>1347</ele>
        <time>2022-03-03T12:48:24.644Z</time>
      </trkpt>
      <trkpt lat="44.17238" lon="6.09687">
        <ele>1347</ele>
        <time>2022-03-03T12:48:25.644Z</time>
      </trkpt>
      <trkpt lat="44.17238" lon="6.09688">
        <ele>1346</ele>
        <time>2022-03-03T12:48:26.644Z</time>
      </trkpt>
      <trkpt lat="44.17237" lon="6.09689">
        <ele>1346</ele>
        <time>2022-03-03T12:48:27.644Z</time>
      </trkpt>
      <trkpt lat="44.17236" lon="6.0969">
        <ele>1346</ele>
        <time>2022-03-03T12:48:28.644Z</time>
      </trkpt>
      <trkpt lat="44.17236" lon="6.09691">
        <ele>1346</ele>
        <time>2022-03-03T12:48:29.644Z</time>
      </trkpt>
      <trkpt lat="44.17235" lon="6.09692">
        <ele>1346</ele>
        <time>2022-03-03T12:48:30.644Z</time>
      </trkpt>
      <trkpt lat="44.17234" lon="6.09693">
        <ele>1346</ele>
        <time>2022-03-03T12:48:31.644Z</time>
      </trkpt>
      <trkpt lat="44.17234" lon="6.09694">
        <ele>1346</ele>
        <time>2022-03-03T12:48:32.644Z</time>
      </trkpt>
      <trkpt lat="44.17233" lon="6.09695">
        <ele>1345</ele>
        <time>2022-03-03T12:48:33.644Z</time>
      </trkpt>
      <trkpt lat="44.17233" lon="6.09696">
        <ele>1345</ele>
        <time>2022-03-03T12:48:34.644Z</time>
      </trkpt>
      <trkpt lat="44.17232" lon="6.09698">
        <ele>1345</ele>
        <time>2022-03-03T12:48:35.644Z</time>
      </trkpt>
      <trkpt lat="44.17232" lon="6.09699">
        <ele>1345</ele>
        <time>2022-03-03T12:48:36.644Z</time>
      </trkpt>
      <trkpt lat="44.17231" lon="6.097">
        <ele>1345</ele>
        <time>2022-03-03T12:48:37.644Z</time>
      </trkpt>
      <trkpt lat="44.1723" lon="6.09701">
        <ele>1345</ele>
        <time>2022-03-03T12:48:38.644Z</time>
      </trkpt>
      <trkpt lat="44.1723" lon="6.09702">
        <ele>1345</ele>
        <time>2022-03-03T12:48:39.644Z</time>
      </trkpt>
      <trkpt lat="44.17229" lon="6.09703">
        <ele>1344</ele>
        <time>2022-03-03T12:48:40.644Z</time>
      </trkpt>
      <trkpt lat="44.17228" lon="6.09704">
        <ele>1344</ele>
        <time>2022-03-03T12:48:41.644Z</time>
      </trkpt>
      <trkpt lat="44.17227" lon="6.09705">
        <ele>1344</ele>
        <time>2022-03-03T12:48:42.644Z</time>
      </trkpt>
      <trkpt lat="44.17226" lon="6.09705">
        <ele>1344</ele>
        <time>2022-03-03T12:48:43.644Z</time>
      </trkpt>
      <trkpt lat="44.17225" lon="6.09706">
        <ele>1344</ele>
        <time>2022-03-03T12:48:44.644Z</time>
      </trkpt>
      <trkpt lat="44.17225" lon="6.09707">
        <ele>1344</ele>
        <time>2022-03-03T12:48:45.644Z</time>
      </trkpt>
      <trkpt lat="44.17224" lon="6.09708">
        <ele>1344</ele>
        <time>2022-03-03T12:48:46.644Z</time>
      </trkpt>
      <trkpt lat="44.17223" lon="6.09709">
        <ele>1343</ele>
        <time>2022-03-03T12:48:47.644Z</time>
      </trkpt>
      <trkpt lat="44.17222" lon="6.0971">
        <ele>1343</ele>
        <time>2022-03-03T12:48:48.644Z</time>
      </trkpt>
      <trkpt lat="44.17221" lon="6.09711">
        <ele>1343</ele>
        <time>2022-03-03T12:48:49.644Z</time>
      </trkpt>
      <trkpt lat="44.17221" lon="6.09712">
        <ele>1343</ele>
        <time>2022-03-03T12:48:50.644Z</time>
      </trkpt>
      <trkpt lat="44.1722" lon="6.09713">
        <ele>1343</ele>
        <time>2022-03-03T12:48:51.644Z</time>
      </trkpt>
      <trkpt lat="44.17219" lon="6.09714">
        <ele>1343</ele>
        <time>2022-03-03T12:48:52.644Z</time>
      </trkpt>
      <trkpt lat="44.17218" lon="6.09714">
        <ele>1342</ele>
        <time>2022-03-03T12:48:53.644Z</time>
      </trkpt>
      <trkpt lat="44.17218" lon="6.09715">
        <ele>1342</ele>
        <time>2022-03-03T12:48:54.644Z</time>
      </trkpt>
      <trkpt lat="44.17217" lon="6.09716">
        <ele>1342</ele>
        <time>2022-03-03T12:48:55.644Z</time>
      </trkpt>
      <trkpt lat="44.17216" lon="6.09716">
        <ele>1342</ele>
        <time>2022-03-03T12:48:56.644Z</time>
      </trkpt>
      <trkpt lat="44.17215" lon="6.09717">
        <ele>1341</ele>
        <time>2022-03-03T12:48:57.644Z</time>
      </trkpt>
      <trkpt lat="44.17215" lon="6.09718">
        <ele>1341</ele>
        <time>2022-03-03T12:48:58.644Z</time>
      </trkpt>
      <trkpt lat="44.17214" lon="6.09719">
        <ele>1341</ele>
        <time>2022-03-03T12:48:59.644Z</time>
      </trkpt>
      <trkpt lat="44.17213" lon="6.0972">
        <ele>1341</ele>
        <time>2022-03-03T12:49:00.644Z</time>
      </trkpt>
      <trkpt lat="44.17212" lon="6.09721">
        <ele>1341</ele>
        <time>2022-03-03T12:49:01.644Z</time>
      </trkpt>
      <trkpt lat="44.17211" lon="6.09722">
        <ele>1340</ele>
        <time>2022-03-03T12:49:02.644Z</time>
      </trkpt>
      <trkpt lat="44.17211" lon="6.09723">
        <ele>1340</ele>
        <time>2022-03-03T12:49:03.644Z</time>
      </trkpt>
      <trkpt lat="44.1721" lon="6.09724">
        <ele>1340</ele>
        <time>2022-03-03T12:49:04.644Z</time>
      </trkpt>
      <trkpt lat="44.17209" lon="6.09725">
        <ele>1340</ele>
        <time>2022-03-03T12:49:05.644Z</time>
      </trkpt>
      <trkpt lat="44.17209" lon="6.09726">
        <ele>1340</ele>
        <time>2022-03-03T12:49:06.644Z</time>
      </trkpt>
      <trkpt lat="44.17208" lon="6.09727">
        <ele>1339</ele>
        <time>2022-03-03T12:49:07.644Z</time>
      </trkpt>
      <trkpt lat="44.17208" lon="6.09728">
        <ele>1339</ele>
        <time>2022-03-03T12:49:08.644Z</time>
      </trkpt>
      <trkpt lat="44.17207" lon="6.0973">
        <ele>1339</ele>
        <time>2022-03-03T12:49:09.644Z</time>
      </trkpt>
      <trkpt lat="44.17207" lon="6.09731">
        <ele>1339</ele>
        <time>2022-03-03T12:49:10.644Z</time>
      </trkpt>
      <trkpt lat="44.17206" lon="6.09732">
        <ele>1339</ele>
        <time>2022-03-03T12:49:11.644Z</time>
      </trkpt>
      <trkpt lat="44.17206" lon="6.09733">
        <ele>1338</ele>
        <time>2022-03-03T12:49:12.644Z</time>
      </trkpt>
      <trkpt lat="44.17205" lon="6.09734">
        <ele>1338</ele>
        <time>2022-03-03T12:49:13.644Z</time>
      </trkpt>
      <trkpt lat="44.17205" lon="6.09735">
        <ele>1338</ele>
        <time>2022-03-03T12:49:14.644Z</time>
      </trkpt>
      <trkpt lat="44.17204" lon="6.09736">
        <ele>1338</ele>
        <time>2022-03-03T12:49:15.644Z</time>
      </trkpt>
      <trkpt lat="44.17203" lon="6.09737">
        <ele>1338</ele>
        <time>2022-03-03T12:49:16.644Z</time>
      </trkpt>
      <trkpt lat="44.17203" lon="6.09738">
        <ele>1337</ele>
        <time>2022-03-03T12:49:17.644Z</time>
      </trkpt>
      <trkpt lat="44.17202" lon="6.09739">
        <ele>1337</ele>
        <time>2022-03-03T12:49:18.644Z</time>
      </trkpt>
      <trkpt lat="44.17201" lon="6.0974">
        <ele>1337</ele>
        <time>2022-03-03T12:49:19.644Z</time>
      </trkpt>
      <trkpt lat="44.172" lon="6.0974">
        <ele>1336</ele>
        <time>2022-03-03T12:49:20.644Z</time>
      </trkpt>
      <trkpt lat="44.17199" lon="6.09741">
        <ele>1336</ele>
        <time>2022-03-03T12:49:21.644Z</time>
      </trkpt>
      <trkpt lat="44.17198" lon="6.09742">
        <ele>1336</ele>
        <time>2022-03-03T12:49:22.644Z</time>
      </trkpt>
      <trkpt lat="44.17197" lon="6.09743">
        <ele>1336</ele>
        <time>2022-03-03T12:49:23.644Z</time>
      </trkpt>
      <trkpt lat="44.17197" lon="6.09744">
        <ele>1335</ele>
        <time>2022-03-03T12:49:24.644Z</time>
      </trkpt>
      <trkpt lat="44.17196" lon="6.09745">
        <ele>1335</ele>
        <time>2022-03-03T12:49:25.644Z</time>
      </trkpt>
      <trkpt lat="44.17195" lon="6.09745">
        <ele>1335</ele>
        <time>2022-03-03T12:49:26.644Z</time>
      </trkpt>
      <trkpt lat="44.17194" lon="6.09746">
        <ele>1335</ele>
        <time>2022-03-03T12:49:27.644Z</time>
      </trkpt>
      <trkpt lat="44.17193" lon="6.09747">
        <ele>1335</ele>
        <time>2022-03-03T12:49:28.644Z</time>
      </trkpt>
      <trkpt lat="44.17192" lon="6.09748">
        <ele>1334</ele>
        <time>2022-03-03T12:49:29.644Z</time>
      </trkpt>
      <trkpt lat="44.17191" lon="6.09748">
        <ele>1334</ele>
        <time>2022-03-03T12:49:30.644Z</time>
      </trkpt>
      <trkpt lat="44.1719" lon="6.09749">
        <ele>1334</ele>
        <time>2022-03-03T12:49:31.644Z</time>
      </trkpt>
      <trkpt lat="44.17189" lon="6.0975">
        <ele>1334</ele>
        <time>2022-03-03T12:49:32.644Z</time>
      </trkpt>
      <trkpt lat="44.17188" lon="6.09751">
        <ele>1334</ele>
        <time>2022-03-03T12:49:33.644Z</time>
      </trkpt>
      <trkpt lat="44.17187" lon="6.09751">
        <ele>1334</ele>
        <time>2022-03-03T12:49:34.644Z</time>
      </trkpt>
      <trkpt lat="44.17186" lon="6.09752">
        <ele>1334</ele>
        <time>2022-03-03T12:49:35.644Z</time>
      </trkpt>
      <trkpt lat="44.17185" lon="6.09753">
        <ele>1333</ele>
        <time>2022-03-03T12:49:36.644Z</time>
      </trkpt>
      <trkpt lat="44.17184" lon="6.09754">
        <ele>1333</ele>
        <time>2022-03-03T12:49:37.644Z</time>
      </trkpt>
      <trkpt lat="44.17183" lon="6.09755">
        <ele>1333</ele>
        <time>2022-03-03T12:49:38.644Z</time>
      </trkpt>
      <trkpt lat="44.17183" lon="6.09756">
        <ele>1333</ele>
        <time>2022-03-03T12:49:39.644Z</time>
      </trkpt>
      <trkpt lat="44.17182" lon="6.09757">
        <ele>1332</ele>
        <time>2022-03-03T12:49:40.644Z</time>
      </trkpt>
      <trkpt lat="44.17181" lon="6.09757">
        <ele>1332</ele>
        <time>2022-03-03T12:49:41.644Z</time>
      </trkpt>
      <trkpt lat="44.1718" lon="6.09758">
        <ele>1332</ele>
        <time>2022-03-03T12:49:42.644Z</time>
      </trkpt>
      <trkpt lat="44.17179" lon="6.09759">
        <ele>1332</ele>
        <time>2022-03-03T12:49:43.644Z</time>
      </trkpt>
      <trkpt lat="44.17178" lon="6.0976">
        <ele>1332</ele>
        <time>2022-03-03T12:49:44.644Z</time>
      </trkpt>
      <trkpt lat="44.17177" lon="6.09761">
        <ele>1332</ele>
        <time>2022-03-03T12:49:45.644Z</time>
      </trkpt>
      <trkpt lat="44.17176" lon="6.09762">
        <ele>1331</ele>
        <time>2022-03-03T12:49:46.644Z</time>
      </trkpt>
      <trkpt lat="44.17175" lon="6.09763">
        <ele>1331</ele>
        <time>2022-03-03T12:49:47.644Z</time>
      </trkpt>
      <trkpt lat="44.17174" lon="6.09764">
        <ele>1331</ele>
        <time>2022-03-03T12:49:48.644Z</time>
      </trkpt>
      <trkpt lat="44.17173" lon="6.09765">
        <ele>1331</ele>
        <time>2022-03-03T12:49:49.644Z</time>
      </trkpt>
      <trkpt lat="44.17172" lon="6.09766">
        <ele>1331</ele>
        <time>2022-03-03T12:49:50.644Z</time>
      </trkpt>
      <trkpt lat="44.17172" lon="6.09766">
        <ele>1331</ele>
        <time>2022-03-03T12:49:51.644Z</time>
      </trkpt>
      <trkpt lat="44.17171" lon="6.09767">
        <ele>1331</ele>
        <time>2022-03-03T12:49:52.644Z</time>
      </trkpt>
      <trkpt lat="44.1717" lon="6.09769">
        <ele>1331</ele>
        <time>2022-03-03T12:49:53.644Z</time>
      </trkpt>
      <trkpt lat="44.17169" lon="6.0977">
        <ele>1331</ele>
        <time>2022-03-03T12:49:54.644Z</time>
      </trkpt>
      <trkpt lat="44.17168" lon="6.09771">
        <ele>1331</ele>
        <time>2022-03-03T12:49:55.644Z</time>
      </trkpt>
      <trkpt lat="44.17167" lon="6.09772">
        <ele>1331</ele>
        <time>2022-03-03T12:49:56.644Z</time>
      </trkpt>
      <trkpt lat="44.17166" lon="6.09773">
        <ele>1331</ele>
        <time>2022-03-03T12:49:57.644Z</time>
      </trkpt>
      <trkpt lat="44.17165" lon="6.09774">
        <ele>1331</ele>
        <time>2022-03-03T12:49:58.644Z</time>
      </trkpt>
      <trkpt lat="44.17165" lon="6.09775">
        <ele>1331</ele>
        <time>2022-03-03T12:49:59.644Z</time>
      </trkpt>
      <trkpt lat="44.17164" lon="6.09776">
        <ele>1331</ele>
        <time>2022-03-03T12:50:00.644Z</time>
      </trkpt>
      <trkpt lat="44.17163" lon="6.09777">
        <ele>1330</ele>
        <time>2022-03-03T12:50:01.644Z</time>
      </trkpt>
      <trkpt lat="44.17162" lon="6.09778">
        <ele>1330</ele>
        <time>2022-03-03T12:50:02.644Z</time>
      </trkpt>
      <trkpt lat="44.17161" lon="6.09779">
        <ele>1330</ele>
        <time>2022-03-03T12:50:03.644Z</time>
      </trkpt>
      <trkpt lat="44.1716" lon="6.0978">
        <ele>1330</ele>
        <time>2022-03-03T12:50:04.644Z</time>
      </trkpt>
      <trkpt lat="44.17159" lon="6.09781">
        <ele>1330</ele>
        <time>2022-03-03T12:50:05.644Z</time>
      </trkpt>
      <trkpt lat="44.17158" lon="6.09782">
        <ele>1330</ele>
        <time>2022-03-03T12:50:06.644Z</time>
      </trkpt>
      <trkpt lat="44.17157" lon="6.09783">
        <ele>1330</ele>
        <time>2022-03-03T12:50:07.644Z</time>
      </trkpt>
      <trkpt lat="44.17156" lon="6.09784">
        <ele>1330</ele>
        <time>2022-03-03T12:50:08.644Z</time>
      </trkpt>
      <trkpt lat="44.17155" lon="6.09785">
        <ele>1329</ele>
        <time>2022-03-03T12:50:09.644Z</time>
      </trkpt>
      <trkpt lat="44.17154" lon="6.09786">
        <ele>1329</ele>
        <time>2022-03-03T12:50:10.644Z</time>
      </trkpt>
      <trkpt lat="44.17153" lon="6.09787">
        <ele>1329</ele>
        <time>2022-03-03T12:50:11.644Z</time>
      </trkpt>
      <trkpt lat="44.17152" lon="6.09787">
        <ele>1329</ele>
        <time>2022-03-03T12:50:12.644Z</time>
      </trkpt>
      <trkpt lat="44.17151" lon="6.09788">
        <ele>1329</ele>
        <time>2022-03-03T12:50:13.644Z</time>
      </trkpt>
      <trkpt lat="44.1715" lon="6.09789">
        <ele>1329</ele>
        <time>2022-03-03T12:50:14.644Z</time>
      </trkpt>
      <trkpt lat="44.17149" lon="6.0979">
        <ele>1329</ele>
        <time>2022-03-03T12:50:15.644Z</time>
      </trkpt>
      <trkpt lat="44.17148" lon="6.09791">
        <ele>1329</ele>
        <time>2022-03-03T12:50:16.644Z</time>
      </trkpt>
      <trkpt lat="44.17147" lon="6.09792">
        <ele>1329</ele>
        <time>2022-03-03T12:50:17.644Z</time>
      </trkpt>
      <trkpt lat="44.17146" lon="6.09793">
        <ele>1329</ele>
        <time>2022-03-03T12:50:18.644Z</time>
      </trkpt>
      <trkpt lat="44.17145" lon="6.09793">
        <ele>1329</ele>
        <time>2022-03-03T12:50:19.644Z</time>
      </trkpt>
      <trkpt lat="44.17144" lon="6.09794">
        <ele>1329</ele>
        <time>2022-03-03T12:50:20.644Z</time>
      </trkpt>
      <trkpt lat="44.17143" lon="6.09794">
        <ele>1329</ele>
        <time>2022-03-03T12:50:21.644Z</time>
      </trkpt>
      <trkpt lat="44.17142" lon="6.09795">
        <ele>1329</ele>
        <time>2022-03-03T12:50:22.644Z</time>
      </trkpt>
      <trkpt lat="44.1714" lon="6.09796">
        <ele>1329</ele>
        <time>2022-03-03T12:50:23.644Z</time>
      </trkpt>
      <trkpt lat="44.17139" lon="6.09796">
        <ele>1329</ele>
        <time>2022-03-03T12:50:24.644Z</time>
      </trkpt>
      <trkpt lat="44.17138" lon="6.09797">
        <ele>1328</ele>
        <time>2022-03-03T12:50:25.644Z</time>
      </trkpt>
      <trkpt lat="44.17138" lon="6.09798">
        <ele>1328</ele>
        <time>2022-03-03T12:50:26.644Z</time>
      </trkpt>
      <trkpt lat="44.17137" lon="6.09798">
        <ele>1328</ele>
        <time>2022-03-03T12:50:27.644Z</time>
      </trkpt>
      <trkpt lat="44.17136" lon="6.09799">
        <ele>1328</ele>
        <time>2022-03-03T12:50:28.644Z</time>
      </trkpt>
      <trkpt lat="44.17135" lon="6.098">
        <ele>1328</ele>
        <time>2022-03-03T12:50:29.644Z</time>
      </trkpt>
      <trkpt lat="44.17134" lon="6.098">
        <ele>1328</ele>
        <time>2022-03-03T12:50:30.644Z</time>
      </trkpt>
      <trkpt lat="44.17133" lon="6.09801">
        <ele>1328</ele>
        <time>2022-03-03T12:50:31.644Z</time>
      </trkpt>
      <trkpt lat="44.17132" lon="6.09802">
        <ele>1328</ele>
        <time>2022-03-03T12:50:32.644Z</time>
      </trkpt>
      <trkpt lat="44.17131" lon="6.09804">
        <ele>1328</ele>
        <time>2022-03-03T12:50:33.644Z</time>
      </trkpt>
      <trkpt lat="44.1713" lon="6.09805">
        <ele>1327</ele>
        <time>2022-03-03T12:50:34.644Z</time>
      </trkpt>
      <trkpt lat="44.17129" lon="6.09806">
        <ele>1327</ele>
        <time>2022-03-03T12:50:35.644Z</time>
      </trkpt>
      <trkpt lat="44.17128" lon="6.09806">
        <ele>1327</ele>
        <time>2022-03-03T12:50:36.644Z</time>
      </trkpt>
      <trkpt lat="44.17127" lon="6.09807">
        <ele>1327</ele>
        <time>2022-03-03T12:50:37.644Z</time>
      </trkpt>
      <trkpt lat="44.17126" lon="6.09808">
        <ele>1327</ele>
        <time>2022-03-03T12:50:38.644Z</time>
      </trkpt>
      <trkpt lat="44.17125" lon="6.09809">
        <ele>1327</ele>
        <time>2022-03-03T12:50:39.644Z</time>
      </trkpt>
      <trkpt lat="44.17124" lon="6.0981">
        <ele>1327</ele>
        <time>2022-03-03T12:50:40.644Z</time>
      </trkpt>
      <trkpt lat="44.17123" lon="6.0981">
        <ele>1327</ele>
        <time>2022-03-03T12:50:41.644Z</time>
      </trkpt>
      <trkpt lat="44.17122" lon="6.09811">
        <ele>1327</ele>
        <time>2022-03-03T12:50:42.644Z</time>
      </trkpt>
      <trkpt lat="44.17121" lon="6.09812">
        <ele>1327</ele>
        <time>2022-03-03T12:50:43.644Z</time>
      </trkpt>
      <trkpt lat="44.17121" lon="6.09813">
        <ele>1326</ele>
        <time>2022-03-03T12:50:44.644Z</time>
      </trkpt>
      <trkpt lat="44.1712" lon="6.09813">
        <ele>1326</ele>
        <time>2022-03-03T12:50:45.644Z</time>
      </trkpt>
      <trkpt lat="44.17118" lon="6.09814">
        <ele>1326</ele>
        <time>2022-03-03T12:50:46.644Z</time>
      </trkpt>
      <trkpt lat="44.17117" lon="6.09815">
        <ele>1326</ele>
        <time>2022-03-03T12:50:47.644Z</time>
      </trkpt>
      <trkpt lat="44.17116" lon="6.09815">
        <ele>1326</ele>
        <time>2022-03-03T12:50:48.644Z</time>
      </trkpt>
      <trkpt lat="44.17115" lon="6.09816">
        <ele>1326</ele>
        <time>2022-03-03T12:50:49.644Z</time>
      </trkpt>
      <trkpt lat="44.17114" lon="6.09817">
        <ele>1326</ele>
        <time>2022-03-03T12:50:50.644Z</time>
      </trkpt>
      <trkpt lat="44.17113" lon="6.09818">
        <ele>1326</ele>
        <time>2022-03-03T12:50:51.644Z</time>
      </trkpt>
      <trkpt lat="44.17111" lon="6.09818">
        <ele>1326</ele>
        <time>2022-03-03T12:50:52.644Z</time>
      </trkpt>
      <trkpt lat="44.1711" lon="6.09819">
        <ele>1326</ele>
        <time>2022-03-03T12:50:53.644Z</time>
      </trkpt>
      <trkpt lat="44.17109" lon="6.0982">
        <ele>1326</ele>
        <time>2022-03-03T12:50:54.644Z</time>
      </trkpt>
      <trkpt lat="44.17108" lon="6.09821">
        <ele>1326</ele>
        <time>2022-03-03T12:50:55.644Z</time>
      </trkpt>
      <trkpt lat="44.17107" lon="6.09822">
        <ele>1326</ele>
        <time>2022-03-03T12:50:56.644Z</time>
      </trkpt>
      <trkpt lat="44.17106" lon="6.09823">
        <ele>1326</ele>
        <time>2022-03-03T12:50:57.644Z</time>
      </trkpt>
      <trkpt lat="44.17105" lon="6.09824">
        <ele>1326</ele>
        <time>2022-03-03T12:50:58.644Z</time>
      </trkpt>
      <trkpt lat="44.17103" lon="6.09825">
        <ele>1326</ele>
        <time>2022-03-03T12:50:59.644Z</time>
      </trkpt>
      <trkpt lat="44.17102" lon="6.09826">
        <ele>1326</ele>
        <time>2022-03-03T12:51:00.644Z</time>
      </trkpt>
      <trkpt lat="44.17101" lon="6.09827">
        <ele>1326</ele>
        <time>2022-03-03T12:51:01.644Z</time>
      </trkpt>
      <trkpt lat="44.171" lon="6.09828">
        <ele>1326</ele>
        <time>2022-03-03T12:51:02.644Z</time>
      </trkpt>
      <trkpt lat="44.17099" lon="6.09829">
        <ele>1326</ele>
        <time>2022-03-03T12:51:03.644Z</time>
      </trkpt>
      <trkpt lat="44.17098" lon="6.0983">
        <ele>1326</ele>
        <time>2022-03-03T12:51:04.644Z</time>
      </trkpt>
      <trkpt lat="44.17097" lon="6.09831">
        <ele>1325</ele>
        <time>2022-03-03T12:51:05.644Z</time>
      </trkpt>
      <trkpt lat="44.17096" lon="6.09832">
        <ele>1325</ele>
        <time>2022-03-03T12:51:06.644Z</time>
      </trkpt>
      <trkpt lat="44.17095" lon="6.09833">
        <ele>1325</ele>
        <time>2022-03-03T12:51:07.644Z</time>
      </trkpt>
      <trkpt lat="44.17093" lon="6.09834">
        <ele>1325</ele>
        <time>2022-03-03T12:51:08.644Z</time>
      </trkpt>
      <trkpt lat="44.17092" lon="6.09835">
        <ele>1325</ele>
        <time>2022-03-03T12:51:09.644Z</time>
      </trkpt>
      <trkpt lat="44.17091" lon="6.09835">
        <ele>1325</ele>
        <time>2022-03-03T12:51:10.644Z</time>
      </trkpt>
      <trkpt lat="44.1709" lon="6.09836">
        <ele>1325</ele>
        <time>2022-03-03T12:51:11.644Z</time>
      </trkpt>
      <trkpt lat="44.1709" lon="6.09837">
        <ele>1325</ele>
        <time>2022-03-03T12:51:12.644Z</time>
      </trkpt>
      <trkpt lat="44.17088" lon="6.09838">
        <ele>1325</ele>
        <time>2022-03-03T12:51:13.644Z</time>
      </trkpt>
      <trkpt lat="44.17087" lon="6.09839">
        <ele>1325</ele>
        <time>2022-03-03T12:51:14.644Z</time>
      </trkpt>
      <trkpt lat="44.17087" lon="6.0984">
        <ele>1325</ele>
        <time>2022-03-03T12:51:15.644Z</time>
      </trkpt>
      <trkpt lat="44.17085" lon="6.09841">
        <ele>1325</ele>
        <time>2022-03-03T12:51:16.644Z</time>
      </trkpt>
      <trkpt lat="44.17084" lon="6.09842">
        <ele>1325</ele>
        <time>2022-03-03T12:51:17.644Z</time>
      </trkpt>
      <trkpt lat="44.17083" lon="6.09843">
        <ele>1325</ele>
        <time>2022-03-03T12:51:18.644Z</time>
      </trkpt>
      <trkpt lat="44.17082" lon="6.09844">
        <ele>1325</ele>
        <time>2022-03-03T12:51:19.644Z</time>
      </trkpt>
      <trkpt lat="44.17082" lon="6.09844">
        <ele>1325</ele>
        <time>2022-03-03T12:51:20.644Z</time>
      </trkpt>
      <trkpt lat="44.1708" lon="6.09845">
        <ele>1325</ele>
        <time>2022-03-03T12:51:21.644Z</time>
      </trkpt>
      <trkpt lat="44.17079" lon="6.09846">
        <ele>1324</ele>
        <time>2022-03-03T12:51:22.644Z</time>
      </trkpt>
      <trkpt lat="44.17079" lon="6.09847">
        <ele>1324</ele>
        <time>2022-03-03T12:51:23.644Z</time>
      </trkpt>
      <trkpt lat="44.17078" lon="6.09847">
        <ele>1324</ele>
        <time>2022-03-03T12:51:24.644Z</time>
      </trkpt>
      <trkpt lat="44.17077" lon="6.09848">
        <ele>1324</ele>
        <time>2022-03-03T12:51:25.644Z</time>
      </trkpt>
      <trkpt lat="44.17076" lon="6.09849">
        <ele>1324</ele>
        <time>2022-03-03T12:51:26.644Z</time>
      </trkpt>
      <trkpt lat="44.17075" lon="6.0985">
        <ele>1324</ele>
        <time>2022-03-03T12:51:27.644Z</time>
      </trkpt>
      <trkpt lat="44.17074" lon="6.09851">
        <ele>1324</ele>
        <time>2022-03-03T12:51:28.644Z</time>
      </trkpt>
      <trkpt lat="44.17073" lon="6.09852">
        <ele>1324</ele>
        <time>2022-03-03T12:51:29.644Z</time>
      </trkpt>
      <trkpt lat="44.17072" lon="6.09852">
        <ele>1324</ele>
        <time>2022-03-03T12:51:30.644Z</time>
      </trkpt>
      <trkpt lat="44.17071" lon="6.09853">
        <ele>1324</ele>
        <time>2022-03-03T12:51:31.644Z</time>
      </trkpt>
      <trkpt lat="44.1707" lon="6.09854">
        <ele>1324</ele>
        <time>2022-03-03T12:51:32.644Z</time>
      </trkpt>
      <trkpt lat="44.17069" lon="6.09855">
        <ele>1324</ele>
        <time>2022-03-03T12:51:33.644Z</time>
      </trkpt>
      <trkpt lat="44.17069" lon="6.09856">
        <ele>1324</ele>
        <time>2022-03-03T12:51:34.644Z</time>
      </trkpt>
      <trkpt lat="44.17068" lon="6.09857">
        <ele>1324</ele>
        <time>2022-03-03T12:51:35.644Z</time>
      </trkpt>
      <trkpt lat="44.17067" lon="6.09858">
        <ele>1324</ele>
        <time>2022-03-03T12:51:36.644Z</time>
      </trkpt>
      <trkpt lat="44.17066" lon="6.09859">
        <ele>1324</ele>
        <time>2022-03-03T12:51:37.644Z</time>
      </trkpt>
      <trkpt lat="44.17065" lon="6.09859">
        <ele>1323</ele>
        <time>2022-03-03T12:51:38.644Z</time>
      </trkpt>
      <trkpt lat="44.17064" lon="6.0986">
        <ele>1323</ele>
        <time>2022-03-03T12:51:39.644Z</time>
      </trkpt>
      <trkpt lat="44.17063" lon="6.09861">
        <ele>1323</ele>
        <time>2022-03-03T12:51:40.644Z</time>
      </trkpt>
      <trkpt lat="44.17062" lon="6.09862">
        <ele>1323</ele>
        <time>2022-03-03T12:51:41.644Z</time>
      </trkpt>
      <trkpt lat="44.17061" lon="6.09863">
        <ele>1323</ele>
        <time>2022-03-03T12:51:42.644Z</time>
      </trkpt>
      <trkpt lat="44.1706" lon="6.09863">
        <ele>1323</ele>
        <time>2022-03-03T12:51:43.644Z</time>
      </trkpt>
      <trkpt lat="44.17059" lon="6.09864">
        <ele>1323</ele>
        <time>2022-03-03T12:51:44.644Z</time>
      </trkpt>
      <trkpt lat="44.17058" lon="6.09865">
        <ele>1323</ele>
        <time>2022-03-03T12:51:45.644Z</time>
      </trkpt>
      <trkpt lat="44.17057" lon="6.09866">
        <ele>1323</ele>
        <time>2022-03-03T12:51:46.644Z</time>
      </trkpt>
      <trkpt lat="44.17056" lon="6.09867">
        <ele>1322</ele>
        <time>2022-03-03T12:51:47.644Z</time>
      </trkpt>
      <trkpt lat="44.17055" lon="6.09868">
        <ele>1322</ele>
        <time>2022-03-03T12:51:48.644Z</time>
      </trkpt>
      <trkpt lat="44.17054" lon="6.09869">
        <ele>1322</ele>
        <time>2022-03-03T12:51:49.644Z</time>
      </trkpt>
      <trkpt lat="44.17054" lon="6.09869">
        <ele>1322</ele>
        <time>2022-03-03T12:51:50.644Z</time>
      </trkpt>
      <trkpt lat="44.17052" lon="6.0987">
        <ele>1322</ele>
        <time>2022-03-03T12:51:51.644Z</time>
      </trkpt>
      <trkpt lat="44.17051" lon="6.09871">
        <ele>1322</ele>
        <time>2022-03-03T12:51:52.644Z</time>
      </trkpt>
      <trkpt lat="44.1705" lon="6.09872">
        <ele>1322</ele>
        <time>2022-03-03T12:51:53.644Z</time>
      </trkpt>
      <trkpt lat="44.17049" lon="6.09873">
        <ele>1322</ele>
        <time>2022-03-03T12:51:54.644Z</time>
      </trkpt>
      <trkpt lat="44.17048" lon="6.09874">
        <ele>1321</ele>
        <time>2022-03-03T12:51:55.644Z</time>
      </trkpt>
      <trkpt lat="44.17047" lon="6.09875">
        <ele>1321</ele>
        <time>2022-03-03T12:51:56.644Z</time>
      </trkpt>
      <trkpt lat="44.17046" lon="6.09875">
        <ele>1321</ele>
        <time>2022-03-03T12:51:57.644Z</time>
      </trkpt>
      <trkpt lat="44.17045" lon="6.09876">
        <ele>1321</ele>
        <time>2022-03-03T12:51:58.644Z</time>
      </trkpt>
      <trkpt lat="44.17044" lon="6.09877">
        <ele>1321</ele>
        <time>2022-03-03T12:51:59.644Z</time>
      </trkpt>
      <trkpt lat="44.17044" lon="6.09878">
        <ele>1320</ele>
        <time>2022-03-03T12:52:00.644Z</time>
      </trkpt>
      <trkpt lat="44.17043" lon="6.09879">
        <ele>1320</ele>
        <time>2022-03-03T12:52:01.644Z</time>
      </trkpt>
      <trkpt lat="44.17042" lon="6.09879">
        <ele>1320</ele>
        <time>2022-03-03T12:52:02.644Z</time>
      </trkpt>
      <trkpt lat="44.17041" lon="6.0988">
        <ele>1320</ele>
        <time>2022-03-03T12:52:03.644Z</time>
      </trkpt>
      <trkpt lat="44.1704" lon="6.09881">
        <ele>1319</ele>
        <time>2022-03-03T12:52:04.644Z</time>
      </trkpt>
      <trkpt lat="44.17039" lon="6.09882">
        <ele>1319</ele>
        <time>2022-03-03T12:52:05.644Z</time>
      </trkpt>
      <trkpt lat="44.17038" lon="6.09882">
        <ele>1319</ele>
        <time>2022-03-03T12:52:06.644Z</time>
      </trkpt>
      <trkpt lat="44.17037" lon="6.09883">
        <ele>1319</ele>
        <time>2022-03-03T12:52:07.644Z</time>
      </trkpt>
      <trkpt lat="44.17036" lon="6.09884">
        <ele>1319</ele>
        <time>2022-03-03T12:52:08.644Z</time>
      </trkpt>
      <trkpt lat="44.17035" lon="6.09885">
        <ele>1319</ele>
        <time>2022-03-03T12:52:09.644Z</time>
      </trkpt>
      <trkpt lat="44.17034" lon="6.09886">
        <ele>1318</ele>
        <time>2022-03-03T12:52:10.644Z</time>
      </trkpt>
      <trkpt lat="44.17033" lon="6.09887">
        <ele>1318</ele>
        <time>2022-03-03T12:52:11.644Z</time>
      </trkpt>
      <trkpt lat="44.17032" lon="6.09887">
        <ele>1318</ele>
        <time>2022-03-03T12:52:12.644Z</time>
      </trkpt>
      <trkpt lat="44.17031" lon="6.09888">
        <ele>1318</ele>
        <time>2022-03-03T12:52:13.644Z</time>
      </trkpt>
      <trkpt lat="44.1703" lon="6.09889">
        <ele>1318</ele>
        <time>2022-03-03T12:52:14.644Z</time>
      </trkpt>
      <trkpt lat="44.1703" lon="6.09889">
        <ele>1317</ele>
        <time>2022-03-03T12:52:15.644Z</time>
      </trkpt>
      <trkpt lat="44.17029" lon="6.09889">
        <ele>1317</ele>
        <time>2022-03-03T12:52:16.644Z</time>
      </trkpt>
      <trkpt lat="44.17027" lon="6.0989">
        <ele>1317</ele>
        <time>2022-03-03T12:52:17.644Z</time>
      </trkpt>
      <trkpt lat="44.17027" lon="6.0989">
        <ele>1317</ele>
        <time>2022-03-03T12:52:18.644Z</time>
      </trkpt>
      <trkpt lat="44.17026" lon="6.09891">
        <ele>1317</ele>
        <time>2022-03-03T12:52:19.644Z</time>
      </trkpt>
      <trkpt lat="44.17025" lon="6.09891">
        <ele>1316</ele>
        <time>2022-03-03T12:52:20.644Z</time>
      </trkpt>
      <trkpt lat="44.17024" lon="6.09892">
        <ele>1316</ele>
        <time>2022-03-03T12:52:21.644Z</time>
      </trkpt>
      <trkpt lat="44.17023" lon="6.09893">
        <ele>1316</ele>
        <time>2022-03-03T12:52:22.644Z</time>
      </trkpt>
      <trkpt lat="44.17022" lon="6.09893">
        <ele>1316</ele>
        <time>2022-03-03T12:52:23.644Z</time>
      </trkpt>
      <trkpt lat="44.17021" lon="6.09893">
        <ele>1315</ele>
        <time>2022-03-03T12:52:24.644Z</time>
      </trkpt>
      <trkpt lat="44.17021" lon="6.09894">
        <ele>1315</ele>
        <time>2022-03-03T12:52:25.644Z</time>
      </trkpt>
      <trkpt lat="44.1702" lon="6.09894">
        <ele>1315</ele>
        <time>2022-03-03T12:52:26.644Z</time>
      </trkpt>
      <trkpt lat="44.17019" lon="6.09895">
        <ele>1315</ele>
        <time>2022-03-03T12:52:27.644Z</time>
      </trkpt>
      <trkpt lat="44.17018" lon="6.09895">
        <ele>1315</ele>
        <time>2022-03-03T12:52:28.644Z</time>
      </trkpt>
      <trkpt lat="44.17017" lon="6.09896">
        <ele>1315</ele>
        <time>2022-03-03T12:52:29.644Z</time>
      </trkpt>
      <trkpt lat="44.17016" lon="6.09896">
        <ele>1314</ele>
        <time>2022-03-03T12:52:30.644Z</time>
      </trkpt>
      <trkpt lat="44.17015" lon="6.09896">
        <ele>1314</ele>
        <time>2022-03-03T12:52:31.644Z</time>
      </trkpt>
      <trkpt lat="44.17014" lon="6.09897">
        <ele>1314</ele>
        <time>2022-03-03T12:52:32.644Z</time>
      </trkpt>
      <trkpt lat="44.17013" lon="6.09897">
        <ele>1314</ele>
        <time>2022-03-03T12:52:33.644Z</time>
      </trkpt>
      <trkpt lat="44.17012" lon="6.09897">
        <ele>1313</ele>
        <time>2022-03-03T12:52:34.644Z</time>
      </trkpt>
      <trkpt lat="44.17011" lon="6.09897">
        <ele>1313</ele>
        <time>2022-03-03T12:52:35.644Z</time>
      </trkpt>
      <trkpt lat="44.1701" lon="6.09898">
        <ele>1313</ele>
        <time>2022-03-03T12:52:36.644Z</time>
      </trkpt>
      <trkpt lat="44.17009" lon="6.09898">
        <ele>1313</ele>
        <time>2022-03-03T12:52:37.644Z</time>
      </trkpt>
      <trkpt lat="44.17009" lon="6.09898">
        <ele>1313</ele>
        <time>2022-03-03T12:52:38.644Z</time>
      </trkpt>
      <trkpt lat="44.17008" lon="6.09899">
        <ele>1313</ele>
        <time>2022-03-03T12:52:39.644Z</time>
      </trkpt>
      <trkpt lat="44.17007" lon="6.09899">
        <ele>1312</ele>
        <time>2022-03-03T12:52:40.644Z</time>
      </trkpt>
      <trkpt lat="44.17006" lon="6.09899">
        <ele>1312</ele>
        <time>2022-03-03T12:52:41.644Z</time>
      </trkpt>
      <trkpt lat="44.17005" lon="6.099">
        <ele>1312</ele>
        <time>2022-03-03T12:52:42.644Z</time>
      </trkpt>
      <trkpt lat="44.17004" lon="6.099">
        <ele>1312</ele>
        <time>2022-03-03T12:52:43.644Z</time>
      </trkpt>
      <trkpt lat="44.17003" lon="6.099">
        <ele>1312</ele>
        <time>2022-03-03T12:52:44.644Z</time>
      </trkpt>
      <trkpt lat="44.17002" lon="6.09901">
        <ele>1311</ele>
        <time>2022-03-03T12:52:45.644Z</time>
      </trkpt>
      <trkpt lat="44.17001" lon="6.09901">
        <ele>1311</ele>
        <time>2022-03-03T12:52:46.644Z</time>
      </trkpt>
      <trkpt lat="44.17" lon="6.09902">
        <ele>1311</ele>
        <time>2022-03-03T12:52:47.644Z</time>
      </trkpt>
      <trkpt lat="44.16999" lon="6.09902">
        <ele>1311</ele>
        <time>2022-03-03T12:52:48.644Z</time>
      </trkpt>
      <trkpt lat="44.16998" lon="6.09902">
        <ele>1311</ele>
        <time>2022-03-03T12:52:49.644Z</time>
      </trkpt>
      <trkpt lat="44.16997" lon="6.09903">
        <ele>1311</ele>
        <time>2022-03-03T12:52:50.644Z</time>
      </trkpt>
      <trkpt lat="44.16996" lon="6.09903">
        <ele>1311</ele>
        <time>2022-03-03T12:52:51.644Z</time>
      </trkpt>
      <trkpt lat="44.16995" lon="6.09904">
        <ele>1310</ele>
        <time>2022-03-03T12:52:52.644Z</time>
      </trkpt>
      <trkpt lat="44.16994" lon="6.09905">
        <ele>1310</ele>
        <time>2022-03-03T12:52:53.644Z</time>
      </trkpt>
      <trkpt lat="44.16994" lon="6.09905">
        <ele>1310</ele>
        <time>2022-03-03T12:52:54.644Z</time>
      </trkpt>
      <trkpt lat="44.16993" lon="6.09906">
        <ele>1310</ele>
        <time>2022-03-03T12:52:55.644Z</time>
      </trkpt>
      <trkpt lat="44.16992" lon="6.09907">
        <ele>1309</ele>
        <time>2022-03-03T12:52:56.644Z</time>
      </trkpt>
      <trkpt lat="44.16991" lon="6.09907">
        <ele>1309</ele>
        <time>2022-03-03T12:52:57.644Z</time>
      </trkpt>
      <trkpt lat="44.1699" lon="6.09908">
        <ele>1309</ele>
        <time>2022-03-03T12:52:58.644Z</time>
      </trkpt>
      <trkpt lat="44.16989" lon="6.09908">
        <ele>1308</ele>
        <time>2022-03-03T12:52:59.644Z</time>
      </trkpt>
      <trkpt lat="44.16988" lon="6.09909">
        <ele>1308</ele>
        <time>2022-03-03T12:53:00.644Z</time>
      </trkpt>
      <trkpt lat="44.16988" lon="6.0991">
        <ele>1308</ele>
        <time>2022-03-03T12:53:01.644Z</time>
      </trkpt>
      <trkpt lat="44.16987" lon="6.0991">
        <ele>1308</ele>
        <time>2022-03-03T12:53:02.644Z</time>
      </trkpt>
      <trkpt lat="44.16986" lon="6.09911">
        <ele>1307</ele>
        <time>2022-03-03T12:53:03.644Z</time>
      </trkpt>
      <trkpt lat="44.16985" lon="6.09912">
        <ele>1307</ele>
        <time>2022-03-03T12:53:04.644Z</time>
      </trkpt>
      <trkpt lat="44.16985" lon="6.09913">
        <ele>1307</ele>
        <time>2022-03-03T12:53:05.644Z</time>
      </trkpt>
      <trkpt lat="44.16984" lon="6.09913">
        <ele>1307</ele>
        <time>2022-03-03T12:53:06.644Z</time>
      </trkpt>
      <trkpt lat="44.16983" lon="6.09914">
        <ele>1307</ele>
        <time>2022-03-03T12:53:07.644Z</time>
      </trkpt>
      <trkpt lat="44.16982" lon="6.09914">
        <ele>1306</ele>
        <time>2022-03-03T12:53:08.644Z</time>
      </trkpt>
      <trkpt lat="44.16981" lon="6.09915">
        <ele>1306</ele>
        <time>2022-03-03T12:53:09.644Z</time>
      </trkpt>
      <trkpt lat="44.1698" lon="6.09915">
        <ele>1306</ele>
        <time>2022-03-03T12:53:10.644Z</time>
      </trkpt>
      <trkpt lat="44.1698" lon="6.09916">
        <ele>1305</ele>
        <time>2022-03-03T12:53:11.644Z</time>
      </trkpt>
      <trkpt lat="44.16979" lon="6.09916">
        <ele>1305</ele>
        <time>2022-03-03T12:53:12.644Z</time>
      </trkpt>
      <trkpt lat="44.16978" lon="6.09917">
        <ele>1305</ele>
        <time>2022-03-03T12:53:13.644Z</time>
      </trkpt>
      <trkpt lat="44.16977" lon="6.09917">
        <ele>1305</ele>
        <time>2022-03-03T12:53:14.644Z</time>
      </trkpt>
      <trkpt lat="44.16977" lon="6.09918">
        <ele>1304</ele>
        <time>2022-03-03T12:53:15.644Z</time>
      </trkpt>
      <trkpt lat="44.16976" lon="6.09918">
        <ele>1304</ele>
        <time>2022-03-03T12:53:16.644Z</time>
      </trkpt>
      <trkpt lat="44.16976" lon="6.09918">
        <ele>1304</ele>
        <time>2022-03-03T12:53:17.644Z</time>
      </trkpt>
      <trkpt lat="44.16975" lon="6.09918">
        <ele>1304</ele>
        <time>2022-03-03T12:53:18.644Z</time>
      </trkpt>
      <trkpt lat="44.16974" lon="6.09918">
        <ele>1304</ele>
        <time>2022-03-03T12:53:19.644Z</time>
      </trkpt>
      <trkpt lat="44.16973" lon="6.09919">
        <ele>1303</ele>
        <time>2022-03-03T12:53:20.644Z</time>
      </trkpt>
      <trkpt lat="44.16972" lon="6.09919">
        <ele>1303</ele>
        <time>2022-03-03T12:53:21.644Z</time>
      </trkpt>
      <trkpt lat="44.16971" lon="6.0992">
        <ele>1303</ele>
        <time>2022-03-03T12:53:22.644Z</time>
      </trkpt>
      <trkpt lat="44.1697" lon="6.0992">
        <ele>1303</ele>
        <time>2022-03-03T12:53:23.644Z</time>
      </trkpt>
      <trkpt lat="44.16969" lon="6.0992">
        <ele>1302</ele>
        <time>2022-03-03T12:53:24.644Z</time>
      </trkpt>
      <trkpt lat="44.16968" lon="6.0992">
        <ele>1302</ele>
        <time>2022-03-03T12:53:25.644Z</time>
      </trkpt>
      <trkpt lat="44.16967" lon="6.09921">
        <ele>1302</ele>
        <time>2022-03-03T12:53:26.644Z</time>
      </trkpt>
      <trkpt lat="44.16966" lon="6.09921">
        <ele>1302</ele>
        <time>2022-03-03T12:53:27.644Z</time>
      </trkpt>
      <trkpt lat="44.16965" lon="6.09921">
        <ele>1301</ele>
        <time>2022-03-03T12:53:28.644Z</time>
      </trkpt>
      <trkpt lat="44.16964" lon="6.09922">
        <ele>1301</ele>
        <time>2022-03-03T12:53:29.644Z</time>
      </trkpt>
      <trkpt lat="44.16963" lon="6.09922">
        <ele>1301</ele>
        <time>2022-03-03T12:53:30.644Z</time>
      </trkpt>
      <trkpt lat="44.16962" lon="6.09923">
        <ele>1301</ele>
        <time>2022-03-03T12:53:31.644Z</time>
      </trkpt>
      <trkpt lat="44.16961" lon="6.09923">
        <ele>1300</ele>
        <time>2022-03-03T12:53:32.644Z</time>
      </trkpt>
      <trkpt lat="44.1696" lon="6.09923">
        <ele>1300</ele>
        <time>2022-03-03T12:53:33.644Z</time>
      </trkpt>
      <trkpt lat="44.16959" lon="6.09924">
        <ele>1300</ele>
        <time>2022-03-03T12:53:34.644Z</time>
      </trkpt>
      <trkpt lat="44.16958" lon="6.09925">
        <ele>1300</ele>
        <time>2022-03-03T12:53:35.644Z</time>
      </trkpt>
      <trkpt lat="44.16957" lon="6.09925">
        <ele>1300</ele>
        <time>2022-03-03T12:53:36.644Z</time>
      </trkpt>
      <trkpt lat="44.16956" lon="6.09926">
        <ele>1300</ele>
        <time>2022-03-03T12:53:37.644Z</time>
      </trkpt>
      <trkpt lat="44.16955" lon="6.09927">
        <ele>1300</ele>
        <time>2022-03-03T12:53:38.644Z</time>
      </trkpt>
      <trkpt lat="44.16954" lon="6.09927">
        <ele>1299</ele>
        <time>2022-03-03T12:53:39.644Z</time>
      </trkpt>
      <trkpt lat="44.16953" lon="6.09928">
        <ele>1299</ele>
        <time>2022-03-03T12:53:40.644Z</time>
      </trkpt>
      <trkpt lat="44.16952" lon="6.09929">
        <ele>1299</ele>
        <time>2022-03-03T12:53:41.644Z</time>
      </trkpt>
      <trkpt lat="44.16952" lon="6.0993">
        <ele>1298</ele>
        <time>2022-03-03T12:53:42.644Z</time>
      </trkpt>
      <trkpt lat="44.16951" lon="6.09931">
        <ele>1298</ele>
        <time>2022-03-03T12:53:43.644Z</time>
      </trkpt>
      <trkpt lat="44.1695" lon="6.09932">
        <ele>1298</ele>
        <time>2022-03-03T12:53:44.644Z</time>
      </trkpt>
      <trkpt lat="44.16949" lon="6.09933">
        <ele>1298</ele>
        <time>2022-03-03T12:53:45.644Z</time>
      </trkpt>
      <trkpt lat="44.16948" lon="6.09933">
        <ele>1297</ele>
        <time>2022-03-03T12:53:46.644Z</time>
      </trkpt>
      <trkpt lat="44.16947" lon="6.09934">
        <ele>1297</ele>
        <time>2022-03-03T12:53:47.644Z</time>
      </trkpt>
      <trkpt lat="44.16946" lon="6.09935">
        <ele>1297</ele>
        <time>2022-03-03T12:53:48.644Z</time>
      </trkpt>
      <trkpt lat="44.16946" lon="6.09936">
        <ele>1297</ele>
        <time>2022-03-03T12:53:49.644Z</time>
      </trkpt>
      <trkpt lat="44.16944" lon="6.09936">
        <ele>1297</ele>
        <time>2022-03-03T12:53:50.644Z</time>
      </trkpt>
      <trkpt lat="44.16944" lon="6.09937">
        <ele>1297</ele>
        <time>2022-03-03T12:53:51.644Z</time>
      </trkpt>
      <trkpt lat="44.16943" lon="6.09937">
        <ele>1296</ele>
        <time>2022-03-03T12:53:52.644Z</time>
      </trkpt>
      <trkpt lat="44.16942" lon="6.09938">
        <ele>1296</ele>
        <time>2022-03-03T12:53:53.644Z</time>
      </trkpt>
      <trkpt lat="44.16941" lon="6.09938">
        <ele>1296</ele>
        <time>2022-03-03T12:53:54.644Z</time>
      </trkpt>
      <trkpt lat="44.1694" lon="6.09938">
        <ele>1296</ele>
        <time>2022-03-03T12:53:55.644Z</time>
      </trkpt>
      <trkpt lat="44.16939" lon="6.09938">
        <ele>1296</ele>
        <time>2022-03-03T12:53:56.644Z</time>
      </trkpt>
      <trkpt lat="44.16938" lon="6.09939">
        <ele>1295</ele>
        <time>2022-03-03T12:53:57.644Z</time>
      </trkpt>
      <trkpt lat="44.16937" lon="6.09939">
        <ele>1295</ele>
        <time>2022-03-03T12:53:58.644Z</time>
      </trkpt>
      <trkpt lat="44.16936" lon="6.09939">
        <ele>1295</ele>
        <time>2022-03-03T12:53:59.644Z</time>
      </trkpt>
      <trkpt lat="44.16935" lon="6.0994">
        <ele>1295</ele>
        <time>2022-03-03T12:54:00.644Z</time>
      </trkpt>
      <trkpt lat="44.16934" lon="6.0994">
        <ele>1295</ele>
        <time>2022-03-03T12:54:01.644Z</time>
      </trkpt>
      <trkpt lat="44.16933" lon="6.09941">
        <ele>1295</ele>
        <time>2022-03-03T12:54:02.644Z</time>
      </trkpt>
      <trkpt lat="44.16932" lon="6.09941">
        <ele>1294</ele>
        <time>2022-03-03T12:54:03.644Z</time>
      </trkpt>
      <trkpt lat="44.16931" lon="6.09942">
        <ele>1294</ele>
        <time>2022-03-03T12:54:04.644Z</time>
      </trkpt>
      <trkpt lat="44.1693" lon="6.09942">
        <ele>1294</ele>
        <time>2022-03-03T12:54:05.644Z</time>
      </trkpt>
      <trkpt lat="44.16929" lon="6.09943">
        <ele>1294</ele>
        <time>2022-03-03T12:54:06.644Z</time>
      </trkpt>
      <trkpt lat="44.16928" lon="6.09943">
        <ele>1294</ele>
        <time>2022-03-03T12:54:07.644Z</time>
      </trkpt>
      <trkpt lat="44.16927" lon="6.09944">
        <ele>1294</ele>
        <time>2022-03-03T12:54:08.644Z</time>
      </trkpt>
      <trkpt lat="44.16926" lon="6.09944">
        <ele>1293</ele>
        <time>2022-03-03T12:54:09.644Z</time>
      </trkpt>
      <trkpt lat="44.16925" lon="6.09945">
        <ele>1293</ele>
        <time>2022-03-03T12:54:10.644Z</time>
      </trkpt>
      <trkpt lat="44.16924" lon="6.09946">
        <ele>1293</ele>
        <time>2022-03-03T12:54:11.644Z</time>
      </trkpt>
      <trkpt lat="44.16923" lon="6.09946">
        <ele>1293</ele>
        <time>2022-03-03T12:54:12.644Z</time>
      </trkpt>
      <trkpt lat="44.16922" lon="6.09947">
        <ele>1293</ele>
        <time>2022-03-03T12:54:13.644Z</time>
      </trkpt>
      <trkpt lat="44.16921" lon="6.09947">
        <ele>1292</ele>
        <time>2022-03-03T12:54:14.644Z</time>
      </trkpt>
      <trkpt lat="44.1692" lon="6.09948">
        <ele>1292</ele>
        <time>2022-03-03T12:54:15.644Z</time>
      </trkpt>
      <trkpt lat="44.16919" lon="6.09949">
        <ele>1292</ele>
        <time>2022-03-03T12:54:16.644Z</time>
      </trkpt>
      <trkpt lat="44.16918" lon="6.09949">
        <ele>1292</ele>
        <time>2022-03-03T12:54:17.644Z</time>
      </trkpt>
      <trkpt lat="44.16917" lon="6.0995">
        <ele>1291</ele>
        <time>2022-03-03T12:54:18.644Z</time>
      </trkpt>
      <trkpt lat="44.16917" lon="6.09951">
        <ele>1291</ele>
        <time>2022-03-03T12:54:19.644Z</time>
      </trkpt>
      <trkpt lat="44.16916" lon="6.09951">
        <ele>1291</ele>
        <time>2022-03-03T12:54:20.644Z</time>
      </trkpt>
      <trkpt lat="44.16915" lon="6.09952">
        <ele>1291</ele>
        <time>2022-03-03T12:54:21.644Z</time>
      </trkpt>
      <trkpt lat="44.16914" lon="6.09953">
        <ele>1290</ele>
        <time>2022-03-03T12:54:22.644Z</time>
      </trkpt>
      <trkpt lat="44.16913" lon="6.09953">
        <ele>1290</ele>
        <time>2022-03-03T12:54:23.644Z</time>
      </trkpt>
      <trkpt lat="44.16912" lon="6.09954">
        <ele>1290</ele>
        <time>2022-03-03T12:54:24.644Z</time>
      </trkpt>
      <trkpt lat="44.16911" lon="6.09955">
        <ele>1290</ele>
        <time>2022-03-03T12:54:25.644Z</time>
      </trkpt>
      <trkpt lat="44.1691" lon="6.09955">
        <ele>1290</ele>
        <time>2022-03-03T12:54:26.644Z</time>
      </trkpt>
      <trkpt lat="44.16909" lon="6.09956">
        <ele>1289</ele>
        <time>2022-03-03T12:54:27.644Z</time>
      </trkpt>
      <trkpt lat="44.16908" lon="6.09956">
        <ele>1289</ele>
        <time>2022-03-03T12:54:28.644Z</time>
      </trkpt>
      <trkpt lat="44.16907" lon="6.09956">
        <ele>1289</ele>
        <time>2022-03-03T12:54:29.644Z</time>
      </trkpt>
      <trkpt lat="44.16906" lon="6.09957">
        <ele>1288</ele>
        <time>2022-03-03T12:54:30.644Z</time>
      </trkpt>
      <trkpt lat="44.16905" lon="6.09957">
        <ele>1288</ele>
        <time>2022-03-03T12:54:31.644Z</time>
      </trkpt>
      <trkpt lat="44.16905" lon="6.09957">
        <ele>1288</ele>
        <time>2022-03-03T12:54:32.644Z</time>
      </trkpt>
      <trkpt lat="44.16904" lon="6.09958">
        <ele>1287</ele>
        <time>2022-03-03T12:54:33.644Z</time>
      </trkpt>
      <trkpt lat="44.16903" lon="6.09959">
        <ele>1287</ele>
        <time>2022-03-03T12:54:34.644Z</time>
      </trkpt>
      <trkpt lat="44.16902" lon="6.09959">
        <ele>1287</ele>
        <time>2022-03-03T12:54:35.644Z</time>
      </trkpt>
      <trkpt lat="44.16901" lon="6.0996">
        <ele>1287</ele>
        <time>2022-03-03T12:54:36.644Z</time>
      </trkpt>
      <trkpt lat="44.169" lon="6.09961">
        <ele>1286</ele>
        <time>2022-03-03T12:54:37.644Z</time>
      </trkpt>
      <trkpt lat="44.169" lon="6.09961">
        <ele>1286</ele>
        <time>2022-03-03T12:54:38.644Z</time>
      </trkpt>
      <trkpt lat="44.16899" lon="6.09962">
        <ele>1286</ele>
        <time>2022-03-03T12:54:39.644Z</time>
      </trkpt>
      <trkpt lat="44.16898" lon="6.09963">
        <ele>1286</ele>
        <time>2022-03-03T12:54:40.644Z</time>
      </trkpt>
      <trkpt lat="44.16897" lon="6.09964">
        <ele>1285</ele>
        <time>2022-03-03T12:54:41.644Z</time>
      </trkpt>
      <trkpt lat="44.16897" lon="6.09965">
        <ele>1285</ele>
        <time>2022-03-03T12:54:42.644Z</time>
      </trkpt>
      <trkpt lat="44.16896" lon="6.09966">
        <ele>1285</ele>
        <time>2022-03-03T12:54:43.644Z</time>
      </trkpt>
      <trkpt lat="44.16895" lon="6.09967">
        <ele>1285</ele>
        <time>2022-03-03T12:54:44.644Z</time>
      </trkpt>
      <trkpt lat="44.16895" lon="6.09968">
        <ele>1285</ele>
        <time>2022-03-03T12:54:45.644Z</time>
      </trkpt>
      <trkpt lat="44.16894" lon="6.09969">
        <ele>1284</ele>
        <time>2022-03-03T12:54:46.644Z</time>
      </trkpt>
      <trkpt lat="44.16893" lon="6.0997">
        <ele>1284</ele>
        <time>2022-03-03T12:54:47.644Z</time>
      </trkpt>
      <trkpt lat="44.16892" lon="6.09971">
        <ele>1284</ele>
        <time>2022-03-03T12:54:48.644Z</time>
      </trkpt>
      <trkpt lat="44.16892" lon="6.09972">
        <ele>1283</ele>
        <time>2022-03-03T12:54:49.644Z</time>
      </trkpt>
      <trkpt lat="44.16891" lon="6.09973">
        <ele>1283</ele>
        <time>2022-03-03T12:54:50.644Z</time>
      </trkpt>
      <trkpt lat="44.1689" lon="6.09974">
        <ele>1283</ele>
        <time>2022-03-03T12:54:51.644Z</time>
      </trkpt>
      <trkpt lat="44.1689" lon="6.09975">
        <ele>1283</ele>
        <time>2022-03-03T12:54:52.644Z</time>
      </trkpt>
      <trkpt lat="44.16889" lon="6.09976">
        <ele>1283</ele>
        <time>2022-03-03T12:54:53.644Z</time>
      </trkpt>
      <trkpt lat="44.16888" lon="6.09976">
        <ele>1283</ele>
        <time>2022-03-03T12:54:54.644Z</time>
      </trkpt>
      <trkpt lat="44.16887" lon="6.09978">
        <ele>1282</ele>
        <time>2022-03-03T12:54:55.644Z</time>
      </trkpt>
      <trkpt lat="44.16886" lon="6.09979">
        <ele>1282</ele>
        <time>2022-03-03T12:54:56.644Z</time>
      </trkpt>
      <trkpt lat="44.16886" lon="6.0998">
        <ele>1282</ele>
        <time>2022-03-03T12:54:57.644Z</time>
      </trkpt>
      <trkpt lat="44.16885" lon="6.09981">
        <ele>1282</ele>
        <time>2022-03-03T12:54:58.644Z</time>
      </trkpt>
      <trkpt lat="44.16884" lon="6.09982">
        <ele>1282</ele>
        <time>2022-03-03T12:54:59.644Z</time>
      </trkpt>
      <trkpt lat="44.16883" lon="6.09983">
        <ele>1282</ele>
        <time>2022-03-03T12:55:00.644Z</time>
      </trkpt>
      <trkpt lat="44.16882" lon="6.09984">
        <ele>1281</ele>
        <time>2022-03-03T12:55:01.644Z</time>
      </trkpt>
      <trkpt lat="44.16881" lon="6.09984">
        <ele>1281</ele>
        <time>2022-03-03T12:55:02.644Z</time>
      </trkpt>
      <trkpt lat="44.16881" lon="6.09985">
        <ele>1281</ele>
        <time>2022-03-03T12:55:03.644Z</time>
      </trkpt>
      <trkpt lat="44.1688" lon="6.09986">
        <ele>1281</ele>
        <time>2022-03-03T12:55:04.644Z</time>
      </trkpt>
      <trkpt lat="44.16879" lon="6.09987">
        <ele>1281</ele>
        <time>2022-03-03T12:55:05.644Z</time>
      </trkpt>
      <trkpt lat="44.16878" lon="6.09988">
        <ele>1281</ele>
        <time>2022-03-03T12:55:06.644Z</time>
      </trkpt>
      <trkpt lat="44.16878" lon="6.09989">
        <ele>1280</ele>
        <time>2022-03-03T12:55:07.644Z</time>
      </trkpt>
      <trkpt lat="44.16877" lon="6.0999">
        <ele>1280</ele>
        <time>2022-03-03T12:55:08.644Z</time>
      </trkpt>
      <trkpt lat="44.16876" lon="6.09991">
        <ele>1280</ele>
        <time>2022-03-03T12:55:09.644Z</time>
      </trkpt>
      <trkpt lat="44.16875" lon="6.09992">
        <ele>1279</ele>
        <time>2022-03-03T12:55:10.644Z</time>
      </trkpt>
      <trkpt lat="44.16875" lon="6.09993">
        <ele>1279</ele>
        <time>2022-03-03T12:55:11.644Z</time>
      </trkpt>
      <trkpt lat="44.16874" lon="6.09994">
        <ele>1279</ele>
        <time>2022-03-03T12:55:12.644Z</time>
      </trkpt>
      <trkpt lat="44.16873" lon="6.09995">
        <ele>1279</ele>
        <time>2022-03-03T12:55:13.644Z</time>
      </trkpt>
      <trkpt lat="44.16872" lon="6.09996">
        <ele>1279</ele>
        <time>2022-03-03T12:55:14.644Z</time>
      </trkpt>
      <trkpt lat="44.16872" lon="6.09997">
        <ele>1278</ele>
        <time>2022-03-03T12:55:15.644Z</time>
      </trkpt>
      <trkpt lat="44.16871" lon="6.09998">
        <ele>1278</ele>
        <time>2022-03-03T12:55:16.644Z</time>
      </trkpt>
      <trkpt lat="44.1687" lon="6.09999">
        <ele>1278</ele>
        <time>2022-03-03T12:55:17.644Z</time>
      </trkpt>
      <trkpt lat="44.1687" lon="6.10001">
        <ele>1278</ele>
        <time>2022-03-03T12:55:18.644Z</time>
      </trkpt>
      <trkpt lat="44.16869" lon="6.10002">
        <ele>1277</ele>
        <time>2022-03-03T12:55:19.644Z</time>
      </trkpt>
      <trkpt lat="44.16868" lon="6.10003">
        <ele>1277</ele>
        <time>2022-03-03T12:55:20.644Z</time>
      </trkpt>
      <trkpt lat="44.16868" lon="6.10004">
        <ele>1277</ele>
        <time>2022-03-03T12:55:21.644Z</time>
      </trkpt>
      <trkpt lat="44.16867" lon="6.10005">
        <ele>1277</ele>
        <time>2022-03-03T12:55:22.644Z</time>
      </trkpt>
      <trkpt lat="44.16866" lon="6.10006">
        <ele>1276</ele>
        <time>2022-03-03T12:55:23.644Z</time>
      </trkpt>
      <trkpt lat="44.16866" lon="6.10007">
        <ele>1276</ele>
        <time>2022-03-03T12:55:24.644Z</time>
      </trkpt>
      <trkpt lat="44.16865" lon="6.10008">
        <ele>1276</ele>
        <time>2022-03-03T12:55:25.644Z</time>
      </trkpt>
      <trkpt lat="44.16864" lon="6.10009">
        <ele>1276</ele>
        <time>2022-03-03T12:55:26.644Z</time>
      </trkpt>
      <trkpt lat="44.16863" lon="6.1001">
        <ele>1275</ele>
        <time>2022-03-03T12:55:27.644Z</time>
      </trkpt>
      <trkpt lat="44.16863" lon="6.10012">
        <ele>1275</ele>
        <time>2022-03-03T12:55:28.644Z</time>
      </trkpt>
      <trkpt lat="44.16862" lon="6.10013">
        <ele>1275</ele>
        <time>2022-03-03T12:55:29.644Z</time>
      </trkpt>
      <trkpt lat="44.16861" lon="6.10014">
        <ele>1275</ele>
        <time>2022-03-03T12:55:30.644Z</time>
      </trkpt>
      <trkpt lat="44.1686" lon="6.10015">
        <ele>1274</ele>
        <time>2022-03-03T12:55:31.644Z</time>
      </trkpt>
      <trkpt lat="44.16859" lon="6.10016">
        <ele>1274</ele>
        <time>2022-03-03T12:55:32.644Z</time>
      </trkpt>
      <trkpt lat="44.16859" lon="6.10016">
        <ele>1274</ele>
        <time>2022-03-03T12:55:33.644Z</time>
      </trkpt>
      <trkpt lat="44.16858" lon="6.10017">
        <ele>1274</ele>
        <time>2022-03-03T12:55:34.644Z</time>
      </trkpt>
      <trkpt lat="44.16857" lon="6.10018">
        <ele>1273</ele>
        <time>2022-03-03T12:55:35.644Z</time>
      </trkpt>
      <trkpt lat="44.16856" lon="6.10019">
        <ele>1273</ele>
        <time>2022-03-03T12:55:36.644Z</time>
      </trkpt>
      <trkpt lat="44.16855" lon="6.1002">
        <ele>1273</ele>
        <time>2022-03-03T12:55:37.644Z</time>
      </trkpt>
      <trkpt lat="44.16854" lon="6.1002">
        <ele>1272</ele>
        <time>2022-03-03T12:55:38.644Z</time>
      </trkpt>
      <trkpt lat="44.16853" lon="6.10021">
        <ele>1272</ele>
        <time>2022-03-03T12:55:39.644Z</time>
      </trkpt>
      <trkpt lat="44.16853" lon="6.10022">
        <ele>1272</ele>
        <time>2022-03-03T12:55:40.644Z</time>
      </trkpt>
      <trkpt lat="44.16852" lon="6.10022">
        <ele>1272</ele>
        <time>2022-03-03T12:55:41.644Z</time>
      </trkpt>
      <trkpt lat="44.16851" lon="6.10023">
        <ele>1271</ele>
        <time>2022-03-03T12:55:42.644Z</time>
      </trkpt>
      <trkpt lat="44.1685" lon="6.10024">
        <ele>1271</ele>
        <time>2022-03-03T12:55:43.644Z</time>
      </trkpt>
      <trkpt lat="44.16849" lon="6.10024">
        <ele>1271</ele>
        <time>2022-03-03T12:55:44.644Z</time>
      </trkpt>
      <trkpt lat="44.16848" lon="6.10025">
        <ele>1271</ele>
        <time>2022-03-03T12:55:45.644Z</time>
      </trkpt>
      <trkpt lat="44.16847" lon="6.10025">
        <ele>1270</ele>
        <time>2022-03-03T12:55:46.644Z</time>
      </trkpt>
      <trkpt lat="44.16846" lon="6.10026">
        <ele>1270</ele>
        <time>2022-03-03T12:55:47.644Z</time>
      </trkpt>
      <trkpt lat="44.16845" lon="6.10026">
        <ele>1270</ele>
        <time>2022-03-03T12:55:48.644Z</time>
      </trkpt>
      <trkpt lat="44.16844" lon="6.10026">
        <ele>1270</ele>
        <time>2022-03-03T12:55:49.644Z</time>
      </trkpt>
      <trkpt lat="44.16843" lon="6.10027">
        <ele>1269</ele>
        <time>2022-03-03T12:55:50.644Z</time>
      </trkpt>
      <trkpt lat="44.16842" lon="6.10027">
        <ele>1269</ele>
        <time>2022-03-03T12:55:51.644Z</time>
      </trkpt>
      <trkpt lat="44.16841" lon="6.10027">
        <ele>1269</ele>
        <time>2022-03-03T12:55:52.644Z</time>
      </trkpt>
      <trkpt lat="44.1684" lon="6.10028">
        <ele>1269</ele>
        <time>2022-03-03T12:55:53.644Z</time>
      </trkpt>
      <trkpt lat="44.16839" lon="6.10029">
        <ele>1268</ele>
        <time>2022-03-03T12:55:54.644Z</time>
      </trkpt>
      <trkpt lat="44.16839" lon="6.10029">
        <ele>1268</ele>
        <time>2022-03-03T12:55:55.644Z</time>
      </trkpt>
      <trkpt lat="44.16838" lon="6.1003">
        <ele>1268</ele>
        <time>2022-03-03T12:55:56.644Z</time>
      </trkpt>
      <trkpt lat="44.16837" lon="6.10031">
        <ele>1268</ele>
        <time>2022-03-03T12:55:57.644Z</time>
      </trkpt>
      <trkpt lat="44.16836" lon="6.10031">
        <ele>1267</ele>
        <time>2022-03-03T12:55:58.644Z</time>
      </trkpt>
      <trkpt lat="44.16835" lon="6.10032">
        <ele>1267</ele>
        <time>2022-03-03T12:55:59.644Z</time>
      </trkpt>
      <trkpt lat="44.16835" lon="6.10033">
        <ele>1267</ele>
        <time>2022-03-03T12:56:00.644Z</time>
      </trkpt>
      <trkpt lat="44.16834" lon="6.10033">
        <ele>1267</ele>
        <time>2022-03-03T12:56:01.644Z</time>
      </trkpt>
      <trkpt lat="44.16834" lon="6.10035">
        <ele>1267</ele>
        <time>2022-03-03T12:56:02.644Z</time>
      </trkpt>
      <trkpt lat="44.16833" lon="6.10036">
        <ele>1267</ele>
        <time>2022-03-03T12:56:03.644Z</time>
      </trkpt>
      <trkpt lat="44.16833" lon="6.10037">
        <ele>1266</ele>
        <time>2022-03-03T12:56:04.644Z</time>
      </trkpt>
      <trkpt lat="44.16832" lon="6.10038">
        <ele>1266</ele>
        <time>2022-03-03T12:56:05.644Z</time>
      </trkpt>
      <trkpt lat="44.16832" lon="6.1004">
        <ele>1266</ele>
        <time>2022-03-03T12:56:06.644Z</time>
      </trkpt>
      <trkpt lat="44.16831" lon="6.10041">
        <ele>1266</ele>
        <time>2022-03-03T12:56:07.644Z</time>
      </trkpt>
      <trkpt lat="44.16831" lon="6.10042">
        <ele>1265</ele>
        <time>2022-03-03T12:56:08.644Z</time>
      </trkpt>
      <trkpt lat="44.16831" lon="6.10043">
        <ele>1265</ele>
        <time>2022-03-03T12:56:09.644Z</time>
      </trkpt>
      <trkpt lat="44.16831" lon="6.10044">
        <ele>1265</ele>
        <time>2022-03-03T12:56:10.644Z</time>
      </trkpt>
      <trkpt lat="44.1683" lon="6.10046">
        <ele>1265</ele>
        <time>2022-03-03T12:56:11.644Z</time>
      </trkpt>
      <trkpt lat="44.1683" lon="6.10047">
        <ele>1265</ele>
        <time>2022-03-03T12:56:12.644Z</time>
      </trkpt>
      <trkpt lat="44.16829" lon="6.10048">
        <ele>1265</ele>
        <time>2022-03-03T12:56:13.644Z</time>
      </trkpt>
      <trkpt lat="44.16829" lon="6.10049">
        <ele>1265</ele>
        <time>2022-03-03T12:56:14.644Z</time>
      </trkpt>
      <trkpt lat="44.16828" lon="6.1005">
        <ele>1265</ele>
        <time>2022-03-03T12:56:15.644Z</time>
      </trkpt>
      <trkpt lat="44.16827" lon="6.1005">
        <ele>1264</ele>
        <time>2022-03-03T12:56:16.644Z</time>
      </trkpt>
      <trkpt lat="44.16826" lon="6.1005">
        <ele>1264</ele>
        <time>2022-03-03T12:56:17.644Z</time>
      </trkpt>
      <trkpt lat="44.16826" lon="6.1005">
        <ele>1264</ele>
        <time>2022-03-03T12:56:18.644Z</time>
      </trkpt>
      <trkpt lat="44.16825" lon="6.1005">
        <ele>1264</ele>
        <time>2022-03-03T12:56:19.644Z</time>
      </trkpt>
      <trkpt lat="44.16825" lon="6.1005">
        <ele>1264</ele>
        <time>2022-03-03T12:56:20.644Z</time>
      </trkpt>
      <trkpt lat="44.16825" lon="6.1005">
        <ele>1264</ele>
        <time>2022-03-03T12:56:21.644Z</time>
      </trkpt>
      <trkpt lat="44.16825" lon="6.1005">
        <ele>1264</ele>
        <time>2022-03-03T12:56:22.644Z</time>
      </trkpt>
      <trkpt lat="44.16825" lon="6.1005">
        <ele>1264</ele>
        <time>2022-03-03T12:56:23.644Z</time>
      </trkpt>
      <trkpt lat="44.16825" lon="6.1005">
        <ele>1264</ele>
        <time>2022-03-03T12:56:24.644Z</time>
      </trkpt>
      <trkpt lat="44.16825" lon="6.1005">
        <ele>1264</ele>
        <time>2022-03-03T12:56:25.644Z</time>
      </trkpt>
      <trkpt lat="44.16825" lon="6.1005">
        <ele>1263</ele>
        <time>2022-03-03T12:56:26.644Z</time>
      </trkpt>
      <trkpt lat="44.16825" lon="6.1005">
        <ele>1263</ele>
        <time>2022-03-03T12:56:27.644Z</time>
      </trkpt>
      <trkpt lat="44.16825" lon="6.1005">
        <ele>1263</ele>
        <time>2022-03-03T12:56:28.644Z</time>
      </trkpt>
      <trkpt lat="44.16825" lon="6.1005">
        <ele>1263</ele>
        <time>2022-03-03T12:56:29.644Z</time>
      </trkpt>
      <trkpt lat="44.16824" lon="6.1005">
        <ele>1263</ele>
        <time>2022-03-03T12:56:30.644Z</time>
      </trkpt>
      <trkpt lat="44.16824" lon="6.1005">
        <ele>1263</ele>
        <time>2022-03-03T12:56:31.644Z</time>
      </trkpt>
      <trkpt lat="44.16824" lon="6.1005">
        <ele>1263</ele>
        <time>2022-03-03T12:56:32.644Z</time>
      </trkpt>
      <trkpt lat="44.16824" lon="6.1005">
        <ele>1263</ele>
        <time>2022-03-03T12:56:33.644Z</time>
      </trkpt>
      <trkpt lat="44.16825" lon="6.1005">
        <ele>1263</ele>
        <time>2022-03-03T12:56:34.644Z</time>
      </trkpt>
      <trkpt lat="44.16824" lon="6.1005">
        <ele>1263</ele>
        <time>2022-03-03T12:56:35.644Z</time>
      </trkpt>
      <trkpt lat="44.16824" lon="6.1005">
        <ele>1263</ele>
        <time>2022-03-03T12:56:36.644Z</time>
      </trkpt>
      <trkpt lat="44.16824" lon="6.1005">
        <ele>1263</ele>
        <time>2022-03-03T12:56:37.644Z</time>
      </trkpt>
      <trkpt lat="44.16824" lon="6.1005">
        <ele>1263</ele>
        <time>2022-03-03T12:56:38.644Z</time>
      </trkpt>
      <trkpt lat="44.16824" lon="6.1005">
        <ele>1263</ele>
        <time>2022-03-03T12:56:39.644Z</time>
      </trkpt>
      <trkpt lat="44.16824" lon="6.1005">
        <ele>1263</ele>
        <time>2022-03-03T12:56:40.644Z</time>
      </trkpt>
      <trkpt lat="44.16824" lon="6.1005">
        <ele>1263</ele>
        <time>2022-03-03T12:56:41.644Z</time>
      </trkpt>
      <trkpt lat="44.16824" lon="6.1005">
        <ele>1263</ele>
        <time>2022-03-03T12:56:42.644Z</time>
      </trkpt>
      <trkpt lat="44.16824" lon="6.1005">
        <ele>1263</ele>
        <time>2022-03-03T12:56:43.644Z</time>
      </trkpt>
      <trkpt lat="44.16824" lon="6.1005">
        <ele>1263</ele>
        <time>2022-03-03T12:56:44.644Z</time>
      </trkpt>
      <trkpt lat="44.16824" lon="6.1005">
        <ele>1263</ele>
        <time>2022-03-03T12:56:45.644Z</time>
      </trkpt>
      <trkpt lat="44.16824" lon="6.1005">
        <ele>1263</ele>
        <time>2022-03-03T12:56:46.644Z</time>
      </trkpt>
      <trkpt lat="44.16824" lon="6.1005">
        <ele>1263</ele>
        <time>2022-03-03T12:56:47.644Z</time>
      </trkpt>
      <trkpt lat="44.16824" lon="6.1005">
        <ele>1263</ele>
        <time>2022-03-03T12:56:48.644Z</time>
      </trkpt>
      <trkpt lat="44.16824" lon="6.1005">
        <ele>1263</ele>
        <time>2022-03-03T12:56:49.644Z</time>
      </trkpt>
      <trkpt lat="44.16824" lon="6.1005">
        <ele>1263</ele>
        <time>2022-03-03T12:56:50.644Z</time>
      </trkpt>
      <trkpt lat="44.16824" lon="6.1005">
        <ele>1263</ele>
        <time>2022-03-03T12:56:51.644Z</time>
      </trkpt>
      <trkpt lat="44.16824" lon="6.1005">
        <ele>1263</ele>
        <time>2022-03-03T12:56:52.644Z</time>
      </trkpt>
      <trkpt lat="44.16824" lon="6.1005">
        <ele>1263</ele>
        <time>2022-03-03T12:56:53.644Z</time>
      </trkpt>
      <trkpt lat="44.16824" lon="6.1005">
        <ele>1263</ele>
        <time>2022-03-03T12:56:54.644Z</time>
      </trkpt>
      <trkpt lat="44.16824" lon="6.1005">
        <ele>1263</ele>
        <time>2022-03-03T12:56:55.644Z</time>
      </trkpt>
      <trkpt lat="44.16824" lon="6.10051">
        <ele>1263</ele>
        <time>2022-03-03T12:56:56.644Z</time>
      </trkpt>
      <trkpt lat="44.16824" lon="6.10051">
        <ele>1262</ele>
        <time>2022-03-03T12:56:57.644Z</time>
      </trkpt>
      <trkpt lat="44.16824" lon="6.10051">
        <ele>1262</ele>
        <time>2022-03-03T12:56:58.644Z</time>
      </trkpt>
      <trkpt lat="44.16824" lon="6.10051">
        <ele>1262</ele>
        <time>2022-03-03T12:56:59.644Z</time>
      </trkpt>
      <trkpt lat="44.16824" lon="6.10051">
        <ele>1262</ele>
        <time>2022-03-03T12:57:00.644Z</time>
      </trkpt>
      <trkpt lat="44.16824" lon="6.10051">
        <ele>1262</ele>
        <time>2022-03-03T12:57:01.644Z</time>
      </trkpt>
      <trkpt lat="44.16824" lon="6.10051">
        <ele>1262</ele>
        <time>2022-03-03T12:57:02.644Z</time>
      </trkpt>
      <trkpt lat="44.16824" lon="6.10051">
        <ele>1262</ele>
        <time>2022-03-03T12:57:03.644Z</time>
      </trkpt>
      <trkpt lat="44.16824" lon="6.10051">
        <ele>1263</ele>
        <time>2022-03-03T12:57:04.644Z</time>
      </trkpt>
      <trkpt lat="44.16824" lon="6.10051">
        <ele>1263</ele>
        <time>2022-03-03T12:57:05.644Z</time>
      </trkpt>
      <trkpt lat="44.16823" lon="6.10051">
        <ele>1263</ele>
        <time>2022-03-03T12:57:06.644Z</time>
      </trkpt>
      <trkpt lat="44.16823" lon="6.10052">
        <ele>1262</ele>
        <time>2022-03-03T12:57:07.644Z</time>
      </trkpt>
      <trkpt lat="44.16823" lon="6.10052">
        <ele>1262</ele>
        <time>2022-03-03T12:57:08.644Z</time>
      </trkpt>
      <trkpt lat="44.16822" lon="6.10052">
        <ele>1262</ele>
        <time>2022-03-03T12:57:09.644Z</time>
      </trkpt>
      <trkpt lat="44.16822" lon="6.10052">
        <ele>1262</ele>
        <time>2022-03-03T12:57:10.644Z</time>
      </trkpt>
      <trkpt lat="44.16822" lon="6.10052">
        <ele>1262</ele>
        <time>2022-03-03T12:57:11.644Z</time>
      </trkpt>
      <trkpt lat="44.16822" lon="6.10052">
        <ele>1262</ele>
        <time>2022-03-03T12:57:12.644Z</time>
      </trkpt>
      <trkpt lat="44.16821" lon="6.10053">
        <ele>1262</ele>
        <time>2022-03-03T12:57:13.644Z</time>
      </trkpt>
      <trkpt lat="44.16821" lon="6.10053">
        <ele>1262</ele>
        <time>2022-03-03T12:57:14.644Z</time>
      </trkpt>
      <trkpt lat="44.1682" lon="6.10053">
        <ele>1262</ele>
        <time>2022-03-03T12:57:15.644Z</time>
      </trkpt>
      <trkpt lat="44.16819" lon="6.10054">
        <ele>1262</ele>
        <time>2022-03-03T12:57:16.644Z</time>
      </trkpt>
      <trkpt lat="44.16818" lon="6.10055">
        <ele>1261</ele>
        <time>2022-03-03T12:57:17.644Z</time>
      </trkpt>
      <trkpt lat="44.16817" lon="6.10055">
        <ele>1261</ele>
        <time>2022-03-03T12:57:18.644Z</time>
      </trkpt>
      <trkpt lat="44.16816" lon="6.10056">
        <ele>1261</ele>
        <time>2022-03-03T12:57:19.644Z</time>
      </trkpt>
      <trkpt lat="44.16815" lon="6.10056">
        <ele>1261</ele>
        <time>2022-03-03T12:57:20.644Z</time>
      </trkpt>
      <trkpt lat="44.16814" lon="6.10056">
        <ele>1261</ele>
        <time>2022-03-03T12:57:21.644Z</time>
      </trkpt>
      <trkpt lat="44.16813" lon="6.10056">
        <ele>1261</ele>
        <time>2022-03-03T12:57:22.644Z</time>
      </trkpt>
      <trkpt lat="44.16812" lon="6.10056">
        <ele>1261</ele>
        <time>2022-03-03T12:57:23.644Z</time>
      </trkpt>
      <trkpt lat="44.1681" lon="6.10057">
        <ele>1260</ele>
        <time>2022-03-03T12:57:24.644Z</time>
      </trkpt>
      <trkpt lat="44.16809" lon="6.10057">
        <ele>1260</ele>
        <time>2022-03-03T12:57:25.644Z</time>
      </trkpt>
      <trkpt lat="44.16808" lon="6.10058">
        <ele>1260</ele>
        <time>2022-03-03T12:57:26.644Z</time>
      </trkpt>
      <trkpt lat="44.16807" lon="6.10058">
        <ele>1260</ele>
        <time>2022-03-03T12:57:27.644Z</time>
      </trkpt>
      <trkpt lat="44.16806" lon="6.10059">
        <ele>1259</ele>
        <time>2022-03-03T12:57:28.644Z</time>
      </trkpt>
      <trkpt lat="44.16805" lon="6.10059">
        <ele>1259</ele>
        <time>2022-03-03T12:57:29.644Z</time>
      </trkpt>
      <trkpt lat="44.16804" lon="6.1006">
        <ele>1259</ele>
        <time>2022-03-03T12:57:30.644Z</time>
      </trkpt>
      <trkpt lat="44.16803" lon="6.1006">
        <ele>1259</ele>
        <time>2022-03-03T12:57:31.644Z</time>
      </trkpt>
      <trkpt lat="44.16802" lon="6.10061">
        <ele>1258</ele>
        <time>2022-03-03T12:57:32.644Z</time>
      </trkpt>
      <trkpt lat="44.16802" lon="6.10061">
        <ele>1258</ele>
        <time>2022-03-03T12:57:33.644Z</time>
      </trkpt>
      <trkpt lat="44.16801" lon="6.10062">
        <ele>1258</ele>
        <time>2022-03-03T12:57:34.644Z</time>
      </trkpt>
      <trkpt lat="44.168" lon="6.10063">
        <ele>1258</ele>
        <time>2022-03-03T12:57:35.644Z</time>
      </trkpt>
      <trkpt lat="44.168" lon="6.10064">
        <ele>1258</ele>
        <time>2022-03-03T12:57:36.644Z</time>
      </trkpt>
      <trkpt lat="44.16799" lon="6.10065">
        <ele>1257</ele>
        <time>2022-03-03T12:57:37.644Z</time>
      </trkpt>
      <trkpt lat="44.16799" lon="6.10065">
        <ele>1257</ele>
        <time>2022-03-03T12:57:38.644Z</time>
      </trkpt>
      <trkpt lat="44.16799" lon="6.10066">
        <ele>1257</ele>
        <time>2022-03-03T12:57:39.644Z</time>
      </trkpt>
      <trkpt lat="44.16798" lon="6.10066">
        <ele>1257</ele>
        <time>2022-03-03T12:57:40.644Z</time>
      </trkpt>
      <trkpt lat="44.16798" lon="6.10067">
        <ele>1257</ele>
        <time>2022-03-03T12:57:41.644Z</time>
      </trkpt>
      <trkpt lat="44.16797" lon="6.10068">
        <ele>1257</ele>
        <time>2022-03-03T12:57:42.644Z</time>
      </trkpt>
      <trkpt lat="44.16797" lon="6.10069">
        <ele>1257</ele>
        <time>2022-03-03T12:57:43.644Z</time>
      </trkpt>
      <trkpt lat="44.16796" lon="6.1007">
        <ele>1256</ele>
        <time>2022-03-03T12:57:44.644Z</time>
      </trkpt>
      <trkpt lat="44.16796" lon="6.10071">
        <ele>1256</ele>
        <time>2022-03-03T12:57:45.644Z</time>
      </trkpt>
      <trkpt lat="44.16795" lon="6.10072">
        <ele>1256</ele>
        <time>2022-03-03T12:57:46.644Z</time>
      </trkpt>
      <trkpt lat="44.16794" lon="6.10073">
        <ele>1256</ele>
        <time>2022-03-03T12:57:47.644Z</time>
      </trkpt>
      <trkpt lat="44.16794" lon="6.10075">
        <ele>1256</ele>
        <time>2022-03-03T12:57:48.644Z</time>
      </trkpt>
      <trkpt lat="44.16793" lon="6.10076">
        <ele>1255</ele>
        <time>2022-03-03T12:57:49.644Z</time>
      </trkpt>
      <trkpt lat="44.16792" lon="6.10076">
        <ele>1255</ele>
        <time>2022-03-03T12:57:50.644Z</time>
      </trkpt>
      <trkpt lat="44.16791" lon="6.10077">
        <ele>1255</ele>
        <time>2022-03-03T12:57:51.644Z</time>
      </trkpt>
      <trkpt lat="44.1679" lon="6.10078">
        <ele>1255</ele>
        <time>2022-03-03T12:57:52.644Z</time>
      </trkpt>
      <trkpt lat="44.16789" lon="6.10079">
        <ele>1254</ele>
        <time>2022-03-03T12:57:53.644Z</time>
      </trkpt>
      <trkpt lat="44.16788" lon="6.10079">
        <ele>1254</ele>
        <time>2022-03-03T12:57:54.644Z</time>
      </trkpt>
      <trkpt lat="44.16787" lon="6.1008">
        <ele>1254</ele>
        <time>2022-03-03T12:57:55.644Z</time>
      </trkpt>
      <trkpt lat="44.16786" lon="6.10081">
        <ele>1253</ele>
        <time>2022-03-03T12:57:56.644Z</time>
      </trkpt>
      <trkpt lat="44.16785" lon="6.10082">
        <ele>1253</ele>
        <time>2022-03-03T12:57:57.644Z</time>
      </trkpt>
      <trkpt lat="44.16784" lon="6.10082">
        <ele>1253</ele>
        <time>2022-03-03T12:57:58.644Z</time>
      </trkpt>
      <trkpt lat="44.16783" lon="6.10083">
        <ele>1253</ele>
        <time>2022-03-03T12:57:59.644Z</time>
      </trkpt>
      <trkpt lat="44.16782" lon="6.10083">
        <ele>1252</ele>
        <time>2022-03-03T12:58:00.644Z</time>
      </trkpt>
      <trkpt lat="44.16781" lon="6.10083">
        <ele>1252</ele>
        <time>2022-03-03T12:58:01.644Z</time>
      </trkpt>
      <trkpt lat="44.1678" lon="6.10083">
        <ele>1252</ele>
        <time>2022-03-03T12:58:02.644Z</time>
      </trkpt>
      <trkpt lat="44.16778" lon="6.10084">
        <ele>1252</ele>
        <time>2022-03-03T12:58:03.644Z</time>
      </trkpt>
      <trkpt lat="44.16777" lon="6.10084">
        <ele>1251</ele>
        <time>2022-03-03T12:58:04.644Z</time>
      </trkpt>
      <trkpt lat="44.16776" lon="6.10084">
        <ele>1251</ele>
        <time>2022-03-03T12:58:05.644Z</time>
      </trkpt>
      <trkpt lat="44.16775" lon="6.10084">
        <ele>1251</ele>
        <time>2022-03-03T12:58:06.644Z</time>
      </trkpt>
      <trkpt lat="44.16774" lon="6.10085">
        <ele>1251</ele>
        <time>2022-03-03T12:58:07.644Z</time>
      </trkpt>
      <trkpt lat="44.16773" lon="6.10084">
        <ele>1250</ele>
        <time>2022-03-03T12:58:08.644Z</time>
      </trkpt>
      <trkpt lat="44.16772" lon="6.10084">
        <ele>1250</ele>
        <time>2022-03-03T12:58:09.644Z</time>
      </trkpt>
      <trkpt lat="44.16771" lon="6.10084">
        <ele>1250</ele>
        <time>2022-03-03T12:58:10.644Z</time>
      </trkpt>
      <trkpt lat="44.16769" lon="6.10085">
        <ele>1250</ele>
        <time>2022-03-03T12:58:11.644Z</time>
      </trkpt>
      <trkpt lat="44.16768" lon="6.10085">
        <ele>1249</ele>
        <time>2022-03-03T12:58:12.644Z</time>
      </trkpt>
      <trkpt lat="44.16767" lon="6.10086">
        <ele>1249</ele>
        <time>2022-03-03T12:58:13.644Z</time>
      </trkpt>
      <trkpt lat="44.16766" lon="6.10086">
        <ele>1249</ele>
        <time>2022-03-03T12:58:14.644Z</time>
      </trkpt>
      <trkpt lat="44.16765" lon="6.10087">
        <ele>1249</ele>
        <time>2022-03-03T12:58:15.644Z</time>
      </trkpt>
      <trkpt lat="44.16764" lon="6.10088">
        <ele>1249</ele>
        <time>2022-03-03T12:58:16.644Z</time>
      </trkpt>
      <trkpt lat="44.16763" lon="6.10089">
        <ele>1248</ele>
        <time>2022-03-03T12:58:17.644Z</time>
      </trkpt>
      <trkpt lat="44.16761" lon="6.1009">
        <ele>1248</ele>
        <time>2022-03-03T12:58:18.644Z</time>
      </trkpt>
      <trkpt lat="44.1676" lon="6.10091">
        <ele>1248</ele>
        <time>2022-03-03T12:58:19.644Z</time>
      </trkpt>
      <trkpt lat="44.16759" lon="6.10092">
        <ele>1248</ele>
        <time>2022-03-03T12:58:20.644Z</time>
      </trkpt>
      <trkpt lat="44.16759" lon="6.10093">
        <ele>1247</ele>
        <time>2022-03-03T12:58:21.644Z</time>
      </trkpt>
      <trkpt lat="44.16758" lon="6.10094">
        <ele>1247</ele>
        <time>2022-03-03T12:58:22.644Z</time>
      </trkpt>
      <trkpt lat="44.16757" lon="6.10095">
        <ele>1247</ele>
        <time>2022-03-03T12:58:23.644Z</time>
      </trkpt>
      <trkpt lat="44.16756" lon="6.10096">
        <ele>1247</ele>
        <time>2022-03-03T12:58:24.644Z</time>
      </trkpt>
      <trkpt lat="44.16756" lon="6.10097">
        <ele>1247</ele>
        <time>2022-03-03T12:58:25.644Z</time>
      </trkpt>
      <trkpt lat="44.16755" lon="6.10098">
        <ele>1246</ele>
        <time>2022-03-03T12:58:26.644Z</time>
      </trkpt>
      <trkpt lat="44.16755" lon="6.10099">
        <ele>1246</ele>
        <time>2022-03-03T12:58:27.644Z</time>
      </trkpt>
      <trkpt lat="44.16754" lon="6.10101">
        <ele>1246</ele>
        <time>2022-03-03T12:58:28.644Z</time>
      </trkpt>
      <trkpt lat="44.16753" lon="6.10102">
        <ele>1246</ele>
        <time>2022-03-03T12:58:29.644Z</time>
      </trkpt>
      <trkpt lat="44.16752" lon="6.10103">
        <ele>1245</ele>
        <time>2022-03-03T12:58:30.644Z</time>
      </trkpt>
      <trkpt lat="44.16752" lon="6.10104">
        <ele>1245</ele>
        <time>2022-03-03T12:58:31.644Z</time>
      </trkpt>
      <trkpt lat="44.16751" lon="6.10105">
        <ele>1245</ele>
        <time>2022-03-03T12:58:32.644Z</time>
      </trkpt>
      <trkpt lat="44.1675" lon="6.10107">
        <ele>1245</ele>
        <time>2022-03-03T12:58:33.644Z</time>
      </trkpt>
      <trkpt lat="44.1675" lon="6.10108">
        <ele>1244</ele>
        <time>2022-03-03T12:58:34.644Z</time>
      </trkpt>
      <trkpt lat="44.16749" lon="6.10109">
        <ele>1244</ele>
        <time>2022-03-03T12:58:35.644Z</time>
      </trkpt>
      <trkpt lat="44.16748" lon="6.1011">
        <ele>1244</ele>
        <time>2022-03-03T12:58:36.644Z</time>
      </trkpt>
      <trkpt lat="44.16747" lon="6.10111">
        <ele>1243</ele>
        <time>2022-03-03T12:58:37.644Z</time>
      </trkpt>
      <trkpt lat="44.16746" lon="6.10112">
        <ele>1243</ele>
        <time>2022-03-03T12:58:38.644Z</time>
      </trkpt>
      <trkpt lat="44.16746" lon="6.10113">
        <ele>1243</ele>
        <time>2022-03-03T12:58:39.644Z</time>
      </trkpt>
      <trkpt lat="44.16745" lon="6.10114">
        <ele>1243</ele>
        <time>2022-03-03T12:58:40.644Z</time>
      </trkpt>
      <trkpt lat="44.16744" lon="6.10115">
        <ele>1242</ele>
        <time>2022-03-03T12:58:41.644Z</time>
      </trkpt>
      <trkpt lat="44.16743" lon="6.10116">
        <ele>1242</ele>
        <time>2022-03-03T12:58:42.644Z</time>
      </trkpt>
      <trkpt lat="44.16742" lon="6.10117">
        <ele>1242</ele>
        <time>2022-03-03T12:58:43.644Z</time>
      </trkpt>
      <trkpt lat="44.16741" lon="6.10118">
        <ele>1241</ele>
        <time>2022-03-03T12:58:44.644Z</time>
      </trkpt>
      <trkpt lat="44.1674" lon="6.10119">
        <ele>1241</ele>
        <time>2022-03-03T12:58:45.644Z</time>
      </trkpt>
      <trkpt lat="44.1674" lon="6.1012">
        <ele>1241</ele>
        <time>2022-03-03T12:58:46.644Z</time>
      </trkpt>
      <trkpt lat="44.16739" lon="6.10121">
        <ele>1240</ele>
        <time>2022-03-03T12:58:47.644Z</time>
      </trkpt>
      <trkpt lat="44.16738" lon="6.10122">
        <ele>1240</ele>
        <time>2022-03-03T12:58:48.644Z</time>
      </trkpt>
      <trkpt lat="44.16737" lon="6.10123">
        <ele>1240</ele>
        <time>2022-03-03T12:58:49.644Z</time>
      </trkpt>
      <trkpt lat="44.16736" lon="6.10123">
        <ele>1240</ele>
        <time>2022-03-03T12:58:50.644Z</time>
      </trkpt>
      <trkpt lat="44.16735" lon="6.10124">
        <ele>1239</ele>
        <time>2022-03-03T12:58:51.644Z</time>
      </trkpt>
      <trkpt lat="44.16735" lon="6.10125">
        <ele>1239</ele>
        <time>2022-03-03T12:58:52.644Z</time>
      </trkpt>
      <trkpt lat="44.16734" lon="6.10126">
        <ele>1239</ele>
        <time>2022-03-03T12:58:53.644Z</time>
      </trkpt>
      <trkpt lat="44.16733" lon="6.10127">
        <ele>1239</ele>
        <time>2022-03-03T12:58:54.644Z</time>
      </trkpt>
      <trkpt lat="44.16732" lon="6.10128">
        <ele>1238</ele>
        <time>2022-03-03T12:58:55.644Z</time>
      </trkpt>
      <trkpt lat="44.16732" lon="6.10129">
        <ele>1238</ele>
        <time>2022-03-03T12:58:56.644Z</time>
      </trkpt>
      <trkpt lat="44.16731" lon="6.1013">
        <ele>1238</ele>
        <time>2022-03-03T12:58:57.644Z</time>
      </trkpt>
      <trkpt lat="44.16731" lon="6.10131">
        <ele>1238</ele>
        <time>2022-03-03T12:58:58.644Z</time>
      </trkpt>
      <trkpt lat="44.1673" lon="6.10133">
        <ele>1237</ele>
        <time>2022-03-03T12:58:59.644Z</time>
      </trkpt>
      <trkpt lat="44.16729" lon="6.10133">
        <ele>1237</ele>
        <time>2022-03-03T12:59:00.644Z</time>
      </trkpt>
      <trkpt lat="44.16728" lon="6.10134">
        <ele>1237</ele>
        <time>2022-03-03T12:59:01.644Z</time>
      </trkpt>
      <trkpt lat="44.16728" lon="6.10135">
        <ele>1237</ele>
        <time>2022-03-03T12:59:02.644Z</time>
      </trkpt>
      <trkpt lat="44.16727" lon="6.10136">
        <ele>1236</ele>
        <time>2022-03-03T12:59:03.644Z</time>
      </trkpt>
      <trkpt lat="44.16726" lon="6.10137">
        <ele>1236</ele>
        <time>2022-03-03T12:59:04.644Z</time>
      </trkpt>
      <trkpt lat="44.16726" lon="6.10138">
        <ele>1236</ele>
        <time>2022-03-03T12:59:05.644Z</time>
      </trkpt>
      <trkpt lat="44.16725" lon="6.10139">
        <ele>1236</ele>
        <time>2022-03-03T12:59:06.644Z</time>
      </trkpt>
      <trkpt lat="44.16724" lon="6.1014">
        <ele>1235</ele>
        <time>2022-03-03T12:59:07.644Z</time>
      </trkpt>
      <trkpt lat="44.16724" lon="6.10141">
        <ele>1235</ele>
        <time>2022-03-03T12:59:08.644Z</time>
      </trkpt>
      <trkpt lat="44.16724" lon="6.10141">
        <ele>1235</ele>
        <time>2022-03-03T12:59:09.644Z</time>
      </trkpt>
      <trkpt lat="44.16723" lon="6.10142">
        <ele>1235</ele>
        <time>2022-03-03T12:59:10.644Z</time>
      </trkpt>
      <trkpt lat="44.16723" lon="6.10143">
        <ele>1235</ele>
        <time>2022-03-03T12:59:11.644Z</time>
      </trkpt>
      <trkpt lat="44.16723" lon="6.10145">
        <ele>1235</ele>
        <time>2022-03-03T12:59:12.644Z</time>
      </trkpt>
      <trkpt lat="44.16722" lon="6.10146">
        <ele>1234</ele>
        <time>2022-03-03T12:59:13.644Z</time>
      </trkpt>
      <trkpt lat="44.16722" lon="6.10147">
        <ele>1234</ele>
        <time>2022-03-03T12:59:14.644Z</time>
      </trkpt>
      <trkpt lat="44.16721" lon="6.10148">
        <ele>1234</ele>
        <time>2022-03-03T12:59:15.644Z</time>
      </trkpt>
      <trkpt lat="44.16721" lon="6.10149">
        <ele>1234</ele>
        <time>2022-03-03T12:59:16.644Z</time>
      </trkpt>
      <trkpt lat="44.1672" lon="6.10151">
        <ele>1234</ele>
        <time>2022-03-03T12:59:17.644Z</time>
      </trkpt>
      <trkpt lat="44.1672" lon="6.10152">
        <ele>1233</ele>
        <time>2022-03-03T12:59:18.644Z</time>
      </trkpt>
      <trkpt lat="44.16719" lon="6.10153">
        <ele>1233</ele>
        <time>2022-03-03T12:59:19.644Z</time>
      </trkpt>
      <trkpt lat="44.16719" lon="6.10154">
        <ele>1233</ele>
        <time>2022-03-03T12:59:20.644Z</time>
      </trkpt>
      <trkpt lat="44.16718" lon="6.10156">
        <ele>1233</ele>
        <time>2022-03-03T12:59:21.644Z</time>
      </trkpt>
      <trkpt lat="44.16718" lon="6.10157">
        <ele>1232</ele>
        <time>2022-03-03T12:59:22.644Z</time>
      </trkpt>
      <trkpt lat="44.16717" lon="6.10158">
        <ele>1232</ele>
        <time>2022-03-03T12:59:23.644Z</time>
      </trkpt>
      <trkpt lat="44.16717" lon="6.1016">
        <ele>1232</ele>
        <time>2022-03-03T12:59:24.644Z</time>
      </trkpt>
      <trkpt lat="44.16717" lon="6.10161">
        <ele>1232</ele>
        <time>2022-03-03T12:59:25.644Z</time>
      </trkpt>
      <trkpt lat="44.16716" lon="6.10162">
        <ele>1232</ele>
        <time>2022-03-03T12:59:26.644Z</time>
      </trkpt>
      <trkpt lat="44.16716" lon="6.10164">
        <ele>1231</ele>
        <time>2022-03-03T12:59:27.644Z</time>
      </trkpt>
      <trkpt lat="44.16715" lon="6.10165">
        <ele>1231</ele>
        <time>2022-03-03T12:59:28.644Z</time>
      </trkpt>
      <trkpt lat="44.16715" lon="6.10166">
        <ele>1231</ele>
        <time>2022-03-03T12:59:29.644Z</time>
      </trkpt>
      <trkpt lat="44.16715" lon="6.10167">
        <ele>1231</ele>
        <time>2022-03-03T12:59:30.644Z</time>
      </trkpt>
      <trkpt lat="44.16714" lon="6.10168">
        <ele>1230</ele>
        <time>2022-03-03T12:59:31.644Z</time>
      </trkpt>
      <trkpt lat="44.16714" lon="6.1017">
        <ele>1230</ele>
        <time>2022-03-03T12:59:32.644Z</time>
      </trkpt>
      <trkpt lat="44.16714" lon="6.10171">
        <ele>1230</ele>
        <time>2022-03-03T12:59:33.644Z</time>
      </trkpt>
      <trkpt lat="44.16713" lon="6.10173">
        <ele>1230</ele>
        <time>2022-03-03T12:59:34.644Z</time>
      </trkpt>
      <trkpt lat="44.16713" lon="6.10174">
        <ele>1229</ele>
        <time>2022-03-03T12:59:35.644Z</time>
      </trkpt>
      <trkpt lat="44.16712" lon="6.10176">
        <ele>1229</ele>
        <time>2022-03-03T12:59:36.644Z</time>
      </trkpt>
      <trkpt lat="44.16712" lon="6.10177">
        <ele>1229</ele>
        <time>2022-03-03T12:59:37.644Z</time>
      </trkpt>
      <trkpt lat="44.16711" lon="6.10178">
        <ele>1229</ele>
        <time>2022-03-03T12:59:38.644Z</time>
      </trkpt>
      <trkpt lat="44.16711" lon="6.10179">
        <ele>1229</ele>
        <time>2022-03-03T12:59:39.644Z</time>
      </trkpt>
      <trkpt lat="44.1671" lon="6.10181">
        <ele>1228</ele>
        <time>2022-03-03T12:59:40.644Z</time>
      </trkpt>
      <trkpt lat="44.1671" lon="6.10182">
        <ele>1228</ele>
        <time>2022-03-03T12:59:41.644Z</time>
      </trkpt>
      <trkpt lat="44.16709" lon="6.10183">
        <ele>1228</ele>
        <time>2022-03-03T12:59:42.644Z</time>
      </trkpt>
      <trkpt lat="44.16709" lon="6.10185">
        <ele>1228</ele>
        <time>2022-03-03T12:59:43.644Z</time>
      </trkpt>
      <trkpt lat="44.16709" lon="6.10186">
        <ele>1227</ele>
        <time>2022-03-03T12:59:44.644Z</time>
      </trkpt>
      <trkpt lat="44.16708" lon="6.10188">
        <ele>1227</ele>
        <time>2022-03-03T12:59:45.644Z</time>
      </trkpt>
      <trkpt lat="44.16708" lon="6.10189">
        <ele>1227</ele>
        <time>2022-03-03T12:59:46.644Z</time>
      </trkpt>
      <trkpt lat="44.16707" lon="6.1019">
        <ele>1227</ele>
        <time>2022-03-03T12:59:47.644Z</time>
      </trkpt>
      <trkpt lat="44.16707" lon="6.10192">
        <ele>1226</ele>
        <time>2022-03-03T12:59:48.644Z</time>
      </trkpt>
      <trkpt lat="44.16706" lon="6.10193">
        <ele>1226</ele>
        <time>2022-03-03T12:59:49.644Z</time>
      </trkpt>
      <trkpt lat="44.16706" lon="6.10195">
        <ele>1226</ele>
        <time>2022-03-03T12:59:50.644Z</time>
      </trkpt>
      <trkpt lat="44.16705" lon="6.10196">
        <ele>1226</ele>
        <time>2022-03-03T12:59:51.644Z</time>
      </trkpt>
      <trkpt lat="44.16705" lon="6.10197">
        <ele>1225</ele>
        <time>2022-03-03T12:59:52.644Z</time>
      </trkpt>
      <trkpt lat="44.16704" lon="6.10199">
        <ele>1225</ele>
        <time>2022-03-03T12:59:53.644Z</time>
      </trkpt>
      <trkpt lat="44.16704" lon="6.102">
        <ele>1225</ele>
        <time>2022-03-03T12:59:54.644Z</time>
      </trkpt>
      <trkpt lat="44.16703" lon="6.10202">
        <ele>1225</ele>
        <time>2022-03-03T12:59:55.644Z</time>
      </trkpt>
      <trkpt lat="44.16702" lon="6.10203">
        <ele>1225</ele>
        <time>2022-03-03T12:59:56.644Z</time>
      </trkpt>
      <trkpt lat="44.16702" lon="6.10204">
        <ele>1224</ele>
        <time>2022-03-03T12:59:57.644Z</time>
      </trkpt>
      <trkpt lat="44.16701" lon="6.10206">
        <ele>1224</ele>
        <time>2022-03-03T12:59:58.644Z</time>
      </trkpt>
      <trkpt lat="44.16701" lon="6.10207">
        <ele>1224</ele>
        <time>2022-03-03T12:59:59.644Z</time>
      </trkpt>
      <trkpt lat="44.167" lon="6.10209">
        <ele>1224</ele>
        <time>2022-03-03T13:00:00.644Z</time>
      </trkpt>
      <trkpt lat="44.16699" lon="6.1021">
        <ele>1224</ele>
        <time>2022-03-03T13:00:01.644Z</time>
      </trkpt>
      <trkpt lat="44.16698" lon="6.10212">
        <ele>1223</ele>
        <time>2022-03-03T13:00:02.644Z</time>
      </trkpt>
      <trkpt lat="44.16698" lon="6.10213">
        <ele>1223</ele>
        <time>2022-03-03T13:00:03.644Z</time>
      </trkpt>
      <trkpt lat="44.16697" lon="6.10214">
        <ele>1223</ele>
        <time>2022-03-03T13:00:04.644Z</time>
      </trkpt>
      <trkpt lat="44.16696" lon="6.10215">
        <ele>1223</ele>
        <time>2022-03-03T13:00:05.644Z</time>
      </trkpt>
      <trkpt lat="44.16696" lon="6.10216">
        <ele>1223</ele>
        <time>2022-03-03T13:00:06.644Z</time>
      </trkpt>
      <trkpt lat="44.16695" lon="6.10217">
        <ele>1222</ele>
        <time>2022-03-03T13:00:07.644Z</time>
      </trkpt>
      <trkpt lat="44.16695" lon="6.10219">
        <ele>1222</ele>
        <time>2022-03-03T13:00:08.644Z</time>
      </trkpt>
      <trkpt lat="44.16694" lon="6.1022">
        <ele>1222</ele>
        <time>2022-03-03T13:00:09.644Z</time>
      </trkpt>
      <trkpt lat="44.16694" lon="6.10222">
        <ele>1222</ele>
        <time>2022-03-03T13:00:10.644Z</time>
      </trkpt>
      <trkpt lat="44.16693" lon="6.10223">
        <ele>1222</ele>
        <time>2022-03-03T13:00:11.644Z</time>
      </trkpt>
      <trkpt lat="44.16692" lon="6.10225">
        <ele>1221</ele>
        <time>2022-03-03T13:00:12.644Z</time>
      </trkpt>
      <trkpt lat="44.16692" lon="6.10226">
        <ele>1221</ele>
        <time>2022-03-03T13:00:13.644Z</time>
      </trkpt>
      <trkpt lat="44.16691" lon="6.10228">
        <ele>1221</ele>
        <time>2022-03-03T13:00:14.644Z</time>
      </trkpt>
      <trkpt lat="44.1669" lon="6.10229">
        <ele>1221</ele>
        <time>2022-03-03T13:00:15.644Z</time>
      </trkpt>
      <trkpt lat="44.1669" lon="6.1023">
        <ele>1220</ele>
        <time>2022-03-03T13:00:16.644Z</time>
      </trkpt>
      <trkpt lat="44.16689" lon="6.10232">
        <ele>1220</ele>
        <time>2022-03-03T13:00:17.644Z</time>
      </trkpt>
      <trkpt lat="44.16689" lon="6.10233">
        <ele>1220</ele>
        <time>2022-03-03T13:00:18.644Z</time>
      </trkpt>
      <trkpt lat="44.16688" lon="6.10235">
        <ele>1220</ele>
        <time>2022-03-03T13:00:19.644Z</time>
      </trkpt>
      <trkpt lat="44.16688" lon="6.10236">
        <ele>1220</ele>
        <time>2022-03-03T13:00:20.644Z</time>
      </trkpt>
      <trkpt lat="44.16687" lon="6.10237">
        <ele>1219</ele>
        <time>2022-03-03T13:00:21.644Z</time>
      </trkpt>
      <trkpt lat="44.16687" lon="6.10239">
        <ele>1219</ele>
        <time>2022-03-03T13:00:22.644Z</time>
      </trkpt>
      <trkpt lat="44.16686" lon="6.1024">
        <ele>1219</ele>
        <time>2022-03-03T13:00:23.644Z</time>
      </trkpt>
      <trkpt lat="44.16685" lon="6.10242">
        <ele>1219</ele>
        <time>2022-03-03T13:00:24.644Z</time>
      </trkpt>
      <trkpt lat="44.16685" lon="6.10243">
        <ele>1219</ele>
        <time>2022-03-03T13:00:25.644Z</time>
      </trkpt>
      <trkpt lat="44.16684" lon="6.10245">
        <ele>1219</ele>
        <time>2022-03-03T13:00:26.644Z</time>
      </trkpt>
      <trkpt lat="44.16684" lon="6.10246">
        <ele>1218</ele>
        <time>2022-03-03T13:00:27.644Z</time>
      </trkpt>
      <trkpt lat="44.16683" lon="6.10248">
        <ele>1218</ele>
        <time>2022-03-03T13:00:28.644Z</time>
      </trkpt>
      <trkpt lat="44.16683" lon="6.10249">
        <ele>1218</ele>
        <time>2022-03-03T13:00:29.644Z</time>
      </trkpt>
      <trkpt lat="44.16682" lon="6.10251">
        <ele>1218</ele>
        <time>2022-03-03T13:00:30.644Z</time>
      </trkpt>
      <trkpt lat="44.16682" lon="6.10252">
        <ele>1218</ele>
        <time>2022-03-03T13:00:31.644Z</time>
      </trkpt>
      <trkpt lat="44.16681" lon="6.10254">
        <ele>1218</ele>
        <time>2022-03-03T13:00:32.644Z</time>
      </trkpt>
      <trkpt lat="44.1668" lon="6.10255">
        <ele>1217</ele>
        <time>2022-03-03T13:00:33.644Z</time>
      </trkpt>
      <trkpt lat="44.1668" lon="6.10256">
        <ele>1217</ele>
        <time>2022-03-03T13:00:34.644Z</time>
      </trkpt>
      <trkpt lat="44.16679" lon="6.10257">
        <ele>1217</ele>
        <time>2022-03-03T13:00:35.644Z</time>
      </trkpt>
      <trkpt lat="44.16679" lon="6.10258">
        <ele>1217</ele>
        <time>2022-03-03T13:00:36.644Z</time>
      </trkpt>
      <trkpt lat="44.16679" lon="6.10259">
        <ele>1217</ele>
        <time>2022-03-03T13:00:37.644Z</time>
      </trkpt>
      <trkpt lat="44.16678" lon="6.10259">
        <ele>1217</ele>
        <time>2022-03-03T13:00:38.644Z</time>
      </trkpt>
      <trkpt lat="44.16678" lon="6.10259">
        <ele>1217</ele>
        <time>2022-03-03T13:00:39.644Z</time>
      </trkpt>
      <trkpt lat="44.16678" lon="6.10259">
        <ele>1217</ele>
        <time>2022-03-03T13:00:40.644Z</time>
      </trkpt>
      <trkpt lat="44.16678" lon="6.10259">
        <ele>1217</ele>
        <time>2022-03-03T13:00:41.644Z</time>
      </trkpt>
      <trkpt lat="44.16678" lon="6.10259">
        <ele>1217</ele>
        <time>2022-03-03T13:00:42.644Z</time>
      </trkpt>
      <trkpt lat="44.16678" lon="6.10259">
        <ele>1217</ele>
        <time>2022-03-03T13:00:43.644Z</time>
      </trkpt>
      <trkpt lat="44.16678" lon="6.10259">
        <ele>1217</ele>
        <time>2022-03-03T13:00:44.644Z</time>
      </trkpt>
      <trkpt lat="44.16678" lon="6.10259">
        <ele>1217</ele>
        <time>2022-03-03T13:00:45.644Z</time>
      </trkpt>
      <trkpt lat="44.16678" lon="6.10259">
        <ele>1217</ele>
        <time>2022-03-03T13:00:46.644Z</time>
      </trkpt>
      <trkpt lat="44.16678" lon="6.10259">
        <ele>1217</ele>
        <time>2022-03-03T13:00:47.644Z</time>
      </trkpt>
      <trkpt lat="44.16678" lon="6.10259">
        <ele>1217</ele>
        <time>2022-03-03T13:00:48.644Z</time>
      </trkpt>
      <trkpt lat="44.16678" lon="6.10259">
        <ele>1217</ele>
        <time>2022-03-03T13:00:49.644Z</time>
      </trkpt>
      <trkpt lat="44.16678" lon="6.10259">
        <ele>1217</ele>
        <time>2022-03-03T13:00:50.644Z</time>
      </trkpt>
      <trkpt lat="44.16678" lon="6.10259">
        <ele>1217</ele>
        <time>2022-03-03T13:00:51.644Z</time>
      </trkpt>
      <trkpt lat="44.16678" lon="6.10259">
        <ele>1217</ele>
        <time>2022-03-03T13:00:52.644Z</time>
      </trkpt>
      <trkpt lat="44.16678" lon="6.10259">
        <ele>1217</ele>
        <time>2022-03-03T13:00:53.644Z</time>
      </trkpt>
      <trkpt lat="44.16678" lon="6.1026">
        <ele>1217</ele>
        <time>2022-03-03T13:00:54.644Z</time>
      </trkpt>
      <trkpt lat="44.16678" lon="6.1026">
        <ele>1217</ele>
        <time>2022-03-03T13:00:55.644Z</time>
      </trkpt>
      <trkpt lat="44.16678" lon="6.1026">
        <ele>1217</ele>
        <time>2022-03-03T13:00:56.644Z</time>
      </trkpt>
      <trkpt lat="44.16678" lon="6.1026">
        <ele>1217</ele>
        <time>2022-03-03T13:00:57.644Z</time>
      </trkpt>
      <trkpt lat="44.16678" lon="6.1026">
        <ele>1217</ele>
        <time>2022-03-03T13:00:58.644Z</time>
      </trkpt>
      <trkpt lat="44.16678" lon="6.1026">
        <ele>1217</ele>
        <time>2022-03-03T13:00:59.644Z</time>
      </trkpt>
      <trkpt lat="44.16678" lon="6.1026">
        <ele>1217</ele>
        <time>2022-03-03T13:01:00.644Z</time>
      </trkpt>
      <trkpt lat="44.16678" lon="6.1026">
        <ele>1217</ele>
        <time>2022-03-03T13:01:01.644Z</time>
      </trkpt>
      <trkpt lat="44.16678" lon="6.1026">
        <ele>1217</ele>
        <time>2022-03-03T13:01:02.644Z</time>
      </trkpt>
      <trkpt lat="44.16678" lon="6.1026">
        <ele>1217</ele>
        <time>2022-03-03T13:01:03.644Z</time>
      </trkpt>
      <trkpt lat="44.16678" lon="6.1026">
        <ele>1217</ele>
        <time>2022-03-03T13:01:04.644Z</time>
      </trkpt>
      <trkpt lat="44.16678" lon="6.1026">
        <ele>1217</ele>
        <time>2022-03-03T13:01:05.644Z</time>
      </trkpt>
      <trkpt lat="44.16678" lon="6.1026">
        <ele>1217</ele>
        <time>2022-03-03T13:01:06.644Z</time>
      </trkpt>
      <trkpt lat="44.16678" lon="6.1026">
        <ele>1217</ele>
        <time>2022-03-03T13:01:07.644Z</time>
      </trkpt>
      <trkpt lat="44.16678" lon="6.1026">
        <ele>1217</ele>
        <time>2022-03-03T13:01:08.644Z</time>
      </trkpt>
      <trkpt lat="44.16678" lon="6.1026">
        <ele>1217</ele>
        <time>2022-03-03T13:01:09.644Z</time>
      </trkpt>
      <trkpt lat="44.16678" lon="6.1026">
        <ele>1217</ele>
        <time>2022-03-03T13:01:10.644Z</time>
      </trkpt>
      <trkpt lat="44.16678" lon="6.1026">
        <ele>1217</ele>
        <time>2022-03-03T13:01:11.644Z</time>
      </trkpt>
      <trkpt lat="44.16678" lon="6.1026">
        <ele>1217</ele>
        <time>2022-03-03T13:01:12.644Z</time>
      </trkpt>
      <trkpt lat="44.16678" lon="6.1026">
        <ele>1217</ele>
        <time>2022-03-03T13:01:13.644Z</time>
      </trkpt>
      <trkpt lat="44.16678" lon="6.1026">
        <ele>1217</ele>
        <time>2022-03-03T13:01:14.644Z</time>
      </trkpt>
      <trkpt lat="44.16678" lon="6.1026">
        <ele>1217</ele>
        <time>2022-03-03T13:01:15.644Z</time>
      </trkpt>
      <trkpt lat="44.16678" lon="6.1026">
        <ele>1217</ele>
        <time>2022-03-03T13:01:16.644Z</time>
      </trkpt>
      <trkpt lat="44.16678" lon="6.1026">
        <ele>1217</ele>
        <time>2022-03-03T13:01:17.644Z</time>
      </trkpt>
      <trkpt lat="44.16678" lon="6.1026">
        <ele>1217</ele>
        <time>2022-03-03T13:01:18.644Z</time>
      </trkpt>
      <trkpt lat="44.16678" lon="6.1026">
        <ele>1217</ele>
        <time>2022-03-03T13:01:19.644Z</time>
      </trkpt>
      <trkpt lat="44.16678" lon="6.1026">
        <ele>1217</ele>
        <time>2022-03-03T13:01:20.644Z</time>
      </trkpt>
      <trkpt lat="44.16678" lon="6.1026">
        <ele>1217</ele>
        <time>2022-03-03T13:01:21.644Z</time>
      </trkpt>
      <trkpt lat="44.16678" lon="6.1026">
        <ele>1217</ele>
        <time>2022-03-03T13:01:22.644Z</time>
      </trkpt>
      <trkpt lat="44.16678" lon="6.1026">
        <ele>1217</ele>
        <time>2022-03-03T13:01:23.644Z</time>
      </trkpt>
      <trkpt lat="44.16678" lon="6.1026">
        <ele>1217</ele>
        <time>2022-03-03T13:01:24.644Z</time>
      </trkpt>
      <trkpt lat="44.16678" lon="6.1026">
        <ele>1217</ele>
        <time>2022-03-03T13:01:25.644Z</time>
      </trkpt>
      <trkpt lat="44.16678" lon="6.1026">
        <ele>1217</ele>
        <time>2022-03-03T13:01:26.644Z</time>
      </trkpt>
      <trkpt lat="44.16678" lon="6.1026">
        <ele>1217</ele>
        <time>2022-03-03T13:01:27.644Z</time>
      </trkpt>
      <trkpt lat="44.16678" lon="6.1026">
        <ele>1217</ele>
        <time>2022-03-03T13:01:28.644Z</time>
      </trkpt>
      <trkpt lat="44.16678" lon="6.1026">
        <ele>1217</ele>
        <time>2022-03-03T13:01:29.644Z</time>
      </trkpt>
      <trkpt lat="44.16678" lon="6.1026">
        <ele>1217</ele>
        <time>2022-03-03T13:01:30.644Z</time>
      </trkpt>
      <trkpt lat="44.16678" lon="6.1026">
        <ele>1217</ele>
        <time>2022-03-03T13:01:31.644Z</time>
      </trkpt>
      <trkpt lat="44.16678" lon="6.1026">
        <ele>1217</ele>
        <time>2022-03-03T13:01:32.644Z</time>
      </trkpt>
      <trkpt lat="44.16678" lon="6.1026">
        <ele>1217</ele>
        <time>2022-03-03T13:01:33.644Z</time>
      </trkpt>
      <trkpt lat="44.16678" lon="6.1026">
        <ele>1217</ele>
        <time>2022-03-03T13:01:34.644Z</time>
      </trkpt>
      <trkpt lat="44.16678" lon="6.1026">
        <ele>1217</ele>
        <time>2022-03-03T13:01:35.644Z</time>
      </trkpt>
      <trkpt lat="44.16678" lon="6.1026">
        <ele>1217</ele>
        <time>2022-03-03T13:01:36.644Z</time>
      </trkpt>
      <trkpt lat="44.16678" lon="6.1026">
        <ele>1217</ele>
        <time>2022-03-03T13:01:37.644Z</time>
      </trkpt>
      <trkpt lat="44.16678" lon="6.1026">
        <ele>1217</ele>
        <time>2022-03-03T13:01:38.644Z</time>
      </trkpt>
      <trkpt lat="44.16678" lon="6.1026">
        <ele>1217</ele>
        <time>2022-03-03T13:01:39.644Z</time>
      </trkpt>
      <trkpt lat="44.16678" lon="6.1026">
        <ele>1217</ele>
        <time>2022-03-03T13:01:40.644Z</time>
      </trkpt>
      <trkpt lat="44.16678" lon="6.1026">
        <ele>1217</ele>
        <time>2022-03-03T13:01:41.644Z</time>
      </trkpt>
      <trkpt lat="44.16678" lon="6.1026">
        <ele>1217</ele>
        <time>2022-03-03T13:01:42.644Z</time>
      </trkpt>
      <trkpt lat="44.16678" lon="6.1026">
        <ele>1217</ele>
        <time>2022-03-03T13:01:43.644Z</time>
      </trkpt>
      <trkpt lat="44.16678" lon="6.1026">
        <ele>1217</ele>
        <time>2022-03-03T13:01:44.644Z</time>
      </trkpt>
      <trkpt lat="44.16678" lon="6.1026">
        <ele>1217</ele>
        <time>2022-03-03T13:01:45.644Z</time>
      </trkpt>
      <trkpt lat="44.16678" lon="6.1026">
        <ele>1217</ele>
        <time>2022-03-03T13:01:46.644Z</time>
      </trkpt>
      <trkpt lat="44.16678" lon="6.1026">
        <ele>1217</ele>
        <time>2022-03-03T13:01:47.644Z</time>
      </trkpt>
      <trkpt lat="44.16678" lon="6.1026">
        <ele>1217</ele>
        <time>2022-03-03T13:01:48.644Z</time>
      </trkpt>
      <trkpt lat="44.16678" lon="6.1026">
        <ele>1217</ele>
        <time>2022-03-03T13:01:49.644Z</time>
      </trkpt>
      <trkpt lat="44.16678" lon="6.1026">
        <ele>1217</ele>
        <time>2022-03-03T13:01:50.644Z</time>
      </trkpt>
      <trkpt lat="44.16678" lon="6.1026">
        <ele>1217</ele>
        <time>2022-03-03T13:01:51.644Z</time>
      </trkpt>
      <trkpt lat="44.16678" lon="6.1026">
        <ele>1217</ele>
        <time>2022-03-03T13:01:52.644Z</time>
      </trkpt>
      <trkpt lat="44.16678" lon="6.1026">
        <ele>1217</ele>
        <time>2022-03-03T13:01:53.644Z</time>
      </trkpt>
      <trkpt lat="44.16678" lon="6.1026">
        <ele>1217</ele>
        <time>2022-03-03T13:01:54.644Z</time>
      </trkpt>
      <trkpt lat="44.16678" lon="6.1026">
        <ele>1217</ele>
        <time>2022-03-03T13:01:55.644Z</time>
      </trkpt>
      <trkpt lat="44.16678" lon="6.1026">
        <ele>1217</ele>
        <time>2022-03-03T13:01:56.644Z</time>
      </trkpt>
      <trkpt lat="44.16678" lon="6.10261">
        <ele>1217</ele>
        <time>2022-03-03T13:01:57.644Z</time>
      </trkpt>
      <trkpt lat="44.16678" lon="6.10261">
        <ele>1217</ele>
        <time>2022-03-03T13:01:58.644Z</time>
      </trkpt>
      <trkpt lat="44.16678" lon="6.10261">
        <ele>1217</ele>
        <time>2022-03-03T13:01:59.644Z</time>
      </trkpt>
      <trkpt lat="44.16678" lon="6.10261">
        <ele>1217</ele>
        <time>2022-03-03T13:02:00.644Z</time>
      </trkpt>
      <trkpt lat="44.16678" lon="6.10261">
        <ele>1217</ele>
        <time>2022-03-03T13:02:01.644Z</time>
      </trkpt>
      <trkpt lat="44.16678" lon="6.10261">
        <ele>1217</ele>
        <time>2022-03-03T13:02:02.644Z</time>
      </trkpt>
      <trkpt lat="44.16678" lon="6.10261">
        <ele>1217</ele>
        <time>2022-03-03T13:02:03.644Z</time>
      </trkpt>
      <trkpt lat="44.16678" lon="6.10261">
        <ele>1217</ele>
        <time>2022-03-03T13:02:04.644Z</time>
      </trkpt>
      <trkpt lat="44.16678" lon="6.10261">
        <ele>1217</ele>
        <time>2022-03-03T13:02:05.644Z</time>
      </trkpt>
      <trkpt lat="44.16678" lon="6.10261">
        <ele>1217</ele>
        <time>2022-03-03T13:02:06.644Z</time>
      </trkpt>
      <trkpt lat="44.16678" lon="6.10261">
        <ele>1217</ele>
        <time>2022-03-03T13:02:07.644Z</time>
      </trkpt>
      <trkpt lat="44.16678" lon="6.10261">
        <ele>1217</ele>
        <time>2022-03-03T13:02:08.644Z</time>
      </trkpt>
      <trkpt lat="44.16678" lon="6.10261">
        <ele>1217</ele>
        <time>2022-03-03T13:02:09.644Z</time>
      </trkpt>
      <trkpt lat="44.16678" lon="6.10261">
        <ele>1217</ele>
        <time>2022-03-03T13:02:10.644Z</time>
      </trkpt>
      <trkpt lat="44.16678" lon="6.10261">
        <ele>1217</ele>
        <time>2022-03-03T13:02:11.644Z</time>
      </trkpt>
      <trkpt lat="44.16678" lon="6.10261">
        <ele>1217</ele>
        <time>2022-03-03T13:02:12.644Z</time>
      </trkpt>
      <trkpt lat="44.16678" lon="6.10261">
        <ele>1217</ele>
        <time>2022-03-03T13:02:13.644Z</time>
      </trkpt>
      <trkpt lat="44.16678" lon="6.10261">
        <ele>1217</ele>
        <time>2022-03-03T13:02:14.644Z</time>
      </trkpt>
      <trkpt lat="44.16678" lon="6.10261">
        <ele>1217</ele>
        <time>2022-03-03T13:02:15.644Z</time>
      </trkpt>
      <trkpt lat="44.16678" lon="6.10261">
        <ele>1217</ele>
        <time>2022-03-03T13:02:16.644Z</time>
      </trkpt>
      <trkpt lat="44.16678" lon="6.10261">
        <ele>1217</ele>
        <time>2022-03-03T13:02:17.644Z</time>
      </trkpt>
      <trkpt lat="44.16678" lon="6.10261">
        <ele>1217</ele>
        <time>2022-03-03T13:02:18.644Z</time>
      </trkpt>
      <trkpt lat="44.16678" lon="6.10261">
        <ele>1217</ele>
        <time>2022-03-03T13:02:19.644Z</time>
      </trkpt>
      <trkpt lat="44.16678" lon="6.10261">
        <ele>1217</ele>
        <time>2022-03-03T13:02:20.644Z</time>
      </trkpt>
      <trkpt lat="44.16678" lon="6.10261">
        <ele>1217</ele>
        <time>2022-03-03T13:02:21.644Z</time>
      </trkpt>
      <trkpt lat="44.16678" lon="6.10261">
        <ele>1217</ele>
        <time>2022-03-03T13:02:22.644Z</time>
      </trkpt>
      <trkpt lat="44.16678" lon="6.1026">
        <ele>1217</ele>
        <time>2022-03-03T13:02:23.644Z</time>
      </trkpt>
      <trkpt lat="44.16678" lon="6.10261">
        <ele>1217</ele>
        <time>2022-03-03T13:02:24.644Z</time>
      </trkpt>
      <trkpt lat="44.16678" lon="6.10261">
        <ele>1217</ele>
        <time>2022-03-03T13:02:25.644Z</time>
      </trkpt>
      <trkpt lat="44.16678" lon="6.10261">
        <ele>1217</ele>
        <time>2022-03-03T13:02:26.644Z</time>
      </trkpt>
      <trkpt lat="44.16678" lon="6.10261">
        <ele>1217</ele>
        <time>2022-03-03T13:02:27.644Z</time>
      </trkpt>
      <trkpt lat="44.16678" lon="6.10261">
        <ele>1217</ele>
        <time>2022-03-03T13:02:28.644Z</time>
      </trkpt>
      <trkpt lat="44.16678" lon="6.10261">
        <ele>1217</ele>
        <time>2022-03-03T13:02:29.644Z</time>
      </trkpt>
      <trkpt lat="44.16678" lon="6.1026">
        <ele>1217</ele>
        <time>2022-03-03T13:02:30.644Z</time>
      </trkpt>
      <trkpt lat="44.16678" lon="6.1026">
        <ele>1217</ele>
        <time>2022-03-03T13:02:31.644Z</time>
      </trkpt>
      <trkpt lat="44.16678" lon="6.1026">
        <ele>1217</ele>
        <time>2022-03-03T13:02:32.644Z</time>
      </trkpt>
      <trkpt lat="44.16678" lon="6.1026">
        <ele>1217</ele>
        <time>2022-03-03T13:02:33.644Z</time>
      </trkpt>
      <trkpt lat="44.16678" lon="6.10261">
        <ele>1217</ele>
        <time>2022-03-03T13:02:34.644Z</time>
      </trkpt>
      <trkpt lat="44.16678" lon="6.1026">
        <ele>1217</ele>
        <time>2022-03-03T13:02:35.644Z</time>
      </trkpt>
      <trkpt lat="44.16678" lon="6.1026">
        <ele>1217</ele>
        <time>2022-03-03T13:02:36.644Z</time>
      </trkpt>
      <trkpt lat="44.16678" lon="6.1026">
        <ele>1217</ele>
        <time>2022-03-03T13:02:37.644Z</time>
      </trkpt>
      <trkpt lat="44.16678" lon="6.1026">
        <ele>1217</ele>
        <time>2022-03-03T13:02:38.644Z</time>
      </trkpt>
      <trkpt lat="44.16678" lon="6.1026">
        <ele>1217</ele>
        <time>2022-03-03T13:02:39.644Z</time>
      </trkpt>
      <trkpt lat="44.16677" lon="6.1026">
        <ele>1217</ele>
        <time>2022-03-03T13:02:40.644Z</time>
      </trkpt>
      <trkpt lat="44.16677" lon="6.1026">
        <ele>1217</ele>
        <time>2022-03-03T13:02:41.644Z</time>
      </trkpt>
      <trkpt lat="44.16677" lon="6.1026">
        <ele>1217</ele>
        <time>2022-03-03T13:02:42.644Z</time>
      </trkpt>
      <trkpt lat="44.16677" lon="6.1026">
        <ele>1217</ele>
        <time>2022-03-03T13:02:43.644Z</time>
      </trkpt>
      <trkpt lat="44.16677" lon="6.1026">
        <ele>1217</ele>
        <time>2022-03-03T13:02:44.644Z</time>
      </trkpt>
      <trkpt lat="44.16677" lon="6.1026">
        <ele>1217</ele>
        <time>2022-03-03T13:02:45.644Z</time>
      </trkpt>
      <trkpt lat="44.16677" lon="6.1026">
        <ele>1217</ele>
        <time>2022-03-03T13:02:46.644Z</time>
      </trkpt>
      <trkpt lat="44.16677" lon="6.1026">
        <ele>1217</ele>
        <time>2022-03-03T13:02:47.644Z</time>
      </trkpt>
      <trkpt lat="44.16677" lon="6.1026">
        <ele>1217</ele>
        <time>2022-03-03T13:02:48.644Z</time>
      </trkpt>
      <trkpt lat="44.16677" lon="6.1026">
        <ele>1217</ele>
        <time>2022-03-03T13:02:49.644Z</time>
      </trkpt>
      <trkpt lat="44.16677" lon="6.1026">
        <ele>1217</ele>
        <time>2022-03-03T13:02:50.644Z</time>
      </trkpt>
      <trkpt lat="44.16677" lon="6.1026">
        <ele>1217</ele>
        <time>2022-03-03T13:02:51.644Z</time>
      </trkpt>
      <trkpt lat="44.16677" lon="6.1026">
        <ele>1217</ele>
        <time>2022-03-03T13:02:52.644Z</time>
      </trkpt>
      <trkpt lat="44.16677" lon="6.1026">
        <ele>1217</ele>
        <time>2022-03-03T13:02:53.644Z</time>
      </trkpt>
      <trkpt lat="44.16677" lon="6.1026">
        <ele>1217</ele>
        <time>2022-03-03T13:02:54.644Z</time>
      </trkpt>
      <trkpt lat="44.16677" lon="6.1026">
        <ele>1217</ele>
        <time>2022-03-03T13:02:55.644Z</time>
      </trkpt>
      <trkpt lat="44.16677" lon="6.1026">
        <ele>1217</ele>
        <time>2022-03-03T13:02:56.644Z</time>
      </trkpt>
      <trkpt lat="44.16677" lon="6.1026">
        <ele>1217</ele>
        <time>2022-03-03T13:02:57.644Z</time>
      </trkpt>
      <trkpt lat="44.16677" lon="6.1026">
        <ele>1217</ele>
        <time>2022-03-03T13:02:58.644Z</time>
      </trkpt>
      <trkpt lat="44.16677" lon="6.1026">
        <ele>1217</ele>
        <time>2022-03-03T13:02:59.644Z</time>
      </trkpt>
      <trkpt lat="44.16677" lon="6.1026">
        <ele>1217</ele>
        <time>2022-03-03T13:03:00.644Z</time>
      </trkpt>
      <trkpt lat="44.16677" lon="6.1026">
        <ele>1217</ele>
        <time>2022-03-03T13:03:01.644Z</time>
      </trkpt>
      <trkpt lat="44.16677" lon="6.1026">
        <ele>1217</ele>
        <time>2022-03-03T13:03:02.644Z</time>
      </trkpt>
      <trkpt lat="44.16677" lon="6.1026">
        <ele>1217</ele>
        <time>2022-03-03T13:03:03.644Z</time>
      </trkpt>
      <trkpt lat="44.16677" lon="6.1026">
        <ele>1217</ele>
        <time>2022-03-03T13:03:04.644Z</time>
      </trkpt>
      <trkpt lat="44.16677" lon="6.1026">
        <ele>1217</ele>
        <time>2022-03-03T13:03:05.644Z</time>
      </trkpt>
      <trkpt lat="44.16677" lon="6.1026">
        <ele>1217</ele>
        <time>2022-03-03T13:03:06.644Z</time>
      </trkpt>
      <trkpt lat="44.16677" lon="6.1026">
        <ele>1217</ele>
        <time>2022-03-03T13:03:07.644Z</time>
      </trkpt>
      <trkpt lat="44.16677" lon="6.1026">
        <ele>1217</ele>
        <time>2022-03-03T13:03:08.644Z</time>
      </trkpt>
      <trkpt lat="44.16677" lon="6.1026">
        <ele>1217</ele>
        <time>2022-03-03T13:03:09.644Z</time>
      </trkpt>
      <trkpt lat="44.16677" lon="6.1026">
        <ele>1217</ele>
        <time>2022-03-03T13:03:10.644Z</time>
      </trkpt>
      <trkpt lat="44.16677" lon="6.1026">
        <ele>1217</ele>
        <time>2022-03-03T13:03:11.644Z</time>
      </trkpt>
      <trkpt lat="44.16677" lon="6.1026">
        <ele>1217</ele>
        <time>2022-03-03T13:03:12.644Z</time>
      </trkpt>
      <trkpt lat="44.16677" lon="6.1026">
        <ele>1217</ele>
        <time>2022-03-03T13:03:13.644Z</time>
      </trkpt>
      <trkpt lat="44.16677" lon="6.1026">
        <ele>1217</ele>
        <time>2022-03-03T13:03:14.644Z</time>
      </trkpt>
      <trkpt lat="44.16677" lon="6.1026">
        <ele>1217</ele>
        <time>2022-03-03T13:03:15.644Z</time>
      </trkpt>
      <trkpt lat="44.16677" lon="6.1026">
        <ele>1217</ele>
        <time>2022-03-03T13:03:16.644Z</time>
      </trkpt>
      <trkpt lat="44.16677" lon="6.1026">
        <ele>1217</ele>
        <time>2022-03-03T13:03:17.644Z</time>
      </trkpt>
      <trkpt lat="44.16677" lon="6.1026">
        <ele>1217</ele>
        <time>2022-03-03T13:03:18.644Z</time>
      </trkpt>
      <trkpt lat="44.16677" lon="6.1026">
        <ele>1217</ele>
        <time>2022-03-03T13:03:19.644Z</time>
      </trkpt>
      <trkpt lat="44.16676" lon="6.1026">
        <ele>1217</ele>
        <time>2022-03-03T13:03:20.644Z</time>
      </trkpt>
      <trkpt lat="44.16677" lon="6.1026">
        <ele>1217</ele>
        <time>2022-03-03T13:03:21.644Z</time>
      </trkpt>
      <trkpt lat="44.16677" lon="6.1026">
        <ele>1217</ele>
        <time>2022-03-03T13:03:22.644Z</time>
      </trkpt>
      <trkpt lat="44.16677" lon="6.1026">
        <ele>1217</ele>
        <time>2022-03-03T13:03:23.644Z</time>
      </trkpt>
      <trkpt lat="44.16677" lon="6.1026">
        <ele>1217</ele>
        <time>2022-03-03T13:03:24.644Z</time>
      </trkpt>
      <trkpt lat="44.16677" lon="6.1026">
        <ele>1217</ele>
        <time>2022-03-03T13:03:25.644Z</time>
      </trkpt>
      <trkpt lat="44.16677" lon="6.1026">
        <ele>1217</ele>
        <time>2022-03-03T13:03:26.644Z</time>
      </trkpt>
      <trkpt lat="44.16677" lon="6.1026">
        <ele>1217</ele>
        <time>2022-03-03T13:03:27.644Z</time>
      </trkpt>
      <trkpt lat="44.16677" lon="6.1026">
        <ele>1217</ele>
        <time>2022-03-03T13:03:28.644Z</time>
      </trkpt>
      <trkpt lat="44.16677" lon="6.1026">
        <ele>1217</ele>
        <time>2022-03-03T13:03:29.644Z</time>
      </trkpt>
      <trkpt lat="44.16677" lon="6.1026">
        <ele>1217</ele>
        <time>2022-03-03T13:03:30.644Z</time>
      </trkpt>
      <trkpt lat="44.16677" lon="6.10261">
        <ele>1217</ele>
        <time>2022-03-03T13:03:31.644Z</time>
      </trkpt>
      <trkpt lat="44.16677" lon="6.10261">
        <ele>1217</ele>
        <time>2022-03-03T13:03:32.644Z</time>
      </trkpt>
      <trkpt lat="44.16677" lon="6.1026">
        <ele>1217</ele>
        <time>2022-03-03T13:03:33.644Z</time>
      </trkpt>
      <trkpt lat="44.16677" lon="6.1026">
        <ele>1217</ele>
        <time>2022-03-03T13:03:34.644Z</time>
      </trkpt>
      <trkpt lat="44.16677" lon="6.10261">
        <ele>1217</ele>
        <time>2022-03-03T13:03:35.644Z</time>
      </trkpt>
      <trkpt lat="44.16677" lon="6.10261">
        <ele>1217</ele>
        <time>2022-03-03T13:03:36.644Z</time>
      </trkpt>
      <trkpt lat="44.16677" lon="6.10261">
        <ele>1217</ele>
        <time>2022-03-03T13:03:37.644Z</time>
      </trkpt>
      <trkpt lat="44.16677" lon="6.10261">
        <ele>1217</ele>
        <time>2022-03-03T13:03:38.644Z</time>
      </trkpt>
      <trkpt lat="44.16677" lon="6.10261">
        <ele>1217</ele>
        <time>2022-03-03T13:03:39.644Z</time>
      </trkpt>
      <trkpt lat="44.16677" lon="6.10261">
        <ele>1217</ele>
        <time>2022-03-03T13:03:40.644Z</time>
      </trkpt>
      <trkpt lat="44.16677" lon="6.10261">
        <ele>1217</ele>
        <time>2022-03-03T13:03:41.644Z</time>
      </trkpt>
      <trkpt lat="44.16677" lon="6.10261">
        <ele>1217</ele>
        <time>2022-03-03T13:03:42.644Z</time>
      </trkpt>
      <trkpt lat="44.16677" lon="6.10261">
        <ele>1217</ele>
        <time>2022-03-03T13:03:43.644Z</time>
      </trkpt>
      <trkpt lat="44.16677" lon="6.10261">
        <ele>1217</ele>
        <time>2022-03-03T13:03:44.644Z</time>
      </trkpt>
      <trkpt lat="44.16677" lon="6.10261">
        <ele>1217</ele>
        <time>2022-03-03T13:03:45.644Z</time>
      </trkpt>
      <trkpt lat="44.16677" lon="6.10261">
        <ele>1217</ele>
        <time>2022-03-03T13:03:46.644Z</time>
      </trkpt>
      <trkpt lat="44.16677" lon="6.10261">
        <ele>1217</ele>
        <time>2022-03-03T13:03:47.644Z</time>
      </trkpt>
      <trkpt lat="44.16677" lon="6.10261">
        <ele>1217</ele>
        <time>2022-03-03T13:03:48.644Z</time>
      </trkpt>
      <trkpt lat="44.16677" lon="6.10261">
        <ele>1217</ele>
        <time>2022-03-03T13:03:49.644Z</time>
      </trkpt>
      <trkpt lat="44.16677" lon="6.10261">
        <ele>1217</ele>
        <time>2022-03-03T13:03:50.644Z</time>
      </trkpt>
      <trkpt lat="44.16677" lon="6.10261">
        <ele>1217</ele>
        <time>2022-03-03T13:03:51.644Z</time>
      </trkpt>
      <trkpt lat="44.16677" lon="6.10261">
        <ele>1217</ele>
        <time>2022-03-03T13:03:52.644Z</time>
      </trkpt>
      <trkpt lat="44.16677" lon="6.10261">
        <ele>1217</ele>
        <time>2022-03-03T13:03:53.644Z</time>
      </trkpt>
      <trkpt lat="44.16677" lon="6.10261">
        <ele>1217</ele>
        <time>2022-03-03T13:03:54.644Z</time>
      </trkpt>
      <trkpt lat="44.16677" lon="6.10261">
        <ele>1217</ele>
        <time>2022-03-03T13:03:55.644Z</time>
      </trkpt>
      <trkpt lat="44.16677" lon="6.10261">
        <ele>1217</ele>
        <time>2022-03-03T13:03:56.644Z</time>
      </trkpt>
      <trkpt lat="44.16677" lon="6.10261">
        <ele>1217</ele>
        <time>2022-03-03T13:03:57.644Z</time>
      </trkpt>
      <trkpt lat="44.16677" lon="6.10261">
        <ele>1217</ele>
        <time>2022-03-03T13:03:58.644Z</time>
      </trkpt>
      <trkpt lat="44.16677" lon="6.10261">
        <ele>1217</ele>
        <time>2022-03-03T13:03:59.644Z</time>
      </trkpt>
      <trkpt lat="44.16677" lon="6.10261">
        <ele>1217</ele>
        <time>2022-03-03T13:04:00.644Z</time>
      </trkpt>
      <trkpt lat="44.16677" lon="6.10261">
        <ele>1217</ele>
        <time>2022-03-03T13:04:01.644Z</time>
      </trkpt>
      <trkpt lat="44.16677" lon="6.10261">
        <ele>1217</ele>
        <time>2022-03-03T13:04:02.644Z</time>
      </trkpt>
      <trkpt lat="44.16677" lon="6.10261">
        <ele>1217</ele>
        <time>2022-03-03T13:04:03.644Z</time>
      </trkpt>
      <trkpt lat="44.16677" lon="6.10261">
        <ele>1217</ele>
        <time>2022-03-03T13:04:04.644Z</time>
      </trkpt>
      <trkpt lat="44.16677" lon="6.10261">
        <ele>1217</ele>
        <time>2022-03-03T13:04:05.644Z</time>
      </trkpt>
      <trkpt lat="44.16677" lon="6.10261">
        <ele>1217</ele>
        <time>2022-03-03T13:04:06.644Z</time>
      </trkpt>
      <trkpt lat="44.16677" lon="6.10261">
        <ele>1217</ele>
        <time>2022-03-03T13:04:07.644Z</time>
      </trkpt>
      <trkpt lat="44.16677" lon="6.10261">
        <ele>1217</ele>
        <time>2022-03-03T13:04:08.644Z</time>
      </trkpt>
      <trkpt lat="44.16676" lon="6.10261">
        <ele>1217</ele>
        <time>2022-03-03T13:04:09.644Z</time>
      </trkpt>
      <trkpt lat="44.16676" lon="6.10261">
        <ele>1217</ele>
        <time>2022-03-03T13:04:10.644Z</time>
      </trkpt>
      <trkpt lat="44.16676" lon="6.10261">
        <ele>1217</ele>
        <time>2022-03-03T13:04:11.644Z</time>
      </trkpt>
      <trkpt lat="44.16676" lon="6.10261">
        <ele>1217</ele>
        <time>2022-03-03T13:04:12.644Z</time>
      </trkpt>
      <trkpt lat="44.16676" lon="6.10261">
        <ele>1217</ele>
        <time>2022-03-03T13:04:13.644Z</time>
      </trkpt>
      <trkpt lat="44.16676" lon="6.10261">
        <ele>1217</ele>
        <time>2022-03-03T13:04:14.644Z</time>
      </trkpt>
      <trkpt lat="44.16676" lon="6.10261">
        <ele>1217</ele>
        <time>2022-03-03T13:04:15.644Z</time>
      </trkpt>
      <trkpt lat="44.16677" lon="6.1026">
        <ele>1217</ele>
        <time>2022-03-03T13:04:16.644Z</time>
      </trkpt>
      <trkpt lat="44.16677" lon="6.1026">
        <ele>1217</ele>
        <time>2022-03-03T13:04:17.644Z</time>
      </trkpt>
      <trkpt lat="44.16677" lon="6.1026">
        <ele>1217</ele>
        <time>2022-03-03T13:04:18.644Z</time>
      </trkpt>
      <trkpt lat="44.16676" lon="6.1026">
        <ele>1217</ele>
        <time>2022-03-03T13:04:19.644Z</time>
      </trkpt>
      <trkpt lat="44.16676" lon="6.1026">
        <ele>1217</ele>
        <time>2022-03-03T13:04:20.644Z</time>
      </trkpt>
      <trkpt lat="44.16676" lon="6.1026">
        <ele>1217</ele>
        <time>2022-03-03T13:04:21.644Z</time>
      </trkpt>
      <trkpt lat="44.16676" lon="6.1026">
        <ele>1217</ele>
        <time>2022-03-03T13:04:22.644Z</time>
      </trkpt>
      <trkpt lat="44.16676" lon="6.1026">
        <ele>1217</ele>
        <time>2022-03-03T13:04:23.644Z</time>
      </trkpt>
      <trkpt lat="44.16676" lon="6.1026">
        <ele>1217</ele>
        <time>2022-03-03T13:04:24.644Z</time>
      </trkpt>
      <trkpt lat="44.16676" lon="6.1026">
        <ele>1217</ele>
        <time>2022-03-03T13:04:25.644Z</time>
      </trkpt>
      <trkpt lat="44.16676" lon="6.10261">
        <ele>1217</ele>
        <time>2022-03-03T13:04:26.644Z</time>
      </trkpt>
      <trkpt lat="44.16677" lon="6.10261">
        <ele>1217</ele>
        <time>2022-03-03T13:04:27.644Z</time>
      </trkpt>
      <trkpt lat="44.16677" lon="6.10261">
        <ele>1217</ele>
        <time>2022-03-03T13:04:28.644Z</time>
      </trkpt>
      <trkpt lat="44.16677" lon="6.10261">
        <ele>1217</ele>
        <time>2022-03-03T13:04:29.644Z</time>
      </trkpt>
      <trkpt lat="44.16677" lon="6.10261">
        <ele>1217</ele>
        <time>2022-03-03T13:04:30.644Z</time>
      </trkpt>
      <trkpt lat="44.16677" lon="6.10261">
        <ele>1217</ele>
        <time>2022-03-03T13:04:31.644Z</time>
      </trkpt>
      <trkpt lat="44.16677" lon="6.10261">
        <ele>1217</ele>
        <time>2022-03-03T13:04:32.644Z</time>
      </trkpt>
      <trkpt lat="44.16677" lon="6.10261">
        <ele>1217</ele>
        <time>2022-03-03T13:04:33.644Z</time>
      </trkpt>
      <trkpt lat="44.16677" lon="6.10261">
        <ele>1217</ele>
        <time>2022-03-03T13:04:34.644Z</time>
      </trkpt>
      <trkpt lat="44.16677" lon="6.10261">
        <ele>1217</ele>
        <time>2022-03-03T13:04:35.644Z</time>
      </trkpt>
      <trkpt lat="44.16677" lon="6.10261">
        <ele>1217</ele>
        <time>2022-03-03T13:04:36.644Z</time>
      </trkpt>
      <trkpt lat="44.16677" lon="6.10261">
        <ele>1217</ele>
        <time>2022-03-03T13:04:37.644Z</time>
      </trkpt>
      <trkpt lat="44.16677" lon="6.1026">
        <ele>1217</ele>
        <time>2022-03-03T13:04:38.644Z</time>
      </trkpt>
      <trkpt lat="44.16677" lon="6.10261">
        <ele>1217</ele>
        <time>2022-03-03T13:04:39.644Z</time>
      </trkpt>
      <trkpt lat="44.16677" lon="6.10261">
        <ele>1218</ele>
        <time>2022-03-03T13:04:40.644Z</time>
      </trkpt>
      <trkpt lat="44.16677" lon="6.10261">
        <ele>1218</ele>
        <time>2022-03-03T13:04:41.644Z</time>
      </trkpt>
      <trkpt lat="44.16677" lon="6.10261">
        <ele>1218</ele>
        <time>2022-03-03T13:04:42.644Z</time>
      </trkpt>
      <trkpt lat="44.16677" lon="6.10261">
        <ele>1218</ele>
        <time>2022-03-03T13:04:43.644Z</time>
      </trkpt>
      <trkpt lat="44.16677" lon="6.10261">
        <ele>1218</ele>
        <time>2022-03-03T13:04:44.644Z</time>
      </trkpt>
      <trkpt lat="44.16676" lon="6.10261">
        <ele>1218</ele>
        <time>2022-03-03T13:04:45.644Z</time>
      </trkpt>
      <trkpt lat="44.16676" lon="6.10261">
        <ele>1218</ele>
        <time>2022-03-03T13:04:46.644Z</time>
      </trkpt>
      <trkpt lat="44.16676" lon="6.10261">
        <ele>1218</ele>
        <time>2022-03-03T13:04:47.644Z</time>
      </trkpt>
      <trkpt lat="44.16676" lon="6.10261">
        <ele>1218</ele>
        <time>2022-03-03T13:04:48.644Z</time>
      </trkpt>
      <trkpt lat="44.16676" lon="6.10261">
        <ele>1218</ele>
        <time>2022-03-03T13:04:49.644Z</time>
      </trkpt>
      <trkpt lat="44.16676" lon="6.10261">
        <ele>1218</ele>
        <time>2022-03-03T13:04:50.644Z</time>
      </trkpt>
      <trkpt lat="44.16676" lon="6.10261">
        <ele>1218</ele>
        <time>2022-03-03T13:04:51.644Z</time>
      </trkpt>
      <trkpt lat="44.16676" lon="6.10261">
        <ele>1218</ele>
        <time>2022-03-03T13:04:52.644Z</time>
      </trkpt>
      <trkpt lat="44.16677" lon="6.10261">
        <ele>1218</ele>
        <time>2022-03-03T13:04:53.644Z</time>
      </trkpt>
      <trkpt lat="44.16677" lon="6.10261">
        <ele>1218</ele>
        <time>2022-03-03T13:04:54.644Z</time>
      </trkpt>
      <trkpt lat="44.16677" lon="6.10261">
        <ele>1218</ele>
        <time>2022-03-03T13:04:55.644Z</time>
      </trkpt>
      <trkpt lat="44.16677" lon="6.10261">
        <ele>1218</ele>
        <time>2022-03-03T13:04:56.644Z</time>
      </trkpt>
      <trkpt lat="44.16676" lon="6.10261">
        <ele>1218</ele>
        <time>2022-03-03T13:04:57.644Z</time>
      </trkpt>
      <trkpt lat="44.16676" lon="6.10261">
        <ele>1218</ele>
        <time>2022-03-03T13:04:58.644Z</time>
      </trkpt>
      <trkpt lat="44.16677" lon="6.10261">
        <ele>1218</ele>
        <time>2022-03-03T13:04:59.644Z</time>
      </trkpt>
      <trkpt lat="44.16676" lon="6.10261">
        <ele>1218</ele>
        <time>2022-03-03T13:05:00.644Z</time>
      </trkpt>
      <trkpt lat="44.16677" lon="6.10261">
        <ele>1218</ele>
        <time>2022-03-03T13:05:01.644Z</time>
      </trkpt>
      <trkpt lat="44.16677" lon="6.10261">
        <ele>1218</ele>
        <time>2022-03-03T13:05:02.644Z</time>
      </trkpt>
      <trkpt lat="44.16677" lon="6.10261">
        <ele>1218</ele>
        <time>2022-03-03T13:05:03.644Z</time>
      </trkpt>
      <trkpt lat="44.16677" lon="6.10261">
        <ele>1217</ele>
        <time>2022-03-03T13:05:04.644Z</time>
      </trkpt>
      <trkpt lat="44.16676" lon="6.10261">
        <ele>1217</ele>
        <time>2022-03-03T13:05:05.644Z</time>
      </trkpt>
      <trkpt lat="44.16677" lon="6.10261">
        <ele>1217</ele>
        <time>2022-03-03T13:05:06.644Z</time>
      </trkpt>
      <trkpt lat="44.16676" lon="6.10261">
        <ele>1217</ele>
        <time>2022-03-03T13:05:07.644Z</time>
      </trkpt>
      <trkpt lat="44.16676" lon="6.10261">
        <ele>1217</ele>
        <time>2022-03-03T13:05:08.644Z</time>
      </trkpt>
      <trkpt lat="44.16676" lon="6.10261">
        <ele>1217</ele>
        <time>2022-03-03T13:05:09.644Z</time>
      </trkpt>
      <trkpt lat="44.16676" lon="6.10261">
        <ele>1217</ele>
        <time>2022-03-03T13:05:10.644Z</time>
      </trkpt>
      <trkpt lat="44.16676" lon="6.10261">
        <ele>1217</ele>
        <time>2022-03-03T13:05:11.644Z</time>
      </trkpt>
      <trkpt lat="44.16676" lon="6.10261">
        <ele>1217</ele>
        <time>2022-03-03T13:05:12.644Z</time>
      </trkpt>
      <trkpt lat="44.16676" lon="6.10261">
        <ele>1217</ele>
        <time>2022-03-03T13:05:13.644Z</time>
      </trkpt>
      <trkpt lat="44.16676" lon="6.10261">
        <ele>1217</ele>
        <time>2022-03-03T13:05:14.644Z</time>
      </trkpt>
      <trkpt lat="44.16676" lon="6.10261">
        <ele>1217</ele>
        <time>2022-03-03T13:05:15.644Z</time>
      </trkpt>
      <trkpt lat="44.16676" lon="6.10261">
        <ele>1217</ele>
        <time>2022-03-03T13:05:16.644Z</time>
      </trkpt>
      <trkpt lat="44.16676" lon="6.10261">
        <ele>1217</ele>
        <time>2022-03-03T13:05:17.644Z</time>
      </trkpt>
      <trkpt lat="44.16676" lon="6.10261">
        <ele>1217</ele>
        <time>2022-03-03T13:05:18.644Z</time>
      </trkpt>
      <trkpt lat="44.16676" lon="6.10261">
        <ele>1217</ele>
        <time>2022-03-03T13:05:19.644Z</time>
      </trkpt>
      <trkpt lat="44.16677" lon="6.10261">
        <ele>1217</ele>
        <time>2022-03-03T13:05:20.644Z</time>
      </trkpt>
      <trkpt lat="44.16677" lon="6.10261">
        <ele>1217</ele>
        <time>2022-03-03T13:05:21.644Z</time>
      </trkpt>
      <trkpt lat="44.16676" lon="6.10261">
        <ele>1217</ele>
        <time>2022-03-03T13:05:22.644Z</time>
      </trkpt>
      <trkpt lat="44.16676" lon="6.10261">
        <ele>1217</ele>
        <time>2022-03-03T13:05:23.644Z</time>
      </trkpt>
      <trkpt lat="44.16676" lon="6.10261">
        <ele>1217</ele>
        <time>2022-03-03T13:05:24.644Z</time>
      </trkpt>
      <trkpt lat="44.16676" lon="6.10261">
        <ele>1217</ele>
        <time>2022-03-03T13:05:25.644Z</time>
      </trkpt>
      <trkpt lat="44.16676" lon="6.10261">
        <ele>1217</ele>
        <time>2022-03-03T13:05:26.644Z</time>
      </trkpt>
      <trkpt lat="44.16676" lon="6.10261">
        <ele>1217</ele>
        <time>2022-03-03T13:05:27.644Z</time>
      </trkpt>
      <trkpt lat="44.16676" lon="6.10261">
        <ele>1217</ele>
        <time>2022-03-03T13:05:28.644Z</time>
      </trkpt>
      <trkpt lat="44.16676" lon="6.10261">
        <ele>1217</ele>
        <time>2022-03-03T13:05:29.644Z</time>
      </trkpt>
      <trkpt lat="44.16676" lon="6.10261">
        <ele>1217</ele>
        <time>2022-03-03T13:05:30.644Z</time>
      </trkpt>
      <trkpt lat="44.16676" lon="6.10261">
        <ele>1217</ele>
        <time>2022-03-03T13:05:31.644Z</time>
      </trkpt>
      <trkpt lat="44.16676" lon="6.10261">
        <ele>1217</ele>
        <time>2022-03-03T13:05:32.644Z</time>
      </trkpt>
      <trkpt lat="44.16676" lon="6.10261">
        <ele>1217</ele>
        <time>2022-03-03T13:05:33.644Z</time>
      </trkpt>
      <trkpt lat="44.16676" lon="6.10261">
        <ele>1217</ele>
        <time>2022-03-03T13:05:34.644Z</time>
      </trkpt>
      <trkpt lat="44.16676" lon="6.10261">
        <ele>1217</ele>
        <time>2022-03-03T13:05:35.644Z</time>
      </trkpt>
      <trkpt lat="44.16676" lon="6.10261">
        <ele>1217</ele>
        <time>2022-03-03T13:05:36.644Z</time>
      </trkpt>
      <trkpt lat="44.16676" lon="6.10261">
        <ele>1217</ele>
        <time>2022-03-03T13:05:37.644Z</time>
      </trkpt>
      <trkpt lat="44.16676" lon="6.10261">
        <ele>1217</ele>
        <time>2022-03-03T13:05:38.644Z</time>
      </trkpt>
      <trkpt lat="44.16676" lon="6.10261">
        <ele>1217</ele>
        <time>2022-03-03T13:05:39.644Z</time>
      </trkpt>
      <trkpt lat="44.16676" lon="6.10261">
        <ele>1217</ele>
        <time>2022-03-03T13:05:40.644Z</time>
      </trkpt>
      <trkpt lat="44.16676" lon="6.10261">
        <ele>1217</ele>
        <time>2022-03-03T13:05:41.644Z</time>
      </trkpt>
      <trkpt lat="44.16676" lon="6.10261">
        <ele>1217</ele>
        <time>2022-03-03T13:05:42.644Z</time>
      </trkpt>
      <trkpt lat="44.16676" lon="6.10261">
        <ele>1217</ele>
        <time>2022-03-03T13:05:43.644Z</time>
      </trkpt>
      <trkpt lat="44.16676" lon="6.10262">
        <ele>1217</ele>
        <time>2022-03-03T13:05:44.644Z</time>
      </trkpt>
      <trkpt lat="44.16676" lon="6.10262">
        <ele>1217</ele>
        <time>2022-03-03T13:05:45.644Z</time>
      </trkpt>
      <trkpt lat="44.16676" lon="6.10262">
        <ele>1217</ele>
        <time>2022-03-03T13:05:46.644Z</time>
      </trkpt>
      <trkpt lat="44.16676" lon="6.10261">
        <ele>1217</ele>
        <time>2022-03-03T13:05:47.644Z</time>
      </trkpt>
      <trkpt lat="44.16676" lon="6.10261">
        <ele>1217</ele>
        <time>2022-03-03T13:05:48.644Z</time>
      </trkpt>
      <trkpt lat="44.16676" lon="6.10262">
        <ele>1217</ele>
        <time>2022-03-03T13:05:49.644Z</time>
      </trkpt>
      <trkpt lat="44.16676" lon="6.10262">
        <ele>1217</ele>
        <time>2022-03-03T13:05:50.644Z</time>
      </trkpt>
      <trkpt lat="44.16676" lon="6.10262">
        <ele>1217</ele>
        <time>2022-03-03T13:05:51.644Z</time>
      </trkpt>
      <trkpt lat="44.16676" lon="6.10261">
        <ele>1217</ele>
        <time>2022-03-03T13:05:52.644Z</time>
      </trkpt>
      <trkpt lat="44.16676" lon="6.10261">
        <ele>1217</ele>
        <time>2022-03-03T13:05:53.644Z</time>
      </trkpt>
      <trkpt lat="44.16676" lon="6.10261">
        <ele>1217</ele>
        <time>2022-03-03T13:05:54.644Z</time>
      </trkpt>
      <trkpt lat="44.16676" lon="6.10261">
        <ele>1217</ele>
        <time>2022-03-03T13:05:55.644Z</time>
      </trkpt>
      <trkpt lat="44.16676" lon="6.10261">
        <ele>1217</ele>
        <time>2022-03-03T13:05:56.644Z</time>
      </trkpt>
      <trkpt lat="44.16676" lon="6.10261">
        <ele>1217</ele>
        <time>2022-03-03T13:05:57.644Z</time>
      </trkpt>
      <trkpt lat="44.16676" lon="6.10262">
        <ele>1217</ele>
        <time>2022-03-03T13:05:58.644Z</time>
      </trkpt>
      <trkpt lat="44.16676" lon="6.10262">
        <ele>1217</ele>
        <time>2022-03-03T13:05:59.644Z</time>
      </trkpt>
      <trkpt lat="44.16676" lon="6.10262">
        <ele>1217</ele>
        <time>2022-03-03T13:06:00.644Z</time>
      </trkpt>
      <trkpt lat="44.16676" lon="6.10262">
        <ele>1217</ele>
        <time>2022-03-03T13:06:01.644Z</time>
      </trkpt>
      <trkpt lat="44.16676" lon="6.10262">
        <ele>1217</ele>
        <time>2022-03-03T13:06:02.644Z</time>
      </trkpt>
      <trkpt lat="44.16676" lon="6.10262">
        <ele>1217</ele>
        <time>2022-03-03T13:06:03.644Z</time>
      </trkpt>
      <trkpt lat="44.16676" lon="6.10262">
        <ele>1217</ele>
        <time>2022-03-03T13:06:04.644Z</time>
      </trkpt>
      <trkpt lat="44.16676" lon="6.10262">
        <ele>1217</ele>
        <time>2022-03-03T13:06:05.644Z</time>
      </trkpt>
      <trkpt lat="44.16676" lon="6.10262">
        <ele>1217</ele>
        <time>2022-03-03T13:06:06.644Z</time>
      </trkpt>
      <trkpt lat="44.16676" lon="6.10262">
        <ele>1217</ele>
        <time>2022-03-03T13:06:07.644Z</time>
      </trkpt>
      <trkpt lat="44.16676" lon="6.10262">
        <ele>1217</ele>
        <time>2022-03-03T13:06:08.644Z</time>
      </trkpt>
      <trkpt lat="44.16676" lon="6.10262">
        <ele>1217</ele>
        <time>2022-03-03T13:06:09.644Z</time>
      </trkpt>
      <trkpt lat="44.16676" lon="6.10262">
        <ele>1217</ele>
        <time>2022-03-03T13:06:10.644Z</time>
      </trkpt>
      <trkpt lat="44.16676" lon="6.10262">
        <ele>1217</ele>
        <time>2022-03-03T13:06:11.644Z</time>
      </trkpt>
      <trkpt lat="44.16676" lon="6.10262">
        <ele>1217</ele>
        <time>2022-03-03T13:06:12.644Z</time>
      </trkpt>
      <trkpt lat="44.16676" lon="6.10262">
        <ele>1217</ele>
        <time>2022-03-03T13:06:13.644Z</time>
      </trkpt>
      <trkpt lat="44.16676" lon="6.10262">
        <ele>1217</ele>
        <time>2022-03-03T13:06:14.644Z</time>
      </trkpt>
      <trkpt lat="44.16676" lon="6.10262">
        <ele>1217</ele>
        <time>2022-03-03T13:06:15.644Z</time>
      </trkpt>
      <trkpt lat="44.16676" lon="6.10262">
        <ele>1217</ele>
        <time>2022-03-03T13:06:16.644Z</time>
      </trkpt>
      <trkpt lat="44.16676" lon="6.10262">
        <ele>1217</ele>
        <time>2022-03-03T13:06:17.644Z</time>
      </trkpt>
      <trkpt lat="44.16676" lon="6.10262">
        <ele>1217</ele>
        <time>2022-03-03T13:06:18.644Z</time>
      </trkpt>
      <trkpt lat="44.16676" lon="6.10262">
        <ele>1217</ele>
        <time>2022-03-03T13:06:19.644Z</time>
      </trkpt>
      <trkpt lat="44.16676" lon="6.10262">
        <ele>1217</ele>
        <time>2022-03-03T13:06:20.644Z</time>
      </trkpt>
      <trkpt lat="44.16676" lon="6.10262">
        <ele>1217</ele>
        <time>2022-03-03T13:06:21.644Z</time>
      </trkpt>
      <trkpt lat="44.16676" lon="6.10262">
        <ele>1217</ele>
        <time>2022-03-03T13:06:22.644Z</time>
      </trkpt>
      <trkpt lat="44.16676" lon="6.10262">
        <ele>1217</ele>
        <time>2022-03-03T13:06:23.644Z</time>
      </trkpt>
      <trkpt lat="44.16676" lon="6.10262">
        <ele>1217</ele>
        <time>2022-03-03T13:06:24.644Z</time>
      </trkpt>
      <trkpt lat="44.16676" lon="6.10262">
        <ele>1216</ele>
        <time>2022-03-03T13:06:25.644Z</time>
      </trkpt>
      <trkpt lat="44.16676" lon="6.10262">
        <ele>1216</ele>
        <time>2022-03-03T13:06:26.644Z</time>
      </trkpt>
      <trkpt lat="44.16676" lon="6.10262">
        <ele>1216</ele>
        <time>2022-03-03T13:06:27.644Z</time>
      </trkpt>
      <trkpt lat="44.16676" lon="6.10262">
        <ele>1216</ele>
        <time>2022-03-03T13:06:28.644Z</time>
      </trkpt>
      <trkpt lat="44.16676" lon="6.10262">
        <ele>1216</ele>
        <time>2022-03-03T13:06:29.644Z</time>
      </trkpt>
      <trkpt lat="44.16676" lon="6.10262">
        <ele>1216</ele>
        <time>2022-03-03T13:06:30.644Z</time>
      </trkpt>
      <trkpt lat="44.16676" lon="6.10262">
        <ele>1216</ele>
        <time>2022-03-03T13:06:31.644Z</time>
      </trkpt>
      <trkpt lat="44.16676" lon="6.10262">
        <ele>1216</ele>
        <time>2022-03-03T13:06:32.644Z</time>
      </trkpt>
      <trkpt lat="44.16676" lon="6.10262">
        <ele>1216</ele>
        <time>2022-03-03T13:06:33.644Z</time>
      </trkpt>
      <trkpt lat="44.16676" lon="6.10262">
        <ele>1216</ele>
        <time>2022-03-03T13:06:34.644Z</time>
      </trkpt>
      <trkpt lat="44.16676" lon="6.10262">
        <ele>1216</ele>
        <time>2022-03-03T13:06:35.644Z</time>
      </trkpt>
      <trkpt lat="44.16676" lon="6.10262">
        <ele>1216</ele>
        <time>2022-03-03T13:06:36.644Z</time>
      </trkpt>
      <trkpt lat="44.16676" lon="6.10262">
        <ele>1216</ele>
        <time>2022-03-03T13:06:37.644Z</time>
      </trkpt>
      <trkpt lat="44.16676" lon="6.10262">
        <ele>1216</ele>
        <time>2022-03-03T13:06:38.644Z</time>
      </trkpt>
      <trkpt lat="44.16676" lon="6.10262">
        <ele>1216</ele>
        <time>2022-03-03T13:06:39.644Z</time>
      </trkpt>
      <trkpt lat="44.16676" lon="6.10262">
        <ele>1216</ele>
        <time>2022-03-03T13:06:40.644Z</time>
      </trkpt>
      <trkpt lat="44.16676" lon="6.10262">
        <ele>1216</ele>
        <time>2022-03-03T13:06:41.644Z</time>
      </trkpt>
      <trkpt lat="44.16676" lon="6.10262">
        <ele>1216</ele>
        <time>2022-03-03T13:06:42.644Z</time>
      </trkpt>
      <trkpt lat="44.16676" lon="6.10262">
        <ele>1216</ele>
        <time>2022-03-03T13:06:43.644Z</time>
      </trkpt>
      <trkpt lat="44.16676" lon="6.10262">
        <ele>1216</ele>
        <time>2022-03-03T13:06:44.644Z</time>
      </trkpt>
      <trkpt lat="44.16676" lon="6.10262">
        <ele>1216</ele>
        <time>2022-03-03T13:06:45.644Z</time>
      </trkpt>
      <trkpt lat="44.16676" lon="6.10262">
        <ele>1216</ele>
        <time>2022-03-03T13:06:46.644Z</time>
      </trkpt>
      <trkpt lat="44.16676" lon="6.10262">
        <ele>1216</ele>
        <time>2022-03-03T13:06:47.644Z</time>
      </trkpt>
      <trkpt lat="44.16676" lon="6.10262">
        <ele>1216</ele>
        <time>2022-03-03T13:06:48.644Z</time>
      </trkpt>
      <trkpt lat="44.16676" lon="6.10262">
        <ele>1216</ele>
        <time>2022-03-03T13:06:49.644Z</time>
      </trkpt>
      <trkpt lat="44.16676" lon="6.10262">
        <ele>1216</ele>
        <time>2022-03-03T13:06:50.644Z</time>
      </trkpt>
      <trkpt lat="44.16676" lon="6.10261">
        <ele>1216</ele>
        <time>2022-03-03T13:06:51.644Z</time>
      </trkpt>
      <trkpt lat="44.16676" lon="6.10261">
        <ele>1216</ele>
        <time>2022-03-03T13:06:52.644Z</time>
      </trkpt>
      <trkpt lat="44.16676" lon="6.10261">
        <ele>1216</ele>
        <time>2022-03-03T13:06:53.644Z</time>
      </trkpt>
      <trkpt lat="44.16676" lon="6.10261">
        <ele>1216</ele>
        <time>2022-03-03T13:06:54.644Z</time>
      </trkpt>
      <trkpt lat="44.16676" lon="6.10261">
        <ele>1216</ele>
        <time>2022-03-03T13:06:55.644Z</time>
      </trkpt>
      <trkpt lat="44.16676" lon="6.10261">
        <ele>1216</ele>
        <time>2022-03-03T13:06:56.644Z</time>
      </trkpt>
      <trkpt lat="44.16676" lon="6.10261">
        <ele>1216</ele>
        <time>2022-03-03T13:06:57.644Z</time>
      </trkpt>
      <trkpt lat="44.16676" lon="6.10261">
        <ele>1216</ele>
        <time>2022-03-03T13:06:58.644Z</time>
      </trkpt>
      <trkpt lat="44.16676" lon="6.10261">
        <ele>1216</ele>
        <time>2022-03-03T13:06:59.644Z</time>
      </trkpt>
      <trkpt lat="44.16676" lon="6.10261">
        <ele>1216</ele>
        <time>2022-03-03T13:07:00.644Z</time>
      </trkpt>
      <trkpt lat="44.16676" lon="6.10261">
        <ele>1216</ele>
        <time>2022-03-03T13:07:01.644Z</time>
      </trkpt>
      <trkpt lat="44.16676" lon="6.10261">
        <ele>1216</ele>
        <time>2022-03-03T13:07:02.644Z</time>
      </trkpt>
      <trkpt lat="44.16676" lon="6.10261">
        <ele>1216</ele>
        <time>2022-03-03T13:07:03.644Z</time>
      </trkpt>
      <trkpt lat="44.16676" lon="6.10261">
        <ele>1216</ele>
        <time>2022-03-03T13:07:04.644Z</time>
      </trkpt>
      <trkpt lat="44.16676" lon="6.10261">
        <ele>1216</ele>
        <time>2022-03-03T13:07:05.644Z</time>
      </trkpt>
      <trkpt lat="44.16676" lon="6.10261">
        <ele>1216</ele>
        <time>2022-03-03T13:07:06.644Z</time>
      </trkpt>
      <trkpt lat="44.16676" lon="6.10261">
        <ele>1216</ele>
        <time>2022-03-03T13:07:07.644Z</time>
      </trkpt>
      <trkpt lat="44.16676" lon="6.10261">
        <ele>1217</ele>
        <time>2022-03-03T13:07:08.644Z</time>
      </trkpt>
      <trkpt lat="44.16676" lon="6.10261">
        <ele>1217</ele>
        <time>2022-03-03T13:07:09.644Z</time>
      </trkpt>
      <trkpt lat="44.16676" lon="6.10261">
        <ele>1217</ele>
        <time>2022-03-03T13:07:10.644Z</time>
      </trkpt>
      <trkpt lat="44.16676" lon="6.1026">
        <ele>1217</ele>
        <time>2022-03-03T13:07:11.644Z</time>
      </trkpt>
      <trkpt lat="44.16676" lon="6.1026">
        <ele>1217</ele>
        <time>2022-03-03T13:07:12.644Z</time>
      </trkpt>
      <trkpt lat="44.16676" lon="6.1026">
        <ele>1217</ele>
        <time>2022-03-03T13:07:13.644Z</time>
      </trkpt>
      <trkpt lat="44.16676" lon="6.1026">
        <ele>1217</ele>
        <time>2022-03-03T13:07:14.644Z</time>
      </trkpt>
      <trkpt lat="44.16676" lon="6.1026">
        <ele>1217</ele>
        <time>2022-03-03T13:07:15.644Z</time>
      </trkpt>
      <trkpt lat="44.16676" lon="6.1026">
        <ele>1217</ele>
        <time>2022-03-03T13:07:16.644Z</time>
      </trkpt>
      <trkpt lat="44.16676" lon="6.1026">
        <ele>1217</ele>
        <time>2022-03-03T13:07:17.644Z</time>
      </trkpt>
      <trkpt lat="44.16676" lon="6.1026">
        <ele>1217</ele>
        <time>2022-03-03T13:07:18.644Z</time>
      </trkpt>
      <trkpt lat="44.16676" lon="6.1026">
        <ele>1217</ele>
        <time>2022-03-03T13:07:19.644Z</time>
      </trkpt>
      <trkpt lat="44.16676" lon="6.1026">
        <ele>1217</ele>
        <time>2022-03-03T13:07:20.644Z</time>
      </trkpt>
      <trkpt lat="44.16676" lon="6.1026">
        <ele>1217</ele>
        <time>2022-03-03T13:07:21.644Z</time>
      </trkpt>
      <trkpt lat="44.16676" lon="6.1026">
        <ele>1217</ele>
        <time>2022-03-03T13:07:22.644Z</time>
      </trkpt>
      <trkpt lat="44.16676" lon="6.1026">
        <ele>1217</ele>
        <time>2022-03-03T13:07:23.644Z</time>
      </trkpt>
      <trkpt lat="44.16677" lon="6.1026">
        <ele>1217</ele>
        <time>2022-03-03T13:07:24.644Z</time>
      </trkpt>
      <trkpt lat="44.16677" lon="6.1026">
        <ele>1217</ele>
        <time>2022-03-03T13:07:25.644Z</time>
      </trkpt>
      <trkpt lat="44.16677" lon="6.1026">
        <ele>1217</ele>
        <time>2022-03-03T13:07:26.644Z</time>
      </trkpt>
      <trkpt lat="44.16677" lon="6.1026">
        <ele>1217</ele>
        <time>2022-03-03T13:07:27.644Z</time>
      </trkpt>
      <trkpt lat="44.16677" lon="6.1026">
        <ele>1217</ele>
        <time>2022-03-03T13:07:28.644Z</time>
      </trkpt>
      <trkpt lat="44.16677" lon="6.1026">
        <ele>1217</ele>
        <time>2022-03-03T13:07:29.644Z</time>
      </trkpt>
      <trkpt lat="44.16677" lon="6.1026">
        <ele>1217</ele>
        <time>2022-03-03T13:07:30.644Z</time>
      </trkpt>
      <trkpt lat="44.16677" lon="6.1026">
        <ele>1217</ele>
        <time>2022-03-03T13:07:31.644Z</time>
      </trkpt>
      <trkpt lat="44.16677" lon="6.1026">
        <ele>1217</ele>
        <time>2022-03-03T13:07:32.644Z</time>
      </trkpt>
      <trkpt lat="44.16677" lon="6.1026">
        <ele>1217</ele>
        <time>2022-03-03T13:07:33.644Z</time>
      </trkpt>
      <trkpt lat="44.16677" lon="6.10259">
        <ele>1217</ele>
        <time>2022-03-03T13:07:34.644Z</time>
      </trkpt>
      <trkpt lat="44.16677" lon="6.10259">
        <ele>1217</ele>
        <time>2022-03-03T13:07:35.644Z</time>
      </trkpt>
      <trkpt lat="44.16677" lon="6.10259">
        <ele>1217</ele>
        <time>2022-03-03T13:07:36.644Z</time>
      </trkpt>
      <trkpt lat="44.16677" lon="6.10259">
        <ele>1217</ele>
        <time>2022-03-03T13:07:37.644Z</time>
      </trkpt>
      <trkpt lat="44.16677" lon="6.10259">
        <ele>1217</ele>
        <time>2022-03-03T13:07:38.644Z</time>
      </trkpt>
      <trkpt lat="44.16677" lon="6.10259">
        <ele>1217</ele>
        <time>2022-03-03T13:07:39.644Z</time>
      </trkpt>
      <trkpt lat="44.16677" lon="6.10259">
        <ele>1217</ele>
        <time>2022-03-03T13:07:40.644Z</time>
      </trkpt>
      <trkpt lat="44.16677" lon="6.1026">
        <ele>1217</ele>
        <time>2022-03-03T13:07:41.644Z</time>
      </trkpt>
      <trkpt lat="44.16676" lon="6.10259">
        <ele>1217</ele>
        <time>2022-03-03T13:07:42.644Z</time>
      </trkpt>
      <trkpt lat="44.16676" lon="6.10259">
        <ele>1217</ele>
        <time>2022-03-03T13:07:43.644Z</time>
      </trkpt>
      <trkpt lat="44.16676" lon="6.10259">
        <ele>1217</ele>
        <time>2022-03-03T13:07:44.644Z</time>
      </trkpt>
      <trkpt lat="44.16676" lon="6.10259">
        <ele>1216</ele>
        <time>2022-03-03T13:07:45.644Z</time>
      </trkpt>
      <trkpt lat="44.16676" lon="6.10259">
        <ele>1216</ele>
        <time>2022-03-03T13:07:46.644Z</time>
      </trkpt>
      <trkpt lat="44.16676" lon="6.10259">
        <ele>1216</ele>
        <time>2022-03-03T13:07:47.644Z</time>
      </trkpt>
      <trkpt lat="44.16676" lon="6.10259">
        <ele>1216</ele>
        <time>2022-03-03T13:07:48.644Z</time>
      </trkpt>
      <trkpt lat="44.16676" lon="6.10259">
        <ele>1216</ele>
        <time>2022-03-03T13:07:49.644Z</time>
      </trkpt>
      <trkpt lat="44.16676" lon="6.10259">
        <ele>1216</ele>
        <time>2022-03-03T13:07:50.644Z</time>
      </trkpt>
      <trkpt lat="44.16676" lon="6.10259">
        <ele>1216</ele>
        <time>2022-03-03T13:07:51.644Z</time>
      </trkpt>
      <trkpt lat="44.16676" lon="6.10259">
        <ele>1216</ele>
        <time>2022-03-03T13:07:52.644Z</time>
      </trkpt>
      <trkpt lat="44.16676" lon="6.10259">
        <ele>1216</ele>
        <time>2022-03-03T13:07:53.644Z</time>
      </trkpt>
      <trkpt lat="44.16676" lon="6.10259">
        <ele>1216</ele>
        <time>2022-03-03T13:07:54.644Z</time>
      </trkpt>
      <trkpt lat="44.16676" lon="6.10259">
        <ele>1216</ele>
        <time>2022-03-03T13:07:55.644Z</time>
      </trkpt>
      <trkpt lat="44.16676" lon="6.10259">
        <ele>1216</ele>
        <time>2022-03-03T13:07:56.644Z</time>
      </trkpt>
      <trkpt lat="44.16676" lon="6.10258">
        <ele>1216</ele>
        <time>2022-03-03T13:07:57.644Z</time>
      </trkpt>
      <trkpt lat="44.16676" lon="6.10259">
        <ele>1216</ele>
        <time>2022-03-03T13:07:58.644Z</time>
      </trkpt>
      <trkpt lat="44.16676" lon="6.10259">
        <ele>1216</ele>
        <time>2022-03-03T13:07:59.644Z</time>
      </trkpt>
      <trkpt lat="44.16676" lon="6.10258">
        <ele>1216</ele>
        <time>2022-03-03T13:08:00.644Z</time>
      </trkpt>
      <trkpt lat="44.16676" lon="6.10258">
        <ele>1216</ele>
        <time>2022-03-03T13:08:01.644Z</time>
      </trkpt>
      <trkpt lat="44.16676" lon="6.10258">
        <ele>1216</ele>
        <time>2022-03-03T13:08:02.644Z</time>
      </trkpt>
      <trkpt lat="44.16676" lon="6.10258">
        <ele>1216</ele>
        <time>2022-03-03T13:08:03.644Z</time>
      </trkpt>
      <trkpt lat="44.16676" lon="6.10259">
        <ele>1216</ele>
        <time>2022-03-03T13:08:04.644Z</time>
      </trkpt>
      <trkpt lat="44.16676" lon="6.1026">
        <ele>1216</ele>
        <time>2022-03-03T13:08:05.644Z</time>
      </trkpt>
      <trkpt lat="44.16676" lon="6.1026">
        <ele>1215</ele>
        <time>2022-03-03T13:08:06.644Z</time>
      </trkpt>
      <trkpt lat="44.16676" lon="6.1026">
        <ele>1215</ele>
        <time>2022-03-03T13:08:07.644Z</time>
      </trkpt>
      <trkpt lat="44.16676" lon="6.1026">
        <ele>1215</ele>
        <time>2022-03-03T13:08:08.644Z</time>
      </trkpt>
      <trkpt lat="44.16676" lon="6.1026">
        <ele>1215</ele>
        <time>2022-03-03T13:08:09.644Z</time>
      </trkpt>
      <trkpt lat="44.16676" lon="6.1026">
        <ele>1215</ele>
        <time>2022-03-03T13:08:10.644Z</time>
      </trkpt>
      <trkpt lat="44.16676" lon="6.1026">
        <ele>1215</ele>
        <time>2022-03-03T13:08:11.644Z</time>
      </trkpt>
      <trkpt lat="44.16676" lon="6.1026">
        <ele>1215</ele>
        <time>2022-03-03T13:08:12.644Z</time>
      </trkpt>
      <trkpt lat="44.16676" lon="6.1026">
        <ele>1215</ele>
        <time>2022-03-03T13:08:13.644Z</time>
      </trkpt>
      <trkpt lat="44.16676" lon="6.1026">
        <ele>1215</ele>
        <time>2022-03-03T13:08:14.644Z</time>
      </trkpt>
      <trkpt lat="44.16676" lon="6.1026">
        <ele>1215</ele>
        <time>2022-03-03T13:08:15.644Z</time>
      </trkpt>
      <trkpt lat="44.16676" lon="6.1026">
        <ele>1215</ele>
        <time>2022-03-03T13:08:16.644Z</time>
      </trkpt>
      <trkpt lat="44.16676" lon="6.1026">
        <ele>1215</ele>
        <time>2022-03-03T13:08:17.644Z</time>
      </trkpt>
      <trkpt lat="44.16676" lon="6.1026">
        <ele>1215</ele>
        <time>2022-03-03T13:08:18.644Z</time>
      </trkpt>
      <trkpt lat="44.16676" lon="6.1026">
        <ele>1215</ele>
        <time>2022-03-03T13:08:19.644Z</time>
      </trkpt>
      <trkpt lat="44.16676" lon="6.1026">
        <ele>1215</ele>
        <time>2022-03-03T13:08:20.644Z</time>
      </trkpt>
      <trkpt lat="44.16676" lon="6.1026">
        <ele>1215</ele>
        <time>2022-03-03T13:08:21.644Z</time>
      </trkpt>
      <trkpt lat="44.16676" lon="6.1026">
        <ele>1215</ele>
        <time>2022-03-03T13:08:22.644Z</time>
      </trkpt>
      <trkpt lat="44.16676" lon="6.1026">
        <ele>1215</ele>
        <time>2022-03-03T13:08:23.644Z</time>
      </trkpt>
      <trkpt lat="44.16676" lon="6.10259">
        <ele>1215</ele>
        <time>2022-03-03T13:08:24.644Z</time>
      </trkpt>
      <trkpt lat="44.16676" lon="6.10259">
        <ele>1215</ele>
        <time>2022-03-03T13:08:25.644Z</time>
      </trkpt>
      <trkpt lat="44.16676" lon="6.10259">
        <ele>1215</ele>
        <time>2022-03-03T13:08:26.644Z</time>
      </trkpt>
      <trkpt lat="44.16676" lon="6.10259">
        <ele>1215</ele>
        <time>2022-03-03T13:08:27.644Z</time>
      </trkpt>
      <trkpt lat="44.16676" lon="6.10259">
        <ele>1215</ele>
        <time>2022-03-03T13:08:28.644Z</time>
      </trkpt>
      <trkpt lat="44.16676" lon="6.10259">
        <ele>1215</ele>
        <time>2022-03-03T13:08:29.644Z</time>
      </trkpt>
      <trkpt lat="44.16676" lon="6.10259">
        <ele>1215</ele>
        <time>2022-03-03T13:08:30.644Z</time>
      </trkpt>
      <trkpt lat="44.16676" lon="6.1026">
        <ele>1215</ele>
        <time>2022-03-03T13:08:31.644Z</time>
      </trkpt>
      <trkpt lat="44.16676" lon="6.1026">
        <ele>1215</ele>
        <time>2022-03-03T13:08:32.644Z</time>
      </trkpt>
      <trkpt lat="44.16676" lon="6.1026">
        <ele>1215</ele>
        <time>2022-03-03T13:08:33.644Z</time>
      </trkpt>
      <trkpt lat="44.16676" lon="6.1026">
        <ele>1215</ele>
        <time>2022-03-03T13:08:34.644Z</time>
      </trkpt>
      <trkpt lat="44.16676" lon="6.1026">
        <ele>1215</ele>
        <time>2022-03-03T13:08:35.644Z</time>
      </trkpt>
      <trkpt lat="44.16676" lon="6.1026">
        <ele>1215</ele>
        <time>2022-03-03T13:08:36.644Z</time>
      </trkpt>
      <trkpt lat="44.16676" lon="6.1026">
        <ele>1215</ele>
        <time>2022-03-03T13:08:37.644Z</time>
      </trkpt>
      <trkpt lat="44.16676" lon="6.1026">
        <ele>1215</ele>
        <time>2022-03-03T13:08:38.644Z</time>
      </trkpt>
      <trkpt lat="44.16676" lon="6.1026">
        <ele>1215</ele>
        <time>2022-03-03T13:08:39.644Z</time>
      </trkpt>
      <trkpt lat="44.16676" lon="6.1026">
        <ele>1215</ele>
        <time>2022-03-03T13:08:40.644Z</time>
      </trkpt>
      <trkpt lat="44.16676" lon="6.1026">
        <ele>1215</ele>
        <time>2022-03-03T13:08:41.644Z</time>
      </trkpt>
      <trkpt lat="44.16676" lon="6.1026">
        <ele>1215</ele>
        <time>2022-03-03T13:08:42.644Z</time>
      </trkpt>
      <trkpt lat="44.16676" lon="6.1026">
        <ele>1215</ele>
        <time>2022-03-03T13:08:43.644Z</time>
      </trkpt>
      <trkpt lat="44.16676" lon="6.1026">
        <ele>1215</ele>
        <time>2022-03-03T13:08:44.644Z</time>
      </trkpt>
      <trkpt lat="44.16676" lon="6.1026">
        <ele>1215</ele>
        <time>2022-03-03T13:08:45.644Z</time>
      </trkpt>
      <trkpt lat="44.16676" lon="6.1026">
        <ele>1215</ele>
        <time>2022-03-03T13:08:46.644Z</time>
      </trkpt>
      <trkpt lat="44.16676" lon="6.1026">
        <ele>1215</ele>
        <time>2022-03-03T13:08:47.644Z</time>
      </trkpt>
      <trkpt lat="44.16676" lon="6.1026">
        <ele>1215</ele>
        <time>2022-03-03T13:08:48.644Z</time>
      </trkpt>
      <trkpt lat="44.16676" lon="6.1026">
        <ele>1215</ele>
        <time>2022-03-03T13:08:49.644Z</time>
      </trkpt>
      <trkpt lat="44.16676" lon="6.1026">
        <ele>1215</ele>
        <time>2022-03-03T13:08:50.644Z</time>
      </trkpt>
      <trkpt lat="44.16676" lon="6.1026">
        <ele>1215</ele>
        <time>2022-03-03T13:08:51.644Z</time>
      </trkpt>
      <trkpt lat="44.16676" lon="6.10261">
        <ele>1215</ele>
        <time>2022-03-03T13:08:52.644Z</time>
      </trkpt>
      <trkpt lat="44.16676" lon="6.10262">
        <ele>1215</ele>
        <time>2022-03-03T13:08:53.644Z</time>
      </trkpt>
      <trkpt lat="44.16676" lon="6.10263">
        <ele>1215</ele>
        <time>2022-03-03T13:08:54.644Z</time>
      </trkpt>
      <trkpt lat="44.16676" lon="6.10265">
        <ele>1215</ele>
        <time>2022-03-03T13:08:55.644Z</time>
      </trkpt>
      <trkpt lat="44.16676" lon="6.10266">
        <ele>1215</ele>
        <time>2022-03-03T13:08:56.644Z</time>
      </trkpt>
      <trkpt lat="44.16676" lon="6.10267">
        <ele>1215</ele>
        <time>2022-03-03T13:08:57.644Z</time>
      </trkpt>
      <trkpt lat="44.16676" lon="6.10269">
        <ele>1215</ele>
        <time>2022-03-03T13:08:58.644Z</time>
      </trkpt>
      <trkpt lat="44.16676" lon="6.1027">
        <ele>1215</ele>
        <time>2022-03-03T13:08:59.644Z</time>
      </trkpt>
      <trkpt lat="44.16675" lon="6.10272">
        <ele>1215</ele>
        <time>2022-03-03T13:09:00.644Z</time>
      </trkpt>
      <trkpt lat="44.16675" lon="6.10273">
        <ele>1215</ele>
        <time>2022-03-03T13:09:01.644Z</time>
      </trkpt>
      <trkpt lat="44.16675" lon="6.10275">
        <ele>1215</ele>
        <time>2022-03-03T13:09:02.644Z</time>
      </trkpt>
      <trkpt lat="44.16675" lon="6.10276">
        <ele>1215</ele>
        <time>2022-03-03T13:09:03.644Z</time>
      </trkpt>
      <trkpt lat="44.16674" lon="6.10278">
        <ele>1215</ele>
        <time>2022-03-03T13:09:04.644Z</time>
      </trkpt>
      <trkpt lat="44.16674" lon="6.10279">
        <ele>1215</ele>
        <time>2022-03-03T13:09:05.644Z</time>
      </trkpt>
      <trkpt lat="44.16674" lon="6.10281">
        <ele>1215</ele>
        <time>2022-03-03T13:09:06.644Z</time>
      </trkpt>
      <trkpt lat="44.16673" lon="6.10282">
        <ele>1215</ele>
        <time>2022-03-03T13:09:07.644Z</time>
      </trkpt>
      <trkpt lat="44.16673" lon="6.10284">
        <ele>1215</ele>
        <time>2022-03-03T13:09:08.644Z</time>
      </trkpt>
      <trkpt lat="44.16673" lon="6.10285">
        <ele>1215</ele>
        <time>2022-03-03T13:09:09.644Z</time>
      </trkpt>
      <trkpt lat="44.16672" lon="6.10286">
        <ele>1215</ele>
        <time>2022-03-03T13:09:10.644Z</time>
      </trkpt>
      <trkpt lat="44.16672" lon="6.10288">
        <ele>1215</ele>
        <time>2022-03-03T13:09:11.644Z</time>
      </trkpt>
      <trkpt lat="44.16671" lon="6.10289">
        <ele>1215</ele>
        <time>2022-03-03T13:09:12.644Z</time>
      </trkpt>
      <trkpt lat="44.16671" lon="6.10291">
        <ele>1215</ele>
        <time>2022-03-03T13:09:13.644Z</time>
      </trkpt>
      <trkpt lat="44.16671" lon="6.10292">
        <ele>1215</ele>
        <time>2022-03-03T13:09:14.644Z</time>
      </trkpt>
      <trkpt lat="44.16671" lon="6.10294">
        <ele>1215</ele>
        <time>2022-03-03T13:09:15.644Z</time>
      </trkpt>
      <trkpt lat="44.1667" lon="6.10295">
        <ele>1215</ele>
        <time>2022-03-03T13:09:16.644Z</time>
      </trkpt>
      <trkpt lat="44.1667" lon="6.10297">
        <ele>1215</ele>
        <time>2022-03-03T13:09:17.644Z</time>
      </trkpt>
      <trkpt lat="44.1667" lon="6.10298">
        <ele>1215</ele>
        <time>2022-03-03T13:09:18.644Z</time>
      </trkpt>
      <trkpt lat="44.16669" lon="6.103">
        <ele>1215</ele>
        <time>2022-03-03T13:09:19.644Z</time>
      </trkpt>
      <trkpt lat="44.16669" lon="6.10301">
        <ele>1214</ele>
        <time>2022-03-03T13:09:20.644Z</time>
      </trkpt>
      <trkpt lat="44.16668" lon="6.10303">
        <ele>1214</ele>
        <time>2022-03-03T13:09:21.644Z</time>
      </trkpt>
      <trkpt lat="44.16668" lon="6.10304">
        <ele>1214</ele>
        <time>2022-03-03T13:09:22.644Z</time>
      </trkpt>
      <trkpt lat="44.16667" lon="6.10305">
        <ele>1214</ele>
        <time>2022-03-03T13:09:23.644Z</time>
      </trkpt>
      <trkpt lat="44.16667" lon="6.10307">
        <ele>1214</ele>
        <time>2022-03-03T13:09:24.644Z</time>
      </trkpt>
      <trkpt lat="44.16666" lon="6.10308">
        <ele>1214</ele>
        <time>2022-03-03T13:09:25.644Z</time>
      </trkpt>
      <trkpt lat="44.16665" lon="6.1031">
        <ele>1214</ele>
        <time>2022-03-03T13:09:26.644Z</time>
      </trkpt>
      <trkpt lat="44.16665" lon="6.10311">
        <ele>1214</ele>
        <time>2022-03-03T13:09:27.644Z</time>
      </trkpt>
      <trkpt lat="44.16664" lon="6.10313">
        <ele>1214</ele>
        <time>2022-03-03T13:09:28.644Z</time>
      </trkpt>
      <trkpt lat="44.16664" lon="6.10314">
        <ele>1214</ele>
        <time>2022-03-03T13:09:29.644Z</time>
      </trkpt>
      <trkpt lat="44.16664" lon="6.10316">
        <ele>1214</ele>
        <time>2022-03-03T13:09:30.644Z</time>
      </trkpt>
      <trkpt lat="44.16663" lon="6.10317">
        <ele>1214</ele>
        <time>2022-03-03T13:09:31.644Z</time>
      </trkpt>
      <trkpt lat="44.16663" lon="6.10319">
        <ele>1214</ele>
        <time>2022-03-03T13:09:32.644Z</time>
      </trkpt>
      <trkpt lat="44.16662" lon="6.1032">
        <ele>1214</ele>
        <time>2022-03-03T13:09:33.644Z</time>
      </trkpt>
      <trkpt lat="44.16662" lon="6.10322">
        <ele>1214</ele>
        <time>2022-03-03T13:09:34.644Z</time>
      </trkpt>
      <trkpt lat="44.16661" lon="6.10323">
        <ele>1214</ele>
        <time>2022-03-03T13:09:35.644Z</time>
      </trkpt>
      <trkpt lat="44.1666" lon="6.10325">
        <ele>1214</ele>
        <time>2022-03-03T13:09:36.644Z</time>
      </trkpt>
      <trkpt lat="44.1666" lon="6.10326">
        <ele>1214</ele>
        <time>2022-03-03T13:09:37.644Z</time>
      </trkpt>
      <trkpt lat="44.16659" lon="6.10328">
        <ele>1214</ele>
        <time>2022-03-03T13:09:38.644Z</time>
      </trkpt>
      <trkpt lat="44.16659" lon="6.10329">
        <ele>1214</ele>
        <time>2022-03-03T13:09:39.644Z</time>
      </trkpt>
      <trkpt lat="44.16659" lon="6.10331">
        <ele>1214</ele>
        <time>2022-03-03T13:09:40.644Z</time>
      </trkpt>
      <trkpt lat="44.16658" lon="6.10333">
        <ele>1214</ele>
        <time>2022-03-03T13:09:41.644Z</time>
      </trkpt>
      <trkpt lat="44.16657" lon="6.10335">
        <ele>1214</ele>
        <time>2022-03-03T13:09:42.644Z</time>
      </trkpt>
      <trkpt lat="44.16657" lon="6.10336">
        <ele>1214</ele>
        <time>2022-03-03T13:09:43.644Z</time>
      </trkpt>
      <trkpt lat="44.16657" lon="6.10337">
        <ele>1214</ele>
        <time>2022-03-03T13:09:44.644Z</time>
      </trkpt>
      <trkpt lat="44.16656" lon="6.10339">
        <ele>1214</ele>
        <time>2022-03-03T13:09:45.644Z</time>
      </trkpt>
      <trkpt lat="44.16656" lon="6.1034">
        <ele>1214</ele>
        <time>2022-03-03T13:09:46.644Z</time>
      </trkpt>
      <trkpt lat="44.16655" lon="6.10342">
        <ele>1214</ele>
        <time>2022-03-03T13:09:47.644Z</time>
      </trkpt>
      <trkpt lat="44.16655" lon="6.10343">
        <ele>1214</ele>
        <time>2022-03-03T13:09:48.644Z</time>
      </trkpt>
      <trkpt lat="44.16654" lon="6.10344">
        <ele>1214</ele>
        <time>2022-03-03T13:09:49.644Z</time>
      </trkpt>
      <trkpt lat="44.16654" lon="6.10346">
        <ele>1214</ele>
        <time>2022-03-03T13:09:50.644Z</time>
      </trkpt>
      <trkpt lat="44.16653" lon="6.10347">
        <ele>1214</ele>
        <time>2022-03-03T13:09:51.644Z</time>
      </trkpt>
      <trkpt lat="44.16653" lon="6.10349">
        <ele>1214</ele>
        <time>2022-03-03T13:09:52.644Z</time>
      </trkpt>
      <trkpt lat="44.16652" lon="6.1035">
        <ele>1214</ele>
        <time>2022-03-03T13:09:53.644Z</time>
      </trkpt>
      <trkpt lat="44.16652" lon="6.10351">
        <ele>1214</ele>
        <time>2022-03-03T13:09:54.644Z</time>
      </trkpt>
      <trkpt lat="44.16651" lon="6.10352">
        <ele>1214</ele>
        <time>2022-03-03T13:09:55.644Z</time>
      </trkpt>
      <trkpt lat="44.16651" lon="6.10354">
        <ele>1215</ele>
        <time>2022-03-03T13:09:56.644Z</time>
      </trkpt>
      <trkpt lat="44.1665" lon="6.10355">
        <ele>1215</ele>
        <time>2022-03-03T13:09:57.644Z</time>
      </trkpt>
      <trkpt lat="44.1665" lon="6.10356">
        <ele>1215</ele>
        <time>2022-03-03T13:09:58.644Z</time>
      </trkpt>
      <trkpt lat="44.1665" lon="6.10357">
        <ele>1215</ele>
        <time>2022-03-03T13:09:59.644Z</time>
      </trkpt>
      <trkpt lat="44.16649" lon="6.10358">
        <ele>1215</ele>
        <time>2022-03-03T13:10:00.644Z</time>
      </trkpt>
      <trkpt lat="44.16649" lon="6.10359">
        <ele>1215</ele>
        <time>2022-03-03T13:10:01.644Z</time>
      </trkpt>
      <trkpt lat="44.16649" lon="6.1036">
        <ele>1215</ele>
        <time>2022-03-03T13:10:02.644Z</time>
      </trkpt>
      <trkpt lat="44.16648" lon="6.10361">
        <ele>1215</ele>
        <time>2022-03-03T13:10:03.644Z</time>
      </trkpt>
      <trkpt lat="44.16648" lon="6.10362">
        <ele>1215</ele>
        <time>2022-03-03T13:10:04.644Z</time>
      </trkpt>
      <trkpt lat="44.16648" lon="6.10363">
        <ele>1215</ele>
        <time>2022-03-03T13:10:05.644Z</time>
      </trkpt>
      <trkpt lat="44.16647" lon="6.10364">
        <ele>1215</ele>
        <time>2022-03-03T13:10:06.644Z</time>
      </trkpt>
      <trkpt lat="44.16646" lon="6.10365">
        <ele>1215</ele>
        <time>2022-03-03T13:10:07.644Z</time>
      </trkpt>
      <trkpt lat="44.16646" lon="6.10366">
        <ele>1215</ele>
        <time>2022-03-03T13:10:08.644Z</time>
      </trkpt>
      <trkpt lat="44.16645" lon="6.10367">
        <ele>1215</ele>
        <time>2022-03-03T13:10:09.644Z</time>
      </trkpt>
      <trkpt lat="44.16645" lon="6.10368">
        <ele>1215</ele>
        <time>2022-03-03T13:10:10.644Z</time>
      </trkpt>
      <trkpt lat="44.16644" lon="6.1037">
        <ele>1215</ele>
        <time>2022-03-03T13:10:11.644Z</time>
      </trkpt>
      <trkpt lat="44.16644" lon="6.10371">
        <ele>1215</ele>
        <time>2022-03-03T13:10:12.644Z</time>
      </trkpt>
      <trkpt lat="44.16643" lon="6.10372">
        <ele>1215</ele>
        <time>2022-03-03T13:10:13.644Z</time>
      </trkpt>
      <trkpt lat="44.16643" lon="6.10373">
        <ele>1216</ele>
        <time>2022-03-03T13:10:14.644Z</time>
      </trkpt>
      <trkpt lat="44.16642" lon="6.10374">
        <ele>1216</ele>
        <time>2022-03-03T13:10:15.644Z</time>
      </trkpt>
      <trkpt lat="44.16641" lon="6.10376">
        <ele>1216</ele>
        <time>2022-03-03T13:10:16.644Z</time>
      </trkpt>
      <trkpt lat="44.16641" lon="6.10377">
        <ele>1216</ele>
        <time>2022-03-03T13:10:17.644Z</time>
      </trkpt>
      <trkpt lat="44.1664" lon="6.10378">
        <ele>1216</ele>
        <time>2022-03-03T13:10:18.644Z</time>
      </trkpt>
      <trkpt lat="44.16639" lon="6.1038">
        <ele>1216</ele>
        <time>2022-03-03T13:10:19.644Z</time>
      </trkpt>
      <trkpt lat="44.16638" lon="6.10381">
        <ele>1216</ele>
        <time>2022-03-03T13:10:20.644Z</time>
      </trkpt>
      <trkpt lat="44.16638" lon="6.10382">
        <ele>1216</ele>
        <time>2022-03-03T13:10:21.644Z</time>
      </trkpt>
      <trkpt lat="44.16637" lon="6.10383">
        <ele>1216</ele>
        <time>2022-03-03T13:10:22.644Z</time>
      </trkpt>
      <trkpt lat="44.16636" lon="6.10385">
        <ele>1216</ele>
        <time>2022-03-03T13:10:23.644Z</time>
      </trkpt>
      <trkpt lat="44.16636" lon="6.10386">
        <ele>1216</ele>
        <time>2022-03-03T13:10:24.644Z</time>
      </trkpt>
      <trkpt lat="44.16635" lon="6.10387">
        <ele>1216</ele>
        <time>2022-03-03T13:10:25.644Z</time>
      </trkpt>
      <trkpt lat="44.16635" lon="6.10388">
        <ele>1217</ele>
        <time>2022-03-03T13:10:26.644Z</time>
      </trkpt>
      <trkpt lat="44.16634" lon="6.10389">
        <ele>1217</ele>
        <time>2022-03-03T13:10:27.644Z</time>
      </trkpt>
      <trkpt lat="44.16633" lon="6.10391">
        <ele>1217</ele>
        <time>2022-03-03T13:10:28.644Z</time>
      </trkpt>
      <trkpt lat="44.16633" lon="6.10392">
        <ele>1217</ele>
        <time>2022-03-03T13:10:29.644Z</time>
      </trkpt>
      <trkpt lat="44.16632" lon="6.10393">
        <ele>1217</ele>
        <time>2022-03-03T13:10:30.644Z</time>
      </trkpt>
      <trkpt lat="44.16631" lon="6.10394">
        <ele>1217</ele>
        <time>2022-03-03T13:10:31.644Z</time>
      </trkpt>
      <trkpt lat="44.1663" lon="6.10395">
        <ele>1217</ele>
        <time>2022-03-03T13:10:32.644Z</time>
      </trkpt>
      <trkpt lat="44.1663" lon="6.10396">
        <ele>1217</ele>
        <time>2022-03-03T13:10:33.644Z</time>
      </trkpt>
      <trkpt lat="44.16629" lon="6.10397">
        <ele>1217</ele>
        <time>2022-03-03T13:10:34.644Z</time>
      </trkpt>
      <trkpt lat="44.16629" lon="6.10398">
        <ele>1217</ele>
        <time>2022-03-03T13:10:35.644Z</time>
      </trkpt>
      <trkpt lat="44.16628" lon="6.10399">
        <ele>1217</ele>
        <time>2022-03-03T13:10:36.644Z</time>
      </trkpt>
      <trkpt lat="44.16628" lon="6.10399">
        <ele>1218</ele>
        <time>2022-03-03T13:10:37.644Z</time>
      </trkpt>
      <trkpt lat="44.16627" lon="6.104">
        <ele>1218</ele>
        <time>2022-03-03T13:10:38.644Z</time>
      </trkpt>
      <trkpt lat="44.16627" lon="6.10401">
        <ele>1218</ele>
        <time>2022-03-03T13:10:39.644Z</time>
      </trkpt>
      <trkpt lat="44.16626" lon="6.10402">
        <ele>1218</ele>
        <time>2022-03-03T13:10:40.644Z</time>
      </trkpt>
      <trkpt lat="44.16626" lon="6.10403">
        <ele>1218</ele>
        <time>2022-03-03T13:10:41.644Z</time>
      </trkpt>
      <trkpt lat="44.16625" lon="6.10404">
        <ele>1218</ele>
        <time>2022-03-03T13:10:42.644Z</time>
      </trkpt>
      <trkpt lat="44.16625" lon="6.10405">
        <ele>1218</ele>
        <time>2022-03-03T13:10:43.644Z</time>
      </trkpt>
      <trkpt lat="44.16624" lon="6.10406">
        <ele>1218</ele>
        <time>2022-03-03T13:10:44.644Z</time>
      </trkpt>
      <trkpt lat="44.16624" lon="6.10407">
        <ele>1218</ele>
        <time>2022-03-03T13:10:45.644Z</time>
      </trkpt>
      <trkpt lat="44.16623" lon="6.10408">
        <ele>1219</ele>
        <time>2022-03-03T13:10:46.644Z</time>
      </trkpt>
      <trkpt lat="44.16623" lon="6.10408">
        <ele>1219</ele>
        <time>2022-03-03T13:10:47.644Z</time>
      </trkpt>
      <trkpt lat="44.16623" lon="6.1041">
        <ele>1219</ele>
        <time>2022-03-03T13:10:48.644Z</time>
      </trkpt>
      <trkpt lat="44.16622" lon="6.10411">
        <ele>1219</ele>
        <time>2022-03-03T13:10:49.644Z</time>
      </trkpt>
      <trkpt lat="44.16622" lon="6.10411">
        <ele>1220</ele>
        <time>2022-03-03T13:10:50.644Z</time>
      </trkpt>
      <trkpt lat="44.16622" lon="6.10412">
        <ele>1220</ele>
        <time>2022-03-03T13:10:51.644Z</time>
      </trkpt>
      <trkpt lat="44.16621" lon="6.10414">
        <ele>1220</ele>
        <time>2022-03-03T13:10:52.644Z</time>
      </trkpt>
      <trkpt lat="44.1662" lon="6.10414">
        <ele>1220</ele>
        <time>2022-03-03T13:10:53.644Z</time>
      </trkpt>
      <trkpt lat="44.1662" lon="6.10415">
        <ele>1220</ele>
        <time>2022-03-03T13:10:54.644Z</time>
      </trkpt>
      <trkpt lat="44.1662" lon="6.10416">
        <ele>1220</ele>
        <time>2022-03-03T13:10:55.644Z</time>
      </trkpt>
      <trkpt lat="44.1662" lon="6.10417">
        <ele>1220</ele>
        <time>2022-03-03T13:10:56.644Z</time>
      </trkpt>
      <trkpt lat="44.16619" lon="6.10418">
        <ele>1221</ele>
        <time>2022-03-03T13:10:57.644Z</time>
      </trkpt>
      <trkpt lat="44.16619" lon="6.10419">
        <ele>1221</ele>
        <time>2022-03-03T13:10:58.644Z</time>
      </trkpt>
      <trkpt lat="44.16618" lon="6.1042">
        <ele>1221</ele>
        <time>2022-03-03T13:10:59.644Z</time>
      </trkpt>
      <trkpt lat="44.16618" lon="6.10421">
        <ele>1221</ele>
        <time>2022-03-03T13:11:00.644Z</time>
      </trkpt>
      <trkpt lat="44.16617" lon="6.10422">
        <ele>1221</ele>
        <time>2022-03-03T13:11:01.644Z</time>
      </trkpt>
      <trkpt lat="44.16617" lon="6.10423">
        <ele>1221</ele>
        <time>2022-03-03T13:11:02.644Z</time>
      </trkpt>
      <trkpt lat="44.16616" lon="6.10424">
        <ele>1221</ele>
        <time>2022-03-03T13:11:03.644Z</time>
      </trkpt>
      <trkpt lat="44.16616" lon="6.10425">
        <ele>1221</ele>
        <time>2022-03-03T13:11:04.644Z</time>
      </trkpt>
      <trkpt lat="44.16616" lon="6.10426">
        <ele>1221</ele>
        <time>2022-03-03T13:11:05.644Z</time>
      </trkpt>
      <trkpt lat="44.16615" lon="6.10427">
        <ele>1221</ele>
        <time>2022-03-03T13:11:06.644Z</time>
      </trkpt>
      <trkpt lat="44.16615" lon="6.10428">
        <ele>1221</ele>
        <time>2022-03-03T13:11:07.644Z</time>
      </trkpt>
      <trkpt lat="44.16615" lon="6.10429">
        <ele>1221</ele>
        <time>2022-03-03T13:11:08.644Z</time>
      </trkpt>
      <trkpt lat="44.16615" lon="6.10431">
        <ele>1222</ele>
        <time>2022-03-03T13:11:09.644Z</time>
      </trkpt>
      <trkpt lat="44.16615" lon="6.10432">
        <ele>1222</ele>
        <time>2022-03-03T13:11:10.644Z</time>
      </trkpt>
      <trkpt lat="44.16614" lon="6.10433">
        <ele>1222</ele>
        <time>2022-03-03T13:11:11.644Z</time>
      </trkpt>
      <trkpt lat="44.16614" lon="6.10434">
        <ele>1222</ele>
        <time>2022-03-03T13:11:12.644Z</time>
      </trkpt>
      <trkpt lat="44.16614" lon="6.10435">
        <ele>1222</ele>
        <time>2022-03-03T13:11:13.644Z</time>
      </trkpt>
      <trkpt lat="44.16613" lon="6.10436">
        <ele>1222</ele>
        <time>2022-03-03T13:11:14.644Z</time>
      </trkpt>
      <trkpt lat="44.16614" lon="6.10438">
        <ele>1222</ele>
        <time>2022-03-03T13:11:15.644Z</time>
      </trkpt>
      <trkpt lat="44.16614" lon="6.10439">
        <ele>1222</ele>
        <time>2022-03-03T13:11:16.644Z</time>
      </trkpt>
      <trkpt lat="44.16614" lon="6.1044">
        <ele>1222</ele>
        <time>2022-03-03T13:11:17.644Z</time>
      </trkpt>
      <trkpt lat="44.16614" lon="6.10442">
        <ele>1222</ele>
        <time>2022-03-03T13:11:18.644Z</time>
      </trkpt>
      <trkpt lat="44.16614" lon="6.10443">
        <ele>1222</ele>
        <time>2022-03-03T13:11:19.644Z</time>
      </trkpt>
      <trkpt lat="44.16615" lon="6.10444">
        <ele>1223</ele>
        <time>2022-03-03T13:11:20.644Z</time>
      </trkpt>
      <trkpt lat="44.16615" lon="6.10446">
        <ele>1223</ele>
        <time>2022-03-03T13:11:21.644Z</time>
      </trkpt>
      <trkpt lat="44.16615" lon="6.10447">
        <ele>1223</ele>
        <time>2022-03-03T13:11:22.644Z</time>
      </trkpt>
      <trkpt lat="44.16615" lon="6.10449">
        <ele>1223</ele>
        <time>2022-03-03T13:11:23.644Z</time>
      </trkpt>
      <trkpt lat="44.16615" lon="6.1045">
        <ele>1223</ele>
        <time>2022-03-03T13:11:24.644Z</time>
      </trkpt>
      <trkpt lat="44.16615" lon="6.10452">
        <ele>1223</ele>
        <time>2022-03-03T13:11:25.644Z</time>
      </trkpt>
      <trkpt lat="44.16614" lon="6.10453">
        <ele>1223</ele>
        <time>2022-03-03T13:11:26.644Z</time>
      </trkpt>
      <trkpt lat="44.16614" lon="6.10455">
        <ele>1224</ele>
        <time>2022-03-03T13:11:27.644Z</time>
      </trkpt>
      <trkpt lat="44.16614" lon="6.10456">
        <ele>1224</ele>
        <time>2022-03-03T13:11:28.644Z</time>
      </trkpt>
      <trkpt lat="44.16614" lon="6.10457">
        <ele>1224</ele>
        <time>2022-03-03T13:11:29.644Z</time>
      </trkpt>
      <trkpt lat="44.16614" lon="6.10458">
        <ele>1224</ele>
        <time>2022-03-03T13:11:30.644Z</time>
      </trkpt>
      <trkpt lat="44.16614" lon="6.10459">
        <ele>1224</ele>
        <time>2022-03-03T13:11:31.644Z</time>
      </trkpt>
      <trkpt lat="44.16614" lon="6.10461">
        <ele>1224</ele>
        <time>2022-03-03T13:11:32.644Z</time>
      </trkpt>
      <trkpt lat="44.16614" lon="6.10462">
        <ele>1224</ele>
        <time>2022-03-03T13:11:33.644Z</time>
      </trkpt>
      <trkpt lat="44.16614" lon="6.10463">
        <ele>1224</ele>
        <time>2022-03-03T13:11:34.644Z</time>
      </trkpt>
      <trkpt lat="44.16614" lon="6.10465">
        <ele>1225</ele>
        <time>2022-03-03T13:11:35.644Z</time>
      </trkpt>
      <trkpt lat="44.16614" lon="6.10466">
        <ele>1225</ele>
        <time>2022-03-03T13:11:36.644Z</time>
      </trkpt>
      <trkpt lat="44.16613" lon="6.10468">
        <ele>1225</ele>
        <time>2022-03-03T13:11:37.644Z</time>
      </trkpt>
      <trkpt lat="44.16613" lon="6.10469">
        <ele>1225</ele>
        <time>2022-03-03T13:11:38.644Z</time>
      </trkpt>
      <trkpt lat="44.16612" lon="6.1047">
        <ele>1225</ele>
        <time>2022-03-03T13:11:39.644Z</time>
      </trkpt>
      <trkpt lat="44.16611" lon="6.10472">
        <ele>1225</ele>
        <time>2022-03-03T13:11:40.644Z</time>
      </trkpt>
      <trkpt lat="44.16611" lon="6.10473">
        <ele>1225</ele>
        <time>2022-03-03T13:11:41.644Z</time>
      </trkpt>
      <trkpt lat="44.1661" lon="6.10474">
        <ele>1225</ele>
        <time>2022-03-03T13:11:42.644Z</time>
      </trkpt>
      <trkpt lat="44.1661" lon="6.10476">
        <ele>1225</ele>
        <time>2022-03-03T13:11:43.644Z</time>
      </trkpt>
      <trkpt lat="44.1661" lon="6.10478">
        <ele>1225</ele>
        <time>2022-03-03T13:11:44.644Z</time>
      </trkpt>
      <trkpt lat="44.1661" lon="6.10479">
        <ele>1225</ele>
        <time>2022-03-03T13:11:45.644Z</time>
      </trkpt>
      <trkpt lat="44.16609" lon="6.1048">
        <ele>1225</ele>
        <time>2022-03-03T13:11:46.644Z</time>
      </trkpt>
      <trkpt lat="44.16609" lon="6.10482">
        <ele>1225</ele>
        <time>2022-03-03T13:11:47.644Z</time>
      </trkpt>
      <trkpt lat="44.16609" lon="6.10483">
        <ele>1225</ele>
        <time>2022-03-03T13:11:48.644Z</time>
      </trkpt>
      <trkpt lat="44.16609" lon="6.10484">
        <ele>1226</ele>
        <time>2022-03-03T13:11:49.644Z</time>
      </trkpt>
      <trkpt lat="44.16609" lon="6.10486">
        <ele>1226</ele>
        <time>2022-03-03T13:11:50.644Z</time>
      </trkpt>
      <trkpt lat="44.16609" lon="6.10487">
        <ele>1226</ele>
        <time>2022-03-03T13:11:51.644Z</time>
      </trkpt>
      <trkpt lat="44.16609" lon="6.10488">
        <ele>1226</ele>
        <time>2022-03-03T13:11:52.644Z</time>
      </trkpt>
      <trkpt lat="44.16609" lon="6.1049">
        <ele>1226</ele>
        <time>2022-03-03T13:11:53.644Z</time>
      </trkpt>
      <trkpt lat="44.16609" lon="6.10491">
        <ele>1226</ele>
        <time>2022-03-03T13:11:54.644Z</time>
      </trkpt>
      <trkpt lat="44.16609" lon="6.10493">
        <ele>1226</ele>
        <time>2022-03-03T13:11:55.644Z</time>
      </trkpt>
      <trkpt lat="44.16609" lon="6.10494">
        <ele>1226</ele>
        <time>2022-03-03T13:11:56.644Z</time>
      </trkpt>
      <trkpt lat="44.1661" lon="6.10495">
        <ele>1226</ele>
        <time>2022-03-03T13:11:57.644Z</time>
      </trkpt>
      <trkpt lat="44.1661" lon="6.10497">
        <ele>1226</ele>
        <time>2022-03-03T13:11:58.644Z</time>
      </trkpt>
      <trkpt lat="44.1661" lon="6.10498">
        <ele>1226</ele>
        <time>2022-03-03T13:11:59.644Z</time>
      </trkpt>
      <trkpt lat="44.1661" lon="6.105">
        <ele>1226</ele>
        <time>2022-03-03T13:12:00.644Z</time>
      </trkpt>
      <trkpt lat="44.1661" lon="6.10501">
        <ele>1226</ele>
        <time>2022-03-03T13:12:01.644Z</time>
      </trkpt>
      <trkpt lat="44.1661" lon="6.10502">
        <ele>1226</ele>
        <time>2022-03-03T13:12:02.644Z</time>
      </trkpt>
      <trkpt lat="44.1661" lon="6.10503">
        <ele>1226</ele>
        <time>2022-03-03T13:12:03.644Z</time>
      </trkpt>
      <trkpt lat="44.1661" lon="6.10505">
        <ele>1227</ele>
        <time>2022-03-03T13:12:04.644Z</time>
      </trkpt>
      <trkpt lat="44.1661" lon="6.10506">
        <ele>1227</ele>
        <time>2022-03-03T13:12:05.644Z</time>
      </trkpt>
      <trkpt lat="44.16609" lon="6.10508">
        <ele>1227</ele>
        <time>2022-03-03T13:12:06.644Z</time>
      </trkpt>
      <trkpt lat="44.16609" lon="6.10509">
        <ele>1227</ele>
        <time>2022-03-03T13:12:07.644Z</time>
      </trkpt>
      <trkpt lat="44.16609" lon="6.10511">
        <ele>1226</ele>
        <time>2022-03-03T13:12:08.644Z</time>
      </trkpt>
      <trkpt lat="44.16609" lon="6.10512">
        <ele>1226</ele>
        <time>2022-03-03T13:12:09.644Z</time>
      </trkpt>
      <trkpt lat="44.16609" lon="6.10514">
        <ele>1226</ele>
        <time>2022-03-03T13:12:10.644Z</time>
      </trkpt>
      <trkpt lat="44.16608" lon="6.10515">
        <ele>1226</ele>
        <time>2022-03-03T13:12:11.644Z</time>
      </trkpt>
      <trkpt lat="44.16608" lon="6.10517">
        <ele>1226</ele>
        <time>2022-03-03T13:12:12.644Z</time>
      </trkpt>
      <trkpt lat="44.16608" lon="6.10518">
        <ele>1226</ele>
        <time>2022-03-03T13:12:13.644Z</time>
      </trkpt>
      <trkpt lat="44.16608" lon="6.10519">
        <ele>1226</ele>
        <time>2022-03-03T13:12:14.644Z</time>
      </trkpt>
      <trkpt lat="44.16608" lon="6.10521">
        <ele>1226</ele>
        <time>2022-03-03T13:12:15.644Z</time>
      </trkpt>
      <trkpt lat="44.16607" lon="6.10522">
        <ele>1225</ele>
        <time>2022-03-03T13:12:16.644Z</time>
      </trkpt>
      <trkpt lat="44.16607" lon="6.10524">
        <ele>1225</ele>
        <time>2022-03-03T13:12:17.644Z</time>
      </trkpt>
      <trkpt lat="44.16607" lon="6.10526">
        <ele>1225</ele>
        <time>2022-03-03T13:12:18.644Z</time>
      </trkpt>
      <trkpt lat="44.16607" lon="6.10527">
        <ele>1225</ele>
        <time>2022-03-03T13:12:19.644Z</time>
      </trkpt>
      <trkpt lat="44.16607" lon="6.10529">
        <ele>1225</ele>
        <time>2022-03-03T13:12:20.644Z</time>
      </trkpt>
      <trkpt lat="44.16606" lon="6.1053">
        <ele>1225</ele>
        <time>2022-03-03T13:12:21.644Z</time>
      </trkpt>
      <trkpt lat="44.16606" lon="6.10531">
        <ele>1226</ele>
        <time>2022-03-03T13:12:22.644Z</time>
      </trkpt>
      <trkpt lat="44.16606" lon="6.10533">
        <ele>1226</ele>
        <time>2022-03-03T13:12:23.644Z</time>
      </trkpt>
      <trkpt lat="44.16605" lon="6.10535">
        <ele>1226</ele>
        <time>2022-03-03T13:12:24.644Z</time>
      </trkpt>
      <trkpt lat="44.16605" lon="6.10536">
        <ele>1226</ele>
        <time>2022-03-03T13:12:25.644Z</time>
      </trkpt>
      <trkpt lat="44.16605" lon="6.10537">
        <ele>1226</ele>
        <time>2022-03-03T13:12:26.644Z</time>
      </trkpt>
      <trkpt lat="44.16605" lon="6.10539">
        <ele>1226</ele>
        <time>2022-03-03T13:12:27.644Z</time>
      </trkpt>
      <trkpt lat="44.16604" lon="6.1054">
        <ele>1226</ele>
        <time>2022-03-03T13:12:28.644Z</time>
      </trkpt>
      <trkpt lat="44.16604" lon="6.10541">
        <ele>1226</ele>
        <time>2022-03-03T13:12:29.644Z</time>
      </trkpt>
      <trkpt lat="44.16604" lon="6.10542">
        <ele>1226</ele>
        <time>2022-03-03T13:12:30.644Z</time>
      </trkpt>
      <trkpt lat="44.16603" lon="6.10544">
        <ele>1226</ele>
        <time>2022-03-03T13:12:31.644Z</time>
      </trkpt>
      <trkpt lat="44.16603" lon="6.10545">
        <ele>1227</ele>
        <time>2022-03-03T13:12:32.644Z</time>
      </trkpt>
      <trkpt lat="44.16603" lon="6.10546">
        <ele>1227</ele>
        <time>2022-03-03T13:12:33.644Z</time>
      </trkpt>
      <trkpt lat="44.16603" lon="6.10548">
        <ele>1227</ele>
        <time>2022-03-03T13:12:34.644Z</time>
      </trkpt>
      <trkpt lat="44.16603" lon="6.10549">
        <ele>1227</ele>
        <time>2022-03-03T13:12:35.644Z</time>
      </trkpt>
      <trkpt lat="44.16603" lon="6.10551">
        <ele>1227</ele>
        <time>2022-03-03T13:12:36.644Z</time>
      </trkpt>
      <trkpt lat="44.16603" lon="6.10552">
        <ele>1228</ele>
        <time>2022-03-03T13:12:37.644Z</time>
      </trkpt>
      <trkpt lat="44.16602" lon="6.10553">
        <ele>1228</ele>
        <time>2022-03-03T13:12:38.644Z</time>
      </trkpt>
      <trkpt lat="44.16602" lon="6.10555">
        <ele>1228</ele>
        <time>2022-03-03T13:12:39.644Z</time>
      </trkpt>
      <trkpt lat="44.16602" lon="6.10556">
        <ele>1228</ele>
        <time>2022-03-03T13:12:40.644Z</time>
      </trkpt>
      <trkpt lat="44.16602" lon="6.10557">
        <ele>1228</ele>
        <time>2022-03-03T13:12:41.644Z</time>
      </trkpt>
      <trkpt lat="44.16602" lon="6.10558">
        <ele>1228</ele>
        <time>2022-03-03T13:12:42.644Z</time>
      </trkpt>
      <trkpt lat="44.16601" lon="6.1056">
        <ele>1228</ele>
        <time>2022-03-03T13:12:43.644Z</time>
      </trkpt>
      <trkpt lat="44.16601" lon="6.10561">
        <ele>1229</ele>
        <time>2022-03-03T13:12:44.644Z</time>
      </trkpt>
      <trkpt lat="44.16601" lon="6.10563">
        <ele>1229</ele>
        <time>2022-03-03T13:12:45.644Z</time>
      </trkpt>
      <trkpt lat="44.16601" lon="6.10564">
        <ele>1229</ele>
        <time>2022-03-03T13:12:46.644Z</time>
      </trkpt>
      <trkpt lat="44.16601" lon="6.10566">
        <ele>1229</ele>
        <time>2022-03-03T13:12:47.644Z</time>
      </trkpt>
      <trkpt lat="44.16601" lon="6.10567">
        <ele>1229</ele>
        <time>2022-03-03T13:12:48.644Z</time>
      </trkpt>
      <trkpt lat="44.16601" lon="6.10569">
        <ele>1229</ele>
        <time>2022-03-03T13:12:49.644Z</time>
      </trkpt>
      <trkpt lat="44.16601" lon="6.1057">
        <ele>1229</ele>
        <time>2022-03-03T13:12:50.644Z</time>
      </trkpt>
      <trkpt lat="44.166" lon="6.10572">
        <ele>1230</ele>
        <time>2022-03-03T13:12:51.644Z</time>
      </trkpt>
      <trkpt lat="44.166" lon="6.10573">
        <ele>1230</ele>
        <time>2022-03-03T13:12:52.644Z</time>
      </trkpt>
      <trkpt lat="44.16599" lon="6.10575">
        <ele>1230</ele>
        <time>2022-03-03T13:12:53.644Z</time>
      </trkpt>
      <trkpt lat="44.16599" lon="6.10576">
        <ele>1230</ele>
        <time>2022-03-03T13:12:54.644Z</time>
      </trkpt>
      <trkpt lat="44.166" lon="6.10577">
        <ele>1230</ele>
        <time>2022-03-03T13:12:55.644Z</time>
      </trkpt>
      <trkpt lat="44.166" lon="6.10579">
        <ele>1230</ele>
        <time>2022-03-03T13:12:56.644Z</time>
      </trkpt>
      <trkpt lat="44.166" lon="6.1058">
        <ele>1230</ele>
        <time>2022-03-03T13:12:57.644Z</time>
      </trkpt>
      <trkpt lat="44.166" lon="6.10581">
        <ele>1230</ele>
        <time>2022-03-03T13:12:58.644Z</time>
      </trkpt>
      <trkpt lat="44.166" lon="6.10583">
        <ele>1230</ele>
        <time>2022-03-03T13:12:59.644Z</time>
      </trkpt>
      <trkpt lat="44.166" lon="6.10584">
        <ele>1230</ele>
        <time>2022-03-03T13:13:00.644Z</time>
      </trkpt>
      <trkpt lat="44.166" lon="6.10586">
        <ele>1231</ele>
        <time>2022-03-03T13:13:01.644Z</time>
      </trkpt>
      <trkpt lat="44.166" lon="6.10587">
        <ele>1231</ele>
        <time>2022-03-03T13:13:02.644Z</time>
      </trkpt>
      <trkpt lat="44.166" lon="6.10589">
        <ele>1231</ele>
        <time>2022-03-03T13:13:03.644Z</time>
      </trkpt>
      <trkpt lat="44.16599" lon="6.1059">
        <ele>1231</ele>
        <time>2022-03-03T13:13:04.644Z</time>
      </trkpt>
      <trkpt lat="44.16599" lon="6.10592">
        <ele>1231</ele>
        <time>2022-03-03T13:13:05.644Z</time>
      </trkpt>
      <trkpt lat="44.16598" lon="6.10593">
        <ele>1231</ele>
        <time>2022-03-03T13:13:06.644Z</time>
      </trkpt>
      <trkpt lat="44.16598" lon="6.10595">
        <ele>1231</ele>
        <time>2022-03-03T13:13:07.644Z</time>
      </trkpt>
      <trkpt lat="44.16597" lon="6.10596">
        <ele>1231</ele>
        <time>2022-03-03T13:13:08.644Z</time>
      </trkpt>
      <trkpt lat="44.16597" lon="6.10597">
        <ele>1231</ele>
        <time>2022-03-03T13:13:09.644Z</time>
      </trkpt>
      <trkpt lat="44.16597" lon="6.10599">
        <ele>1231</ele>
        <time>2022-03-03T13:13:10.644Z</time>
      </trkpt>
      <trkpt lat="44.16596" lon="6.10601">
        <ele>1231</ele>
        <time>2022-03-03T13:13:11.644Z</time>
      </trkpt>
      <trkpt lat="44.16596" lon="6.10602">
        <ele>1231</ele>
        <time>2022-03-03T13:13:12.644Z</time>
      </trkpt>
      <trkpt lat="44.16595" lon="6.10603">
        <ele>1232</ele>
        <time>2022-03-03T13:13:13.644Z</time>
      </trkpt>
      <trkpt lat="44.16595" lon="6.10605">
        <ele>1232</ele>
        <time>2022-03-03T13:13:14.644Z</time>
      </trkpt>
      <trkpt lat="44.16594" lon="6.10606">
        <ele>1232</ele>
        <time>2022-03-03T13:13:15.644Z</time>
      </trkpt>
      <trkpt lat="44.16594" lon="6.10608">
        <ele>1232</ele>
        <time>2022-03-03T13:13:16.644Z</time>
      </trkpt>
      <trkpt lat="44.16594" lon="6.10609">
        <ele>1231</ele>
        <time>2022-03-03T13:13:17.644Z</time>
      </trkpt>
      <trkpt lat="44.16593" lon="6.10611">
        <ele>1231</ele>
        <time>2022-03-03T13:13:18.644Z</time>
      </trkpt>
      <trkpt lat="44.16593" lon="6.10612">
        <ele>1231</ele>
        <time>2022-03-03T13:13:19.644Z</time>
      </trkpt>
      <trkpt lat="44.16592" lon="6.10614">
        <ele>1231</ele>
        <time>2022-03-03T13:13:20.644Z</time>
      </trkpt>
      <trkpt lat="44.16592" lon="6.10615">
        <ele>1231</ele>
        <time>2022-03-03T13:13:21.644Z</time>
      </trkpt>
      <trkpt lat="44.16591" lon="6.10617">
        <ele>1231</ele>
        <time>2022-03-03T13:13:22.644Z</time>
      </trkpt>
      <trkpt lat="44.16591" lon="6.10618">
        <ele>1231</ele>
        <time>2022-03-03T13:13:23.644Z</time>
      </trkpt>
      <trkpt lat="44.1659" lon="6.1062">
        <ele>1231</ele>
        <time>2022-03-03T13:13:24.644Z</time>
      </trkpt>
      <trkpt lat="44.1659" lon="6.10622">
        <ele>1232</ele>
        <time>2022-03-03T13:13:25.644Z</time>
      </trkpt>
      <trkpt lat="44.16589" lon="6.10623">
        <ele>1231</ele>
        <time>2022-03-03T13:13:26.644Z</time>
      </trkpt>
      <trkpt lat="44.16589" lon="6.10625">
        <ele>1231</ele>
        <time>2022-03-03T13:13:27.644Z</time>
      </trkpt>
      <trkpt lat="44.16588" lon="6.10626">
        <ele>1231</ele>
        <time>2022-03-03T13:13:28.644Z</time>
      </trkpt>
      <trkpt lat="44.16588" lon="6.10628">
        <ele>1231</ele>
        <time>2022-03-03T13:13:29.644Z</time>
      </trkpt>
      <trkpt lat="44.16587" lon="6.1063">
        <ele>1231</ele>
        <time>2022-03-03T13:13:30.644Z</time>
      </trkpt>
      <trkpt lat="44.16587" lon="6.10631">
        <ele>1231</ele>
        <time>2022-03-03T13:13:31.644Z</time>
      </trkpt>
      <trkpt lat="44.16586" lon="6.10632">
        <ele>1231</ele>
        <time>2022-03-03T13:13:32.644Z</time>
      </trkpt>
      <trkpt lat="44.16586" lon="6.10634">
        <ele>1231</ele>
        <time>2022-03-03T13:13:33.644Z</time>
      </trkpt>
      <trkpt lat="44.16585" lon="6.10636">
        <ele>1231</ele>
        <time>2022-03-03T13:13:34.644Z</time>
      </trkpt>
      <trkpt lat="44.16585" lon="6.10638">
        <ele>1231</ele>
        <time>2022-03-03T13:13:35.644Z</time>
      </trkpt>
      <trkpt lat="44.16584" lon="6.10639">
        <ele>1231</ele>
        <time>2022-03-03T13:13:36.644Z</time>
      </trkpt>
      <trkpt lat="44.16583" lon="6.10641">
        <ele>1231</ele>
        <time>2022-03-03T13:13:37.644Z</time>
      </trkpt>
      <trkpt lat="44.16583" lon="6.10642">
        <ele>1231</ele>
        <time>2022-03-03T13:13:38.644Z</time>
      </trkpt>
      <trkpt lat="44.16582" lon="6.10644">
        <ele>1231</ele>
        <time>2022-03-03T13:13:39.644Z</time>
      </trkpt>
      <trkpt lat="44.16582" lon="6.10645">
        <ele>1231</ele>
        <time>2022-03-03T13:13:40.644Z</time>
      </trkpt>
      <trkpt lat="44.16581" lon="6.10647">
        <ele>1232</ele>
        <time>2022-03-03T13:13:41.644Z</time>
      </trkpt>
      <trkpt lat="44.16581" lon="6.10649">
        <ele>1232</ele>
        <time>2022-03-03T13:13:42.644Z</time>
      </trkpt>
      <trkpt lat="44.1658" lon="6.1065">
        <ele>1232</ele>
        <time>2022-03-03T13:13:43.644Z</time>
      </trkpt>
      <trkpt lat="44.16579" lon="6.10651">
        <ele>1232</ele>
        <time>2022-03-03T13:13:44.644Z</time>
      </trkpt>
      <trkpt lat="44.16579" lon="6.10652">
        <ele>1232</ele>
        <time>2022-03-03T13:13:45.644Z</time>
      </trkpt>
      <trkpt lat="44.16578" lon="6.10653">
        <ele>1232</ele>
        <time>2022-03-03T13:13:46.644Z</time>
      </trkpt>
      <trkpt lat="44.16577" lon="6.10654">
        <ele>1232</ele>
        <time>2022-03-03T13:13:47.644Z</time>
      </trkpt>
      <trkpt lat="44.16576" lon="6.10655">
        <ele>1232</ele>
        <time>2022-03-03T13:13:48.644Z</time>
      </trkpt>
      <trkpt lat="44.16575" lon="6.10656">
        <ele>1232</ele>
        <time>2022-03-03T13:13:49.644Z</time>
      </trkpt>
      <trkpt lat="44.16574" lon="6.10657">
        <ele>1232</ele>
        <time>2022-03-03T13:13:50.644Z</time>
      </trkpt>
      <trkpt lat="44.16573" lon="6.10657">
        <ele>1232</ele>
        <time>2022-03-03T13:13:51.644Z</time>
      </trkpt>
      <trkpt lat="44.16572" lon="6.10658">
        <ele>1232</ele>
        <time>2022-03-03T13:13:52.644Z</time>
      </trkpt>
      <trkpt lat="44.16571" lon="6.10658">
        <ele>1232</ele>
        <time>2022-03-03T13:13:53.644Z</time>
      </trkpt>
      <trkpt lat="44.1657" lon="6.10658">
        <ele>1231</ele>
        <time>2022-03-03T13:13:54.644Z</time>
      </trkpt>
      <trkpt lat="44.16569" lon="6.10659">
        <ele>1231</ele>
        <time>2022-03-03T13:13:55.644Z</time>
      </trkpt>
      <trkpt lat="44.16567" lon="6.10659">
        <ele>1231</ele>
        <time>2022-03-03T13:13:56.644Z</time>
      </trkpt>
      <trkpt lat="44.16566" lon="6.10658">
        <ele>1231</ele>
        <time>2022-03-03T13:13:57.644Z</time>
      </trkpt>
      <trkpt lat="44.16565" lon="6.10658">
        <ele>1231</ele>
        <time>2022-03-03T13:13:58.644Z</time>
      </trkpt>
      <trkpt lat="44.16564" lon="6.10658">
        <ele>1231</ele>
        <time>2022-03-03T13:13:59.644Z</time>
      </trkpt>
      <trkpt lat="44.16563" lon="6.10658">
        <ele>1231</ele>
        <time>2022-03-03T13:14:00.644Z</time>
      </trkpt>
      <trkpt lat="44.16562" lon="6.10658">
        <ele>1231</ele>
        <time>2022-03-03T13:14:01.644Z</time>
      </trkpt>
      <trkpt lat="44.16562" lon="6.10658">
        <ele>1231</ele>
        <time>2022-03-03T13:14:02.644Z</time>
      </trkpt>
      <trkpt lat="44.16561" lon="6.10658">
        <ele>1231</ele>
        <time>2022-03-03T13:14:03.644Z</time>
      </trkpt>
      <trkpt lat="44.16561" lon="6.10658">
        <ele>1231</ele>
        <time>2022-03-03T13:14:04.644Z</time>
      </trkpt>
      <trkpt lat="44.16561" lon="6.10658">
        <ele>1231</ele>
        <time>2022-03-03T13:14:05.644Z</time>
      </trkpt>
      <trkpt lat="44.16561" lon="6.10658">
        <ele>1231</ele>
        <time>2022-03-03T13:14:06.644Z</time>
      </trkpt>
      <trkpt lat="44.16561" lon="6.10658">
        <ele>1231</ele>
        <time>2022-03-03T13:14:07.644Z</time>
      </trkpt>
      <trkpt lat="44.16561" lon="6.10658">
        <ele>1231</ele>
        <time>2022-03-03T13:14:08.644Z</time>
      </trkpt>
      <trkpt lat="44.16561" lon="6.10658">
        <ele>1231</ele>
        <time>2022-03-03T13:14:09.644Z</time>
      </trkpt>
      <trkpt lat="44.16561" lon="6.10658">
        <ele>1231</ele>
        <time>2022-03-03T13:14:10.644Z</time>
      </trkpt>
      <trkpt lat="44.16561" lon="6.10658">
        <ele>1231</ele>
        <time>2022-03-03T13:14:11.644Z</time>
      </trkpt>
      <trkpt lat="44.16561" lon="6.10658">
        <ele>1231</ele>
        <time>2022-03-03T13:14:12.644Z</time>
      </trkpt>
      <trkpt lat="44.1656" lon="6.10658">
        <ele>1231</ele>
        <time>2022-03-03T13:14:13.644Z</time>
      </trkpt>
      <trkpt lat="44.1656" lon="6.10658">
        <ele>1230</ele>
        <time>2022-03-03T13:14:14.644Z</time>
      </trkpt>
      <trkpt lat="44.1656" lon="6.10658">
        <ele>1230</ele>
        <time>2022-03-03T13:14:15.644Z</time>
      </trkpt>
      <trkpt lat="44.1656" lon="6.10658">
        <ele>1230</ele>
        <time>2022-03-03T13:14:16.644Z</time>
      </trkpt>
      <trkpt lat="44.1656" lon="6.10658">
        <ele>1230</ele>
        <time>2022-03-03T13:14:17.644Z</time>
      </trkpt>
      <trkpt lat="44.1656" lon="6.10658">
        <ele>1230</ele>
        <time>2022-03-03T13:14:18.644Z</time>
      </trkpt>
      <trkpt lat="44.1656" lon="6.10658">
        <ele>1230</ele>
        <time>2022-03-03T13:14:19.644Z</time>
      </trkpt>
      <trkpt lat="44.1656" lon="6.10658">
        <ele>1230</ele>
        <time>2022-03-03T13:14:20.644Z</time>
      </trkpt>
      <trkpt lat="44.1656" lon="6.10658">
        <ele>1230</ele>
        <time>2022-03-03T13:14:21.644Z</time>
      </trkpt>
      <trkpt lat="44.1656" lon="6.10658">
        <ele>1230</ele>
        <time>2022-03-03T13:14:22.644Z</time>
      </trkpt>
      <trkpt lat="44.1656" lon="6.10658">
        <ele>1230</ele>
        <time>2022-03-03T13:14:23.644Z</time>
      </trkpt>
      <trkpt lat="44.1656" lon="6.10658">
        <ele>1230</ele>
        <time>2022-03-03T13:14:24.644Z</time>
      </trkpt>
      <trkpt lat="44.1656" lon="6.10658">
        <ele>1230</ele>
        <time>2022-03-03T13:14:25.644Z</time>
      </trkpt>
      <trkpt lat="44.1656" lon="6.10658">
        <ele>1230</ele>
        <time>2022-03-03T13:14:26.644Z</time>
      </trkpt>
      <trkpt lat="44.1656" lon="6.10658">
        <ele>1230</ele>
        <time>2022-03-03T13:14:27.644Z</time>
      </trkpt>
      <trkpt lat="44.1656" lon="6.10658">
        <ele>1230</ele>
        <time>2022-03-03T13:14:28.644Z</time>
      </trkpt>
      <trkpt lat="44.1656" lon="6.10658">
        <ele>1230</ele>
        <time>2022-03-03T13:14:29.644Z</time>
      </trkpt>
      <trkpt lat="44.1656" lon="6.10658">
        <ele>1230</ele>
        <time>2022-03-03T13:14:30.644Z</time>
      </trkpt>
      <trkpt lat="44.1656" lon="6.10658">
        <ele>1230</ele>
        <time>2022-03-03T13:14:31.644Z</time>
      </trkpt>
      <trkpt lat="44.1656" lon="6.10658">
        <ele>1230</ele>
        <time>2022-03-03T13:14:32.644Z</time>
      </trkpt>
      <trkpt lat="44.16559" lon="6.10658">
        <ele>1230</ele>
        <time>2022-03-03T13:14:33.644Z</time>
      </trkpt>
      <trkpt lat="44.16559" lon="6.10658">
        <ele>1230</ele>
        <time>2022-03-03T13:14:34.644Z</time>
      </trkpt>
      <trkpt lat="44.1656" lon="6.10658">
        <ele>1230</ele>
        <time>2022-03-03T13:14:35.644Z</time>
      </trkpt>
      <trkpt lat="44.1656" lon="6.10658">
        <ele>1230</ele>
        <time>2022-03-03T13:14:36.644Z</time>
      </trkpt>
      <trkpt lat="44.1656" lon="6.10658">
        <ele>1230</ele>
        <time>2022-03-03T13:14:37.644Z</time>
      </trkpt>
      <trkpt lat="44.1656" lon="6.10658">
        <ele>1230</ele>
        <time>2022-03-03T13:14:38.644Z</time>
      </trkpt>
      <trkpt lat="44.1656" lon="6.10658">
        <ele>1230</ele>
        <time>2022-03-03T13:14:39.644Z</time>
      </trkpt>
      <trkpt lat="44.1656" lon="6.10658">
        <ele>1230</ele>
        <time>2022-03-03T13:14:40.644Z</time>
      </trkpt>
      <trkpt lat="44.16559" lon="6.10658">
        <ele>1230</ele>
        <time>2022-03-03T13:14:41.644Z</time>
      </trkpt>
      <trkpt lat="44.16559" lon="6.10658">
        <ele>1230</ele>
        <time>2022-03-03T13:14:42.644Z</time>
      </trkpt>
      <trkpt lat="44.16559" lon="6.10658">
        <ele>1230</ele>
        <time>2022-03-03T13:14:43.644Z</time>
      </trkpt>
      <trkpt lat="44.16559" lon="6.10658">
        <ele>1230</ele>
        <time>2022-03-03T13:14:44.644Z</time>
      </trkpt>
      <trkpt lat="44.16559" lon="6.10658">
        <ele>1230</ele>
        <time>2022-03-03T13:14:45.644Z</time>
      </trkpt>
      <trkpt lat="44.16559" lon="6.10658">
        <ele>1230</ele>
        <time>2022-03-03T13:14:46.644Z</time>
      </trkpt>
      <trkpt lat="44.16559" lon="6.10658">
        <ele>1230</ele>
        <time>2022-03-03T13:14:47.644Z</time>
      </trkpt>
      <trkpt lat="44.16559" lon="6.10658">
        <ele>1230</ele>
        <time>2022-03-03T13:14:48.644Z</time>
      </trkpt>
      <trkpt lat="44.16559" lon="6.10659">
        <ele>1230</ele>
        <time>2022-03-03T13:14:49.644Z</time>
      </trkpt>
      <trkpt lat="44.16559" lon="6.10659">
        <ele>1230</ele>
        <time>2022-03-03T13:14:50.644Z</time>
      </trkpt>
      <trkpt lat="44.16559" lon="6.10659">
        <ele>1230</ele>
        <time>2022-03-03T13:14:51.644Z</time>
      </trkpt>
      <trkpt lat="44.16559" lon="6.10659">
        <ele>1230</ele>
        <time>2022-03-03T13:14:52.644Z</time>
      </trkpt>
      <trkpt lat="44.16559" lon="6.10659">
        <ele>1230</ele>
        <time>2022-03-03T13:14:53.644Z</time>
      </trkpt>
      <trkpt lat="44.16559" lon="6.10658">
        <ele>1230</ele>
        <time>2022-03-03T13:14:54.644Z</time>
      </trkpt>
      <trkpt lat="44.16559" lon="6.10657">
        <ele>1230</ele>
        <time>2022-03-03T13:14:55.644Z</time>
      </trkpt>
      <trkpt lat="44.16559" lon="6.10657">
        <ele>1230</ele>
        <time>2022-03-03T13:14:56.644Z</time>
      </trkpt>
      <trkpt lat="44.16559" lon="6.10656">
        <ele>1230</ele>
        <time>2022-03-03T13:14:57.644Z</time>
      </trkpt>
      <trkpt lat="44.16559" lon="6.10655">
        <ele>1231</ele>
        <time>2022-03-03T13:14:58.644Z</time>
      </trkpt>
      <trkpt lat="44.16559" lon="6.10654">
        <ele>1231</ele>
        <time>2022-03-03T13:14:59.644Z</time>
      </trkpt>
      <trkpt lat="44.16559" lon="6.10653">
        <ele>1231</ele>
        <time>2022-03-03T13:15:00.644Z</time>
      </trkpt>
      <trkpt lat="44.16559" lon="6.10652">
        <ele>1231</ele>
        <time>2022-03-03T13:15:01.644Z</time>
      </trkpt>
      <trkpt lat="44.16559" lon="6.10651">
        <ele>1231</ele>
        <time>2022-03-03T13:15:02.644Z</time>
      </trkpt>
      <trkpt lat="44.16559" lon="6.10649">
        <ele>1231</ele>
        <time>2022-03-03T13:15:03.644Z</time>
      </trkpt>
      <trkpt lat="44.16559" lon="6.10649">
        <ele>1231</ele>
        <time>2022-03-03T13:15:04.644Z</time>
      </trkpt>
      <trkpt lat="44.16559" lon="6.10648">
        <ele>1231</ele>
        <time>2022-03-03T13:15:05.644Z</time>
      </trkpt>
      <trkpt lat="44.16559" lon="6.10648">
        <ele>1231</ele>
        <time>2022-03-03T13:15:06.644Z</time>
      </trkpt>
      <trkpt lat="44.16559" lon="6.10648">
        <ele>1231</ele>
        <time>2022-03-03T13:15:07.644Z</time>
      </trkpt>
      <trkpt lat="44.1656" lon="6.10648">
        <ele>1231</ele>
        <time>2022-03-03T13:15:08.644Z</time>
      </trkpt>
      <trkpt lat="44.1656" lon="6.10649">
        <ele>1231</ele>
        <time>2022-03-03T13:15:09.644Z</time>
      </trkpt>
      <trkpt lat="44.16559" lon="6.10649">
        <ele>1231</ele>
        <time>2022-03-03T13:15:10.644Z</time>
      </trkpt>
      <trkpt lat="44.16559" lon="6.10649">
        <ele>1231</ele>
        <time>2022-03-03T13:15:11.644Z</time>
      </trkpt>
      <trkpt lat="44.16559" lon="6.10648">
        <ele>1231</ele>
        <time>2022-03-03T13:15:12.644Z</time>
      </trkpt>
      <trkpt lat="44.16559" lon="6.10648">
        <ele>1231</ele>
        <time>2022-03-03T13:15:13.644Z</time>
      </trkpt>
      <trkpt lat="44.16559" lon="6.10648">
        <ele>1231</ele>
        <time>2022-03-03T13:15:14.644Z</time>
      </trkpt>
      <trkpt lat="44.16559" lon="6.10646">
        <ele>1232</ele>
        <time>2022-03-03T13:15:15.644Z</time>
      </trkpt>
      <trkpt lat="44.16559" lon="6.10645">
        <ele>1232</ele>
        <time>2022-03-03T13:15:16.644Z</time>
      </trkpt>
      <trkpt lat="44.16559" lon="6.10644">
        <ele>1232</ele>
        <time>2022-03-03T13:15:17.644Z</time>
      </trkpt>
      <trkpt lat="44.1656" lon="6.10642">
        <ele>1232</ele>
        <time>2022-03-03T13:15:18.644Z</time>
      </trkpt>
      <trkpt lat="44.1656" lon="6.10641">
        <ele>1232</ele>
        <time>2022-03-03T13:15:19.644Z</time>
      </trkpt>
      <trkpt lat="44.1656" lon="6.1064">
        <ele>1233</ele>
        <time>2022-03-03T13:15:20.644Z</time>
      </trkpt>
      <trkpt lat="44.1656" lon="6.10638">
        <ele>1233</ele>
        <time>2022-03-03T13:15:21.644Z</time>
      </trkpt>
      <trkpt lat="44.1656" lon="6.10637">
        <ele>1233</ele>
        <time>2022-03-03T13:15:22.644Z</time>
      </trkpt>
      <trkpt lat="44.16561" lon="6.10636">
        <ele>1233</ele>
        <time>2022-03-03T13:15:23.644Z</time>
      </trkpt>
      <trkpt lat="44.16561" lon="6.10634">
        <ele>1233</ele>
        <time>2022-03-03T13:15:24.644Z</time>
      </trkpt>
      <trkpt lat="44.16561" lon="6.10633">
        <ele>1234</ele>
        <time>2022-03-03T13:15:25.644Z</time>
      </trkpt>
      <trkpt lat="44.16561" lon="6.10632">
        <ele>1234</ele>
        <time>2022-03-03T13:15:26.644Z</time>
      </trkpt>
      <trkpt lat="44.16562" lon="6.10631">
        <ele>1234</ele>
        <time>2022-03-03T13:15:27.644Z</time>
      </trkpt>
      <trkpt lat="44.16562" lon="6.10629">
        <ele>1234</ele>
        <time>2022-03-03T13:15:28.644Z</time>
      </trkpt>
      <trkpt lat="44.16562" lon="6.10628">
        <ele>1234</ele>
        <time>2022-03-03T13:15:29.644Z</time>
      </trkpt>
      <trkpt lat="44.16562" lon="6.10627">
        <ele>1234</ele>
        <time>2022-03-03T13:15:30.644Z</time>
      </trkpt>
      <trkpt lat="44.16563" lon="6.10626">
        <ele>1234</ele>
        <time>2022-03-03T13:15:31.644Z</time>
      </trkpt>
      <trkpt lat="44.16563" lon="6.10624">
        <ele>1234</ele>
        <time>2022-03-03T13:15:32.644Z</time>
      </trkpt>
      <trkpt lat="44.16563" lon="6.10623">
        <ele>1234</ele>
        <time>2022-03-03T13:15:33.644Z</time>
      </trkpt>
      <trkpt lat="44.16563" lon="6.10622">
        <ele>1234</ele>
        <time>2022-03-03T13:15:34.644Z</time>
      </trkpt>
      <trkpt lat="44.16563" lon="6.10621">
        <ele>1234</ele>
        <time>2022-03-03T13:15:35.644Z</time>
      </trkpt>
      <trkpt lat="44.16564" lon="6.1062">
        <ele>1234</ele>
        <time>2022-03-03T13:15:36.644Z</time>
      </trkpt>
      <trkpt lat="44.16563" lon="6.10618">
        <ele>1235</ele>
        <time>2022-03-03T13:15:37.644Z</time>
      </trkpt>
      <trkpt lat="44.16563" lon="6.10617">
        <ele>1235</ele>
        <time>2022-03-03T13:15:38.644Z</time>
      </trkpt>
      <trkpt lat="44.16564" lon="6.10616">
        <ele>1235</ele>
        <time>2022-03-03T13:15:39.644Z</time>
      </trkpt>
      <trkpt lat="44.16564" lon="6.10615">
        <ele>1235</ele>
        <time>2022-03-03T13:15:40.644Z</time>
      </trkpt>
      <trkpt lat="44.16564" lon="6.10614">
        <ele>1235</ele>
        <time>2022-03-03T13:15:41.644Z</time>
      </trkpt>
      <trkpt lat="44.16564" lon="6.10612">
        <ele>1235</ele>
        <time>2022-03-03T13:15:42.644Z</time>
      </trkpt>
      <trkpt lat="44.16564" lon="6.10611">
        <ele>1236</ele>
        <time>2022-03-03T13:15:43.644Z</time>
      </trkpt>
      <trkpt lat="44.16564" lon="6.1061">
        <ele>1236</ele>
        <time>2022-03-03T13:15:44.644Z</time>
      </trkpt>
      <trkpt lat="44.16564" lon="6.10608">
        <ele>1236</ele>
        <time>2022-03-03T13:15:45.644Z</time>
      </trkpt>
      <trkpt lat="44.16565" lon="6.10607">
        <ele>1236</ele>
        <time>2022-03-03T13:15:46.644Z</time>
      </trkpt>
      <trkpt lat="44.16565" lon="6.10606">
        <ele>1236</ele>
        <time>2022-03-03T13:15:47.644Z</time>
      </trkpt>
      <trkpt lat="44.16565" lon="6.10604">
        <ele>1236</ele>
        <time>2022-03-03T13:15:48.644Z</time>
      </trkpt>
      <trkpt lat="44.16565" lon="6.10603">
        <ele>1237</ele>
        <time>2022-03-03T13:15:49.644Z</time>
      </trkpt>
      <trkpt lat="44.16565" lon="6.10601">
        <ele>1237</ele>
        <time>2022-03-03T13:15:50.644Z</time>
      </trkpt>
      <trkpt lat="44.16565" lon="6.106">
        <ele>1237</ele>
        <time>2022-03-03T13:15:51.644Z</time>
      </trkpt>
      <trkpt lat="44.16565" lon="6.10599">
        <ele>1237</ele>
        <time>2022-03-03T13:15:52.644Z</time>
      </trkpt>
      <trkpt lat="44.16565" lon="6.10597">
        <ele>1237</ele>
        <time>2022-03-03T13:15:53.644Z</time>
      </trkpt>
      <trkpt lat="44.16565" lon="6.10596">
        <ele>1237</ele>
        <time>2022-03-03T13:15:54.644Z</time>
      </trkpt>
      <trkpt lat="44.16565" lon="6.10595">
        <ele>1237</ele>
        <time>2022-03-03T13:15:55.644Z</time>
      </trkpt>
      <trkpt lat="44.16565" lon="6.10593">
        <ele>1237</ele>
        <time>2022-03-03T13:15:56.644Z</time>
      </trkpt>
      <trkpt lat="44.16565" lon="6.10592">
        <ele>1237</ele>
        <time>2022-03-03T13:15:57.644Z</time>
      </trkpt>
      <trkpt lat="44.16565" lon="6.10591">
        <ele>1237</ele>
        <time>2022-03-03T13:15:58.644Z</time>
      </trkpt>
      <trkpt lat="44.16565" lon="6.10589">
        <ele>1238</ele>
        <time>2022-03-03T13:15:59.644Z</time>
      </trkpt>
      <trkpt lat="44.16565" lon="6.10588">
        <ele>1238</ele>
        <time>2022-03-03T13:16:00.644Z</time>
      </trkpt>
      <trkpt lat="44.16564" lon="6.10586">
        <ele>1238</ele>
        <time>2022-03-03T13:16:01.644Z</time>
      </trkpt>
      <trkpt lat="44.16564" lon="6.10585">
        <ele>1238</ele>
        <time>2022-03-03T13:16:02.644Z</time>
      </trkpt>
      <trkpt lat="44.16563" lon="6.10584">
        <ele>1238</ele>
        <time>2022-03-03T13:16:03.644Z</time>
      </trkpt>
      <trkpt lat="44.16563" lon="6.10583">
        <ele>1238</ele>
        <time>2022-03-03T13:16:04.644Z</time>
      </trkpt>
      <trkpt lat="44.16562" lon="6.10582">
        <ele>1239</ele>
        <time>2022-03-03T13:16:05.644Z</time>
      </trkpt>
      <trkpt lat="44.16562" lon="6.1058">
        <ele>1239</ele>
        <time>2022-03-03T13:16:06.644Z</time>
      </trkpt>
      <trkpt lat="44.16561" lon="6.1058">
        <ele>1239</ele>
        <time>2022-03-03T13:16:07.644Z</time>
      </trkpt>
      <trkpt lat="44.1656" lon="6.10579">
        <ele>1239</ele>
        <time>2022-03-03T13:16:08.644Z</time>
      </trkpt>
      <trkpt lat="44.1656" lon="6.10578">
        <ele>1239</ele>
        <time>2022-03-03T13:16:09.644Z</time>
      </trkpt>
      <trkpt lat="44.16559" lon="6.10577">
        <ele>1239</ele>
        <time>2022-03-03T13:16:10.644Z</time>
      </trkpt>
      <trkpt lat="44.16558" lon="6.10577">
        <ele>1239</ele>
        <time>2022-03-03T13:16:11.644Z</time>
      </trkpt>
      <trkpt lat="44.16557" lon="6.10576">
        <ele>1239</ele>
        <time>2022-03-03T13:16:12.644Z</time>
      </trkpt>
      <trkpt lat="44.16556" lon="6.10575">
        <ele>1239</ele>
        <time>2022-03-03T13:16:13.644Z</time>
      </trkpt>
      <trkpt lat="44.16555" lon="6.10575">
        <ele>1239</ele>
        <time>2022-03-03T13:16:14.644Z</time>
      </trkpt>
      <trkpt lat="44.16553" lon="6.10574">
        <ele>1239</ele>
        <time>2022-03-03T13:16:15.644Z</time>
      </trkpt>
      <trkpt lat="44.16552" lon="6.10574">
        <ele>1239</ele>
        <time>2022-03-03T13:16:16.644Z</time>
      </trkpt>
      <trkpt lat="44.16551" lon="6.10574">
        <ele>1239</ele>
        <time>2022-03-03T13:16:17.644Z</time>
      </trkpt>
      <trkpt lat="44.1655" lon="6.10573">
        <ele>1239</ele>
        <time>2022-03-03T13:16:18.644Z</time>
      </trkpt>
      <trkpt lat="44.16549" lon="6.10573">
        <ele>1239</ele>
        <time>2022-03-03T13:16:19.644Z</time>
      </trkpt>
      <trkpt lat="44.16548" lon="6.10572">
        <ele>1239</ele>
        <time>2022-03-03T13:16:20.644Z</time>
      </trkpt>
      <trkpt lat="44.16547" lon="6.10572">
        <ele>1239</ele>
        <time>2022-03-03T13:16:21.644Z</time>
      </trkpt>
      <trkpt lat="44.16546" lon="6.10571">
        <ele>1239</ele>
        <time>2022-03-03T13:16:22.644Z</time>
      </trkpt>
      <trkpt lat="44.16545" lon="6.10571">
        <ele>1239</ele>
        <time>2022-03-03T13:16:23.644Z</time>
      </trkpt>
      <trkpt lat="44.16544" lon="6.10571">
        <ele>1239</ele>
        <time>2022-03-03T13:16:24.644Z</time>
      </trkpt>
      <trkpt lat="44.16543" lon="6.1057">
        <ele>1239</ele>
        <time>2022-03-03T13:16:25.644Z</time>
      </trkpt>
      <trkpt lat="44.16542" lon="6.1057">
        <ele>1239</ele>
        <time>2022-03-03T13:16:26.644Z</time>
      </trkpt>
      <trkpt lat="44.16541" lon="6.1057">
        <ele>1239</ele>
        <time>2022-03-03T13:16:27.644Z</time>
      </trkpt>
      <trkpt lat="44.1654" lon="6.10569">
        <ele>1239</ele>
        <time>2022-03-03T13:16:28.644Z</time>
      </trkpt>
      <trkpt lat="44.16539" lon="6.10569">
        <ele>1239</ele>
        <time>2022-03-03T13:16:29.644Z</time>
      </trkpt>
      <trkpt lat="44.16538" lon="6.10569">
        <ele>1239</ele>
        <time>2022-03-03T13:16:30.644Z</time>
      </trkpt>
      <trkpt lat="44.16538" lon="6.10569">
        <ele>1239</ele>
        <time>2022-03-03T13:16:31.644Z</time>
      </trkpt>
      <trkpt lat="44.16537" lon="6.10569">
        <ele>1239</ele>
        <time>2022-03-03T13:16:32.644Z</time>
      </trkpt>
      <trkpt lat="44.16536" lon="6.10568">
        <ele>1239</ele>
        <time>2022-03-03T13:16:33.644Z</time>
      </trkpt>
      <trkpt lat="44.16535" lon="6.10568">
        <ele>1239</ele>
        <time>2022-03-03T13:16:34.644Z</time>
      </trkpt>
      <trkpt lat="44.16534" lon="6.10569">
        <ele>1239</ele>
        <time>2022-03-03T13:16:35.644Z</time>
      </trkpt>
      <trkpt lat="44.16532" lon="6.10569">
        <ele>1239</ele>
        <time>2022-03-03T13:16:36.644Z</time>
      </trkpt>
      <trkpt lat="44.16531" lon="6.10568">
        <ele>1239</ele>
        <time>2022-03-03T13:16:37.644Z</time>
      </trkpt>
      <trkpt lat="44.1653" lon="6.10568">
        <ele>1238</ele>
        <time>2022-03-03T13:16:38.644Z</time>
      </trkpt>
      <trkpt lat="44.16529" lon="6.10568">
        <ele>1238</ele>
        <time>2022-03-03T13:16:39.644Z</time>
      </trkpt>
      <trkpt lat="44.16529" lon="6.10568">
        <ele>1238</ele>
        <time>2022-03-03T13:16:40.644Z</time>
      </trkpt>
      <trkpt lat="44.16528" lon="6.10569">
        <ele>1238</ele>
        <time>2022-03-03T13:16:41.644Z</time>
      </trkpt>
      <trkpt lat="44.16527" lon="6.10569">
        <ele>1238</ele>
        <time>2022-03-03T13:16:42.644Z</time>
      </trkpt>
      <trkpt lat="44.16526" lon="6.1057">
        <ele>1237</ele>
        <time>2022-03-03T13:16:43.644Z</time>
      </trkpt>
      <trkpt lat="44.16526" lon="6.10571">
        <ele>1237</ele>
        <time>2022-03-03T13:16:44.644Z</time>
      </trkpt>
      <trkpt lat="44.16525" lon="6.10571">
        <ele>1237</ele>
        <time>2022-03-03T13:16:45.644Z</time>
      </trkpt>
      <trkpt lat="44.16525" lon="6.10572">
        <ele>1237</ele>
        <time>2022-03-03T13:16:46.644Z</time>
      </trkpt>
      <trkpt lat="44.16524" lon="6.10573">
        <ele>1237</ele>
        <time>2022-03-03T13:16:47.644Z</time>
      </trkpt>
      <trkpt lat="44.16523" lon="6.10575">
        <ele>1237</ele>
        <time>2022-03-03T13:16:48.644Z</time>
      </trkpt>
      <trkpt lat="44.16522" lon="6.10576">
        <ele>1237</ele>
        <time>2022-03-03T13:16:49.644Z</time>
      </trkpt>
      <trkpt lat="44.16522" lon="6.10577">
        <ele>1237</ele>
        <time>2022-03-03T13:16:50.644Z</time>
      </trkpt>
      <trkpt lat="44.16521" lon="6.10578">
        <ele>1236</ele>
        <time>2022-03-03T13:16:51.644Z</time>
      </trkpt>
      <trkpt lat="44.16521" lon="6.10579">
        <ele>1236</ele>
        <time>2022-03-03T13:16:52.644Z</time>
      </trkpt>
      <trkpt lat="44.16521" lon="6.1058">
        <ele>1236</ele>
        <time>2022-03-03T13:16:53.644Z</time>
      </trkpt>
      <trkpt lat="44.16521" lon="6.10581">
        <ele>1236</ele>
        <time>2022-03-03T13:16:54.644Z</time>
      </trkpt>
      <trkpt lat="44.16521" lon="6.10583">
        <ele>1236</ele>
        <time>2022-03-03T13:16:55.644Z</time>
      </trkpt>
      <trkpt lat="44.1652" lon="6.10584">
        <ele>1236</ele>
        <time>2022-03-03T13:16:56.644Z</time>
      </trkpt>
      <trkpt lat="44.1652" lon="6.10585">
        <ele>1235</ele>
        <time>2022-03-03T13:16:57.644Z</time>
      </trkpt>
      <trkpt lat="44.1652" lon="6.10586">
        <ele>1235</ele>
        <time>2022-03-03T13:16:58.644Z</time>
      </trkpt>
      <trkpt lat="44.16519" lon="6.10586">
        <ele>1235</ele>
        <time>2022-03-03T13:16:59.644Z</time>
      </trkpt>
      <trkpt lat="44.16518" lon="6.10587">
        <ele>1235</ele>
        <time>2022-03-03T13:17:00.644Z</time>
      </trkpt>
      <trkpt lat="44.16518" lon="6.10588">
        <ele>1235</ele>
        <time>2022-03-03T13:17:01.644Z</time>
      </trkpt>
      <trkpt lat="44.16517" lon="6.1059">
        <ele>1235</ele>
        <time>2022-03-03T13:17:02.644Z</time>
      </trkpt>
      <trkpt lat="44.16517" lon="6.10591">
        <ele>1234</ele>
        <time>2022-03-03T13:17:03.644Z</time>
      </trkpt>
      <trkpt lat="44.16516" lon="6.10592">
        <ele>1234</ele>
        <time>2022-03-03T13:17:04.644Z</time>
      </trkpt>
      <trkpt lat="44.16515" lon="6.10593">
        <ele>1234</ele>
        <time>2022-03-03T13:17:05.644Z</time>
      </trkpt>
      <trkpt lat="44.16515" lon="6.10594">
        <ele>1234</ele>
        <time>2022-03-03T13:17:06.644Z</time>
      </trkpt>
      <trkpt lat="44.16514" lon="6.10595">
        <ele>1234</ele>
        <time>2022-03-03T13:17:07.644Z</time>
      </trkpt>
      <trkpt lat="44.16513" lon="6.10596">
        <ele>1234</ele>
        <time>2022-03-03T13:17:08.644Z</time>
      </trkpt>
      <trkpt lat="44.16512" lon="6.10597">
        <ele>1233</ele>
        <time>2022-03-03T13:17:09.644Z</time>
      </trkpt>
      <trkpt lat="44.16511" lon="6.10598">
        <ele>1233</ele>
        <time>2022-03-03T13:17:10.644Z</time>
      </trkpt>
      <trkpt lat="44.16511" lon="6.10598">
        <ele>1233</ele>
        <time>2022-03-03T13:17:11.644Z</time>
      </trkpt>
      <trkpt lat="44.1651" lon="6.10599">
        <ele>1233</ele>
        <time>2022-03-03T13:17:12.644Z</time>
      </trkpt>
      <trkpt lat="44.16509" lon="6.106">
        <ele>1233</ele>
        <time>2022-03-03T13:17:13.644Z</time>
      </trkpt>
      <trkpt lat="44.16508" lon="6.10601">
        <ele>1232</ele>
        <time>2022-03-03T13:17:14.644Z</time>
      </trkpt>
      <trkpt lat="44.16507" lon="6.10601">
        <ele>1232</ele>
        <time>2022-03-03T13:17:15.644Z</time>
      </trkpt>
      <trkpt lat="44.16506" lon="6.10602">
        <ele>1232</ele>
        <time>2022-03-03T13:17:16.644Z</time>
      </trkpt>
      <trkpt lat="44.16505" lon="6.10602">
        <ele>1232</ele>
        <time>2022-03-03T13:17:17.644Z</time>
      </trkpt>
      <trkpt lat="44.16504" lon="6.10603">
        <ele>1232</ele>
        <time>2022-03-03T13:17:18.644Z</time>
      </trkpt>
      <trkpt lat="44.16503" lon="6.10603">
        <ele>1232</ele>
        <time>2022-03-03T13:17:19.644Z</time>
      </trkpt>
      <trkpt lat="44.16502" lon="6.10604">
        <ele>1231</ele>
        <time>2022-03-03T13:17:20.644Z</time>
      </trkpt>
      <trkpt lat="44.16501" lon="6.10604">
        <ele>1231</ele>
        <time>2022-03-03T13:17:21.644Z</time>
      </trkpt>
      <trkpt lat="44.16501" lon="6.10605">
        <ele>1231</ele>
        <time>2022-03-03T13:17:22.644Z</time>
      </trkpt>
      <trkpt lat="44.165" lon="6.10605">
        <ele>1231</ele>
        <time>2022-03-03T13:17:23.644Z</time>
      </trkpt>
      <trkpt lat="44.16499" lon="6.10605">
        <ele>1231</ele>
        <time>2022-03-03T13:17:24.644Z</time>
      </trkpt>
      <trkpt lat="44.16498" lon="6.10606">
        <ele>1230</ele>
        <time>2022-03-03T13:17:25.644Z</time>
      </trkpt>
      <trkpt lat="44.16497" lon="6.10607">
        <ele>1230</ele>
        <time>2022-03-03T13:17:26.644Z</time>
      </trkpt>
      <trkpt lat="44.16496" lon="6.10607">
        <ele>1230</ele>
        <time>2022-03-03T13:17:27.644Z</time>
      </trkpt>
      <trkpt lat="44.16495" lon="6.10608">
        <ele>1230</ele>
        <time>2022-03-03T13:17:28.644Z</time>
      </trkpt>
      <trkpt lat="44.16494" lon="6.10609">
        <ele>1230</ele>
        <time>2022-03-03T13:17:29.644Z</time>
      </trkpt>
      <trkpt lat="44.16493" lon="6.1061">
        <ele>1230</ele>
        <time>2022-03-03T13:17:30.644Z</time>
      </trkpt>
      <trkpt lat="44.16492" lon="6.1061">
        <ele>1229</ele>
        <time>2022-03-03T13:17:31.644Z</time>
      </trkpt>
      <trkpt lat="44.16492" lon="6.10611">
        <ele>1229</ele>
        <time>2022-03-03T13:17:32.644Z</time>
      </trkpt>
      <trkpt lat="44.16491" lon="6.10612">
        <ele>1229</ele>
        <time>2022-03-03T13:17:33.644Z</time>
      </trkpt>
      <trkpt lat="44.1649" lon="6.10613">
        <ele>1229</ele>
        <time>2022-03-03T13:17:34.644Z</time>
      </trkpt>
      <trkpt lat="44.16489" lon="6.10614">
        <ele>1229</ele>
        <time>2022-03-03T13:17:35.644Z</time>
      </trkpt>
      <trkpt lat="44.16488" lon="6.10615">
        <ele>1229</ele>
        <time>2022-03-03T13:17:36.644Z</time>
      </trkpt>
      <trkpt lat="44.16487" lon="6.10616">
        <ele>1229</ele>
        <time>2022-03-03T13:17:37.644Z</time>
      </trkpt>
      <trkpt lat="44.16486" lon="6.10617">
        <ele>1229</ele>
        <time>2022-03-03T13:17:38.644Z</time>
      </trkpt>
      <trkpt lat="44.16486" lon="6.10619">
        <ele>1229</ele>
        <time>2022-03-03T13:17:39.644Z</time>
      </trkpt>
      <trkpt lat="44.16485" lon="6.1062">
        <ele>1228</ele>
        <time>2022-03-03T13:17:40.644Z</time>
      </trkpt>
      <trkpt lat="44.16484" lon="6.10621">
        <ele>1228</ele>
        <time>2022-03-03T13:17:41.644Z</time>
      </trkpt>
      <trkpt lat="44.16483" lon="6.10622">
        <ele>1228</ele>
        <time>2022-03-03T13:17:42.644Z</time>
      </trkpt>
      <trkpt lat="44.16482" lon="6.10623">
        <ele>1228</ele>
        <time>2022-03-03T13:17:43.644Z</time>
      </trkpt>
      <trkpt lat="44.16481" lon="6.10624">
        <ele>1228</ele>
        <time>2022-03-03T13:17:44.644Z</time>
      </trkpt>
      <trkpt lat="44.1648" lon="6.10625">
        <ele>1228</ele>
        <time>2022-03-03T13:17:45.644Z</time>
      </trkpt>
      <trkpt lat="44.16479" lon="6.10626">
        <ele>1228</ele>
        <time>2022-03-03T13:17:46.644Z</time>
      </trkpt>
      <trkpt lat="44.16478" lon="6.10627">
        <ele>1227</ele>
        <time>2022-03-03T13:17:47.644Z</time>
      </trkpt>
      <trkpt lat="44.16477" lon="6.10627">
        <ele>1227</ele>
        <time>2022-03-03T13:17:48.644Z</time>
      </trkpt>
      <trkpt lat="44.16476" lon="6.10628">
        <ele>1227</ele>
        <time>2022-03-03T13:17:49.644Z</time>
      </trkpt>
      <trkpt lat="44.16475" lon="6.10629">
        <ele>1227</ele>
        <time>2022-03-03T13:17:50.644Z</time>
      </trkpt>
      <trkpt lat="44.16474" lon="6.10629">
        <ele>1227</ele>
        <time>2022-03-03T13:17:51.644Z</time>
      </trkpt>
      <trkpt lat="44.16473" lon="6.1063">
        <ele>1227</ele>
        <time>2022-03-03T13:17:52.644Z</time>
      </trkpt>
      <trkpt lat="44.16472" lon="6.10631">
        <ele>1226</ele>
        <time>2022-03-03T13:17:53.644Z</time>
      </trkpt>
      <trkpt lat="44.1647" lon="6.10631">
        <ele>1226</ele>
        <time>2022-03-03T13:17:54.644Z</time>
      </trkpt>
      <trkpt lat="44.16469" lon="6.10632">
        <ele>1226</ele>
        <time>2022-03-03T13:17:55.644Z</time>
      </trkpt>
      <trkpt lat="44.16468" lon="6.10632">
        <ele>1226</ele>
        <time>2022-03-03T13:17:56.644Z</time>
      </trkpt>
      <trkpt lat="44.16467" lon="6.10633">
        <ele>1226</ele>
        <time>2022-03-03T13:17:57.644Z</time>
      </trkpt>
      <trkpt lat="44.16465" lon="6.10633">
        <ele>1226</ele>
        <time>2022-03-03T13:17:58.644Z</time>
      </trkpt>
      <trkpt lat="44.16464" lon="6.10634">
        <ele>1225</ele>
        <time>2022-03-03T13:17:59.644Z</time>
      </trkpt>
      <trkpt lat="44.16463" lon="6.10635">
        <ele>1225</ele>
        <time>2022-03-03T13:18:00.644Z</time>
      </trkpt>
      <trkpt lat="44.16462" lon="6.10635">
        <ele>1225</ele>
        <time>2022-03-03T13:18:01.644Z</time>
      </trkpt>
      <trkpt lat="44.16461" lon="6.10636">
        <ele>1225</ele>
        <time>2022-03-03T13:18:02.644Z</time>
      </trkpt>
      <trkpt lat="44.1646" lon="6.10636">
        <ele>1225</ele>
        <time>2022-03-03T13:18:03.644Z</time>
      </trkpt>
      <trkpt lat="44.16458" lon="6.10637">
        <ele>1225</ele>
        <time>2022-03-03T13:18:04.644Z</time>
      </trkpt>
      <trkpt lat="44.16457" lon="6.10637">
        <ele>1224</ele>
        <time>2022-03-03T13:18:05.644Z</time>
      </trkpt>
      <trkpt lat="44.16456" lon="6.10638">
        <ele>1224</ele>
        <time>2022-03-03T13:18:06.644Z</time>
      </trkpt>
      <trkpt lat="44.16455" lon="6.10638">
        <ele>1224</ele>
        <time>2022-03-03T13:18:07.644Z</time>
      </trkpt>
      <trkpt lat="44.16454" lon="6.10638">
        <ele>1224</ele>
        <time>2022-03-03T13:18:08.644Z</time>
      </trkpt>
      <trkpt lat="44.16453" lon="6.10639">
        <ele>1224</ele>
        <time>2022-03-03T13:18:09.644Z</time>
      </trkpt>
      <trkpt lat="44.16452" lon="6.10639">
        <ele>1223</ele>
        <time>2022-03-03T13:18:10.644Z</time>
      </trkpt>
      <trkpt lat="44.16451" lon="6.10639">
        <ele>1223</ele>
        <time>2022-03-03T13:18:11.644Z</time>
      </trkpt>
      <trkpt lat="44.1645" lon="6.1064">
        <ele>1223</ele>
        <time>2022-03-03T13:18:12.644Z</time>
      </trkpt>
      <trkpt lat="44.16449" lon="6.1064">
        <ele>1223</ele>
        <time>2022-03-03T13:18:13.644Z</time>
      </trkpt>
      <trkpt lat="44.16448" lon="6.1064">
        <ele>1223</ele>
        <time>2022-03-03T13:18:14.644Z</time>
      </trkpt>
      <trkpt lat="44.16447" lon="6.10641">
        <ele>1223</ele>
        <time>2022-03-03T13:18:15.644Z</time>
      </trkpt>
      <trkpt lat="44.16446" lon="6.10641">
        <ele>1223</ele>
        <time>2022-03-03T13:18:16.644Z</time>
      </trkpt>
      <trkpt lat="44.16445" lon="6.10642">
        <ele>1223</ele>
        <time>2022-03-03T13:18:17.644Z</time>
      </trkpt>
      <trkpt lat="44.16444" lon="6.10642">
        <ele>1223</ele>
        <time>2022-03-03T13:18:18.644Z</time>
      </trkpt>
      <trkpt lat="44.16443" lon="6.10643">
        <ele>1222</ele>
        <time>2022-03-03T13:18:19.644Z</time>
      </trkpt>
      <trkpt lat="44.16442" lon="6.10643">
        <ele>1222</ele>
        <time>2022-03-03T13:18:20.644Z</time>
      </trkpt>
      <trkpt lat="44.16441" lon="6.10643">
        <ele>1222</ele>
        <time>2022-03-03T13:18:21.644Z</time>
      </trkpt>
      <trkpt lat="44.1644" lon="6.10644">
        <ele>1222</ele>
        <time>2022-03-03T13:18:22.644Z</time>
      </trkpt>
      <trkpt lat="44.16439" lon="6.10644">
        <ele>1222</ele>
        <time>2022-03-03T13:18:23.644Z</time>
      </trkpt>
      <trkpt lat="44.16437" lon="6.10645">
        <ele>1222</ele>
        <time>2022-03-03T13:18:24.644Z</time>
      </trkpt>
      <trkpt lat="44.16436" lon="6.10645">
        <ele>1222</ele>
        <time>2022-03-03T13:18:25.644Z</time>
      </trkpt>
      <trkpt lat="44.16435" lon="6.10645">
        <ele>1222</ele>
        <time>2022-03-03T13:18:26.644Z</time>
      </trkpt>
      <trkpt lat="44.16434" lon="6.10646">
        <ele>1221</ele>
        <time>2022-03-03T13:18:27.644Z</time>
      </trkpt>
      <trkpt lat="44.16433" lon="6.10646">
        <ele>1221</ele>
        <time>2022-03-03T13:18:28.644Z</time>
      </trkpt>
      <trkpt lat="44.16432" lon="6.10646">
        <ele>1221</ele>
        <time>2022-03-03T13:18:29.644Z</time>
      </trkpt>
      <trkpt lat="44.16431" lon="6.10647">
        <ele>1221</ele>
        <time>2022-03-03T13:18:30.644Z</time>
      </trkpt>
      <trkpt lat="44.1643" lon="6.10647">
        <ele>1221</ele>
        <time>2022-03-03T13:18:31.644Z</time>
      </trkpt>
      <trkpt lat="44.16429" lon="6.10648">
        <ele>1221</ele>
        <time>2022-03-03T13:18:32.644Z</time>
      </trkpt>
      <trkpt lat="44.16428" lon="6.10648">
        <ele>1220</ele>
        <time>2022-03-03T13:18:33.644Z</time>
      </trkpt>
      <trkpt lat="44.16427" lon="6.10648">
        <ele>1220</ele>
        <time>2022-03-03T13:18:34.644Z</time>
      </trkpt>
      <trkpt lat="44.16426" lon="6.10648">
        <ele>1220</ele>
        <time>2022-03-03T13:18:35.644Z</time>
      </trkpt>
      <trkpt lat="44.16425" lon="6.10649">
        <ele>1220</ele>
        <time>2022-03-03T13:18:36.644Z</time>
      </trkpt>
      <trkpt lat="44.16424" lon="6.10649">
        <ele>1220</ele>
        <time>2022-03-03T13:18:37.644Z</time>
      </trkpt>
      <trkpt lat="44.16423" lon="6.10649">
        <ele>1219</ele>
        <time>2022-03-03T13:18:38.644Z</time>
      </trkpt>
      <trkpt lat="44.16422" lon="6.10649">
        <ele>1219</ele>
        <time>2022-03-03T13:18:39.644Z</time>
      </trkpt>
      <trkpt lat="44.16421" lon="6.1065">
        <ele>1219</ele>
        <time>2022-03-03T13:18:40.644Z</time>
      </trkpt>
      <trkpt lat="44.1642" lon="6.1065">
        <ele>1219</ele>
        <time>2022-03-03T13:18:41.644Z</time>
      </trkpt>
      <trkpt lat="44.16419" lon="6.1065">
        <ele>1219</ele>
        <time>2022-03-03T13:18:42.644Z</time>
      </trkpt>
      <trkpt lat="44.16417" lon="6.1065">
        <ele>1218</ele>
        <time>2022-03-03T13:18:43.644Z</time>
      </trkpt>
      <trkpt lat="44.16416" lon="6.1065">
        <ele>1218</ele>
        <time>2022-03-03T13:18:44.644Z</time>
      </trkpt>
      <trkpt lat="44.16415" lon="6.1065">
        <ele>1218</ele>
        <time>2022-03-03T13:18:45.644Z</time>
      </trkpt>
      <trkpt lat="44.16414" lon="6.1065">
        <ele>1218</ele>
        <time>2022-03-03T13:18:46.644Z</time>
      </trkpt>
      <trkpt lat="44.16413" lon="6.1065">
        <ele>1218</ele>
        <time>2022-03-03T13:18:47.644Z</time>
      </trkpt>
      <trkpt lat="44.16412" lon="6.1065">
        <ele>1218</ele>
        <time>2022-03-03T13:18:48.644Z</time>
      </trkpt>
      <trkpt lat="44.1641" lon="6.1065">
        <ele>1218</ele>
        <time>2022-03-03T13:18:49.644Z</time>
      </trkpt>
      <trkpt lat="44.16409" lon="6.1065">
        <ele>1217</ele>
        <time>2022-03-03T13:18:50.644Z</time>
      </trkpt>
      <trkpt lat="44.16407" lon="6.1065">
        <ele>1217</ele>
        <time>2022-03-03T13:18:51.644Z</time>
      </trkpt>
      <trkpt lat="44.16406" lon="6.1065">
        <ele>1217</ele>
        <time>2022-03-03T13:18:52.644Z</time>
      </trkpt>
      <trkpt lat="44.16405" lon="6.1065">
        <ele>1217</ele>
        <time>2022-03-03T13:18:53.644Z</time>
      </trkpt>
      <trkpt lat="44.16404" lon="6.1065">
        <ele>1217</ele>
        <time>2022-03-03T13:18:54.644Z</time>
      </trkpt>
      <trkpt lat="44.16403" lon="6.1065">
        <ele>1217</ele>
        <time>2022-03-03T13:18:55.644Z</time>
      </trkpt>
      <trkpt lat="44.16402" lon="6.1065">
        <ele>1217</ele>
        <time>2022-03-03T13:18:56.644Z</time>
      </trkpt>
      <trkpt lat="44.16401" lon="6.10649">
        <ele>1217</ele>
        <time>2022-03-03T13:18:57.644Z</time>
      </trkpt>
      <trkpt lat="44.164" lon="6.10649">
        <ele>1217</ele>
        <time>2022-03-03T13:18:58.644Z</time>
      </trkpt>
      <trkpt lat="44.16399" lon="6.10649">
        <ele>1216</ele>
        <time>2022-03-03T13:18:59.644Z</time>
      </trkpt>
      <trkpt lat="44.16397" lon="6.10649">
        <ele>1216</ele>
        <time>2022-03-03T13:19:00.644Z</time>
      </trkpt>
      <trkpt lat="44.16396" lon="6.10648">
        <ele>1216</ele>
        <time>2022-03-03T13:19:01.644Z</time>
      </trkpt>
      <trkpt lat="44.16395" lon="6.10648">
        <ele>1216</ele>
        <time>2022-03-03T13:19:02.644Z</time>
      </trkpt>
      <trkpt lat="44.16394" lon="6.10647">
        <ele>1216</ele>
        <time>2022-03-03T13:19:03.644Z</time>
      </trkpt>
      <trkpt lat="44.16393" lon="6.10647">
        <ele>1215</ele>
        <time>2022-03-03T13:19:04.644Z</time>
      </trkpt>
      <trkpt lat="44.16392" lon="6.10647">
        <ele>1215</ele>
        <time>2022-03-03T13:19:05.644Z</time>
      </trkpt>
      <trkpt lat="44.16391" lon="6.10646">
        <ele>1215</ele>
        <time>2022-03-03T13:19:06.644Z</time>
      </trkpt>
      <trkpt lat="44.1639" lon="6.10646">
        <ele>1215</ele>
        <time>2022-03-03T13:19:07.644Z</time>
      </trkpt>
      <trkpt lat="44.16389" lon="6.10645">
        <ele>1215</ele>
        <time>2022-03-03T13:19:08.644Z</time>
      </trkpt>
      <trkpt lat="44.16388" lon="6.10645">
        <ele>1215</ele>
        <time>2022-03-03T13:19:09.644Z</time>
      </trkpt>
      <trkpt lat="44.16387" lon="6.10644">
        <ele>1215</ele>
        <time>2022-03-03T13:19:10.644Z</time>
      </trkpt>
      <trkpt lat="44.16386" lon="6.10644">
        <ele>1214</ele>
        <time>2022-03-03T13:19:11.644Z</time>
      </trkpt>
      <trkpt lat="44.16385" lon="6.10644">
        <ele>1214</ele>
        <time>2022-03-03T13:19:12.644Z</time>
      </trkpt>
      <trkpt lat="44.16384" lon="6.10643">
        <ele>1214</ele>
        <time>2022-03-03T13:19:13.644Z</time>
      </trkpt>
      <trkpt lat="44.16383" lon="6.10643">
        <ele>1214</ele>
        <time>2022-03-03T13:19:14.644Z</time>
      </trkpt>
      <trkpt lat="44.16382" lon="6.10643">
        <ele>1214</ele>
        <time>2022-03-03T13:19:15.644Z</time>
      </trkpt>
      <trkpt lat="44.16381" lon="6.10643">
        <ele>1214</ele>
        <time>2022-03-03T13:19:16.644Z</time>
      </trkpt>
      <trkpt lat="44.16379" lon="6.10643">
        <ele>1214</ele>
        <time>2022-03-03T13:19:17.644Z</time>
      </trkpt>
      <trkpt lat="44.16378" lon="6.10643">
        <ele>1213</ele>
        <time>2022-03-03T13:19:18.644Z</time>
      </trkpt>
      <trkpt lat="44.16377" lon="6.10642">
        <ele>1213</ele>
        <time>2022-03-03T13:19:19.644Z</time>
      </trkpt>
      <trkpt lat="44.16376" lon="6.10641">
        <ele>1213</ele>
        <time>2022-03-03T13:19:20.644Z</time>
      </trkpt>
      <trkpt lat="44.16375" lon="6.1064">
        <ele>1213</ele>
        <time>2022-03-03T13:19:21.644Z</time>
      </trkpt>
      <trkpt lat="44.16374" lon="6.10639">
        <ele>1212</ele>
        <time>2022-03-03T13:19:22.644Z</time>
      </trkpt>
      <trkpt lat="44.16373" lon="6.10639">
        <ele>1212</ele>
        <time>2022-03-03T13:19:23.644Z</time>
      </trkpt>
      <trkpt lat="44.16372" lon="6.10638">
        <ele>1212</ele>
        <time>2022-03-03T13:19:24.644Z</time>
      </trkpt>
      <trkpt lat="44.16371" lon="6.10637">
        <ele>1211</ele>
        <time>2022-03-03T13:19:25.644Z</time>
      </trkpt>
      <trkpt lat="44.1637" lon="6.10635">
        <ele>1211</ele>
        <time>2022-03-03T13:19:26.644Z</time>
      </trkpt>
      <trkpt lat="44.16369" lon="6.10635">
        <ele>1211</ele>
        <time>2022-03-03T13:19:27.644Z</time>
      </trkpt>
      <trkpt lat="44.16368" lon="6.10634">
        <ele>1211</ele>
        <time>2022-03-03T13:19:28.644Z</time>
      </trkpt>
      <trkpt lat="44.16367" lon="6.10633">
        <ele>1211</ele>
        <time>2022-03-03T13:19:29.644Z</time>
      </trkpt>
      <trkpt lat="44.16366" lon="6.10632">
        <ele>1210</ele>
        <time>2022-03-03T13:19:30.644Z</time>
      </trkpt>
      <trkpt lat="44.16365" lon="6.10632">
        <ele>1210</ele>
        <time>2022-03-03T13:19:31.644Z</time>
      </trkpt>
      <trkpt lat="44.16364" lon="6.10631">
        <ele>1210</ele>
        <time>2022-03-03T13:19:32.644Z</time>
      </trkpt>
      <trkpt lat="44.16363" lon="6.1063">
        <ele>1209</ele>
        <time>2022-03-03T13:19:33.644Z</time>
      </trkpt>
      <trkpt lat="44.16362" lon="6.10629">
        <ele>1209</ele>
        <time>2022-03-03T13:19:34.644Z</time>
      </trkpt>
      <trkpt lat="44.16361" lon="6.10628">
        <ele>1209</ele>
        <time>2022-03-03T13:19:35.644Z</time>
      </trkpt>
      <trkpt lat="44.1636" lon="6.10626">
        <ele>1208</ele>
        <time>2022-03-03T13:19:36.644Z</time>
      </trkpt>
      <trkpt lat="44.1636" lon="6.10625">
        <ele>1208</ele>
        <time>2022-03-03T13:19:37.644Z</time>
      </trkpt>
      <trkpt lat="44.16359" lon="6.10624">
        <ele>1208</ele>
        <time>2022-03-03T13:19:38.644Z</time>
      </trkpt>
      <trkpt lat="44.16358" lon="6.10623">
        <ele>1207</ele>
        <time>2022-03-03T13:19:39.644Z</time>
      </trkpt>
      <trkpt lat="44.16357" lon="6.10622">
        <ele>1207</ele>
        <time>2022-03-03T13:19:40.644Z</time>
      </trkpt>
      <trkpt lat="44.16356" lon="6.10621">
        <ele>1207</ele>
        <time>2022-03-03T13:19:41.644Z</time>
      </trkpt>
      <trkpt lat="44.16355" lon="6.1062">
        <ele>1206</ele>
        <time>2022-03-03T13:19:42.644Z</time>
      </trkpt>
      <trkpt lat="44.16354" lon="6.10619">
        <ele>1206</ele>
        <time>2022-03-03T13:19:43.644Z</time>
      </trkpt>
      <trkpt lat="44.16353" lon="6.10618">
        <ele>1205</ele>
        <time>2022-03-03T13:19:44.644Z</time>
      </trkpt>
      <trkpt lat="44.16352" lon="6.10617">
        <ele>1205</ele>
        <time>2022-03-03T13:19:45.644Z</time>
      </trkpt>
      <trkpt lat="44.16352" lon="6.10616">
        <ele>1205</ele>
        <time>2022-03-03T13:19:46.644Z</time>
      </trkpt>
      <trkpt lat="44.16351" lon="6.10615">
        <ele>1204</ele>
        <time>2022-03-03T13:19:47.644Z</time>
      </trkpt>
      <trkpt lat="44.1635" lon="6.10614">
        <ele>1204</ele>
        <time>2022-03-03T13:19:48.644Z</time>
      </trkpt>
      <trkpt lat="44.16349" lon="6.10613">
        <ele>1204</ele>
        <time>2022-03-03T13:19:49.644Z</time>
      </trkpt>
      <trkpt lat="44.16348" lon="6.10612">
        <ele>1203</ele>
        <time>2022-03-03T13:19:50.644Z</time>
      </trkpt>
      <trkpt lat="44.16347" lon="6.10611">
        <ele>1203</ele>
        <time>2022-03-03T13:19:51.644Z</time>
      </trkpt>
      <trkpt lat="44.16346" lon="6.1061">
        <ele>1203</ele>
        <time>2022-03-03T13:19:52.644Z</time>
      </trkpt>
      <trkpt lat="44.16345" lon="6.10609">
        <ele>1203</ele>
        <time>2022-03-03T13:19:53.644Z</time>
      </trkpt>
      <trkpt lat="44.16344" lon="6.10608">
        <ele>1202</ele>
        <time>2022-03-03T13:19:54.644Z</time>
      </trkpt>
      <trkpt lat="44.16343" lon="6.10607">
        <ele>1202</ele>
        <time>2022-03-03T13:19:55.644Z</time>
      </trkpt>
      <trkpt lat="44.16342" lon="6.10607">
        <ele>1202</ele>
        <time>2022-03-03T13:19:56.644Z</time>
      </trkpt>
      <trkpt lat="44.16341" lon="6.10606">
        <ele>1201</ele>
        <time>2022-03-03T13:19:57.644Z</time>
      </trkpt>
      <trkpt lat="44.1634" lon="6.10605">
        <ele>1201</ele>
        <time>2022-03-03T13:19:58.644Z</time>
      </trkpt>
      <trkpt lat="44.16339" lon="6.10605">
        <ele>1201</ele>
        <time>2022-03-03T13:19:59.644Z</time>
      </trkpt>
      <trkpt lat="44.16338" lon="6.10604">
        <ele>1201</ele>
        <time>2022-03-03T13:20:00.644Z</time>
      </trkpt>
      <trkpt lat="44.16337" lon="6.10603">
        <ele>1200</ele>
        <time>2022-03-03T13:20:01.644Z</time>
      </trkpt>
      <trkpt lat="44.16336" lon="6.10603">
        <ele>1200</ele>
        <time>2022-03-03T13:20:02.644Z</time>
      </trkpt>
      <trkpt lat="44.16335" lon="6.10602">
        <ele>1200</ele>
        <time>2022-03-03T13:20:03.644Z</time>
      </trkpt>
      <trkpt lat="44.16334" lon="6.10601">
        <ele>1200</ele>
        <time>2022-03-03T13:20:04.644Z</time>
      </trkpt>
      <trkpt lat="44.16333" lon="6.10601">
        <ele>1200</ele>
        <time>2022-03-03T13:20:05.644Z</time>
      </trkpt>
      <trkpt lat="44.16332" lon="6.106">
        <ele>1199</ele>
        <time>2022-03-03T13:20:06.644Z</time>
      </trkpt>
      <trkpt lat="44.16331" lon="6.10599">
        <ele>1199</ele>
        <time>2022-03-03T13:20:07.644Z</time>
      </trkpt>
      <trkpt lat="44.1633" lon="6.10598">
        <ele>1199</ele>
        <time>2022-03-03T13:20:08.644Z</time>
      </trkpt>
      <trkpt lat="44.1633" lon="6.10597">
        <ele>1198</ele>
        <time>2022-03-03T13:20:09.644Z</time>
      </trkpt>
      <trkpt lat="44.16328" lon="6.10596">
        <ele>1198</ele>
        <time>2022-03-03T13:20:10.644Z</time>
      </trkpt>
      <trkpt lat="44.16327" lon="6.10596">
        <ele>1198</ele>
        <time>2022-03-03T13:20:11.644Z</time>
      </trkpt>
      <trkpt lat="44.16326" lon="6.10595">
        <ele>1198</ele>
        <time>2022-03-03T13:20:12.644Z</time>
      </trkpt>
      <trkpt lat="44.16325" lon="6.10594">
        <ele>1197</ele>
        <time>2022-03-03T13:20:13.644Z</time>
      </trkpt>
      <trkpt lat="44.16324" lon="6.10593">
        <ele>1197</ele>
        <time>2022-03-03T13:20:14.644Z</time>
      </trkpt>
      <trkpt lat="44.16323" lon="6.10592">
        <ele>1197</ele>
        <time>2022-03-03T13:20:15.644Z</time>
      </trkpt>
      <trkpt lat="44.16322" lon="6.10592">
        <ele>1197</ele>
        <time>2022-03-03T13:20:16.644Z</time>
      </trkpt>
      <trkpt lat="44.16321" lon="6.10591">
        <ele>1197</ele>
        <time>2022-03-03T13:20:17.644Z</time>
      </trkpt>
      <trkpt lat="44.1632" lon="6.1059">
        <ele>1196</ele>
        <time>2022-03-03T13:20:18.644Z</time>
      </trkpt>
      <trkpt lat="44.16319" lon="6.10589">
        <ele>1196</ele>
        <time>2022-03-03T13:20:19.644Z</time>
      </trkpt>
      <trkpt lat="44.16318" lon="6.10589">
        <ele>1196</ele>
        <time>2022-03-03T13:20:20.644Z</time>
      </trkpt>
      <trkpt lat="44.16317" lon="6.10588">
        <ele>1196</ele>
        <time>2022-03-03T13:20:21.644Z</time>
      </trkpt>
      <trkpt lat="44.16316" lon="6.10588">
        <ele>1196</ele>
        <time>2022-03-03T13:20:22.644Z</time>
      </trkpt>
      <trkpt lat="44.16314" lon="6.10587">
        <ele>1196</ele>
        <time>2022-03-03T13:20:23.644Z</time>
      </trkpt>
      <trkpt lat="44.16313" lon="6.10586">
        <ele>1195</ele>
        <time>2022-03-03T13:20:24.644Z</time>
      </trkpt>
      <trkpt lat="44.16312" lon="6.10586">
        <ele>1195</ele>
        <time>2022-03-03T13:20:25.644Z</time>
      </trkpt>
      <trkpt lat="44.16311" lon="6.10585">
        <ele>1195</ele>
        <time>2022-03-03T13:20:26.644Z</time>
      </trkpt>
      <trkpt lat="44.1631" lon="6.10584">
        <ele>1195</ele>
        <time>2022-03-03T13:20:27.644Z</time>
      </trkpt>
      <trkpt lat="44.16309" lon="6.10584">
        <ele>1195</ele>
        <time>2022-03-03T13:20:28.644Z</time>
      </trkpt>
      <trkpt lat="44.16308" lon="6.10583">
        <ele>1194</ele>
        <time>2022-03-03T13:20:29.644Z</time>
      </trkpt>
      <trkpt lat="44.16307" lon="6.10583">
        <ele>1194</ele>
        <time>2022-03-03T13:20:30.644Z</time>
      </trkpt>
      <trkpt lat="44.16305" lon="6.10582">
        <ele>1194</ele>
        <time>2022-03-03T13:20:31.644Z</time>
      </trkpt>
      <trkpt lat="44.16304" lon="6.10582">
        <ele>1194</ele>
        <time>2022-03-03T13:20:32.644Z</time>
      </trkpt>
      <trkpt lat="44.16303" lon="6.10582">
        <ele>1194</ele>
        <time>2022-03-03T13:20:33.644Z</time>
      </trkpt>
      <trkpt lat="44.16302" lon="6.10581">
        <ele>1194</ele>
        <time>2022-03-03T13:20:34.644Z</time>
      </trkpt>
      <trkpt lat="44.163" lon="6.1058">
        <ele>1194</ele>
        <time>2022-03-03T13:20:35.644Z</time>
      </trkpt>
      <trkpt lat="44.16299" lon="6.1058">
        <ele>1194</ele>
        <time>2022-03-03T13:20:36.644Z</time>
      </trkpt>
      <trkpt lat="44.16298" lon="6.10579">
        <ele>1194</ele>
        <time>2022-03-03T13:20:37.644Z</time>
      </trkpt>
      <trkpt lat="44.16297" lon="6.10579">
        <ele>1194</ele>
        <time>2022-03-03T13:20:38.644Z</time>
      </trkpt>
      <trkpt lat="44.16296" lon="6.10579">
        <ele>1194</ele>
        <time>2022-03-03T13:20:39.644Z</time>
      </trkpt>
      <trkpt lat="44.16294" lon="6.10579">
        <ele>1194</ele>
        <time>2022-03-03T13:20:40.644Z</time>
      </trkpt>
      <trkpt lat="44.16293" lon="6.10579">
        <ele>1194</ele>
        <time>2022-03-03T13:20:41.644Z</time>
      </trkpt>
      <trkpt lat="44.16292" lon="6.1058">
        <ele>1194</ele>
        <time>2022-03-03T13:20:42.644Z</time>
      </trkpt>
      <trkpt lat="44.1629" lon="6.1058">
        <ele>1194</ele>
        <time>2022-03-03T13:20:43.644Z</time>
      </trkpt>
      <trkpt lat="44.16289" lon="6.1058">
        <ele>1194</ele>
        <time>2022-03-03T13:20:44.644Z</time>
      </trkpt>
      <trkpt lat="44.16288" lon="6.1058">
        <ele>1194</ele>
        <time>2022-03-03T13:20:45.644Z</time>
      </trkpt>
      <trkpt lat="44.16286" lon="6.1058">
        <ele>1193</ele>
        <time>2022-03-03T13:20:46.644Z</time>
      </trkpt>
      <trkpt lat="44.16285" lon="6.1058">
        <ele>1194</ele>
        <time>2022-03-03T13:20:47.644Z</time>
      </trkpt>
      <trkpt lat="44.16284" lon="6.10581">
        <ele>1194</ele>
        <time>2022-03-03T13:20:48.644Z</time>
      </trkpt>
      <trkpt lat="44.16283" lon="6.10581">
        <ele>1194</ele>
        <time>2022-03-03T13:20:49.644Z</time>
      </trkpt>
      <trkpt lat="44.16282" lon="6.10581">
        <ele>1194</ele>
        <time>2022-03-03T13:20:50.644Z</time>
      </trkpt>
      <trkpt lat="44.16281" lon="6.10581">
        <ele>1194</ele>
        <time>2022-03-03T13:20:51.644Z</time>
      </trkpt>
      <trkpt lat="44.16281" lon="6.10582">
        <ele>1194</ele>
        <time>2022-03-03T13:20:52.644Z</time>
      </trkpt>
      <trkpt lat="44.1628" lon="6.10582">
        <ele>1194</ele>
        <time>2022-03-03T13:20:53.644Z</time>
      </trkpt>
      <trkpt lat="44.16279" lon="6.10583">
        <ele>1193</ele>
        <time>2022-03-03T13:20:54.644Z</time>
      </trkpt>
      <trkpt lat="44.16278" lon="6.10584">
        <ele>1193</ele>
        <time>2022-03-03T13:20:55.644Z</time>
      </trkpt>
      <trkpt lat="44.16277" lon="6.10584">
        <ele>1193</ele>
        <time>2022-03-03T13:20:56.644Z</time>
      </trkpt>
      <trkpt lat="44.16276" lon="6.10585">
        <ele>1193</ele>
        <time>2022-03-03T13:20:57.644Z</time>
      </trkpt>
      <trkpt lat="44.16275" lon="6.10586">
        <ele>1193</ele>
        <time>2022-03-03T13:20:58.644Z</time>
      </trkpt>
      <trkpt lat="44.16274" lon="6.10587">
        <ele>1193</ele>
        <time>2022-03-03T13:20:59.644Z</time>
      </trkpt>
      <trkpt lat="44.16273" lon="6.10587">
        <ele>1193</ele>
        <time>2022-03-03T13:21:00.644Z</time>
      </trkpt>
      <trkpt lat="44.16272" lon="6.10588">
        <ele>1193</ele>
        <time>2022-03-03T13:21:01.644Z</time>
      </trkpt>
      <trkpt lat="44.1627" lon="6.10589">
        <ele>1193</ele>
        <time>2022-03-03T13:21:02.644Z</time>
      </trkpt>
      <trkpt lat="44.16269" lon="6.1059">
        <ele>1193</ele>
        <time>2022-03-03T13:21:03.644Z</time>
      </trkpt>
      <trkpt lat="44.16268" lon="6.10591">
        <ele>1193</ele>
        <time>2022-03-03T13:21:04.644Z</time>
      </trkpt>
      <trkpt lat="44.16267" lon="6.10592">
        <ele>1193</ele>
        <time>2022-03-03T13:21:05.644Z</time>
      </trkpt>
      <trkpt lat="44.16265" lon="6.10592">
        <ele>1193</ele>
        <time>2022-03-03T13:21:06.644Z</time>
      </trkpt>
      <trkpt lat="44.16264" lon="6.10593">
        <ele>1193</ele>
        <time>2022-03-03T13:21:07.644Z</time>
      </trkpt>
      <trkpt lat="44.16263" lon="6.10594">
        <ele>1193</ele>
        <time>2022-03-03T13:21:08.644Z</time>
      </trkpt>
      <trkpt lat="44.16262" lon="6.10595">
        <ele>1193</ele>
        <time>2022-03-03T13:21:09.644Z</time>
      </trkpt>
      <trkpt lat="44.1626" lon="6.10596">
        <ele>1193</ele>
        <time>2022-03-03T13:21:10.644Z</time>
      </trkpt>
      <trkpt lat="44.16259" lon="6.10597">
        <ele>1193</ele>
        <time>2022-03-03T13:21:11.644Z</time>
      </trkpt>
      <trkpt lat="44.16258" lon="6.10598">
        <ele>1193</ele>
        <time>2022-03-03T13:21:12.644Z</time>
      </trkpt>
      <trkpt lat="44.16256" lon="6.10598">
        <ele>1193</ele>
        <time>2022-03-03T13:21:13.644Z</time>
      </trkpt>
      <trkpt lat="44.16255" lon="6.10599">
        <ele>1193</ele>
        <time>2022-03-03T13:21:14.644Z</time>
      </trkpt>
      <trkpt lat="44.16254" lon="6.106">
        <ele>1193</ele>
        <time>2022-03-03T13:21:15.644Z</time>
      </trkpt>
      <trkpt lat="44.16252" lon="6.106">
        <ele>1193</ele>
        <time>2022-03-03T13:21:16.644Z</time>
      </trkpt>
      <trkpt lat="44.16251" lon="6.10601">
        <ele>1193</ele>
        <time>2022-03-03T13:21:17.644Z</time>
      </trkpt>
      <trkpt lat="44.1625" lon="6.10602">
        <ele>1193</ele>
        <time>2022-03-03T13:21:18.644Z</time>
      </trkpt>
      <trkpt lat="44.16248" lon="6.10603">
        <ele>1193</ele>
        <time>2022-03-03T13:21:19.644Z</time>
      </trkpt>
      <trkpt lat="44.16247" lon="6.10604">
        <ele>1193</ele>
        <time>2022-03-03T13:21:20.644Z</time>
      </trkpt>
      <trkpt lat="44.16245" lon="6.10605">
        <ele>1193</ele>
        <time>2022-03-03T13:21:21.644Z</time>
      </trkpt>
      <trkpt lat="44.16244" lon="6.10605">
        <ele>1193</ele>
        <time>2022-03-03T13:21:22.644Z</time>
      </trkpt>
      <trkpt lat="44.16243" lon="6.10606">
        <ele>1193</ele>
        <time>2022-03-03T13:21:23.644Z</time>
      </trkpt>
      <trkpt lat="44.16241" lon="6.10607">
        <ele>1193</ele>
        <time>2022-03-03T13:21:24.644Z</time>
      </trkpt>
      <trkpt lat="44.1624" lon="6.10608">
        <ele>1193</ele>
        <time>2022-03-03T13:21:25.644Z</time>
      </trkpt>
      <trkpt lat="44.16239" lon="6.10609">
        <ele>1193</ele>
        <time>2022-03-03T13:21:26.644Z</time>
      </trkpt>
      <trkpt lat="44.16238" lon="6.10609">
        <ele>1193</ele>
        <time>2022-03-03T13:21:27.644Z</time>
      </trkpt>
      <trkpt lat="44.16236" lon="6.1061">
        <ele>1193</ele>
        <time>2022-03-03T13:21:28.644Z</time>
      </trkpt>
      <trkpt lat="44.16235" lon="6.10611">
        <ele>1192</ele>
        <time>2022-03-03T13:21:29.644Z</time>
      </trkpt>
      <trkpt lat="44.16234" lon="6.10612">
        <ele>1192</ele>
        <time>2022-03-03T13:21:30.644Z</time>
      </trkpt>
      <trkpt lat="44.16233" lon="6.10613">
        <ele>1192</ele>
        <time>2022-03-03T13:21:31.644Z</time>
      </trkpt>
      <trkpt lat="44.16231" lon="6.10614">
        <ele>1192</ele>
        <time>2022-03-03T13:21:32.644Z</time>
      </trkpt>
      <trkpt lat="44.1623" lon="6.10615">
        <ele>1192</ele>
        <time>2022-03-03T13:21:33.644Z</time>
      </trkpt>
      <trkpt lat="44.16229" lon="6.10616">
        <ele>1192</ele>
        <time>2022-03-03T13:21:34.644Z</time>
      </trkpt>
      <trkpt lat="44.16228" lon="6.10617">
        <ele>1192</ele>
        <time>2022-03-03T13:21:35.644Z</time>
      </trkpt>
      <trkpt lat="44.16226" lon="6.10618">
        <ele>1192</ele>
        <time>2022-03-03T13:21:36.644Z</time>
      </trkpt>
      <trkpt lat="44.16225" lon="6.10619">
        <ele>1192</ele>
        <time>2022-03-03T13:21:37.644Z</time>
      </trkpt>
      <trkpt lat="44.16224" lon="6.1062">
        <ele>1192</ele>
        <time>2022-03-03T13:21:38.644Z</time>
      </trkpt>
      <trkpt lat="44.16223" lon="6.10621">
        <ele>1192</ele>
        <time>2022-03-03T13:21:39.644Z</time>
      </trkpt>
      <trkpt lat="44.16222" lon="6.10622">
        <ele>1192</ele>
        <time>2022-03-03T13:21:40.644Z</time>
      </trkpt>
      <trkpt lat="44.16221" lon="6.10623">
        <ele>1192</ele>
        <time>2022-03-03T13:21:41.644Z</time>
      </trkpt>
      <trkpt lat="44.1622" lon="6.10624">
        <ele>1191</ele>
        <time>2022-03-03T13:21:42.644Z</time>
      </trkpt>
      <trkpt lat="44.16219" lon="6.10625">
        <ele>1191</ele>
        <time>2022-03-03T13:21:43.644Z</time>
      </trkpt>
      <trkpt lat="44.16218" lon="6.10627">
        <ele>1191</ele>
        <time>2022-03-03T13:21:44.644Z</time>
      </trkpt>
      <trkpt lat="44.16217" lon="6.10628">
        <ele>1191</ele>
        <time>2022-03-03T13:21:45.644Z</time>
      </trkpt>
      <trkpt lat="44.16216" lon="6.10629">
        <ele>1191</ele>
        <time>2022-03-03T13:21:46.644Z</time>
      </trkpt>
      <trkpt lat="44.16215" lon="6.1063">
        <ele>1191</ele>
        <time>2022-03-03T13:21:47.644Z</time>
      </trkpt>
      <trkpt lat="44.16214" lon="6.10631">
        <ele>1191</ele>
        <time>2022-03-03T14:06:17.617Z</time>
      </trkpt>
      <trkpt lat="44.16213" lon="6.10632">
        <ele>1191</ele>
        <time>2022-03-03T14:06:18.617Z</time>
      </trkpt>
      <trkpt lat="44.16211" lon="6.10634">
        <ele>1191</ele>
        <time>2022-03-03T14:06:19.617Z</time>
      </trkpt>
      <trkpt lat="44.1621" lon="6.10635">
        <ele>1191</ele>
        <time>2022-03-03T14:06:20.617Z</time>
      </trkpt>
      <trkpt lat="44.16209" lon="6.10636">
        <ele>1191</ele>
        <time>2022-03-03T14:06:21.617Z</time>
      </trkpt>
      <trkpt lat="44.16208" lon="6.10637">
        <ele>1191</ele>
        <time>2022-03-03T14:06:22.617Z</time>
      </trkpt>
      <trkpt lat="44.16207" lon="6.10639">
        <ele>1191</ele>
        <time>2022-03-03T14:06:23.617Z</time>
      </trkpt>
      <trkpt lat="44.16205" lon="6.1064">
        <ele>1191</ele>
        <time>2022-03-03T14:06:24.617Z</time>
      </trkpt>
      <trkpt lat="44.16204" lon="6.10641">
        <ele>1191</ele>
        <time>2022-03-03T14:06:25.617Z</time>
      </trkpt>
      <trkpt lat="44.16203" lon="6.10642">
        <ele>1191</ele>
        <time>2022-03-03T14:06:26.617Z</time>
      </trkpt>
      <trkpt lat="44.16202" lon="6.10643">
        <ele>1191</ele>
        <time>2022-03-03T14:06:27.617Z</time>
      </trkpt>
      <trkpt lat="44.16201" lon="6.10644">
        <ele>1191</ele>
        <time>2022-03-03T14:06:28.617Z</time>
      </trkpt>
      <trkpt lat="44.162" lon="6.10645">
        <ele>1190</ele>
        <time>2022-03-03T14:06:29.617Z</time>
      </trkpt>
      <trkpt lat="44.16198" lon="6.10646">
        <ele>1190</ele>
        <time>2022-03-03T14:06:30.617Z</time>
      </trkpt>
      <trkpt lat="44.16197" lon="6.10648">
        <ele>1190</ele>
        <time>2022-03-03T14:06:31.617Z</time>
      </trkpt>
      <trkpt lat="44.16196" lon="6.10649">
        <ele>1190</ele>
        <time>2022-03-03T14:06:32.617Z</time>
      </trkpt>
      <trkpt lat="44.16195" lon="6.1065">
        <ele>1190</ele>
        <time>2022-03-03T14:06:33.617Z</time>
      </trkpt>
      <trkpt lat="44.16194" lon="6.10651">
        <ele>1190</ele>
        <time>2022-03-03T14:06:34.617Z</time>
      </trkpt>
      <trkpt lat="44.16193" lon="6.10652">
        <ele>1190</ele>
        <time>2022-03-03T14:06:35.617Z</time>
      </trkpt>
      <trkpt lat="44.16192" lon="6.10653">
        <ele>1190</ele>
        <time>2022-03-03T14:06:36.617Z</time>
      </trkpt>
      <trkpt lat="44.1619" lon="6.10654">
        <ele>1190</ele>
        <time>2022-03-03T14:06:37.617Z</time>
      </trkpt>
      <trkpt lat="44.16189" lon="6.10655">
        <ele>1190</ele>
        <time>2022-03-03T14:06:38.617Z</time>
      </trkpt>
      <trkpt lat="44.16188" lon="6.10656">
        <ele>1190</ele>
        <time>2022-03-03T14:06:39.617Z</time>
      </trkpt>
      <trkpt lat="44.16187" lon="6.10658">
        <ele>1190</ele>
        <time>2022-03-03T14:06:40.617Z</time>
      </trkpt>
      <trkpt lat="44.16186" lon="6.10659">
        <ele>1190</ele>
        <time>2022-03-03T14:06:41.617Z</time>
      </trkpt>
      <trkpt lat="44.16185" lon="6.1066">
        <ele>1190</ele>
        <time>2022-03-03T14:06:42.617Z</time>
      </trkpt>
      <trkpt lat="44.16184" lon="6.10661">
        <ele>1190</ele>
        <time>2022-03-03T14:06:43.617Z</time>
      </trkpt>
      <trkpt lat="44.16183" lon="6.10662">
        <ele>1189</ele>
        <time>2022-03-03T14:06:44.617Z</time>
      </trkpt>
      <trkpt lat="44.16182" lon="6.10664">
        <ele>1189</ele>
        <time>2022-03-03T14:06:45.617Z</time>
      </trkpt>
      <trkpt lat="44.16181" lon="6.10665">
        <ele>1189</ele>
        <time>2022-03-03T14:06:46.617Z</time>
      </trkpt>
      <trkpt lat="44.1618" lon="6.10666">
        <ele>1189</ele>
        <time>2022-03-03T14:06:47.617Z</time>
      </trkpt>
      <trkpt lat="44.16179" lon="6.10667">
        <ele>1189</ele>
        <time>2022-03-03T14:06:48.617Z</time>
      </trkpt>
      <trkpt lat="44.16178" lon="6.10669">
        <ele>1189</ele>
        <time>2022-03-03T14:06:49.617Z</time>
      </trkpt>
      <trkpt lat="44.16177" lon="6.1067">
        <ele>1189</ele>
        <time>2022-03-03T14:06:50.617Z</time>
      </trkpt>
      <trkpt lat="44.16176" lon="6.10671">
        <ele>1189</ele>
        <time>2022-03-03T14:06:51.617Z</time>
      </trkpt>
      <trkpt lat="44.16175" lon="6.10672">
        <ele>1188</ele>
        <time>2022-03-03T14:06:52.617Z</time>
      </trkpt>
      <trkpt lat="44.16174" lon="6.10674">
        <ele>1188</ele>
        <time>2022-03-03T14:06:53.617Z</time>
      </trkpt>
      <trkpt lat="44.16173" lon="6.10675">
        <ele>1188</ele>
        <time>2022-03-03T14:06:54.617Z</time>
      </trkpt>
      <trkpt lat="44.16172" lon="6.10676">
        <ele>1188</ele>
        <time>2022-03-03T14:06:55.617Z</time>
      </trkpt>
      <trkpt lat="44.16171" lon="6.10677">
        <ele>1188</ele>
        <time>2022-03-03T14:06:56.617Z</time>
      </trkpt>
      <trkpt lat="44.1617" lon="6.10678">
        <ele>1188</ele>
        <time>2022-03-03T14:06:57.617Z</time>
      </trkpt>
      <trkpt lat="44.16169" lon="6.10679">
        <ele>1188</ele>
        <time>2022-03-03T14:06:58.617Z</time>
      </trkpt>
      <trkpt lat="44.16168" lon="6.1068">
        <ele>1188</ele>
        <time>2022-03-03T14:06:59.617Z</time>
      </trkpt>
      <trkpt lat="44.16167" lon="6.10681">
        <ele>1188</ele>
        <time>2022-03-03T14:07:00.617Z</time>
      </trkpt>
      <trkpt lat="44.16166" lon="6.10683">
        <ele>1188</ele>
        <time>2022-03-03T14:07:01.617Z</time>
      </trkpt>
      <trkpt lat="44.16165" lon="6.10684">
        <ele>1188</ele>
        <time>2022-03-03T14:07:02.617Z</time>
      </trkpt>
      <trkpt lat="44.16164" lon="6.10685">
        <ele>1188</ele>
        <time>2022-03-03T14:07:03.617Z</time>
      </trkpt>
      <trkpt lat="44.16163" lon="6.10686">
        <ele>1188</ele>
        <time>2022-03-03T14:07:04.617Z</time>
      </trkpt>
      <trkpt lat="44.16162" lon="6.10687">
        <ele>1188</ele>
        <time>2022-03-03T14:07:05.617Z</time>
      </trkpt>
      <trkpt lat="44.16161" lon="6.10688">
        <ele>1188</ele>
        <time>2022-03-03T14:07:06.617Z</time>
      </trkpt>
      <trkpt lat="44.1616" lon="6.10689">
        <ele>1188</ele>
        <time>2022-03-03T14:07:07.617Z</time>
      </trkpt>
      <trkpt lat="44.16159" lon="6.1069">
        <ele>1188</ele>
        <time>2022-03-03T14:07:08.617Z</time>
      </trkpt>
      <trkpt lat="44.16158" lon="6.10691">
        <ele>1188</ele>
        <time>2022-03-03T14:07:09.617Z</time>
      </trkpt>
      <trkpt lat="44.16157" lon="6.10692">
        <ele>1188</ele>
        <time>2022-03-03T14:07:10.617Z</time>
      </trkpt>
      <trkpt lat="44.16156" lon="6.10693">
        <ele>1188</ele>
        <time>2022-03-03T14:07:11.617Z</time>
      </trkpt>
      <trkpt lat="44.16155" lon="6.10694">
        <ele>1188</ele>
        <time>2022-03-03T14:07:12.617Z</time>
      </trkpt>
      <trkpt lat="44.16154" lon="6.10695">
        <ele>1188</ele>
        <time>2022-03-03T14:07:13.617Z</time>
      </trkpt>
      <trkpt lat="44.16153" lon="6.10696">
        <ele>1188</ele>
        <time>2022-03-03T14:07:14.617Z</time>
      </trkpt>
      <trkpt lat="44.16152" lon="6.10697">
        <ele>1188</ele>
        <time>2022-03-03T14:07:15.617Z</time>
      </trkpt>
      <trkpt lat="44.16151" lon="6.10698">
        <ele>1188</ele>
        <time>2022-03-03T14:07:16.617Z</time>
      </trkpt>
      <trkpt lat="44.1615" lon="6.10698">
        <ele>1188</ele>
        <time>2022-03-03T14:07:17.617Z</time>
      </trkpt>
      <trkpt lat="44.16148" lon="6.10699">
        <ele>1188</ele>
        <time>2022-03-03T14:07:18.617Z</time>
      </trkpt>
      <trkpt lat="44.16147" lon="6.107">
        <ele>1188</ele>
        <time>2022-03-03T14:07:19.617Z</time>
      </trkpt>
      <trkpt lat="44.16146" lon="6.10701">
        <ele>1188</ele>
        <time>2022-03-03T14:07:20.617Z</time>
      </trkpt>
      <trkpt lat="44.16145" lon="6.10702">
        <ele>1188</ele>
        <time>2022-03-03T14:07:21.617Z</time>
      </trkpt>
      <trkpt lat="44.16144" lon="6.10703">
        <ele>1188</ele>
        <time>2022-03-03T14:07:22.617Z</time>
      </trkpt>
      <trkpt lat="44.16143" lon="6.10703">
        <ele>1188</ele>
        <time>2022-03-03T14:07:23.617Z</time>
      </trkpt>
      <trkpt lat="44.16142" lon="6.10704">
        <ele>1188</ele>
        <time>2022-03-03T14:07:24.617Z</time>
      </trkpt>
      <trkpt lat="44.16141" lon="6.10705">
        <ele>1188</ele>
        <time>2022-03-03T14:07:25.617Z</time>
      </trkpt>
      <trkpt lat="44.1614" lon="6.10705">
        <ele>1188</ele>
        <time>2022-03-03T14:07:26.617Z</time>
      </trkpt>
      <trkpt lat="44.16139" lon="6.10706">
        <ele>1187</ele>
        <time>2022-03-03T14:07:27.617Z</time>
      </trkpt>
      <trkpt lat="44.16138" lon="6.10707">
        <ele>1187</ele>
        <time>2022-03-03T14:07:28.617Z</time>
      </trkpt>
      <trkpt lat="44.16136" lon="6.10707">
        <ele>1187</ele>
        <time>2022-03-03T14:07:29.617Z</time>
      </trkpt>
      <trkpt lat="44.16135" lon="6.10708">
        <ele>1187</ele>
        <time>2022-03-03T14:07:30.617Z</time>
      </trkpt>
      <trkpt lat="44.16134" lon="6.10708">
        <ele>1187</ele>
        <time>2022-03-03T14:07:31.617Z</time>
      </trkpt>
      <trkpt lat="44.16133" lon="6.10709">
        <ele>1187</ele>
        <time>2022-03-03T14:07:32.617Z</time>
      </trkpt>
      <trkpt lat="44.16132" lon="6.10709">
        <ele>1187</ele>
        <time>2022-03-03T14:07:33.617Z</time>
      </trkpt>
      <trkpt lat="44.16131" lon="6.1071">
        <ele>1187</ele>
        <time>2022-03-03T14:07:34.617Z</time>
      </trkpt>
      <trkpt lat="44.16129" lon="6.1071">
        <ele>1187</ele>
        <time>2022-03-03T14:07:35.617Z</time>
      </trkpt>
      <trkpt lat="44.16128" lon="6.1071">
        <ele>1187</ele>
        <time>2022-03-03T14:07:36.617Z</time>
      </trkpt>
      <trkpt lat="44.16127" lon="6.10711">
        <ele>1186</ele>
        <time>2022-03-03T14:07:37.617Z</time>
      </trkpt>
      <trkpt lat="44.16126" lon="6.10711">
        <ele>1186</ele>
        <time>2022-03-03T14:07:38.617Z</time>
      </trkpt>
      <trkpt lat="44.16125" lon="6.10711">
        <ele>1186</ele>
        <time>2022-03-03T14:07:39.617Z</time>
      </trkpt>
      <trkpt lat="44.16124" lon="6.10711">
        <ele>1186</ele>
        <time>2022-03-03T14:07:40.617Z</time>
      </trkpt>
      <trkpt lat="44.16123" lon="6.10711">
        <ele>1186</ele>
        <time>2022-03-03T14:07:41.617Z</time>
      </trkpt>
      <trkpt lat="44.16122" lon="6.10711">
        <ele>1185</ele>
        <time>2022-03-03T14:07:42.617Z</time>
      </trkpt>
      <trkpt lat="44.16121" lon="6.10711">
        <ele>1185</ele>
        <time>2022-03-03T14:07:43.617Z</time>
      </trkpt>
      <trkpt lat="44.1612" lon="6.10711">
        <ele>1185</ele>
        <time>2022-03-03T14:07:44.617Z</time>
      </trkpt>
      <trkpt lat="44.16119" lon="6.10711">
        <ele>1185</ele>
        <time>2022-03-03T14:07:45.617Z</time>
      </trkpt>
      <trkpt lat="44.16118" lon="6.10711">
        <ele>1185</ele>
        <time>2022-03-03T14:07:46.617Z</time>
      </trkpt>
      <trkpt lat="44.16117" lon="6.10711">
        <ele>1184</ele>
        <time>2022-03-03T14:07:47.617Z</time>
      </trkpt>
      <trkpt lat="44.16116" lon="6.1071">
        <ele>1184</ele>
        <time>2022-03-03T14:07:48.617Z</time>
      </trkpt>
      <trkpt lat="44.16115" lon="6.1071">
        <ele>1184</ele>
        <time>2022-03-03T14:07:49.617Z</time>
      </trkpt>
      <trkpt lat="44.16114" lon="6.1071">
        <ele>1184</ele>
        <time>2022-03-03T14:07:50.617Z</time>
      </trkpt>
      <trkpt lat="44.16113" lon="6.1071">
        <ele>1183</ele>
        <time>2022-03-03T14:07:51.617Z</time>
      </trkpt>
      <trkpt lat="44.16112" lon="6.1071">
        <ele>1183</ele>
        <time>2022-03-03T14:07:52.617Z</time>
      </trkpt>
      <trkpt lat="44.16111" lon="6.1071">
        <ele>1183</ele>
        <time>2022-03-03T14:07:53.617Z</time>
      </trkpt>
      <trkpt lat="44.1611" lon="6.1071">
        <ele>1183</ele>
        <time>2022-03-03T14:07:54.617Z</time>
      </trkpt>
      <trkpt lat="44.16109" lon="6.10709">
        <ele>1182</ele>
        <time>2022-03-03T14:07:55.617Z</time>
      </trkpt>
      <trkpt lat="44.16108" lon="6.10709">
        <ele>1182</ele>
        <time>2022-03-03T14:07:56.617Z</time>
      </trkpt>
      <trkpt lat="44.16107" lon="6.10709">
        <ele>1182</ele>
        <time>2022-03-03T14:07:57.617Z</time>
      </trkpt>
      <trkpt lat="44.16106" lon="6.10709">
        <ele>1182</ele>
        <time>2022-03-03T14:07:58.617Z</time>
      </trkpt>
      <trkpt lat="44.16105" lon="6.10709">
        <ele>1181</ele>
        <time>2022-03-03T14:07:59.617Z</time>
      </trkpt>
      <trkpt lat="44.16104" lon="6.10709">
        <ele>1181</ele>
        <time>2022-03-03T14:08:00.617Z</time>
      </trkpt>
      <trkpt lat="44.16103" lon="6.10709">
        <ele>1181</ele>
        <time>2022-03-03T14:08:01.617Z</time>
      </trkpt>
      <trkpt lat="44.16102" lon="6.10709">
        <ele>1181</ele>
        <time>2022-03-03T14:08:02.617Z</time>
      </trkpt>
      <trkpt lat="44.16101" lon="6.10709">
        <ele>1181</ele>
        <time>2022-03-03T14:08:03.617Z</time>
      </trkpt>
      <trkpt lat="44.161" lon="6.10709">
        <ele>1181</ele>
        <time>2022-03-03T14:08:04.617Z</time>
      </trkpt>
      <trkpt lat="44.16099" lon="6.10709">
        <ele>1181</ele>
        <time>2022-03-03T14:08:05.617Z</time>
      </trkpt>
      <trkpt lat="44.16098" lon="6.10709">
        <ele>1180</ele>
        <time>2022-03-03T14:08:06.617Z</time>
      </trkpt>
      <trkpt lat="44.16097" lon="6.10709">
        <ele>1180</ele>
        <time>2022-03-03T14:08:07.617Z</time>
      </trkpt>
      <trkpt lat="44.16096" lon="6.10709">
        <ele>1180</ele>
        <time>2022-03-03T14:08:08.617Z</time>
      </trkpt>
      <trkpt lat="44.16095" lon="6.10709">
        <ele>1180</ele>
        <time>2022-03-03T14:08:09.617Z</time>
      </trkpt>
      <trkpt lat="44.16095" lon="6.1071">
        <ele>1180</ele>
        <time>2022-03-03T14:08:10.617Z</time>
      </trkpt>
      <trkpt lat="44.16093" lon="6.1071">
        <ele>1179</ele>
        <time>2022-03-03T14:08:11.617Z</time>
      </trkpt>
      <trkpt lat="44.16092" lon="6.1071">
        <ele>1179</ele>
        <time>2022-03-03T14:08:12.617Z</time>
      </trkpt>
      <trkpt lat="44.16091" lon="6.10711">
        <ele>1179</ele>
        <time>2022-03-03T14:08:13.617Z</time>
      </trkpt>
      <trkpt lat="44.16091" lon="6.10711">
        <ele>1179</ele>
        <time>2022-03-03T14:08:14.617Z</time>
      </trkpt>
      <trkpt lat="44.1609" lon="6.10712">
        <ele>1179</ele>
        <time>2022-03-03T14:08:15.617Z</time>
      </trkpt>
      <trkpt lat="44.16089" lon="6.10712">
        <ele>1178</ele>
        <time>2022-03-03T14:08:16.617Z</time>
      </trkpt>
      <trkpt lat="44.16088" lon="6.10713">
        <ele>1178</ele>
        <time>2022-03-03T14:08:17.617Z</time>
      </trkpt>
      <trkpt lat="44.16087" lon="6.10714">
        <ele>1178</ele>
        <time>2022-03-03T14:08:18.617Z</time>
      </trkpt>
      <trkpt lat="44.16086" lon="6.10714">
        <ele>1178</ele>
        <time>2022-03-03T14:08:19.617Z</time>
      </trkpt>
      <trkpt lat="44.16085" lon="6.10714">
        <ele>1177</ele>
        <time>2022-03-03T14:08:20.617Z</time>
      </trkpt>
      <trkpt lat="44.16085" lon="6.10715">
        <ele>1177</ele>
        <time>2022-03-03T14:08:21.617Z</time>
      </trkpt>
      <trkpt lat="44.16084" lon="6.10715">
        <ele>1177</ele>
        <time>2022-03-03T14:08:22.617Z</time>
      </trkpt>
      <trkpt lat="44.16083" lon="6.10716">
        <ele>1177</ele>
        <time>2022-03-03T14:08:23.617Z</time>
      </trkpt>
      <trkpt lat="44.16082" lon="6.10716">
        <ele>1177</ele>
        <time>2022-03-03T14:08:24.617Z</time>
      </trkpt>
      <trkpt lat="44.16081" lon="6.10717">
        <ele>1177</ele>
        <time>2022-03-03T14:08:25.617Z</time>
      </trkpt>
      <trkpt lat="44.1608" lon="6.10717">
        <ele>1176</ele>
        <time>2022-03-03T14:08:26.617Z</time>
      </trkpt>
      <trkpt lat="44.16079" lon="6.10718">
        <ele>1176</ele>
        <time>2022-03-03T14:08:27.617Z</time>
      </trkpt>
      <trkpt lat="44.16079" lon="6.10718">
        <ele>1176</ele>
        <time>2022-03-03T14:08:28.617Z</time>
      </trkpt>
      <trkpt lat="44.16078" lon="6.10719">
        <ele>1176</ele>
        <time>2022-03-03T14:08:29.617Z</time>
      </trkpt>
      <trkpt lat="44.16077" lon="6.10719">
        <ele>1176</ele>
        <time>2022-03-03T14:08:30.617Z</time>
      </trkpt>
      <trkpt lat="44.16077" lon="6.10719">
        <ele>1176</ele>
        <time>2022-03-03T14:08:31.617Z</time>
      </trkpt>
      <trkpt lat="44.16076" lon="6.1072">
        <ele>1175</ele>
        <time>2022-03-03T14:08:32.617Z</time>
      </trkpt>
      <trkpt lat="44.16076" lon="6.1072">
        <ele>1175</ele>
        <time>2022-03-03T14:08:33.617Z</time>
      </trkpt>
      <trkpt lat="44.16075" lon="6.1072">
        <ele>1175</ele>
        <time>2022-03-03T14:08:34.617Z</time>
      </trkpt>
      <trkpt lat="44.16074" lon="6.10721">
        <ele>1175</ele>
        <time>2022-03-03T14:08:35.617Z</time>
      </trkpt>
      <trkpt lat="44.16073" lon="6.10721">
        <ele>1175</ele>
        <time>2022-03-03T14:08:36.617Z</time>
      </trkpt>
      <trkpt lat="44.16073" lon="6.10722">
        <ele>1175</ele>
        <time>2022-03-03T14:08:37.617Z</time>
      </trkpt>
      <trkpt lat="44.16072" lon="6.10722">
        <ele>1174</ele>
        <time>2022-03-03T14:08:38.617Z</time>
      </trkpt>
      <trkpt lat="44.16071" lon="6.10722">
        <ele>1174</ele>
        <time>2022-03-03T14:08:39.617Z</time>
      </trkpt>
      <trkpt lat="44.16071" lon="6.10723">
        <ele>1174</ele>
        <time>2022-03-03T14:08:40.617Z</time>
      </trkpt>
      <trkpt lat="44.1607" lon="6.10723">
        <ele>1174</ele>
        <time>2022-03-03T14:08:41.617Z</time>
      </trkpt>
      <trkpt lat="44.16069" lon="6.10723">
        <ele>1174</ele>
        <time>2022-03-03T14:08:42.617Z</time>
      </trkpt>
      <trkpt lat="44.16068" lon="6.10724">
        <ele>1174</ele>
        <time>2022-03-03T14:08:43.617Z</time>
      </trkpt>
      <trkpt lat="44.16067" lon="6.10724">
        <ele>1173</ele>
        <time>2022-03-03T14:08:44.617Z</time>
      </trkpt>
      <trkpt lat="44.16066" lon="6.10724">
        <ele>1173</ele>
        <time>2022-03-03T14:08:45.617Z</time>
      </trkpt>
      <trkpt lat="44.16065" lon="6.10725">
        <ele>1173</ele>
        <time>2022-03-03T14:08:46.617Z</time>
      </trkpt>
      <trkpt lat="44.16064" lon="6.10725">
        <ele>1173</ele>
        <time>2022-03-03T14:08:47.617Z</time>
      </trkpt>
      <trkpt lat="44.16064" lon="6.10726">
        <ele>1172</ele>
        <time>2022-03-03T14:08:48.617Z</time>
      </trkpt>
      <trkpt lat="44.16063" lon="6.10726">
        <ele>1172</ele>
        <time>2022-03-03T14:08:49.617Z</time>
      </trkpt>
      <trkpt lat="44.16062" lon="6.10726">
        <ele>1172</ele>
        <time>2022-03-03T14:08:50.617Z</time>
      </trkpt>
      <trkpt lat="44.16061" lon="6.10726">
        <ele>1172</ele>
        <time>2022-03-03T14:08:51.617Z</time>
      </trkpt>
      <trkpt lat="44.1606" lon="6.10727">
        <ele>1172</ele>
        <time>2022-03-03T14:08:52.617Z</time>
      </trkpt>
      <trkpt lat="44.16059" lon="6.10728">
        <ele>1172</ele>
        <time>2022-03-03T14:08:53.617Z</time>
      </trkpt>
      <trkpt lat="44.16058" lon="6.10728">
        <ele>1171</ele>
        <time>2022-03-03T14:08:54.617Z</time>
      </trkpt>
      <trkpt lat="44.16057" lon="6.10728">
        <ele>1171</ele>
        <time>2022-03-03T14:08:55.617Z</time>
      </trkpt>
      <trkpt lat="44.16056" lon="6.10728">
        <ele>1171</ele>
        <time>2022-03-03T14:08:56.617Z</time>
      </trkpt>
      <trkpt lat="44.16054" lon="6.10729">
        <ele>1171</ele>
        <time>2022-03-03T14:08:57.617Z</time>
      </trkpt>
      <trkpt lat="44.16053" lon="6.10729">
        <ele>1170</ele>
        <time>2022-03-03T14:08:58.617Z</time>
      </trkpt>
      <trkpt lat="44.16052" lon="6.10729">
        <ele>1170</ele>
        <time>2022-03-03T14:08:59.617Z</time>
      </trkpt>
      <trkpt lat="44.16051" lon="6.10729">
        <ele>1170</ele>
        <time>2022-03-03T14:09:00.617Z</time>
      </trkpt>
      <trkpt lat="44.1605" lon="6.10729">
        <ele>1170</ele>
        <time>2022-03-03T14:09:01.617Z</time>
      </trkpt>
      <trkpt lat="44.16049" lon="6.1073">
        <ele>1170</ele>
        <time>2022-03-03T14:09:02.617Z</time>
      </trkpt>
      <trkpt lat="44.16048" lon="6.1073">
        <ele>1169</ele>
        <time>2022-03-03T14:09:03.617Z</time>
      </trkpt>
      <trkpt lat="44.16047" lon="6.1073">
        <ele>1169</ele>
        <time>2022-03-03T14:09:04.617Z</time>
      </trkpt>
      <trkpt lat="44.16046" lon="6.10731">
        <ele>1169</ele>
        <time>2022-03-03T14:09:05.617Z</time>
      </trkpt>
      <trkpt lat="44.16045" lon="6.10731">
        <ele>1169</ele>
        <time>2022-03-03T14:09:06.617Z</time>
      </trkpt>
      <trkpt lat="44.16044" lon="6.10731">
        <ele>1168</ele>
        <time>2022-03-03T14:09:07.617Z</time>
      </trkpt>
      <trkpt lat="44.16043" lon="6.10731">
        <ele>1168</ele>
        <time>2022-03-03T14:09:08.617Z</time>
      </trkpt>
      <trkpt lat="44.16042" lon="6.10732">
        <ele>1168</ele>
        <time>2022-03-03T14:09:09.617Z</time>
      </trkpt>
      <trkpt lat="44.16041" lon="6.10732">
        <ele>1168</ele>
        <time>2022-03-03T14:09:10.617Z</time>
      </trkpt>
      <trkpt lat="44.1604" lon="6.10732">
        <ele>1167</ele>
        <time>2022-03-03T14:09:11.617Z</time>
      </trkpt>
      <trkpt lat="44.1604" lon="6.10732">
        <ele>1167</ele>
        <time>2022-03-03T14:09:12.617Z</time>
      </trkpt>
      <trkpt lat="44.16039" lon="6.10733">
        <ele>1167</ele>
        <time>2022-03-03T14:09:13.617Z</time>
      </trkpt>
      <trkpt lat="44.16038" lon="6.10733">
        <ele>1167</ele>
        <time>2022-03-03T14:09:14.617Z</time>
      </trkpt>
      <trkpt lat="44.16037" lon="6.10733">
        <ele>1167</ele>
        <time>2022-03-03T14:09:15.617Z</time>
      </trkpt>
      <trkpt lat="44.16036" lon="6.10734">
        <ele>1166</ele>
        <time>2022-03-03T14:09:16.617Z</time>
      </trkpt>
      <trkpt lat="44.16035" lon="6.10734">
        <ele>1166</ele>
        <time>2022-03-03T14:09:17.617Z</time>
      </trkpt>
      <trkpt lat="44.16034" lon="6.10735">
        <ele>1166</ele>
        <time>2022-03-03T14:09:18.617Z</time>
      </trkpt>
      <trkpt lat="44.16033" lon="6.10735">
        <ele>1166</ele>
        <time>2022-03-03T14:09:19.617Z</time>
      </trkpt>
      <trkpt lat="44.16032" lon="6.10736">
        <ele>1165</ele>
        <time>2022-03-03T14:09:20.617Z</time>
      </trkpt>
      <trkpt lat="44.16031" lon="6.10736">
        <ele>1165</ele>
        <time>2022-03-03T14:09:21.617Z</time>
      </trkpt>
      <trkpt lat="44.1603" lon="6.10736">
        <ele>1165</ele>
        <time>2022-03-03T14:09:22.617Z</time>
      </trkpt>
      <trkpt lat="44.16029" lon="6.10737">
        <ele>1165</ele>
        <time>2022-03-03T14:09:23.617Z</time>
      </trkpt>
      <trkpt lat="44.16029" lon="6.10737">
        <ele>1165</ele>
        <time>2022-03-03T14:09:24.617Z</time>
      </trkpt>
      <trkpt lat="44.16028" lon="6.10738">
        <ele>1165</ele>
        <time>2022-03-03T14:09:25.617Z</time>
      </trkpt>
      <trkpt lat="44.16027" lon="6.10738">
        <ele>1164</ele>
        <time>2022-03-03T14:09:26.617Z</time>
      </trkpt>
      <trkpt lat="44.16026" lon="6.10738">
        <ele>1164</ele>
        <time>2022-03-03T14:09:27.617Z</time>
      </trkpt>
      <trkpt lat="44.16025" lon="6.10739">
        <ele>1164</ele>
        <time>2022-03-03T14:09:28.617Z</time>
      </trkpt>
      <trkpt lat="44.16024" lon="6.10739">
        <ele>1164</ele>
        <time>2022-03-03T14:09:29.617Z</time>
      </trkpt>
      <trkpt lat="44.16023" lon="6.1074">
        <ele>1164</ele>
        <time>2022-03-03T14:09:30.617Z</time>
      </trkpt>
      <trkpt lat="44.16023" lon="6.1074">
        <ele>1163</ele>
        <time>2022-03-03T14:09:31.617Z</time>
      </trkpt>
      <trkpt lat="44.16022" lon="6.10741">
        <ele>1163</ele>
        <time>2022-03-03T14:09:32.617Z</time>
      </trkpt>
      <trkpt lat="44.16021" lon="6.10741">
        <ele>1163</ele>
        <time>2022-03-03T14:09:33.617Z</time>
      </trkpt>
      <trkpt lat="44.1602" lon="6.10741">
        <ele>1163</ele>
        <time>2022-03-03T14:09:34.617Z</time>
      </trkpt>
      <trkpt lat="44.16019" lon="6.10742">
        <ele>1162</ele>
        <time>2022-03-03T14:09:35.617Z</time>
      </trkpt>
      <trkpt lat="44.16018" lon="6.10742">
        <ele>1162</ele>
        <time>2022-03-03T14:09:36.617Z</time>
      </trkpt>
      <trkpt lat="44.16017" lon="6.10743">
        <ele>1162</ele>
        <time>2022-03-03T14:09:37.617Z</time>
      </trkpt>
      <trkpt lat="44.16016" lon="6.10743">
        <ele>1162</ele>
        <time>2022-03-03T14:09:38.617Z</time>
      </trkpt>
      <trkpt lat="44.16015" lon="6.10744">
        <ele>1161</ele>
        <time>2022-03-03T14:09:39.617Z</time>
      </trkpt>
      <trkpt lat="44.16014" lon="6.10744">
        <ele>1161</ele>
        <time>2022-03-03T14:09:40.617Z</time>
      </trkpt>
      <trkpt lat="44.16013" lon="6.10745">
        <ele>1161</ele>
        <time>2022-03-03T14:09:41.617Z</time>
      </trkpt>
      <trkpt lat="44.16013" lon="6.10745">
        <ele>1161</ele>
        <time>2022-03-03T14:09:42.617Z</time>
      </trkpt>
      <trkpt lat="44.16012" lon="6.10745">
        <ele>1160</ele>
        <time>2022-03-03T14:09:43.617Z</time>
      </trkpt>
      <trkpt lat="44.16011" lon="6.10746">
        <ele>1160</ele>
        <time>2022-03-03T14:09:44.617Z</time>
      </trkpt>
      <trkpt lat="44.1601" lon="6.10746">
        <ele>1160</ele>
        <time>2022-03-03T14:09:45.617Z</time>
      </trkpt>
      <trkpt lat="44.16009" lon="6.10747">
        <ele>1160</ele>
        <time>2022-03-03T14:09:46.617Z</time>
      </trkpt>
      <trkpt lat="44.16009" lon="6.10747">
        <ele>1159</ele>
        <time>2022-03-03T14:09:47.617Z</time>
      </trkpt>
      <trkpt lat="44.16008" lon="6.10747">
        <ele>1159</ele>
        <time>2022-03-03T14:09:48.617Z</time>
      </trkpt>
      <trkpt lat="44.16007" lon="6.10748">
        <ele>1159</ele>
        <time>2022-03-03T14:09:49.617Z</time>
      </trkpt>
      <trkpt lat="44.16006" lon="6.10748">
        <ele>1159</ele>
        <time>2022-03-03T14:09:50.617Z</time>
      </trkpt>
      <trkpt lat="44.16005" lon="6.10749">
        <ele>1159</ele>
        <time>2022-03-03T14:09:51.617Z</time>
      </trkpt>
      <trkpt lat="44.16005" lon="6.10749">
        <ele>1159</ele>
        <time>2022-03-03T14:09:52.617Z</time>
      </trkpt>
      <trkpt lat="44.16004" lon="6.1075">
        <ele>1158</ele>
        <time>2022-03-03T14:09:53.617Z</time>
      </trkpt>
      <trkpt lat="44.16003" lon="6.1075">
        <ele>1158</ele>
        <time>2022-03-03T14:09:54.617Z</time>
      </trkpt>
      <trkpt lat="44.16002" lon="6.1075">
        <ele>1158</ele>
        <time>2022-03-03T14:09:55.617Z</time>
      </trkpt>
      <trkpt lat="44.16001" lon="6.1075">
        <ele>1158</ele>
        <time>2022-03-03T14:09:56.617Z</time>
      </trkpt>
      <trkpt lat="44.16" lon="6.10751">
        <ele>1157</ele>
        <time>2022-03-03T14:09:57.617Z</time>
      </trkpt>
      <trkpt lat="44.16" lon="6.10751">
        <ele>1157</ele>
        <time>2022-03-03T14:09:58.617Z</time>
      </trkpt>
      <trkpt lat="44.15999" lon="6.10751">
        <ele>1157</ele>
        <time>2022-03-03T14:09:59.617Z</time>
      </trkpt>
      <trkpt lat="44.15998" lon="6.10752">
        <ele>1157</ele>
        <time>2022-03-03T14:10:00.617Z</time>
      </trkpt>
      <trkpt lat="44.15997" lon="6.10752">
        <ele>1157</ele>
        <time>2022-03-03T14:10:01.617Z</time>
      </trkpt>
      <trkpt lat="44.15996" lon="6.10752">
        <ele>1157</ele>
        <time>2022-03-03T14:10:02.617Z</time>
      </trkpt>
      <trkpt lat="44.15996" lon="6.10753">
        <ele>1156</ele>
        <time>2022-03-03T14:10:03.617Z</time>
      </trkpt>
      <trkpt lat="44.15995" lon="6.10753">
        <ele>1156</ele>
        <time>2022-03-03T14:10:04.617Z</time>
      </trkpt>
      <trkpt lat="44.15994" lon="6.10753">
        <ele>1156</ele>
        <time>2022-03-03T14:10:05.617Z</time>
      </trkpt>
      <trkpt lat="44.15993" lon="6.10754">
        <ele>1156</ele>
        <time>2022-03-03T14:10:06.617Z</time>
      </trkpt>
      <trkpt lat="44.15992" lon="6.10754">
        <ele>1156</ele>
        <time>2022-03-03T14:10:07.617Z</time>
      </trkpt>
      <trkpt lat="44.15991" lon="6.10754">
        <ele>1155</ele>
        <time>2022-03-03T14:10:08.617Z</time>
      </trkpt>
      <trkpt lat="44.1599" lon="6.10754">
        <ele>1155</ele>
        <time>2022-03-03T14:10:09.617Z</time>
      </trkpt>
      <trkpt lat="44.1599" lon="6.10755">
        <ele>1155</ele>
        <time>2022-03-03T14:10:10.617Z</time>
      </trkpt>
      <trkpt lat="44.15989" lon="6.10755">
        <ele>1155</ele>
        <time>2022-03-03T14:10:11.617Z</time>
      </trkpt>
      <trkpt lat="44.15988" lon="6.10755">
        <ele>1154</ele>
        <time>2022-03-03T14:10:12.617Z</time>
      </trkpt>
      <trkpt lat="44.15987" lon="6.10756">
        <ele>1154</ele>
        <time>2022-03-03T14:10:13.617Z</time>
      </trkpt>
      <trkpt lat="44.15986" lon="6.10756">
        <ele>1154</ele>
        <time>2022-03-03T14:10:14.617Z</time>
      </trkpt>
      <trkpt lat="44.15985" lon="6.10756">
        <ele>1154</ele>
        <time>2022-03-03T14:10:15.617Z</time>
      </trkpt>
      <trkpt lat="44.15985" lon="6.10757">
        <ele>1154</ele>
        <time>2022-03-03T14:10:16.617Z</time>
      </trkpt>
      <trkpt lat="44.15984" lon="6.10757">
        <ele>1153</ele>
        <time>2022-03-03T14:10:17.617Z</time>
      </trkpt>
      <trkpt lat="44.15983" lon="6.10758">
        <ele>1153</ele>
        <time>2022-03-03T14:10:18.617Z</time>
      </trkpt>
      <trkpt lat="44.15982" lon="6.10758">
        <ele>1153</ele>
        <time>2022-03-03T14:10:19.617Z</time>
      </trkpt>
      <trkpt lat="44.15981" lon="6.10758">
        <ele>1153</ele>
        <time>2022-03-03T14:10:20.617Z</time>
      </trkpt>
      <trkpt lat="44.1598" lon="6.10758">
        <ele>1153</ele>
        <time>2022-03-03T14:10:21.617Z</time>
      </trkpt>
      <trkpt lat="44.15979" lon="6.10758">
        <ele>1152</ele>
        <time>2022-03-03T14:10:22.617Z</time>
      </trkpt>
      <trkpt lat="44.15978" lon="6.10759">
        <ele>1152</ele>
        <time>2022-03-03T14:10:23.617Z</time>
      </trkpt>
      <trkpt lat="44.15977" lon="6.10759">
        <ele>1152</ele>
        <time>2022-03-03T14:10:24.617Z</time>
      </trkpt>
      <trkpt lat="44.15976" lon="6.10759">
        <ele>1152</ele>
        <time>2022-03-03T14:10:25.617Z</time>
      </trkpt>
      <trkpt lat="44.15975" lon="6.10759">
        <ele>1151</ele>
        <time>2022-03-03T14:10:26.617Z</time>
      </trkpt>
      <trkpt lat="44.15974" lon="6.10759">
        <ele>1151</ele>
        <time>2022-03-03T14:10:27.617Z</time>
      </trkpt>
      <trkpt lat="44.15973" lon="6.1076">
        <ele>1151</ele>
        <time>2022-03-03T14:10:28.617Z</time>
      </trkpt>
      <trkpt lat="44.15972" lon="6.1076">
        <ele>1151</ele>
        <time>2022-03-03T14:10:29.617Z</time>
      </trkpt>
      <trkpt lat="44.15971" lon="6.1076">
        <ele>1150</ele>
        <time>2022-03-03T14:10:30.617Z</time>
      </trkpt>
      <trkpt lat="44.1597" lon="6.1076">
        <ele>1150</ele>
        <time>2022-03-03T14:10:31.617Z</time>
      </trkpt>
      <trkpt lat="44.15969" lon="6.10761">
        <ele>1150</ele>
        <time>2022-03-03T14:10:32.617Z</time>
      </trkpt>
      <trkpt lat="44.15968" lon="6.10761">
        <ele>1150</ele>
        <time>2022-03-03T14:10:33.617Z</time>
      </trkpt>
      <trkpt lat="44.15967" lon="6.10761">
        <ele>1149</ele>
        <time>2022-03-03T14:10:34.617Z</time>
      </trkpt>
      <trkpt lat="44.15966" lon="6.10761">
        <ele>1149</ele>
        <time>2022-03-03T14:10:35.617Z</time>
      </trkpt>
      <trkpt lat="44.15965" lon="6.10761">
        <ele>1149</ele>
        <time>2022-03-03T14:10:36.617Z</time>
      </trkpt>
      <trkpt lat="44.15964" lon="6.10761">
        <ele>1149</ele>
        <time>2022-03-03T14:10:37.617Z</time>
      </trkpt>
      <trkpt lat="44.15963" lon="6.10761">
        <ele>1149</ele>
        <time>2022-03-03T14:10:38.617Z</time>
      </trkpt>
      <trkpt lat="44.15962" lon="6.10761">
        <ele>1148</ele>
        <time>2022-03-03T14:10:39.617Z</time>
      </trkpt>
      <trkpt lat="44.15961" lon="6.10761">
        <ele>1148</ele>
        <time>2022-03-03T14:10:40.617Z</time>
      </trkpt>
      <trkpt lat="44.1596" lon="6.10761">
        <ele>1148</ele>
        <time>2022-03-03T14:10:41.617Z</time>
      </trkpt>
      <trkpt lat="44.15958" lon="6.10762">
        <ele>1148</ele>
        <time>2022-03-03T14:10:42.617Z</time>
      </trkpt>
      <trkpt lat="44.15957" lon="6.10762">
        <ele>1148</ele>
        <time>2022-03-03T14:10:43.617Z</time>
      </trkpt>
      <trkpt lat="44.15956" lon="6.10762">
        <ele>1147</ele>
        <time>2022-03-03T14:10:44.617Z</time>
      </trkpt>
      <trkpt lat="44.15955" lon="6.10762">
        <ele>1147</ele>
        <time>2022-03-03T14:10:45.617Z</time>
      </trkpt>
      <trkpt lat="44.15954" lon="6.10762">
        <ele>1147</ele>
        <time>2022-03-03T14:10:46.617Z</time>
      </trkpt>
      <trkpt lat="44.15953" lon="6.10762">
        <ele>1147</ele>
        <time>2022-03-03T14:10:47.617Z</time>
      </trkpt>
      <trkpt lat="44.15952" lon="6.10763">
        <ele>1147</ele>
        <time>2022-03-03T14:10:48.617Z</time>
      </trkpt>
      <trkpt lat="44.15951" lon="6.10763">
        <ele>1146</ele>
        <time>2022-03-03T14:10:49.617Z</time>
      </trkpt>
      <trkpt lat="44.1595" lon="6.10763">
        <ele>1146</ele>
        <time>2022-03-03T14:10:50.617Z</time>
      </trkpt>
      <trkpt lat="44.15949" lon="6.10763">
        <ele>1146</ele>
        <time>2022-03-03T14:10:51.617Z</time>
      </trkpt>
      <trkpt lat="44.15948" lon="6.10763">
        <ele>1146</ele>
        <time>2022-03-03T14:10:52.617Z</time>
      </trkpt>
      <trkpt lat="44.15947" lon="6.10763">
        <ele>1146</ele>
        <time>2022-03-03T14:10:53.617Z</time>
      </trkpt>
      <trkpt lat="44.15946" lon="6.10763">
        <ele>1145</ele>
        <time>2022-03-03T14:10:54.617Z</time>
      </trkpt>
      <trkpt lat="44.15945" lon="6.10763">
        <ele>1145</ele>
        <time>2022-03-03T14:10:55.617Z</time>
      </trkpt>
      <trkpt lat="44.15944" lon="6.10762">
        <ele>1145</ele>
        <time>2022-03-03T14:10:56.617Z</time>
      </trkpt>
      <trkpt lat="44.15943" lon="6.10762">
        <ele>1145</ele>
        <time>2022-03-03T14:10:57.617Z</time>
      </trkpt>
      <trkpt lat="44.15942" lon="6.10762">
        <ele>1145</ele>
        <time>2022-03-03T14:10:58.617Z</time>
      </trkpt>
      <trkpt lat="44.15941" lon="6.10762">
        <ele>1144</ele>
        <time>2022-03-03T14:10:59.617Z</time>
      </trkpt>
      <trkpt lat="44.1594" lon="6.10762">
        <ele>1144</ele>
        <time>2022-03-03T14:11:00.617Z</time>
      </trkpt>
      <trkpt lat="44.15939" lon="6.10762">
        <ele>1144</ele>
        <time>2022-03-03T14:11:01.617Z</time>
      </trkpt>
      <trkpt lat="44.15938" lon="6.10762">
        <ele>1144</ele>
        <time>2022-03-03T14:11:02.617Z</time>
      </trkpt>
      <trkpt lat="44.15937" lon="6.10762">
        <ele>1144</ele>
        <time>2022-03-03T14:11:03.617Z</time>
      </trkpt>
      <trkpt lat="44.15936" lon="6.10762">
        <ele>1143</ele>
        <time>2022-03-03T14:11:04.617Z</time>
      </trkpt>
      <trkpt lat="44.15935" lon="6.10762">
        <ele>1143</ele>
        <time>2022-03-03T14:11:05.617Z</time>
      </trkpt>
      <trkpt lat="44.15934" lon="6.10762">
        <ele>1143</ele>
        <time>2022-03-03T14:11:06.617Z</time>
      </trkpt>
      <trkpt lat="44.15932" lon="6.10762">
        <ele>1143</ele>
        <time>2022-03-03T14:11:07.617Z</time>
      </trkpt>
      <trkpt lat="44.15931" lon="6.10762">
        <ele>1142</ele>
        <time>2022-03-03T14:11:08.617Z</time>
      </trkpt>
      <trkpt lat="44.1593" lon="6.10762">
        <ele>1142</ele>
        <time>2022-03-03T14:11:09.617Z</time>
      </trkpt>
      <trkpt lat="44.15929" lon="6.10762">
        <ele>1142</ele>
        <time>2022-03-03T14:11:10.617Z</time>
      </trkpt>
      <trkpt lat="44.15928" lon="6.10761">
        <ele>1142</ele>
        <time>2022-03-03T14:11:11.617Z</time>
      </trkpt>
      <trkpt lat="44.15927" lon="6.10761">
        <ele>1142</ele>
        <time>2022-03-03T14:11:12.617Z</time>
      </trkpt>
      <trkpt lat="44.15926" lon="6.10761">
        <ele>1142</ele>
        <time>2022-03-03T14:11:13.617Z</time>
      </trkpt>
      <trkpt lat="44.15924" lon="6.10761">
        <ele>1142</ele>
        <time>2022-03-03T14:11:14.617Z</time>
      </trkpt>
      <trkpt lat="44.15923" lon="6.10761">
        <ele>1141</ele>
        <time>2022-03-03T14:11:15.617Z</time>
      </trkpt>
      <trkpt lat="44.15921" lon="6.1076">
        <ele>1141</ele>
        <time>2022-03-03T14:11:16.617Z</time>
      </trkpt>
      <trkpt lat="44.1592" lon="6.1076">
        <ele>1141</ele>
        <time>2022-03-03T14:11:17.617Z</time>
      </trkpt>
      <trkpt lat="44.15919" lon="6.10759">
        <ele>1141</ele>
        <time>2022-03-03T14:11:18.617Z</time>
      </trkpt>
      <trkpt lat="44.15918" lon="6.10759">
        <ele>1141</ele>
        <time>2022-03-03T14:11:19.617Z</time>
      </trkpt>
      <trkpt lat="44.15917" lon="6.10759">
        <ele>1141</ele>
        <time>2022-03-03T14:11:20.617Z</time>
      </trkpt>
      <trkpt lat="44.15916" lon="6.10758">
        <ele>1141</ele>
        <time>2022-03-03T14:11:21.617Z</time>
      </trkpt>
      <trkpt lat="44.15915" lon="6.10757">
        <ele>1141</ele>
        <time>2022-03-03T14:11:22.617Z</time>
      </trkpt>
      <trkpt lat="44.15913" lon="6.10757">
        <ele>1141</ele>
        <time>2022-03-03T14:11:23.617Z</time>
      </trkpt>
      <trkpt lat="44.15912" lon="6.10756">
        <ele>1141</ele>
        <time>2022-03-03T14:11:24.617Z</time>
      </trkpt>
      <trkpt lat="44.15911" lon="6.10756">
        <ele>1141</ele>
        <time>2022-03-03T14:11:25.617Z</time>
      </trkpt>
      <trkpt lat="44.1591" lon="6.10756">
        <ele>1141</ele>
        <time>2022-03-03T14:11:26.617Z</time>
      </trkpt>
      <trkpt lat="44.15909" lon="6.10755">
        <ele>1141</ele>
        <time>2022-03-03T14:11:27.617Z</time>
      </trkpt>
      <trkpt lat="44.15908" lon="6.10755">
        <ele>1141</ele>
        <time>2022-03-03T14:11:28.617Z</time>
      </trkpt>
      <trkpt lat="44.15907" lon="6.10754">
        <ele>1141</ele>
        <time>2022-03-03T14:11:29.617Z</time>
      </trkpt>
      <trkpt lat="44.15905" lon="6.10754">
        <ele>1142</ele>
        <time>2022-03-03T14:11:30.617Z</time>
      </trkpt>
      <trkpt lat="44.15904" lon="6.10753">
        <ele>1142</ele>
        <time>2022-03-03T14:11:31.617Z</time>
      </trkpt>
      <trkpt lat="44.15903" lon="6.10753">
        <ele>1142</ele>
        <time>2022-03-03T14:11:32.617Z</time>
      </trkpt>
      <trkpt lat="44.15902" lon="6.10753">
        <ele>1142</ele>
        <time>2022-03-03T14:11:33.617Z</time>
      </trkpt>
      <trkpt lat="44.15901" lon="6.10752">
        <ele>1142</ele>
        <time>2022-03-03T14:11:34.617Z</time>
      </trkpt>
      <trkpt lat="44.15899" lon="6.10752">
        <ele>1142</ele>
        <time>2022-03-03T14:11:35.617Z</time>
      </trkpt>
      <trkpt lat="44.15898" lon="6.10752">
        <ele>1142</ele>
        <time>2022-03-03T14:11:36.617Z</time>
      </trkpt>
      <trkpt lat="44.15897" lon="6.10752">
        <ele>1142</ele>
        <time>2022-03-03T14:11:37.617Z</time>
      </trkpt>
      <trkpt lat="44.15896" lon="6.10751">
        <ele>1142</ele>
        <time>2022-03-03T14:11:38.617Z</time>
      </trkpt>
      <trkpt lat="44.15895" lon="6.10751">
        <ele>1142</ele>
        <time>2022-03-03T14:11:39.617Z</time>
      </trkpt>
      <trkpt lat="44.15893" lon="6.10751">
        <ele>1142</ele>
        <time>2022-03-03T14:11:40.617Z</time>
      </trkpt>
      <trkpt lat="44.15892" lon="6.10751">
        <ele>1142</ele>
        <time>2022-03-03T14:11:41.617Z</time>
      </trkpt>
      <trkpt lat="44.15891" lon="6.10751">
        <ele>1142</ele>
        <time>2022-03-03T14:11:42.617Z</time>
      </trkpt>
      <trkpt lat="44.15889" lon="6.10751">
        <ele>1142</ele>
        <time>2022-03-03T14:11:43.617Z</time>
      </trkpt>
      <trkpt lat="44.15888" lon="6.10751">
        <ele>1142</ele>
        <time>2022-03-03T14:11:44.617Z</time>
      </trkpt>
      <trkpt lat="44.15887" lon="6.10751">
        <ele>1142</ele>
        <time>2022-03-03T14:11:45.617Z</time>
      </trkpt>
      <trkpt lat="44.15885" lon="6.10751">
        <ele>1142</ele>
        <time>2022-03-03T14:11:46.617Z</time>
      </trkpt>
      <trkpt lat="44.15884" lon="6.10751">
        <ele>1142</ele>
        <time>2022-03-03T14:11:47.617Z</time>
      </trkpt>
      <trkpt lat="44.15883" lon="6.10751">
        <ele>1142</ele>
        <time>2022-03-03T14:11:48.617Z</time>
      </trkpt>
      <trkpt lat="44.15881" lon="6.10751">
        <ele>1142</ele>
        <time>2022-03-03T14:11:49.617Z</time>
      </trkpt>
      <trkpt lat="44.1588" lon="6.10751">
        <ele>1142</ele>
        <time>2022-03-03T14:11:50.617Z</time>
      </trkpt>
      <trkpt lat="44.15878" lon="6.10751">
        <ele>1142</ele>
        <time>2022-03-03T14:11:51.617Z</time>
      </trkpt>
      <trkpt lat="44.15877" lon="6.10751">
        <ele>1142</ele>
        <time>2022-03-03T14:11:52.617Z</time>
      </trkpt>
      <trkpt lat="44.15876" lon="6.10751">
        <ele>1142</ele>
        <time>2022-03-03T14:11:53.617Z</time>
      </trkpt>
      <trkpt lat="44.15875" lon="6.10751">
        <ele>1142</ele>
        <time>2022-03-03T14:11:54.617Z</time>
      </trkpt>
      <trkpt lat="44.15874" lon="6.10751">
        <ele>1141</ele>
        <time>2022-03-03T14:11:55.617Z</time>
      </trkpt>
      <trkpt lat="44.15872" lon="6.10751">
        <ele>1141</ele>
        <time>2022-03-03T14:11:56.617Z</time>
      </trkpt>
      <trkpt lat="44.15871" lon="6.10752">
        <ele>1141</ele>
        <time>2022-03-03T14:11:57.617Z</time>
      </trkpt>
      <trkpt lat="44.1587" lon="6.10752">
        <ele>1141</ele>
        <time>2022-03-03T14:11:58.617Z</time>
      </trkpt>
      <trkpt lat="44.15868" lon="6.10752">
        <ele>1141</ele>
        <time>2022-03-03T14:11:59.617Z</time>
      </trkpt>
      <trkpt lat="44.15867" lon="6.10753">
        <ele>1141</ele>
        <time>2022-03-03T14:12:00.617Z</time>
      </trkpt>
      <trkpt lat="44.15866" lon="6.10753">
        <ele>1141</ele>
        <time>2022-03-03T14:12:01.617Z</time>
      </trkpt>
      <trkpt lat="44.15865" lon="6.10754">
        <ele>1141</ele>
        <time>2022-03-03T14:12:02.617Z</time>
      </trkpt>
      <trkpt lat="44.15863" lon="6.10755">
        <ele>1141</ele>
        <time>2022-03-03T14:12:03.617Z</time>
      </trkpt>
      <trkpt lat="44.15862" lon="6.10755">
        <ele>1141</ele>
        <time>2022-03-03T14:12:04.617Z</time>
      </trkpt>
      <trkpt lat="44.15861" lon="6.10756">
        <ele>1141</ele>
        <time>2022-03-03T14:12:05.617Z</time>
      </trkpt>
      <trkpt lat="44.1586" lon="6.10757">
        <ele>1141</ele>
        <time>2022-03-03T14:12:06.617Z</time>
      </trkpt>
      <trkpt lat="44.15859" lon="6.10758">
        <ele>1141</ele>
        <time>2022-03-03T14:12:07.617Z</time>
      </trkpt>
      <trkpt lat="44.15858" lon="6.10758">
        <ele>1141</ele>
        <time>2022-03-03T14:12:08.617Z</time>
      </trkpt>
      <trkpt lat="44.15857" lon="6.10759">
        <ele>1141</ele>
        <time>2022-03-03T14:12:09.617Z</time>
      </trkpt>
      <trkpt lat="44.15855" lon="6.1076">
        <ele>1141</ele>
        <time>2022-03-03T14:12:10.617Z</time>
      </trkpt>
      <trkpt lat="44.15854" lon="6.10761">
        <ele>1141</ele>
        <time>2022-03-03T14:12:11.617Z</time>
      </trkpt>
      <trkpt lat="44.15853" lon="6.10761">
        <ele>1141</ele>
        <time>2022-03-03T14:12:12.617Z</time>
      </trkpt>
      <trkpt lat="44.15852" lon="6.10762">
        <ele>1141</ele>
        <time>2022-03-03T14:12:13.617Z</time>
      </trkpt>
      <trkpt lat="44.15851" lon="6.10763">
        <ele>1141</ele>
        <time>2022-03-03T14:12:14.617Z</time>
      </trkpt>
      <trkpt lat="44.15849" lon="6.10764">
        <ele>1141</ele>
        <time>2022-03-03T14:12:15.617Z</time>
      </trkpt>
      <trkpt lat="44.15848" lon="6.10765">
        <ele>1141</ele>
        <time>2022-03-03T14:12:16.617Z</time>
      </trkpt>
      <trkpt lat="44.15847" lon="6.10765">
        <ele>1141</ele>
        <time>2022-03-03T14:12:17.617Z</time>
      </trkpt>
      <trkpt lat="44.15846" lon="6.10766">
        <ele>1141</ele>
        <time>2022-03-03T14:12:18.617Z</time>
      </trkpt>
      <trkpt lat="44.15845" lon="6.10767">
        <ele>1141</ele>
        <time>2022-03-03T14:12:19.617Z</time>
      </trkpt>
      <trkpt lat="44.15844" lon="6.10768">
        <ele>1141</ele>
        <time>2022-03-03T14:12:20.617Z</time>
      </trkpt>
      <trkpt lat="44.15842" lon="6.10769">
        <ele>1141</ele>
        <time>2022-03-03T14:12:21.617Z</time>
      </trkpt>
      <trkpt lat="44.15841" lon="6.1077">
        <ele>1141</ele>
        <time>2022-03-03T14:12:22.617Z</time>
      </trkpt>
      <trkpt lat="44.1584" lon="6.1077">
        <ele>1141</ele>
        <time>2022-03-03T14:12:23.617Z</time>
      </trkpt>
      <trkpt lat="44.1584" lon="6.10771">
        <ele>1142</ele>
        <time>2022-03-03T14:12:24.617Z</time>
      </trkpt>
      <trkpt lat="44.15839" lon="6.10772">
        <ele>1142</ele>
        <time>2022-03-03T14:12:25.617Z</time>
      </trkpt>
      <trkpt lat="44.15837" lon="6.10773">
        <ele>1142</ele>
        <time>2022-03-03T14:12:26.617Z</time>
      </trkpt>
      <trkpt lat="44.15836" lon="6.10774">
        <ele>1142</ele>
        <time>2022-03-03T14:12:27.617Z</time>
      </trkpt>
      <trkpt lat="44.15835" lon="6.10775">
        <ele>1142</ele>
        <time>2022-03-03T14:12:28.617Z</time>
      </trkpt>
      <trkpt lat="44.15834" lon="6.10776">
        <ele>1142</ele>
        <time>2022-03-03T14:12:29.617Z</time>
      </trkpt>
      <trkpt lat="44.15832" lon="6.10777">
        <ele>1142</ele>
        <time>2022-03-03T14:12:30.617Z</time>
      </trkpt>
      <trkpt lat="44.15831" lon="6.10778">
        <ele>1142</ele>
        <time>2022-03-03T14:12:31.617Z</time>
      </trkpt>
      <trkpt lat="44.1583" lon="6.10779">
        <ele>1142</ele>
        <time>2022-03-03T14:12:32.617Z</time>
      </trkpt>
      <trkpt lat="44.15829" lon="6.1078">
        <ele>1142</ele>
        <time>2022-03-03T14:12:33.617Z</time>
      </trkpt>
      <trkpt lat="44.15828" lon="6.10781">
        <ele>1142</ele>
        <time>2022-03-03T14:12:34.617Z</time>
      </trkpt>
      <trkpt lat="44.15827" lon="6.10782">
        <ele>1142</ele>
        <time>2022-03-03T14:12:35.617Z</time>
      </trkpt>
      <trkpt lat="44.15826" lon="6.10783">
        <ele>1142</ele>
        <time>2022-03-03T14:12:36.617Z</time>
      </trkpt>
      <trkpt lat="44.15825" lon="6.10784">
        <ele>1143</ele>
        <time>2022-03-03T14:12:37.617Z</time>
      </trkpt>
      <trkpt lat="44.15824" lon="6.10784">
        <ele>1143</ele>
        <time>2022-03-03T14:12:38.617Z</time>
      </trkpt>
      <trkpt lat="44.15823" lon="6.10785">
        <ele>1143</ele>
        <time>2022-03-03T14:12:39.617Z</time>
      </trkpt>
      <trkpt lat="44.15822" lon="6.10786">
        <ele>1143</ele>
        <time>2022-03-03T14:12:40.617Z</time>
      </trkpt>
      <trkpt lat="44.15821" lon="6.10787">
        <ele>1143</ele>
        <time>2022-03-03T14:12:41.617Z</time>
      </trkpt>
      <trkpt lat="44.1582" lon="6.10788">
        <ele>1143</ele>
        <time>2022-03-03T14:12:42.617Z</time>
      </trkpt>
      <trkpt lat="44.15819" lon="6.10789">
        <ele>1143</ele>
        <time>2022-03-03T14:12:43.617Z</time>
      </trkpt>
      <trkpt lat="44.15818" lon="6.1079">
        <ele>1143</ele>
        <time>2022-03-03T14:12:44.617Z</time>
      </trkpt>
      <trkpt lat="44.15817" lon="6.10791">
        <ele>1143</ele>
        <time>2022-03-03T14:12:45.617Z</time>
      </trkpt>
      <trkpt lat="44.15816" lon="6.10792">
        <ele>1144</ele>
        <time>2022-03-03T14:12:46.617Z</time>
      </trkpt>
      <trkpt lat="44.15815" lon="6.10793">
        <ele>1144</ele>
        <time>2022-03-03T14:12:47.617Z</time>
      </trkpt>
      <trkpt lat="44.15814" lon="6.10794">
        <ele>1144</ele>
        <time>2022-03-03T14:12:48.617Z</time>
      </trkpt>
      <trkpt lat="44.15813" lon="6.10795">
        <ele>1144</ele>
        <time>2022-03-03T14:12:49.617Z</time>
      </trkpt>
      <trkpt lat="44.15812" lon="6.10796">
        <ele>1144</ele>
        <time>2022-03-03T14:12:50.617Z</time>
      </trkpt>
      <trkpt lat="44.15811" lon="6.10797">
        <ele>1144</ele>
        <time>2022-03-03T14:12:51.617Z</time>
      </trkpt>
      <trkpt lat="44.1581" lon="6.10798">
        <ele>1144</ele>
        <time>2022-03-03T14:12:52.617Z</time>
      </trkpt>
      <trkpt lat="44.15809" lon="6.10799">
        <ele>1144</ele>
        <time>2022-03-03T14:12:53.617Z</time>
      </trkpt>
      <trkpt lat="44.15808" lon="6.108">
        <ele>1144</ele>
        <time>2022-03-03T14:12:54.617Z</time>
      </trkpt>
      <trkpt lat="44.15807" lon="6.10801">
        <ele>1144</ele>
        <time>2022-03-03T14:12:55.617Z</time>
      </trkpt>
      <trkpt lat="44.15806" lon="6.10803">
        <ele>1144</ele>
        <time>2022-03-03T14:12:56.617Z</time>
      </trkpt>
      <trkpt lat="44.15805" lon="6.10804">
        <ele>1144</ele>
        <time>2022-03-03T14:12:57.617Z</time>
      </trkpt>
      <trkpt lat="44.15804" lon="6.10805">
        <ele>1144</ele>
        <time>2022-03-03T14:12:58.617Z</time>
      </trkpt>
      <trkpt lat="44.15802" lon="6.10806">
        <ele>1144</ele>
        <time>2022-03-03T14:12:59.617Z</time>
      </trkpt>
      <trkpt lat="44.15802" lon="6.10806">
        <ele>1144</ele>
        <time>2022-03-03T14:13:00.617Z</time>
      </trkpt>
      <trkpt lat="44.158" lon="6.10807">
        <ele>1144</ele>
        <time>2022-03-03T14:13:01.617Z</time>
      </trkpt>
      <trkpt lat="44.15799" lon="6.10808">
        <ele>1144</ele>
        <time>2022-03-03T14:13:02.617Z</time>
      </trkpt>
      <trkpt lat="44.15798" lon="6.10809">
        <ele>1144</ele>
        <time>2022-03-03T14:13:03.617Z</time>
      </trkpt>
      <trkpt lat="44.15797" lon="6.1081">
        <ele>1144</ele>
        <time>2022-03-03T14:13:04.617Z</time>
      </trkpt>
      <trkpt lat="44.15796" lon="6.10811">
        <ele>1144</ele>
        <time>2022-03-03T14:13:05.617Z</time>
      </trkpt>
      <trkpt lat="44.15795" lon="6.10811">
        <ele>1145</ele>
        <time>2022-03-03T14:13:06.617Z</time>
      </trkpt>
      <trkpt lat="44.15794" lon="6.10812">
        <ele>1145</ele>
        <time>2022-03-03T14:13:07.617Z</time>
      </trkpt>
      <trkpt lat="44.15793" lon="6.10813">
        <ele>1145</ele>
        <time>2022-03-03T14:13:08.617Z</time>
      </trkpt>
      <trkpt lat="44.15792" lon="6.10814">
        <ele>1145</ele>
        <time>2022-03-03T14:13:09.617Z</time>
      </trkpt>
      <trkpt lat="44.15791" lon="6.10815">
        <ele>1145</ele>
        <time>2022-03-03T14:13:10.617Z</time>
      </trkpt>
      <trkpt lat="44.1579" lon="6.10815">
        <ele>1145</ele>
        <time>2022-03-03T14:13:11.617Z</time>
      </trkpt>
      <trkpt lat="44.15789" lon="6.10816">
        <ele>1145</ele>
        <time>2022-03-03T14:13:12.617Z</time>
      </trkpt>
      <trkpt lat="44.15788" lon="6.10817">
        <ele>1145</ele>
        <time>2022-03-03T14:13:13.617Z</time>
      </trkpt>
      <trkpt lat="44.15786" lon="6.10818">
        <ele>1145</ele>
        <time>2022-03-03T14:13:14.617Z</time>
      </trkpt>
      <trkpt lat="44.15785" lon="6.10818">
        <ele>1145</ele>
        <time>2022-03-03T14:13:15.617Z</time>
      </trkpt>
      <trkpt lat="44.15784" lon="6.10819">
        <ele>1145</ele>
        <time>2022-03-03T14:13:16.617Z</time>
      </trkpt>
      <trkpt lat="44.15783" lon="6.1082">
        <ele>1145</ele>
        <time>2022-03-03T14:13:17.617Z</time>
      </trkpt>
      <trkpt lat="44.15782" lon="6.1082">
        <ele>1145</ele>
        <time>2022-03-03T14:13:18.617Z</time>
      </trkpt>
      <trkpt lat="44.15781" lon="6.10821">
        <ele>1145</ele>
        <time>2022-03-03T14:13:19.617Z</time>
      </trkpt>
      <trkpt lat="44.15779" lon="6.10821">
        <ele>1145</ele>
        <time>2022-03-03T14:13:20.617Z</time>
      </trkpt>
      <trkpt lat="44.15778" lon="6.10822">
        <ele>1145</ele>
        <time>2022-03-03T14:13:21.617Z</time>
      </trkpt>
      <trkpt lat="44.15777" lon="6.10823">
        <ele>1145</ele>
        <time>2022-03-03T14:13:22.617Z</time>
      </trkpt>
      <trkpt lat="44.15776" lon="6.10823">
        <ele>1145</ele>
        <time>2022-03-03T14:13:23.617Z</time>
      </trkpt>
      <trkpt lat="44.15775" lon="6.10824">
        <ele>1145</ele>
        <time>2022-03-03T14:13:24.617Z</time>
      </trkpt>
      <trkpt lat="44.15774" lon="6.10825">
        <ele>1145</ele>
        <time>2022-03-03T14:13:25.617Z</time>
      </trkpt>
      <trkpt lat="44.15773" lon="6.10826">
        <ele>1145</ele>
        <time>2022-03-03T14:13:26.617Z</time>
      </trkpt>
      <trkpt lat="44.15772" lon="6.10827">
        <ele>1145</ele>
        <time>2022-03-03T14:13:27.617Z</time>
      </trkpt>
      <trkpt lat="44.15771" lon="6.10827">
        <ele>1145</ele>
        <time>2022-03-03T14:13:28.617Z</time>
      </trkpt>
      <trkpt lat="44.1577" lon="6.10828">
        <ele>1145</ele>
        <time>2022-03-03T14:13:29.617Z</time>
      </trkpt>
      <trkpt lat="44.15769" lon="6.10829">
        <ele>1145</ele>
        <time>2022-03-03T14:13:30.617Z</time>
      </trkpt>
      <trkpt lat="44.15768" lon="6.10829">
        <ele>1145</ele>
        <time>2022-03-03T14:13:31.617Z</time>
      </trkpt>
      <trkpt lat="44.15767" lon="6.1083">
        <ele>1145</ele>
        <time>2022-03-03T14:13:32.617Z</time>
      </trkpt>
      <trkpt lat="44.15766" lon="6.10831">
        <ele>1145</ele>
        <time>2022-03-03T14:13:33.617Z</time>
      </trkpt>
      <trkpt lat="44.15765" lon="6.10831">
        <ele>1145</ele>
        <time>2022-03-03T14:13:34.617Z</time>
      </trkpt>
      <trkpt lat="44.15764" lon="6.10832">
        <ele>1144</ele>
        <time>2022-03-03T14:13:35.617Z</time>
      </trkpt>
      <trkpt lat="44.15763" lon="6.10833">
        <ele>1144</ele>
        <time>2022-03-03T14:13:36.617Z</time>
      </trkpt>
      <trkpt lat="44.15762" lon="6.10833">
        <ele>1144</ele>
        <time>2022-03-03T14:13:37.617Z</time>
      </trkpt>
      <trkpt lat="44.15761" lon="6.10833">
        <ele>1144</ele>
        <time>2022-03-03T14:13:38.617Z</time>
      </trkpt>
      <trkpt lat="44.1576" lon="6.10834">
        <ele>1144</ele>
        <time>2022-03-03T14:13:39.617Z</time>
      </trkpt>
      <trkpt lat="44.15759" lon="6.10834">
        <ele>1144</ele>
        <time>2022-03-03T14:13:40.617Z</time>
      </trkpt>
      <trkpt lat="44.15758" lon="6.10835">
        <ele>1144</ele>
        <time>2022-03-03T14:13:41.617Z</time>
      </trkpt>
      <trkpt lat="44.15757" lon="6.10835">
        <ele>1144</ele>
        <time>2022-03-03T14:13:42.617Z</time>
      </trkpt>
      <trkpt lat="44.15756" lon="6.10835">
        <ele>1144</ele>
        <time>2022-03-03T14:13:43.617Z</time>
      </trkpt>
      <trkpt lat="44.15754" lon="6.10835">
        <ele>1144</ele>
        <time>2022-03-03T14:13:44.617Z</time>
      </trkpt>
      <trkpt lat="44.15753" lon="6.10835">
        <ele>1144</ele>
        <time>2022-03-03T14:13:45.617Z</time>
      </trkpt>
      <trkpt lat="44.15752" lon="6.10835">
        <ele>1144</ele>
        <time>2022-03-03T14:13:46.617Z</time>
      </trkpt>
      <trkpt lat="44.15751" lon="6.10835">
        <ele>1144</ele>
        <time>2022-03-03T14:13:47.617Z</time>
      </trkpt>
      <trkpt lat="44.1575" lon="6.10836">
        <ele>1144</ele>
        <time>2022-03-03T14:13:48.617Z</time>
      </trkpt>
      <trkpt lat="44.15749" lon="6.10836">
        <ele>1143</ele>
        <time>2022-03-03T14:13:49.617Z</time>
      </trkpt>
      <trkpt lat="44.15748" lon="6.10836">
        <ele>1143</ele>
        <time>2022-03-03T14:13:50.617Z</time>
      </trkpt>
      <trkpt lat="44.15747" lon="6.10836">
        <ele>1143</ele>
        <time>2022-03-03T14:13:51.617Z</time>
      </trkpt>
      <trkpt lat="44.15746" lon="6.10836">
        <ele>1143</ele>
        <time>2022-03-03T14:13:52.617Z</time>
      </trkpt>
      <trkpt lat="44.15745" lon="6.10836">
        <ele>1143</ele>
        <time>2022-03-03T14:13:53.617Z</time>
      </trkpt>
      <trkpt lat="44.15744" lon="6.10836">
        <ele>1143</ele>
        <time>2022-03-03T14:13:54.617Z</time>
      </trkpt>
      <trkpt lat="44.15743" lon="6.10836">
        <ele>1143</ele>
        <time>2022-03-03T14:13:55.617Z</time>
      </trkpt>
      <trkpt lat="44.15741" lon="6.10836">
        <ele>1143</ele>
        <time>2022-03-03T14:13:56.617Z</time>
      </trkpt>
      <trkpt lat="44.1574" lon="6.10836">
        <ele>1143</ele>
        <time>2022-03-03T14:13:57.617Z</time>
      </trkpt>
      <trkpt lat="44.15739" lon="6.10836">
        <ele>1142</ele>
        <time>2022-03-03T14:13:58.617Z</time>
      </trkpt>
      <trkpt lat="44.15738" lon="6.10836">
        <ele>1142</ele>
        <time>2022-03-03T14:13:59.617Z</time>
      </trkpt>
      <trkpt lat="44.15737" lon="6.10836">
        <ele>1142</ele>
        <time>2022-03-03T14:14:00.617Z</time>
      </trkpt>
      <trkpt lat="44.15736" lon="6.10836">
        <ele>1142</ele>
        <time>2022-03-03T14:14:01.617Z</time>
      </trkpt>
      <trkpt lat="44.15735" lon="6.10836">
        <ele>1142</ele>
        <time>2022-03-03T14:14:02.617Z</time>
      </trkpt>
      <trkpt lat="44.15734" lon="6.10836">
        <ele>1142</ele>
        <time>2022-03-03T14:14:03.617Z</time>
      </trkpt>
      <trkpt lat="44.15733" lon="6.10836">
        <ele>1142</ele>
        <time>2022-03-03T14:14:04.617Z</time>
      </trkpt>
      <trkpt lat="44.15732" lon="6.10836">
        <ele>1141</ele>
        <time>2022-03-03T14:14:05.617Z</time>
      </trkpt>
      <trkpt lat="44.15731" lon="6.10836">
        <ele>1141</ele>
        <time>2022-03-03T14:14:06.617Z</time>
      </trkpt>
      <trkpt lat="44.15729" lon="6.10836">
        <ele>1141</ele>
        <time>2022-03-03T14:14:07.617Z</time>
      </trkpt>
      <trkpt lat="44.15728" lon="6.10836">
        <ele>1141</ele>
        <time>2022-03-03T14:14:08.617Z</time>
      </trkpt>
      <trkpt lat="44.15727" lon="6.10836">
        <ele>1141</ele>
        <time>2022-03-03T14:14:09.617Z</time>
      </trkpt>
      <trkpt lat="44.15726" lon="6.10836">
        <ele>1141</ele>
        <time>2022-03-03T14:14:10.617Z</time>
      </trkpt>
      <trkpt lat="44.15725" lon="6.10836">
        <ele>1140</ele>
        <time>2022-03-03T14:14:11.617Z</time>
      </trkpt>
      <trkpt lat="44.15724" lon="6.10836">
        <ele>1140</ele>
        <time>2022-03-03T14:14:12.617Z</time>
      </trkpt>
      <trkpt lat="44.15723" lon="6.10835">
        <ele>1140</ele>
        <time>2022-03-03T14:14:13.617Z</time>
      </trkpt>
      <trkpt lat="44.15722" lon="6.10835">
        <ele>1140</ele>
        <time>2022-03-03T14:14:14.617Z</time>
      </trkpt>
      <trkpt lat="44.15721" lon="6.10835">
        <ele>1140</ele>
        <time>2022-03-03T14:14:15.617Z</time>
      </trkpt>
      <trkpt lat="44.1572" lon="6.10835">
        <ele>1139</ele>
        <time>2022-03-03T14:14:16.617Z</time>
      </trkpt>
      <trkpt lat="44.15719" lon="6.10835">
        <ele>1139</ele>
        <time>2022-03-03T14:14:17.617Z</time>
      </trkpt>
      <trkpt lat="44.15718" lon="6.10836">
        <ele>1139</ele>
        <time>2022-03-03T14:14:18.617Z</time>
      </trkpt>
      <trkpt lat="44.15717" lon="6.10836">
        <ele>1139</ele>
        <time>2022-03-03T14:14:19.617Z</time>
      </trkpt>
      <trkpt lat="44.15716" lon="6.10836">
        <ele>1139</ele>
        <time>2022-03-03T14:14:20.617Z</time>
      </trkpt>
      <trkpt lat="44.15715" lon="6.10836">
        <ele>1139</ele>
        <time>2022-03-03T14:14:21.617Z</time>
      </trkpt>
      <trkpt lat="44.15714" lon="6.10836">
        <ele>1139</ele>
        <time>2022-03-03T14:14:22.617Z</time>
      </trkpt>
      <trkpt lat="44.15713" lon="6.10837">
        <ele>1138</ele>
        <time>2022-03-03T14:14:23.617Z</time>
      </trkpt>
      <trkpt lat="44.15712" lon="6.10838">
        <ele>1138</ele>
        <time>2022-03-03T14:14:24.617Z</time>
      </trkpt>
      <trkpt lat="44.15711" lon="6.10838">
        <ele>1138</ele>
        <time>2022-03-03T14:14:25.617Z</time>
      </trkpt>
      <trkpt lat="44.1571" lon="6.10839">
        <ele>1138</ele>
        <time>2022-03-03T14:14:26.617Z</time>
      </trkpt>
      <trkpt lat="44.15709" lon="6.1084">
        <ele>1138</ele>
        <time>2022-03-03T14:14:27.617Z</time>
      </trkpt>
      <trkpt lat="44.15709" lon="6.1084">
        <ele>1138</ele>
        <time>2022-03-03T14:14:28.617Z</time>
      </trkpt>
      <trkpt lat="44.15708" lon="6.10842">
        <ele>1137</ele>
        <time>2022-03-03T14:14:29.617Z</time>
      </trkpt>
      <trkpt lat="44.15707" lon="6.10843">
        <ele>1137</ele>
        <time>2022-03-03T14:14:30.617Z</time>
      </trkpt>
      <trkpt lat="44.15706" lon="6.10844">
        <ele>1137</ele>
        <time>2022-03-03T14:14:31.617Z</time>
      </trkpt>
      <trkpt lat="44.15705" lon="6.10845">
        <ele>1137</ele>
        <time>2022-03-03T14:14:32.617Z</time>
      </trkpt>
      <trkpt lat="44.15705" lon="6.10846">
        <ele>1137</ele>
        <time>2022-03-03T14:14:33.617Z</time>
      </trkpt>
      <trkpt lat="44.15704" lon="6.10848">
        <ele>1137</ele>
        <time>2022-03-03T14:14:34.617Z</time>
      </trkpt>
      <trkpt lat="44.15704" lon="6.10849">
        <ele>1137</ele>
        <time>2022-03-03T14:14:35.617Z</time>
      </trkpt>
      <trkpt lat="44.15703" lon="6.1085">
        <ele>1137</ele>
        <time>2022-03-03T14:14:36.617Z</time>
      </trkpt>
      <trkpt lat="44.15703" lon="6.10851">
        <ele>1137</ele>
        <time>2022-03-03T14:14:37.617Z</time>
      </trkpt>
      <trkpt lat="44.15702" lon="6.10853">
        <ele>1137</ele>
        <time>2022-03-03T14:14:38.617Z</time>
      </trkpt>
      <trkpt lat="44.15702" lon="6.10854">
        <ele>1136</ele>
        <time>2022-03-03T14:14:39.617Z</time>
      </trkpt>
      <trkpt lat="44.15701" lon="6.10856">
        <ele>1136</ele>
        <time>2022-03-03T14:14:40.617Z</time>
      </trkpt>
      <trkpt lat="44.157" lon="6.10857">
        <ele>1136</ele>
        <time>2022-03-03T14:14:41.617Z</time>
      </trkpt>
      <trkpt lat="44.157" lon="6.10859">
        <ele>1136</ele>
        <time>2022-03-03T14:14:42.617Z</time>
      </trkpt>
      <trkpt lat="44.15699" lon="6.1086">
        <ele>1136</ele>
        <time>2022-03-03T14:14:43.617Z</time>
      </trkpt>
      <trkpt lat="44.15698" lon="6.10862">
        <ele>1136</ele>
        <time>2022-03-03T14:14:44.617Z</time>
      </trkpt>
      <trkpt lat="44.15698" lon="6.10863">
        <ele>1136</ele>
        <time>2022-03-03T14:14:45.617Z</time>
      </trkpt>
      <trkpt lat="44.15697" lon="6.10865">
        <ele>1135</ele>
        <time>2022-03-03T14:14:46.617Z</time>
      </trkpt>
      <trkpt lat="44.15696" lon="6.10866">
        <ele>1135</ele>
        <time>2022-03-03T14:14:47.617Z</time>
      </trkpt>
      <trkpt lat="44.15696" lon="6.10868">
        <ele>1135</ele>
        <time>2022-03-03T14:14:48.617Z</time>
      </trkpt>
      <trkpt lat="44.15695" lon="6.10869">
        <ele>1135</ele>
        <time>2022-03-03T14:14:49.617Z</time>
      </trkpt>
      <trkpt lat="44.15694" lon="6.10871">
        <ele>1135</ele>
        <time>2022-03-03T14:14:50.617Z</time>
      </trkpt>
      <trkpt lat="44.15694" lon="6.10872">
        <ele>1135</ele>
        <time>2022-03-03T14:14:51.617Z</time>
      </trkpt>
      <trkpt lat="44.15693" lon="6.10874">
        <ele>1135</ele>
        <time>2022-03-03T14:14:52.617Z</time>
      </trkpt>
      <trkpt lat="44.15692" lon="6.10875">
        <ele>1135</ele>
        <time>2022-03-03T14:14:53.617Z</time>
      </trkpt>
      <trkpt lat="44.15692" lon="6.10876">
        <ele>1135</ele>
        <time>2022-03-03T14:14:54.617Z</time>
      </trkpt>
      <trkpt lat="44.15691" lon="6.10877">
        <ele>1135</ele>
        <time>2022-03-03T14:14:55.617Z</time>
      </trkpt>
      <trkpt lat="44.1569" lon="6.10879">
        <ele>1135</ele>
        <time>2022-03-03T14:14:56.617Z</time>
      </trkpt>
      <trkpt lat="44.1569" lon="6.10881">
        <ele>1135</ele>
        <time>2022-03-03T14:14:57.617Z</time>
      </trkpt>
      <trkpt lat="44.15689" lon="6.10882">
        <ele>1135</ele>
        <time>2022-03-03T14:14:58.617Z</time>
      </trkpt>
      <trkpt lat="44.15688" lon="6.10883">
        <ele>1135</ele>
        <time>2022-03-03T14:14:59.617Z</time>
      </trkpt>
      <trkpt lat="44.15687" lon="6.10885">
        <ele>1134</ele>
        <time>2022-03-03T14:15:00.617Z</time>
      </trkpt>
      <trkpt lat="44.15686" lon="6.10886">
        <ele>1134</ele>
        <time>2022-03-03T14:15:01.617Z</time>
      </trkpt>
      <trkpt lat="44.15686" lon="6.10887">
        <ele>1134</ele>
        <time>2022-03-03T14:15:02.617Z</time>
      </trkpt>
      <trkpt lat="44.15685" lon="6.10889">
        <ele>1134</ele>
        <time>2022-03-03T14:15:03.617Z</time>
      </trkpt>
      <trkpt lat="44.15684" lon="6.1089">
        <ele>1134</ele>
        <time>2022-03-03T14:15:04.617Z</time>
      </trkpt>
      <trkpt lat="44.15683" lon="6.10892">
        <ele>1134</ele>
        <time>2022-03-03T14:15:05.617Z</time>
      </trkpt>
      <trkpt lat="44.15682" lon="6.10893">
        <ele>1134</ele>
        <time>2022-03-03T14:15:06.617Z</time>
      </trkpt>
      <trkpt lat="44.15682" lon="6.10894">
        <ele>1134</ele>
        <time>2022-03-03T14:15:07.617Z</time>
      </trkpt>
      <trkpt lat="44.15681" lon="6.10896">
        <ele>1134</ele>
        <time>2022-03-03T14:15:08.617Z</time>
      </trkpt>
      <trkpt lat="44.1568" lon="6.10897">
        <ele>1134</ele>
        <time>2022-03-03T14:15:09.617Z</time>
      </trkpt>
      <trkpt lat="44.15679" lon="6.10899">
        <ele>1134</ele>
        <time>2022-03-03T14:15:10.617Z</time>
      </trkpt>
      <trkpt lat="44.15679" lon="6.109">
        <ele>1134</ele>
        <time>2022-03-03T14:15:11.617Z</time>
      </trkpt>
      <trkpt lat="44.15678" lon="6.10901">
        <ele>1134</ele>
        <time>2022-03-03T14:15:12.617Z</time>
      </trkpt>
      <trkpt lat="44.15678" lon="6.10902">
        <ele>1134</ele>
        <time>2022-03-03T14:15:13.617Z</time>
      </trkpt>
      <trkpt lat="44.15678" lon="6.10903">
        <ele>1134</ele>
        <time>2022-03-03T14:15:14.617Z</time>
      </trkpt>
      <trkpt lat="44.15677" lon="6.10904">
        <ele>1134</ele>
        <time>2022-03-03T14:15:15.617Z</time>
      </trkpt>
      <trkpt lat="44.15676" lon="6.10906">
        <ele>1134</ele>
        <time>2022-03-03T14:15:16.617Z</time>
      </trkpt>
      <trkpt lat="44.15675" lon="6.10906">
        <ele>1134</ele>
        <time>2022-03-03T14:15:17.617Z</time>
      </trkpt>
      <trkpt lat="44.15675" lon="6.10907">
        <ele>1134</ele>
        <time>2022-03-03T14:15:18.617Z</time>
      </trkpt>
      <trkpt lat="44.15674" lon="6.10908">
        <ele>1134</ele>
        <time>2022-03-03T14:15:19.617Z</time>
      </trkpt>
      <trkpt lat="44.15673" lon="6.10909">
        <ele>1134</ele>
        <time>2022-03-03T14:15:20.617Z</time>
      </trkpt>
      <trkpt lat="44.15672" lon="6.1091">
        <ele>1134</ele>
        <time>2022-03-03T14:15:21.617Z</time>
      </trkpt>
      <trkpt lat="44.15671" lon="6.10911">
        <ele>1134</ele>
        <time>2022-03-03T14:15:22.617Z</time>
      </trkpt>
      <trkpt lat="44.1567" lon="6.10912">
        <ele>1134</ele>
        <time>2022-03-03T14:15:23.617Z</time>
      </trkpt>
      <trkpt lat="44.15669" lon="6.10912">
        <ele>1134</ele>
        <time>2022-03-03T14:15:24.617Z</time>
      </trkpt>
      <trkpt lat="44.15668" lon="6.10913">
        <ele>1134</ele>
        <time>2022-03-03T14:15:25.617Z</time>
      </trkpt>
      <trkpt lat="44.15667" lon="6.10913">
        <ele>1134</ele>
        <time>2022-03-03T14:15:26.617Z</time>
      </trkpt>
      <trkpt lat="44.15666" lon="6.10914">
        <ele>1134</ele>
        <time>2022-03-03T14:15:27.617Z</time>
      </trkpt>
      <trkpt lat="44.15665" lon="6.10914">
        <ele>1134</ele>
        <time>2022-03-03T14:15:28.617Z</time>
      </trkpt>
      <trkpt lat="44.15664" lon="6.10915">
        <ele>1134</ele>
        <time>2022-03-03T14:15:29.617Z</time>
      </trkpt>
      <trkpt lat="44.15662" lon="6.10915">
        <ele>1134</ele>
        <time>2022-03-03T14:15:30.617Z</time>
      </trkpt>
      <trkpt lat="44.15661" lon="6.10916">
        <ele>1134</ele>
        <time>2022-03-03T14:15:31.617Z</time>
      </trkpt>
      <trkpt lat="44.1566" lon="6.10916">
        <ele>1134</ele>
        <time>2022-03-03T14:15:32.617Z</time>
      </trkpt>
      <trkpt lat="44.15658" lon="6.10917">
        <ele>1134</ele>
        <time>2022-03-03T14:15:33.617Z</time>
      </trkpt>
      <trkpt lat="44.15657" lon="6.10918">
        <ele>1134</ele>
        <time>2022-03-03T14:15:34.617Z</time>
      </trkpt>
      <trkpt lat="44.15656" lon="6.10918">
        <ele>1134</ele>
        <time>2022-03-03T14:15:35.617Z</time>
      </trkpt>
      <trkpt lat="44.15654" lon="6.10919">
        <ele>1134</ele>
        <time>2022-03-03T14:15:36.617Z</time>
      </trkpt>
      <trkpt lat="44.15653" lon="6.1092">
        <ele>1134</ele>
        <time>2022-03-03T14:15:37.617Z</time>
      </trkpt>
      <trkpt lat="44.15652" lon="6.10921">
        <ele>1135</ele>
        <time>2022-03-03T14:15:38.617Z</time>
      </trkpt>
      <trkpt lat="44.15651" lon="6.10923">
        <ele>1135</ele>
        <time>2022-03-03T14:15:39.617Z</time>
      </trkpt>
      <trkpt lat="44.1565" lon="6.10924">
        <ele>1135</ele>
        <time>2022-03-03T14:15:40.617Z</time>
      </trkpt>
      <trkpt lat="44.15649" lon="6.10925">
        <ele>1135</ele>
        <time>2022-03-03T14:15:41.617Z</time>
      </trkpt>
      <trkpt lat="44.15648" lon="6.10926">
        <ele>1135</ele>
        <time>2022-03-03T14:15:42.617Z</time>
      </trkpt>
      <trkpt lat="44.15647" lon="6.10927">
        <ele>1135</ele>
        <time>2022-03-03T14:15:43.617Z</time>
      </trkpt>
      <trkpt lat="44.15646" lon="6.10928">
        <ele>1134</ele>
        <time>2022-03-03T14:15:44.617Z</time>
      </trkpt>
      <trkpt lat="44.15645" lon="6.10929">
        <ele>1134</ele>
        <time>2022-03-03T14:15:45.617Z</time>
      </trkpt>
      <trkpt lat="44.15645" lon="6.1093">
        <ele>1134</ele>
        <time>2022-03-03T14:15:46.617Z</time>
      </trkpt>
      <trkpt lat="44.15644" lon="6.10931">
        <ele>1134</ele>
        <time>2022-03-03T14:15:47.617Z</time>
      </trkpt>
      <trkpt lat="44.15643" lon="6.10932">
        <ele>1134</ele>
        <time>2022-03-03T14:15:48.617Z</time>
      </trkpt>
      <trkpt lat="44.15642" lon="6.10933">
        <ele>1134</ele>
        <time>2022-03-03T14:15:49.617Z</time>
      </trkpt>
      <trkpt lat="44.15641" lon="6.10935">
        <ele>1134</ele>
        <time>2022-03-03T14:15:50.617Z</time>
      </trkpt>
      <trkpt lat="44.1564" lon="6.10936">
        <ele>1134</ele>
        <time>2022-03-03T14:15:51.617Z</time>
      </trkpt>
      <trkpt lat="44.15639" lon="6.10937">
        <ele>1134</ele>
        <time>2022-03-03T14:15:52.617Z</time>
      </trkpt>
      <trkpt lat="44.15638" lon="6.10938">
        <ele>1134</ele>
        <time>2022-03-03T14:15:53.617Z</time>
      </trkpt>
      <trkpt lat="44.15637" lon="6.10938">
        <ele>1134</ele>
        <time>2022-03-03T14:15:54.617Z</time>
      </trkpt>
      <trkpt lat="44.15636" lon="6.10939">
        <ele>1134</ele>
        <time>2022-03-03T14:15:55.617Z</time>
      </trkpt>
      <trkpt lat="44.15635" lon="6.1094">
        <ele>1134</ele>
        <time>2022-03-03T14:15:56.617Z</time>
      </trkpt>
      <trkpt lat="44.15634" lon="6.10941">
        <ele>1134</ele>
        <time>2022-03-03T14:15:57.617Z</time>
      </trkpt>
      <trkpt lat="44.15633" lon="6.10942">
        <ele>1134</ele>
        <time>2022-03-03T14:15:58.617Z</time>
      </trkpt>
      <trkpt lat="44.15632" lon="6.10942">
        <ele>1134</ele>
        <time>2022-03-03T14:15:59.617Z</time>
      </trkpt>
      <trkpt lat="44.15631" lon="6.10943">
        <ele>1134</ele>
        <time>2022-03-03T14:16:00.617Z</time>
      </trkpt>
      <trkpt lat="44.1563" lon="6.10944">
        <ele>1134</ele>
        <time>2022-03-03T14:16:01.617Z</time>
      </trkpt>
      <trkpt lat="44.15629" lon="6.10945">
        <ele>1134</ele>
        <time>2022-03-03T14:16:02.617Z</time>
      </trkpt>
      <trkpt lat="44.15628" lon="6.10946">
        <ele>1134</ele>
        <time>2022-03-03T14:16:03.617Z</time>
      </trkpt>
      <trkpt lat="44.15628" lon="6.10947">
        <ele>1134</ele>
        <time>2022-03-03T14:16:04.617Z</time>
      </trkpt>
      <trkpt lat="44.15627" lon="6.10948">
        <ele>1134</ele>
        <time>2022-03-03T14:16:05.617Z</time>
      </trkpt>
      <trkpt lat="44.15626" lon="6.10949">
        <ele>1134</ele>
        <time>2022-03-03T14:16:06.617Z</time>
      </trkpt>
      <trkpt lat="44.15625" lon="6.1095">
        <ele>1134</ele>
        <time>2022-03-03T14:16:07.617Z</time>
      </trkpt>
      <trkpt lat="44.15624" lon="6.10951">
        <ele>1134</ele>
        <time>2022-03-03T14:16:08.617Z</time>
      </trkpt>
      <trkpt lat="44.15623" lon="6.10951">
        <ele>1134</ele>
        <time>2022-03-03T14:16:09.617Z</time>
      </trkpt>
      <trkpt lat="44.15623" lon="6.10951">
        <ele>1134</ele>
        <time>2022-03-03T14:16:10.617Z</time>
      </trkpt>
      <trkpt lat="44.15623" lon="6.10952">
        <ele>1133</ele>
        <time>2022-03-03T14:16:11.617Z</time>
      </trkpt>
      <trkpt lat="44.15621" lon="6.10953">
        <ele>1133</ele>
        <time>2022-03-03T14:16:12.617Z</time>
      </trkpt>
      <trkpt lat="44.15621" lon="6.10954">
        <ele>1133</ele>
        <time>2022-03-03T14:16:13.617Z</time>
      </trkpt>
      <trkpt lat="44.1562" lon="6.10956">
        <ele>1133</ele>
        <time>2022-03-03T14:16:14.617Z</time>
      </trkpt>
      <trkpt lat="44.15619" lon="6.10957">
        <ele>1133</ele>
        <time>2022-03-03T14:16:15.617Z</time>
      </trkpt>
      <trkpt lat="44.15618" lon="6.10958">
        <ele>1133</ele>
        <time>2022-03-03T14:16:16.617Z</time>
      </trkpt>
      <trkpt lat="44.15617" lon="6.10959">
        <ele>1133</ele>
        <time>2022-03-03T14:16:17.617Z</time>
      </trkpt>
      <trkpt lat="44.15616" lon="6.1096">
        <ele>1133</ele>
        <time>2022-03-03T14:16:18.617Z</time>
      </trkpt>
      <trkpt lat="44.15615" lon="6.10961">
        <ele>1133</ele>
        <time>2022-03-03T14:16:19.617Z</time>
      </trkpt>
      <trkpt lat="44.15614" lon="6.10962">
        <ele>1133</ele>
        <time>2022-03-03T14:16:20.617Z</time>
      </trkpt>
      <trkpt lat="44.15613" lon="6.10962">
        <ele>1133</ele>
        <time>2022-03-03T14:16:21.617Z</time>
      </trkpt>
      <trkpt lat="44.15612" lon="6.10964">
        <ele>1133</ele>
        <time>2022-03-03T14:16:22.617Z</time>
      </trkpt>
      <trkpt lat="44.15611" lon="6.10965">
        <ele>1132</ele>
        <time>2022-03-03T14:16:23.617Z</time>
      </trkpt>
      <trkpt lat="44.1561" lon="6.10966">
        <ele>1132</ele>
        <time>2022-03-03T14:16:24.617Z</time>
      </trkpt>
      <trkpt lat="44.15609" lon="6.10968">
        <ele>1132</ele>
        <time>2022-03-03T14:16:25.617Z</time>
      </trkpt>
      <trkpt lat="44.15608" lon="6.10968">
        <ele>1132</ele>
        <time>2022-03-03T14:16:26.617Z</time>
      </trkpt>
      <trkpt lat="44.15607" lon="6.1097">
        <ele>1132</ele>
        <time>2022-03-03T14:16:27.617Z</time>
      </trkpt>
      <trkpt lat="44.15606" lon="6.10971">
        <ele>1132</ele>
        <time>2022-03-03T14:16:28.617Z</time>
      </trkpt>
      <trkpt lat="44.15605" lon="6.10972">
        <ele>1132</ele>
        <time>2022-03-03T14:16:29.617Z</time>
      </trkpt>
      <trkpt lat="44.15604" lon="6.10973">
        <ele>1132</ele>
        <time>2022-03-03T14:16:30.617Z</time>
      </trkpt>
      <trkpt lat="44.15603" lon="6.10974">
        <ele>1132</ele>
        <time>2022-03-03T14:16:31.617Z</time>
      </trkpt>
      <trkpt lat="44.15602" lon="6.10975">
        <ele>1132</ele>
        <time>2022-03-03T14:16:32.617Z</time>
      </trkpt>
      <trkpt lat="44.15601" lon="6.10976">
        <ele>1132</ele>
        <time>2022-03-03T14:16:33.617Z</time>
      </trkpt>
      <trkpt lat="44.156" lon="6.10977">
        <ele>1131</ele>
        <time>2022-03-03T14:16:34.617Z</time>
      </trkpt>
      <trkpt lat="44.15599" lon="6.10978">
        <ele>1131</ele>
        <time>2022-03-03T14:16:35.617Z</time>
      </trkpt>
      <trkpt lat="44.15598" lon="6.10979">
        <ele>1131</ele>
        <time>2022-03-03T14:16:36.617Z</time>
      </trkpt>
      <trkpt lat="44.15597" lon="6.1098">
        <ele>1131</ele>
        <time>2022-03-03T14:16:37.617Z</time>
      </trkpt>
      <trkpt lat="44.15597" lon="6.10981">
        <ele>1131</ele>
        <time>2022-03-03T14:16:38.617Z</time>
      </trkpt>
      <trkpt lat="44.15596" lon="6.10982">
        <ele>1131</ele>
        <time>2022-03-03T14:16:39.617Z</time>
      </trkpt>
      <trkpt lat="44.15595" lon="6.10983">
        <ele>1131</ele>
        <time>2022-03-03T14:16:40.617Z</time>
      </trkpt>
      <trkpt lat="44.15594" lon="6.10984">
        <ele>1131</ele>
        <time>2022-03-03T14:16:41.617Z</time>
      </trkpt>
      <trkpt lat="44.15593" lon="6.10985">
        <ele>1130</ele>
        <time>2022-03-03T14:16:42.617Z</time>
      </trkpt>
      <trkpt lat="44.15592" lon="6.10986">
        <ele>1130</ele>
        <time>2022-03-03T14:16:43.617Z</time>
      </trkpt>
      <trkpt lat="44.15591" lon="6.10986">
        <ele>1130</ele>
        <time>2022-03-03T14:16:44.617Z</time>
      </trkpt>
      <trkpt lat="44.1559" lon="6.10987">
        <ele>1130</ele>
        <time>2022-03-03T14:16:45.617Z</time>
      </trkpt>
      <trkpt lat="44.15588" lon="6.10988">
        <ele>1130</ele>
        <time>2022-03-03T14:16:46.617Z</time>
      </trkpt>
      <trkpt lat="44.15587" lon="6.10989">
        <ele>1130</ele>
        <time>2022-03-03T14:16:47.617Z</time>
      </trkpt>
      <trkpt lat="44.15586" lon="6.1099">
        <ele>1129</ele>
        <time>2022-03-03T14:16:48.617Z</time>
      </trkpt>
      <trkpt lat="44.15586" lon="6.10991">
        <ele>1129</ele>
        <time>2022-03-03T14:16:49.617Z</time>
      </trkpt>
      <trkpt lat="44.15585" lon="6.10992">
        <ele>1129</ele>
        <time>2022-03-03T14:16:50.617Z</time>
      </trkpt>
      <trkpt lat="44.15583" lon="6.10993">
        <ele>1129</ele>
        <time>2022-03-03T14:16:51.617Z</time>
      </trkpt>
      <trkpt lat="44.15583" lon="6.10994">
        <ele>1129</ele>
        <time>2022-03-03T14:16:52.617Z</time>
      </trkpt>
      <trkpt lat="44.15582" lon="6.10995">
        <ele>1128</ele>
        <time>2022-03-03T14:16:53.617Z</time>
      </trkpt>
      <trkpt lat="44.15581" lon="6.10996">
        <ele>1128</ele>
        <time>2022-03-03T14:16:54.617Z</time>
      </trkpt>
      <trkpt lat="44.1558" lon="6.10997">
        <ele>1128</ele>
        <time>2022-03-03T14:16:55.617Z</time>
      </trkpt>
      <trkpt lat="44.15579" lon="6.10998">
        <ele>1128</ele>
        <time>2022-03-03T14:16:56.617Z</time>
      </trkpt>
      <trkpt lat="44.15578" lon="6.10999">
        <ele>1128</ele>
        <time>2022-03-03T14:16:57.617Z</time>
      </trkpt>
      <trkpt lat="44.15577" lon="6.11">
        <ele>1128</ele>
        <time>2022-03-03T14:16:58.617Z</time>
      </trkpt>
      <trkpt lat="44.15576" lon="6.11001">
        <ele>1127</ele>
        <time>2022-03-03T14:16:59.617Z</time>
      </trkpt>
      <trkpt lat="44.15575" lon="6.11002">
        <ele>1127</ele>
        <time>2022-03-03T14:17:00.617Z</time>
      </trkpt>
      <trkpt lat="44.15574" lon="6.11003">
        <ele>1127</ele>
        <time>2022-03-03T14:17:01.617Z</time>
      </trkpt>
      <trkpt lat="44.15573" lon="6.11004">
        <ele>1127</ele>
        <time>2022-03-03T14:17:02.617Z</time>
      </trkpt>
      <trkpt lat="44.15572" lon="6.11006">
        <ele>1127</ele>
        <time>2022-03-03T14:17:03.617Z</time>
      </trkpt>
      <trkpt lat="44.15571" lon="6.11007">
        <ele>1127</ele>
        <time>2022-03-03T14:17:04.617Z</time>
      </trkpt>
      <trkpt lat="44.1557" lon="6.11007">
        <ele>1126</ele>
        <time>2022-03-03T14:17:05.617Z</time>
      </trkpt>
      <trkpt lat="44.15569" lon="6.11009">
        <ele>1126</ele>
        <time>2022-03-03T14:17:06.617Z</time>
      </trkpt>
      <trkpt lat="44.15568" lon="6.11009">
        <ele>1126</ele>
        <time>2022-03-03T14:17:07.617Z</time>
      </trkpt>
      <trkpt lat="44.15567" lon="6.11011">
        <ele>1126</ele>
        <time>2022-03-03T14:17:08.617Z</time>
      </trkpt>
      <trkpt lat="44.15567" lon="6.11012">
        <ele>1126</ele>
        <time>2022-03-03T14:17:09.617Z</time>
      </trkpt>
      <trkpt lat="44.15566" lon="6.11013">
        <ele>1126</ele>
        <time>2022-03-03T14:17:10.617Z</time>
      </trkpt>
      <trkpt lat="44.15565" lon="6.11014">
        <ele>1126</ele>
        <time>2022-03-03T14:17:11.617Z</time>
      </trkpt>
      <trkpt lat="44.15564" lon="6.11015">
        <ele>1126</ele>
        <time>2022-03-03T14:17:12.617Z</time>
      </trkpt>
      <trkpt lat="44.15563" lon="6.11015">
        <ele>1125</ele>
        <time>2022-03-03T14:17:13.617Z</time>
      </trkpt>
      <trkpt lat="44.15562" lon="6.11016">
        <ele>1125</ele>
        <time>2022-03-03T14:17:14.617Z</time>
      </trkpt>
      <trkpt lat="44.15561" lon="6.11017">
        <ele>1125</ele>
        <time>2022-03-03T14:17:15.617Z</time>
      </trkpt>
      <trkpt lat="44.15561" lon="6.11018">
        <ele>1125</ele>
        <time>2022-03-03T14:17:16.617Z</time>
      </trkpt>
      <trkpt lat="44.1556" lon="6.1102">
        <ele>1124</ele>
        <time>2022-03-03T14:17:17.617Z</time>
      </trkpt>
      <trkpt lat="44.15559" lon="6.11021">
        <ele>1124</ele>
        <time>2022-03-03T14:17:18.617Z</time>
      </trkpt>
      <trkpt lat="44.15558" lon="6.11022">
        <ele>1124</ele>
        <time>2022-03-03T14:17:19.617Z</time>
      </trkpt>
      <trkpt lat="44.15558" lon="6.11023">
        <ele>1124</ele>
        <time>2022-03-03T14:17:20.617Z</time>
      </trkpt>
      <trkpt lat="44.15557" lon="6.11024">
        <ele>1124</ele>
        <time>2022-03-03T14:17:21.617Z</time>
      </trkpt>
      <trkpt lat="44.15556" lon="6.11025">
        <ele>1123</ele>
        <time>2022-03-03T14:17:22.617Z</time>
      </trkpt>
      <trkpt lat="44.15555" lon="6.11027">
        <ele>1123</ele>
        <time>2022-03-03T14:17:23.617Z</time>
      </trkpt>
      <trkpt lat="44.15554" lon="6.11028">
        <ele>1123</ele>
        <time>2022-03-03T14:17:24.617Z</time>
      </trkpt>
      <trkpt lat="44.15554" lon="6.11029">
        <ele>1123</ele>
        <time>2022-03-03T14:17:25.617Z</time>
      </trkpt>
      <trkpt lat="44.15553" lon="6.11031">
        <ele>1123</ele>
        <time>2022-03-03T14:17:26.617Z</time>
      </trkpt>
      <trkpt lat="44.15552" lon="6.11032">
        <ele>1123</ele>
        <time>2022-03-03T14:17:27.617Z</time>
      </trkpt>
      <trkpt lat="44.15552" lon="6.11033">
        <ele>1122</ele>
        <time>2022-03-03T14:17:28.617Z</time>
      </trkpt>
      <trkpt lat="44.15551" lon="6.11035">
        <ele>1122</ele>
        <time>2022-03-03T14:17:29.617Z</time>
      </trkpt>
      <trkpt lat="44.1555" lon="6.11036">
        <ele>1122</ele>
        <time>2022-03-03T14:17:30.617Z</time>
      </trkpt>
      <trkpt lat="44.15549" lon="6.11037">
        <ele>1122</ele>
        <time>2022-03-03T14:17:31.617Z</time>
      </trkpt>
      <trkpt lat="44.15549" lon="6.11038">
        <ele>1122</ele>
        <time>2022-03-03T14:17:32.617Z</time>
      </trkpt>
      <trkpt lat="44.15548" lon="6.1104">
        <ele>1121</ele>
        <time>2022-03-03T14:17:33.617Z</time>
      </trkpt>
      <trkpt lat="44.15547" lon="6.11041">
        <ele>1121</ele>
        <time>2022-03-03T14:17:34.617Z</time>
      </trkpt>
      <trkpt lat="44.15546" lon="6.11042">
        <ele>1121</ele>
        <time>2022-03-03T14:17:35.617Z</time>
      </trkpt>
      <trkpt lat="44.15546" lon="6.11044">
        <ele>1121</ele>
        <time>2022-03-03T14:17:36.617Z</time>
      </trkpt>
      <trkpt lat="44.15545" lon="6.11045">
        <ele>1121</ele>
        <time>2022-03-03T14:17:37.617Z</time>
      </trkpt>
      <trkpt lat="44.15544" lon="6.11046">
        <ele>1120</ele>
        <time>2022-03-03T14:17:38.617Z</time>
      </trkpt>
      <trkpt lat="44.15543" lon="6.11048">
        <ele>1120</ele>
        <time>2022-03-03T14:17:39.617Z</time>
      </trkpt>
      <trkpt lat="44.15542" lon="6.11049">
        <ele>1120</ele>
        <time>2022-03-03T14:17:40.617Z</time>
      </trkpt>
      <trkpt lat="44.15541" lon="6.1105">
        <ele>1120</ele>
        <time>2022-03-03T14:17:41.617Z</time>
      </trkpt>
      <trkpt lat="44.15541" lon="6.11051">
        <ele>1120</ele>
        <time>2022-03-03T14:17:42.617Z</time>
      </trkpt>
      <trkpt lat="44.1554" lon="6.11052">
        <ele>1120</ele>
        <time>2022-03-03T14:17:43.617Z</time>
      </trkpt>
      <trkpt lat="44.15539" lon="6.11053">
        <ele>1120</ele>
        <time>2022-03-03T14:17:44.617Z</time>
      </trkpt>
      <trkpt lat="44.15538" lon="6.11054">
        <ele>1120</ele>
        <time>2022-03-03T14:17:45.617Z</time>
      </trkpt>
      <trkpt lat="44.15537" lon="6.11056">
        <ele>1119</ele>
        <time>2022-03-03T14:17:46.617Z</time>
      </trkpt>
      <trkpt lat="44.15536" lon="6.11056">
        <ele>1119</ele>
        <time>2022-03-03T14:17:47.617Z</time>
      </trkpt>
      <trkpt lat="44.15535" lon="6.11057">
        <ele>1119</ele>
        <time>2022-03-03T14:17:48.617Z</time>
      </trkpt>
      <trkpt lat="44.15534" lon="6.11058">
        <ele>1119</ele>
        <time>2022-03-03T14:17:49.617Z</time>
      </trkpt>
      <trkpt lat="44.15533" lon="6.11059">
        <ele>1119</ele>
        <time>2022-03-03T14:17:50.617Z</time>
      </trkpt>
      <trkpt lat="44.15532" lon="6.1106">
        <ele>1119</ele>
        <time>2022-03-03T14:17:51.617Z</time>
      </trkpt>
      <trkpt lat="44.15531" lon="6.11061">
        <ele>1118</ele>
        <time>2022-03-03T14:17:52.617Z</time>
      </trkpt>
      <trkpt lat="44.1553" lon="6.11062">
        <ele>1118</ele>
        <time>2022-03-03T14:17:53.617Z</time>
      </trkpt>
      <trkpt lat="44.15529" lon="6.11063">
        <ele>1118</ele>
        <time>2022-03-03T14:17:54.617Z</time>
      </trkpt>
      <trkpt lat="44.15528" lon="6.11063">
        <ele>1118</ele>
        <time>2022-03-03T14:17:55.617Z</time>
      </trkpt>
      <trkpt lat="44.15527" lon="6.11064">
        <ele>1118</ele>
        <time>2022-03-03T14:17:56.617Z</time>
      </trkpt>
      <trkpt lat="44.15526" lon="6.11065">
        <ele>1118</ele>
        <time>2022-03-03T14:17:57.617Z</time>
      </trkpt>
      <trkpt lat="44.15525" lon="6.11066">
        <ele>1117</ele>
        <time>2022-03-03T14:17:58.617Z</time>
      </trkpt>
      <trkpt lat="44.15524" lon="6.11067">
        <ele>1117</ele>
        <time>2022-03-03T14:17:59.617Z</time>
      </trkpt>
      <trkpt lat="44.15523" lon="6.11067">
        <ele>1117</ele>
        <time>2022-03-03T14:18:00.617Z</time>
      </trkpt>
      <trkpt lat="44.15523" lon="6.11068">
        <ele>1117</ele>
        <time>2022-03-03T14:18:01.617Z</time>
      </trkpt>
      <trkpt lat="44.15522" lon="6.11069">
        <ele>1117</ele>
        <time>2022-03-03T14:18:02.617Z</time>
      </trkpt>
      <trkpt lat="44.15521" lon="6.1107">
        <ele>1116</ele>
        <time>2022-03-03T14:18:03.617Z</time>
      </trkpt>
      <trkpt lat="44.1552" lon="6.11071">
        <ele>1116</ele>
        <time>2022-03-03T14:18:04.617Z</time>
      </trkpt>
      <trkpt lat="44.15519" lon="6.11072">
        <ele>1116</ele>
        <time>2022-03-03T14:18:05.617Z</time>
      </trkpt>
      <trkpt lat="44.15518" lon="6.11073">
        <ele>1116</ele>
        <time>2022-03-03T14:18:06.617Z</time>
      </trkpt>
      <trkpt lat="44.15518" lon="6.11074">
        <ele>1116</ele>
        <time>2022-03-03T14:18:07.617Z</time>
      </trkpt>
      <trkpt lat="44.15517" lon="6.11075">
        <ele>1115</ele>
        <time>2022-03-03T14:18:08.617Z</time>
      </trkpt>
      <trkpt lat="44.15516" lon="6.11076">
        <ele>1115</ele>
        <time>2022-03-03T14:18:09.617Z</time>
      </trkpt>
      <trkpt lat="44.15515" lon="6.11078">
        <ele>1115</ele>
        <time>2022-03-03T14:18:10.617Z</time>
      </trkpt>
      <trkpt lat="44.15515" lon="6.11079">
        <ele>1115</ele>
        <time>2022-03-03T14:18:11.617Z</time>
      </trkpt>
      <trkpt lat="44.15514" lon="6.1108">
        <ele>1114</ele>
        <time>2022-03-03T14:18:12.617Z</time>
      </trkpt>
      <trkpt lat="44.15513" lon="6.11081">
        <ele>1114</ele>
        <time>2022-03-03T14:18:13.617Z</time>
      </trkpt>
      <trkpt lat="44.15513" lon="6.11082">
        <ele>1114</ele>
        <time>2022-03-03T14:18:14.617Z</time>
      </trkpt>
      <trkpt lat="44.15512" lon="6.11083">
        <ele>1114</ele>
        <time>2022-03-03T14:18:15.617Z</time>
      </trkpt>
      <trkpt lat="44.15511" lon="6.11084">
        <ele>1113</ele>
        <time>2022-03-03T14:18:16.617Z</time>
      </trkpt>
      <trkpt lat="44.1551" lon="6.11086">
        <ele>1113</ele>
        <time>2022-03-03T14:18:17.617Z</time>
      </trkpt>
      <trkpt lat="44.15509" lon="6.11086">
        <ele>1113</ele>
        <time>2022-03-03T14:18:18.617Z</time>
      </trkpt>
      <trkpt lat="44.15508" lon="6.11087">
        <ele>1113</ele>
        <time>2022-03-03T14:18:19.617Z</time>
      </trkpt>
      <trkpt lat="44.15508" lon="6.11088">
        <ele>1113</ele>
        <time>2022-03-03T14:18:20.617Z</time>
      </trkpt>
      <trkpt lat="44.15507" lon="6.1109">
        <ele>1112</ele>
        <time>2022-03-03T14:18:21.617Z</time>
      </trkpt>
      <trkpt lat="44.15506" lon="6.11091">
        <ele>1112</ele>
        <time>2022-03-03T14:18:22.617Z</time>
      </trkpt>
      <trkpt lat="44.15506" lon="6.11092">
        <ele>1112</ele>
        <time>2022-03-03T14:18:23.617Z</time>
      </trkpt>
      <trkpt lat="44.15505" lon="6.11093">
        <ele>1111</ele>
        <time>2022-03-03T14:18:24.617Z</time>
      </trkpt>
      <trkpt lat="44.15504" lon="6.11094">
        <ele>1111</ele>
        <time>2022-03-03T14:18:25.617Z</time>
      </trkpt>
      <trkpt lat="44.15504" lon="6.11096">
        <ele>1111</ele>
        <time>2022-03-03T14:18:26.617Z</time>
      </trkpt>
      <trkpt lat="44.15503" lon="6.11097">
        <ele>1111</ele>
        <time>2022-03-03T14:18:27.617Z</time>
      </trkpt>
      <trkpt lat="44.15502" lon="6.11098">
        <ele>1111</ele>
        <time>2022-03-03T14:18:28.617Z</time>
      </trkpt>
      <trkpt lat="44.15502" lon="6.11099">
        <ele>1111</ele>
        <time>2022-03-03T14:18:29.617Z</time>
      </trkpt>
      <trkpt lat="44.15501" lon="6.11101">
        <ele>1110</ele>
        <time>2022-03-03T14:18:30.617Z</time>
      </trkpt>
      <trkpt lat="44.155" lon="6.11102">
        <ele>1110</ele>
        <time>2022-03-03T14:18:31.617Z</time>
      </trkpt>
      <trkpt lat="44.155" lon="6.11103">
        <ele>1110</ele>
        <time>2022-03-03T14:18:32.617Z</time>
      </trkpt>
      <trkpt lat="44.15499" lon="6.11104">
        <ele>1110</ele>
        <time>2022-03-03T14:18:33.617Z</time>
      </trkpt>
      <trkpt lat="44.15498" lon="6.11105">
        <ele>1110</ele>
        <time>2022-03-03T14:18:34.617Z</time>
      </trkpt>
      <trkpt lat="44.15497" lon="6.11106">
        <ele>1109</ele>
        <time>2022-03-03T14:18:35.617Z</time>
      </trkpt>
      <trkpt lat="44.15497" lon="6.11108">
        <ele>1109</ele>
        <time>2022-03-03T14:18:36.617Z</time>
      </trkpt>
      <trkpt lat="44.15496" lon="6.11109">
        <ele>1109</ele>
        <time>2022-03-03T14:18:37.617Z</time>
      </trkpt>
      <trkpt lat="44.15495" lon="6.1111">
        <ele>1109</ele>
        <time>2022-03-03T14:18:38.617Z</time>
      </trkpt>
      <trkpt lat="44.15495" lon="6.11112">
        <ele>1108</ele>
        <time>2022-03-03T14:18:39.617Z</time>
      </trkpt>
      <trkpt lat="44.15494" lon="6.11113">
        <ele>1108</ele>
        <time>2022-03-03T14:18:40.617Z</time>
      </trkpt>
      <trkpt lat="44.15493" lon="6.11114">
        <ele>1108</ele>
        <time>2022-03-03T14:18:41.617Z</time>
      </trkpt>
      <trkpt lat="44.15492" lon="6.11115">
        <ele>1108</ele>
        <time>2022-03-03T14:18:42.617Z</time>
      </trkpt>
      <trkpt lat="44.15492" lon="6.11116">
        <ele>1107</ele>
        <time>2022-03-03T14:18:43.617Z</time>
      </trkpt>
      <trkpt lat="44.1549" lon="6.11117">
        <ele>1107</ele>
        <time>2022-03-03T14:18:44.617Z</time>
      </trkpt>
      <trkpt lat="44.15489" lon="6.11118">
        <ele>1107</ele>
        <time>2022-03-03T14:18:45.617Z</time>
      </trkpt>
      <trkpt lat="44.15488" lon="6.11119">
        <ele>1107</ele>
        <time>2022-03-03T14:18:46.617Z</time>
      </trkpt>
      <trkpt lat="44.15487" lon="6.11119">
        <ele>1107</ele>
        <time>2022-03-03T14:18:47.617Z</time>
      </trkpt>
      <trkpt lat="44.15486" lon="6.1112">
        <ele>1106</ele>
        <time>2022-03-03T14:18:48.617Z</time>
      </trkpt>
      <trkpt lat="44.15485" lon="6.1112">
        <ele>1106</ele>
        <time>2022-03-03T14:18:49.617Z</time>
      </trkpt>
      <trkpt lat="44.15484" lon="6.11121">
        <ele>1106</ele>
        <time>2022-03-03T14:18:50.617Z</time>
      </trkpt>
      <trkpt lat="44.15483" lon="6.11122">
        <ele>1106</ele>
        <time>2022-03-03T14:18:51.617Z</time>
      </trkpt>
      <trkpt lat="44.15481" lon="6.11122">
        <ele>1106</ele>
        <time>2022-03-03T14:18:52.617Z</time>
      </trkpt>
      <trkpt lat="44.1548" lon="6.11123">
        <ele>1105</ele>
        <time>2022-03-03T14:18:53.617Z</time>
      </trkpt>
      <trkpt lat="44.15479" lon="6.11123">
        <ele>1105</ele>
        <time>2022-03-03T14:18:54.617Z</time>
      </trkpt>
      <trkpt lat="44.15478" lon="6.11124">
        <ele>1105</ele>
        <time>2022-03-03T14:18:55.617Z</time>
      </trkpt>
      <trkpt lat="44.15477" lon="6.11124">
        <ele>1105</ele>
        <time>2022-03-03T14:18:56.617Z</time>
      </trkpt>
      <trkpt lat="44.15476" lon="6.11125">
        <ele>1104</ele>
        <time>2022-03-03T14:18:57.617Z</time>
      </trkpt>
      <trkpt lat="44.15475" lon="6.11125">
        <ele>1104</ele>
        <time>2022-03-03T14:18:58.617Z</time>
      </trkpt>
      <trkpt lat="44.15474" lon="6.11126">
        <ele>1104</ele>
        <time>2022-03-03T14:18:59.617Z</time>
      </trkpt>
      <trkpt lat="44.15473" lon="6.11126">
        <ele>1104</ele>
        <time>2022-03-03T14:19:00.617Z</time>
      </trkpt>
      <trkpt lat="44.15471" lon="6.11127">
        <ele>1104</ele>
        <time>2022-03-03T14:19:01.617Z</time>
      </trkpt>
      <trkpt lat="44.1547" lon="6.11127">
        <ele>1103</ele>
        <time>2022-03-03T14:19:02.617Z</time>
      </trkpt>
      <trkpt lat="44.15469" lon="6.11128">
        <ele>1103</ele>
        <time>2022-03-03T14:19:03.617Z</time>
      </trkpt>
      <trkpt lat="44.15468" lon="6.11128">
        <ele>1103</ele>
        <time>2022-03-03T14:19:04.617Z</time>
      </trkpt>
      <trkpt lat="44.15467" lon="6.11128">
        <ele>1103</ele>
        <time>2022-03-03T14:19:05.617Z</time>
      </trkpt>
      <trkpt lat="44.15466" lon="6.11129">
        <ele>1102</ele>
        <time>2022-03-03T14:19:06.617Z</time>
      </trkpt>
      <trkpt lat="44.15465" lon="6.11129">
        <ele>1102</ele>
        <time>2022-03-03T14:19:07.617Z</time>
      </trkpt>
      <trkpt lat="44.15464" lon="6.1113">
        <ele>1102</ele>
        <time>2022-03-03T14:19:08.617Z</time>
      </trkpt>
      <trkpt lat="44.15463" lon="6.1113">
        <ele>1102</ele>
        <time>2022-03-03T14:19:09.617Z</time>
      </trkpt>
      <trkpt lat="44.15462" lon="6.11131">
        <ele>1102</ele>
        <time>2022-03-03T14:19:10.617Z</time>
      </trkpt>
      <trkpt lat="44.15461" lon="6.11132">
        <ele>1101</ele>
        <time>2022-03-03T14:19:11.617Z</time>
      </trkpt>
      <trkpt lat="44.15459" lon="6.11132">
        <ele>1101</ele>
        <time>2022-03-03T14:19:12.617Z</time>
      </trkpt>
      <trkpt lat="44.15458" lon="6.11132">
        <ele>1101</ele>
        <time>2022-03-03T14:19:13.617Z</time>
      </trkpt>
      <trkpt lat="44.15457" lon="6.11132">
        <ele>1101</ele>
        <time>2022-03-03T14:19:14.617Z</time>
      </trkpt>
      <trkpt lat="44.15456" lon="6.11133">
        <ele>1101</ele>
        <time>2022-03-03T14:19:15.617Z</time>
      </trkpt>
      <trkpt lat="44.15454" lon="6.11133">
        <ele>1101</ele>
        <time>2022-03-03T14:19:16.617Z</time>
      </trkpt>
      <trkpt lat="44.15453" lon="6.11133">
        <ele>1100</ele>
        <time>2022-03-03T14:19:17.617Z</time>
      </trkpt>
      <trkpt lat="44.15452" lon="6.11134">
        <ele>1100</ele>
        <time>2022-03-03T14:19:18.617Z</time>
      </trkpt>
      <trkpt lat="44.15451" lon="6.11134">
        <ele>1100</ele>
        <time>2022-03-03T14:19:19.617Z</time>
      </trkpt>
      <trkpt lat="44.1545" lon="6.11134">
        <ele>1100</ele>
        <time>2022-03-03T14:19:20.617Z</time>
      </trkpt>
      <trkpt lat="44.15449" lon="6.11135">
        <ele>1100</ele>
        <time>2022-03-03T14:19:21.617Z</time>
      </trkpt>
      <trkpt lat="44.15447" lon="6.11135">
        <ele>1099</ele>
        <time>2022-03-03T14:19:22.617Z</time>
      </trkpt>
      <trkpt lat="44.15446" lon="6.11135">
        <ele>1099</ele>
        <time>2022-03-03T14:19:23.617Z</time>
      </trkpt>
      <trkpt lat="44.15445" lon="6.11135">
        <ele>1099</ele>
        <time>2022-03-03T14:19:24.617Z</time>
      </trkpt>
      <trkpt lat="44.15444" lon="6.11135">
        <ele>1099</ele>
        <time>2022-03-03T14:19:25.617Z</time>
      </trkpt>
      <trkpt lat="44.15443" lon="6.11136">
        <ele>1098</ele>
        <time>2022-03-03T14:19:26.617Z</time>
      </trkpt>
      <trkpt lat="44.15441" lon="6.11136">
        <ele>1098</ele>
        <time>2022-03-03T14:19:27.617Z</time>
      </trkpt>
      <trkpt lat="44.1544" lon="6.11136">
        <ele>1098</ele>
        <time>2022-03-03T14:19:28.617Z</time>
      </trkpt>
      <trkpt lat="44.15439" lon="6.11137">
        <ele>1098</ele>
        <time>2022-03-03T14:19:29.617Z</time>
      </trkpt>
      <trkpt lat="44.15438" lon="6.11138">
        <ele>1097</ele>
        <time>2022-03-03T14:19:30.617Z</time>
      </trkpt>
      <trkpt lat="44.15437" lon="6.11138">
        <ele>1097</ele>
        <time>2022-03-03T14:19:31.617Z</time>
      </trkpt>
      <trkpt lat="44.15436" lon="6.11139">
        <ele>1097</ele>
        <time>2022-03-03T14:19:32.617Z</time>
      </trkpt>
      <trkpt lat="44.15435" lon="6.11139">
        <ele>1097</ele>
        <time>2022-03-03T14:19:33.617Z</time>
      </trkpt>
      <trkpt lat="44.15434" lon="6.1114">
        <ele>1096</ele>
        <time>2022-03-03T14:19:34.617Z</time>
      </trkpt>
      <trkpt lat="44.15433" lon="6.11141">
        <ele>1096</ele>
        <time>2022-03-03T14:19:35.617Z</time>
      </trkpt>
      <trkpt lat="44.15433" lon="6.11142">
        <ele>1096</ele>
        <time>2022-03-03T14:19:36.617Z</time>
      </trkpt>
      <trkpt lat="44.15432" lon="6.11142">
        <ele>1096</ele>
        <time>2022-03-03T14:19:37.617Z</time>
      </trkpt>
      <trkpt lat="44.15431" lon="6.11143">
        <ele>1096</ele>
        <time>2022-03-03T14:19:38.617Z</time>
      </trkpt>
      <trkpt lat="44.1543" lon="6.11144">
        <ele>1095</ele>
        <time>2022-03-03T14:19:39.617Z</time>
      </trkpt>
      <trkpt lat="44.1543" lon="6.11145">
        <ele>1095</ele>
        <time>2022-03-03T14:19:40.617Z</time>
      </trkpt>
      <trkpt lat="44.15429" lon="6.11146">
        <ele>1095</ele>
        <time>2022-03-03T14:19:41.617Z</time>
      </trkpt>
      <trkpt lat="44.15428" lon="6.11148">
        <ele>1095</ele>
        <time>2022-03-03T14:19:42.617Z</time>
      </trkpt>
      <trkpt lat="44.15428" lon="6.11149">
        <ele>1094</ele>
        <time>2022-03-03T14:19:43.617Z</time>
      </trkpt>
      <trkpt lat="44.15427" lon="6.11149">
        <ele>1094</ele>
        <time>2022-03-03T14:19:44.617Z</time>
      </trkpt>
      <trkpt lat="44.15426" lon="6.1115">
        <ele>1094</ele>
        <time>2022-03-03T14:19:45.617Z</time>
      </trkpt>
      <trkpt lat="44.15425" lon="6.11151">
        <ele>1094</ele>
        <time>2022-03-03T14:19:46.617Z</time>
      </trkpt>
      <trkpt lat="44.15424" lon="6.11152">
        <ele>1093</ele>
        <time>2022-03-03T14:19:47.617Z</time>
      </trkpt>
      <trkpt lat="44.15423" lon="6.11152">
        <ele>1093</ele>
        <time>2022-03-03T14:19:48.617Z</time>
      </trkpt>
      <trkpt lat="44.15422" lon="6.11153">
        <ele>1093</ele>
        <time>2022-03-03T14:19:49.617Z</time>
      </trkpt>
      <trkpt lat="44.15421" lon="6.11154">
        <ele>1093</ele>
        <time>2022-03-03T14:19:50.617Z</time>
      </trkpt>
      <trkpt lat="44.1542" lon="6.11155">
        <ele>1092</ele>
        <time>2022-03-03T14:19:51.617Z</time>
      </trkpt>
      <trkpt lat="44.1542" lon="6.11155">
        <ele>1092</ele>
        <time>2022-03-03T14:19:52.617Z</time>
      </trkpt>
      <trkpt lat="44.15419" lon="6.11156">
        <ele>1092</ele>
        <time>2022-03-03T14:19:53.617Z</time>
      </trkpt>
      <trkpt lat="44.15418" lon="6.11157">
        <ele>1092</ele>
        <time>2022-03-03T14:19:54.617Z</time>
      </trkpt>
      <trkpt lat="44.15417" lon="6.11157">
        <ele>1091</ele>
        <time>2022-03-03T14:19:55.617Z</time>
      </trkpt>
      <trkpt lat="44.15416" lon="6.11158">
        <ele>1091</ele>
        <time>2022-03-03T14:19:56.617Z</time>
      </trkpt>
      <trkpt lat="44.15415" lon="6.11159">
        <ele>1091</ele>
        <time>2022-03-03T14:19:57.617Z</time>
      </trkpt>
      <trkpt lat="44.15414" lon="6.11159">
        <ele>1091</ele>
        <time>2022-03-03T14:19:58.617Z</time>
      </trkpt>
      <trkpt lat="44.15413" lon="6.1116">
        <ele>1090</ele>
        <time>2022-03-03T14:19:59.617Z</time>
      </trkpt>
      <trkpt lat="44.15412" lon="6.1116">
        <ele>1090</ele>
        <time>2022-03-03T14:20:00.617Z</time>
      </trkpt>
      <trkpt lat="44.15411" lon="6.11161">
        <ele>1090</ele>
        <time>2022-03-03T14:20:01.617Z</time>
      </trkpt>
      <trkpt lat="44.1541" lon="6.11162">
        <ele>1090</ele>
        <time>2022-03-03T14:20:02.617Z</time>
      </trkpt>
      <trkpt lat="44.15409" lon="6.11163">
        <ele>1090</ele>
        <time>2022-03-03T14:20:03.617Z</time>
      </trkpt>
      <trkpt lat="44.15408" lon="6.11163">
        <ele>1089</ele>
        <time>2022-03-03T14:20:04.617Z</time>
      </trkpt>
      <trkpt lat="44.15407" lon="6.11164">
        <ele>1089</ele>
        <time>2022-03-03T14:20:05.617Z</time>
      </trkpt>
      <trkpt lat="44.15406" lon="6.11164">
        <ele>1089</ele>
        <time>2022-03-03T14:20:06.617Z</time>
      </trkpt>
      <trkpt lat="44.15405" lon="6.11165">
        <ele>1088</ele>
        <time>2022-03-03T14:20:07.617Z</time>
      </trkpt>
      <trkpt lat="44.15404" lon="6.11166">
        <ele>1088</ele>
        <time>2022-03-03T14:20:08.617Z</time>
      </trkpt>
      <trkpt lat="44.15403" lon="6.11166">
        <ele>1088</ele>
        <time>2022-03-03T14:20:09.617Z</time>
      </trkpt>
      <trkpt lat="44.15402" lon="6.11167">
        <ele>1088</ele>
        <time>2022-03-03T14:20:10.617Z</time>
      </trkpt>
      <trkpt lat="44.15401" lon="6.11167">
        <ele>1088</ele>
        <time>2022-03-03T14:20:11.617Z</time>
      </trkpt>
      <trkpt lat="44.154" lon="6.11168">
        <ele>1087</ele>
        <time>2022-03-03T14:20:12.617Z</time>
      </trkpt>
      <trkpt lat="44.15399" lon="6.11169">
        <ele>1087</ele>
        <time>2022-03-03T14:20:13.617Z</time>
      </trkpt>
      <trkpt lat="44.15398" lon="6.11169">
        <ele>1087</ele>
        <time>2022-03-03T14:20:14.617Z</time>
      </trkpt>
      <trkpt lat="44.15397" lon="6.1117">
        <ele>1087</ele>
        <time>2022-03-03T14:20:15.617Z</time>
      </trkpt>
      <trkpt lat="44.15396" lon="6.1117">
        <ele>1086</ele>
        <time>2022-03-03T14:20:16.617Z</time>
      </trkpt>
      <trkpt lat="44.15395" lon="6.11171">
        <ele>1086</ele>
        <time>2022-03-03T14:20:17.617Z</time>
      </trkpt>
      <trkpt lat="44.15394" lon="6.11172">
        <ele>1086</ele>
        <time>2022-03-03T14:20:18.617Z</time>
      </trkpt>
      <trkpt lat="44.15393" lon="6.11172">
        <ele>1086</ele>
        <time>2022-03-03T14:20:19.617Z</time>
      </trkpt>
      <trkpt lat="44.15392" lon="6.11173">
        <ele>1086</ele>
        <time>2022-03-03T14:20:20.617Z</time>
      </trkpt>
      <trkpt lat="44.15391" lon="6.11173">
        <ele>1085</ele>
        <time>2022-03-03T14:20:21.617Z</time>
      </trkpt>
      <trkpt lat="44.1539" lon="6.11174">
        <ele>1085</ele>
        <time>2022-03-03T14:20:22.617Z</time>
      </trkpt>
      <trkpt lat="44.15389" lon="6.11174">
        <ele>1085</ele>
        <time>2022-03-03T14:20:23.617Z</time>
      </trkpt>
      <trkpt lat="44.15388" lon="6.11175">
        <ele>1085</ele>
        <time>2022-03-03T14:20:24.617Z</time>
      </trkpt>
      <trkpt lat="44.15387" lon="6.11175">
        <ele>1085</ele>
        <time>2022-03-03T14:20:25.617Z</time>
      </trkpt>
      <trkpt lat="44.15386" lon="6.11176">
        <ele>1084</ele>
        <time>2022-03-03T14:20:26.617Z</time>
      </trkpt>
      <trkpt lat="44.15385" lon="6.11177">
        <ele>1084</ele>
        <time>2022-03-03T14:20:27.617Z</time>
      </trkpt>
      <trkpt lat="44.15385" lon="6.11178">
        <ele>1084</ele>
        <time>2022-03-03T14:20:28.617Z</time>
      </trkpt>
      <trkpt lat="44.15383" lon="6.11178">
        <ele>1084</ele>
        <time>2022-03-03T14:20:29.617Z</time>
      </trkpt>
      <trkpt lat="44.15383" lon="6.11179">
        <ele>1084</ele>
        <time>2022-03-03T14:20:30.617Z</time>
      </trkpt>
      <trkpt lat="44.15382" lon="6.1118">
        <ele>1084</ele>
        <time>2022-03-03T14:20:31.617Z</time>
      </trkpt>
      <trkpt lat="44.15381" lon="6.1118">
        <ele>1083</ele>
        <time>2022-03-03T14:20:32.617Z</time>
      </trkpt>
      <trkpt lat="44.1538" lon="6.11181">
        <ele>1083</ele>
        <time>2022-03-03T14:20:33.617Z</time>
      </trkpt>
      <trkpt lat="44.15379" lon="6.11181">
        <ele>1083</ele>
        <time>2022-03-03T14:20:34.617Z</time>
      </trkpt>
      <trkpt lat="44.15377" lon="6.11182">
        <ele>1083</ele>
        <time>2022-03-03T14:20:35.617Z</time>
      </trkpt>
      <trkpt lat="44.15376" lon="6.11183">
        <ele>1082</ele>
        <time>2022-03-03T14:20:36.617Z</time>
      </trkpt>
      <trkpt lat="44.15375" lon="6.11183">
        <ele>1082</ele>
        <time>2022-03-03T14:20:37.617Z</time>
      </trkpt>
      <trkpt lat="44.15374" lon="6.11184">
        <ele>1082</ele>
        <time>2022-03-03T14:20:38.617Z</time>
      </trkpt>
      <trkpt lat="44.15373" lon="6.11184">
        <ele>1082</ele>
        <time>2022-03-03T14:20:39.617Z</time>
      </trkpt>
      <trkpt lat="44.15372" lon="6.11185">
        <ele>1082</ele>
        <time>2022-03-03T14:20:40.617Z</time>
      </trkpt>
      <trkpt lat="44.15371" lon="6.11186">
        <ele>1081</ele>
        <time>2022-03-03T14:20:41.617Z</time>
      </trkpt>
      <trkpt lat="44.1537" lon="6.11186">
        <ele>1081</ele>
        <time>2022-03-03T14:20:42.617Z</time>
      </trkpt>
      <trkpt lat="44.15369" lon="6.11187">
        <ele>1081</ele>
        <time>2022-03-03T14:20:43.617Z</time>
      </trkpt>
      <trkpt lat="44.15368" lon="6.11187">
        <ele>1081</ele>
        <time>2022-03-03T14:20:44.617Z</time>
      </trkpt>
      <trkpt lat="44.15367" lon="6.11188">
        <ele>1081</ele>
        <time>2022-03-03T14:20:45.617Z</time>
      </trkpt>
      <trkpt lat="44.15366" lon="6.11189">
        <ele>1080</ele>
        <time>2022-03-03T14:20:46.617Z</time>
      </trkpt>
      <trkpt lat="44.15365" lon="6.11189">
        <ele>1080</ele>
        <time>2022-03-03T14:20:47.617Z</time>
      </trkpt>
      <trkpt lat="44.15364" lon="6.1119">
        <ele>1080</ele>
        <time>2022-03-03T14:20:48.617Z</time>
      </trkpt>
      <trkpt lat="44.15363" lon="6.1119">
        <ele>1080</ele>
        <time>2022-03-03T14:20:49.617Z</time>
      </trkpt>
      <trkpt lat="44.15362" lon="6.11191">
        <ele>1080</ele>
        <time>2022-03-03T14:20:50.617Z</time>
      </trkpt>
      <trkpt lat="44.15361" lon="6.11191">
        <ele>1080</ele>
        <time>2022-03-03T14:20:51.617Z</time>
      </trkpt>
      <trkpt lat="44.1536" lon="6.11191">
        <ele>1079</ele>
        <time>2022-03-03T14:20:52.617Z</time>
      </trkpt>
      <trkpt lat="44.15359" lon="6.11191">
        <ele>1079</ele>
        <time>2022-03-03T14:20:53.617Z</time>
      </trkpt>
      <trkpt lat="44.15358" lon="6.11192">
        <ele>1079</ele>
        <time>2022-03-03T14:20:54.617Z</time>
      </trkpt>
      <trkpt lat="44.15357" lon="6.11192">
        <ele>1079</ele>
        <time>2022-03-03T14:20:55.617Z</time>
      </trkpt>
      <trkpt lat="44.15356" lon="6.11193">
        <ele>1079</ele>
        <time>2022-03-03T14:20:56.617Z</time>
      </trkpt>
      <trkpt lat="44.15355" lon="6.11193">
        <ele>1078</ele>
        <time>2022-03-03T14:20:57.617Z</time>
      </trkpt>
      <trkpt lat="44.15354" lon="6.11194">
        <ele>1078</ele>
        <time>2022-03-03T14:20:58.617Z</time>
      </trkpt>
      <trkpt lat="44.15353" lon="6.11194">
        <ele>1078</ele>
        <time>2022-03-03T14:20:59.617Z</time>
      </trkpt>
      <trkpt lat="44.15352" lon="6.11195">
        <ele>1078</ele>
        <time>2022-03-03T14:21:00.617Z</time>
      </trkpt>
      <trkpt lat="44.15351" lon="6.11195">
        <ele>1077</ele>
        <time>2022-03-03T14:21:01.617Z</time>
      </trkpt>
      <trkpt lat="44.1535" lon="6.11196">
        <ele>1077</ele>
        <time>2022-03-03T14:21:02.617Z</time>
      </trkpt>
      <trkpt lat="44.15349" lon="6.11196">
        <ele>1077</ele>
        <time>2022-03-03T14:21:03.617Z</time>
      </trkpt>
      <trkpt lat="44.15348" lon="6.11197">
        <ele>1077</ele>
        <time>2022-03-03T14:21:04.617Z</time>
      </trkpt>
      <trkpt lat="44.15347" lon="6.11197">
        <ele>1077</ele>
        <time>2022-03-03T14:21:05.617Z</time>
      </trkpt>
      <trkpt lat="44.15346" lon="6.11197">
        <ele>1076</ele>
        <time>2022-03-03T14:21:06.617Z</time>
      </trkpt>
      <trkpt lat="44.15345" lon="6.11198">
        <ele>1076</ele>
        <time>2022-03-03T14:21:07.617Z</time>
      </trkpt>
      <trkpt lat="44.15344" lon="6.11199">
        <ele>1076</ele>
        <time>2022-03-03T14:21:08.617Z</time>
      </trkpt>
      <trkpt lat="44.15343" lon="6.112">
        <ele>1076</ele>
        <time>2022-03-03T14:21:09.617Z</time>
      </trkpt>
      <trkpt lat="44.15342" lon="6.112">
        <ele>1076</ele>
        <time>2022-03-03T14:21:10.617Z</time>
      </trkpt>
      <trkpt lat="44.15341" lon="6.112">
        <ele>1075</ele>
        <time>2022-03-03T14:21:11.617Z</time>
      </trkpt>
      <trkpt lat="44.1534" lon="6.11201">
        <ele>1075</ele>
        <time>2022-03-03T14:21:12.617Z</time>
      </trkpt>
      <trkpt lat="44.15339" lon="6.11201">
        <ele>1075</ele>
        <time>2022-03-03T14:21:13.617Z</time>
      </trkpt>
      <trkpt lat="44.15338" lon="6.11202">
        <ele>1075</ele>
        <time>2022-03-03T14:21:14.617Z</time>
      </trkpt>
      <trkpt lat="44.15337" lon="6.11202">
        <ele>1075</ele>
        <time>2022-03-03T14:21:15.617Z</time>
      </trkpt>
      <trkpt lat="44.15336" lon="6.11202">
        <ele>1074</ele>
        <time>2022-03-03T14:21:16.617Z</time>
      </trkpt>
      <trkpt lat="44.15335" lon="6.11203">
        <ele>1074</ele>
        <time>2022-03-03T14:21:17.617Z</time>
      </trkpt>
      <trkpt lat="44.15334" lon="6.11203">
        <ele>1074</ele>
        <time>2022-03-03T14:21:18.617Z</time>
      </trkpt>
      <trkpt lat="44.15333" lon="6.11203">
        <ele>1074</ele>
        <time>2022-03-03T14:21:19.617Z</time>
      </trkpt>
      <trkpt lat="44.15332" lon="6.11204">
        <ele>1073</ele>
        <time>2022-03-03T14:21:20.617Z</time>
      </trkpt>
      <trkpt lat="44.15331" lon="6.11204">
        <ele>1073</ele>
        <time>2022-03-03T14:21:21.617Z</time>
      </trkpt>
      <trkpt lat="44.1533" lon="6.11204">
        <ele>1073</ele>
        <time>2022-03-03T14:21:22.617Z</time>
      </trkpt>
      <trkpt lat="44.15329" lon="6.11205">
        <ele>1073</ele>
        <time>2022-03-03T14:21:23.617Z</time>
      </trkpt>
      <trkpt lat="44.15328" lon="6.11206">
        <ele>1073</ele>
        <time>2022-03-03T14:21:24.617Z</time>
      </trkpt>
      <trkpt lat="44.15327" lon="6.11206">
        <ele>1072</ele>
        <time>2022-03-03T14:21:25.617Z</time>
      </trkpt>
      <trkpt lat="44.15326" lon="6.11206">
        <ele>1072</ele>
        <time>2022-03-03T14:21:26.617Z</time>
      </trkpt>
      <trkpt lat="44.15325" lon="6.11206">
        <ele>1072</ele>
        <time>2022-03-03T14:21:27.617Z</time>
      </trkpt>
      <trkpt lat="44.15324" lon="6.11206">
        <ele>1072</ele>
        <time>2022-03-03T14:21:28.617Z</time>
      </trkpt>
      <trkpt lat="44.15323" lon="6.11206">
        <ele>1072</ele>
        <time>2022-03-03T14:21:29.617Z</time>
      </trkpt>
      <trkpt lat="44.15322" lon="6.11207">
        <ele>1071</ele>
        <time>2022-03-03T14:21:30.617Z</time>
      </trkpt>
      <trkpt lat="44.1532" lon="6.11207">
        <ele>1071</ele>
        <time>2022-03-03T14:21:31.617Z</time>
      </trkpt>
      <trkpt lat="44.15319" lon="6.11208">
        <ele>1071</ele>
        <time>2022-03-03T14:21:32.617Z</time>
      </trkpt>
      <trkpt lat="44.15319" lon="6.11209">
        <ele>1071</ele>
        <time>2022-03-03T14:21:33.617Z</time>
      </trkpt>
      <trkpt lat="44.15317" lon="6.11209">
        <ele>1071</ele>
        <time>2022-03-03T14:21:34.617Z</time>
      </trkpt>
      <trkpt lat="44.15317" lon="6.1121">
        <ele>1070</ele>
        <time>2022-03-03T14:21:35.617Z</time>
      </trkpt>
      <trkpt lat="44.15315" lon="6.11211">
        <ele>1070</ele>
        <time>2022-03-03T14:21:36.617Z</time>
      </trkpt>
      <trkpt lat="44.15314" lon="6.11211">
        <ele>1070</ele>
        <time>2022-03-03T14:21:37.617Z</time>
      </trkpt>
      <trkpt lat="44.15313" lon="6.11212">
        <ele>1070</ele>
        <time>2022-03-03T14:21:38.617Z</time>
      </trkpt>
      <trkpt lat="44.15312" lon="6.11212">
        <ele>1070</ele>
        <time>2022-03-03T14:21:39.617Z</time>
      </trkpt>
      <trkpt lat="44.15311" lon="6.11213">
        <ele>1069</ele>
        <time>2022-03-03T14:21:40.617Z</time>
      </trkpt>
      <trkpt lat="44.1531" lon="6.11214">
        <ele>1069</ele>
        <time>2022-03-03T14:21:41.617Z</time>
      </trkpt>
      <trkpt lat="44.1531" lon="6.11215">
        <ele>1069</ele>
        <time>2022-03-03T14:21:42.617Z</time>
      </trkpt>
      <trkpt lat="44.15309" lon="6.11216">
        <ele>1069</ele>
        <time>2022-03-03T14:21:43.617Z</time>
      </trkpt>
      <trkpt lat="44.15308" lon="6.11217">
        <ele>1068</ele>
        <time>2022-03-03T14:21:44.617Z</time>
      </trkpt>
      <trkpt lat="44.15308" lon="6.11218">
        <ele>1068</ele>
        <time>2022-03-03T14:21:45.617Z</time>
      </trkpt>
      <trkpt lat="44.15307" lon="6.1122">
        <ele>1068</ele>
        <time>2022-03-03T14:21:46.617Z</time>
      </trkpt>
      <trkpt lat="44.15306" lon="6.11221">
        <ele>1068</ele>
        <time>2022-03-03T14:21:47.617Z</time>
      </trkpt>
      <trkpt lat="44.15305" lon="6.11222">
        <ele>1067</ele>
        <time>2022-03-03T14:21:48.617Z</time>
      </trkpt>
      <trkpt lat="44.15304" lon="6.11223">
        <ele>1067</ele>
        <time>2022-03-03T14:21:49.617Z</time>
      </trkpt>
      <trkpt lat="44.15303" lon="6.11224">
        <ele>1067</ele>
        <time>2022-03-03T14:21:50.617Z</time>
      </trkpt>
      <trkpt lat="44.15303" lon="6.11225">
        <ele>1067</ele>
        <time>2022-03-03T14:21:51.617Z</time>
      </trkpt>
      <trkpt lat="44.15302" lon="6.11226">
        <ele>1067</ele>
        <time>2022-03-03T14:21:52.617Z</time>
      </trkpt>
      <trkpt lat="44.15301" lon="6.11227">
        <ele>1066</ele>
        <time>2022-03-03T14:21:53.617Z</time>
      </trkpt>
      <trkpt lat="44.153" lon="6.11228">
        <ele>1066</ele>
        <time>2022-03-03T14:21:54.617Z</time>
      </trkpt>
      <trkpt lat="44.15299" lon="6.11229">
        <ele>1066</ele>
        <time>2022-03-03T14:21:55.617Z</time>
      </trkpt>
      <trkpt lat="44.15298" lon="6.1123">
        <ele>1065</ele>
        <time>2022-03-03T14:21:56.617Z</time>
      </trkpt>
      <trkpt lat="44.15297" lon="6.11231">
        <ele>1065</ele>
        <time>2022-03-03T14:21:57.617Z</time>
      </trkpt>
      <trkpt lat="44.15296" lon="6.11232">
        <ele>1065</ele>
        <time>2022-03-03T14:21:58.617Z</time>
      </trkpt>
      <trkpt lat="44.15295" lon="6.11233">
        <ele>1065</ele>
        <time>2022-03-03T14:21:59.617Z</time>
      </trkpt>
      <trkpt lat="44.15295" lon="6.11234">
        <ele>1064</ele>
        <time>2022-03-03T14:22:00.617Z</time>
      </trkpt>
      <trkpt lat="44.15294" lon="6.11235">
        <ele>1064</ele>
        <time>2022-03-03T14:22:01.617Z</time>
      </trkpt>
      <trkpt lat="44.15294" lon="6.11237">
        <ele>1064</ele>
        <time>2022-03-03T14:22:02.617Z</time>
      </trkpt>
      <trkpt lat="44.15293" lon="6.11238">
        <ele>1064</ele>
        <time>2022-03-03T14:22:03.617Z</time>
      </trkpt>
      <trkpt lat="44.15292" lon="6.11239">
        <ele>1064</ele>
        <time>2022-03-03T14:22:04.617Z</time>
      </trkpt>
      <trkpt lat="44.15292" lon="6.1124">
        <ele>1063</ele>
        <time>2022-03-03T14:22:05.617Z</time>
      </trkpt>
      <trkpt lat="44.15291" lon="6.11241">
        <ele>1063</ele>
        <time>2022-03-03T14:22:06.617Z</time>
      </trkpt>
      <trkpt lat="44.1529" lon="6.11243">
        <ele>1063</ele>
        <time>2022-03-03T14:22:07.617Z</time>
      </trkpt>
      <trkpt lat="44.1529" lon="6.11244">
        <ele>1063</ele>
        <time>2022-03-03T14:22:08.617Z</time>
      </trkpt>
      <trkpt lat="44.15289" lon="6.11245">
        <ele>1062</ele>
        <time>2022-03-03T14:22:09.617Z</time>
      </trkpt>
      <trkpt lat="44.15288" lon="6.11246">
        <ele>1062</ele>
        <time>2022-03-03T14:22:10.617Z</time>
      </trkpt>
      <trkpt lat="44.15287" lon="6.11247">
        <ele>1062</ele>
        <time>2022-03-03T14:22:11.617Z</time>
      </trkpt>
      <trkpt lat="44.15287" lon="6.11249">
        <ele>1062</ele>
        <time>2022-03-03T14:22:12.617Z</time>
      </trkpt>
      <trkpt lat="44.15286" lon="6.1125">
        <ele>1062</ele>
        <time>2022-03-03T14:22:13.617Z</time>
      </trkpt>
      <trkpt lat="44.15285" lon="6.11251">
        <ele>1062</ele>
        <time>2022-03-03T14:22:14.617Z</time>
      </trkpt>
      <trkpt lat="44.15285" lon="6.11253">
        <ele>1061</ele>
        <time>2022-03-03T14:22:15.617Z</time>
      </trkpt>
      <trkpt lat="44.15284" lon="6.11254">
        <ele>1061</ele>
        <time>2022-03-03T14:22:16.617Z</time>
      </trkpt>
      <trkpt lat="44.15283" lon="6.11255">
        <ele>1061</ele>
        <time>2022-03-03T14:22:17.617Z</time>
      </trkpt>
      <trkpt lat="44.15282" lon="6.11256">
        <ele>1061</ele>
        <time>2022-03-03T14:22:18.617Z</time>
      </trkpt>
      <trkpt lat="44.15281" lon="6.11256">
        <ele>1060</ele>
        <time>2022-03-03T14:22:19.617Z</time>
      </trkpt>
      <trkpt lat="44.1528" lon="6.11257">
        <ele>1060</ele>
        <time>2022-03-03T14:22:20.617Z</time>
      </trkpt>
      <trkpt lat="44.15279" lon="6.11258">
        <ele>1060</ele>
        <time>2022-03-03T14:22:21.617Z</time>
      </trkpt>
      <trkpt lat="44.15278" lon="6.11259">
        <ele>1060</ele>
        <time>2022-03-03T14:22:22.617Z</time>
      </trkpt>
      <trkpt lat="44.15277" lon="6.11259">
        <ele>1060</ele>
        <time>2022-03-03T14:22:23.617Z</time>
      </trkpt>
      <trkpt lat="44.15276" lon="6.1126">
        <ele>1060</ele>
        <time>2022-03-03T14:22:24.617Z</time>
      </trkpt>
      <trkpt lat="44.15275" lon="6.11261">
        <ele>1059</ele>
        <time>2022-03-03T14:22:25.617Z</time>
      </trkpt>
      <trkpt lat="44.15274" lon="6.11261">
        <ele>1059</ele>
        <time>2022-03-03T14:22:26.617Z</time>
      </trkpt>
      <trkpt lat="44.15273" lon="6.11262">
        <ele>1059</ele>
        <time>2022-03-03T14:22:27.617Z</time>
      </trkpt>
      <trkpt lat="44.15272" lon="6.11263">
        <ele>1059</ele>
        <time>2022-03-03T14:22:28.617Z</time>
      </trkpt>
      <trkpt lat="44.15271" lon="6.11264">
        <ele>1059</ele>
        <time>2022-03-03T14:22:29.617Z</time>
      </trkpt>
      <trkpt lat="44.15269" lon="6.11265">
        <ele>1058</ele>
        <time>2022-03-03T14:22:30.617Z</time>
      </trkpt>
      <trkpt lat="44.15269" lon="6.11265">
        <ele>1058</ele>
        <time>2022-03-03T14:22:31.617Z</time>
      </trkpt>
      <trkpt lat="44.15267" lon="6.11266">
        <ele>1058</ele>
        <time>2022-03-03T14:22:32.617Z</time>
      </trkpt>
      <trkpt lat="44.15266" lon="6.11267">
        <ele>1058</ele>
        <time>2022-03-03T14:22:33.617Z</time>
      </trkpt>
      <trkpt lat="44.15266" lon="6.11267">
        <ele>1058</ele>
        <time>2022-03-03T14:22:34.617Z</time>
      </trkpt>
      <trkpt lat="44.15265" lon="6.11268">
        <ele>1058</ele>
        <time>2022-03-03T14:22:35.617Z</time>
      </trkpt>
      <trkpt lat="44.15263" lon="6.11269">
        <ele>1057</ele>
        <time>2022-03-03T14:22:36.617Z</time>
      </trkpt>
      <trkpt lat="44.15263" lon="6.1127">
        <ele>1057</ele>
        <time>2022-03-03T14:22:37.617Z</time>
      </trkpt>
      <trkpt lat="44.15262" lon="6.1127">
        <ele>1057</ele>
        <time>2022-03-03T14:22:38.617Z</time>
      </trkpt>
      <trkpt lat="44.1526" lon="6.11271">
        <ele>1057</ele>
        <time>2022-03-03T14:22:39.617Z</time>
      </trkpt>
      <trkpt lat="44.15259" lon="6.11272">
        <ele>1057</ele>
        <time>2022-03-03T14:22:40.617Z</time>
      </trkpt>
      <trkpt lat="44.15258" lon="6.11273">
        <ele>1057</ele>
        <time>2022-03-03T14:22:41.617Z</time>
      </trkpt>
      <trkpt lat="44.15257" lon="6.11273">
        <ele>1056</ele>
        <time>2022-03-03T14:22:42.617Z</time>
      </trkpt>
      <trkpt lat="44.15256" lon="6.11274">
        <ele>1056</ele>
        <time>2022-03-03T14:22:43.617Z</time>
      </trkpt>
      <trkpt lat="44.15255" lon="6.11275">
        <ele>1056</ele>
        <time>2022-03-03T14:22:44.617Z</time>
      </trkpt>
      <trkpt lat="44.15254" lon="6.11276">
        <ele>1056</ele>
        <time>2022-03-03T14:22:45.617Z</time>
      </trkpt>
      <trkpt lat="44.15253" lon="6.11277">
        <ele>1056</ele>
        <time>2022-03-03T14:22:46.617Z</time>
      </trkpt>
      <trkpt lat="44.15252" lon="6.11277">
        <ele>1056</ele>
        <time>2022-03-03T14:22:47.617Z</time>
      </trkpt>
      <trkpt lat="44.15251" lon="6.11278">
        <ele>1055</ele>
        <time>2022-03-03T14:22:48.617Z</time>
      </trkpt>
      <trkpt lat="44.1525" lon="6.11279">
        <ele>1055</ele>
        <time>2022-03-03T14:22:49.617Z</time>
      </trkpt>
      <trkpt lat="44.15249" lon="6.1128">
        <ele>1055</ele>
        <time>2022-03-03T14:22:50.617Z</time>
      </trkpt>
      <trkpt lat="44.15247" lon="6.11281">
        <ele>1055</ele>
        <time>2022-03-03T14:22:51.617Z</time>
      </trkpt>
      <trkpt lat="44.15247" lon="6.11281">
        <ele>1055</ele>
        <time>2022-03-03T14:22:52.617Z</time>
      </trkpt>
      <trkpt lat="44.15245" lon="6.11282">
        <ele>1055</ele>
        <time>2022-03-03T14:22:53.617Z</time>
      </trkpt>
      <trkpt lat="44.15244" lon="6.11283">
        <ele>1055</ele>
        <time>2022-03-03T14:22:54.617Z</time>
      </trkpt>
      <trkpt lat="44.15243" lon="6.11284">
        <ele>1054</ele>
        <time>2022-03-03T14:22:55.617Z</time>
      </trkpt>
      <trkpt lat="44.15242" lon="6.11284">
        <ele>1054</ele>
        <time>2022-03-03T14:22:56.617Z</time>
      </trkpt>
      <trkpt lat="44.15241" lon="6.11285">
        <ele>1054</ele>
        <time>2022-03-03T14:22:57.617Z</time>
      </trkpt>
      <trkpt lat="44.1524" lon="6.11286">
        <ele>1054</ele>
        <time>2022-03-03T14:22:58.617Z</time>
      </trkpt>
      <trkpt lat="44.15239" lon="6.11287">
        <ele>1054</ele>
        <time>2022-03-03T14:22:59.617Z</time>
      </trkpt>
      <trkpt lat="44.15238" lon="6.11288">
        <ele>1054</ele>
        <time>2022-03-03T14:23:00.617Z</time>
      </trkpt>
      <trkpt lat="44.15237" lon="6.11288">
        <ele>1053</ele>
        <time>2022-03-03T14:23:01.617Z</time>
      </trkpt>
      <trkpt lat="44.15236" lon="6.11289">
        <ele>1053</ele>
        <time>2022-03-03T14:23:02.617Z</time>
      </trkpt>
      <trkpt lat="44.15235" lon="6.1129">
        <ele>1053</ele>
        <time>2022-03-03T14:23:03.617Z</time>
      </trkpt>
      <trkpt lat="44.15235" lon="6.11291">
        <ele>1053</ele>
        <time>2022-03-03T14:23:04.617Z</time>
      </trkpt>
      <trkpt lat="44.15234" lon="6.11292">
        <ele>1052</ele>
        <time>2022-03-03T14:23:05.617Z</time>
      </trkpt>
      <trkpt lat="44.15233" lon="6.11293">
        <ele>1052</ele>
        <time>2022-03-03T14:23:06.617Z</time>
      </trkpt>
      <trkpt lat="44.15232" lon="6.11294">
        <ele>1052</ele>
        <time>2022-03-03T14:23:07.617Z</time>
      </trkpt>
      <trkpt lat="44.15231" lon="6.11295">
        <ele>1051</ele>
        <time>2022-03-03T14:23:08.617Z</time>
      </trkpt>
      <trkpt lat="44.1523" lon="6.11296">
        <ele>1051</ele>
        <time>2022-03-03T14:23:09.617Z</time>
      </trkpt>
      <trkpt lat="44.15229" lon="6.11297">
        <ele>1051</ele>
        <time>2022-03-03T14:23:10.617Z</time>
      </trkpt>
      <trkpt lat="44.15228" lon="6.11298">
        <ele>1051</ele>
        <time>2022-03-03T14:23:11.617Z</time>
      </trkpt>
      <trkpt lat="44.15227" lon="6.11299">
        <ele>1051</ele>
        <time>2022-03-03T14:23:12.617Z</time>
      </trkpt>
      <trkpt lat="44.15226" lon="6.113">
        <ele>1050</ele>
        <time>2022-03-03T14:23:13.617Z</time>
      </trkpt>
      <trkpt lat="44.15225" lon="6.11301">
        <ele>1050</ele>
        <time>2022-03-03T14:23:14.617Z</time>
      </trkpt>
      <trkpt lat="44.15224" lon="6.11302">
        <ele>1050</ele>
        <time>2022-03-03T14:23:15.617Z</time>
      </trkpt>
      <trkpt lat="44.15223" lon="6.11303">
        <ele>1050</ele>
        <time>2022-03-03T14:23:16.617Z</time>
      </trkpt>
      <trkpt lat="44.15222" lon="6.11304">
        <ele>1050</ele>
        <time>2022-03-03T14:23:17.617Z</time>
      </trkpt>
      <trkpt lat="44.15222" lon="6.11305">
        <ele>1050</ele>
        <time>2022-03-03T14:23:18.617Z</time>
      </trkpt>
      <trkpt lat="44.15221" lon="6.11306">
        <ele>1049</ele>
        <time>2022-03-03T14:23:19.617Z</time>
      </trkpt>
      <trkpt lat="44.1522" lon="6.11307">
        <ele>1049</ele>
        <time>2022-03-03T14:23:20.617Z</time>
      </trkpt>
      <trkpt lat="44.15219" lon="6.11309">
        <ele>1049</ele>
        <time>2022-03-03T14:23:21.617Z</time>
      </trkpt>
      <trkpt lat="44.15218" lon="6.1131">
        <ele>1049</ele>
        <time>2022-03-03T14:23:22.617Z</time>
      </trkpt>
      <trkpt lat="44.15218" lon="6.11311">
        <ele>1049</ele>
        <time>2022-03-03T14:23:23.617Z</time>
      </trkpt>
      <trkpt lat="44.15217" lon="6.11312">
        <ele>1049</ele>
        <time>2022-03-03T14:23:24.617Z</time>
      </trkpt>
      <trkpt lat="44.15216" lon="6.11313">
        <ele>1048</ele>
        <time>2022-03-03T14:23:25.617Z</time>
      </trkpt>
      <trkpt lat="44.15215" lon="6.11314">
        <ele>1048</ele>
        <time>2022-03-03T14:23:26.617Z</time>
      </trkpt>
      <trkpt lat="44.15215" lon="6.11315">
        <ele>1048</ele>
        <time>2022-03-03T14:23:27.617Z</time>
      </trkpt>
      <trkpt lat="44.15214" lon="6.11316">
        <ele>1048</ele>
        <time>2022-03-03T14:23:28.617Z</time>
      </trkpt>
      <trkpt lat="44.15213" lon="6.11317">
        <ele>1048</ele>
        <time>2022-03-03T14:23:29.617Z</time>
      </trkpt>
      <trkpt lat="44.15213" lon="6.11318">
        <ele>1048</ele>
        <time>2022-03-03T14:23:30.617Z</time>
      </trkpt>
      <trkpt lat="44.15212" lon="6.11319">
        <ele>1047</ele>
        <time>2022-03-03T14:23:31.617Z</time>
      </trkpt>
      <trkpt lat="44.15211" lon="6.1132">
        <ele>1047</ele>
        <time>2022-03-03T14:23:32.617Z</time>
      </trkpt>
      <trkpt lat="44.15211" lon="6.11321">
        <ele>1047</ele>
        <time>2022-03-03T14:23:33.617Z</time>
      </trkpt>
      <trkpt lat="44.1521" lon="6.11323">
        <ele>1047</ele>
        <time>2022-03-03T14:23:34.617Z</time>
      </trkpt>
      <trkpt lat="44.15209" lon="6.11324">
        <ele>1047</ele>
        <time>2022-03-03T14:23:35.617Z</time>
      </trkpt>
      <trkpt lat="44.15209" lon="6.11325">
        <ele>1047</ele>
        <time>2022-03-03T14:23:36.617Z</time>
      </trkpt>
      <trkpt lat="44.15208" lon="6.11327">
        <ele>1046</ele>
        <time>2022-03-03T14:23:37.617Z</time>
      </trkpt>
      <trkpt lat="44.15208" lon="6.11328">
        <ele>1046</ele>
        <time>2022-03-03T14:23:38.617Z</time>
      </trkpt>
      <trkpt lat="44.15207" lon="6.11329">
        <ele>1046</ele>
        <time>2022-03-03T14:23:39.617Z</time>
      </trkpt>
      <trkpt lat="44.15206" lon="6.1133">
        <ele>1046</ele>
        <time>2022-03-03T14:23:40.617Z</time>
      </trkpt>
      <trkpt lat="44.15205" lon="6.11331">
        <ele>1045</ele>
        <time>2022-03-03T14:23:41.617Z</time>
      </trkpt>
      <trkpt lat="44.15204" lon="6.11332">
        <ele>1045</ele>
        <time>2022-03-03T14:23:42.617Z</time>
      </trkpt>
      <trkpt lat="44.15203" lon="6.11333">
        <ele>1045</ele>
        <time>2022-03-03T14:23:43.617Z</time>
      </trkpt>
      <trkpt lat="44.15202" lon="6.11335">
        <ele>1045</ele>
        <time>2022-03-03T14:23:44.617Z</time>
      </trkpt>
      <trkpt lat="44.15201" lon="6.11336">
        <ele>1045</ele>
        <time>2022-03-03T14:23:45.617Z</time>
      </trkpt>
      <trkpt lat="44.152" lon="6.11336">
        <ele>1044</ele>
        <time>2022-03-03T14:23:46.617Z</time>
      </trkpt>
      <trkpt lat="44.15199" lon="6.11337">
        <ele>1044</ele>
        <time>2022-03-03T14:23:47.617Z</time>
      </trkpt>
      <trkpt lat="44.15198" lon="6.11338">
        <ele>1044</ele>
        <time>2022-03-03T14:23:48.617Z</time>
      </trkpt>
      <trkpt lat="44.15197" lon="6.11339">
        <ele>1044</ele>
        <time>2022-03-03T14:23:49.617Z</time>
      </trkpt>
      <trkpt lat="44.15197" lon="6.1134">
        <ele>1044</ele>
        <time>2022-03-03T14:23:50.617Z</time>
      </trkpt>
      <trkpt lat="44.15196" lon="6.11341">
        <ele>1044</ele>
        <time>2022-03-03T14:23:51.617Z</time>
      </trkpt>
      <trkpt lat="44.15195" lon="6.11343">
        <ele>1043</ele>
        <time>2022-03-03T14:23:52.617Z</time>
      </trkpt>
      <trkpt lat="44.15195" lon="6.11344">
        <ele>1043</ele>
        <time>2022-03-03T14:23:53.617Z</time>
      </trkpt>
      <trkpt lat="44.15194" lon="6.11345">
        <ele>1043</ele>
        <time>2022-03-03T14:23:54.617Z</time>
      </trkpt>
      <trkpt lat="44.15193" lon="6.11347">
        <ele>1043</ele>
        <time>2022-03-03T14:23:55.617Z</time>
      </trkpt>
      <trkpt lat="44.15192" lon="6.11348">
        <ele>1043</ele>
        <time>2022-03-03T14:23:56.617Z</time>
      </trkpt>
      <trkpt lat="44.15191" lon="6.11348">
        <ele>1042</ele>
        <time>2022-03-03T14:23:57.617Z</time>
      </trkpt>
      <trkpt lat="44.1519" lon="6.1135">
        <ele>1042</ele>
        <time>2022-03-03T14:23:58.617Z</time>
      </trkpt>
      <trkpt lat="44.15189" lon="6.11351">
        <ele>1042</ele>
        <time>2022-03-03T14:23:59.617Z</time>
      </trkpt>
      <trkpt lat="44.15189" lon="6.11352">
        <ele>1042</ele>
        <time>2022-03-03T14:24:00.617Z</time>
      </trkpt>
      <trkpt lat="44.15188" lon="6.11353">
        <ele>1042</ele>
        <time>2022-03-03T14:24:01.617Z</time>
      </trkpt>
      <trkpt lat="44.15187" lon="6.11354">
        <ele>1042</ele>
        <time>2022-03-03T14:24:02.617Z</time>
      </trkpt>
      <trkpt lat="44.15186" lon="6.11355">
        <ele>1042</ele>
        <time>2022-03-03T14:24:03.617Z</time>
      </trkpt>
      <trkpt lat="44.15186" lon="6.11356">
        <ele>1041</ele>
        <time>2022-03-03T14:24:04.617Z</time>
      </trkpt>
      <trkpt lat="44.15185" lon="6.11357">
        <ele>1041</ele>
        <time>2022-03-03T14:24:05.617Z</time>
      </trkpt>
      <trkpt lat="44.15184" lon="6.11358">
        <ele>1041</ele>
        <time>2022-03-03T14:24:06.617Z</time>
      </trkpt>
      <trkpt lat="44.15183" lon="6.11359">
        <ele>1041</ele>
        <time>2022-03-03T14:24:07.617Z</time>
      </trkpt>
      <trkpt lat="44.15183" lon="6.1136">
        <ele>1041</ele>
        <time>2022-03-03T14:24:08.617Z</time>
      </trkpt>
      <trkpt lat="44.15182" lon="6.11362">
        <ele>1040</ele>
        <time>2022-03-03T14:24:09.617Z</time>
      </trkpt>
      <trkpt lat="44.15181" lon="6.11363">
        <ele>1040</ele>
        <time>2022-03-03T14:24:10.617Z</time>
      </trkpt>
      <trkpt lat="44.15181" lon="6.11364">
        <ele>1040</ele>
        <time>2022-03-03T14:24:11.617Z</time>
      </trkpt>
      <trkpt lat="44.1518" lon="6.11365">
        <ele>1040</ele>
        <time>2022-03-03T14:24:12.617Z</time>
      </trkpt>
      <trkpt lat="44.15179" lon="6.11366">
        <ele>1040</ele>
        <time>2022-03-03T14:24:13.617Z</time>
      </trkpt>
      <trkpt lat="44.15179" lon="6.11368">
        <ele>1039</ele>
        <time>2022-03-03T14:24:14.617Z</time>
      </trkpt>
      <trkpt lat="44.15178" lon="6.11369">
        <ele>1039</ele>
        <time>2022-03-03T14:24:15.617Z</time>
      </trkpt>
      <trkpt lat="44.15177" lon="6.1137">
        <ele>1039</ele>
        <time>2022-03-03T14:24:16.617Z</time>
      </trkpt>
      <trkpt lat="44.15176" lon="6.11371">
        <ele>1039</ele>
        <time>2022-03-03T14:24:17.617Z</time>
      </trkpt>
      <trkpt lat="44.15175" lon="6.11372">
        <ele>1038</ele>
        <time>2022-03-03T14:24:18.617Z</time>
      </trkpt>
      <trkpt lat="44.15175" lon="6.11373">
        <ele>1038</ele>
        <time>2022-03-03T14:24:19.617Z</time>
      </trkpt>
      <trkpt lat="44.15174" lon="6.11374">
        <ele>1038</ele>
        <time>2022-03-03T14:24:20.617Z</time>
      </trkpt>
      <trkpt lat="44.15173" lon="6.11375">
        <ele>1038</ele>
        <time>2022-03-03T14:24:21.617Z</time>
      </trkpt>
      <trkpt lat="44.15173" lon="6.11376">
        <ele>1038</ele>
        <time>2022-03-03T14:24:22.617Z</time>
      </trkpt>
      <trkpt lat="44.15172" lon="6.11378">
        <ele>1037</ele>
        <time>2022-03-03T14:24:23.617Z</time>
      </trkpt>
      <trkpt lat="44.15171" lon="6.11379">
        <ele>1037</ele>
        <time>2022-03-03T14:24:24.617Z</time>
      </trkpt>
      <trkpt lat="44.15171" lon="6.1138">
        <ele>1037</ele>
        <time>2022-03-03T14:24:25.617Z</time>
      </trkpt>
      <trkpt lat="44.1517" lon="6.11381">
        <ele>1037</ele>
        <time>2022-03-03T14:24:26.617Z</time>
      </trkpt>
      <trkpt lat="44.15169" lon="6.11382">
        <ele>1036</ele>
        <time>2022-03-03T14:24:27.617Z</time>
      </trkpt>
      <trkpt lat="44.15169" lon="6.11383">
        <ele>1036</ele>
        <time>2022-03-03T14:24:28.617Z</time>
      </trkpt>
      <trkpt lat="44.15168" lon="6.11384">
        <ele>1036</ele>
        <time>2022-03-03T14:24:29.617Z</time>
      </trkpt>
      <trkpt lat="44.15167" lon="6.11385">
        <ele>1036</ele>
        <time>2022-03-03T14:24:30.617Z</time>
      </trkpt>
      <trkpt lat="44.15166" lon="6.11386">
        <ele>1036</ele>
        <time>2022-03-03T14:24:31.617Z</time>
      </trkpt>
      <trkpt lat="44.15166" lon="6.11387">
        <ele>1036</ele>
        <time>2022-03-03T14:24:32.617Z</time>
      </trkpt>
      <trkpt lat="44.15165" lon="6.11388">
        <ele>1035</ele>
        <time>2022-03-03T14:24:33.617Z</time>
      </trkpt>
      <trkpt lat="44.15164" lon="6.11389">
        <ele>1035</ele>
        <time>2022-03-03T14:24:34.617Z</time>
      </trkpt>
      <trkpt lat="44.15164" lon="6.1139">
        <ele>1035</ele>
        <time>2022-03-03T14:24:35.617Z</time>
      </trkpt>
      <trkpt lat="44.15163" lon="6.11392">
        <ele>1035</ele>
        <time>2022-03-03T14:24:36.617Z</time>
      </trkpt>
      <trkpt lat="44.15162" lon="6.11393">
        <ele>1034</ele>
        <time>2022-03-03T14:24:37.617Z</time>
      </trkpt>
      <trkpt lat="44.15162" lon="6.11394">
        <ele>1034</ele>
        <time>2022-03-03T14:24:38.617Z</time>
      </trkpt>
      <trkpt lat="44.15161" lon="6.11395">
        <ele>1034</ele>
        <time>2022-03-03T14:24:39.617Z</time>
      </trkpt>
      <trkpt lat="44.1516" lon="6.11396">
        <ele>1034</ele>
        <time>2022-03-03T14:24:40.617Z</time>
      </trkpt>
      <trkpt lat="44.1516" lon="6.11397">
        <ele>1033</ele>
        <time>2022-03-03T14:24:41.617Z</time>
      </trkpt>
      <trkpt lat="44.15159" lon="6.11398">
        <ele>1033</ele>
        <time>2022-03-03T14:24:42.617Z</time>
      </trkpt>
      <trkpt lat="44.15159" lon="6.11399">
        <ele>1033</ele>
        <time>2022-03-03T14:24:43.617Z</time>
      </trkpt>
      <trkpt lat="44.15158" lon="6.114">
        <ele>1033</ele>
        <time>2022-03-03T14:24:44.617Z</time>
      </trkpt>
      <trkpt lat="44.15157" lon="6.11401">
        <ele>1033</ele>
        <time>2022-03-03T14:24:45.617Z</time>
      </trkpt>
      <trkpt lat="44.15156" lon="6.11402">
        <ele>1033</ele>
        <time>2022-03-03T14:24:46.617Z</time>
      </trkpt>
      <trkpt lat="44.15156" lon="6.11403">
        <ele>1033</ele>
        <time>2022-03-03T14:24:47.617Z</time>
      </trkpt>
      <trkpt lat="44.15155" lon="6.11404">
        <ele>1032</ele>
        <time>2022-03-03T14:24:48.617Z</time>
      </trkpt>
      <trkpt lat="44.15154" lon="6.11405">
        <ele>1032</ele>
        <time>2022-03-03T14:24:49.617Z</time>
      </trkpt>
      <trkpt lat="44.15153" lon="6.11406">
        <ele>1032</ele>
        <time>2022-03-03T14:24:50.617Z</time>
      </trkpt>
      <trkpt lat="44.15153" lon="6.11407">
        <ele>1032</ele>
        <time>2022-03-03T14:24:51.617Z</time>
      </trkpt>
      <trkpt lat="44.15152" lon="6.11408">
        <ele>1032</ele>
        <time>2022-03-03T14:24:52.617Z</time>
      </trkpt>
      <trkpt lat="44.15152" lon="6.11409">
        <ele>1032</ele>
        <time>2022-03-03T14:24:53.617Z</time>
      </trkpt>
      <trkpt lat="44.15151" lon="6.1141">
        <ele>1032</ele>
        <time>2022-03-03T14:24:54.617Z</time>
      </trkpt>
      <trkpt lat="44.1515" lon="6.11411">
        <ele>1031</ele>
        <time>2022-03-03T14:24:55.617Z</time>
      </trkpt>
      <trkpt lat="44.15149" lon="6.11412">
        <ele>1031</ele>
        <time>2022-03-03T14:24:56.617Z</time>
      </trkpt>
      <trkpt lat="44.15149" lon="6.11413">
        <ele>1031</ele>
        <time>2022-03-03T14:24:57.617Z</time>
      </trkpt>
      <trkpt lat="44.15148" lon="6.11414">
        <ele>1031</ele>
        <time>2022-03-03T14:24:58.617Z</time>
      </trkpt>
      <trkpt lat="44.15147" lon="6.11415">
        <ele>1031</ele>
        <time>2022-03-03T14:24:59.617Z</time>
      </trkpt>
      <trkpt lat="44.15146" lon="6.11416">
        <ele>1031</ele>
        <time>2022-03-03T14:25:00.617Z</time>
      </trkpt>
      <trkpt lat="44.15146" lon="6.11417">
        <ele>1031</ele>
        <time>2022-03-03T14:25:01.617Z</time>
      </trkpt>
      <trkpt lat="44.15145" lon="6.11418">
        <ele>1031</ele>
        <time>2022-03-03T14:25:02.617Z</time>
      </trkpt>
      <trkpt lat="44.15144" lon="6.11419">
        <ele>1031</ele>
        <time>2022-03-03T14:25:03.617Z</time>
      </trkpt>
      <trkpt lat="44.15144" lon="6.1142">
        <ele>1030</ele>
        <time>2022-03-03T14:25:04.617Z</time>
      </trkpt>
      <trkpt lat="44.15143" lon="6.11421">
        <ele>1030</ele>
        <time>2022-03-03T14:25:05.617Z</time>
      </trkpt>
      <trkpt lat="44.15142" lon="6.11422">
        <ele>1030</ele>
        <time>2022-03-03T14:25:06.617Z</time>
      </trkpt>
      <trkpt lat="44.15141" lon="6.11423">
        <ele>1030</ele>
        <time>2022-03-03T14:25:07.617Z</time>
      </trkpt>
      <trkpt lat="44.1514" lon="6.11424">
        <ele>1030</ele>
        <time>2022-03-03T14:25:08.617Z</time>
      </trkpt>
      <trkpt lat="44.15139" lon="6.11425">
        <ele>1029</ele>
        <time>2022-03-03T14:25:09.617Z</time>
      </trkpt>
      <trkpt lat="44.15138" lon="6.11427">
        <ele>1029</ele>
        <time>2022-03-03T14:25:10.617Z</time>
      </trkpt>
      <trkpt lat="44.15138" lon="6.11427">
        <ele>1029</ele>
        <time>2022-03-03T14:25:11.617Z</time>
      </trkpt>
      <trkpt lat="44.15137" lon="6.11428">
        <ele>1029</ele>
        <time>2022-03-03T14:25:12.617Z</time>
      </trkpt>
      <trkpt lat="44.15136" lon="6.11429">
        <ele>1029</ele>
        <time>2022-03-03T14:25:13.617Z</time>
      </trkpt>
      <trkpt lat="44.15135" lon="6.11431">
        <ele>1028</ele>
        <time>2022-03-03T14:25:14.617Z</time>
      </trkpt>
      <trkpt lat="44.15134" lon="6.11432">
        <ele>1028</ele>
        <time>2022-03-03T14:25:15.617Z</time>
      </trkpt>
      <trkpt lat="44.15133" lon="6.11433">
        <ele>1028</ele>
        <time>2022-03-03T14:25:16.617Z</time>
      </trkpt>
      <trkpt lat="44.15133" lon="6.11434">
        <ele>1028</ele>
        <time>2022-03-03T14:25:17.617Z</time>
      </trkpt>
      <trkpt lat="44.15132" lon="6.11435">
        <ele>1028</ele>
        <time>2022-03-03T14:25:18.617Z</time>
      </trkpt>
      <trkpt lat="44.15131" lon="6.11437">
        <ele>1028</ele>
        <time>2022-03-03T14:25:19.617Z</time>
      </trkpt>
      <trkpt lat="44.15131" lon="6.11438">
        <ele>1028</ele>
        <time>2022-03-03T14:25:20.617Z</time>
      </trkpt>
      <trkpt lat="44.1513" lon="6.11439">
        <ele>1028</ele>
        <time>2022-03-03T14:25:21.617Z</time>
      </trkpt>
      <trkpt lat="44.15129" lon="6.1144">
        <ele>1027</ele>
        <time>2022-03-03T14:25:22.617Z</time>
      </trkpt>
      <trkpt lat="44.15129" lon="6.11441">
        <ele>1027</ele>
        <time>2022-03-03T14:25:23.617Z</time>
      </trkpt>
      <trkpt lat="44.15128" lon="6.11442">
        <ele>1027</ele>
        <time>2022-03-03T14:25:24.617Z</time>
      </trkpt>
      <trkpt lat="44.15127" lon="6.11443">
        <ele>1027</ele>
        <time>2022-03-03T14:25:25.617Z</time>
      </trkpt>
      <trkpt lat="44.15127" lon="6.11444">
        <ele>1027</ele>
        <time>2022-03-03T14:25:26.617Z</time>
      </trkpt>
      <trkpt lat="44.15126" lon="6.11445">
        <ele>1027</ele>
        <time>2022-03-03T14:25:27.617Z</time>
      </trkpt>
      <trkpt lat="44.15125" lon="6.11447">
        <ele>1027</ele>
        <time>2022-03-03T14:25:28.617Z</time>
      </trkpt>
      <trkpt lat="44.15125" lon="6.11448">
        <ele>1026</ele>
        <time>2022-03-03T14:25:29.617Z</time>
      </trkpt>
      <trkpt lat="44.15124" lon="6.11449">
        <ele>1026</ele>
        <time>2022-03-03T14:25:30.617Z</time>
      </trkpt>
      <trkpt lat="44.15123" lon="6.1145">
        <ele>1026</ele>
        <time>2022-03-03T14:25:31.617Z</time>
      </trkpt>
      <trkpt lat="44.15123" lon="6.11451">
        <ele>1026</ele>
        <time>2022-03-03T14:25:32.617Z</time>
      </trkpt>
      <trkpt lat="44.15122" lon="6.11452">
        <ele>1026</ele>
        <time>2022-03-03T14:25:33.617Z</time>
      </trkpt>
      <trkpt lat="44.15122" lon="6.11454">
        <ele>1025</ele>
        <time>2022-03-03T14:25:34.617Z</time>
      </trkpt>
      <trkpt lat="44.15121" lon="6.11455">
        <ele>1025</ele>
        <time>2022-03-03T14:25:35.617Z</time>
      </trkpt>
      <trkpt lat="44.15121" lon="6.11456">
        <ele>1025</ele>
        <time>2022-03-03T14:25:36.617Z</time>
      </trkpt>
      <trkpt lat="44.1512" lon="6.11458">
        <ele>1025</ele>
        <time>2022-03-03T14:25:37.617Z</time>
      </trkpt>
      <trkpt lat="44.15119" lon="6.11459">
        <ele>1025</ele>
        <time>2022-03-03T14:25:38.617Z</time>
      </trkpt>
      <trkpt lat="44.15118" lon="6.1146">
        <ele>1024</ele>
        <time>2022-03-03T14:25:39.617Z</time>
      </trkpt>
      <trkpt lat="44.15118" lon="6.11461">
        <ele>1024</ele>
        <time>2022-03-03T14:25:40.617Z</time>
      </trkpt>
      <trkpt lat="44.15117" lon="6.11463">
        <ele>1024</ele>
        <time>2022-03-03T14:25:41.617Z</time>
      </trkpt>
      <trkpt lat="44.15116" lon="6.11464">
        <ele>1024</ele>
        <time>2022-03-03T14:25:42.617Z</time>
      </trkpt>
      <trkpt lat="44.15116" lon="6.11466">
        <ele>1024</ele>
        <time>2022-03-03T14:25:43.617Z</time>
      </trkpt>
      <trkpt lat="44.15115" lon="6.11467">
        <ele>1024</ele>
        <time>2022-03-03T14:25:44.617Z</time>
      </trkpt>
      <trkpt lat="44.15114" lon="6.11468">
        <ele>1023</ele>
        <time>2022-03-03T14:25:45.617Z</time>
      </trkpt>
      <trkpt lat="44.15113" lon="6.11469">
        <ele>1023</ele>
        <time>2022-03-03T14:25:46.617Z</time>
      </trkpt>
      <trkpt lat="44.15112" lon="6.1147">
        <ele>1023</ele>
        <time>2022-03-03T14:25:47.617Z</time>
      </trkpt>
      <trkpt lat="44.15111" lon="6.11471">
        <ele>1023</ele>
        <time>2022-03-03T14:25:48.617Z</time>
      </trkpt>
      <trkpt lat="44.1511" lon="6.11471">
        <ele>1023</ele>
        <time>2022-03-03T14:25:49.617Z</time>
      </trkpt>
      <trkpt lat="44.15109" lon="6.11472">
        <ele>1023</ele>
        <time>2022-03-03T14:25:50.617Z</time>
      </trkpt>
      <trkpt lat="44.15108" lon="6.11473">
        <ele>1022</ele>
        <time>2022-03-03T14:25:51.617Z</time>
      </trkpt>
      <trkpt lat="44.15107" lon="6.11474">
        <ele>1022</ele>
        <time>2022-03-03T14:25:52.617Z</time>
      </trkpt>
      <trkpt lat="44.15106" lon="6.11475">
        <ele>1022</ele>
        <time>2022-03-03T14:25:53.617Z</time>
      </trkpt>
      <trkpt lat="44.15105" lon="6.11475">
        <ele>1022</ele>
        <time>2022-03-03T14:25:54.617Z</time>
      </trkpt>
      <trkpt lat="44.15104" lon="6.11475">
        <ele>1022</ele>
        <time>2022-03-03T14:25:55.617Z</time>
      </trkpt>
      <trkpt lat="44.15103" lon="6.11476">
        <ele>1021</ele>
        <time>2022-03-03T14:25:56.617Z</time>
      </trkpt>
      <trkpt lat="44.15103" lon="6.11476">
        <ele>1021</ele>
        <time>2022-03-03T14:25:57.617Z</time>
      </trkpt>
      <trkpt lat="44.15101" lon="6.11477">
        <ele>1021</ele>
        <time>2022-03-03T14:25:58.617Z</time>
      </trkpt>
      <trkpt lat="44.15101" lon="6.11478">
        <ele>1021</ele>
        <time>2022-03-03T14:25:59.617Z</time>
      </trkpt>
      <trkpt lat="44.151" lon="6.11478">
        <ele>1021</ele>
        <time>2022-03-03T14:26:00.617Z</time>
      </trkpt>
      <trkpt lat="44.15099" lon="6.11479">
        <ele>1020</ele>
        <time>2022-03-03T14:26:01.617Z</time>
      </trkpt>
      <trkpt lat="44.15098" lon="6.11479">
        <ele>1020</ele>
        <time>2022-03-03T14:26:02.617Z</time>
      </trkpt>
      <trkpt lat="44.15097" lon="6.1148">
        <ele>1020</ele>
        <time>2022-03-03T14:26:03.617Z</time>
      </trkpt>
      <trkpt lat="44.15096" lon="6.1148">
        <ele>1020</ele>
        <time>2022-03-03T14:26:04.617Z</time>
      </trkpt>
      <trkpt lat="44.15095" lon="6.11481">
        <ele>1019</ele>
        <time>2022-03-03T14:26:05.617Z</time>
      </trkpt>
      <trkpt lat="44.15094" lon="6.11481">
        <ele>1019</ele>
        <time>2022-03-03T14:26:06.617Z</time>
      </trkpt>
      <trkpt lat="44.15092" lon="6.11482">
        <ele>1019</ele>
        <time>2022-03-03T14:26:07.617Z</time>
      </trkpt>
      <trkpt lat="44.15092" lon="6.11482">
        <ele>1019</ele>
        <time>2022-03-03T14:26:08.617Z</time>
      </trkpt>
      <trkpt lat="44.1509" lon="6.11483">
        <ele>1019</ele>
        <time>2022-03-03T14:26:09.617Z</time>
      </trkpt>
      <trkpt lat="44.1509" lon="6.11483">
        <ele>1018</ele>
        <time>2022-03-03T14:26:10.617Z</time>
      </trkpt>
      <trkpt lat="44.15089" lon="6.11484">
        <ele>1018</ele>
        <time>2022-03-03T14:26:11.617Z</time>
      </trkpt>
      <trkpt lat="44.15088" lon="6.11484">
        <ele>1018</ele>
        <time>2022-03-03T14:26:12.617Z</time>
      </trkpt>
      <trkpt lat="44.15087" lon="6.11484">
        <ele>1018</ele>
        <time>2022-03-03T14:26:13.617Z</time>
      </trkpt>
      <trkpt lat="44.15086" lon="6.11485">
        <ele>1017</ele>
        <time>2022-03-03T14:26:14.617Z</time>
      </trkpt>
      <trkpt lat="44.15085" lon="6.11485">
        <ele>1017</ele>
        <time>2022-03-03T14:26:15.617Z</time>
      </trkpt>
      <trkpt lat="44.15084" lon="6.11485">
        <ele>1017</ele>
        <time>2022-03-03T14:26:16.617Z</time>
      </trkpt>
      <trkpt lat="44.15083" lon="6.11486">
        <ele>1016</ele>
        <time>2022-03-03T14:26:17.617Z</time>
      </trkpt>
      <trkpt lat="44.15082" lon="6.11486">
        <ele>1016</ele>
        <time>2022-03-03T14:26:18.617Z</time>
      </trkpt>
      <trkpt lat="44.15081" lon="6.11486">
        <ele>1016</ele>
        <time>2022-03-03T14:26:19.617Z</time>
      </trkpt>
      <trkpt lat="44.1508" lon="6.11487">
        <ele>1016</ele>
        <time>2022-03-03T14:26:20.617Z</time>
      </trkpt>
      <trkpt lat="44.15079" lon="6.11487">
        <ele>1015</ele>
        <time>2022-03-03T14:26:21.617Z</time>
      </trkpt>
      <trkpt lat="44.15078" lon="6.11488">
        <ele>1015</ele>
        <time>2022-03-03T14:26:22.617Z</time>
      </trkpt>
      <trkpt lat="44.15077" lon="6.11488">
        <ele>1015</ele>
        <time>2022-03-03T14:26:23.617Z</time>
      </trkpt>
      <trkpt lat="44.15076" lon="6.11488">
        <ele>1015</ele>
        <time>2022-03-03T14:26:24.617Z</time>
      </trkpt>
      <trkpt lat="44.15075" lon="6.11489">
        <ele>1014</ele>
        <time>2022-03-03T14:26:25.617Z</time>
      </trkpt>
      <trkpt lat="44.15075" lon="6.11489">
        <ele>1014</ele>
        <time>2022-03-03T14:26:26.617Z</time>
      </trkpt>
      <trkpt lat="44.15074" lon="6.11489">
        <ele>1014</ele>
        <time>2022-03-03T14:26:27.617Z</time>
      </trkpt>
      <trkpt lat="44.15073" lon="6.1149">
        <ele>1014</ele>
        <time>2022-03-03T14:26:28.617Z</time>
      </trkpt>
      <trkpt lat="44.15073" lon="6.1149">
        <ele>1013</ele>
        <time>2022-03-03T14:26:29.617Z</time>
      </trkpt>
      <trkpt lat="44.15073" lon="6.1149">
        <ele>1013</ele>
        <time>2022-03-03T14:26:30.617Z</time>
      </trkpt>
      <trkpt lat="44.15073" lon="6.11489">
        <ele>1013</ele>
        <time>2022-03-03T14:26:31.617Z</time>
      </trkpt>
      <trkpt lat="44.15072" lon="6.1149">
        <ele>1013</ele>
        <time>2022-03-03T14:26:32.617Z</time>
      </trkpt>
      <trkpt lat="44.15071" lon="6.1149">
        <ele>1013</ele>
        <time>2022-03-03T14:26:33.617Z</time>
      </trkpt>
      <trkpt lat="44.15071" lon="6.11491">
        <ele>1013</ele>
        <time>2022-03-03T14:26:34.617Z</time>
      </trkpt>
      <trkpt lat="44.15069" lon="6.11491">
        <ele>1013</ele>
        <time>2022-03-03T14:26:35.617Z</time>
      </trkpt>
      <trkpt lat="44.15069" lon="6.11492">
        <ele>1012</ele>
        <time>2022-03-03T14:26:36.617Z</time>
      </trkpt>
      <trkpt lat="44.15068" lon="6.11492">
        <ele>1012</ele>
        <time>2022-03-03T14:26:37.617Z</time>
      </trkpt>
      <trkpt lat="44.15067" lon="6.11493">
        <ele>1012</ele>
        <time>2022-03-03T14:26:38.617Z</time>
      </trkpt>
      <trkpt lat="44.15065" lon="6.11493">
        <ele>1012</ele>
        <time>2022-03-03T14:26:39.617Z</time>
      </trkpt>
      <trkpt lat="44.15064" lon="6.11493">
        <ele>1012</ele>
        <time>2022-03-03T14:26:40.617Z</time>
      </trkpt>
      <trkpt lat="44.15063" lon="6.11494">
        <ele>1011</ele>
        <time>2022-03-03T14:26:41.617Z</time>
      </trkpt>
      <trkpt lat="44.15062" lon="6.11495">
        <ele>1011</ele>
        <time>2022-03-03T14:26:42.617Z</time>
      </trkpt>
      <trkpt lat="44.15062" lon="6.11496">
        <ele>1011</ele>
        <time>2022-03-03T14:26:43.617Z</time>
      </trkpt>
      <trkpt lat="44.1506" lon="6.11497">
        <ele>1011</ele>
        <time>2022-03-03T14:26:44.617Z</time>
      </trkpt>
      <trkpt lat="44.15059" lon="6.11498">
        <ele>1011</ele>
        <time>2022-03-03T14:26:45.617Z</time>
      </trkpt>
      <trkpt lat="44.15058" lon="6.11498">
        <ele>1011</ele>
        <time>2022-03-03T14:26:46.617Z</time>
      </trkpt>
      <trkpt lat="44.15057" lon="6.11499">
        <ele>1011</ele>
        <time>2022-03-03T14:26:47.617Z</time>
      </trkpt>
      <trkpt lat="44.15056" lon="6.11499">
        <ele>1011</ele>
        <time>2022-03-03T14:26:48.617Z</time>
      </trkpt>
      <trkpt lat="44.15055" lon="6.115">
        <ele>1010</ele>
        <time>2022-03-03T14:26:49.617Z</time>
      </trkpt>
      <trkpt lat="44.15054" lon="6.11501">
        <ele>1010</ele>
        <time>2022-03-03T14:26:50.617Z</time>
      </trkpt>
      <trkpt lat="44.15053" lon="6.11501">
        <ele>1010</ele>
        <time>2022-03-03T14:26:51.617Z</time>
      </trkpt>
      <trkpt lat="44.15052" lon="6.11501">
        <ele>1010</ele>
        <time>2022-03-03T14:26:52.617Z</time>
      </trkpt>
      <trkpt lat="44.15052" lon="6.11501">
        <ele>1010</ele>
        <time>2022-03-03T14:26:53.617Z</time>
      </trkpt>
      <trkpt lat="44.15052" lon="6.11502">
        <ele>1010</ele>
        <time>2022-03-03T14:26:54.617Z</time>
      </trkpt>
      <trkpt lat="44.15052" lon="6.11502">
        <ele>1010</ele>
        <time>2022-03-03T14:26:55.617Z</time>
      </trkpt>
      <trkpt lat="44.15052" lon="6.11502">
        <ele>1010</ele>
        <time>2022-03-03T14:26:56.617Z</time>
      </trkpt>
      <trkpt lat="44.15052" lon="6.11502">
        <ele>1010</ele>
        <time>2022-03-03T14:26:57.617Z</time>
      </trkpt>
      <trkpt lat="44.15051" lon="6.11501">
        <ele>1010</ele>
        <time>2022-03-03T14:26:58.617Z</time>
      </trkpt>
      <trkpt lat="44.15051" lon="6.11502">
        <ele>1010</ele>
        <time>2022-03-03T14:26:59.617Z</time>
      </trkpt>
      <trkpt lat="44.1505" lon="6.11502">
        <ele>1010</ele>
        <time>2022-03-03T14:27:00.617Z</time>
      </trkpt>
      <trkpt lat="44.15049" lon="6.11503">
        <ele>1009</ele>
        <time>2022-03-03T14:27:01.617Z</time>
      </trkpt>
      <trkpt lat="44.15048" lon="6.11503">
        <ele>1009</ele>
        <time>2022-03-03T14:27:02.617Z</time>
      </trkpt>
      <trkpt lat="44.15047" lon="6.11504">
        <ele>1009</ele>
        <time>2022-03-03T14:27:03.617Z</time>
      </trkpt>
      <trkpt lat="44.15046" lon="6.11504">
        <ele>1009</ele>
        <time>2022-03-03T14:27:04.617Z</time>
      </trkpt>
      <trkpt lat="44.15045" lon="6.11505">
        <ele>1009</ele>
        <time>2022-03-03T14:27:05.617Z</time>
      </trkpt>
      <trkpt lat="44.15044" lon="6.11505">
        <ele>1009</ele>
        <time>2022-03-03T14:27:06.617Z</time>
      </trkpt>
      <trkpt lat="44.15043" lon="6.11506">
        <ele>1009</ele>
        <time>2022-03-03T14:27:07.617Z</time>
      </trkpt>
      <trkpt lat="44.15042" lon="6.11506">
        <ele>1009</ele>
        <time>2022-03-03T14:27:08.617Z</time>
      </trkpt>
      <trkpt lat="44.15041" lon="6.11506">
        <ele>1008</ele>
        <time>2022-03-03T14:27:09.617Z</time>
      </trkpt>
      <trkpt lat="44.1504" lon="6.11506">
        <ele>1008</ele>
        <time>2022-03-03T14:27:10.617Z</time>
      </trkpt>
      <trkpt lat="44.15039" lon="6.11506">
        <ele>1008</ele>
        <time>2022-03-03T14:27:11.617Z</time>
      </trkpt>
      <trkpt lat="44.15038" lon="6.11507">
        <ele>1008</ele>
        <time>2022-03-03T14:27:12.617Z</time>
      </trkpt>
      <trkpt lat="44.15037" lon="6.11508">
        <ele>1008</ele>
        <time>2022-03-03T14:27:13.617Z</time>
      </trkpt>
      <trkpt lat="44.15036" lon="6.11508">
        <ele>1008</ele>
        <time>2022-03-03T14:27:14.617Z</time>
      </trkpt>
      <trkpt lat="44.15035" lon="6.11508">
        <ele>1008</ele>
        <time>2022-03-03T14:27:15.617Z</time>
      </trkpt>
      <trkpt lat="44.15034" lon="6.11509">
        <ele>1007</ele>
        <time>2022-03-03T14:27:16.617Z</time>
      </trkpt>
      <trkpt lat="44.15033" lon="6.11509">
        <ele>1007</ele>
        <time>2022-03-03T14:27:17.617Z</time>
      </trkpt>
      <trkpt lat="44.15032" lon="6.1151">
        <ele>1007</ele>
        <time>2022-03-03T14:27:18.617Z</time>
      </trkpt>
      <trkpt lat="44.15031" lon="6.1151">
        <ele>1007</ele>
        <time>2022-03-03T14:27:19.617Z</time>
      </trkpt>
      <trkpt lat="44.1503" lon="6.11511">
        <ele>1007</ele>
        <time>2022-03-03T14:27:20.617Z</time>
      </trkpt>
      <trkpt lat="44.15029" lon="6.11511">
        <ele>1007</ele>
        <time>2022-03-03T14:27:21.617Z</time>
      </trkpt>
      <trkpt lat="44.15028" lon="6.11512">
        <ele>1007</ele>
        <time>2022-03-03T14:27:22.617Z</time>
      </trkpt>
      <trkpt lat="44.15027" lon="6.11512">
        <ele>1007</ele>
        <time>2022-03-03T14:27:23.617Z</time>
      </trkpt>
      <trkpt lat="44.15026" lon="6.11512">
        <ele>1006</ele>
        <time>2022-03-03T14:27:24.617Z</time>
      </trkpt>
      <trkpt lat="44.15025" lon="6.11513">
        <ele>1006</ele>
        <time>2022-03-03T14:27:25.617Z</time>
      </trkpt>
      <trkpt lat="44.15024" lon="6.11513">
        <ele>1006</ele>
        <time>2022-03-03T14:27:26.617Z</time>
      </trkpt>
      <trkpt lat="44.15023" lon="6.11514">
        <ele>1006</ele>
        <time>2022-03-03T14:27:27.617Z</time>
      </trkpt>
      <trkpt lat="44.15022" lon="6.11514">
        <ele>1006</ele>
        <time>2022-03-03T14:27:28.617Z</time>
      </trkpt>
      <trkpt lat="44.15021" lon="6.11514">
        <ele>1006</ele>
        <time>2022-03-03T14:27:29.617Z</time>
      </trkpt>
      <trkpt lat="44.1502" lon="6.11514">
        <ele>1005</ele>
        <time>2022-03-03T14:27:30.617Z</time>
      </trkpt>
      <trkpt lat="44.15019" lon="6.11515">
        <ele>1005</ele>
        <time>2022-03-03T14:27:31.617Z</time>
      </trkpt>
      <trkpt lat="44.15018" lon="6.11515">
        <ele>1005</ele>
        <time>2022-03-03T14:27:32.617Z</time>
      </trkpt>
      <trkpt lat="44.15018" lon="6.11515">
        <ele>1005</ele>
        <time>2022-03-03T14:27:33.617Z</time>
      </trkpt>
      <trkpt lat="44.15017" lon="6.11516">
        <ele>1005</ele>
        <time>2022-03-03T14:27:34.617Z</time>
      </trkpt>
      <trkpt lat="44.15016" lon="6.11516">
        <ele>1004</ele>
        <time>2022-03-03T14:27:35.617Z</time>
      </trkpt>
      <trkpt lat="44.15015" lon="6.11517">
        <ele>1004</ele>
        <time>2022-03-03T14:27:36.617Z</time>
      </trkpt>
      <trkpt lat="44.15014" lon="6.11517">
        <ele>1004</ele>
        <time>2022-03-03T14:27:37.617Z</time>
      </trkpt>
      <trkpt lat="44.15013" lon="6.11518">
        <ele>1004</ele>
        <time>2022-03-03T14:27:38.617Z</time>
      </trkpt>
      <trkpt lat="44.15012" lon="6.11519">
        <ele>1004</ele>
        <time>2022-03-03T14:27:39.617Z</time>
      </trkpt>
      <trkpt lat="44.15011" lon="6.1152">
        <ele>1003</ele>
        <time>2022-03-03T14:27:40.617Z</time>
      </trkpt>
      <trkpt lat="44.15009" lon="6.11521">
        <ele>1003</ele>
        <time>2022-03-03T14:27:41.617Z</time>
      </trkpt>
      <trkpt lat="44.15008" lon="6.11521">
        <ele>1003</ele>
        <time>2022-03-03T14:27:42.617Z</time>
      </trkpt>
      <trkpt lat="44.15007" lon="6.11522">
        <ele>1003</ele>
        <time>2022-03-03T14:27:43.617Z</time>
      </trkpt>
      <trkpt lat="44.15006" lon="6.11522">
        <ele>1003</ele>
        <time>2022-03-03T14:27:44.617Z</time>
      </trkpt>
      <trkpt lat="44.15005" lon="6.11523">
        <ele>1003</ele>
        <time>2022-03-03T14:27:45.617Z</time>
      </trkpt>
      <trkpt lat="44.15003" lon="6.11523">
        <ele>1002</ele>
        <time>2022-03-03T14:27:46.617Z</time>
      </trkpt>
      <trkpt lat="44.15002" lon="6.11523">
        <ele>1002</ele>
        <time>2022-03-03T14:27:47.617Z</time>
      </trkpt>
      <trkpt lat="44.15001" lon="6.11524">
        <ele>1002</ele>
        <time>2022-03-03T14:27:48.617Z</time>
      </trkpt>
      <trkpt lat="44.15" lon="6.11525">
        <ele>1002</ele>
        <time>2022-03-03T14:27:49.617Z</time>
      </trkpt>
      <trkpt lat="44.14999" lon="6.11525">
        <ele>1002</ele>
        <time>2022-03-03T14:27:50.617Z</time>
      </trkpt>
      <trkpt lat="44.14998" lon="6.11526">
        <ele>1002</ele>
        <time>2022-03-03T14:27:51.617Z</time>
      </trkpt>
      <trkpt lat="44.14997" lon="6.11526">
        <ele>1002</ele>
        <time>2022-03-03T14:27:52.617Z</time>
      </trkpt>
      <trkpt lat="44.14995" lon="6.11527">
        <ele>1001</ele>
        <time>2022-03-03T14:27:53.617Z</time>
      </trkpt>
      <trkpt lat="44.14995" lon="6.11527">
        <ele>1001</ele>
        <time>2022-03-03T14:27:54.617Z</time>
      </trkpt>
      <trkpt lat="44.14993" lon="6.11528">
        <ele>1001</ele>
        <time>2022-03-03T14:27:55.617Z</time>
      </trkpt>
      <trkpt lat="44.14992" lon="6.11528">
        <ele>1001</ele>
        <time>2022-03-03T14:27:56.617Z</time>
      </trkpt>
      <trkpt lat="44.14991" lon="6.11529">
        <ele>1001</ele>
        <time>2022-03-03T14:27:57.617Z</time>
      </trkpt>
      <trkpt lat="44.1499" lon="6.11529">
        <ele>1000</ele>
        <time>2022-03-03T14:27:58.617Z</time>
      </trkpt>
      <trkpt lat="44.14989" lon="6.11529">
        <ele>1000</ele>
        <time>2022-03-03T14:27:59.617Z</time>
      </trkpt>
      <trkpt lat="44.14988" lon="6.1153">
        <ele>1000</ele>
        <time>2022-03-03T14:28:00.617Z</time>
      </trkpt>
      <trkpt lat="44.14987" lon="6.1153">
        <ele>1000</ele>
        <time>2022-03-03T14:28:01.617Z</time>
      </trkpt>
      <trkpt lat="44.14986" lon="6.11531">
        <ele>1000</ele>
        <time>2022-03-03T14:28:02.617Z</time>
      </trkpt>
      <trkpt lat="44.14985" lon="6.11532">
        <ele>1000</ele>
        <time>2022-03-03T14:28:03.617Z</time>
      </trkpt>
      <trkpt lat="44.14984" lon="6.11533">
        <ele>999</ele>
        <time>2022-03-03T14:28:04.617Z</time>
      </trkpt>
      <trkpt lat="44.14983" lon="6.11533">
        <ele>999</ele>
        <time>2022-03-03T14:28:05.617Z</time>
      </trkpt>
      <trkpt lat="44.14982" lon="6.11534">
        <ele>999</ele>
        <time>2022-03-03T14:28:06.617Z</time>
      </trkpt>
      <trkpt lat="44.14981" lon="6.11535">
        <ele>999</ele>
        <time>2022-03-03T14:28:07.617Z</time>
      </trkpt>
      <trkpt lat="44.1498" lon="6.11536">
        <ele>999</ele>
        <time>2022-03-03T14:28:08.617Z</time>
      </trkpt>
      <trkpt lat="44.14979" lon="6.11536">
        <ele>998</ele>
        <time>2022-03-03T14:28:09.617Z</time>
      </trkpt>
      <trkpt lat="44.14978" lon="6.11537">
        <ele>998</ele>
        <time>2022-03-03T14:28:10.617Z</time>
      </trkpt>
      <trkpt lat="44.14977" lon="6.11537">
        <ele>998</ele>
        <time>2022-03-03T14:28:11.617Z</time>
      </trkpt>
      <trkpt lat="44.14976" lon="6.11538">
        <ele>998</ele>
        <time>2022-03-03T14:28:12.617Z</time>
      </trkpt>
      <trkpt lat="44.14975" lon="6.11539">
        <ele>998</ele>
        <time>2022-03-03T14:28:13.617Z</time>
      </trkpt>
      <trkpt lat="44.14975" lon="6.1154">
        <ele>997</ele>
        <time>2022-03-03T14:28:14.617Z</time>
      </trkpt>
      <trkpt lat="44.14973" lon="6.1154">
        <ele>997</ele>
        <time>2022-03-03T14:28:15.617Z</time>
      </trkpt>
      <trkpt lat="44.14972" lon="6.11541">
        <ele>997</ele>
        <time>2022-03-03T14:28:16.617Z</time>
      </trkpt>
      <trkpt lat="44.14971" lon="6.11541">
        <ele>997</ele>
        <time>2022-03-03T14:28:17.617Z</time>
      </trkpt>
      <trkpt lat="44.1497" lon="6.11542">
        <ele>996</ele>
        <time>2022-03-03T14:28:18.617Z</time>
      </trkpt>
      <trkpt lat="44.14969" lon="6.11542">
        <ele>996</ele>
        <time>2022-03-03T14:28:19.617Z</time>
      </trkpt>
      <trkpt lat="44.14968" lon="6.11543">
        <ele>996</ele>
        <time>2022-03-03T14:28:20.617Z</time>
      </trkpt>
      <trkpt lat="44.14967" lon="6.11543">
        <ele>995</ele>
        <time>2022-03-03T14:28:21.617Z</time>
      </trkpt>
      <trkpt lat="44.14966" lon="6.11543">
        <ele>995</ele>
        <time>2022-03-03T14:28:22.617Z</time>
      </trkpt>
      <trkpt lat="44.14965" lon="6.11544">
        <ele>995</ele>
        <time>2022-03-03T14:28:23.617Z</time>
      </trkpt>
      <trkpt lat="44.14964" lon="6.11545">
        <ele>994</ele>
        <time>2022-03-03T14:28:24.617Z</time>
      </trkpt>
      <trkpt lat="44.14963" lon="6.11545">
        <ele>994</ele>
        <time>2022-03-03T14:28:25.617Z</time>
      </trkpt>
      <trkpt lat="44.14962" lon="6.11546">
        <ele>994</ele>
        <time>2022-03-03T14:28:26.617Z</time>
      </trkpt>
      <trkpt lat="44.14961" lon="6.11546">
        <ele>994</ele>
        <time>2022-03-03T14:28:27.617Z</time>
      </trkpt>
      <trkpt lat="44.14959" lon="6.11546">
        <ele>994</ele>
        <time>2022-03-03T14:28:28.617Z</time>
      </trkpt>
      <trkpt lat="44.14958" lon="6.11546">
        <ele>994</ele>
        <time>2022-03-03T14:28:29.617Z</time>
      </trkpt>
      <trkpt lat="44.14957" lon="6.11546">
        <ele>993</ele>
        <time>2022-03-03T14:28:30.617Z</time>
      </trkpt>
      <trkpt lat="44.14956" lon="6.11546">
        <ele>993</ele>
        <time>2022-03-03T14:28:31.617Z</time>
      </trkpt>
      <trkpt lat="44.14955" lon="6.11546">
        <ele>993</ele>
        <time>2022-03-03T14:28:32.617Z</time>
      </trkpt>
      <trkpt lat="44.14954" lon="6.11547">
        <ele>993</ele>
        <time>2022-03-03T14:28:33.617Z</time>
      </trkpt>
      <trkpt lat="44.14952" lon="6.11547">
        <ele>993</ele>
        <time>2022-03-03T14:28:34.617Z</time>
      </trkpt>
      <trkpt lat="44.14951" lon="6.11547">
        <ele>992</ele>
        <time>2022-03-03T14:28:35.617Z</time>
      </trkpt>
      <trkpt lat="44.1495" lon="6.11547">
        <ele>992</ele>
        <time>2022-03-03T14:28:36.617Z</time>
      </trkpt>
      <trkpt lat="44.14949" lon="6.11547">
        <ele>992</ele>
        <time>2022-03-03T14:28:37.617Z</time>
      </trkpt>
      <trkpt lat="44.14948" lon="6.11546">
        <ele>992</ele>
        <time>2022-03-03T14:28:38.617Z</time>
      </trkpt>
      <trkpt lat="44.14947" lon="6.11546">
        <ele>992</ele>
        <time>2022-03-03T14:28:39.617Z</time>
      </trkpt>
      <trkpt lat="44.14946" lon="6.11546">
        <ele>992</ele>
        <time>2022-03-03T14:28:40.617Z</time>
      </trkpt>
      <trkpt lat="44.14944" lon="6.11546">
        <ele>991</ele>
        <time>2022-03-03T14:28:41.617Z</time>
      </trkpt>
      <trkpt lat="44.14943" lon="6.11545">
        <ele>991</ele>
        <time>2022-03-03T14:28:42.617Z</time>
      </trkpt>
      <trkpt lat="44.14942" lon="6.11545">
        <ele>991</ele>
        <time>2022-03-03T14:28:43.617Z</time>
      </trkpt>
      <trkpt lat="44.14941" lon="6.11544">
        <ele>991</ele>
        <time>2022-03-03T14:28:44.617Z</time>
      </trkpt>
      <trkpt lat="44.1494" lon="6.11544">
        <ele>991</ele>
        <time>2022-03-03T14:28:45.617Z</time>
      </trkpt>
      <trkpt lat="44.14939" lon="6.11544">
        <ele>991</ele>
        <time>2022-03-03T14:28:46.617Z</time>
      </trkpt>
      <trkpt lat="44.14938" lon="6.11543">
        <ele>990</ele>
        <time>2022-03-03T14:28:47.617Z</time>
      </trkpt>
      <trkpt lat="44.14937" lon="6.11543">
        <ele>990</ele>
        <time>2022-03-03T14:28:48.617Z</time>
      </trkpt>
      <trkpt lat="44.14935" lon="6.11543">
        <ele>990</ele>
        <time>2022-03-03T14:28:49.617Z</time>
      </trkpt>
      <trkpt lat="44.14934" lon="6.11542">
        <ele>990</ele>
        <time>2022-03-03T14:28:50.617Z</time>
      </trkpt>
      <trkpt lat="44.14933" lon="6.11542">
        <ele>990</ele>
        <time>2022-03-03T14:28:51.617Z</time>
      </trkpt>
      <trkpt lat="44.14932" lon="6.11542">
        <ele>990</ele>
        <time>2022-03-03T14:28:52.617Z</time>
      </trkpt>
      <trkpt lat="44.14931" lon="6.11542">
        <ele>990</ele>
        <time>2022-03-03T14:28:53.617Z</time>
      </trkpt>
      <trkpt lat="44.14929" lon="6.11542">
        <ele>989</ele>
        <time>2022-03-03T14:28:54.617Z</time>
      </trkpt>
      <trkpt lat="44.14928" lon="6.11541">
        <ele>989</ele>
        <time>2022-03-03T14:28:55.617Z</time>
      </trkpt>
      <trkpt lat="44.14927" lon="6.11542">
        <ele>989</ele>
        <time>2022-03-03T14:28:56.617Z</time>
      </trkpt>
      <trkpt lat="44.14926" lon="6.11542">
        <ele>989</ele>
        <time>2022-03-03T14:28:57.617Z</time>
      </trkpt>
      <trkpt lat="44.14925" lon="6.11542">
        <ele>989</ele>
        <time>2022-03-03T14:28:58.617Z</time>
      </trkpt>
      <trkpt lat="44.14924" lon="6.11542">
        <ele>989</ele>
        <time>2022-03-03T14:28:59.617Z</time>
      </trkpt>
      <trkpt lat="44.14922" lon="6.11542">
        <ele>989</ele>
        <time>2022-03-03T14:29:00.617Z</time>
      </trkpt>
      <trkpt lat="44.14921" lon="6.11542">
        <ele>988</ele>
        <time>2022-03-03T14:29:01.617Z</time>
      </trkpt>
      <trkpt lat="44.1492" lon="6.11542">
        <ele>988</ele>
        <time>2022-03-03T14:29:02.617Z</time>
      </trkpt>
      <trkpt lat="44.14919" lon="6.11542">
        <ele>988</ele>
        <time>2022-03-03T14:29:03.617Z</time>
      </trkpt>
      <trkpt lat="44.14918" lon="6.11542">
        <ele>988</ele>
        <time>2022-03-03T14:29:04.617Z</time>
      </trkpt>
      <trkpt lat="44.14917" lon="6.11543">
        <ele>988</ele>
        <time>2022-03-03T14:29:05.617Z</time>
      </trkpt>
      <trkpt lat="44.14916" lon="6.11543">
        <ele>988</ele>
        <time>2022-03-03T14:29:06.617Z</time>
      </trkpt>
      <trkpt lat="44.14914" lon="6.11544">
        <ele>988</ele>
        <time>2022-03-03T14:29:07.617Z</time>
      </trkpt>
      <trkpt lat="44.14913" lon="6.11544">
        <ele>988</ele>
        <time>2022-03-03T14:29:08.617Z</time>
      </trkpt>
      <trkpt lat="44.14912" lon="6.11544">
        <ele>988</ele>
        <time>2022-03-03T14:29:09.617Z</time>
      </trkpt>
      <trkpt lat="44.14911" lon="6.11544">
        <ele>987</ele>
        <time>2022-03-03T14:29:10.617Z</time>
      </trkpt>
      <trkpt lat="44.14909" lon="6.11545">
        <ele>987</ele>
        <time>2022-03-03T14:29:11.617Z</time>
      </trkpt>
      <trkpt lat="44.14908" lon="6.11545">
        <ele>987</ele>
        <time>2022-03-03T14:29:12.617Z</time>
      </trkpt>
      <trkpt lat="44.14907" lon="6.11545">
        <ele>987</ele>
        <time>2022-03-03T14:29:13.617Z</time>
      </trkpt>
      <trkpt lat="44.14906" lon="6.11545">
        <ele>987</ele>
        <time>2022-03-03T14:29:14.617Z</time>
      </trkpt>
      <trkpt lat="44.14904" lon="6.11545">
        <ele>987</ele>
        <time>2022-03-03T14:29:15.617Z</time>
      </trkpt>
      <trkpt lat="44.14903" lon="6.11545">
        <ele>986</ele>
        <time>2022-03-03T14:29:16.617Z</time>
      </trkpt>
      <trkpt lat="44.14902" lon="6.11545">
        <ele>986</ele>
        <time>2022-03-03T14:29:17.617Z</time>
      </trkpt>
      <trkpt lat="44.14901" lon="6.11545">
        <ele>986</ele>
        <time>2022-03-03T14:29:18.617Z</time>
      </trkpt>
      <trkpt lat="44.14899" lon="6.11544">
        <ele>986</ele>
        <time>2022-03-03T14:29:19.617Z</time>
      </trkpt>
      <trkpt lat="44.14898" lon="6.11544">
        <ele>986</ele>
        <time>2022-03-03T14:29:20.617Z</time>
      </trkpt>
      <trkpt lat="44.14897" lon="6.11544">
        <ele>986</ele>
        <time>2022-03-03T14:29:21.617Z</time>
      </trkpt>
      <trkpt lat="44.14896" lon="6.11544">
        <ele>986</ele>
        <time>2022-03-03T14:29:22.617Z</time>
      </trkpt>
      <trkpt lat="44.14894" lon="6.11544">
        <ele>985</ele>
        <time>2022-03-03T14:29:23.617Z</time>
      </trkpt>
      <trkpt lat="44.14893" lon="6.11544">
        <ele>985</ele>
        <time>2022-03-03T14:29:24.617Z</time>
      </trkpt>
      <trkpt lat="44.14892" lon="6.11544">
        <ele>985</ele>
        <time>2022-03-03T14:29:25.617Z</time>
      </trkpt>
      <trkpt lat="44.1489" lon="6.11544">
        <ele>985</ele>
        <time>2022-03-03T14:29:26.617Z</time>
      </trkpt>
      <trkpt lat="44.14889" lon="6.11543">
        <ele>985</ele>
        <time>2022-03-03T14:29:27.617Z</time>
      </trkpt>
      <trkpt lat="44.14888" lon="6.11543">
        <ele>985</ele>
        <time>2022-03-03T14:29:28.617Z</time>
      </trkpt>
      <trkpt lat="44.14887" lon="6.11543">
        <ele>985</ele>
        <time>2022-03-03T14:29:29.617Z</time>
      </trkpt>
      <trkpt lat="44.14885" lon="6.11543">
        <ele>985</ele>
        <time>2022-03-03T14:29:30.617Z</time>
      </trkpt>
      <trkpt lat="44.14884" lon="6.11542">
        <ele>985</ele>
        <time>2022-03-03T14:29:31.617Z</time>
      </trkpt>
      <trkpt lat="44.14883" lon="6.11542">
        <ele>985</ele>
        <time>2022-03-03T14:29:32.617Z</time>
      </trkpt>
      <trkpt lat="44.14881" lon="6.11542">
        <ele>985</ele>
        <time>2022-03-03T14:29:33.617Z</time>
      </trkpt>
      <trkpt lat="44.1488" lon="6.11542">
        <ele>985</ele>
        <time>2022-03-03T14:29:34.617Z</time>
      </trkpt>
      <trkpt lat="44.14879" lon="6.11541">
        <ele>985</ele>
        <time>2022-03-03T14:29:35.617Z</time>
      </trkpt>
      <trkpt lat="44.14877" lon="6.11541">
        <ele>985</ele>
        <time>2022-03-03T14:29:36.617Z</time>
      </trkpt>
      <trkpt lat="44.14876" lon="6.1154">
        <ele>984</ele>
        <time>2022-03-03T14:29:37.617Z</time>
      </trkpt>
      <trkpt lat="44.14875" lon="6.11539">
        <ele>984</ele>
        <time>2022-03-03T14:29:38.617Z</time>
      </trkpt>
      <trkpt lat="44.14874" lon="6.11539">
        <ele>984</ele>
        <time>2022-03-03T14:29:39.617Z</time>
      </trkpt>
      <trkpt lat="44.14872" lon="6.11538">
        <ele>984</ele>
        <time>2022-03-03T14:29:40.617Z</time>
      </trkpt>
      <trkpt lat="44.14871" lon="6.11538">
        <ele>984</ele>
        <time>2022-03-03T14:29:41.617Z</time>
      </trkpt>
      <trkpt lat="44.1487" lon="6.11537">
        <ele>984</ele>
        <time>2022-03-03T14:29:42.617Z</time>
      </trkpt>
      <trkpt lat="44.14869" lon="6.11536">
        <ele>984</ele>
        <time>2022-03-03T14:29:43.617Z</time>
      </trkpt>
      <trkpt lat="44.14868" lon="6.11536">
        <ele>983</ele>
        <time>2022-03-03T14:29:44.617Z</time>
      </trkpt>
      <trkpt lat="44.14866" lon="6.11535">
        <ele>983</ele>
        <time>2022-03-03T14:29:45.617Z</time>
      </trkpt>
      <trkpt lat="44.14865" lon="6.11535">
        <ele>983</ele>
        <time>2022-03-03T14:29:46.617Z</time>
      </trkpt>
      <trkpt lat="44.14864" lon="6.11534">
        <ele>983</ele>
        <time>2022-03-03T14:29:47.617Z</time>
      </trkpt>
      <trkpt lat="44.14863" lon="6.11534">
        <ele>982</ele>
        <time>2022-03-03T14:29:48.617Z</time>
      </trkpt>
      <trkpt lat="44.14862" lon="6.11534">
        <ele>982</ele>
        <time>2022-03-03T14:29:49.617Z</time>
      </trkpt>
      <trkpt lat="44.1486" lon="6.11534">
        <ele>982</ele>
        <time>2022-03-03T14:29:50.617Z</time>
      </trkpt>
      <trkpt lat="44.14859" lon="6.11534">
        <ele>982</ele>
        <time>2022-03-03T14:29:51.617Z</time>
      </trkpt>
      <trkpt lat="44.14858" lon="6.11534">
        <ele>981</ele>
        <time>2022-03-03T14:29:52.617Z</time>
      </trkpt>
      <trkpt lat="44.14857" lon="6.11534">
        <ele>981</ele>
        <time>2022-03-03T14:29:53.617Z</time>
      </trkpt>
      <trkpt lat="44.14856" lon="6.11534">
        <ele>981</ele>
        <time>2022-03-03T14:29:54.617Z</time>
      </trkpt>
      <trkpt lat="44.14855" lon="6.11535">
        <ele>981</ele>
        <time>2022-03-03T14:29:55.617Z</time>
      </trkpt>
      <trkpt lat="44.14854" lon="6.11535">
        <ele>980</ele>
        <time>2022-03-03T14:29:56.617Z</time>
      </trkpt>
      <trkpt lat="44.14852" lon="6.11535">
        <ele>980</ele>
        <time>2022-03-03T14:29:57.617Z</time>
      </trkpt>
      <trkpt lat="44.14851" lon="6.11536">
        <ele>980</ele>
        <time>2022-03-03T14:29:58.617Z</time>
      </trkpt>
      <trkpt lat="44.1485" lon="6.11537">
        <ele>980</ele>
        <time>2022-03-03T14:29:59.617Z</time>
      </trkpt>
      <trkpt lat="44.14849" lon="6.11537">
        <ele>980</ele>
        <time>2022-03-03T14:30:00.617Z</time>
      </trkpt>
      <trkpt lat="44.14848" lon="6.11538">
        <ele>979</ele>
        <time>2022-03-03T14:30:01.617Z</time>
      </trkpt>
      <trkpt lat="44.14847" lon="6.11538">
        <ele>979</ele>
        <time>2022-03-03T14:30:02.617Z</time>
      </trkpt>
      <trkpt lat="44.14845" lon="6.11539">
        <ele>979</ele>
        <time>2022-03-03T14:30:03.617Z</time>
      </trkpt>
      <trkpt lat="44.14844" lon="6.11539">
        <ele>979</ele>
        <time>2022-03-03T14:30:04.617Z</time>
      </trkpt>
      <trkpt lat="44.14843" lon="6.1154">
        <ele>979</ele>
        <time>2022-03-03T14:30:05.617Z</time>
      </trkpt>
      <trkpt lat="44.14842" lon="6.1154">
        <ele>979</ele>
        <time>2022-03-03T14:30:06.617Z</time>
      </trkpt>
      <trkpt lat="44.14841" lon="6.11541">
        <ele>978</ele>
        <time>2022-03-03T14:30:07.617Z</time>
      </trkpt>
      <trkpt lat="44.1484" lon="6.11541">
        <ele>978</ele>
        <time>2022-03-03T14:30:08.617Z</time>
      </trkpt>
      <trkpt lat="44.14838" lon="6.11543">
        <ele>978</ele>
        <time>2022-03-03T14:30:09.617Z</time>
      </trkpt>
      <trkpt lat="44.14837" lon="6.11543">
        <ele>978</ele>
        <time>2022-03-03T14:30:10.617Z</time>
      </trkpt>
      <trkpt lat="44.14836" lon="6.11544">
        <ele>978</ele>
        <time>2022-03-03T14:30:11.617Z</time>
      </trkpt>
      <trkpt lat="44.14835" lon="6.11544">
        <ele>978</ele>
        <time>2022-03-03T14:30:12.617Z</time>
      </trkpt>
      <trkpt lat="44.14834" lon="6.11545">
        <ele>978</ele>
        <time>2022-03-03T14:30:13.617Z</time>
      </trkpt>
      <trkpt lat="44.14833" lon="6.11545">
        <ele>977</ele>
        <time>2022-03-03T14:30:14.617Z</time>
      </trkpt>
      <trkpt lat="44.14832" lon="6.11546">
        <ele>977</ele>
        <time>2022-03-03T14:30:15.617Z</time>
      </trkpt>
      <trkpt lat="44.1483" lon="6.11546">
        <ele>977</ele>
        <time>2022-03-03T14:30:16.617Z</time>
      </trkpt>
      <trkpt lat="44.14829" lon="6.11547">
        <ele>977</ele>
        <time>2022-03-03T14:30:17.617Z</time>
      </trkpt>
      <trkpt lat="44.14828" lon="6.11547">
        <ele>977</ele>
        <time>2022-03-03T14:30:18.617Z</time>
      </trkpt>
      <trkpt lat="44.14827" lon="6.11548">
        <ele>977</ele>
        <time>2022-03-03T14:30:19.617Z</time>
      </trkpt>
      <trkpt lat="44.14825" lon="6.11549">
        <ele>977</ele>
        <time>2022-03-03T14:30:20.617Z</time>
      </trkpt>
      <trkpt lat="44.14824" lon="6.11549">
        <ele>977</ele>
        <time>2022-03-03T14:30:21.617Z</time>
      </trkpt>
      <trkpt lat="44.14823" lon="6.1155">
        <ele>977</ele>
        <time>2022-03-03T14:30:22.617Z</time>
      </trkpt>
      <trkpt lat="44.14822" lon="6.1155">
        <ele>977</ele>
        <time>2022-03-03T14:30:23.617Z</time>
      </trkpt>
      <trkpt lat="44.14821" lon="6.11551">
        <ele>977</ele>
        <time>2022-03-03T14:30:24.617Z</time>
      </trkpt>
      <trkpt lat="44.14819" lon="6.11551">
        <ele>977</ele>
        <time>2022-03-03T14:30:25.617Z</time>
      </trkpt>
      <trkpt lat="44.14818" lon="6.11552">
        <ele>977</ele>
        <time>2022-03-03T14:30:26.617Z</time>
      </trkpt>
      <trkpt lat="44.14817" lon="6.11552">
        <ele>977</ele>
        <time>2022-03-03T14:30:27.617Z</time>
      </trkpt>
      <trkpt lat="44.14816" lon="6.11553">
        <ele>977</ele>
        <time>2022-03-03T14:30:28.617Z</time>
      </trkpt>
      <trkpt lat="44.14815" lon="6.11553">
        <ele>976</ele>
        <time>2022-03-03T14:30:29.617Z</time>
      </trkpt>
      <trkpt lat="44.14814" lon="6.11554">
        <ele>976</ele>
        <time>2022-03-03T14:30:30.617Z</time>
      </trkpt>
      <trkpt lat="44.14812" lon="6.11554">
        <ele>976</ele>
        <time>2022-03-03T14:30:31.617Z</time>
      </trkpt>
      <trkpt lat="44.14811" lon="6.11554">
        <ele>976</ele>
        <time>2022-03-03T14:30:32.617Z</time>
      </trkpt>
      <trkpt lat="44.14809" lon="6.11555">
        <ele>976</ele>
        <time>2022-03-03T14:30:33.617Z</time>
      </trkpt>
      <trkpt lat="44.14808" lon="6.11555">
        <ele>976</ele>
        <time>2022-03-03T14:30:34.617Z</time>
      </trkpt>
      <trkpt lat="44.14807" lon="6.11556">
        <ele>976</ele>
        <time>2022-03-03T14:30:35.617Z</time>
      </trkpt>
      <trkpt lat="44.14806" lon="6.11556">
        <ele>976</ele>
        <time>2022-03-03T14:30:36.617Z</time>
      </trkpt>
      <trkpt lat="44.14805" lon="6.11557">
        <ele>976</ele>
        <time>2022-03-03T14:30:37.617Z</time>
      </trkpt>
      <trkpt lat="44.14804" lon="6.11557">
        <ele>975</ele>
        <time>2022-03-03T14:30:38.617Z</time>
      </trkpt>
      <trkpt lat="44.14802" lon="6.11557">
        <ele>975</ele>
        <time>2022-03-03T14:30:39.617Z</time>
      </trkpt>
      <trkpt lat="44.14801" lon="6.11558">
        <ele>975</ele>
        <time>2022-03-03T14:30:40.617Z</time>
      </trkpt>
      <trkpt lat="44.148" lon="6.11558">
        <ele>975</ele>
        <time>2022-03-03T14:30:41.617Z</time>
      </trkpt>
      <trkpt lat="44.14799" lon="6.11559">
        <ele>975</ele>
        <time>2022-03-03T14:30:42.617Z</time>
      </trkpt>
      <trkpt lat="44.14797" lon="6.11559">
        <ele>975</ele>
        <time>2022-03-03T14:30:43.617Z</time>
      </trkpt>
      <trkpt lat="44.14796" lon="6.11559">
        <ele>974</ele>
        <time>2022-03-03T14:30:44.617Z</time>
      </trkpt>
      <trkpt lat="44.14795" lon="6.11559">
        <ele>974</ele>
        <time>2022-03-03T14:30:45.617Z</time>
      </trkpt>
      <trkpt lat="44.14794" lon="6.1156">
        <ele>974</ele>
        <time>2022-03-03T14:30:46.617Z</time>
      </trkpt>
      <trkpt lat="44.14793" lon="6.1156">
        <ele>974</ele>
        <time>2022-03-03T14:30:47.617Z</time>
      </trkpt>
      <trkpt lat="44.14791" lon="6.11561">
        <ele>974</ele>
        <time>2022-03-03T14:30:48.617Z</time>
      </trkpt>
      <trkpt lat="44.1479" lon="6.11561">
        <ele>974</ele>
        <time>2022-03-03T14:30:49.617Z</time>
      </trkpt>
      <trkpt lat="44.14789" lon="6.11562">
        <ele>973</ele>
        <time>2022-03-03T14:30:50.617Z</time>
      </trkpt>
      <trkpt lat="44.14788" lon="6.11562">
        <ele>973</ele>
        <time>2022-03-03T14:30:51.617Z</time>
      </trkpt>
      <trkpt lat="44.14786" lon="6.11562">
        <ele>973</ele>
        <time>2022-03-03T14:30:52.617Z</time>
      </trkpt>
      <trkpt lat="44.14785" lon="6.11563">
        <ele>973</ele>
        <time>2022-03-03T14:30:53.617Z</time>
      </trkpt>
      <trkpt lat="44.14784" lon="6.11563">
        <ele>973</ele>
        <time>2022-03-03T14:30:54.617Z</time>
      </trkpt>
      <trkpt lat="44.14783" lon="6.11564">
        <ele>973</ele>
        <time>2022-03-03T14:30:55.617Z</time>
      </trkpt>
      <trkpt lat="44.14781" lon="6.11564">
        <ele>972</ele>
        <time>2022-03-03T14:30:56.617Z</time>
      </trkpt>
      <trkpt lat="44.1478" lon="6.11564">
        <ele>972</ele>
        <time>2022-03-03T14:30:57.617Z</time>
      </trkpt>
      <trkpt lat="44.14779" lon="6.11565">
        <ele>972</ele>
        <time>2022-03-03T14:30:58.617Z</time>
      </trkpt>
      <trkpt lat="44.14778" lon="6.11565">
        <ele>972</ele>
        <time>2022-03-03T14:30:59.617Z</time>
      </trkpt>
      <trkpt lat="44.14776" lon="6.11566">
        <ele>971</ele>
        <time>2022-03-03T14:31:00.617Z</time>
      </trkpt>
      <trkpt lat="44.14775" lon="6.11566">
        <ele>971</ele>
        <time>2022-03-03T14:31:01.617Z</time>
      </trkpt>
      <trkpt lat="44.14774" lon="6.11567">
        <ele>971</ele>
        <time>2022-03-03T14:31:02.617Z</time>
      </trkpt>
      <trkpt lat="44.14773" lon="6.11567">
        <ele>971</ele>
        <time>2022-03-03T14:31:03.617Z</time>
      </trkpt>
      <trkpt lat="44.14772" lon="6.11568">
        <ele>971</ele>
        <time>2022-03-03T14:31:04.617Z</time>
      </trkpt>
      <trkpt lat="44.14771" lon="6.11568">
        <ele>971</ele>
        <time>2022-03-03T14:31:05.617Z</time>
      </trkpt>
      <trkpt lat="44.1477" lon="6.11569">
        <ele>970</ele>
        <time>2022-03-03T14:31:06.617Z</time>
      </trkpt>
      <trkpt lat="44.14768" lon="6.11569">
        <ele>970</ele>
        <time>2022-03-03T14:31:07.617Z</time>
      </trkpt>
      <trkpt lat="44.14767" lon="6.1157">
        <ele>970</ele>
        <time>2022-03-03T14:31:08.617Z</time>
      </trkpt>
      <trkpt lat="44.14766" lon="6.1157">
        <ele>970</ele>
        <time>2022-03-03T14:31:09.617Z</time>
      </trkpt>
      <trkpt lat="44.14765" lon="6.11571">
        <ele>970</ele>
        <time>2022-03-03T14:31:10.617Z</time>
      </trkpt>
      <trkpt lat="44.14764" lon="6.11571">
        <ele>970</ele>
        <time>2022-03-03T14:31:11.617Z</time>
      </trkpt>
      <trkpt lat="44.14762" lon="6.11572">
        <ele>970</ele>
        <time>2022-03-03T14:31:12.617Z</time>
      </trkpt>
      <trkpt lat="44.14761" lon="6.11572">
        <ele>970</ele>
        <time>2022-03-03T14:31:13.617Z</time>
      </trkpt>
      <trkpt lat="44.1476" lon="6.11572">
        <ele>969</ele>
        <time>2022-03-03T14:31:14.617Z</time>
      </trkpt>
      <trkpt lat="44.14759" lon="6.11573">
        <ele>969</ele>
        <time>2022-03-03T14:31:15.617Z</time>
      </trkpt>
      <trkpt lat="44.14758" lon="6.11573">
        <ele>969</ele>
        <time>2022-03-03T14:31:16.617Z</time>
      </trkpt>
      <trkpt lat="44.14756" lon="6.11574">
        <ele>969</ele>
        <time>2022-03-03T14:31:17.617Z</time>
      </trkpt>
      <trkpt lat="44.14755" lon="6.11575">
        <ele>969</ele>
        <time>2022-03-03T14:31:18.617Z</time>
      </trkpt>
      <trkpt lat="44.14754" lon="6.11575">
        <ele>969</ele>
        <time>2022-03-03T14:31:19.617Z</time>
      </trkpt>
      <trkpt lat="44.14753" lon="6.11575">
        <ele>968</ele>
        <time>2022-03-03T14:31:20.617Z</time>
      </trkpt>
      <trkpt lat="44.14752" lon="6.11576">
        <ele>968</ele>
        <time>2022-03-03T14:31:21.617Z</time>
      </trkpt>
      <trkpt lat="44.14751" lon="6.11577">
        <ele>968</ele>
        <time>2022-03-03T14:31:22.617Z</time>
      </trkpt>
      <trkpt lat="44.14749" lon="6.11577">
        <ele>968</ele>
        <time>2022-03-03T14:31:23.617Z</time>
      </trkpt>
      <trkpt lat="44.14748" lon="6.11578">
        <ele>968</ele>
        <time>2022-03-03T14:31:24.617Z</time>
      </trkpt>
      <trkpt lat="44.14747" lon="6.11578">
        <ele>968</ele>
        <time>2022-03-03T14:31:25.617Z</time>
      </trkpt>
      <trkpt lat="44.14746" lon="6.11579">
        <ele>968</ele>
        <time>2022-03-03T14:31:26.617Z</time>
      </trkpt>
      <trkpt lat="44.14745" lon="6.11579">
        <ele>967</ele>
        <time>2022-03-03T14:31:27.617Z</time>
      </trkpt>
      <trkpt lat="44.14743" lon="6.1158">
        <ele>967</ele>
        <time>2022-03-03T14:31:28.617Z</time>
      </trkpt>
      <trkpt lat="44.14742" lon="6.11581">
        <ele>967</ele>
        <time>2022-03-03T14:31:29.617Z</time>
      </trkpt>
      <trkpt lat="44.14741" lon="6.11581">
        <ele>967</ele>
        <time>2022-03-03T14:31:30.617Z</time>
      </trkpt>
      <trkpt lat="44.1474" lon="6.11582">
        <ele>967</ele>
        <time>2022-03-03T14:31:31.617Z</time>
      </trkpt>
      <trkpt lat="44.14738" lon="6.11582">
        <ele>966</ele>
        <time>2022-03-03T14:31:32.617Z</time>
      </trkpt>
      <trkpt lat="44.14737" lon="6.11583">
        <ele>966</ele>
        <time>2022-03-03T14:31:33.617Z</time>
      </trkpt>
      <trkpt lat="44.14736" lon="6.11583">
        <ele>966</ele>
        <time>2022-03-03T14:31:34.617Z</time>
      </trkpt>
      <trkpt lat="44.14735" lon="6.11583">
        <ele>966</ele>
        <time>2022-03-03T14:31:35.617Z</time>
      </trkpt>
      <trkpt lat="44.14734" lon="6.11584">
        <ele>966</ele>
        <time>2022-03-03T14:31:36.617Z</time>
      </trkpt>
      <trkpt lat="44.14733" lon="6.11584">
        <ele>965</ele>
        <time>2022-03-03T14:31:37.617Z</time>
      </trkpt>
      <trkpt lat="44.14731" lon="6.11585">
        <ele>965</ele>
        <time>2022-03-03T14:31:38.617Z</time>
      </trkpt>
      <trkpt lat="44.14731" lon="6.11585">
        <ele>965</ele>
        <time>2022-03-03T14:31:39.617Z</time>
      </trkpt>
      <trkpt lat="44.14729" lon="6.11586">
        <ele>965</ele>
        <time>2022-03-03T14:31:40.617Z</time>
      </trkpt>
      <trkpt lat="44.14728" lon="6.11586">
        <ele>964</ele>
        <time>2022-03-03T14:31:41.617Z</time>
      </trkpt>
      <trkpt lat="44.14727" lon="6.11586">
        <ele>964</ele>
        <time>2022-03-03T14:31:42.617Z</time>
      </trkpt>
      <trkpt lat="44.14726" lon="6.11587">
        <ele>964</ele>
        <time>2022-03-03T14:31:43.617Z</time>
      </trkpt>
      <trkpt lat="44.14725" lon="6.11587">
        <ele>964</ele>
        <time>2022-03-03T14:31:44.617Z</time>
      </trkpt>
      <trkpt lat="44.14723" lon="6.11588">
        <ele>964</ele>
        <time>2022-03-03T14:31:45.617Z</time>
      </trkpt>
      <trkpt lat="44.14722" lon="6.11588">
        <ele>963</ele>
        <time>2022-03-03T14:31:46.617Z</time>
      </trkpt>
      <trkpt lat="44.14721" lon="6.11589">
        <ele>963</ele>
        <time>2022-03-03T14:31:47.617Z</time>
      </trkpt>
      <trkpt lat="44.1472" lon="6.11589">
        <ele>963</ele>
        <time>2022-03-03T14:31:48.617Z</time>
      </trkpt>
      <trkpt lat="44.14719" lon="6.1159">
        <ele>963</ele>
        <time>2022-03-03T14:31:49.617Z</time>
      </trkpt>
      <trkpt lat="44.14718" lon="6.1159">
        <ele>963</ele>
        <time>2022-03-03T14:31:50.617Z</time>
      </trkpt>
      <trkpt lat="44.14716" lon="6.1159">
        <ele>962</ele>
        <time>2022-03-03T14:31:51.617Z</time>
      </trkpt>
      <trkpt lat="44.14715" lon="6.11591">
        <ele>962</ele>
        <time>2022-03-03T14:31:52.617Z</time>
      </trkpt>
      <trkpt lat="44.14714" lon="6.11592">
        <ele>962</ele>
        <time>2022-03-03T14:31:53.617Z</time>
      </trkpt>
      <trkpt lat="44.14713" lon="6.11592">
        <ele>962</ele>
        <time>2022-03-03T14:31:54.617Z</time>
      </trkpt>
      <trkpt lat="44.14712" lon="6.11593">
        <ele>962</ele>
        <time>2022-03-03T14:31:55.617Z</time>
      </trkpt>
      <trkpt lat="44.1471" lon="6.11593">
        <ele>961</ele>
        <time>2022-03-03T14:31:56.617Z</time>
      </trkpt>
      <trkpt lat="44.14709" lon="6.11594">
        <ele>961</ele>
        <time>2022-03-03T14:31:57.617Z</time>
      </trkpt>
      <trkpt lat="44.14708" lon="6.11594">
        <ele>961</ele>
        <time>2022-03-03T14:31:58.617Z</time>
      </trkpt>
      <trkpt lat="44.14707" lon="6.11595">
        <ele>961</ele>
        <time>2022-03-03T14:31:59.617Z</time>
      </trkpt>
      <trkpt lat="44.14706" lon="6.11595">
        <ele>960</ele>
        <time>2022-03-03T14:32:00.617Z</time>
      </trkpt>
      <trkpt lat="44.14705" lon="6.11595">
        <ele>960</ele>
        <time>2022-03-03T14:32:01.617Z</time>
      </trkpt>
      <trkpt lat="44.14704" lon="6.11596">
        <ele>960</ele>
        <time>2022-03-03T14:32:02.617Z</time>
      </trkpt>
      <trkpt lat="44.14702" lon="6.11596">
        <ele>960</ele>
        <time>2022-03-03T14:32:03.617Z</time>
      </trkpt>
      <trkpt lat="44.14701" lon="6.11597">
        <ele>959</ele>
        <time>2022-03-03T14:32:04.617Z</time>
      </trkpt>
      <trkpt lat="44.147" lon="6.11597">
        <ele>959</ele>
        <time>2022-03-03T14:32:05.617Z</time>
      </trkpt>
      <trkpt lat="44.14699" lon="6.11598">
        <ele>959</ele>
        <time>2022-03-03T14:32:06.617Z</time>
      </trkpt>
      <trkpt lat="44.14697" lon="6.11598">
        <ele>959</ele>
        <time>2022-03-03T14:32:07.617Z</time>
      </trkpt>
      <trkpt lat="44.14696" lon="6.11598">
        <ele>959</ele>
        <time>2022-03-03T14:32:08.617Z</time>
      </trkpt>
      <trkpt lat="44.14695" lon="6.11599">
        <ele>959</ele>
        <time>2022-03-03T14:32:09.617Z</time>
      </trkpt>
      <trkpt lat="44.14694" lon="6.116">
        <ele>958</ele>
        <time>2022-03-03T14:32:10.617Z</time>
      </trkpt>
      <trkpt lat="44.14692" lon="6.116">
        <ele>958</ele>
        <time>2022-03-03T14:32:11.617Z</time>
      </trkpt>
      <trkpt lat="44.14691" lon="6.11601">
        <ele>958</ele>
        <time>2022-03-03T14:32:12.617Z</time>
      </trkpt>
      <trkpt lat="44.1469" lon="6.11601">
        <ele>958</ele>
        <time>2022-03-03T14:32:13.617Z</time>
      </trkpt>
      <trkpt lat="44.14689" lon="6.11602">
        <ele>958</ele>
        <time>2022-03-03T14:32:14.617Z</time>
      </trkpt>
      <trkpt lat="44.14688" lon="6.11602">
        <ele>957</ele>
        <time>2022-03-03T14:32:15.617Z</time>
      </trkpt>
      <trkpt lat="44.14687" lon="6.11602">
        <ele>957</ele>
        <time>2022-03-03T14:32:16.617Z</time>
      </trkpt>
      <trkpt lat="44.14686" lon="6.11603">
        <ele>957</ele>
        <time>2022-03-03T14:32:17.617Z</time>
      </trkpt>
      <trkpt lat="44.14685" lon="6.11603">
        <ele>957</ele>
        <time>2022-03-03T14:32:18.617Z</time>
      </trkpt>
      <trkpt lat="44.14683" lon="6.11604">
        <ele>957</ele>
        <time>2022-03-03T14:32:19.617Z</time>
      </trkpt>
      <trkpt lat="44.14682" lon="6.11604">
        <ele>957</ele>
        <time>2022-03-03T14:32:20.617Z</time>
      </trkpt>
      <trkpt lat="44.14681" lon="6.11605">
        <ele>957</ele>
        <time>2022-03-03T14:32:21.617Z</time>
      </trkpt>
      <trkpt lat="44.1468" lon="6.11605">
        <ele>956</ele>
        <time>2022-03-03T14:32:22.617Z</time>
      </trkpt>
      <trkpt lat="44.14679" lon="6.11606">
        <ele>956</ele>
        <time>2022-03-03T14:32:23.617Z</time>
      </trkpt>
      <trkpt lat="44.14678" lon="6.11606">
        <ele>956</ele>
        <time>2022-03-03T14:32:24.617Z</time>
      </trkpt>
      <trkpt lat="44.14677" lon="6.11607">
        <ele>956</ele>
        <time>2022-03-03T14:32:25.617Z</time>
      </trkpt>
      <trkpt lat="44.14676" lon="6.11607">
        <ele>955</ele>
        <time>2022-03-03T14:32:26.617Z</time>
      </trkpt>
      <trkpt lat="44.14675" lon="6.11608">
        <ele>955</ele>
        <time>2022-03-03T14:32:27.617Z</time>
      </trkpt>
      <trkpt lat="44.14674" lon="6.11609">
        <ele>955</ele>
        <time>2022-03-03T14:32:28.617Z</time>
      </trkpt>
      <trkpt lat="44.14673" lon="6.11609">
        <ele>955</ele>
        <time>2022-03-03T14:32:29.617Z</time>
      </trkpt>
      <trkpt lat="44.14672" lon="6.1161">
        <ele>954</ele>
        <time>2022-03-03T14:32:30.617Z</time>
      </trkpt>
      <trkpt lat="44.14671" lon="6.1161">
        <ele>954</ele>
        <time>2022-03-03T14:32:31.617Z</time>
      </trkpt>
      <trkpt lat="44.14669" lon="6.11611">
        <ele>954</ele>
        <time>2022-03-03T14:32:32.617Z</time>
      </trkpt>
      <trkpt lat="44.14668" lon="6.11611">
        <ele>954</ele>
        <time>2022-03-03T14:32:33.617Z</time>
      </trkpt>
      <trkpt lat="44.14667" lon="6.11612">
        <ele>954</ele>
        <time>2022-03-03T14:32:34.617Z</time>
      </trkpt>
      <trkpt lat="44.14666" lon="6.11613">
        <ele>953</ele>
        <time>2022-03-03T14:32:35.617Z</time>
      </trkpt>
      <trkpt lat="44.14665" lon="6.11613">
        <ele>953</ele>
        <time>2022-03-03T14:32:36.617Z</time>
      </trkpt>
      <trkpt lat="44.14664" lon="6.11614">
        <ele>953</ele>
        <time>2022-03-03T14:32:37.617Z</time>
      </trkpt>
      <trkpt lat="44.14662" lon="6.11614">
        <ele>953</ele>
        <time>2022-03-03T14:32:38.617Z</time>
      </trkpt>
      <trkpt lat="44.14661" lon="6.11615">
        <ele>953</ele>
        <time>2022-03-03T14:32:39.617Z</time>
      </trkpt>
      <trkpt lat="44.1466" lon="6.11616">
        <ele>953</ele>
        <time>2022-03-03T14:32:40.617Z</time>
      </trkpt>
      <trkpt lat="44.14659" lon="6.11616">
        <ele>952</ele>
        <time>2022-03-03T14:32:41.617Z</time>
      </trkpt>
      <trkpt lat="44.14658" lon="6.11617">
        <ele>952</ele>
        <time>2022-03-03T14:32:42.617Z</time>
      </trkpt>
      <trkpt lat="44.14656" lon="6.11617">
        <ele>952</ele>
        <time>2022-03-03T14:32:43.617Z</time>
      </trkpt>
      <trkpt lat="44.14655" lon="6.11617">
        <ele>952</ele>
        <time>2022-03-03T14:32:44.617Z</time>
      </trkpt>
      <trkpt lat="44.14654" lon="6.11617">
        <ele>952</ele>
        <time>2022-03-03T14:32:45.617Z</time>
      </trkpt>
      <trkpt lat="44.14653" lon="6.11617">
        <ele>951</ele>
        <time>2022-03-03T14:32:46.617Z</time>
      </trkpt>
      <trkpt lat="44.14652" lon="6.11618">
        <ele>951</ele>
        <time>2022-03-03T14:32:47.617Z</time>
      </trkpt>
      <trkpt lat="44.14651" lon="6.11618">
        <ele>951</ele>
        <time>2022-03-03T14:32:48.617Z</time>
      </trkpt>
      <trkpt lat="44.14649" lon="6.11619">
        <ele>951</ele>
        <time>2022-03-03T14:32:49.617Z</time>
      </trkpt>
      <trkpt lat="44.14648" lon="6.11619">
        <ele>950</ele>
        <time>2022-03-03T14:32:50.617Z</time>
      </trkpt>
      <trkpt lat="44.14647" lon="6.11619">
        <ele>950</ele>
        <time>2022-03-03T14:32:51.617Z</time>
      </trkpt>
      <trkpt lat="44.14646" lon="6.1162">
        <ele>950</ele>
        <time>2022-03-03T14:32:52.617Z</time>
      </trkpt>
      <trkpt lat="44.14645" lon="6.1162">
        <ele>950</ele>
        <time>2022-03-03T14:32:53.617Z</time>
      </trkpt>
      <trkpt lat="44.14644" lon="6.1162">
        <ele>950</ele>
        <time>2022-03-03T14:32:54.617Z</time>
      </trkpt>
      <trkpt lat="44.14643" lon="6.11621">
        <ele>949</ele>
        <time>2022-03-03T14:32:55.617Z</time>
      </trkpt>
      <trkpt lat="44.14642" lon="6.11621">
        <ele>949</ele>
        <time>2022-03-03T14:32:56.617Z</time>
      </trkpt>
      <trkpt lat="44.14641" lon="6.11622">
        <ele>949</ele>
        <time>2022-03-03T14:32:57.617Z</time>
      </trkpt>
      <trkpt lat="44.1464" lon="6.11622">
        <ele>949</ele>
        <time>2022-03-03T14:32:58.617Z</time>
      </trkpt>
      <trkpt lat="44.14639" lon="6.11622">
        <ele>949</ele>
        <time>2022-03-03T14:32:59.617Z</time>
      </trkpt>
      <trkpt lat="44.14637" lon="6.11623">
        <ele>948</ele>
        <time>2022-03-03T14:33:00.617Z</time>
      </trkpt>
      <trkpt lat="44.14636" lon="6.11623">
        <ele>948</ele>
        <time>2022-03-03T14:33:01.617Z</time>
      </trkpt>
      <trkpt lat="44.14635" lon="6.11623">
        <ele>948</ele>
        <time>2022-03-03T14:33:02.617Z</time>
      </trkpt>
      <trkpt lat="44.14634" lon="6.11623">
        <ele>948</ele>
        <time>2022-03-03T14:33:03.617Z</time>
      </trkpt>
      <trkpt lat="44.14633" lon="6.11624">
        <ele>948</ele>
        <time>2022-03-03T14:33:04.617Z</time>
      </trkpt>
      <trkpt lat="44.14631" lon="6.11624">
        <ele>947</ele>
        <time>2022-03-03T14:33:05.617Z</time>
      </trkpt>
      <trkpt lat="44.1463" lon="6.11625">
        <ele>947</ele>
        <time>2022-03-03T14:33:06.617Z</time>
      </trkpt>
      <trkpt lat="44.14629" lon="6.11625">
        <ele>947</ele>
        <time>2022-03-03T14:33:07.617Z</time>
      </trkpt>
      <trkpt lat="44.14628" lon="6.11626">
        <ele>947</ele>
        <time>2022-03-03T14:33:08.617Z</time>
      </trkpt>
      <trkpt lat="44.14627" lon="6.11626">
        <ele>947</ele>
        <time>2022-03-03T14:33:09.617Z</time>
      </trkpt>
      <trkpt lat="44.14626" lon="6.11626">
        <ele>947</ele>
        <time>2022-03-03T14:33:10.617Z</time>
      </trkpt>
      <trkpt lat="44.14625" lon="6.11627">
        <ele>946</ele>
        <time>2022-03-03T14:33:11.617Z</time>
      </trkpt>
      <trkpt lat="44.14624" lon="6.11627">
        <ele>946</ele>
        <time>2022-03-03T14:33:12.617Z</time>
      </trkpt>
      <trkpt lat="44.14622" lon="6.11628">
        <ele>946</ele>
        <time>2022-03-03T14:33:13.617Z</time>
      </trkpt>
      <trkpt lat="44.14621" lon="6.11628">
        <ele>946</ele>
        <time>2022-03-03T14:33:14.617Z</time>
      </trkpt>
      <trkpt lat="44.1462" lon="6.11629">
        <ele>946</ele>
        <time>2022-03-03T14:33:15.617Z</time>
      </trkpt>
      <trkpt lat="44.14619" lon="6.11629">
        <ele>946</ele>
        <time>2022-03-03T14:33:16.617Z</time>
      </trkpt>
      <trkpt lat="44.14618" lon="6.1163">
        <ele>946</ele>
        <time>2022-03-03T14:33:17.617Z</time>
      </trkpt>
      <trkpt lat="44.14617" lon="6.1163">
        <ele>946</ele>
        <time>2022-03-03T14:33:18.617Z</time>
      </trkpt>
      <trkpt lat="44.14616" lon="6.11631">
        <ele>945</ele>
        <time>2022-03-03T14:33:19.617Z</time>
      </trkpt>
      <trkpt lat="44.14615" lon="6.11632">
        <ele>945</ele>
        <time>2022-03-03T14:33:20.617Z</time>
      </trkpt>
      <trkpt lat="44.14613" lon="6.11632">
        <ele>945</ele>
        <time>2022-03-03T14:33:21.617Z</time>
      </trkpt>
      <trkpt lat="44.14612" lon="6.11633">
        <ele>945</ele>
        <time>2022-03-03T14:33:22.617Z</time>
      </trkpt>
      <trkpt lat="44.14611" lon="6.11633">
        <ele>945</ele>
        <time>2022-03-03T14:33:23.617Z</time>
      </trkpt>
      <trkpt lat="44.1461" lon="6.11633">
        <ele>945</ele>
        <time>2022-03-03T14:33:24.617Z</time>
      </trkpt>
      <trkpt lat="44.14609" lon="6.11634">
        <ele>944</ele>
        <time>2022-03-03T14:33:25.617Z</time>
      </trkpt>
      <trkpt lat="44.14608" lon="6.11634">
        <ele>944</ele>
        <time>2022-03-03T14:33:26.617Z</time>
      </trkpt>
      <trkpt lat="44.14607" lon="6.11634">
        <ele>944</ele>
        <time>2022-03-03T14:33:27.617Z</time>
      </trkpt>
      <trkpt lat="44.14606" lon="6.11635">
        <ele>944</ele>
        <time>2022-03-03T14:33:28.617Z</time>
      </trkpt>
      <trkpt lat="44.14605" lon="6.11635">
        <ele>944</ele>
        <time>2022-03-03T14:33:29.617Z</time>
      </trkpt>
      <trkpt lat="44.14604" lon="6.11635">
        <ele>943</ele>
        <time>2022-03-03T14:33:30.617Z</time>
      </trkpt>
      <trkpt lat="44.14603" lon="6.11636">
        <ele>943</ele>
        <time>2022-03-03T14:33:31.617Z</time>
      </trkpt>
      <trkpt lat="44.14602" lon="6.11636">
        <ele>943</ele>
        <time>2022-03-03T14:33:32.617Z</time>
      </trkpt>
      <trkpt lat="44.14601" lon="6.11637">
        <ele>943</ele>
        <time>2022-03-03T14:33:33.617Z</time>
      </trkpt>
      <trkpt lat="44.146" lon="6.11637">
        <ele>942</ele>
        <time>2022-03-03T14:33:34.617Z</time>
      </trkpt>
      <trkpt lat="44.14599" lon="6.11638">
        <ele>942</ele>
        <time>2022-03-03T14:33:35.617Z</time>
      </trkpt>
      <trkpt lat="44.14598" lon="6.11638">
        <ele>942</ele>
        <time>2022-03-03T14:33:36.617Z</time>
      </trkpt>
      <trkpt lat="44.14597" lon="6.11639">
        <ele>941</ele>
        <time>2022-03-03T14:33:37.617Z</time>
      </trkpt>
      <trkpt lat="44.14596" lon="6.11639">
        <ele>941</ele>
        <time>2022-03-03T14:33:38.617Z</time>
      </trkpt>
      <trkpt lat="44.14595" lon="6.11639">
        <ele>941</ele>
        <time>2022-03-03T14:33:39.617Z</time>
      </trkpt>
      <trkpt lat="44.14594" lon="6.1164">
        <ele>940</ele>
        <time>2022-03-03T14:33:40.617Z</time>
      </trkpt>
      <trkpt lat="44.14593" lon="6.1164">
        <ele>940</ele>
        <time>2022-03-03T14:33:41.617Z</time>
      </trkpt>
      <trkpt lat="44.14592" lon="6.1164">
        <ele>940</ele>
        <time>2022-03-03T14:33:42.617Z</time>
      </trkpt>
      <trkpt lat="44.14591" lon="6.11641">
        <ele>939</ele>
        <time>2022-03-03T14:33:43.617Z</time>
      </trkpt>
      <trkpt lat="44.1459" lon="6.11641">
        <ele>939</ele>
        <time>2022-03-03T14:33:44.617Z</time>
      </trkpt>
      <trkpt lat="44.14589" lon="6.11641">
        <ele>939</ele>
        <time>2022-03-03T14:33:45.617Z</time>
      </trkpt>
      <trkpt lat="44.14588" lon="6.11642">
        <ele>939</ele>
        <time>2022-03-03T14:33:46.617Z</time>
      </trkpt>
      <trkpt lat="44.14587" lon="6.11642">
        <ele>938</ele>
        <time>2022-03-03T14:33:47.617Z</time>
      </trkpt>
      <trkpt lat="44.14586" lon="6.11642">
        <ele>938</ele>
        <time>2022-03-03T14:33:48.617Z</time>
      </trkpt>
      <trkpt lat="44.14586" lon="6.11642">
        <ele>938</ele>
        <time>2022-03-03T14:33:49.617Z</time>
      </trkpt>
      <trkpt lat="44.14586" lon="6.11642">
        <ele>938</ele>
        <time>2022-03-03T14:33:50.617Z</time>
      </trkpt>
      <trkpt lat="44.14586" lon="6.11642">
        <ele>938</ele>
        <time>2022-03-03T14:33:51.617Z</time>
      </trkpt>
      <trkpt lat="44.14586" lon="6.11642">
        <ele>938</ele>
        <time>2022-03-03T14:33:52.617Z</time>
      </trkpt>
      <trkpt lat="44.14586" lon="6.11642">
        <ele>938</ele>
        <time>2022-03-03T14:33:53.617Z</time>
      </trkpt>
      <trkpt lat="44.14586" lon="6.11642">
        <ele>938</ele>
        <time>2022-03-03T14:33:54.617Z</time>
      </trkpt>
      <trkpt lat="44.14585" lon="6.11643">
        <ele>938</ele>
        <time>2022-03-03T14:33:55.617Z</time>
      </trkpt>
      <trkpt lat="44.14584" lon="6.11643">
        <ele>938</ele>
        <time>2022-03-03T14:33:56.617Z</time>
      </trkpt>
      <trkpt lat="44.14584" lon="6.11643">
        <ele>937</ele>
        <time>2022-03-03T14:33:57.617Z</time>
      </trkpt>
      <trkpt lat="44.14583" lon="6.11644">
        <ele>937</ele>
        <time>2022-03-03T14:33:58.617Z</time>
      </trkpt>
      <trkpt lat="44.14581" lon="6.11644">
        <ele>937</ele>
        <time>2022-03-03T14:33:59.617Z</time>
      </trkpt>
      <trkpt lat="44.1458" lon="6.11645">
        <ele>937</ele>
        <time>2022-03-03T14:34:00.617Z</time>
      </trkpt>
      <trkpt lat="44.14579" lon="6.11645">
        <ele>937</ele>
        <time>2022-03-03T14:34:01.617Z</time>
      </trkpt>
      <trkpt lat="44.14578" lon="6.11645">
        <ele>936</ele>
        <time>2022-03-03T14:34:02.617Z</time>
      </trkpt>
      <trkpt lat="44.14577" lon="6.11646">
        <ele>936</ele>
        <time>2022-03-03T14:34:03.617Z</time>
      </trkpt>
      <trkpt lat="44.14576" lon="6.11646">
        <ele>936</ele>
        <time>2022-03-03T14:34:04.617Z</time>
      </trkpt>
      <trkpt lat="44.14575" lon="6.11646">
        <ele>936</ele>
        <time>2022-03-03T14:34:05.617Z</time>
      </trkpt>
      <trkpt lat="44.14574" lon="6.11647">
        <ele>936</ele>
        <time>2022-03-03T14:34:06.617Z</time>
      </trkpt>
      <trkpt lat="44.14572" lon="6.11647">
        <ele>936</ele>
        <time>2022-03-03T14:34:07.617Z</time>
      </trkpt>
      <trkpt lat="44.14571" lon="6.11647">
        <ele>935</ele>
        <time>2022-03-03T14:34:08.617Z</time>
      </trkpt>
      <trkpt lat="44.1457" lon="6.11648">
        <ele>935</ele>
        <time>2022-03-03T14:34:09.617Z</time>
      </trkpt>
      <trkpt lat="44.14569" lon="6.11649">
        <ele>935</ele>
        <time>2022-03-03T14:34:10.617Z</time>
      </trkpt>
      <trkpt lat="44.14568" lon="6.11649">
        <ele>935</ele>
        <time>2022-03-03T14:34:11.617Z</time>
      </trkpt>
      <trkpt lat="44.14567" lon="6.11649">
        <ele>935</ele>
        <time>2022-03-03T14:34:12.617Z</time>
      </trkpt>
      <trkpt lat="44.14566" lon="6.1165">
        <ele>934</ele>
        <time>2022-03-03T14:34:13.617Z</time>
      </trkpt>
      <trkpt lat="44.14565" lon="6.1165">
        <ele>934</ele>
        <time>2022-03-03T14:34:14.617Z</time>
      </trkpt>
      <trkpt lat="44.14564" lon="6.1165">
        <ele>934</ele>
        <time>2022-03-03T14:34:15.617Z</time>
      </trkpt>
      <trkpt lat="44.14563" lon="6.1165">
        <ele>934</ele>
        <time>2022-03-03T14:34:16.617Z</time>
      </trkpt>
      <trkpt lat="44.14562" lon="6.11651">
        <ele>933</ele>
        <time>2022-03-03T14:34:17.617Z</time>
      </trkpt>
      <trkpt lat="44.14561" lon="6.1165">
        <ele>933</ele>
        <time>2022-03-03T14:34:18.617Z</time>
      </trkpt>
      <trkpt lat="44.1456" lon="6.11651">
        <ele>933</ele>
        <time>2022-03-03T14:34:19.617Z</time>
      </trkpt>
      <trkpt lat="44.14559" lon="6.11651">
        <ele>933</ele>
        <time>2022-03-03T14:34:20.617Z</time>
      </trkpt>
      <trkpt lat="44.14558" lon="6.11652">
        <ele>932</ele>
        <time>2022-03-03T14:34:21.617Z</time>
      </trkpt>
      <trkpt lat="44.14557" lon="6.11652">
        <ele>932</ele>
        <time>2022-03-03T14:34:22.617Z</time>
      </trkpt>
      <trkpt lat="44.14556" lon="6.11653">
        <ele>932</ele>
        <time>2022-03-03T14:34:23.617Z</time>
      </trkpt>
      <trkpt lat="44.14554" lon="6.11653">
        <ele>932</ele>
        <time>2022-03-03T14:34:24.617Z</time>
      </trkpt>
      <trkpt lat="44.14553" lon="6.11653">
        <ele>932</ele>
        <time>2022-03-03T14:34:25.617Z</time>
      </trkpt>
      <trkpt lat="44.14552" lon="6.11653">
        <ele>931</ele>
        <time>2022-03-03T14:34:26.617Z</time>
      </trkpt>
      <trkpt lat="44.14551" lon="6.11654">
        <ele>931</ele>
        <time>2022-03-03T14:34:27.617Z</time>
      </trkpt>
      <trkpt lat="44.1455" lon="6.11654">
        <ele>931</ele>
        <time>2022-03-03T14:34:28.617Z</time>
      </trkpt>
      <trkpt lat="44.14549" lon="6.11655">
        <ele>931</ele>
        <time>2022-03-03T14:34:29.617Z</time>
      </trkpt>
      <trkpt lat="44.14548" lon="6.11655">
        <ele>931</ele>
        <time>2022-03-03T14:34:30.617Z</time>
      </trkpt>
      <trkpt lat="44.14547" lon="6.11656">
        <ele>930</ele>
        <time>2022-03-03T14:34:31.617Z</time>
      </trkpt>
      <trkpt lat="44.14546" lon="6.11656">
        <ele>930</ele>
        <time>2022-03-03T14:34:32.617Z</time>
      </trkpt>
      <trkpt lat="44.14545" lon="6.11657">
        <ele>930</ele>
        <time>2022-03-03T14:34:33.617Z</time>
      </trkpt>
      <trkpt lat="44.14544" lon="6.11657">
        <ele>930</ele>
        <time>2022-03-03T14:34:34.617Z</time>
      </trkpt>
      <trkpt lat="44.14542" lon="6.11657">
        <ele>930</ele>
        <time>2022-03-03T14:34:35.617Z</time>
      </trkpt>
      <trkpt lat="44.14541" lon="6.11658">
        <ele>930</ele>
        <time>2022-03-03T14:34:36.617Z</time>
      </trkpt>
      <trkpt lat="44.1454" lon="6.11658">
        <ele>929</ele>
        <time>2022-03-03T14:34:37.617Z</time>
      </trkpt>
      <trkpt lat="44.14539" lon="6.11658">
        <ele>929</ele>
        <time>2022-03-03T14:34:38.617Z</time>
      </trkpt>
      <trkpt lat="44.14538" lon="6.11658">
        <ele>929</ele>
        <time>2022-03-03T14:34:39.617Z</time>
      </trkpt>
      <trkpt lat="44.14537" lon="6.11659">
        <ele>929</ele>
        <time>2022-03-03T14:34:40.617Z</time>
      </trkpt>
      <trkpt lat="44.14536" lon="6.11659">
        <ele>929</ele>
        <time>2022-03-03T14:34:41.617Z</time>
      </trkpt>
      <trkpt lat="44.14535" lon="6.1166">
        <ele>928</ele>
        <time>2022-03-03T14:34:42.617Z</time>
      </trkpt>
      <trkpt lat="44.14533" lon="6.1166">
        <ele>928</ele>
        <time>2022-03-03T14:34:43.617Z</time>
      </trkpt>
      <trkpt lat="44.14532" lon="6.1166">
        <ele>928</ele>
        <time>2022-03-03T14:34:44.617Z</time>
      </trkpt>
      <trkpt lat="44.14531" lon="6.11661">
        <ele>928</ele>
        <time>2022-03-03T14:34:45.617Z</time>
      </trkpt>
      <trkpt lat="44.1453" lon="6.11661">
        <ele>928</ele>
        <time>2022-03-03T14:34:46.617Z</time>
      </trkpt>
      <trkpt lat="44.14528" lon="6.11662">
        <ele>927</ele>
        <time>2022-03-03T14:34:47.617Z</time>
      </trkpt>
      <trkpt lat="44.14527" lon="6.11662">
        <ele>927</ele>
        <time>2022-03-03T14:34:48.617Z</time>
      </trkpt>
      <trkpt lat="44.14526" lon="6.11662">
        <ele>927</ele>
        <time>2022-03-03T14:34:49.617Z</time>
      </trkpt>
      <trkpt lat="44.14525" lon="6.11662">
        <ele>926</ele>
        <time>2022-03-03T14:34:50.617Z</time>
      </trkpt>
      <trkpt lat="44.14524" lon="6.11662">
        <ele>926</ele>
        <time>2022-03-03T14:34:51.617Z</time>
      </trkpt>
      <trkpt lat="44.14523" lon="6.11663">
        <ele>926</ele>
        <time>2022-03-03T14:34:52.617Z</time>
      </trkpt>
      <trkpt lat="44.14522" lon="6.11663">
        <ele>926</ele>
        <time>2022-03-03T14:34:53.617Z</time>
      </trkpt>
      <trkpt lat="44.14521" lon="6.11664">
        <ele>926</ele>
        <time>2022-03-03T14:34:54.617Z</time>
      </trkpt>
      <trkpt lat="44.14519" lon="6.11664">
        <ele>925</ele>
        <time>2022-03-03T14:34:55.617Z</time>
      </trkpt>
      <trkpt lat="44.14518" lon="6.11664">
        <ele>925</ele>
        <time>2022-03-03T14:34:56.617Z</time>
      </trkpt>
      <trkpt lat="44.14517" lon="6.11665">
        <ele>925</ele>
        <time>2022-03-03T14:34:57.617Z</time>
      </trkpt>
      <trkpt lat="44.14516" lon="6.11665">
        <ele>925</ele>
        <time>2022-03-03T14:34:58.617Z</time>
      </trkpt>
      <trkpt lat="44.14515" lon="6.11666">
        <ele>925</ele>
        <time>2022-03-03T14:34:59.617Z</time>
      </trkpt>
      <trkpt lat="44.14513" lon="6.11666">
        <ele>924</ele>
        <time>2022-03-03T14:35:00.617Z</time>
      </trkpt>
      <trkpt lat="44.14512" lon="6.11666">
        <ele>924</ele>
        <time>2022-03-03T14:35:01.617Z</time>
      </trkpt>
      <trkpt lat="44.14511" lon="6.11666">
        <ele>924</ele>
        <time>2022-03-03T14:35:02.617Z</time>
      </trkpt>
      <trkpt lat="44.1451" lon="6.11667">
        <ele>924</ele>
        <time>2022-03-03T14:35:03.617Z</time>
      </trkpt>
      <trkpt lat="44.14509" lon="6.11667">
        <ele>924</ele>
        <time>2022-03-03T14:35:04.617Z</time>
      </trkpt>
      <trkpt lat="44.14507" lon="6.11668">
        <ele>923</ele>
        <time>2022-03-03T14:35:05.617Z</time>
      </trkpt>
      <trkpt lat="44.14506" lon="6.11668">
        <ele>923</ele>
        <time>2022-03-03T14:35:06.617Z</time>
      </trkpt>
      <trkpt lat="44.14505" lon="6.11668">
        <ele>923</ele>
        <time>2022-03-03T14:35:07.617Z</time>
      </trkpt>
      <trkpt lat="44.14504" lon="6.11669">
        <ele>923</ele>
        <time>2022-03-03T14:35:08.617Z</time>
      </trkpt>
      <trkpt lat="44.14502" lon="6.11669">
        <ele>922</ele>
        <time>2022-03-03T14:35:09.617Z</time>
      </trkpt>
      <trkpt lat="44.14501" lon="6.11669">
        <ele>922</ele>
        <time>2022-03-03T14:35:10.617Z</time>
      </trkpt>
      <trkpt lat="44.145" lon="6.11669">
        <ele>922</ele>
        <time>2022-03-03T14:35:11.617Z</time>
      </trkpt>
      <trkpt lat="44.14499" lon="6.1167">
        <ele>922</ele>
        <time>2022-03-03T14:35:12.617Z</time>
      </trkpt>
      <trkpt lat="44.14498" lon="6.1167">
        <ele>922</ele>
        <time>2022-03-03T14:35:13.617Z</time>
      </trkpt>
      <trkpt lat="44.14496" lon="6.1167">
        <ele>922</ele>
        <time>2022-03-03T14:35:14.617Z</time>
      </trkpt>
      <trkpt lat="44.14495" lon="6.11671">
        <ele>921</ele>
        <time>2022-03-03T14:35:15.617Z</time>
      </trkpt>
      <trkpt lat="44.14494" lon="6.11671">
        <ele>921</ele>
        <time>2022-03-03T14:35:16.617Z</time>
      </trkpt>
      <trkpt lat="44.14493" lon="6.11671">
        <ele>921</ele>
        <time>2022-03-03T14:35:17.617Z</time>
      </trkpt>
      <trkpt lat="44.14492" lon="6.11672">
        <ele>921</ele>
        <time>2022-03-03T14:35:18.617Z</time>
      </trkpt>
      <trkpt lat="44.14491" lon="6.11672">
        <ele>921</ele>
        <time>2022-03-03T14:35:19.617Z</time>
      </trkpt>
      <trkpt lat="44.14489" lon="6.11672">
        <ele>921</ele>
        <time>2022-03-03T14:35:20.617Z</time>
      </trkpt>
      <trkpt lat="44.14488" lon="6.11673">
        <ele>920</ele>
        <time>2022-03-03T14:35:21.617Z</time>
      </trkpt>
      <trkpt lat="44.14487" lon="6.11673">
        <ele>920</ele>
        <time>2022-03-03T14:35:22.617Z</time>
      </trkpt>
      <trkpt lat="44.14486" lon="6.11674">
        <ele>920</ele>
        <time>2022-03-03T14:35:23.617Z</time>
      </trkpt>
      <trkpt lat="44.14485" lon="6.11674">
        <ele>920</ele>
        <time>2022-03-03T14:35:24.617Z</time>
      </trkpt>
      <trkpt lat="44.14484" lon="6.11675">
        <ele>920</ele>
        <time>2022-03-03T14:35:25.617Z</time>
      </trkpt>
      <trkpt lat="44.14483" lon="6.11675">
        <ele>920</ele>
        <time>2022-03-03T14:35:26.617Z</time>
      </trkpt>
      <trkpt lat="44.14481" lon="6.11676">
        <ele>920</ele>
        <time>2022-03-03T14:35:27.617Z</time>
      </trkpt>
      <trkpt lat="44.1448" lon="6.11676">
        <ele>919</ele>
        <time>2022-03-03T14:35:28.617Z</time>
      </trkpt>
      <trkpt lat="44.14479" lon="6.11676">
        <ele>919</ele>
        <time>2022-03-03T14:35:29.617Z</time>
      </trkpt>
      <trkpt lat="44.14478" lon="6.11676">
        <ele>919</ele>
        <time>2022-03-03T14:35:30.617Z</time>
      </trkpt>
      <trkpt lat="44.14477" lon="6.11676">
        <ele>919</ele>
        <time>2022-03-03T14:35:31.617Z</time>
      </trkpt>
      <trkpt lat="44.14476" lon="6.11677">
        <ele>919</ele>
        <time>2022-03-03T14:35:32.617Z</time>
      </trkpt>
      <trkpt lat="44.14474" lon="6.11676">
        <ele>918</ele>
        <time>2022-03-03T14:35:33.617Z</time>
      </trkpt>
      <trkpt lat="44.14473" lon="6.11676">
        <ele>918</ele>
        <time>2022-03-03T14:35:34.617Z</time>
      </trkpt>
      <trkpt lat="44.14472" lon="6.11676">
        <ele>918</ele>
        <time>2022-03-03T14:35:35.617Z</time>
      </trkpt>
      <trkpt lat="44.14471" lon="6.11676">
        <ele>918</ele>
        <time>2022-03-03T14:35:36.617Z</time>
      </trkpt>
      <trkpt lat="44.1447" lon="6.11676">
        <ele>917</ele>
        <time>2022-03-03T14:35:37.617Z</time>
      </trkpt>
      <trkpt lat="44.14469" lon="6.11676">
        <ele>917</ele>
        <time>2022-03-03T14:35:38.617Z</time>
      </trkpt>
      <trkpt lat="44.14467" lon="6.11676">
        <ele>917</ele>
        <time>2022-03-03T14:35:39.617Z</time>
      </trkpt>
      <trkpt lat="44.14466" lon="6.11676">
        <ele>917</ele>
        <time>2022-03-03T14:35:40.617Z</time>
      </trkpt>
      <trkpt lat="44.14465" lon="6.11676">
        <ele>917</ele>
        <time>2022-03-03T14:35:41.617Z</time>
      </trkpt>
      <trkpt lat="44.14464" lon="6.11676">
        <ele>916</ele>
        <time>2022-03-03T14:35:42.617Z</time>
      </trkpt>
      <trkpt lat="44.14463" lon="6.11676">
        <ele>916</ele>
        <time>2022-03-03T14:35:43.617Z</time>
      </trkpt>
      <trkpt lat="44.14461" lon="6.11677">
        <ele>916</ele>
        <time>2022-03-03T14:35:44.617Z</time>
      </trkpt>
      <trkpt lat="44.1446" lon="6.11677">
        <ele>916</ele>
        <time>2022-03-03T14:35:45.617Z</time>
      </trkpt>
      <trkpt lat="44.14459" lon="6.11677">
        <ele>915</ele>
        <time>2022-03-03T14:35:46.617Z</time>
      </trkpt>
      <trkpt lat="44.14458" lon="6.11677">
        <ele>915</ele>
        <time>2022-03-03T14:35:47.617Z</time>
      </trkpt>
      <trkpt lat="44.14457" lon="6.11677">
        <ele>915</ele>
        <time>2022-03-03T14:35:48.617Z</time>
      </trkpt>
      <trkpt lat="44.14456" lon="6.11678">
        <ele>915</ele>
        <time>2022-03-03T14:35:49.617Z</time>
      </trkpt>
      <trkpt lat="44.14455" lon="6.11678">
        <ele>915</ele>
        <time>2022-03-03T14:35:50.617Z</time>
      </trkpt>
      <trkpt lat="44.14453" lon="6.11678">
        <ele>914</ele>
        <time>2022-03-03T14:35:51.617Z</time>
      </trkpt>
      <trkpt lat="44.14452" lon="6.11678">
        <ele>914</ele>
        <time>2022-03-03T14:35:52.617Z</time>
      </trkpt>
      <trkpt lat="44.14451" lon="6.11678">
        <ele>914</ele>
        <time>2022-03-03T14:35:53.617Z</time>
      </trkpt>
      <trkpt lat="44.1445" lon="6.11678">
        <ele>914</ele>
        <time>2022-03-03T14:35:54.617Z</time>
      </trkpt>
      <trkpt lat="44.14449" lon="6.11678">
        <ele>914</ele>
        <time>2022-03-03T14:35:55.617Z</time>
      </trkpt>
      <trkpt lat="44.14448" lon="6.11678">
        <ele>914</ele>
        <time>2022-03-03T14:35:56.617Z</time>
      </trkpt>
      <trkpt lat="44.14447" lon="6.11678">
        <ele>913</ele>
        <time>2022-03-03T14:35:57.617Z</time>
      </trkpt>
      <trkpt lat="44.14446" lon="6.11678">
        <ele>913</ele>
        <time>2022-03-03T14:35:58.617Z</time>
      </trkpt>
      <trkpt lat="44.14445" lon="6.11679">
        <ele>913</ele>
        <time>2022-03-03T14:35:59.617Z</time>
      </trkpt>
      <trkpt lat="44.14444" lon="6.1168">
        <ele>913</ele>
        <time>2022-03-03T14:36:00.617Z</time>
      </trkpt>
      <trkpt lat="44.14443" lon="6.1168">
        <ele>913</ele>
        <time>2022-03-03T14:36:01.617Z</time>
      </trkpt>
      <trkpt lat="44.14441" lon="6.11681">
        <ele>912</ele>
        <time>2022-03-03T14:36:02.617Z</time>
      </trkpt>
      <trkpt lat="44.1444" lon="6.11681">
        <ele>912</ele>
        <time>2022-03-03T14:36:03.617Z</time>
      </trkpt>
      <trkpt lat="44.14439" lon="6.11681">
        <ele>912</ele>
        <time>2022-03-03T14:36:04.617Z</time>
      </trkpt>
      <trkpt lat="44.14438" lon="6.11681">
        <ele>912</ele>
        <time>2022-03-03T14:36:05.617Z</time>
      </trkpt>
      <trkpt lat="44.14437" lon="6.11681">
        <ele>911</ele>
        <time>2022-03-03T14:36:06.617Z</time>
      </trkpt>
      <trkpt lat="44.14436" lon="6.1168">
        <ele>911</ele>
        <time>2022-03-03T14:36:07.617Z</time>
      </trkpt>
      <trkpt lat="44.14435" lon="6.1168">
        <ele>911</ele>
        <time>2022-03-03T14:36:08.617Z</time>
      </trkpt>
      <trkpt lat="44.14434" lon="6.1168">
        <ele>911</ele>
        <time>2022-03-03T14:36:09.617Z</time>
      </trkpt>
      <trkpt lat="44.14432" lon="6.1168">
        <ele>911</ele>
        <time>2022-03-03T14:36:10.617Z</time>
      </trkpt>
      <trkpt lat="44.14431" lon="6.1168">
        <ele>910</ele>
        <time>2022-03-03T14:36:11.617Z</time>
      </trkpt>
      <trkpt lat="44.1443" lon="6.1168">
        <ele>910</ele>
        <time>2022-03-03T14:36:12.617Z</time>
      </trkpt>
      <trkpt lat="44.14429" lon="6.1168">
        <ele>910</ele>
        <time>2022-03-03T14:36:13.617Z</time>
      </trkpt>
      <trkpt lat="44.14428" lon="6.1168">
        <ele>910</ele>
        <time>2022-03-03T14:36:14.617Z</time>
      </trkpt>
      <trkpt lat="44.14427" lon="6.1168">
        <ele>910</ele>
        <time>2022-03-03T14:36:15.617Z</time>
      </trkpt>
      <trkpt lat="44.14425" lon="6.1168">
        <ele>909</ele>
        <time>2022-03-03T14:36:16.617Z</time>
      </trkpt>
      <trkpt lat="44.14424" lon="6.11679">
        <ele>909</ele>
        <time>2022-03-03T14:36:17.617Z</time>
      </trkpt>
      <trkpt lat="44.14423" lon="6.11679">
        <ele>909</ele>
        <time>2022-03-03T14:36:18.617Z</time>
      </trkpt>
      <trkpt lat="44.14422" lon="6.11679">
        <ele>909</ele>
        <time>2022-03-03T14:36:19.617Z</time>
      </trkpt>
      <trkpt lat="44.14421" lon="6.11678">
        <ele>909</ele>
        <time>2022-03-03T14:36:20.617Z</time>
      </trkpt>
      <trkpt lat="44.1442" lon="6.11678">
        <ele>908</ele>
        <time>2022-03-03T14:36:21.617Z</time>
      </trkpt>
      <trkpt lat="44.14419" lon="6.11678">
        <ele>908</ele>
        <time>2022-03-03T14:36:22.617Z</time>
      </trkpt>
      <trkpt lat="44.14417" lon="6.11678">
        <ele>908</ele>
        <time>2022-03-03T14:36:23.617Z</time>
      </trkpt>
      <trkpt lat="44.14416" lon="6.11678">
        <ele>908</ele>
        <time>2022-03-03T14:36:24.617Z</time>
      </trkpt>
      <trkpt lat="44.14415" lon="6.11677">
        <ele>907</ele>
        <time>2022-03-03T14:36:25.617Z</time>
      </trkpt>
      <trkpt lat="44.14414" lon="6.11676">
        <ele>907</ele>
        <time>2022-03-03T14:36:26.617Z</time>
      </trkpt>
      <trkpt lat="44.14413" lon="6.11676">
        <ele>907</ele>
        <time>2022-03-03T14:36:27.617Z</time>
      </trkpt>
      <trkpt lat="44.14412" lon="6.11675">
        <ele>907</ele>
        <time>2022-03-03T14:36:28.617Z</time>
      </trkpt>
      <trkpt lat="44.1441" lon="6.11675">
        <ele>907</ele>
        <time>2022-03-03T14:36:29.617Z</time>
      </trkpt>
      <trkpt lat="44.14409" lon="6.11675">
        <ele>907</ele>
        <time>2022-03-03T14:36:30.617Z</time>
      </trkpt>
      <trkpt lat="44.14408" lon="6.11674">
        <ele>907</ele>
        <time>2022-03-03T14:36:31.617Z</time>
      </trkpt>
      <trkpt lat="44.14407" lon="6.11674">
        <ele>907</ele>
        <time>2022-03-03T14:36:32.617Z</time>
      </trkpt>
      <trkpt lat="44.14405" lon="6.11674">
        <ele>907</ele>
        <time>2022-03-03T14:36:33.617Z</time>
      </trkpt>
      <trkpt lat="44.14404" lon="6.11674">
        <ele>907</ele>
        <time>2022-03-03T14:36:34.617Z</time>
      </trkpt>
      <trkpt lat="44.14403" lon="6.11674">
        <ele>906</ele>
        <time>2022-03-03T14:36:35.617Z</time>
      </trkpt>
      <trkpt lat="44.14402" lon="6.11674">
        <ele>906</ele>
        <time>2022-03-03T14:36:36.617Z</time>
      </trkpt>
      <trkpt lat="44.14401" lon="6.11675">
        <ele>906</ele>
        <time>2022-03-03T14:36:37.617Z</time>
      </trkpt>
      <trkpt lat="44.14399" lon="6.11675">
        <ele>906</ele>
        <time>2022-03-03T14:36:38.617Z</time>
      </trkpt>
      <trkpt lat="44.14398" lon="6.11675">
        <ele>906</ele>
        <time>2022-03-03T14:36:39.617Z</time>
      </trkpt>
      <trkpt lat="44.14397" lon="6.11675">
        <ele>906</ele>
        <time>2022-03-03T14:36:40.617Z</time>
      </trkpt>
      <trkpt lat="44.14396" lon="6.11676">
        <ele>905</ele>
        <time>2022-03-03T14:36:41.617Z</time>
      </trkpt>
      <trkpt lat="44.14395" lon="6.11676">
        <ele>905</ele>
        <time>2022-03-03T14:36:42.617Z</time>
      </trkpt>
      <trkpt lat="44.14393" lon="6.11676">
        <ele>905</ele>
        <time>2022-03-03T14:36:43.617Z</time>
      </trkpt>
      <trkpt lat="44.14392" lon="6.11677">
        <ele>905</ele>
        <time>2022-03-03T14:36:44.617Z</time>
      </trkpt>
      <trkpt lat="44.14391" lon="6.11677">
        <ele>905</ele>
        <time>2022-03-03T14:36:45.617Z</time>
      </trkpt>
      <trkpt lat="44.1439" lon="6.11677">
        <ele>905</ele>
        <time>2022-03-03T14:36:46.617Z</time>
      </trkpt>
      <trkpt lat="44.14389" lon="6.11677">
        <ele>904</ele>
        <time>2022-03-03T14:36:47.617Z</time>
      </trkpt>
      <trkpt lat="44.14387" lon="6.11678">
        <ele>904</ele>
        <time>2022-03-03T14:36:48.617Z</time>
      </trkpt>
      <trkpt lat="44.14386" lon="6.11678">
        <ele>904</ele>
        <time>2022-03-03T14:36:49.617Z</time>
      </trkpt>
      <trkpt lat="44.14385" lon="6.11678">
        <ele>904</ele>
        <time>2022-03-03T14:36:50.617Z</time>
      </trkpt>
      <trkpt lat="44.14384" lon="6.11678">
        <ele>903</ele>
        <time>2022-03-03T14:36:51.617Z</time>
      </trkpt>
      <trkpt lat="44.14383" lon="6.11679">
        <ele>903</ele>
        <time>2022-03-03T14:36:52.617Z</time>
      </trkpt>
      <trkpt lat="44.14381" lon="6.11679">
        <ele>903</ele>
        <time>2022-03-03T14:36:53.617Z</time>
      </trkpt>
      <trkpt lat="44.1438" lon="6.1168">
        <ele>903</ele>
        <time>2022-03-03T14:36:54.617Z</time>
      </trkpt>
      <trkpt lat="44.14379" lon="6.1168">
        <ele>903</ele>
        <time>2022-03-03T14:36:55.617Z</time>
      </trkpt>
      <trkpt lat="44.14378" lon="6.1168">
        <ele>902</ele>
        <time>2022-03-03T14:36:56.617Z</time>
      </trkpt>
      <trkpt lat="44.14377" lon="6.11681">
        <ele>902</ele>
        <time>2022-03-03T14:36:57.617Z</time>
      </trkpt>
      <trkpt lat="44.14376" lon="6.11681">
        <ele>902</ele>
        <time>2022-03-03T14:36:58.617Z</time>
      </trkpt>
      <trkpt lat="44.14375" lon="6.11681">
        <ele>902</ele>
        <time>2022-03-03T14:36:59.617Z</time>
      </trkpt>
      <trkpt lat="44.14373" lon="6.11681">
        <ele>901</ele>
        <time>2022-03-03T14:37:00.617Z</time>
      </trkpt>
      <trkpt lat="44.14372" lon="6.11681">
        <ele>901</ele>
        <time>2022-03-03T14:37:01.617Z</time>
      </trkpt>
      <trkpt lat="44.14371" lon="6.11681">
        <ele>901</ele>
        <time>2022-03-03T14:37:02.617Z</time>
      </trkpt>
      <trkpt lat="44.1437" lon="6.11681">
        <ele>901</ele>
        <time>2022-03-03T14:37:03.617Z</time>
      </trkpt>
      <trkpt lat="44.14369" lon="6.11681">
        <ele>900</ele>
        <time>2022-03-03T14:37:04.617Z</time>
      </trkpt>
      <trkpt lat="44.14368" lon="6.11681">
        <ele>900</ele>
        <time>2022-03-03T14:37:05.617Z</time>
      </trkpt>
      <trkpt lat="44.14367" lon="6.11682">
        <ele>900</ele>
        <time>2022-03-03T14:37:06.617Z</time>
      </trkpt>
      <trkpt lat="44.14366" lon="6.11682">
        <ele>900</ele>
        <time>2022-03-03T14:37:07.617Z</time>
      </trkpt>
      <trkpt lat="44.14364" lon="6.11682">
        <ele>899</ele>
        <time>2022-03-03T14:37:08.617Z</time>
      </trkpt>
      <trkpt lat="44.14363" lon="6.11681">
        <ele>899</ele>
        <time>2022-03-03T14:37:09.617Z</time>
      </trkpt>
      <trkpt lat="44.14362" lon="6.11681">
        <ele>899</ele>
        <time>2022-03-03T14:37:10.617Z</time>
      </trkpt>
      <trkpt lat="44.14361" lon="6.11681">
        <ele>899</ele>
        <time>2022-03-03T14:37:11.617Z</time>
      </trkpt>
      <trkpt lat="44.1436" lon="6.11681">
        <ele>899</ele>
        <time>2022-03-03T14:37:12.617Z</time>
      </trkpt>
      <trkpt lat="44.14359" lon="6.11682">
        <ele>898</ele>
        <time>2022-03-03T14:37:13.617Z</time>
      </trkpt>
      <trkpt lat="44.14357" lon="6.11682">
        <ele>898</ele>
        <time>2022-03-03T14:37:14.617Z</time>
      </trkpt>
      <trkpt lat="44.14356" lon="6.11683">
        <ele>898</ele>
        <time>2022-03-03T14:37:15.617Z</time>
      </trkpt>
      <trkpt lat="44.14355" lon="6.11683">
        <ele>898</ele>
        <time>2022-03-03T14:37:16.617Z</time>
      </trkpt>
      <trkpt lat="44.14354" lon="6.11683">
        <ele>898</ele>
        <time>2022-03-03T14:37:17.617Z</time>
      </trkpt>
      <trkpt lat="44.14353" lon="6.11684">
        <ele>897</ele>
        <time>2022-03-03T14:37:18.617Z</time>
      </trkpt>
      <trkpt lat="44.14352" lon="6.11684">
        <ele>897</ele>
        <time>2022-03-03T14:37:19.617Z</time>
      </trkpt>
      <trkpt lat="44.14351" lon="6.11685">
        <ele>897</ele>
        <time>2022-03-03T14:37:20.617Z</time>
      </trkpt>
      <trkpt lat="44.1435" lon="6.11685">
        <ele>897</ele>
        <time>2022-03-03T14:37:21.617Z</time>
      </trkpt>
      <trkpt lat="44.14349" lon="6.11686">
        <ele>896</ele>
        <time>2022-03-03T14:37:22.617Z</time>
      </trkpt>
      <trkpt lat="44.14348" lon="6.11687">
        <ele>896</ele>
        <time>2022-03-03T14:37:23.617Z</time>
      </trkpt>
      <trkpt lat="44.14347" lon="6.11688">
        <ele>896</ele>
        <time>2022-03-03T14:37:24.617Z</time>
      </trkpt>
      <trkpt lat="44.14346" lon="6.11689">
        <ele>896</ele>
        <time>2022-03-03T14:37:25.617Z</time>
      </trkpt>
      <trkpt lat="44.14345" lon="6.1169">
        <ele>896</ele>
        <time>2022-03-03T14:37:26.617Z</time>
      </trkpt>
      <trkpt lat="44.14344" lon="6.1169">
        <ele>896</ele>
        <time>2022-03-03T14:37:27.617Z</time>
      </trkpt>
      <trkpt lat="44.14343" lon="6.11691">
        <ele>895</ele>
        <time>2022-03-03T14:37:28.617Z</time>
      </trkpt>
      <trkpt lat="44.14342" lon="6.11692">
        <ele>895</ele>
        <time>2022-03-03T14:37:29.617Z</time>
      </trkpt>
      <trkpt lat="44.14341" lon="6.11693">
        <ele>895</ele>
        <time>2022-03-03T14:37:30.617Z</time>
      </trkpt>
      <trkpt lat="44.1434" lon="6.11693">
        <ele>895</ele>
        <time>2022-03-03T14:37:31.617Z</time>
      </trkpt>
      <trkpt lat="44.14339" lon="6.11694">
        <ele>895</ele>
        <time>2022-03-03T14:37:32.617Z</time>
      </trkpt>
      <trkpt lat="44.14338" lon="6.11695">
        <ele>895</ele>
        <time>2022-03-03T14:37:33.617Z</time>
      </trkpt>
      <trkpt lat="44.14337" lon="6.11696">
        <ele>894</ele>
        <time>2022-03-03T14:37:34.617Z</time>
      </trkpt>
      <trkpt lat="44.14336" lon="6.11697">
        <ele>894</ele>
        <time>2022-03-03T14:37:35.617Z</time>
      </trkpt>
      <trkpt lat="44.14335" lon="6.11698">
        <ele>894</ele>
        <time>2022-03-03T14:37:36.617Z</time>
      </trkpt>
      <trkpt lat="44.14334" lon="6.11699">
        <ele>894</ele>
        <time>2022-03-03T14:37:37.617Z</time>
      </trkpt>
      <trkpt lat="44.14334" lon="6.117">
        <ele>894</ele>
        <time>2022-03-03T14:37:38.617Z</time>
      </trkpt>
      <trkpt lat="44.14333" lon="6.11702">
        <ele>894</ele>
        <time>2022-03-03T14:37:39.617Z</time>
      </trkpt>
      <trkpt lat="44.14332" lon="6.11703">
        <ele>893</ele>
        <time>2022-03-03T14:37:40.617Z</time>
      </trkpt>
      <trkpt lat="44.14331" lon="6.11704">
        <ele>893</ele>
        <time>2022-03-03T14:37:41.617Z</time>
      </trkpt>
      <trkpt lat="44.1433" lon="6.11705">
        <ele>893</ele>
        <time>2022-03-03T14:37:42.617Z</time>
      </trkpt>
      <trkpt lat="44.14329" lon="6.11706">
        <ele>893</ele>
        <time>2022-03-03T14:37:43.617Z</time>
      </trkpt>
      <trkpt lat="44.14328" lon="6.11707">
        <ele>893</ele>
        <time>2022-03-03T14:37:44.617Z</time>
      </trkpt>
      <trkpt lat="44.14327" lon="6.11708">
        <ele>893</ele>
        <time>2022-03-03T14:37:45.617Z</time>
      </trkpt>
      <trkpt lat="44.14326" lon="6.11709">
        <ele>892</ele>
        <time>2022-03-03T14:37:46.617Z</time>
      </trkpt>
      <trkpt lat="44.14325" lon="6.1171">
        <ele>892</ele>
        <time>2022-03-03T14:37:47.617Z</time>
      </trkpt>
      <trkpt lat="44.14325" lon="6.11712">
        <ele>892</ele>
        <time>2022-03-03T14:37:48.617Z</time>
      </trkpt>
      <trkpt lat="44.14324" lon="6.11713">
        <ele>892</ele>
        <time>2022-03-03T14:37:49.617Z</time>
      </trkpt>
      <trkpt lat="44.14323" lon="6.11714">
        <ele>892</ele>
        <time>2022-03-03T14:37:50.617Z</time>
      </trkpt>
      <trkpt lat="44.14322" lon="6.11715">
        <ele>891</ele>
        <time>2022-03-03T14:37:51.617Z</time>
      </trkpt>
      <trkpt lat="44.14321" lon="6.11716">
        <ele>891</ele>
        <time>2022-03-03T14:37:52.617Z</time>
      </trkpt>
      <trkpt lat="44.1432" lon="6.11717">
        <ele>891</ele>
        <time>2022-03-03T14:37:53.617Z</time>
      </trkpt>
      <trkpt lat="44.14319" lon="6.11718">
        <ele>891</ele>
        <time>2022-03-03T14:37:54.617Z</time>
      </trkpt>
      <trkpt lat="44.14318" lon="6.11719">
        <ele>891</ele>
        <time>2022-03-03T14:37:55.617Z</time>
      </trkpt>
      <trkpt lat="44.14317" lon="6.1172">
        <ele>890</ele>
        <time>2022-03-03T14:37:56.617Z</time>
      </trkpt>
      <trkpt lat="44.14316" lon="6.11721">
        <ele>890</ele>
        <time>2022-03-03T14:37:57.617Z</time>
      </trkpt>
      <trkpt lat="44.14315" lon="6.11722">
        <ele>890</ele>
        <time>2022-03-03T14:37:58.617Z</time>
      </trkpt>
      <trkpt lat="44.14314" lon="6.11723">
        <ele>890</ele>
        <time>2022-03-03T14:37:59.617Z</time>
      </trkpt>
      <trkpt lat="44.14313" lon="6.11724">
        <ele>890</ele>
        <time>2022-03-03T14:38:00.617Z</time>
      </trkpt>
      <trkpt lat="44.14312" lon="6.11725">
        <ele>890</ele>
        <time>2022-03-03T14:38:01.617Z</time>
      </trkpt>
      <trkpt lat="44.14311" lon="6.11726">
        <ele>889</ele>
        <time>2022-03-03T14:38:02.617Z</time>
      </trkpt>
      <trkpt lat="44.1431" lon="6.11727">
        <ele>889</ele>
        <time>2022-03-03T14:38:03.617Z</time>
      </trkpt>
      <trkpt lat="44.14309" lon="6.11728">
        <ele>889</ele>
        <time>2022-03-03T14:38:04.617Z</time>
      </trkpt>
      <trkpt lat="44.14308" lon="6.11729">
        <ele>889</ele>
        <time>2022-03-03T14:38:05.617Z</time>
      </trkpt>
      <trkpt lat="44.14308" lon="6.1173">
        <ele>889</ele>
        <time>2022-03-03T14:38:06.617Z</time>
      </trkpt>
      <trkpt lat="44.14306" lon="6.11731">
        <ele>889</ele>
        <time>2022-03-03T14:38:07.617Z</time>
      </trkpt>
      <trkpt lat="44.14305" lon="6.11732">
        <ele>888</ele>
        <time>2022-03-03T14:38:08.617Z</time>
      </trkpt>
      <trkpt lat="44.14304" lon="6.11733">
        <ele>888</ele>
        <time>2022-03-03T14:38:09.617Z</time>
      </trkpt>
      <trkpt lat="44.14303" lon="6.11734">
        <ele>888</ele>
        <time>2022-03-03T14:38:10.617Z</time>
      </trkpt>
      <trkpt lat="44.14302" lon="6.11735">
        <ele>888</ele>
        <time>2022-03-03T14:38:11.617Z</time>
      </trkpt>
      <trkpt lat="44.14301" lon="6.11737">
        <ele>888</ele>
        <time>2022-03-03T14:38:12.617Z</time>
      </trkpt>
      <trkpt lat="44.143" lon="6.11738">
        <ele>888</ele>
        <time>2022-03-03T14:38:13.617Z</time>
      </trkpt>
      <trkpt lat="44.14299" lon="6.11739">
        <ele>888</ele>
        <time>2022-03-03T14:38:14.617Z</time>
      </trkpt>
      <trkpt lat="44.14298" lon="6.11739">
        <ele>887</ele>
        <time>2022-03-03T14:38:15.617Z</time>
      </trkpt>
      <trkpt lat="44.14297" lon="6.1174">
        <ele>887</ele>
        <time>2022-03-03T14:38:16.617Z</time>
      </trkpt>
      <trkpt lat="44.14296" lon="6.11741">
        <ele>887</ele>
        <time>2022-03-03T14:38:17.617Z</time>
      </trkpt>
      <trkpt lat="44.14295" lon="6.11742">
        <ele>887</ele>
        <time>2022-03-03T14:38:18.617Z</time>
      </trkpt>
      <trkpt lat="44.14294" lon="6.11743">
        <ele>887</ele>
        <time>2022-03-03T14:38:19.617Z</time>
      </trkpt>
      <trkpt lat="44.14293" lon="6.11744">
        <ele>887</ele>
        <time>2022-03-03T14:38:20.617Z</time>
      </trkpt>
      <trkpt lat="44.14292" lon="6.11745">
        <ele>887</ele>
        <time>2022-03-03T14:38:21.617Z</time>
      </trkpt>
      <trkpt lat="44.14291" lon="6.11746">
        <ele>887</ele>
        <time>2022-03-03T14:38:22.617Z</time>
      </trkpt>
      <trkpt lat="44.1429" lon="6.11747">
        <ele>887</ele>
        <time>2022-03-03T14:38:23.617Z</time>
      </trkpt>
      <trkpt lat="44.14289" lon="6.11748">
        <ele>887</ele>
        <time>2022-03-03T14:38:24.617Z</time>
      </trkpt>
      <trkpt lat="44.14288" lon="6.11749">
        <ele>887</ele>
        <time>2022-03-03T14:38:25.617Z</time>
      </trkpt>
      <trkpt lat="44.14287" lon="6.11751">
        <ele>887</ele>
        <time>2022-03-03T14:38:26.617Z</time>
      </trkpt>
      <trkpt lat="44.14286" lon="6.11752">
        <ele>886</ele>
        <time>2022-03-03T14:38:27.617Z</time>
      </trkpt>
      <trkpt lat="44.14285" lon="6.11753">
        <ele>886</ele>
        <time>2022-03-03T14:38:28.617Z</time>
      </trkpt>
      <trkpt lat="44.14284" lon="6.11754">
        <ele>886</ele>
        <time>2022-03-03T14:38:29.617Z</time>
      </trkpt>
      <trkpt lat="44.14283" lon="6.11754">
        <ele>886</ele>
        <time>2022-03-03T14:38:30.617Z</time>
      </trkpt>
      <trkpt lat="44.14281" lon="6.11755">
        <ele>886</ele>
        <time>2022-03-03T14:38:31.617Z</time>
      </trkpt>
      <trkpt lat="44.1428" lon="6.11756">
        <ele>886</ele>
        <time>2022-03-03T14:38:32.617Z</time>
      </trkpt>
      <trkpt lat="44.14279" lon="6.11756">
        <ele>885</ele>
        <time>2022-03-03T14:38:33.617Z</time>
      </trkpt>
      <trkpt lat="44.14278" lon="6.11757">
        <ele>885</ele>
        <time>2022-03-03T14:38:34.617Z</time>
      </trkpt>
      <trkpt lat="44.14277" lon="6.11758">
        <ele>885</ele>
        <time>2022-03-03T14:38:35.617Z</time>
      </trkpt>
      <trkpt lat="44.14277" lon="6.11758">
        <ele>885</ele>
        <time>2022-03-03T14:38:36.617Z</time>
      </trkpt>
      <trkpt lat="44.14275" lon="6.11759">
        <ele>885</ele>
        <time>2022-03-03T14:38:37.617Z</time>
      </trkpt>
      <trkpt lat="44.14274" lon="6.1176">
        <ele>885</ele>
        <time>2022-03-03T14:38:38.617Z</time>
      </trkpt>
      <trkpt lat="44.14273" lon="6.11761">
        <ele>885</ele>
        <time>2022-03-03T14:38:39.617Z</time>
      </trkpt>
      <trkpt lat="44.14272" lon="6.11762">
        <ele>884</ele>
        <time>2022-03-03T14:38:40.617Z</time>
      </trkpt>
      <trkpt lat="44.14271" lon="6.11763">
        <ele>884</ele>
        <time>2022-03-03T14:38:41.617Z</time>
      </trkpt>
      <trkpt lat="44.1427" lon="6.11764">
        <ele>884</ele>
        <time>2022-03-03T14:38:42.617Z</time>
      </trkpt>
      <trkpt lat="44.1427" lon="6.11765">
        <ele>884</ele>
        <time>2022-03-03T14:38:43.617Z</time>
      </trkpt>
      <trkpt lat="44.14268" lon="6.11766">
        <ele>884</ele>
        <time>2022-03-03T14:38:44.617Z</time>
      </trkpt>
      <trkpt lat="44.14267" lon="6.11766">
        <ele>884</ele>
        <time>2022-03-03T14:38:45.617Z</time>
      </trkpt>
      <trkpt lat="44.14266" lon="6.11767">
        <ele>884</ele>
        <time>2022-03-03T14:38:46.617Z</time>
      </trkpt>
      <trkpt lat="44.14264" lon="6.11767">
        <ele>884</ele>
        <time>2022-03-03T14:38:47.617Z</time>
      </trkpt>
      <trkpt lat="44.14263" lon="6.11768">
        <ele>883</ele>
        <time>2022-03-03T14:38:48.617Z</time>
      </trkpt>
      <trkpt lat="44.14262" lon="6.11769">
        <ele>883</ele>
        <time>2022-03-03T14:38:49.617Z</time>
      </trkpt>
      <trkpt lat="44.14261" lon="6.11769">
        <ele>883</ele>
        <time>2022-03-03T14:38:50.617Z</time>
      </trkpt>
      <trkpt lat="44.1426" lon="6.1177">
        <ele>883</ele>
        <time>2022-03-03T14:38:51.617Z</time>
      </trkpt>
      <trkpt lat="44.14259" lon="6.11771">
        <ele>883</ele>
        <time>2022-03-03T14:38:52.617Z</time>
      </trkpt>
      <trkpt lat="44.14257" lon="6.11771">
        <ele>883</ele>
        <time>2022-03-03T14:38:53.617Z</time>
      </trkpt>
      <trkpt lat="44.14256" lon="6.11772">
        <ele>883</ele>
        <time>2022-03-03T14:38:54.617Z</time>
      </trkpt>
      <trkpt lat="44.14255" lon="6.11772">
        <ele>882</ele>
        <time>2022-03-03T14:38:55.617Z</time>
      </trkpt>
      <trkpt lat="44.14254" lon="6.11773">
        <ele>882</ele>
        <time>2022-03-03T14:38:56.617Z</time>
      </trkpt>
      <trkpt lat="44.14252" lon="6.11774">
        <ele>882</ele>
        <time>2022-03-03T14:38:57.617Z</time>
      </trkpt>
      <trkpt lat="44.14251" lon="6.11775">
        <ele>882</ele>
        <time>2022-03-03T14:38:58.617Z</time>
      </trkpt>
      <trkpt lat="44.1425" lon="6.11775">
        <ele>882</ele>
        <time>2022-03-03T14:38:59.617Z</time>
      </trkpt>
      <trkpt lat="44.14249" lon="6.11776">
        <ele>882</ele>
        <time>2022-03-03T14:39:00.617Z</time>
      </trkpt>
      <trkpt lat="44.14248" lon="6.11777">
        <ele>881</ele>
        <time>2022-03-03T14:39:01.617Z</time>
      </trkpt>
      <trkpt lat="44.14246" lon="6.11778">
        <ele>881</ele>
        <time>2022-03-03T14:39:02.617Z</time>
      </trkpt>
      <trkpt lat="44.14245" lon="6.11778">
        <ele>881</ele>
        <time>2022-03-03T14:39:03.617Z</time>
      </trkpt>
      <trkpt lat="44.14244" lon="6.11779">
        <ele>881</ele>
        <time>2022-03-03T14:39:04.617Z</time>
      </trkpt>
      <trkpt lat="44.14243" lon="6.11779">
        <ele>881</ele>
        <time>2022-03-03T14:39:05.617Z</time>
      </trkpt>
      <trkpt lat="44.14242" lon="6.1178">
        <ele>881</ele>
        <time>2022-03-03T14:39:06.617Z</time>
      </trkpt>
      <trkpt lat="44.14241" lon="6.11781">
        <ele>880</ele>
        <time>2022-03-03T14:39:07.617Z</time>
      </trkpt>
      <trkpt lat="44.14239" lon="6.11782">
        <ele>880</ele>
        <time>2022-03-03T14:39:08.617Z</time>
      </trkpt>
      <trkpt lat="44.14238" lon="6.11783">
        <ele>880</ele>
        <time>2022-03-03T14:39:09.617Z</time>
      </trkpt>
      <trkpt lat="44.14237" lon="6.11783">
        <ele>880</ele>
        <time>2022-03-03T14:39:10.617Z</time>
      </trkpt>
      <trkpt lat="44.14236" lon="6.11784">
        <ele>880</ele>
        <time>2022-03-03T14:39:11.617Z</time>
      </trkpt>
      <trkpt lat="44.14235" lon="6.11785">
        <ele>880</ele>
        <time>2022-03-03T14:39:12.617Z</time>
      </trkpt>
      <trkpt lat="44.14234" lon="6.11786">
        <ele>880</ele>
        <time>2022-03-03T14:39:13.617Z</time>
      </trkpt>
      <trkpt lat="44.14233" lon="6.11787">
        <ele>879</ele>
        <time>2022-03-03T14:39:14.617Z</time>
      </trkpt>
      <trkpt lat="44.14232" lon="6.11788">
        <ele>879</ele>
        <time>2022-03-03T14:39:15.617Z</time>
      </trkpt>
      <trkpt lat="44.14231" lon="6.11789">
        <ele>879</ele>
        <time>2022-03-03T14:39:16.617Z</time>
      </trkpt>
      <trkpt lat="44.1423" lon="6.11789">
        <ele>879</ele>
        <time>2022-03-03T14:39:17.617Z</time>
      </trkpt>
      <trkpt lat="44.14229" lon="6.11791">
        <ele>879</ele>
        <time>2022-03-03T14:39:18.617Z</time>
      </trkpt>
      <trkpt lat="44.14228" lon="6.11791">
        <ele>879</ele>
        <time>2022-03-03T14:39:19.617Z</time>
      </trkpt>
      <trkpt lat="44.14227" lon="6.11792">
        <ele>879</ele>
        <time>2022-03-03T14:39:20.617Z</time>
      </trkpt>
      <trkpt lat="44.14226" lon="6.11794">
        <ele>879</ele>
        <time>2022-03-03T14:39:21.617Z</time>
      </trkpt>
      <trkpt lat="44.14225" lon="6.11795">
        <ele>879</ele>
        <time>2022-03-03T14:39:22.617Z</time>
      </trkpt>
      <trkpt lat="44.14224" lon="6.11796">
        <ele>879</ele>
        <time>2022-03-03T14:39:23.617Z</time>
      </trkpt>
      <trkpt lat="44.14223" lon="6.11797">
        <ele>879</ele>
        <time>2022-03-03T14:39:24.617Z</time>
      </trkpt>
      <trkpt lat="44.14222" lon="6.11798">
        <ele>879</ele>
        <time>2022-03-03T14:39:25.617Z</time>
      </trkpt>
      <trkpt lat="44.14221" lon="6.11799">
        <ele>879</ele>
        <time>2022-03-03T14:39:26.617Z</time>
      </trkpt>
      <trkpt lat="44.14221" lon="6.118">
        <ele>878</ele>
        <time>2022-03-03T14:39:27.617Z</time>
      </trkpt>
      <trkpt lat="44.1422" lon="6.11801">
        <ele>878</ele>
        <time>2022-03-03T14:39:28.617Z</time>
      </trkpt>
      <trkpt lat="44.14219" lon="6.11802">
        <ele>878</ele>
        <time>2022-03-03T14:39:29.617Z</time>
      </trkpt>
      <trkpt lat="44.14219" lon="6.11804">
        <ele>878</ele>
        <time>2022-03-03T14:39:30.617Z</time>
      </trkpt>
      <trkpt lat="44.14218" lon="6.11805">
        <ele>878</ele>
        <time>2022-03-03T14:39:31.617Z</time>
      </trkpt>
      <trkpt lat="44.14217" lon="6.11806">
        <ele>878</ele>
        <time>2022-03-03T14:39:32.617Z</time>
      </trkpt>
      <trkpt lat="44.14216" lon="6.11807">
        <ele>878</ele>
        <time>2022-03-03T14:39:33.617Z</time>
      </trkpt>
      <trkpt lat="44.14216" lon="6.11809">
        <ele>878</ele>
        <time>2022-03-03T14:39:34.617Z</time>
      </trkpt>
      <trkpt lat="44.14215" lon="6.1181">
        <ele>878</ele>
        <time>2022-03-03T14:39:35.617Z</time>
      </trkpt>
      <trkpt lat="44.14215" lon="6.11811">
        <ele>878</ele>
        <time>2022-03-03T14:39:36.617Z</time>
      </trkpt>
      <trkpt lat="44.14214" lon="6.11813">
        <ele>878</ele>
        <time>2022-03-03T14:39:37.617Z</time>
      </trkpt>
      <trkpt lat="44.14213" lon="6.11815">
        <ele>878</ele>
        <time>2022-03-03T14:39:38.617Z</time>
      </trkpt>
      <trkpt lat="44.14212" lon="6.11816">
        <ele>878</ele>
        <time>2022-03-03T14:39:39.617Z</time>
      </trkpt>
      <trkpt lat="44.14211" lon="6.11817">
        <ele>878</ele>
        <time>2022-03-03T14:39:40.617Z</time>
      </trkpt>
      <trkpt lat="44.14211" lon="6.11819">
        <ele>877</ele>
        <time>2022-03-03T14:39:41.617Z</time>
      </trkpt>
      <trkpt lat="44.1421" lon="6.1182">
        <ele>877</ele>
        <time>2022-03-03T14:39:42.617Z</time>
      </trkpt>
      <trkpt lat="44.1421" lon="6.11822">
        <ele>877</ele>
        <time>2022-03-03T14:39:43.617Z</time>
      </trkpt>
      <trkpt lat="44.14209" lon="6.11823">
        <ele>877</ele>
        <time>2022-03-03T14:39:44.617Z</time>
      </trkpt>
      <trkpt lat="44.14209" lon="6.11825">
        <ele>877</ele>
        <time>2022-03-03T14:39:45.617Z</time>
      </trkpt>
      <trkpt lat="44.14209" lon="6.11827">
        <ele>877</ele>
        <time>2022-03-03T14:39:46.617Z</time>
      </trkpt>
      <trkpt lat="44.14208" lon="6.11828">
        <ele>877</ele>
        <time>2022-03-03T14:39:47.617Z</time>
      </trkpt>
      <trkpt lat="44.14208" lon="6.1183">
        <ele>877</ele>
        <time>2022-03-03T14:39:48.617Z</time>
      </trkpt>
      <trkpt lat="44.14207" lon="6.11831">
        <ele>877</ele>
        <time>2022-03-03T14:39:49.617Z</time>
      </trkpt>
      <trkpt lat="44.14207" lon="6.11833">
        <ele>877</ele>
        <time>2022-03-03T14:39:50.617Z</time>
      </trkpt>
      <trkpt lat="44.14206" lon="6.11834">
        <ele>877</ele>
        <time>2022-03-03T14:39:51.617Z</time>
      </trkpt>
      <trkpt lat="44.14206" lon="6.11835">
        <ele>877</ele>
        <time>2022-03-03T14:39:52.617Z</time>
      </trkpt>
      <trkpt lat="44.14205" lon="6.11837">
        <ele>877</ele>
        <time>2022-03-03T14:39:53.617Z</time>
      </trkpt>
      <trkpt lat="44.14205" lon="6.11838">
        <ele>876</ele>
        <time>2022-03-03T14:39:54.617Z</time>
      </trkpt>
      <trkpt lat="44.14204" lon="6.1184">
        <ele>876</ele>
        <time>2022-03-03T14:39:55.617Z</time>
      </trkpt>
      <trkpt lat="44.14203" lon="6.11841">
        <ele>876</ele>
        <time>2022-03-03T14:39:56.617Z</time>
      </trkpt>
      <trkpt lat="44.14203" lon="6.11843">
        <ele>876</ele>
        <time>2022-03-03T14:39:57.617Z</time>
      </trkpt>
      <trkpt lat="44.14202" lon="6.11845">
        <ele>876</ele>
        <time>2022-03-03T14:39:58.617Z</time>
      </trkpt>
      <trkpt lat="44.14201" lon="6.11846">
        <ele>876</ele>
        <time>2022-03-03T14:39:59.617Z</time>
      </trkpt>
      <trkpt lat="44.142" lon="6.11847">
        <ele>876</ele>
        <time>2022-03-03T14:40:00.617Z</time>
      </trkpt>
      <trkpt lat="44.142" lon="6.11848">
        <ele>876</ele>
        <time>2022-03-03T14:40:01.617Z</time>
      </trkpt>
      <trkpt lat="44.14199" lon="6.1185">
        <ele>876</ele>
        <time>2022-03-03T14:40:02.617Z</time>
      </trkpt>
      <trkpt lat="44.14198" lon="6.11851">
        <ele>876</ele>
        <time>2022-03-03T14:40:03.617Z</time>
      </trkpt>
      <trkpt lat="44.14197" lon="6.11852">
        <ele>876</ele>
        <time>2022-03-03T14:40:04.617Z</time>
      </trkpt>
      <trkpt lat="44.14196" lon="6.11854">
        <ele>875</ele>
        <time>2022-03-03T14:40:05.617Z</time>
      </trkpt>
      <trkpt lat="44.14196" lon="6.11855">
        <ele>875</ele>
        <time>2022-03-03T14:40:06.617Z</time>
      </trkpt>
      <trkpt lat="44.14195" lon="6.11856">
        <ele>875</ele>
        <time>2022-03-03T14:40:07.617Z</time>
      </trkpt>
      <trkpt lat="44.14194" lon="6.11857">
        <ele>875</ele>
        <time>2022-03-03T14:40:08.617Z</time>
      </trkpt>
      <trkpt lat="44.14193" lon="6.11858">
        <ele>875</ele>
        <time>2022-03-03T14:40:09.617Z</time>
      </trkpt>
      <trkpt lat="44.14192" lon="6.11859">
        <ele>875</ele>
        <time>2022-03-03T14:40:10.617Z</time>
      </trkpt>
      <trkpt lat="44.14191" lon="6.1186">
        <ele>875</ele>
        <time>2022-03-03T14:40:11.617Z</time>
      </trkpt>
      <trkpt lat="44.1419" lon="6.11861">
        <ele>875</ele>
        <time>2022-03-03T14:40:12.617Z</time>
      </trkpt>
      <trkpt lat="44.14189" lon="6.11862">
        <ele>875</ele>
        <time>2022-03-03T14:40:13.617Z</time>
      </trkpt>
      <trkpt lat="44.14188" lon="6.11863">
        <ele>875</ele>
        <time>2022-03-03T14:40:14.617Z</time>
      </trkpt>
      <trkpt lat="44.14187" lon="6.11864">
        <ele>874</ele>
        <time>2022-03-03T14:40:15.617Z</time>
      </trkpt>
      <trkpt lat="44.14186" lon="6.11864">
        <ele>874</ele>
        <time>2022-03-03T14:40:16.617Z</time>
      </trkpt>
      <trkpt lat="44.14185" lon="6.11865">
        <ele>874</ele>
        <time>2022-03-03T14:40:17.617Z</time>
      </trkpt>
      <trkpt lat="44.14185" lon="6.11866">
        <ele>874</ele>
        <time>2022-03-03T14:40:18.617Z</time>
      </trkpt>
      <trkpt lat="44.14184" lon="6.11866">
        <ele>874</ele>
        <time>2022-03-03T14:40:19.617Z</time>
      </trkpt>
      <trkpt lat="44.14184" lon="6.11866">
        <ele>874</ele>
        <time>2022-03-03T14:40:20.617Z</time>
      </trkpt>
      <trkpt lat="44.14184" lon="6.11865">
        <ele>874</ele>
        <time>2022-03-03T14:40:21.617Z</time>
      </trkpt>
      <trkpt lat="44.14184" lon="6.11865">
        <ele>874</ele>
        <time>2022-03-03T14:40:22.617Z</time>
      </trkpt>
      <trkpt lat="44.14184" lon="6.11865">
        <ele>874</ele>
        <time>2022-03-03T14:40:23.617Z</time>
      </trkpt>
      <trkpt lat="44.14184" lon="6.11865">
        <ele>874</ele>
        <time>2022-03-03T14:40:24.617Z</time>
      </trkpt>
      <trkpt lat="44.14184" lon="6.11865">
        <ele>874</ele>
        <time>2022-03-03T14:40:25.617Z</time>
      </trkpt>
      <trkpt lat="44.14184" lon="6.11865">
        <ele>874</ele>
        <time>2022-03-03T14:40:26.617Z</time>
      </trkpt>
      <trkpt lat="44.14184" lon="6.11865">
        <ele>874</ele>
        <time>2022-03-03T14:40:27.617Z</time>
      </trkpt>
      <trkpt lat="44.14184" lon="6.11865">
        <ele>874</ele>
        <time>2022-03-03T14:40:28.617Z</time>
      </trkpt>
      <trkpt lat="44.14184" lon="6.11866">
        <ele>874</ele>
        <time>2022-03-03T14:40:29.617Z</time>
      </trkpt>
      <trkpt lat="44.14184" lon="6.11866">
        <ele>874</ele>
        <time>2022-03-03T14:40:30.617Z</time>
      </trkpt>
      <trkpt lat="44.14183" lon="6.11866">
        <ele>874</ele>
        <time>2022-03-03T14:40:31.617Z</time>
      </trkpt>
      <trkpt lat="44.14183" lon="6.11866">
        <ele>874</ele>
        <time>2022-03-03T14:40:32.617Z</time>
      </trkpt>
      <trkpt lat="44.14183" lon="6.11866">
        <ele>874</ele>
        <time>2022-03-03T14:40:33.617Z</time>
      </trkpt>
      <trkpt lat="44.14183" lon="6.11866">
        <ele>874</ele>
        <time>2022-03-03T14:40:34.617Z</time>
      </trkpt>
      <trkpt lat="44.14183" lon="6.11866">
        <ele>874</ele>
        <time>2022-03-03T14:40:35.617Z</time>
      </trkpt>
      <trkpt lat="44.14183" lon="6.11866">
        <ele>874</ele>
        <time>2022-03-03T14:40:36.617Z</time>
      </trkpt>
      <trkpt lat="44.14183" lon="6.11866">
        <ele>874</ele>
        <time>2022-03-03T14:40:37.617Z</time>
      </trkpt>
      <trkpt lat="44.14183" lon="6.11866">
        <ele>874</ele>
        <time>2022-03-03T14:40:38.617Z</time>
      </trkpt>
      <trkpt lat="44.14183" lon="6.11865">
        <ele>874</ele>
        <time>2022-03-03T14:40:39.617Z</time>
      </trkpt>
      <trkpt lat="44.14183" lon="6.11865">
        <ele>873</ele>
        <time>2022-03-03T14:40:40.617Z</time>
      </trkpt>
      <trkpt lat="44.14183" lon="6.11865">
        <ele>873</ele>
        <time>2022-03-03T14:40:41.617Z</time>
      </trkpt>
      <trkpt lat="44.14183" lon="6.11865">
        <ele>873</ele>
        <time>2022-03-03T14:40:42.617Z</time>
      </trkpt>
      <trkpt lat="44.14183" lon="6.11865">
        <ele>873</ele>
        <time>2022-03-03T14:40:43.617Z</time>
      </trkpt>
      <trkpt lat="44.14183" lon="6.11865">
        <ele>873</ele>
        <time>2022-03-03T14:40:44.617Z</time>
      </trkpt>
      <trkpt lat="44.14183" lon="6.11865">
        <ele>873</ele>
        <time>2022-03-03T14:40:45.617Z</time>
      </trkpt>
      <trkpt lat="44.14183" lon="6.11865">
        <ele>873</ele>
        <time>2022-03-03T14:40:46.617Z</time>
      </trkpt>
      <trkpt lat="44.14183" lon="6.11865">
        <ele>873</ele>
        <time>2022-03-03T14:40:47.617Z</time>
      </trkpt>
      <trkpt lat="44.14183" lon="6.11865">
        <ele>873</ele>
        <time>2022-03-03T14:40:48.617Z</time>
      </trkpt>
      <trkpt lat="44.14183" lon="6.11865">
        <ele>873</ele>
        <time>2022-03-03T14:40:49.617Z</time>
      </trkpt>
      <trkpt lat="44.14183" lon="6.11865">
        <ele>873</ele>
        <time>2022-03-03T14:40:50.617Z</time>
      </trkpt>
      <trkpt lat="44.14183" lon="6.11865">
        <ele>873</ele>
        <time>2022-03-03T14:40:51.617Z</time>
      </trkpt>
      <trkpt lat="44.14183" lon="6.11865">
        <ele>873</ele>
        <time>2022-03-03T14:40:52.617Z</time>
      </trkpt>
      <trkpt lat="44.14183" lon="6.11865">
        <ele>873</ele>
        <time>2022-03-03T14:40:53.617Z</time>
      </trkpt>
      <trkpt lat="44.14183" lon="6.11865">
        <ele>873</ele>
        <time>2022-03-03T14:40:54.617Z</time>
      </trkpt>
      <trkpt lat="44.14183" lon="6.11865">
        <ele>873</ele>
        <time>2022-03-03T14:40:55.617Z</time>
      </trkpt>
      <trkpt lat="44.14183" lon="6.11865">
        <ele>873</ele>
        <time>2022-03-03T14:40:56.617Z</time>
      </trkpt>
      <trkpt lat="44.14183" lon="6.11865">
        <ele>873</ele>
        <time>2022-03-03T14:40:57.617Z</time>
      </trkpt>
      <trkpt lat="44.14183" lon="6.11865">
        <ele>873</ele>
        <time>2022-03-03T14:40:58.617Z</time>
      </trkpt>
      <trkpt lat="44.14183" lon="6.11865">
        <ele>873</ele>
        <time>2022-03-03T14:40:59.617Z</time>
      </trkpt>
      <trkpt lat="44.14183" lon="6.11865">
        <ele>873</ele>
        <time>2022-03-03T14:41:00.617Z</time>
      </trkpt>
      <trkpt lat="44.14183" lon="6.11865">
        <ele>873</ele>
        <time>2022-03-03T14:41:01.617Z</time>
      </trkpt>
      <trkpt lat="44.14183" lon="6.11865">
        <ele>873</ele>
        <time>2022-03-03T14:41:02.617Z</time>
      </trkpt>
      <trkpt lat="44.14183" lon="6.11865">
        <ele>873</ele>
        <time>2022-03-03T14:41:03.617Z</time>
      </trkpt>
      <trkpt lat="44.14183" lon="6.11865">
        <ele>873</ele>
        <time>2022-03-03T14:41:04.617Z</time>
      </trkpt>
      <trkpt lat="44.14183" lon="6.11865">
        <ele>873</ele>
        <time>2022-03-03T14:41:05.617Z</time>
      </trkpt>
      <trkpt lat="44.14183" lon="6.11865">
        <ele>873</ele>
        <time>2022-03-03T14:41:06.617Z</time>
      </trkpt>
      <trkpt lat="44.14183" lon="6.11865">
        <ele>873</ele>
        <time>2022-03-03T14:41:07.617Z</time>
      </trkpt>
      <trkpt lat="44.14183" lon="6.11865">
        <ele>873</ele>
        <time>2022-03-03T14:41:08.617Z</time>
      </trkpt>
      <trkpt lat="44.14183" lon="6.11865">
        <ele>873</ele>
        <time>2022-03-03T14:41:09.617Z</time>
      </trkpt>
      <trkpt lat="44.14183" lon="6.11865">
        <ele>873</ele>
        <time>2022-03-03T14:41:10.617Z</time>
      </trkpt>
      <trkpt lat="44.14183" lon="6.11865">
        <ele>873</ele>
        <time>2022-03-03T14:41:11.617Z</time>
      </trkpt>
      <trkpt lat="44.14183" lon="6.11865">
        <ele>873</ele>
        <time>2022-03-03T14:41:12.617Z</time>
      </trkpt>
      <trkpt lat="44.14183" lon="6.11865">
        <ele>873</ele>
        <time>2022-03-03T14:41:13.617Z</time>
      </trkpt>
      <trkpt lat="44.14183" lon="6.11865">
        <ele>873</ele>
        <time>2022-03-03T14:41:14.617Z</time>
      </trkpt>
      <trkpt lat="44.14183" lon="6.11865">
        <ele>873</ele>
        <time>2022-03-03T14:41:15.617Z</time>
      </trkpt>
      <trkpt lat="44.14183" lon="6.11865">
        <ele>873</ele>
        <time>2022-03-03T14:41:16.617Z</time>
      </trkpt>
      <trkpt lat="44.14183" lon="6.11865">
        <ele>873</ele>
        <time>2022-03-03T14:41:17.617Z</time>
      </trkpt>
      <trkpt lat="44.14183" lon="6.11865">
        <ele>873</ele>
        <time>2022-03-03T14:41:18.617Z</time>
      </trkpt>
      <trkpt lat="44.14183" lon="6.11865">
        <ele>873</ele>
        <time>2022-03-03T14:41:19.617Z</time>
      </trkpt>
      <trkpt lat="44.14183" lon="6.11865">
        <ele>873</ele>
        <time>2022-03-03T14:41:20.617Z</time>
      </trkpt>
      <trkpt lat="44.14183" lon="6.11865">
        <ele>873</ele>
        <time>2022-03-03T14:41:21.617Z</time>
      </trkpt>
      <trkpt lat="44.14183" lon="6.11865">
        <ele>873</ele>
        <time>2022-03-03T14:41:22.617Z</time>
      </trkpt>
      <trkpt lat="44.14183" lon="6.11865">
        <ele>873</ele>
        <time>2022-03-03T14:41:23.617Z</time>
      </trkpt>
      <trkpt lat="44.14183" lon="6.11865">
        <ele>873</ele>
        <time>2022-03-03T14:41:24.617Z</time>
      </trkpt>
      <trkpt lat="44.14183" lon="6.11865">
        <ele>873</ele>
        <time>2022-03-03T14:41:25.617Z</time>
      </trkpt>
      <trkpt lat="44.14183" lon="6.11865">
        <ele>873</ele>
        <time>2022-03-03T14:41:26.617Z</time>
      </trkpt>
      <trkpt lat="44.14183" lon="6.11865">
        <ele>873</ele>
        <time>2022-03-03T14:41:27.617Z</time>
      </trkpt>
      <trkpt lat="44.14183" lon="6.11865">
        <ele>873</ele>
        <time>2022-03-03T14:41:28.617Z</time>
      </trkpt>
      <trkpt lat="44.14183" lon="6.11865">
        <ele>873</ele>
        <time>2022-03-03T14:41:29.617Z</time>
      </trkpt>
      <trkpt lat="44.14183" lon="6.11865">
        <ele>873</ele>
        <time>2022-03-03T14:41:30.617Z</time>
      </trkpt>
      <trkpt lat="44.14183" lon="6.11865">
        <ele>873</ele>
        <time>2022-03-03T14:41:31.617Z</time>
      </trkpt>
      <trkpt lat="44.14183" lon="6.11865">
        <ele>873</ele>
        <time>2022-03-03T14:41:32.617Z</time>
      </trkpt>
      <trkpt lat="44.14183" lon="6.11865">
        <ele>873</ele>
        <time>2022-03-03T14:41:33.617Z</time>
      </trkpt>
      <trkpt lat="44.14183" lon="6.11865">
        <ele>873</ele>
        <time>2022-03-03T14:41:34.617Z</time>
      </trkpt>
      <trkpt lat="44.14183" lon="6.11865">
        <ele>873</ele>
        <time>2022-03-03T14:41:35.617Z</time>
      </trkpt>
      <trkpt lat="44.14183" lon="6.11865">
        <ele>873</ele>
        <time>2022-03-03T14:41:36.617Z</time>
      </trkpt>
      <trkpt lat="44.14183" lon="6.11865">
        <ele>873</ele>
        <time>2022-03-03T14:41:37.617Z</time>
      </trkpt>
      <trkpt lat="44.14183" lon="6.11865">
        <ele>873</ele>
        <time>2022-03-03T14:41:38.617Z</time>
      </trkpt>
      <trkpt lat="44.14183" lon="6.11865">
        <ele>873</ele>
        <time>2022-03-03T14:41:39.617Z</time>
      </trkpt>
      <trkpt lat="44.14183" lon="6.11865">
        <ele>873</ele>
        <time>2022-03-03T14:41:40.617Z</time>
      </trkpt>
      <trkpt lat="44.14183" lon="6.11865">
        <ele>873</ele>
        <time>2022-03-03T14:41:41.617Z</time>
      </trkpt>
      <trkpt lat="44.14183" lon="6.11865">
        <ele>873</ele>
        <time>2022-03-03T14:41:42.617Z</time>
      </trkpt>
      <trkpt lat="44.14183" lon="6.11865">
        <ele>873</ele>
        <time>2022-03-03T14:41:43.617Z</time>
      </trkpt>
      <trkpt lat="44.14183" lon="6.11865">
        <ele>873</ele>
        <time>2022-03-03T14:41:44.617Z</time>
      </trkpt>
      <trkpt lat="44.14183" lon="6.11865">
        <ele>873</ele>
        <time>2022-03-03T14:41:45.617Z</time>
      </trkpt>
      <trkpt lat="44.14183" lon="6.11865">
        <ele>873</ele>
        <time>2022-03-03T14:41:46.617Z</time>
      </trkpt>
      <trkpt lat="44.14183" lon="6.11865">
        <ele>873</ele>
        <time>2022-03-03T14:41:47.617Z</time>
      </trkpt>
      <trkpt lat="44.14183" lon="6.11865">
        <ele>873</ele>
        <time>2022-03-03T14:41:48.617Z</time>
      </trkpt>
      <trkpt lat="44.14183" lon="6.11865">
        <ele>873</ele>
        <time>2022-03-03T14:41:49.617Z</time>
      </trkpt>
      <trkpt lat="44.14183" lon="6.11865">
        <ele>873</ele>
        <time>2022-03-03T14:41:50.617Z</time>
      </trkpt>
      <trkpt lat="44.14183" lon="6.11865">
        <ele>873</ele>
        <time>2022-03-03T14:41:51.617Z</time>
      </trkpt>
      <trkpt lat="44.14183" lon="6.11865">
        <ele>873</ele>
        <time>2022-03-03T14:41:52.617Z</time>
      </trkpt>
      <trkpt lat="44.14183" lon="6.11865">
        <ele>873</ele>
        <time>2022-03-03T14:41:53.617Z</time>
      </trkpt>
      <trkpt lat="44.14183" lon="6.11865">
        <ele>873</ele>
        <time>2022-03-03T14:41:54.617Z</time>
      </trkpt>
      <trkpt lat="44.14183" lon="6.11865">
        <ele>873</ele>
        <time>2022-03-03T14:41:55.617Z</time>
      </trkpt>
      <trkpt lat="44.14183" lon="6.11865">
        <ele>873</ele>
        <time>2022-03-03T14:41:56.617Z</time>
      </trkpt>
      <trkpt lat="44.14183" lon="6.11865">
        <ele>873</ele>
        <time>2022-03-03T14:41:57.617Z</time>
      </trkpt>
      <trkpt lat="44.14183" lon="6.11865">
        <ele>873</ele>
        <time>2022-03-03T14:41:58.617Z</time>
      </trkpt>
      <trkpt lat="44.14184" lon="6.11865">
        <ele>873</ele>
        <time>2022-03-03T14:41:59.617Z</time>
      </trkpt>
      <trkpt lat="44.14184" lon="6.11865">
        <ele>873</ele>
        <time>2022-03-03T14:42:00.617Z</time>
      </trkpt>
      <trkpt lat="44.14184" lon="6.11865">
        <ele>873</ele>
        <time>2022-03-03T14:42:01.617Z</time>
      </trkpt>
      <trkpt lat="44.14184" lon="6.11865">
        <ele>873</ele>
        <time>2022-03-03T14:42:02.617Z</time>
      </trkpt>
      <trkpt lat="44.14184" lon="6.11865">
        <ele>873</ele>
        <time>2022-03-03T14:42:03.617Z</time>
      </trkpt>
      <trkpt lat="44.14184" lon="6.11865">
        <ele>873</ele>
        <time>2022-03-03T14:42:04.617Z</time>
      </trkpt>
      <trkpt lat="44.14184" lon="6.11865">
        <ele>873</ele>
        <time>2022-03-03T14:42:05.617Z</time>
      </trkpt>
      <trkpt lat="44.14183" lon="6.11865">
        <ele>873</ele>
        <time>2022-03-03T14:42:06.617Z</time>
      </trkpt>
      <trkpt lat="44.14183" lon="6.11865">
        <ele>873</ele>
        <time>2022-03-03T14:42:07.617Z</time>
      </trkpt>
      <trkpt lat="44.14182" lon="6.11866">
        <ele>873</ele>
        <time>2022-03-03T14:42:08.617Z</time>
      </trkpt>
      <trkpt lat="44.14181" lon="6.11866">
        <ele>873</ele>
        <time>2022-03-03T14:42:09.617Z</time>
      </trkpt>
      <trkpt lat="44.1418" lon="6.11866">
        <ele>873</ele>
        <time>2022-03-03T14:42:10.617Z</time>
      </trkpt>
      <trkpt lat="44.14179" lon="6.11867">
        <ele>873</ele>
        <time>2022-03-03T14:42:11.617Z</time>
      </trkpt>
      <trkpt lat="44.14178" lon="6.11867">
        <ele>873</ele>
        <time>2022-03-03T14:42:12.617Z</time>
      </trkpt>
      <trkpt lat="44.14177" lon="6.11868">
        <ele>873</ele>
        <time>2022-03-03T14:42:13.617Z</time>
      </trkpt>
      <trkpt lat="44.14176" lon="6.11868">
        <ele>873</ele>
        <time>2022-03-03T14:42:14.617Z</time>
      </trkpt>
      <trkpt lat="44.14175" lon="6.11869">
        <ele>873</ele>
        <time>2022-03-03T14:42:15.617Z</time>
      </trkpt>
      <trkpt lat="44.14174" lon="6.11869">
        <ele>874</ele>
        <time>2022-03-03T14:42:16.617Z</time>
      </trkpt>
      <trkpt lat="44.14173" lon="6.1187">
        <ele>874</ele>
        <time>2022-03-03T14:42:17.617Z</time>
      </trkpt>
      <trkpt lat="44.14172" lon="6.1187">
        <ele>873</ele>
        <time>2022-03-03T14:42:18.617Z</time>
      </trkpt>
      <trkpt lat="44.14172" lon="6.11871">
        <ele>873</ele>
        <time>2022-03-03T14:42:19.617Z</time>
      </trkpt>
      <trkpt lat="44.14171" lon="6.11871">
        <ele>873</ele>
        <time>2022-03-03T14:42:20.617Z</time>
      </trkpt>
      <trkpt lat="44.1417" lon="6.11871">
        <ele>873</ele>
        <time>2022-03-03T14:42:21.617Z</time>
      </trkpt>
      <trkpt lat="44.14169" lon="6.11872">
        <ele>873</ele>
        <time>2022-03-03T14:42:22.617Z</time>
      </trkpt>
      <trkpt lat="44.14168" lon="6.11872">
        <ele>873</ele>
        <time>2022-03-03T14:42:23.617Z</time>
      </trkpt>
      <trkpt lat="44.14167" lon="6.11871">
        <ele>873</ele>
        <time>2022-03-03T14:42:24.617Z</time>
      </trkpt>
      <trkpt lat="44.14166" lon="6.11872">
        <ele>873</ele>
        <time>2022-03-03T14:42:25.617Z</time>
      </trkpt>
      <trkpt lat="44.14165" lon="6.11872">
        <ele>873</ele>
        <time>2022-03-03T14:42:26.617Z</time>
      </trkpt>
      <trkpt lat="44.14164" lon="6.11872">
        <ele>873</ele>
        <time>2022-03-03T14:42:27.617Z</time>
      </trkpt>
      <trkpt lat="44.14163" lon="6.11872">
        <ele>873</ele>
        <time>2022-03-03T14:42:28.617Z</time>
      </trkpt>
      <trkpt lat="44.14162" lon="6.11873">
        <ele>873</ele>
        <time>2022-03-03T14:42:29.617Z</time>
      </trkpt>
      <trkpt lat="44.14161" lon="6.11874">
        <ele>872</ele>
        <time>2022-03-03T14:42:30.617Z</time>
      </trkpt>
      <trkpt lat="44.1416" lon="6.11874">
        <ele>872</ele>
        <time>2022-03-03T14:42:31.617Z</time>
      </trkpt>
      <trkpt lat="44.14159" lon="6.11874">
        <ele>872</ele>
        <time>2022-03-03T14:42:32.617Z</time>
      </trkpt>
      <trkpt lat="44.14159" lon="6.11874">
        <ele>872</ele>
        <time>2022-03-03T14:42:33.617Z</time>
      </trkpt>
      <trkpt lat="44.14158" lon="6.11874">
        <ele>872</ele>
        <time>2022-03-03T14:42:34.617Z</time>
      </trkpt>
      <trkpt lat="44.14158" lon="6.11875">
        <ele>872</ele>
        <time>2022-03-03T14:42:35.617Z</time>
      </trkpt>
      <trkpt lat="44.14157" lon="6.11875">
        <ele>872</ele>
        <time>2022-03-03T14:42:36.617Z</time>
      </trkpt>
      <trkpt lat="44.14157" lon="6.11875">
        <ele>872</ele>
        <time>2022-03-03T14:42:37.617Z</time>
      </trkpt>
      <trkpt lat="44.14156" lon="6.11874">
        <ele>872</ele>
        <time>2022-03-03T14:42:38.617Z</time>
      </trkpt>
      <trkpt lat="44.14156" lon="6.11874">
        <ele>872</ele>
        <time>2022-03-03T14:42:39.617Z</time>
      </trkpt>
      <trkpt lat="44.14155" lon="6.11874">
        <ele>872</ele>
        <time>2022-03-03T14:42:40.617Z</time>
      </trkpt>
      <trkpt lat="44.14154" lon="6.11875">
        <ele>872</ele>
        <time>2022-03-03T14:42:41.617Z</time>
      </trkpt>
      <trkpt lat="44.14154" lon="6.11875">
        <ele>872</ele>
        <time>2022-03-03T14:42:42.617Z</time>
      </trkpt>
      <trkpt lat="44.14153" lon="6.11876">
        <ele>872</ele>
        <time>2022-03-03T14:42:43.617Z</time>
      </trkpt>
      <trkpt lat="44.14152" lon="6.11876">
        <ele>872</ele>
        <time>2022-03-03T14:42:44.617Z</time>
      </trkpt>
      <trkpt lat="44.14151" lon="6.11876">
        <ele>872</ele>
        <time>2022-03-03T14:42:45.617Z</time>
      </trkpt>
      <trkpt lat="44.14151" lon="6.11876">
        <ele>871</ele>
        <time>2022-03-03T14:42:46.617Z</time>
      </trkpt>
      <trkpt lat="44.14151" lon="6.11876">
        <ele>871</ele>
        <time>2022-03-03T14:42:47.617Z</time>
      </trkpt>
      <trkpt lat="44.1415" lon="6.11876">
        <ele>871</ele>
        <time>2022-03-03T14:42:48.617Z</time>
      </trkpt>
      <trkpt lat="44.1415" lon="6.11876">
        <ele>871</ele>
        <time>2022-03-03T14:42:49.617Z</time>
      </trkpt>
      <trkpt lat="44.1415" lon="6.11876">
        <ele>871</ele>
        <time>2022-03-03T14:42:50.617Z</time>
      </trkpt>
      <trkpt lat="44.1415" lon="6.11876">
        <ele>871</ele>
        <time>2022-03-03T14:42:51.617Z</time>
      </trkpt>
      <trkpt lat="44.1415" lon="6.11876">
        <ele>871</ele>
        <time>2022-03-03T14:42:52.617Z</time>
      </trkpt>
      <trkpt lat="44.1415" lon="6.11876">
        <ele>871</ele>
        <time>2022-03-03T14:42:53.617Z</time>
      </trkpt>
      <trkpt lat="44.1415" lon="6.11876">
        <ele>871</ele>
        <time>2022-03-03T14:42:54.617Z</time>
      </trkpt>
      <trkpt lat="44.1415" lon="6.11876">
        <ele>871</ele>
        <time>2022-03-03T14:42:55.617Z</time>
      </trkpt>
      <trkpt lat="44.1415" lon="6.11876">
        <ele>871</ele>
        <time>2022-03-03T14:42:56.617Z</time>
      </trkpt>
      <trkpt lat="44.1415" lon="6.11876">
        <ele>871</ele>
        <time>2022-03-03T14:42:57.617Z</time>
      </trkpt>
      <trkpt lat="44.14149" lon="6.11876">
        <ele>871</ele>
        <time>2022-03-03T14:42:58.617Z</time>
      </trkpt>
      <trkpt lat="44.14149" lon="6.11876">
        <ele>871</ele>
        <time>2022-03-03T14:42:59.617Z</time>
      </trkpt>
      <trkpt lat="44.14149" lon="6.11876">
        <ele>871</ele>
        <time>2022-03-03T14:43:00.617Z</time>
      </trkpt>
      <trkpt lat="44.14149" lon="6.11877">
        <ele>871</ele>
        <time>2022-03-03T14:43:01.617Z</time>
      </trkpt>
      <trkpt lat="44.14148" lon="6.11877">
        <ele>871</ele>
        <time>2022-03-03T14:43:02.617Z</time>
      </trkpt>
      <trkpt lat="44.14148" lon="6.11877">
        <ele>871</ele>
        <time>2022-03-03T14:43:03.617Z</time>
      </trkpt>
      <trkpt lat="44.14148" lon="6.11876">
        <ele>871</ele>
        <time>2022-03-03T14:43:04.617Z</time>
      </trkpt>
      <trkpt lat="44.14148" lon="6.11877">
        <ele>871</ele>
        <time>2022-03-03T14:43:05.617Z</time>
      </trkpt>
      <trkpt lat="44.14148" lon="6.11877">
        <ele>871</ele>
        <time>2022-03-03T14:43:06.617Z</time>
      </trkpt>
      <trkpt lat="44.14148" lon="6.11877">
        <ele>871</ele>
        <time>2022-03-03T14:43:07.617Z</time>
      </trkpt>
      <trkpt lat="44.14148" lon="6.11877">
        <ele>871</ele>
        <time>2022-03-03T14:43:08.617Z</time>
      </trkpt>
      <trkpt lat="44.14148" lon="6.11877">
        <ele>871</ele>
        <time>2022-03-03T14:43:09.617Z</time>
      </trkpt>
      <trkpt lat="44.14148" lon="6.11877">
        <ele>871</ele>
        <time>2022-03-03T14:43:10.617Z</time>
      </trkpt>
      <trkpt lat="44.14148" lon="6.11877">
        <ele>871</ele>
        <time>2022-03-03T14:43:11.617Z</time>
      </trkpt>
      <trkpt lat="44.14148" lon="6.11877">
        <ele>871</ele>
        <time>2022-03-03T14:43:12.617Z</time>
      </trkpt>
      <trkpt lat="44.14147" lon="6.11877">
        <ele>871</ele>
        <time>2022-03-03T14:43:13.617Z</time>
      </trkpt>
      <trkpt lat="44.14147" lon="6.11877">
        <ele>871</ele>
        <time>2022-03-03T14:43:14.617Z</time>
      </trkpt>
      <trkpt lat="44.14147" lon="6.11877">
        <ele>871</ele>
        <time>2022-03-03T14:43:15.617Z</time>
      </trkpt>
      <trkpt lat="44.14147" lon="6.11877">
        <ele>871</ele>
        <time>2022-03-03T14:43:16.617Z</time>
      </trkpt>
      <trkpt lat="44.14147" lon="6.11877">
        <ele>871</ele>
        <time>2022-03-03T14:43:17.617Z</time>
      </trkpt>
      <trkpt lat="44.14147" lon="6.11877">
        <ele>871</ele>
        <time>2022-03-03T14:43:18.617Z</time>
      </trkpt>
      <trkpt lat="44.14147" lon="6.11877">
        <ele>871</ele>
        <time>2022-03-03T14:43:19.617Z</time>
      </trkpt>
      <trkpt lat="44.14147" lon="6.11877">
        <ele>871</ele>
        <time>2022-03-03T14:43:20.617Z</time>
      </trkpt>
      <trkpt lat="44.14147" lon="6.11877">
        <ele>871</ele>
        <time>2022-03-03T14:43:21.617Z</time>
      </trkpt>
      <trkpt lat="44.14147" lon="6.11877">
        <ele>871</ele>
        <time>2022-03-03T14:43:22.617Z</time>
      </trkpt>
      <trkpt lat="44.14147" lon="6.11877">
        <ele>871</ele>
        <time>2022-03-03T14:43:23.617Z</time>
      </trkpt>
      <trkpt lat="44.14147" lon="6.11877">
        <ele>871</ele>
        <time>2022-03-03T14:43:24.617Z</time>
      </trkpt>
      <trkpt lat="44.14147" lon="6.11877">
        <ele>871</ele>
        <time>2022-03-03T14:43:25.617Z</time>
      </trkpt>
      <trkpt lat="44.14147" lon="6.11877">
        <ele>871</ele>
        <time>2022-03-03T14:43:26.617Z</time>
      </trkpt>
      <trkpt lat="44.14147" lon="6.11877">
        <ele>871</ele>
        <time>2022-03-03T14:43:27.617Z</time>
      </trkpt>
      <trkpt lat="44.14147" lon="6.11877">
        <ele>871</ele>
        <time>2022-03-03T14:43:28.617Z</time>
      </trkpt>
      <trkpt lat="44.14147" lon="6.11877">
        <ele>871</ele>
        <time>2022-03-03T14:43:29.617Z</time>
      </trkpt>
      <trkpt lat="44.14147" lon="6.11877">
        <ele>871</ele>
        <time>2022-03-03T14:43:30.617Z</time>
      </trkpt>
      <trkpt lat="44.14147" lon="6.11877">
        <ele>871</ele>
        <time>2022-03-03T14:43:31.617Z</time>
      </trkpt>
      <trkpt lat="44.14147" lon="6.11877">
        <ele>871</ele>
        <time>2022-03-03T14:43:32.617Z</time>
      </trkpt>
      <trkpt lat="44.14147" lon="6.11877">
        <ele>871</ele>
        <time>2022-03-03T14:43:33.617Z</time>
      </trkpt>
      <trkpt lat="44.14147" lon="6.11877">
        <ele>871</ele>
        <time>2022-03-03T14:43:34.617Z</time>
      </trkpt>
      <trkpt lat="44.14147" lon="6.11877">
        <ele>871</ele>
        <time>2022-03-03T14:43:35.617Z</time>
      </trkpt>
      <trkpt lat="44.14147" lon="6.11877">
        <ele>871</ele>
        <time>2022-03-03T14:43:36.617Z</time>
      </trkpt>
      <trkpt lat="44.14147" lon="6.11877">
        <ele>871</ele>
        <time>2022-03-03T14:43:37.617Z</time>
      </trkpt>
      <trkpt lat="44.14147" lon="6.11877">
        <ele>871</ele>
        <time>2022-03-03T14:43:38.617Z</time>
      </trkpt>
      <trkpt lat="44.14147" lon="6.11877">
        <ele>871</ele>
        <time>2022-03-03T14:43:39.617Z</time>
      </trkpt>
      <trkpt lat="44.14147" lon="6.11877">
        <ele>871</ele>
        <time>2022-03-03T14:43:40.617Z</time>
      </trkpt>
      <trkpt lat="44.14147" lon="6.11877">
        <ele>871</ele>
        <time>2022-03-03T14:43:41.617Z</time>
      </trkpt>
      <trkpt lat="44.14147" lon="6.11877">
        <ele>871</ele>
        <time>2022-03-03T14:43:42.617Z</time>
      </trkpt>
      <trkpt lat="44.14147" lon="6.11877">
        <ele>871</ele>
        <time>2022-03-03T14:43:43.617Z</time>
      </trkpt>
      <trkpt lat="44.14147" lon="6.11877">
        <ele>871</ele>
        <time>2022-03-03T14:43:44.617Z</time>
      </trkpt>
      <trkpt lat="44.14147" lon="6.11877">
        <ele>871</ele>
        <time>2022-03-03T14:43:45.617Z</time>
      </trkpt>
      <trkpt lat="44.14147" lon="6.11877">
        <ele>871</ele>
        <time>2022-03-03T14:43:46.617Z</time>
      </trkpt>
      <trkpt lat="44.14147" lon="6.11877">
        <ele>871</ele>
        <time>2022-03-03T14:43:47.617Z</time>
      </trkpt>
      <trkpt lat="44.14147" lon="6.11877">
        <ele>871</ele>
        <time>2022-03-03T14:43:48.617Z</time>
      </trkpt>
      <trkpt lat="44.14147" lon="6.11877">
        <ele>871</ele>
        <time>2022-03-03T14:43:49.617Z</time>
      </trkpt>
      <trkpt lat="44.14147" lon="6.11877">
        <ele>871</ele>
        <time>2022-03-03T14:43:50.617Z</time>
      </trkpt>
      <trkpt lat="44.14147" lon="6.11877">
        <ele>871</ele>
        <time>2022-03-03T14:43:51.617Z</time>
      </trkpt>
      <trkpt lat="44.14147" lon="6.11877">
        <ele>871</ele>
        <time>2022-03-03T14:43:52.617Z</time>
      </trkpt>
      <trkpt lat="44.14147" lon="6.11877">
        <ele>871</ele>
        <time>2022-03-03T14:43:53.617Z</time>
      </trkpt>
      <trkpt lat="44.14147" lon="6.11877">
        <ele>871</ele>
        <time>2022-03-03T14:43:54.617Z</time>
      </trkpt>
      <trkpt lat="44.14147" lon="6.11877">
        <ele>871</ele>
        <time>2022-03-03T14:43:55.617Z</time>
      </trkpt>
      <trkpt lat="44.14147" lon="6.11877">
        <ele>871</ele>
        <time>2022-03-03T14:43:56.617Z</time>
      </trkpt>
      <trkpt lat="44.14147" lon="6.11877">
        <ele>871</ele>
        <time>2022-03-03T14:43:57.617Z</time>
      </trkpt>
      <trkpt lat="44.14147" lon="6.11877">
        <ele>870</ele>
        <time>2022-03-03T14:43:58.617Z</time>
      </trkpt>
      <trkpt lat="44.14147" lon="6.11877">
        <ele>870</ele>
        <time>2022-03-03T14:43:59.617Z</time>
      </trkpt>
      <trkpt lat="44.14147" lon="6.11877">
        <ele>870</ele>
        <time>2022-03-03T14:44:00.617Z</time>
      </trkpt>
      <trkpt lat="44.14147" lon="6.11877">
        <ele>870</ele>
        <time>2022-03-03T14:44:01.617Z</time>
      </trkpt>
      <trkpt lat="44.14147" lon="6.11877">
        <ele>870</ele>
        <time>2022-03-03T14:44:02.617Z</time>
      </trkpt>
      <trkpt lat="44.14147" lon="6.11877">
        <ele>870</ele>
        <time>2022-03-03T14:44:03.617Z</time>
      </trkpt>
      <trkpt lat="44.14147" lon="6.11877">
        <ele>870</ele>
        <time>2022-03-03T14:44:04.617Z</time>
      </trkpt>
      <trkpt lat="44.14147" lon="6.11877">
        <ele>870</ele>
        <time>2022-03-03T14:44:05.617Z</time>
      </trkpt>
      <trkpt lat="44.14147" lon="6.11877">
        <ele>870</ele>
        <time>2022-03-03T14:44:06.617Z</time>
      </trkpt>
      <trkpt lat="44.14147" lon="6.11877">
        <ele>870</ele>
        <time>2022-03-03T14:44:07.617Z</time>
      </trkpt>
      <trkpt lat="44.14147" lon="6.11877">
        <ele>870</ele>
        <time>2022-03-03T14:44:08.617Z</time>
      </trkpt>
      <trkpt lat="44.14147" lon="6.11877">
        <ele>870</ele>
        <time>2022-03-03T14:44:09.617Z</time>
      </trkpt>
      <trkpt lat="44.14147" lon="6.11877">
        <ele>870</ele>
        <time>2022-03-03T14:44:10.617Z</time>
      </trkpt>
      <trkpt lat="44.14147" lon="6.11877">
        <ele>870</ele>
        <time>2022-03-03T14:44:11.617Z</time>
      </trkpt>
      <trkpt lat="44.14147" lon="6.11877">
        <ele>870</ele>
        <time>2022-03-03T14:44:12.617Z</time>
      </trkpt>
      <trkpt lat="44.14147" lon="6.11877">
        <ele>870</ele>
        <time>2022-03-03T14:44:13.617Z</time>
      </trkpt>
      <trkpt lat="44.14147" lon="6.11877">
        <ele>870</ele>
        <time>2022-03-03T14:44:14.617Z</time>
      </trkpt>
      <trkpt lat="44.14147" lon="6.11877">
        <ele>870</ele>
        <time>2022-03-03T14:44:15.617Z</time>
      </trkpt>
      <trkpt lat="44.14147" lon="6.11877">
        <ele>870</ele>
        <time>2022-03-03T14:44:16.617Z</time>
      </trkpt>
      <trkpt lat="44.14147" lon="6.11877">
        <ele>870</ele>
        <time>2022-03-03T14:44:17.617Z</time>
      </trkpt>
      <trkpt lat="44.14147" lon="6.11877">
        <ele>870</ele>
        <time>2022-03-03T14:44:18.617Z</time>
      </trkpt>
      <trkpt lat="44.14147" lon="6.11877">
        <ele>870</ele>
        <time>2022-03-03T14:44:19.617Z</time>
      </trkpt>
      <trkpt lat="44.14147" lon="6.11877">
        <ele>870</ele>
        <time>2022-03-03T14:44:20.617Z</time>
      </trkpt>
      <trkpt lat="44.14147" lon="6.11877">
        <ele>870</ele>
        <time>2022-03-03T14:44:21.617Z</time>
      </trkpt>
      <trkpt lat="44.14147" lon="6.11877">
        <ele>870</ele>
        <time>2022-03-03T14:44:22.617Z</time>
      </trkpt>
      <trkpt lat="44.14147" lon="6.11877">
        <ele>870</ele>
        <time>2022-03-03T14:44:23.617Z</time>
      </trkpt>
      <trkpt lat="44.14147" lon="6.11877">
        <ele>870</ele>
        <time>2022-03-03T14:44:24.617Z</time>
      </trkpt>
      <trkpt lat="44.14147" lon="6.11877">
        <ele>870</ele>
        <time>2022-03-03T14:44:25.617Z</time>
      </trkpt>
      <trkpt lat="44.14147" lon="6.11877">
        <ele>870</ele>
        <time>2022-03-03T14:44:26.617Z</time>
      </trkpt>
      <trkpt lat="44.14147" lon="6.11877">
        <ele>870</ele>
        <time>2022-03-03T14:44:27.617Z</time>
      </trkpt>
      <trkpt lat="44.14147" lon="6.11877">
        <ele>870</ele>
        <time>2022-03-03T14:44:28.617Z</time>
      </trkpt>
      <trkpt lat="44.14147" lon="6.11877">
        <ele>870</ele>
        <time>2022-03-03T14:44:29.617Z</time>
      </trkpt>
      <trkpt lat="44.14147" lon="6.11877">
        <ele>870</ele>
        <time>2022-03-03T14:44:30.617Z</time>
      </trkpt>
      <trkpt lat="44.14147" lon="6.11877">
        <ele>870</ele>
        <time>2022-03-03T14:44:31.617Z</time>
      </trkpt>
      <trkpt lat="44.14147" lon="6.11877">
        <ele>870</ele>
        <time>2022-03-03T14:44:32.617Z</time>
      </trkpt>
      <trkpt lat="44.14147" lon="6.11877">
        <ele>870</ele>
        <time>2022-03-03T14:44:33.617Z</time>
      </trkpt>
      <trkpt lat="44.14147" lon="6.11877">
        <ele>870</ele>
        <time>2022-03-03T14:44:34.617Z</time>
      </trkpt>
      <trkpt lat="44.14147" lon="6.11877">
        <ele>870</ele>
        <time>2022-03-03T14:44:35.617Z</time>
      </trkpt>
      <trkpt lat="44.14147" lon="6.11877">
        <ele>870</ele>
        <time>2022-03-03T14:44:36.617Z</time>
      </trkpt>
      <trkpt lat="44.14147" lon="6.11877">
        <ele>870</ele>
        <time>2022-03-03T14:44:37.617Z</time>
      </trkpt>
      <trkpt lat="44.14147" lon="6.11877">
        <ele>870</ele>
        <time>2022-03-03T14:44:38.617Z</time>
      </trkpt>
      <trkpt lat="44.14146" lon="6.11878">
        <ele>870</ele>
        <time>2022-03-03T14:44:39.617Z</time>
      </trkpt>
      <trkpt lat="44.14146" lon="6.11878">
        <ele>870</ele>
        <time>2022-03-03T14:44:40.617Z</time>
      </trkpt>
      <trkpt lat="44.14145" lon="6.11879">
        <ele>870</ele>
        <time>2022-03-03T14:44:41.617Z</time>
      </trkpt>
      <trkpt lat="44.14144" lon="6.11879">
        <ele>870</ele>
        <time>2022-03-03T14:44:42.617Z</time>
      </trkpt>
      <trkpt lat="44.14144" lon="6.11879">
        <ele>870</ele>
        <time>2022-03-03T14:44:43.617Z</time>
      </trkpt>
      <trkpt lat="44.14143" lon="6.11879">
        <ele>870</ele>
        <time>2022-03-03T14:44:44.617Z</time>
      </trkpt>
      <trkpt lat="44.14143" lon="6.1188">
        <ele>870</ele>
        <time>2022-03-03T14:44:45.617Z</time>
      </trkpt>
      <trkpt lat="44.14142" lon="6.1188">
        <ele>870</ele>
        <time>2022-03-03T14:44:46.617Z</time>
      </trkpt>
      <trkpt lat="44.14141" lon="6.1188">
        <ele>870</ele>
        <time>2022-03-03T14:44:47.617Z</time>
      </trkpt>
      <trkpt lat="44.14141" lon="6.1188">
        <ele>870</ele>
        <time>2022-03-03T14:44:48.617Z</time>
      </trkpt>
      <trkpt lat="44.1414" lon="6.11881">
        <ele>870</ele>
        <time>2022-03-03T14:44:49.617Z</time>
      </trkpt>
      <trkpt lat="44.14139" lon="6.11881">
        <ele>870</ele>
        <time>2022-03-03T14:44:50.617Z</time>
      </trkpt>
      <trkpt lat="44.14138" lon="6.11882">
        <ele>870</ele>
        <time>2022-03-03T14:44:51.617Z</time>
      </trkpt>
      <trkpt lat="44.14137" lon="6.11882">
        <ele>870</ele>
        <time>2022-03-03T14:44:52.617Z</time>
      </trkpt>
      <trkpt lat="44.14136" lon="6.11882">
        <ele>870</ele>
        <time>2022-03-03T14:44:53.617Z</time>
      </trkpt>
      <trkpt lat="44.14135" lon="6.11883">
        <ele>869</ele>
        <time>2022-03-03T14:44:54.617Z</time>
      </trkpt>
      <trkpt lat="44.14134" lon="6.11884">
        <ele>869</ele>
        <time>2022-03-03T14:44:55.617Z</time>
      </trkpt>
      <trkpt lat="44.14133" lon="6.11884">
        <ele>869</ele>
        <time>2022-03-03T14:44:56.617Z</time>
      </trkpt>
      <trkpt lat="44.14132" lon="6.11885">
        <ele>869</ele>
        <time>2022-03-03T14:44:57.617Z</time>
      </trkpt>
      <trkpt lat="44.14131" lon="6.11885">
        <ele>869</ele>
        <time>2022-03-03T14:44:58.617Z</time>
      </trkpt>
      <trkpt lat="44.1413" lon="6.11886">
        <ele>869</ele>
        <time>2022-03-03T14:44:59.617Z</time>
      </trkpt>
      <trkpt lat="44.14129" lon="6.11886">
        <ele>869</ele>
        <time>2022-03-03T14:45:00.617Z</time>
      </trkpt>
      <trkpt lat="44.14128" lon="6.11887">
        <ele>869</ele>
        <time>2022-03-03T14:45:01.617Z</time>
      </trkpt>
      <trkpt lat="44.14127" lon="6.11887">
        <ele>869</ele>
        <time>2022-03-03T14:45:02.617Z</time>
      </trkpt>
      <trkpt lat="44.14126" lon="6.11887">
        <ele>869</ele>
        <time>2022-03-03T14:45:03.617Z</time>
      </trkpt>
      <trkpt lat="44.14125" lon="6.11887">
        <ele>868</ele>
        <time>2022-03-03T14:45:04.617Z</time>
      </trkpt>
      <trkpt lat="44.14124" lon="6.11887">
        <ele>868</ele>
        <time>2022-03-03T14:45:05.617Z</time>
      </trkpt>
      <trkpt lat="44.14123" lon="6.11887">
        <ele>868</ele>
        <time>2022-03-03T14:45:06.617Z</time>
      </trkpt>
      <trkpt lat="44.14122" lon="6.11887">
        <ele>868</ele>
        <time>2022-03-03T14:45:07.617Z</time>
      </trkpt>
      <trkpt lat="44.14121" lon="6.11888">
        <ele>868</ele>
        <time>2022-03-03T14:45:08.617Z</time>
      </trkpt>
      <trkpt lat="44.1412" lon="6.11888">
        <ele>868</ele>
        <time>2022-03-03T14:45:09.617Z</time>
      </trkpt>
      <trkpt lat="44.14119" lon="6.11888">
        <ele>868</ele>
        <time>2022-03-03T14:45:10.617Z</time>
      </trkpt>
      <trkpt lat="44.14118" lon="6.11889">
        <ele>868</ele>
        <time>2022-03-03T14:45:11.617Z</time>
      </trkpt>
      <trkpt lat="44.14117" lon="6.11889">
        <ele>868</ele>
        <time>2022-03-03T14:45:12.617Z</time>
      </trkpt>
      <trkpt lat="44.14116" lon="6.11888">
        <ele>868</ele>
        <time>2022-03-03T14:45:13.617Z</time>
      </trkpt>
      <trkpt lat="44.14115" lon="6.11889">
        <ele>867</ele>
        <time>2022-03-03T14:45:14.617Z</time>
      </trkpt>
      <trkpt lat="44.14113" lon="6.11888">
        <ele>867</ele>
        <time>2022-03-03T14:45:15.617Z</time>
      </trkpt>
      <trkpt lat="44.14112" lon="6.11888">
        <ele>867</ele>
        <time>2022-03-03T14:45:16.617Z</time>
      </trkpt>
      <trkpt lat="44.14111" lon="6.11888">
        <ele>867</ele>
        <time>2022-03-03T14:45:17.617Z</time>
      </trkpt>
      <trkpt lat="44.1411" lon="6.11888">
        <ele>867</ele>
        <time>2022-03-03T14:45:18.617Z</time>
      </trkpt>
      <trkpt lat="44.14109" lon="6.11887">
        <ele>867</ele>
        <time>2022-03-03T14:45:19.617Z</time>
      </trkpt>
      <trkpt lat="44.14108" lon="6.11887">
        <ele>867</ele>
        <time>2022-03-03T14:45:20.617Z</time>
      </trkpt>
      <trkpt lat="44.14107" lon="6.11886">
        <ele>867</ele>
        <time>2022-03-03T14:45:21.617Z</time>
      </trkpt>
      <trkpt lat="44.14106" lon="6.11886">
        <ele>867</ele>
        <time>2022-03-03T14:45:22.617Z</time>
      </trkpt>
      <trkpt lat="44.14105" lon="6.11885">
        <ele>867</ele>
        <time>2022-03-03T14:45:23.617Z</time>
      </trkpt>
      <trkpt lat="44.14104" lon="6.11884">
        <ele>867</ele>
        <time>2022-03-03T14:45:24.617Z</time>
      </trkpt>
      <trkpt lat="44.14102" lon="6.11884">
        <ele>867</ele>
        <time>2022-03-03T14:45:25.617Z</time>
      </trkpt>
      <trkpt lat="44.14101" lon="6.11883">
        <ele>867</ele>
        <time>2022-03-03T14:45:26.617Z</time>
      </trkpt>
      <trkpt lat="44.141" lon="6.11882">
        <ele>867</ele>
        <time>2022-03-03T14:45:27.617Z</time>
      </trkpt>
      <trkpt lat="44.14099" lon="6.11882">
        <ele>867</ele>
        <time>2022-03-03T14:45:28.617Z</time>
      </trkpt>
      <trkpt lat="44.14098" lon="6.11881">
        <ele>867</ele>
        <time>2022-03-03T14:45:29.617Z</time>
      </trkpt>
      <trkpt lat="44.14097" lon="6.1188">
        <ele>866</ele>
        <time>2022-03-03T14:45:30.617Z</time>
      </trkpt>
      <trkpt lat="44.14096" lon="6.11879">
        <ele>866</ele>
        <time>2022-03-03T14:45:31.617Z</time>
      </trkpt>
      <trkpt lat="44.14096" lon="6.11878">
        <ele>866</ele>
        <time>2022-03-03T14:45:32.617Z</time>
      </trkpt>
      <trkpt lat="44.14095" lon="6.11877">
        <ele>866</ele>
        <time>2022-03-03T14:45:33.617Z</time>
      </trkpt>
      <trkpt lat="44.14094" lon="6.11876">
        <ele>866</ele>
        <time>2022-03-03T14:45:34.617Z</time>
      </trkpt>
      <trkpt lat="44.14093" lon="6.11875">
        <ele>866</ele>
        <time>2022-03-03T14:45:35.617Z</time>
      </trkpt>
      <trkpt lat="44.14092" lon="6.11874">
        <ele>865</ele>
        <time>2022-03-03T14:45:36.617Z</time>
      </trkpt>
      <trkpt lat="44.1409" lon="6.11873">
        <ele>865</ele>
        <time>2022-03-03T14:45:37.617Z</time>
      </trkpt>
      <trkpt lat="44.14089" lon="6.11872">
        <ele>865</ele>
        <time>2022-03-03T14:45:38.617Z</time>
      </trkpt>
      <trkpt lat="44.14088" lon="6.11872">
        <ele>865</ele>
        <time>2022-03-03T14:45:39.617Z</time>
      </trkpt>
      <trkpt lat="44.14087" lon="6.1187">
        <ele>865</ele>
        <time>2022-03-03T14:45:40.617Z</time>
      </trkpt>
      <trkpt lat="44.14086" lon="6.1187">
        <ele>865</ele>
        <time>2022-03-03T14:45:41.617Z</time>
      </trkpt>
      <trkpt lat="44.14085" lon="6.11869">
        <ele>864</ele>
        <time>2022-03-03T14:45:42.617Z</time>
      </trkpt>
      <trkpt lat="44.14084" lon="6.11868">
        <ele>864</ele>
        <time>2022-03-03T14:45:43.617Z</time>
      </trkpt>
      <trkpt lat="44.14083" lon="6.11868">
        <ele>864</ele>
        <time>2022-03-03T14:45:44.617Z</time>
      </trkpt>
      <trkpt lat="44.14082" lon="6.11867">
        <ele>864</ele>
        <time>2022-03-03T14:45:45.617Z</time>
      </trkpt>
      <trkpt lat="44.14081" lon="6.11866">
        <ele>864</ele>
        <time>2022-03-03T14:45:46.617Z</time>
      </trkpt>
      <trkpt lat="44.1408" lon="6.11865">
        <ele>864</ele>
        <time>2022-03-03T14:45:47.617Z</time>
      </trkpt>
      <trkpt lat="44.14078" lon="6.11865">
        <ele>863</ele>
        <time>2022-03-03T14:45:48.617Z</time>
      </trkpt>
      <trkpt lat="44.14077" lon="6.11864">
        <ele>863</ele>
        <time>2022-03-03T14:45:49.617Z</time>
      </trkpt>
      <trkpt lat="44.14076" lon="6.11864">
        <ele>863</ele>
        <time>2022-03-03T14:45:50.617Z</time>
      </trkpt>
      <trkpt lat="44.14076" lon="6.11864">
        <ele>863</ele>
        <time>2022-03-03T14:45:51.617Z</time>
      </trkpt>
      <trkpt lat="44.14076" lon="6.11864">
        <ele>863</ele>
        <time>2022-03-03T14:45:52.617Z</time>
      </trkpt>
      <trkpt lat="44.14075" lon="6.11864">
        <ele>863</ele>
        <time>2022-03-03T14:45:53.617Z</time>
      </trkpt>
      <trkpt lat="44.14075" lon="6.11864">
        <ele>863</ele>
        <time>2022-03-03T14:45:54.617Z</time>
      </trkpt>
      <trkpt lat="44.14075" lon="6.11864">
        <ele>863</ele>
        <time>2022-03-03T14:45:55.617Z</time>
      </trkpt>
      <trkpt lat="44.14075" lon="6.11864">
        <ele>863</ele>
        <time>2022-03-03T14:45:56.617Z</time>
      </trkpt>
      <trkpt lat="44.14075" lon="6.11864">
        <ele>863</ele>
        <time>2022-03-03T14:45:57.617Z</time>
      </trkpt>
      <trkpt lat="44.14075" lon="6.11864">
        <ele>863</ele>
        <time>2022-03-03T14:45:58.617Z</time>
      </trkpt>
      <trkpt lat="44.14075" lon="6.11864">
        <ele>863</ele>
        <time>2022-03-03T14:45:59.617Z</time>
      </trkpt>
      <trkpt lat="44.14075" lon="6.11864">
        <ele>863</ele>
        <time>2022-03-03T14:46:00.617Z</time>
      </trkpt>
      <trkpt lat="44.14075" lon="6.11864">
        <ele>863</ele>
        <time>2022-03-03T14:46:01.617Z</time>
      </trkpt>
      <trkpt lat="44.14075" lon="6.11864">
        <ele>863</ele>
        <time>2022-03-03T14:46:02.617Z</time>
      </trkpt>
      <trkpt lat="44.14075" lon="6.11864">
        <ele>863</ele>
        <time>2022-03-03T14:46:03.617Z</time>
      </trkpt>
      <trkpt lat="44.14075" lon="6.11864">
        <ele>863</ele>
        <time>2022-03-03T14:46:04.617Z</time>
      </trkpt>
      <trkpt lat="44.14075" lon="6.11864">
        <ele>863</ele>
        <time>2022-03-03T14:46:05.617Z</time>
      </trkpt>
      <trkpt lat="44.14075" lon="6.11864">
        <ele>863</ele>
        <time>2022-03-03T14:46:06.617Z</time>
      </trkpt>
      <trkpt lat="44.14075" lon="6.11864">
        <ele>863</ele>
        <time>2022-03-03T14:46:07.617Z</time>
      </trkpt>
      <trkpt lat="44.14074" lon="6.11863">
        <ele>863</ele>
        <time>2022-03-03T14:46:08.617Z</time>
      </trkpt>
      <trkpt lat="44.14073" lon="6.11862">
        <ele>863</ele>
        <time>2022-03-03T14:46:09.617Z</time>
      </trkpt>
      <trkpt lat="44.14072" lon="6.11862">
        <ele>863</ele>
        <time>2022-03-03T14:46:10.617Z</time>
      </trkpt>
      <trkpt lat="44.14071" lon="6.11861">
        <ele>863</ele>
        <time>2022-03-03T14:46:11.617Z</time>
      </trkpt>
      <trkpt lat="44.1407" lon="6.1186">
        <ele>863</ele>
        <time>2022-03-03T14:46:12.617Z</time>
      </trkpt>
      <trkpt lat="44.14069" lon="6.11859">
        <ele>863</ele>
        <time>2022-03-03T14:46:13.617Z</time>
      </trkpt>
      <trkpt lat="44.14068" lon="6.11859">
        <ele>862</ele>
        <time>2022-03-03T14:46:14.617Z</time>
      </trkpt>
      <trkpt lat="44.14067" lon="6.11858">
        <ele>862</ele>
        <time>2022-03-03T14:46:15.617Z</time>
      </trkpt>
      <trkpt lat="44.14066" lon="6.11857">
        <ele>862</ele>
        <time>2022-03-03T14:46:16.617Z</time>
      </trkpt>
      <trkpt lat="44.14065" lon="6.11856">
        <ele>862</ele>
        <time>2022-03-03T14:46:17.617Z</time>
      </trkpt>
      <trkpt lat="44.14064" lon="6.11855">
        <ele>862</ele>
        <time>2022-03-03T14:46:18.617Z</time>
      </trkpt>
      <trkpt lat="44.14063" lon="6.11855">
        <ele>862</ele>
        <time>2022-03-03T14:46:19.617Z</time>
      </trkpt>
      <trkpt lat="44.14062" lon="6.11854">
        <ele>862</ele>
        <time>2022-03-03T14:46:20.617Z</time>
      </trkpt>
      <trkpt lat="44.14061" lon="6.11853">
        <ele>862</ele>
        <time>2022-03-03T14:46:21.617Z</time>
      </trkpt>
      <trkpt lat="44.1406" lon="6.11852">
        <ele>861</ele>
        <time>2022-03-03T14:46:22.617Z</time>
      </trkpt>
      <trkpt lat="44.14059" lon="6.11851">
        <ele>861</ele>
        <time>2022-03-03T14:46:23.617Z</time>
      </trkpt>
      <trkpt lat="44.14058" lon="6.11851">
        <ele>861</ele>
        <time>2022-03-03T14:46:24.617Z</time>
      </trkpt>
      <trkpt lat="44.14057" lon="6.1185">
        <ele>861</ele>
        <time>2022-03-03T14:46:25.617Z</time>
      </trkpt>
      <trkpt lat="44.14056" lon="6.11849">
        <ele>861</ele>
        <time>2022-03-03T14:46:26.617Z</time>
      </trkpt>
      <trkpt lat="44.14055" lon="6.11849">
        <ele>861</ele>
        <time>2022-03-03T14:46:27.617Z</time>
      </trkpt>
      <trkpt lat="44.14054" lon="6.11848">
        <ele>861</ele>
        <time>2022-03-03T14:46:28.617Z</time>
      </trkpt>
      <trkpt lat="44.14052" lon="6.11848">
        <ele>861</ele>
        <time>2022-03-03T14:46:29.617Z</time>
      </trkpt>
      <trkpt lat="44.14051" lon="6.11847">
        <ele>861</ele>
        <time>2022-03-03T14:46:30.617Z</time>
      </trkpt>
      <trkpt lat="44.1405" lon="6.11847">
        <ele>861</ele>
        <time>2022-03-03T14:46:31.617Z</time>
      </trkpt>
      <trkpt lat="44.14048" lon="6.11846">
        <ele>861</ele>
        <time>2022-03-03T14:46:32.617Z</time>
      </trkpt>
      <trkpt lat="44.14047" lon="6.11846">
        <ele>861</ele>
        <time>2022-03-03T14:46:33.617Z</time>
      </trkpt>
      <trkpt lat="44.14046" lon="6.11846">
        <ele>861</ele>
        <time>2022-03-03T14:46:34.617Z</time>
      </trkpt>
      <trkpt lat="44.14044" lon="6.11846">
        <ele>861</ele>
        <time>2022-03-03T14:46:35.617Z</time>
      </trkpt>
      <trkpt lat="44.14043" lon="6.11846">
        <ele>861</ele>
        <time>2022-03-03T14:46:36.617Z</time>
      </trkpt>
      <trkpt lat="44.14042" lon="6.11846">
        <ele>861</ele>
        <time>2022-03-03T14:46:37.617Z</time>
      </trkpt>
      <trkpt lat="44.1404" lon="6.11846">
        <ele>861</ele>
        <time>2022-03-03T14:46:38.617Z</time>
      </trkpt>
      <trkpt lat="44.14039" lon="6.11847">
        <ele>861</ele>
        <time>2022-03-03T14:46:39.617Z</time>
      </trkpt>
      <trkpt lat="44.14038" lon="6.11847">
        <ele>861</ele>
        <time>2022-03-03T14:46:40.617Z</time>
      </trkpt>
      <trkpt lat="44.14037" lon="6.11847">
        <ele>861</ele>
        <time>2022-03-03T14:46:41.617Z</time>
      </trkpt>
      <trkpt lat="44.14035" lon="6.11847">
        <ele>861</ele>
        <time>2022-03-03T14:46:42.617Z</time>
      </trkpt>
      <trkpt lat="44.14034" lon="6.11847">
        <ele>861</ele>
        <time>2022-03-03T14:46:43.617Z</time>
      </trkpt>
      <trkpt lat="44.14033" lon="6.11847">
        <ele>861</ele>
        <time>2022-03-03T14:46:44.617Z</time>
      </trkpt>
      <trkpt lat="44.14032" lon="6.11848">
        <ele>861</ele>
        <time>2022-03-03T14:46:45.617Z</time>
      </trkpt>
      <trkpt lat="44.14031" lon="6.11848">
        <ele>861</ele>
        <time>2022-03-03T14:46:46.617Z</time>
      </trkpt>
      <trkpt lat="44.14029" lon="6.11848">
        <ele>861</ele>
        <time>2022-03-03T14:46:47.617Z</time>
      </trkpt>
      <trkpt lat="44.14028" lon="6.11848">
        <ele>861</ele>
        <time>2022-03-03T14:46:48.617Z</time>
      </trkpt>
      <trkpt lat="44.14027" lon="6.11848">
        <ele>861</ele>
        <time>2022-03-03T14:46:49.617Z</time>
      </trkpt>
      <trkpt lat="44.14025" lon="6.11848">
        <ele>862</ele>
        <time>2022-03-03T14:46:50.617Z</time>
      </trkpt>
      <trkpt lat="44.14024" lon="6.11848">
        <ele>862</ele>
        <time>2022-03-03T14:46:51.617Z</time>
      </trkpt>
      <trkpt lat="44.14023" lon="6.11848">
        <ele>862</ele>
        <time>2022-03-03T14:46:52.617Z</time>
      </trkpt>
      <trkpt lat="44.14021" lon="6.11848">
        <ele>862</ele>
        <time>2022-03-03T14:46:53.617Z</time>
      </trkpt>
      <trkpt lat="44.1402" lon="6.11848">
        <ele>862</ele>
        <time>2022-03-03T14:46:54.617Z</time>
      </trkpt>
      <trkpt lat="44.14019" lon="6.11848">
        <ele>862</ele>
        <time>2022-03-03T14:46:55.617Z</time>
      </trkpt>
      <trkpt lat="44.14017" lon="6.11847">
        <ele>862</ele>
        <time>2022-03-03T14:46:56.617Z</time>
      </trkpt>
      <trkpt lat="44.14016" lon="6.11847">
        <ele>862</ele>
        <time>2022-03-03T14:46:57.617Z</time>
      </trkpt>
      <trkpt lat="44.14015" lon="6.11847">
        <ele>862</ele>
        <time>2022-03-03T14:46:58.617Z</time>
      </trkpt>
      <trkpt lat="44.14013" lon="6.11847">
        <ele>862</ele>
        <time>2022-03-03T14:46:59.617Z</time>
      </trkpt>
      <trkpt lat="44.14012" lon="6.11847">
        <ele>861</ele>
        <time>2022-03-03T14:47:00.617Z</time>
      </trkpt>
      <trkpt lat="44.14011" lon="6.11847">
        <ele>861</ele>
        <time>2022-03-03T14:47:01.617Z</time>
      </trkpt>
      <trkpt lat="44.1401" lon="6.11847">
        <ele>861</ele>
        <time>2022-03-03T14:47:02.617Z</time>
      </trkpt>
      <trkpt lat="44.14008" lon="6.11848">
        <ele>861</ele>
        <time>2022-03-03T14:47:03.617Z</time>
      </trkpt>
      <trkpt lat="44.14007" lon="6.11848">
        <ele>861</ele>
        <time>2022-03-03T14:47:04.617Z</time>
      </trkpt>
      <trkpt lat="44.14006" lon="6.11848">
        <ele>861</ele>
        <time>2022-03-03T14:47:05.617Z</time>
      </trkpt>
      <trkpt lat="44.14004" lon="6.11848">
        <ele>861</ele>
        <time>2022-03-03T14:47:06.617Z</time>
      </trkpt>
      <trkpt lat="44.14003" lon="6.11848">
        <ele>861</ele>
        <time>2022-03-03T14:47:07.617Z</time>
      </trkpt>
      <trkpt lat="44.14002" lon="6.11848">
        <ele>861</ele>
        <time>2022-03-03T14:47:08.617Z</time>
      </trkpt>
      <trkpt lat="44.14001" lon="6.11847">
        <ele>861</ele>
        <time>2022-03-03T14:47:09.617Z</time>
      </trkpt>
      <trkpt lat="44.13999" lon="6.11847">
        <ele>861</ele>
        <time>2022-03-03T14:47:10.617Z</time>
      </trkpt>
      <trkpt lat="44.13998" lon="6.11847">
        <ele>861</ele>
        <time>2022-03-03T14:47:11.617Z</time>
      </trkpt>
      <trkpt lat="44.13997" lon="6.11847">
        <ele>861</ele>
        <time>2022-03-03T14:47:12.617Z</time>
      </trkpt>
      <trkpt lat="44.13996" lon="6.11846">
        <ele>861</ele>
        <time>2022-03-03T14:47:13.617Z</time>
      </trkpt>
      <trkpt lat="44.13995" lon="6.11846">
        <ele>861</ele>
        <time>2022-03-03T14:47:14.617Z</time>
      </trkpt>
      <trkpt lat="44.13993" lon="6.11846">
        <ele>861</ele>
        <time>2022-03-03T14:47:15.617Z</time>
      </trkpt>
      <trkpt lat="44.13992" lon="6.11846">
        <ele>861</ele>
        <time>2022-03-03T14:47:16.617Z</time>
      </trkpt>
      <trkpt lat="44.13991" lon="6.11845">
        <ele>861</ele>
        <time>2022-03-03T14:47:17.617Z</time>
      </trkpt>
      <trkpt lat="44.1399" lon="6.11845">
        <ele>861</ele>
        <time>2022-03-03T14:47:18.617Z</time>
      </trkpt>
      <trkpt lat="44.13988" lon="6.11845">
        <ele>861</ele>
        <time>2022-03-03T14:47:19.617Z</time>
      </trkpt>
      <trkpt lat="44.13987" lon="6.11844">
        <ele>861</ele>
        <time>2022-03-03T14:47:20.617Z</time>
      </trkpt>
      <trkpt lat="44.13986" lon="6.11844">
        <ele>860</ele>
        <time>2022-03-03T14:47:21.617Z</time>
      </trkpt>
      <trkpt lat="44.13985" lon="6.11844">
        <ele>860</ele>
        <time>2022-03-03T14:47:22.617Z</time>
      </trkpt>
      <trkpt lat="44.13983" lon="6.11844">
        <ele>860</ele>
        <time>2022-03-03T14:47:23.617Z</time>
      </trkpt>
      <trkpt lat="44.13982" lon="6.11844">
        <ele>860</ele>
        <time>2022-03-03T14:47:24.617Z</time>
      </trkpt>
      <trkpt lat="44.13981" lon="6.11844">
        <ele>860</ele>
        <time>2022-03-03T14:47:25.617Z</time>
      </trkpt>
      <trkpt lat="44.13979" lon="6.11843">
        <ele>860</ele>
        <time>2022-03-03T14:47:26.617Z</time>
      </trkpt>
      <trkpt lat="44.13978" lon="6.11843">
        <ele>860</ele>
        <time>2022-03-03T14:47:27.617Z</time>
      </trkpt>
      <trkpt lat="44.13977" lon="6.11843">
        <ele>860</ele>
        <time>2022-03-03T14:47:28.617Z</time>
      </trkpt>
      <trkpt lat="44.13976" lon="6.11843">
        <ele>860</ele>
        <time>2022-03-03T14:47:29.617Z</time>
      </trkpt>
      <trkpt lat="44.13974" lon="6.11842">
        <ele>860</ele>
        <time>2022-03-03T14:47:30.617Z</time>
      </trkpt>
      <trkpt lat="44.13973" lon="6.11842">
        <ele>860</ele>
        <time>2022-03-03T14:47:31.617Z</time>
      </trkpt>
      <trkpt lat="44.13972" lon="6.11842">
        <ele>860</ele>
        <time>2022-03-03T14:47:32.617Z</time>
      </trkpt>
      <trkpt lat="44.1397" lon="6.11842">
        <ele>860</ele>
        <time>2022-03-03T14:47:33.617Z</time>
      </trkpt>
      <trkpt lat="44.13969" lon="6.11842">
        <ele>860</ele>
        <time>2022-03-03T14:47:34.617Z</time>
      </trkpt>
      <trkpt lat="44.13968" lon="6.11842">
        <ele>860</ele>
        <time>2022-03-03T14:47:35.617Z</time>
      </trkpt>
      <trkpt lat="44.13966" lon="6.11842">
        <ele>860</ele>
        <time>2022-03-03T14:47:36.617Z</time>
      </trkpt>
      <trkpt lat="44.13965" lon="6.11842">
        <ele>860</ele>
        <time>2022-03-03T14:47:37.617Z</time>
      </trkpt>
      <trkpt lat="44.13964" lon="6.11842">
        <ele>860</ele>
        <time>2022-03-03T14:47:38.617Z</time>
      </trkpt>
      <trkpt lat="44.13963" lon="6.11841">
        <ele>860</ele>
        <time>2022-03-03T14:47:39.617Z</time>
      </trkpt>
      <trkpt lat="44.13961" lon="6.11841">
        <ele>860</ele>
        <time>2022-03-03T14:47:40.617Z</time>
      </trkpt>
      <trkpt lat="44.1396" lon="6.11841">
        <ele>860</ele>
        <time>2022-03-03T14:47:41.617Z</time>
      </trkpt>
      <trkpt lat="44.13958" lon="6.11841">
        <ele>860</ele>
        <time>2022-03-03T14:47:42.617Z</time>
      </trkpt>
      <trkpt lat="44.13957" lon="6.11841">
        <ele>860</ele>
        <time>2022-03-03T14:47:43.617Z</time>
      </trkpt>
      <trkpt lat="44.13956" lon="6.11841">
        <ele>860</ele>
        <time>2022-03-03T14:47:44.617Z</time>
      </trkpt>
      <trkpt lat="44.13955" lon="6.11841">
        <ele>860</ele>
        <time>2022-03-03T14:47:45.617Z</time>
      </trkpt>
      <trkpt lat="44.13953" lon="6.11841">
        <ele>859</ele>
        <time>2022-03-03T14:47:46.617Z</time>
      </trkpt>
      <trkpt lat="44.13952" lon="6.11841">
        <ele>859</ele>
        <time>2022-03-03T14:47:47.617Z</time>
      </trkpt>
      <trkpt lat="44.13951" lon="6.1184">
        <ele>859</ele>
        <time>2022-03-03T14:47:48.617Z</time>
      </trkpt>
      <trkpt lat="44.1395" lon="6.1184">
        <ele>859</ele>
        <time>2022-03-03T14:47:49.617Z</time>
      </trkpt>
      <trkpt lat="44.13948" lon="6.1184">
        <ele>859</ele>
        <time>2022-03-03T14:47:50.617Z</time>
      </trkpt>
      <trkpt lat="44.13947" lon="6.1184">
        <ele>859</ele>
        <time>2022-03-03T14:47:51.617Z</time>
      </trkpt>
      <trkpt lat="44.13946" lon="6.1184">
        <ele>859</ele>
        <time>2022-03-03T14:47:52.617Z</time>
      </trkpt>
      <trkpt lat="44.13944" lon="6.1184">
        <ele>859</ele>
        <time>2022-03-03T14:47:53.617Z</time>
      </trkpt>
      <trkpt lat="44.13943" lon="6.1184">
        <ele>859</ele>
        <time>2022-03-03T14:47:54.617Z</time>
      </trkpt>
      <trkpt lat="44.13942" lon="6.1184">
        <ele>859</ele>
        <time>2022-03-03T14:47:55.617Z</time>
      </trkpt>
      <trkpt lat="44.1394" lon="6.1184">
        <ele>859</ele>
        <time>2022-03-03T14:47:56.617Z</time>
      </trkpt>
      <trkpt lat="44.13939" lon="6.1184">
        <ele>859</ele>
        <time>2022-03-03T14:47:57.617Z</time>
      </trkpt>
      <trkpt lat="44.13938" lon="6.1184">
        <ele>858</ele>
        <time>2022-03-03T14:47:58.617Z</time>
      </trkpt>
      <trkpt lat="44.13937" lon="6.1184">
        <ele>858</ele>
        <time>2022-03-03T14:47:59.617Z</time>
      </trkpt>
      <trkpt lat="44.13935" lon="6.11839">
        <ele>858</ele>
        <time>2022-03-03T14:48:00.617Z</time>
      </trkpt>
      <trkpt lat="44.13934" lon="6.1184">
        <ele>858</ele>
        <time>2022-03-03T14:48:01.617Z</time>
      </trkpt>
      <trkpt lat="44.13933" lon="6.11839">
        <ele>858</ele>
        <time>2022-03-03T14:48:02.617Z</time>
      </trkpt>
      <trkpt lat="44.13932" lon="6.1184">
        <ele>858</ele>
        <time>2022-03-03T14:48:03.617Z</time>
      </trkpt>
      <trkpt lat="44.1393" lon="6.1184">
        <ele>858</ele>
        <time>2022-03-03T14:48:04.617Z</time>
      </trkpt>
      <trkpt lat="44.13929" lon="6.1184">
        <ele>858</ele>
        <time>2022-03-03T14:48:05.617Z</time>
      </trkpt>
      <trkpt lat="44.13928" lon="6.1184">
        <ele>858</ele>
        <time>2022-03-03T14:48:06.617Z</time>
      </trkpt>
      <trkpt lat="44.13926" lon="6.11839">
        <ele>858</ele>
        <time>2022-03-03T14:48:07.617Z</time>
      </trkpt>
      <trkpt lat="44.13925" lon="6.11839">
        <ele>858</ele>
        <time>2022-03-03T14:48:08.617Z</time>
      </trkpt>
      <trkpt lat="44.13924" lon="6.11839">
        <ele>858</ele>
        <time>2022-03-03T14:48:09.617Z</time>
      </trkpt>
      <trkpt lat="44.13923" lon="6.11839">
        <ele>858</ele>
        <time>2022-03-03T14:48:10.617Z</time>
      </trkpt>
      <trkpt lat="44.13921" lon="6.11839">
        <ele>857</ele>
        <time>2022-03-03T14:48:11.617Z</time>
      </trkpt>
      <trkpt lat="44.1392" lon="6.1184">
        <ele>857</ele>
        <time>2022-03-03T14:48:12.617Z</time>
      </trkpt>
      <trkpt lat="44.13919" lon="6.1184">
        <ele>857</ele>
        <time>2022-03-03T14:48:13.617Z</time>
      </trkpt>
      <trkpt lat="44.13918" lon="6.1184">
        <ele>857</ele>
        <time>2022-03-03T14:48:14.617Z</time>
      </trkpt>
      <trkpt lat="44.13916" lon="6.1184">
        <ele>857</ele>
        <time>2022-03-03T14:48:15.617Z</time>
      </trkpt>
      <trkpt lat="44.13915" lon="6.1184">
        <ele>857</ele>
        <time>2022-03-03T14:48:16.617Z</time>
      </trkpt>
      <trkpt lat="44.13914" lon="6.11841">
        <ele>857</ele>
        <time>2022-03-03T14:48:17.617Z</time>
      </trkpt>
      <trkpt lat="44.13912" lon="6.11841">
        <ele>857</ele>
        <time>2022-03-03T14:48:18.617Z</time>
      </trkpt>
      <trkpt lat="44.13911" lon="6.11842">
        <ele>857</ele>
        <time>2022-03-03T14:48:19.617Z</time>
      </trkpt>
      <trkpt lat="44.1391" lon="6.11842">
        <ele>857</ele>
        <time>2022-03-03T14:48:20.617Z</time>
      </trkpt>
      <trkpt lat="44.13909" lon="6.11843">
        <ele>857</ele>
        <time>2022-03-03T14:48:21.617Z</time>
      </trkpt>
      <trkpt lat="44.13908" lon="6.11843">
        <ele>857</ele>
        <time>2022-03-03T14:48:22.617Z</time>
      </trkpt>
      <trkpt lat="44.13906" lon="6.11844">
        <ele>857</ele>
        <time>2022-03-03T14:48:23.617Z</time>
      </trkpt>
      <trkpt lat="44.13905" lon="6.11844">
        <ele>856</ele>
        <time>2022-03-03T14:48:24.617Z</time>
      </trkpt>
      <trkpt lat="44.13904" lon="6.11845">
        <ele>856</ele>
        <time>2022-03-03T14:48:25.617Z</time>
      </trkpt>
      <trkpt lat="44.13903" lon="6.11845">
        <ele>856</ele>
        <time>2022-03-03T14:48:26.617Z</time>
      </trkpt>
      <trkpt lat="44.13902" lon="6.11846">
        <ele>856</ele>
        <time>2022-03-03T14:48:27.617Z</time>
      </trkpt>
      <trkpt lat="44.139" lon="6.11846">
        <ele>856</ele>
        <time>2022-03-03T14:48:28.617Z</time>
      </trkpt>
      <trkpt lat="44.13899" lon="6.11846">
        <ele>856</ele>
        <time>2022-03-03T14:48:29.617Z</time>
      </trkpt>
      <trkpt lat="44.13898" lon="6.11846">
        <ele>856</ele>
        <time>2022-03-03T14:48:30.617Z</time>
      </trkpt>
      <trkpt lat="44.13897" lon="6.11846">
        <ele>855</ele>
        <time>2022-03-03T14:48:31.617Z</time>
      </trkpt>
      <trkpt lat="44.13895" lon="6.11847">
        <ele>855</ele>
        <time>2022-03-03T14:48:32.617Z</time>
      </trkpt>
      <trkpt lat="44.13894" lon="6.11847">
        <ele>855</ele>
        <time>2022-03-03T14:48:33.617Z</time>
      </trkpt>
      <trkpt lat="44.13893" lon="6.11848">
        <ele>855</ele>
        <time>2022-03-03T14:48:34.617Z</time>
      </trkpt>
      <trkpt lat="44.13892" lon="6.11848">
        <ele>855</ele>
        <time>2022-03-03T14:48:35.617Z</time>
      </trkpt>
      <trkpt lat="44.1389" lon="6.11849">
        <ele>855</ele>
        <time>2022-03-03T14:48:36.617Z</time>
      </trkpt>
      <trkpt lat="44.13889" lon="6.11849">
        <ele>855</ele>
        <time>2022-03-03T14:48:37.617Z</time>
      </trkpt>
      <trkpt lat="44.13888" lon="6.11849">
        <ele>855</ele>
        <time>2022-03-03T14:48:38.617Z</time>
      </trkpt>
      <trkpt lat="44.13887" lon="6.1185">
        <ele>855</ele>
        <time>2022-03-03T14:48:39.617Z</time>
      </trkpt>
      <trkpt lat="44.13885" lon="6.1185">
        <ele>855</ele>
        <time>2022-03-03T14:48:40.617Z</time>
      </trkpt>
      <trkpt lat="44.13884" lon="6.11851">
        <ele>855</ele>
        <time>2022-03-03T14:48:41.617Z</time>
      </trkpt>
      <trkpt lat="44.13883" lon="6.11851">
        <ele>854</ele>
        <time>2022-03-03T14:48:42.617Z</time>
      </trkpt>
      <trkpt lat="44.13881" lon="6.11851">
        <ele>854</ele>
        <time>2022-03-03T14:48:43.617Z</time>
      </trkpt>
      <trkpt lat="44.1388" lon="6.11852">
        <ele>854</ele>
        <time>2022-03-03T14:48:44.617Z</time>
      </trkpt>
      <trkpt lat="44.13879" lon="6.11852">
        <ele>854</ele>
        <time>2022-03-03T14:48:45.617Z</time>
      </trkpt>
      <trkpt lat="44.13878" lon="6.11852">
        <ele>854</ele>
        <time>2022-03-03T14:48:46.617Z</time>
      </trkpt>
      <trkpt lat="44.13876" lon="6.11853">
        <ele>854</ele>
        <time>2022-03-03T14:48:47.617Z</time>
      </trkpt>
      <trkpt lat="44.13875" lon="6.11853">
        <ele>854</ele>
        <time>2022-03-03T14:48:48.617Z</time>
      </trkpt>
      <trkpt lat="44.13873" lon="6.11854">
        <ele>854</ele>
        <time>2022-03-03T14:48:49.617Z</time>
      </trkpt>
      <trkpt lat="44.13872" lon="6.11854">
        <ele>854</ele>
        <time>2022-03-03T14:48:50.617Z</time>
      </trkpt>
      <trkpt lat="44.13871" lon="6.11855">
        <ele>854</ele>
        <time>2022-03-03T14:48:51.617Z</time>
      </trkpt>
      <trkpt lat="44.13869" lon="6.11855">
        <ele>854</ele>
        <time>2022-03-03T14:48:52.617Z</time>
      </trkpt>
      <trkpt lat="44.13868" lon="6.11856">
        <ele>854</ele>
        <time>2022-03-03T14:48:53.617Z</time>
      </trkpt>
      <trkpt lat="44.13867" lon="6.11856">
        <ele>854</ele>
        <time>2022-03-03T14:48:54.617Z</time>
      </trkpt>
      <trkpt lat="44.13865" lon="6.11856">
        <ele>854</ele>
        <time>2022-03-03T14:48:55.617Z</time>
      </trkpt>
      <trkpt lat="44.13863" lon="6.11857">
        <ele>854</ele>
        <time>2022-03-03T14:48:56.617Z</time>
      </trkpt>
      <trkpt lat="44.13862" lon="6.11858">
        <ele>854</ele>
        <time>2022-03-03T14:48:57.617Z</time>
      </trkpt>
      <trkpt lat="44.13861" lon="6.11858">
        <ele>854</ele>
        <time>2022-03-03T14:48:58.617Z</time>
      </trkpt>
      <trkpt lat="44.13859" lon="6.11859">
        <ele>853</ele>
        <time>2022-03-03T14:48:59.617Z</time>
      </trkpt>
      <trkpt lat="44.13858" lon="6.1186">
        <ele>853</ele>
        <time>2022-03-03T14:49:00.617Z</time>
      </trkpt>
      <trkpt lat="44.13857" lon="6.1186">
        <ele>853</ele>
        <time>2022-03-03T14:49:01.617Z</time>
      </trkpt>
      <trkpt lat="44.13855" lon="6.11861">
        <ele>853</ele>
        <time>2022-03-03T14:49:02.617Z</time>
      </trkpt>
      <trkpt lat="44.13854" lon="6.11861">
        <ele>853</ele>
        <time>2022-03-03T14:49:03.617Z</time>
      </trkpt>
      <trkpt lat="44.13853" lon="6.11862">
        <ele>853</ele>
        <time>2022-03-03T14:49:04.617Z</time>
      </trkpt>
      <trkpt lat="44.13852" lon="6.11863">
        <ele>853</ele>
        <time>2022-03-03T14:49:05.617Z</time>
      </trkpt>
      <trkpt lat="44.1385" lon="6.11863">
        <ele>853</ele>
        <time>2022-03-03T14:49:06.617Z</time>
      </trkpt>
      <trkpt lat="44.13849" lon="6.11864">
        <ele>853</ele>
        <time>2022-03-03T14:49:07.617Z</time>
      </trkpt>
      <trkpt lat="44.13848" lon="6.11865">
        <ele>853</ele>
        <time>2022-03-03T14:49:08.617Z</time>
      </trkpt>
      <trkpt lat="44.13847" lon="6.11866">
        <ele>853</ele>
        <time>2022-03-03T14:49:09.617Z</time>
      </trkpt>
      <trkpt lat="44.13846" lon="6.11867">
        <ele>852</ele>
        <time>2022-03-03T14:49:10.617Z</time>
      </trkpt>
      <trkpt lat="44.13845" lon="6.11867">
        <ele>852</ele>
        <time>2022-03-03T14:49:11.617Z</time>
      </trkpt>
      <trkpt lat="44.13843" lon="6.11868">
        <ele>852</ele>
        <time>2022-03-03T14:49:12.617Z</time>
      </trkpt>
      <trkpt lat="44.13842" lon="6.11869">
        <ele>852</ele>
        <time>2022-03-03T14:49:13.617Z</time>
      </trkpt>
      <trkpt lat="44.13841" lon="6.1187">
        <ele>852</ele>
        <time>2022-03-03T14:49:14.617Z</time>
      </trkpt>
      <trkpt lat="44.1384" lon="6.11871">
        <ele>851</ele>
        <time>2022-03-03T14:49:15.617Z</time>
      </trkpt>
      <trkpt lat="44.13839" lon="6.11872">
        <ele>851</ele>
        <time>2022-03-03T14:49:16.617Z</time>
      </trkpt>
      <trkpt lat="44.13838" lon="6.11872">
        <ele>851</ele>
        <time>2022-03-03T14:49:17.617Z</time>
      </trkpt>
      <trkpt lat="44.13837" lon="6.11873">
        <ele>851</ele>
        <time>2022-03-03T14:49:18.617Z</time>
      </trkpt>
      <trkpt lat="44.13836" lon="6.11874">
        <ele>851</ele>
        <time>2022-03-03T14:49:19.617Z</time>
      </trkpt>
      <trkpt lat="44.13835" lon="6.11875">
        <ele>850</ele>
        <time>2022-03-03T14:49:20.617Z</time>
      </trkpt>
      <trkpt lat="44.13834" lon="6.11876">
        <ele>850</ele>
        <time>2022-03-03T14:49:21.617Z</time>
      </trkpt>
      <trkpt lat="44.13833" lon="6.11877">
        <ele>850</ele>
        <time>2022-03-03T14:49:22.617Z</time>
      </trkpt>
      <trkpt lat="44.13832" lon="6.11878">
        <ele>850</ele>
        <time>2022-03-03T14:49:23.617Z</time>
      </trkpt>
      <trkpt lat="44.13831" lon="6.11878">
        <ele>850</ele>
        <time>2022-03-03T14:49:24.617Z</time>
      </trkpt>
      <trkpt lat="44.1383" lon="6.11879">
        <ele>849</ele>
        <time>2022-03-03T14:49:25.617Z</time>
      </trkpt>
      <trkpt lat="44.13829" lon="6.1188">
        <ele>849</ele>
        <time>2022-03-03T14:49:26.617Z</time>
      </trkpt>
      <trkpt lat="44.13827" lon="6.1188">
        <ele>849</ele>
        <time>2022-03-03T14:49:27.617Z</time>
      </trkpt>
      <trkpt lat="44.13826" lon="6.11881">
        <ele>849</ele>
        <time>2022-03-03T14:49:28.617Z</time>
      </trkpt>
      <trkpt lat="44.13825" lon="6.11882">
        <ele>849</ele>
        <time>2022-03-03T14:49:29.617Z</time>
      </trkpt>
      <trkpt lat="44.13824" lon="6.11883">
        <ele>849</ele>
        <time>2022-03-03T14:49:30.617Z</time>
      </trkpt>
      <trkpt lat="44.13822" lon="6.11883">
        <ele>849</ele>
        <time>2022-03-03T14:49:31.617Z</time>
      </trkpt>
      <trkpt lat="44.13821" lon="6.11884">
        <ele>848</ele>
        <time>2022-03-03T14:49:32.617Z</time>
      </trkpt>
      <trkpt lat="44.1382" lon="6.11885">
        <ele>848</ele>
        <time>2022-03-03T14:49:33.617Z</time>
      </trkpt>
      <trkpt lat="44.13819" lon="6.11885">
        <ele>848</ele>
        <time>2022-03-03T14:49:34.617Z</time>
      </trkpt>
      <trkpt lat="44.13817" lon="6.11886">
        <ele>848</ele>
        <time>2022-03-03T14:49:35.617Z</time>
      </trkpt>
      <trkpt lat="44.13816" lon="6.11886">
        <ele>848</ele>
        <time>2022-03-03T14:49:36.617Z</time>
      </trkpt>
      <trkpt lat="44.13814" lon="6.11887">
        <ele>848</ele>
        <time>2022-03-03T14:49:37.617Z</time>
      </trkpt>
      <trkpt lat="44.13812" lon="6.11887">
        <ele>848</ele>
        <time>2022-03-03T14:49:38.617Z</time>
      </trkpt>
      <trkpt lat="44.13811" lon="6.11888">
        <ele>847</ele>
        <time>2022-03-03T14:49:39.617Z</time>
      </trkpt>
      <trkpt lat="44.1381" lon="6.11888">
        <ele>847</ele>
        <time>2022-03-03T14:49:40.617Z</time>
      </trkpt>
      <trkpt lat="44.13809" lon="6.11889">
        <ele>847</ele>
        <time>2022-03-03T14:49:41.617Z</time>
      </trkpt>
      <trkpt lat="44.13807" lon="6.11889">
        <ele>847</ele>
        <time>2022-03-03T14:49:42.617Z</time>
      </trkpt>
      <trkpt lat="44.13806" lon="6.1189">
        <ele>847</ele>
        <time>2022-03-03T14:49:43.617Z</time>
      </trkpt>
      <trkpt lat="44.13805" lon="6.11891">
        <ele>847</ele>
        <time>2022-03-03T14:49:44.617Z</time>
      </trkpt>
      <trkpt lat="44.13803" lon="6.11891">
        <ele>847</ele>
        <time>2022-03-03T14:49:45.617Z</time>
      </trkpt>
      <trkpt lat="44.13802" lon="6.11892">
        <ele>847</ele>
        <time>2022-03-03T14:49:46.617Z</time>
      </trkpt>
      <trkpt lat="44.13801" lon="6.11892">
        <ele>847</ele>
        <time>2022-03-03T14:49:47.617Z</time>
      </trkpt>
      <trkpt lat="44.138" lon="6.11893">
        <ele>847</ele>
        <time>2022-03-03T14:49:48.617Z</time>
      </trkpt>
      <trkpt lat="44.13798" lon="6.11893">
        <ele>846</ele>
        <time>2022-03-03T14:49:49.617Z</time>
      </trkpt>
      <trkpt lat="44.13797" lon="6.11894">
        <ele>846</ele>
        <time>2022-03-03T14:49:50.617Z</time>
      </trkpt>
      <trkpt lat="44.13796" lon="6.11894">
        <ele>846</ele>
        <time>2022-03-03T14:49:51.617Z</time>
      </trkpt>
      <trkpt lat="44.13794" lon="6.11895">
        <ele>846</ele>
        <time>2022-03-03T14:49:52.617Z</time>
      </trkpt>
      <trkpt lat="44.13793" lon="6.11895">
        <ele>846</ele>
        <time>2022-03-03T14:49:53.617Z</time>
      </trkpt>
      <trkpt lat="44.13792" lon="6.11896">
        <ele>846</ele>
        <time>2022-03-03T14:49:54.617Z</time>
      </trkpt>
      <trkpt lat="44.1379" lon="6.11896">
        <ele>846</ele>
        <time>2022-03-03T14:49:55.617Z</time>
      </trkpt>
      <trkpt lat="44.13789" lon="6.11896">
        <ele>846</ele>
        <time>2022-03-03T14:49:56.617Z</time>
      </trkpt>
      <trkpt lat="44.13788" lon="6.11897">
        <ele>846</ele>
        <time>2022-03-03T14:49:57.617Z</time>
      </trkpt>
      <trkpt lat="44.13787" lon="6.11897">
        <ele>846</ele>
        <time>2022-03-03T14:49:58.617Z</time>
      </trkpt>
      <trkpt lat="44.13786" lon="6.11898">
        <ele>846</ele>
        <time>2022-03-03T14:49:59.617Z</time>
      </trkpt>
      <trkpt lat="44.13784" lon="6.11899">
        <ele>845</ele>
        <time>2022-03-03T14:50:00.617Z</time>
      </trkpt>
      <trkpt lat="44.13783" lon="6.11899">
        <ele>845</ele>
        <time>2022-03-03T14:50:01.617Z</time>
      </trkpt>
      <trkpt lat="44.13782" lon="6.11899">
        <ele>845</ele>
        <time>2022-03-03T14:50:02.617Z</time>
      </trkpt>
      <trkpt lat="44.13781" lon="6.119">
        <ele>845</ele>
        <time>2022-03-03T14:50:03.617Z</time>
      </trkpt>
      <trkpt lat="44.1378" lon="6.119">
        <ele>845</ele>
        <time>2022-03-03T14:50:04.617Z</time>
      </trkpt>
      <trkpt lat="44.13778" lon="6.11901">
        <ele>845</ele>
        <time>2022-03-03T14:50:05.617Z</time>
      </trkpt>
      <trkpt lat="44.13777" lon="6.11901">
        <ele>845</ele>
        <time>2022-03-03T14:50:06.617Z</time>
      </trkpt>
      <trkpt lat="44.13776" lon="6.11901">
        <ele>845</ele>
        <time>2022-03-03T14:50:07.617Z</time>
      </trkpt>
      <trkpt lat="44.13775" lon="6.11902">
        <ele>844</ele>
        <time>2022-03-03T14:50:08.617Z</time>
      </trkpt>
      <trkpt lat="44.13774" lon="6.11902">
        <ele>844</ele>
        <time>2022-03-03T14:50:09.617Z</time>
      </trkpt>
      <trkpt lat="44.13773" lon="6.11902">
        <ele>844</ele>
        <time>2022-03-03T14:50:10.617Z</time>
      </trkpt>
      <trkpt lat="44.13772" lon="6.11903">
        <ele>844</ele>
        <time>2022-03-03T14:50:11.617Z</time>
      </trkpt>
      <trkpt lat="44.13771" lon="6.11903">
        <ele>844</ele>
        <time>2022-03-03T14:50:12.617Z</time>
      </trkpt>
      <trkpt lat="44.1377" lon="6.11904">
        <ele>844</ele>
        <time>2022-03-03T14:50:13.617Z</time>
      </trkpt>
      <trkpt lat="44.13769" lon="6.11904">
        <ele>844</ele>
        <time>2022-03-03T14:50:14.617Z</time>
      </trkpt>
      <trkpt lat="44.13768" lon="6.11904">
        <ele>844</ele>
        <time>2022-03-03T14:50:15.617Z</time>
      </trkpt>
      <trkpt lat="44.13767" lon="6.11905">
        <ele>844</ele>
        <time>2022-03-03T14:50:16.617Z</time>
      </trkpt>
      <trkpt lat="44.13766" lon="6.11905">
        <ele>843</ele>
        <time>2022-03-03T14:50:17.617Z</time>
      </trkpt>
      <trkpt lat="44.13765" lon="6.11906">
        <ele>843</ele>
        <time>2022-03-03T14:50:18.617Z</time>
      </trkpt>
      <trkpt lat="44.13764" lon="6.11906">
        <ele>843</ele>
        <time>2022-03-03T14:50:19.617Z</time>
      </trkpt>
      <trkpt lat="44.13763" lon="6.11906">
        <ele>843</ele>
        <time>2022-03-03T14:50:20.617Z</time>
      </trkpt>
      <trkpt lat="44.13762" lon="6.11906">
        <ele>843</ele>
        <time>2022-03-03T14:50:21.617Z</time>
      </trkpt>
      <trkpt lat="44.13761" lon="6.11906">
        <ele>843</ele>
        <time>2022-03-03T14:50:22.617Z</time>
      </trkpt>
      <trkpt lat="44.13759" lon="6.11907">
        <ele>843</ele>
        <time>2022-03-03T14:50:23.617Z</time>
      </trkpt>
      <trkpt lat="44.13758" lon="6.11907">
        <ele>843</ele>
        <time>2022-03-03T14:50:24.617Z</time>
      </trkpt>
      <trkpt lat="44.13757" lon="6.11907">
        <ele>842</ele>
        <time>2022-03-03T14:50:25.617Z</time>
      </trkpt>
      <trkpt lat="44.13756" lon="6.11907">
        <ele>842</ele>
        <time>2022-03-03T14:50:26.617Z</time>
      </trkpt>
      <trkpt lat="44.13755" lon="6.11907">
        <ele>842</ele>
        <time>2022-03-03T14:50:27.617Z</time>
      </trkpt>
      <trkpt lat="44.13753" lon="6.11908">
        <ele>842</ele>
        <time>2022-03-03T14:50:28.617Z</time>
      </trkpt>
      <trkpt lat="44.13752" lon="6.11908">
        <ele>842</ele>
        <time>2022-03-03T14:50:29.617Z</time>
      </trkpt>
      <trkpt lat="44.13751" lon="6.11908">
        <ele>842</ele>
        <time>2022-03-03T14:50:30.617Z</time>
      </trkpt>
      <trkpt lat="44.1375" lon="6.11908">
        <ele>842</ele>
        <time>2022-03-03T14:50:31.617Z</time>
      </trkpt>
      <trkpt lat="44.13749" lon="6.11908">
        <ele>842</ele>
        <time>2022-03-03T14:50:32.617Z</time>
      </trkpt>
      <trkpt lat="44.13748" lon="6.11908">
        <ele>841</ele>
        <time>2022-03-03T14:50:33.617Z</time>
      </trkpt>
      <trkpt lat="44.13746" lon="6.11908">
        <ele>841</ele>
        <time>2022-03-03T14:50:34.617Z</time>
      </trkpt>
      <trkpt lat="44.13745" lon="6.11908">
        <ele>841</ele>
        <time>2022-03-03T14:50:35.617Z</time>
      </trkpt>
      <trkpt lat="44.13744" lon="6.11908">
        <ele>840</ele>
        <time>2022-03-03T14:50:36.617Z</time>
      </trkpt>
      <trkpt lat="44.13743" lon="6.11908">
        <ele>840</ele>
        <time>2022-03-03T14:50:37.617Z</time>
      </trkpt>
      <trkpt lat="44.13742" lon="6.11908">
        <ele>840</ele>
        <time>2022-03-03T14:50:38.617Z</time>
      </trkpt>
      <trkpt lat="44.13741" lon="6.11908">
        <ele>840</ele>
        <time>2022-03-03T14:50:39.617Z</time>
      </trkpt>
      <trkpt lat="44.13739" lon="6.11908">
        <ele>839</ele>
        <time>2022-03-03T14:50:40.617Z</time>
      </trkpt>
      <trkpt lat="44.13738" lon="6.11908">
        <ele>839</ele>
        <time>2022-03-03T14:50:41.617Z</time>
      </trkpt>
      <trkpt lat="44.13737" lon="6.11908">
        <ele>838</ele>
        <time>2022-03-03T14:50:42.617Z</time>
      </trkpt>
      <trkpt lat="44.13736" lon="6.11908">
        <ele>838</ele>
        <time>2022-03-03T14:50:43.617Z</time>
      </trkpt>
      <trkpt lat="44.13735" lon="6.11908">
        <ele>838</ele>
        <time>2022-03-03T14:50:44.617Z</time>
      </trkpt>
      <trkpt lat="44.13734" lon="6.11908">
        <ele>837</ele>
        <time>2022-03-03T14:50:45.617Z</time>
      </trkpt>
      <trkpt lat="44.13733" lon="6.11908">
        <ele>837</ele>
        <time>2022-03-03T14:50:46.617Z</time>
      </trkpt>
      <trkpt lat="44.13731" lon="6.11909">
        <ele>837</ele>
        <time>2022-03-03T14:50:47.617Z</time>
      </trkpt>
      <trkpt lat="44.1373" lon="6.11909">
        <ele>837</ele>
        <time>2022-03-03T14:50:48.617Z</time>
      </trkpt>
      <trkpt lat="44.13729" lon="6.11909">
        <ele>836</ele>
        <time>2022-03-03T14:50:49.617Z</time>
      </trkpt>
      <trkpt lat="44.13728" lon="6.11908">
        <ele>836</ele>
        <time>2022-03-03T14:50:50.617Z</time>
      </trkpt>
      <trkpt lat="44.13727" lon="6.11908">
        <ele>836</ele>
        <time>2022-03-03T14:50:51.617Z</time>
      </trkpt>
      <trkpt lat="44.13725" lon="6.11908">
        <ele>835</ele>
        <time>2022-03-03T14:50:52.617Z</time>
      </trkpt>
      <trkpt lat="44.13724" lon="6.11908">
        <ele>835</ele>
        <time>2022-03-03T14:50:53.617Z</time>
      </trkpt>
      <trkpt lat="44.13723" lon="6.11908">
        <ele>835</ele>
        <time>2022-03-03T14:50:54.617Z</time>
      </trkpt>
      <trkpt lat="44.13721" lon="6.11908">
        <ele>834</ele>
        <time>2022-03-03T14:50:55.617Z</time>
      </trkpt>
      <trkpt lat="44.1372" lon="6.11908">
        <ele>834</ele>
        <time>2022-03-03T14:50:56.617Z</time>
      </trkpt>
      <trkpt lat="44.13719" lon="6.11908">
        <ele>834</ele>
        <time>2022-03-03T14:50:57.617Z</time>
      </trkpt>
      <trkpt lat="44.13718" lon="6.11907">
        <ele>834</ele>
        <time>2022-03-03T14:50:58.617Z</time>
      </trkpt>
      <trkpt lat="44.13717" lon="6.11907">
        <ele>834</ele>
        <time>2022-03-03T14:50:59.617Z</time>
      </trkpt>
      <trkpt lat="44.13715" lon="6.11907">
        <ele>833</ele>
        <time>2022-03-03T14:51:00.617Z</time>
      </trkpt>
      <trkpt lat="44.13714" lon="6.11907">
        <ele>833</ele>
        <time>2022-03-03T14:51:01.617Z</time>
      </trkpt>
      <trkpt lat="44.13713" lon="6.11906">
        <ele>833</ele>
        <time>2022-03-03T14:51:02.617Z</time>
      </trkpt>
      <trkpt lat="44.13712" lon="6.11906">
        <ele>833</ele>
        <time>2022-03-03T14:51:03.617Z</time>
      </trkpt>
      <trkpt lat="44.1371" lon="6.11906">
        <ele>833</ele>
        <time>2022-03-03T14:51:04.617Z</time>
      </trkpt>
      <trkpt lat="44.13709" lon="6.11906">
        <ele>832</ele>
        <time>2022-03-03T14:51:05.617Z</time>
      </trkpt>
      <trkpt lat="44.13708" lon="6.11906">
        <ele>832</ele>
        <time>2022-03-03T14:51:06.617Z</time>
      </trkpt>
      <trkpt lat="44.13707" lon="6.11906">
        <ele>832</ele>
        <time>2022-03-03T14:51:07.617Z</time>
      </trkpt>
      <trkpt lat="44.13706" lon="6.11906">
        <ele>832</ele>
        <time>2022-03-03T14:51:08.617Z</time>
      </trkpt>
      <trkpt lat="44.13704" lon="6.11906">
        <ele>832</ele>
        <time>2022-03-03T14:51:09.617Z</time>
      </trkpt>
      <trkpt lat="44.13703" lon="6.11906">
        <ele>832</ele>
        <time>2022-03-03T14:51:10.617Z</time>
      </trkpt>
      <trkpt lat="44.13702" lon="6.11906">
        <ele>832</ele>
        <time>2022-03-03T14:51:11.617Z</time>
      </trkpt>
      <trkpt lat="44.13701" lon="6.11906">
        <ele>831</ele>
        <time>2022-03-03T14:51:12.617Z</time>
      </trkpt>
      <trkpt lat="44.137" lon="6.11906">
        <ele>831</ele>
        <time>2022-03-03T14:51:13.617Z</time>
      </trkpt>
      <trkpt lat="44.13699" lon="6.11905">
        <ele>831</ele>
        <time>2022-03-03T14:51:14.617Z</time>
      </trkpt>
      <trkpt lat="44.13698" lon="6.11905">
        <ele>831</ele>
        <time>2022-03-03T14:51:15.617Z</time>
      </trkpt>
      <trkpt lat="44.13697" lon="6.11905">
        <ele>831</ele>
        <time>2022-03-03T14:51:16.617Z</time>
      </trkpt>
      <trkpt lat="44.13695" lon="6.11904">
        <ele>831</ele>
        <time>2022-03-03T14:51:17.617Z</time>
      </trkpt>
      <trkpt lat="44.13694" lon="6.11904">
        <ele>831</ele>
        <time>2022-03-03T14:51:18.617Z</time>
      </trkpt>
      <trkpt lat="44.13693" lon="6.11904">
        <ele>831</ele>
        <time>2022-03-03T14:51:19.617Z</time>
      </trkpt>
      <trkpt lat="44.13692" lon="6.11904">
        <ele>831</ele>
        <time>2022-03-03T14:51:20.617Z</time>
      </trkpt>
      <trkpt lat="44.13691" lon="6.11905">
        <ele>830</ele>
        <time>2022-03-03T14:51:21.617Z</time>
      </trkpt>
      <trkpt lat="44.1369" lon="6.11905">
        <ele>830</ele>
        <time>2022-03-03T14:51:22.617Z</time>
      </trkpt>
      <trkpt lat="44.13688" lon="6.11905">
        <ele>830</ele>
        <time>2022-03-03T14:51:23.617Z</time>
      </trkpt>
      <trkpt lat="44.13687" lon="6.11905">
        <ele>830</ele>
        <time>2022-03-03T14:51:24.617Z</time>
      </trkpt>
      <trkpt lat="44.13686" lon="6.11905">
        <ele>830</ele>
        <time>2022-03-03T14:51:25.617Z</time>
      </trkpt>
      <trkpt lat="44.13685" lon="6.11905">
        <ele>830</ele>
        <time>2022-03-03T14:51:26.617Z</time>
      </trkpt>
      <trkpt lat="44.13684" lon="6.11905">
        <ele>830</ele>
        <time>2022-03-03T14:51:27.617Z</time>
      </trkpt>
      <trkpt lat="44.13683" lon="6.11906">
        <ele>829</ele>
        <time>2022-03-03T14:51:28.617Z</time>
      </trkpt>
      <trkpt lat="44.13682" lon="6.11906">
        <ele>829</ele>
        <time>2022-03-03T14:51:29.617Z</time>
      </trkpt>
      <trkpt lat="44.13681" lon="6.11906">
        <ele>829</ele>
        <time>2022-03-03T14:51:30.617Z</time>
      </trkpt>
      <trkpt lat="44.13679" lon="6.11906">
        <ele>829</ele>
        <time>2022-03-03T14:51:31.617Z</time>
      </trkpt>
      <trkpt lat="44.13678" lon="6.11907">
        <ele>829</ele>
        <time>2022-03-03T14:51:32.617Z</time>
      </trkpt>
      <trkpt lat="44.13677" lon="6.11907">
        <ele>828</ele>
        <time>2022-03-03T14:51:33.617Z</time>
      </trkpt>
      <trkpt lat="44.13676" lon="6.11907">
        <ele>828</ele>
        <time>2022-03-03T14:51:34.617Z</time>
      </trkpt>
      <trkpt lat="44.13675" lon="6.11907">
        <ele>828</ele>
        <time>2022-03-03T14:51:35.617Z</time>
      </trkpt>
      <trkpt lat="44.13674" lon="6.11908">
        <ele>828</ele>
        <time>2022-03-03T14:51:36.617Z</time>
      </trkpt>
      <trkpt lat="44.13673" lon="6.11908">
        <ele>828</ele>
        <time>2022-03-03T14:51:37.617Z</time>
      </trkpt>
      <trkpt lat="44.13672" lon="6.11908">
        <ele>828</ele>
        <time>2022-03-03T14:51:38.617Z</time>
      </trkpt>
      <trkpt lat="44.1367" lon="6.11908">
        <ele>827</ele>
        <time>2022-03-03T14:51:39.617Z</time>
      </trkpt>
      <trkpt lat="44.13669" lon="6.11909">
        <ele>827</ele>
        <time>2022-03-03T14:51:40.617Z</time>
      </trkpt>
      <trkpt lat="44.13668" lon="6.11909">
        <ele>827</ele>
        <time>2022-03-03T14:51:41.617Z</time>
      </trkpt>
      <trkpt lat="44.13667" lon="6.11909">
        <ele>827</ele>
        <time>2022-03-03T14:51:42.617Z</time>
      </trkpt>
      <trkpt lat="44.13666" lon="6.11909">
        <ele>827</ele>
        <time>2022-03-03T14:51:43.617Z</time>
      </trkpt>
      <trkpt lat="44.13665" lon="6.1191">
        <ele>826</ele>
        <time>2022-03-03T14:51:44.617Z</time>
      </trkpt>
      <trkpt lat="44.13663" lon="6.1191">
        <ele>826</ele>
        <time>2022-03-03T14:51:45.617Z</time>
      </trkpt>
      <trkpt lat="44.13662" lon="6.1191">
        <ele>826</ele>
        <time>2022-03-03T14:51:46.617Z</time>
      </trkpt>
      <trkpt lat="44.13661" lon="6.11911">
        <ele>826</ele>
        <time>2022-03-03T14:51:47.617Z</time>
      </trkpt>
      <trkpt lat="44.1366" lon="6.11911">
        <ele>825</ele>
        <time>2022-03-03T14:51:48.617Z</time>
      </trkpt>
      <trkpt lat="44.13659" lon="6.11911">
        <ele>825</ele>
        <time>2022-03-03T14:51:49.617Z</time>
      </trkpt>
      <trkpt lat="44.13658" lon="6.11911">
        <ele>825</ele>
        <time>2022-03-03T14:51:50.617Z</time>
      </trkpt>
      <trkpt lat="44.13658" lon="6.11911">
        <ele>825</ele>
        <time>2022-03-03T14:51:51.617Z</time>
      </trkpt>
      <trkpt lat="44.13657" lon="6.11911">
        <ele>825</ele>
        <time>2022-03-03T14:51:52.617Z</time>
      </trkpt>
      <trkpt lat="44.13656" lon="6.11912">
        <ele>825</ele>
        <time>2022-03-03T14:51:53.617Z</time>
      </trkpt>
      <trkpt lat="44.13655" lon="6.11912">
        <ele>825</ele>
        <time>2022-03-03T14:51:54.617Z</time>
      </trkpt>
      <trkpt lat="44.13654" lon="6.11912">
        <ele>824</ele>
        <time>2022-03-03T14:51:55.617Z</time>
      </trkpt>
      <trkpt lat="44.13652" lon="6.11913">
        <ele>824</ele>
        <time>2022-03-03T14:51:56.617Z</time>
      </trkpt>
      <trkpt lat="44.13651" lon="6.11913">
        <ele>824</ele>
        <time>2022-03-03T14:51:57.617Z</time>
      </trkpt>
      <trkpt lat="44.1365" lon="6.11914">
        <ele>824</ele>
        <time>2022-03-03T14:51:58.617Z</time>
      </trkpt>
      <trkpt lat="44.13649" lon="6.11914">
        <ele>824</ele>
        <time>2022-03-03T14:51:59.617Z</time>
      </trkpt>
      <trkpt lat="44.13648" lon="6.11914">
        <ele>824</ele>
        <time>2022-03-03T14:52:00.617Z</time>
      </trkpt>
      <trkpt lat="44.13647" lon="6.11914">
        <ele>824</ele>
        <time>2022-03-03T14:52:01.617Z</time>
      </trkpt>
      <trkpt lat="44.13646" lon="6.11915">
        <ele>824</ele>
        <time>2022-03-03T14:52:02.617Z</time>
      </trkpt>
      <trkpt lat="44.13644" lon="6.11915">
        <ele>823</ele>
        <time>2022-03-03T14:52:03.617Z</time>
      </trkpt>
      <trkpt lat="44.13643" lon="6.11915">
        <ele>823</ele>
        <time>2022-03-03T14:52:04.617Z</time>
      </trkpt>
      <trkpt lat="44.13642" lon="6.11915">
        <ele>823</ele>
        <time>2022-03-03T14:52:05.617Z</time>
      </trkpt>
      <trkpt lat="44.13641" lon="6.11915">
        <ele>823</ele>
        <time>2022-03-03T14:52:06.617Z</time>
      </trkpt>
      <trkpt lat="44.1364" lon="6.11916">
        <ele>823</ele>
        <time>2022-03-03T14:52:07.617Z</time>
      </trkpt>
      <trkpt lat="44.13638" lon="6.11916">
        <ele>823</ele>
        <time>2022-03-03T14:52:08.617Z</time>
      </trkpt>
      <trkpt lat="44.13637" lon="6.11916">
        <ele>823</ele>
        <time>2022-03-03T14:52:09.617Z</time>
      </trkpt>
      <trkpt lat="44.13636" lon="6.11916">
        <ele>823</ele>
        <time>2022-03-03T14:52:10.617Z</time>
      </trkpt>
      <trkpt lat="44.13635" lon="6.11917">
        <ele>823</ele>
        <time>2022-03-03T14:52:11.617Z</time>
      </trkpt>
      <trkpt lat="44.13634" lon="6.11917">
        <ele>823</ele>
        <time>2022-03-03T14:52:12.617Z</time>
      </trkpt>
      <trkpt lat="44.13633" lon="6.11917">
        <ele>822</ele>
        <time>2022-03-03T14:52:13.617Z</time>
      </trkpt>
      <trkpt lat="44.13632" lon="6.11917">
        <ele>822</ele>
        <time>2022-03-03T14:52:14.617Z</time>
      </trkpt>
      <trkpt lat="44.13631" lon="6.11917">
        <ele>822</ele>
        <time>2022-03-03T14:52:15.617Z</time>
      </trkpt>
      <trkpt lat="44.13629" lon="6.11917">
        <ele>822</ele>
        <time>2022-03-03T14:52:16.617Z</time>
      </trkpt>
      <trkpt lat="44.13628" lon="6.11917">
        <ele>822</ele>
        <time>2022-03-03T14:52:17.617Z</time>
      </trkpt>
      <trkpt lat="44.13627" lon="6.11917">
        <ele>822</ele>
        <time>2022-03-03T14:52:18.617Z</time>
      </trkpt>
      <trkpt lat="44.13626" lon="6.11917">
        <ele>821</ele>
        <time>2022-03-03T14:52:19.617Z</time>
      </trkpt>
      <trkpt lat="44.13625" lon="6.11917">
        <ele>821</ele>
        <time>2022-03-03T14:52:20.617Z</time>
      </trkpt>
      <trkpt lat="44.13624" lon="6.11917">
        <ele>821</ele>
        <time>2022-03-03T14:52:21.617Z</time>
      </trkpt>
      <trkpt lat="44.13623" lon="6.11916">
        <ele>821</ele>
        <time>2022-03-03T14:52:22.617Z</time>
      </trkpt>
      <trkpt lat="44.13621" lon="6.11916">
        <ele>820</ele>
        <time>2022-03-03T14:52:23.617Z</time>
      </trkpt>
      <trkpt lat="44.1362" lon="6.11915">
        <ele>820</ele>
        <time>2022-03-03T14:52:24.617Z</time>
      </trkpt>
      <trkpt lat="44.13619" lon="6.11915">
        <ele>819</ele>
        <time>2022-03-03T14:52:25.617Z</time>
      </trkpt>
      <trkpt lat="44.13618" lon="6.11915">
        <ele>819</ele>
        <time>2022-03-03T14:52:26.617Z</time>
      </trkpt>
      <trkpt lat="44.13617" lon="6.11915">
        <ele>819</ele>
        <time>2022-03-03T14:52:27.617Z</time>
      </trkpt>
      <trkpt lat="44.13615" lon="6.11914">
        <ele>818</ele>
        <time>2022-03-03T14:52:28.617Z</time>
      </trkpt>
      <trkpt lat="44.13614" lon="6.11914">
        <ele>818</ele>
        <time>2022-03-03T14:52:29.617Z</time>
      </trkpt>
      <trkpt lat="44.13613" lon="6.11913">
        <ele>818</ele>
        <time>2022-03-03T14:52:30.617Z</time>
      </trkpt>
      <trkpt lat="44.13612" lon="6.11913">
        <ele>817</ele>
        <time>2022-03-03T14:52:31.617Z</time>
      </trkpt>
      <trkpt lat="44.13611" lon="6.11912">
        <ele>817</ele>
        <time>2022-03-03T14:52:32.617Z</time>
      </trkpt>
      <trkpt lat="44.1361" lon="6.11912">
        <ele>816</ele>
        <time>2022-03-03T14:52:33.617Z</time>
      </trkpt>
      <trkpt lat="44.13608" lon="6.11911">
        <ele>816</ele>
        <time>2022-03-03T14:52:34.617Z</time>
      </trkpt>
      <trkpt lat="44.13607" lon="6.11911">
        <ele>816</ele>
        <time>2022-03-03T14:52:35.617Z</time>
      </trkpt>
      <trkpt lat="44.13606" lon="6.1191">
        <ele>815</ele>
        <time>2022-03-03T14:52:36.617Z</time>
      </trkpt>
      <trkpt lat="44.13605" lon="6.1191">
        <ele>815</ele>
        <time>2022-03-03T14:52:37.617Z</time>
      </trkpt>
      <trkpt lat="44.13604" lon="6.11909">
        <ele>815</ele>
        <time>2022-03-03T14:52:38.617Z</time>
      </trkpt>
      <trkpt lat="44.13603" lon="6.11908">
        <ele>814</ele>
        <time>2022-03-03T14:52:39.617Z</time>
      </trkpt>
      <trkpt lat="44.13602" lon="6.11908">
        <ele>814</ele>
        <time>2022-03-03T14:52:40.617Z</time>
      </trkpt>
      <trkpt lat="44.13601" lon="6.11907">
        <ele>813</ele>
        <time>2022-03-03T14:52:41.617Z</time>
      </trkpt>
      <trkpt lat="44.136" lon="6.11907">
        <ele>813</ele>
        <time>2022-03-03T14:52:42.617Z</time>
      </trkpt>
      <trkpt lat="44.13599" lon="6.11906">
        <ele>813</ele>
        <time>2022-03-03T14:52:43.617Z</time>
      </trkpt>
      <trkpt lat="44.13597" lon="6.11906">
        <ele>812</ele>
        <time>2022-03-03T14:52:44.617Z</time>
      </trkpt>
      <trkpt lat="44.13596" lon="6.11906">
        <ele>812</ele>
        <time>2022-03-03T14:52:45.617Z</time>
      </trkpt>
      <trkpt lat="44.13595" lon="6.11905">
        <ele>811</ele>
        <time>2022-03-03T14:52:46.617Z</time>
      </trkpt>
      <trkpt lat="44.13594" lon="6.11905">
        <ele>811</ele>
        <time>2022-03-03T14:52:47.617Z</time>
      </trkpt>
      <trkpt lat="44.13593" lon="6.11904">
        <ele>811</ele>
        <time>2022-03-03T14:52:48.617Z</time>
      </trkpt>
      <trkpt lat="44.13592" lon="6.11904">
        <ele>810</ele>
        <time>2022-03-03T14:52:49.617Z</time>
      </trkpt>
      <trkpt lat="44.13591" lon="6.11904">
        <ele>810</ele>
        <time>2022-03-03T14:52:50.617Z</time>
      </trkpt>
      <trkpt lat="44.13589" lon="6.11903">
        <ele>810</ele>
        <time>2022-03-03T14:52:51.617Z</time>
      </trkpt>
      <trkpt lat="44.13588" lon="6.11903">
        <ele>810</ele>
        <time>2022-03-03T14:52:52.617Z</time>
      </trkpt>
      <trkpt lat="44.13587" lon="6.11903">
        <ele>809</ele>
        <time>2022-03-03T14:52:53.617Z</time>
      </trkpt>
      <trkpt lat="44.13586" lon="6.11903">
        <ele>809</ele>
        <time>2022-03-03T14:52:54.617Z</time>
      </trkpt>
      <trkpt lat="44.13585" lon="6.11903">
        <ele>809</ele>
        <time>2022-03-03T14:52:55.617Z</time>
      </trkpt>
      <trkpt lat="44.13583" lon="6.11902">
        <ele>809</ele>
        <time>2022-03-03T14:52:56.617Z</time>
      </trkpt>
      <trkpt lat="44.13582" lon="6.11902">
        <ele>809</ele>
        <time>2022-03-03T14:52:57.617Z</time>
      </trkpt>
      <trkpt lat="44.13581" lon="6.11902">
        <ele>809</ele>
        <time>2022-03-03T14:52:58.617Z</time>
      </trkpt>
      <trkpt lat="44.1358" lon="6.11902">
        <ele>808</ele>
        <time>2022-03-03T14:52:59.617Z</time>
      </trkpt>
      <trkpt lat="44.13579" lon="6.11902">
        <ele>808</ele>
        <time>2022-03-03T14:53:00.617Z</time>
      </trkpt>
      <trkpt lat="44.13578" lon="6.11902">
        <ele>808</ele>
        <time>2022-03-03T14:53:01.617Z</time>
      </trkpt>
      <trkpt lat="44.13576" lon="6.11902">
        <ele>808</ele>
        <time>2022-03-03T14:53:02.617Z</time>
      </trkpt>
      <trkpt lat="44.13575" lon="6.11902">
        <ele>808</ele>
        <time>2022-03-03T14:53:03.617Z</time>
      </trkpt>
      <trkpt lat="44.13574" lon="6.11902">
        <ele>808</ele>
        <time>2022-03-03T14:53:04.617Z</time>
      </trkpt>
      <trkpt lat="44.13573" lon="6.11902">
        <ele>808</ele>
        <time>2022-03-03T14:53:05.617Z</time>
      </trkpt>
      <trkpt lat="44.13572" lon="6.11902">
        <ele>808</ele>
        <time>2022-03-03T14:53:06.617Z</time>
      </trkpt>
      <trkpt lat="44.13571" lon="6.11902">
        <ele>808</ele>
        <time>2022-03-03T14:53:07.617Z</time>
      </trkpt>
      <trkpt lat="44.13569" lon="6.11902">
        <ele>807</ele>
        <time>2022-03-03T14:53:08.617Z</time>
      </trkpt>
      <trkpt lat="44.13568" lon="6.11902">
        <ele>807</ele>
        <time>2022-03-03T14:53:09.617Z</time>
      </trkpt>
      <trkpt lat="44.13567" lon="6.11902">
        <ele>807</ele>
        <time>2022-03-03T14:53:10.617Z</time>
      </trkpt>
      <trkpt lat="44.13565" lon="6.11902">
        <ele>807</ele>
        <time>2022-03-03T14:53:11.617Z</time>
      </trkpt>
      <trkpt lat="44.13564" lon="6.11902">
        <ele>807</ele>
        <time>2022-03-03T14:53:12.617Z</time>
      </trkpt>
      <trkpt lat="44.13563" lon="6.11902">
        <ele>807</ele>
        <time>2022-03-03T14:53:13.617Z</time>
      </trkpt>
      <trkpt lat="44.13562" lon="6.11902">
        <ele>807</ele>
        <time>2022-03-03T14:53:14.617Z</time>
      </trkpt>
      <trkpt lat="44.13561" lon="6.11903">
        <ele>807</ele>
        <time>2022-03-03T14:53:15.617Z</time>
      </trkpt>
      <trkpt lat="44.13559" lon="6.11902">
        <ele>807</ele>
        <time>2022-03-03T14:53:16.617Z</time>
      </trkpt>
      <trkpt lat="44.13558" lon="6.11903">
        <ele>806</ele>
        <time>2022-03-03T14:53:17.617Z</time>
      </trkpt>
      <trkpt lat="44.13557" lon="6.11903">
        <ele>806</ele>
        <time>2022-03-03T14:53:18.617Z</time>
      </trkpt>
      <trkpt lat="44.13556" lon="6.11903">
        <ele>806</ele>
        <time>2022-03-03T14:53:19.617Z</time>
      </trkpt>
      <trkpt lat="44.13555" lon="6.11903">
        <ele>806</ele>
        <time>2022-03-03T14:53:20.617Z</time>
      </trkpt>
      <trkpt lat="44.13554" lon="6.11903">
        <ele>806</ele>
        <time>2022-03-03T14:53:21.617Z</time>
      </trkpt>
      <trkpt lat="44.13552" lon="6.11903">
        <ele>806</ele>
        <time>2022-03-03T14:53:22.617Z</time>
      </trkpt>
      <trkpt lat="44.13551" lon="6.11903">
        <ele>806</ele>
        <time>2022-03-03T14:53:23.617Z</time>
      </trkpt>
      <trkpt lat="44.1355" lon="6.11904">
        <ele>805</ele>
        <time>2022-03-03T14:53:24.617Z</time>
      </trkpt>
      <trkpt lat="44.13548" lon="6.11904">
        <ele>805</ele>
        <time>2022-03-03T14:53:25.617Z</time>
      </trkpt>
      <trkpt lat="44.13547" lon="6.11904">
        <ele>805</ele>
        <time>2022-03-03T14:53:26.617Z</time>
      </trkpt>
      <trkpt lat="44.13546" lon="6.11904">
        <ele>805</ele>
        <time>2022-03-03T14:53:27.617Z</time>
      </trkpt>
      <trkpt lat="44.13545" lon="6.11905">
        <ele>805</ele>
        <time>2022-03-03T14:53:28.617Z</time>
      </trkpt>
      <trkpt lat="44.13544" lon="6.11905">
        <ele>805</ele>
        <time>2022-03-03T14:53:29.617Z</time>
      </trkpt>
      <trkpt lat="44.13542" lon="6.11905">
        <ele>805</ele>
        <time>2022-03-03T14:53:30.617Z</time>
      </trkpt>
      <trkpt lat="44.13541" lon="6.11906">
        <ele>805</ele>
        <time>2022-03-03T14:53:31.617Z</time>
      </trkpt>
      <trkpt lat="44.1354" lon="6.11906">
        <ele>804</ele>
        <time>2022-03-03T14:53:32.617Z</time>
      </trkpt>
      <trkpt lat="44.13539" lon="6.11907">
        <ele>804</ele>
        <time>2022-03-03T14:53:33.617Z</time>
      </trkpt>
      <trkpt lat="44.13538" lon="6.11907">
        <ele>804</ele>
        <time>2022-03-03T14:53:34.617Z</time>
      </trkpt>
      <trkpt lat="44.13536" lon="6.11908">
        <ele>804</ele>
        <time>2022-03-03T14:53:35.617Z</time>
      </trkpt>
      <trkpt lat="44.13535" lon="6.11909">
        <ele>804</ele>
        <time>2022-03-03T14:53:36.617Z</time>
      </trkpt>
      <trkpt lat="44.13534" lon="6.11909">
        <ele>804</ele>
        <time>2022-03-03T14:53:37.617Z</time>
      </trkpt>
      <trkpt lat="44.13533" lon="6.11909">
        <ele>804</ele>
        <time>2022-03-03T14:53:38.617Z</time>
      </trkpt>
      <trkpt lat="44.13531" lon="6.1191">
        <ele>804</ele>
        <time>2022-03-03T14:53:39.617Z</time>
      </trkpt>
      <trkpt lat="44.1353" lon="6.1191">
        <ele>804</ele>
        <time>2022-03-03T14:53:40.617Z</time>
      </trkpt>
      <trkpt lat="44.13529" lon="6.11911">
        <ele>803</ele>
        <time>2022-03-03T14:53:41.617Z</time>
      </trkpt>
      <trkpt lat="44.13528" lon="6.11911">
        <ele>803</ele>
        <time>2022-03-03T14:53:42.617Z</time>
      </trkpt>
      <trkpt lat="44.13527" lon="6.11912">
        <ele>803</ele>
        <time>2022-03-03T14:53:43.617Z</time>
      </trkpt>
      <trkpt lat="44.13525" lon="6.11912">
        <ele>803</ele>
        <time>2022-03-03T14:53:44.617Z</time>
      </trkpt>
      <trkpt lat="44.13524" lon="6.11913">
        <ele>803</ele>
        <time>2022-03-03T14:53:45.617Z</time>
      </trkpt>
      <trkpt lat="44.13523" lon="6.11913">
        <ele>803</ele>
        <time>2022-03-03T14:53:46.617Z</time>
      </trkpt>
      <trkpt lat="44.13522" lon="6.11914">
        <ele>803</ele>
        <time>2022-03-03T14:53:47.617Z</time>
      </trkpt>
      <trkpt lat="44.13521" lon="6.11915">
        <ele>803</ele>
        <time>2022-03-03T14:53:48.617Z</time>
      </trkpt>
      <trkpt lat="44.13519" lon="6.11915">
        <ele>803</ele>
        <time>2022-03-03T14:53:49.617Z</time>
      </trkpt>
      <trkpt lat="44.13518" lon="6.11916">
        <ele>803</ele>
        <time>2022-03-03T14:53:50.617Z</time>
      </trkpt>
      <trkpt lat="44.13517" lon="6.11916">
        <ele>803</ele>
        <time>2022-03-03T14:53:51.617Z</time>
      </trkpt>
      <trkpt lat="44.13516" lon="6.11917">
        <ele>803</ele>
        <time>2022-03-03T14:53:52.617Z</time>
      </trkpt>
      <trkpt lat="44.13515" lon="6.11917">
        <ele>803</ele>
        <time>2022-03-03T14:53:53.617Z</time>
      </trkpt>
      <trkpt lat="44.13514" lon="6.11918">
        <ele>802</ele>
        <time>2022-03-03T14:53:54.617Z</time>
      </trkpt>
      <trkpt lat="44.13513" lon="6.11919">
        <ele>802</ele>
        <time>2022-03-03T14:53:55.617Z</time>
      </trkpt>
      <trkpt lat="44.13512" lon="6.1192">
        <ele>802</ele>
        <time>2022-03-03T14:53:56.617Z</time>
      </trkpt>
      <trkpt lat="44.13511" lon="6.1192">
        <ele>802</ele>
        <time>2022-03-03T14:53:57.617Z</time>
      </trkpt>
      <trkpt lat="44.1351" lon="6.11921">
        <ele>802</ele>
        <time>2022-03-03T14:53:58.617Z</time>
      </trkpt>
      <trkpt lat="44.13509" lon="6.11922">
        <ele>802</ele>
        <time>2022-03-03T14:53:59.617Z</time>
      </trkpt>
      <trkpt lat="44.13508" lon="6.11922">
        <ele>802</ele>
        <time>2022-03-03T14:54:00.617Z</time>
      </trkpt>
      <trkpt lat="44.13507" lon="6.11922">
        <ele>801</ele>
        <time>2022-03-03T14:54:01.617Z</time>
      </trkpt>
      <trkpt lat="44.13506" lon="6.11923">
        <ele>801</ele>
        <time>2022-03-03T14:54:02.617Z</time>
      </trkpt>
      <trkpt lat="44.13504" lon="6.11923">
        <ele>801</ele>
        <time>2022-03-03T14:54:03.617Z</time>
      </trkpt>
      <trkpt lat="44.13503" lon="6.11924">
        <ele>801</ele>
        <time>2022-03-03T14:54:04.617Z</time>
      </trkpt>
      <trkpt lat="44.13502" lon="6.11925">
        <ele>801</ele>
        <time>2022-03-03T14:54:05.617Z</time>
      </trkpt>
      <trkpt lat="44.13501" lon="6.11925">
        <ele>801</ele>
        <time>2022-03-03T14:54:06.617Z</time>
      </trkpt>
      <trkpt lat="44.135" lon="6.11925">
        <ele>801</ele>
        <time>2022-03-03T14:54:07.617Z</time>
      </trkpt>
      <trkpt lat="44.13498" lon="6.11926">
        <ele>801</ele>
        <time>2022-03-03T14:54:08.617Z</time>
      </trkpt>
      <trkpt lat="44.13497" lon="6.11926">
        <ele>801</ele>
        <time>2022-03-03T14:54:09.617Z</time>
      </trkpt>
      <trkpt lat="44.13496" lon="6.11927">
        <ele>800</ele>
        <time>2022-03-03T14:54:10.617Z</time>
      </trkpt>
      <trkpt lat="44.13494" lon="6.11927">
        <ele>800</ele>
        <time>2022-03-03T14:54:11.617Z</time>
      </trkpt>
      <trkpt lat="44.13493" lon="6.11928">
        <ele>800</ele>
        <time>2022-03-03T14:54:12.617Z</time>
      </trkpt>
      <trkpt lat="44.13492" lon="6.11928">
        <ele>800</ele>
        <time>2022-03-03T14:54:13.617Z</time>
      </trkpt>
      <trkpt lat="44.13491" lon="6.11929">
        <ele>800</ele>
        <time>2022-03-03T14:54:14.617Z</time>
      </trkpt>
      <trkpt lat="44.13489" lon="6.11929">
        <ele>800</ele>
        <time>2022-03-03T14:54:15.617Z</time>
      </trkpt>
      <trkpt lat="44.13488" lon="6.1193">
        <ele>800</ele>
        <time>2022-03-03T14:54:16.617Z</time>
      </trkpt>
      <trkpt lat="44.13487" lon="6.1193">
        <ele>800</ele>
        <time>2022-03-03T14:54:17.617Z</time>
      </trkpt>
      <trkpt lat="44.13486" lon="6.11931">
        <ele>800</ele>
        <time>2022-03-03T14:54:18.617Z</time>
      </trkpt>
      <trkpt lat="44.13484" lon="6.11931">
        <ele>800</ele>
        <time>2022-03-03T14:54:19.617Z</time>
      </trkpt>
      <trkpt lat="44.13483" lon="6.11931">
        <ele>800</ele>
        <time>2022-03-03T14:54:20.617Z</time>
      </trkpt>
      <trkpt lat="44.13482" lon="6.11931">
        <ele>800</ele>
        <time>2022-03-03T14:54:21.617Z</time>
      </trkpt>
      <trkpt lat="44.1348" lon="6.11932">
        <ele>800</ele>
        <time>2022-03-03T14:54:22.617Z</time>
      </trkpt>
      <trkpt lat="44.13479" lon="6.11931">
        <ele>800</ele>
        <time>2022-03-03T14:54:23.617Z</time>
      </trkpt>
      <trkpt lat="44.13478" lon="6.11932">
        <ele>800</ele>
        <time>2022-03-03T14:54:24.617Z</time>
      </trkpt>
      <trkpt lat="44.13477" lon="6.11932">
        <ele>800</ele>
        <time>2022-03-03T14:54:25.617Z</time>
      </trkpt>
      <trkpt lat="44.13475" lon="6.11932">
        <ele>800</ele>
        <time>2022-03-03T14:54:26.617Z</time>
      </trkpt>
      <trkpt lat="44.13474" lon="6.11932">
        <ele>800</ele>
        <time>2022-03-03T14:54:27.617Z</time>
      </trkpt>
      <trkpt lat="44.13473" lon="6.11932">
        <ele>800</ele>
        <time>2022-03-03T14:54:28.617Z</time>
      </trkpt>
      <trkpt lat="44.13472" lon="6.11932">
        <ele>800</ele>
        <time>2022-03-03T14:54:29.617Z</time>
      </trkpt>
      <trkpt lat="44.13471" lon="6.11932">
        <ele>800</ele>
        <time>2022-03-03T14:54:30.617Z</time>
      </trkpt>
      <trkpt lat="44.13469" lon="6.11932">
        <ele>800</ele>
        <time>2022-03-03T14:54:31.617Z</time>
      </trkpt>
      <trkpt lat="44.13468" lon="6.11932">
        <ele>800</ele>
        <time>2022-03-03T14:54:32.617Z</time>
      </trkpt>
      <trkpt lat="44.13467" lon="6.11933">
        <ele>800</ele>
        <time>2022-03-03T14:54:33.617Z</time>
      </trkpt>
      <trkpt lat="44.13466" lon="6.11933">
        <ele>800</ele>
        <time>2022-03-03T14:54:34.617Z</time>
      </trkpt>
      <trkpt lat="44.13465" lon="6.11933">
        <ele>800</ele>
        <time>2022-03-03T14:54:35.617Z</time>
      </trkpt>
      <trkpt lat="44.13463" lon="6.11934">
        <ele>800</ele>
        <time>2022-03-03T14:54:36.617Z</time>
      </trkpt>
      <trkpt lat="44.13462" lon="6.11934">
        <ele>799</ele>
        <time>2022-03-03T14:54:37.617Z</time>
      </trkpt>
      <trkpt lat="44.13461" lon="6.11934">
        <ele>799</ele>
        <time>2022-03-03T14:54:38.617Z</time>
      </trkpt>
      <trkpt lat="44.1346" lon="6.11934">
        <ele>799</ele>
        <time>2022-03-03T14:54:39.617Z</time>
      </trkpt>
      <trkpt lat="44.13459" lon="6.11935">
        <ele>799</ele>
        <time>2022-03-03T14:54:40.617Z</time>
      </trkpt>
      <trkpt lat="44.13458" lon="6.11935">
        <ele>799</ele>
        <time>2022-03-03T14:54:41.617Z</time>
      </trkpt>
      <trkpt lat="44.13457" lon="6.11935">
        <ele>798</ele>
        <time>2022-03-03T14:54:42.617Z</time>
      </trkpt>
      <trkpt lat="44.13456" lon="6.11935">
        <ele>798</ele>
        <time>2022-03-03T14:54:43.617Z</time>
      </trkpt>
      <trkpt lat="44.13455" lon="6.11935">
        <ele>798</ele>
        <time>2022-03-03T14:54:44.617Z</time>
      </trkpt>
      <trkpt lat="44.13454" lon="6.11935">
        <ele>798</ele>
        <time>2022-03-03T14:54:45.617Z</time>
      </trkpt>
      <trkpt lat="44.13453" lon="6.11936">
        <ele>798</ele>
        <time>2022-03-03T14:54:46.617Z</time>
      </trkpt>
      <trkpt lat="44.13451" lon="6.11936">
        <ele>798</ele>
        <time>2022-03-03T14:54:47.617Z</time>
      </trkpt>
      <trkpt lat="44.1345" lon="6.11936">
        <ele>797</ele>
        <time>2022-03-03T14:54:48.617Z</time>
      </trkpt>
      <trkpt lat="44.13449" lon="6.11937">
        <ele>797</ele>
        <time>2022-03-03T14:54:49.617Z</time>
      </trkpt>
      <trkpt lat="44.13448" lon="6.11937">
        <ele>797</ele>
        <time>2022-03-03T14:54:50.617Z</time>
      </trkpt>
      <trkpt lat="44.13447" lon="6.11938">
        <ele>797</ele>
        <time>2022-03-03T14:54:51.617Z</time>
      </trkpt>
      <trkpt lat="44.13446" lon="6.11938">
        <ele>797</ele>
        <time>2022-03-03T14:54:52.617Z</time>
      </trkpt>
      <trkpt lat="44.13445" lon="6.11939">
        <ele>796</ele>
        <time>2022-03-03T14:54:53.617Z</time>
      </trkpt>
      <trkpt lat="44.13443" lon="6.11939">
        <ele>796</ele>
        <time>2022-03-03T14:54:54.617Z</time>
      </trkpt>
      <trkpt lat="44.13442" lon="6.11939">
        <ele>796</ele>
        <time>2022-03-03T14:54:55.617Z</time>
      </trkpt>
      <trkpt lat="44.13441" lon="6.1194">
        <ele>796</ele>
        <time>2022-03-03T14:54:56.617Z</time>
      </trkpt>
      <trkpt lat="44.1344" lon="6.1194">
        <ele>796</ele>
        <time>2022-03-03T14:54:57.617Z</time>
      </trkpt>
      <trkpt lat="44.13438" lon="6.1194">
        <ele>795</ele>
        <time>2022-03-03T14:54:58.617Z</time>
      </trkpt>
      <trkpt lat="44.13437" lon="6.11941">
        <ele>795</ele>
        <time>2022-03-03T14:54:59.617Z</time>
      </trkpt>
      <trkpt lat="44.13436" lon="6.11941">
        <ele>795</ele>
        <time>2022-03-03T14:55:00.617Z</time>
      </trkpt>
      <trkpt lat="44.13435" lon="6.11942">
        <ele>795</ele>
        <time>2022-03-03T14:55:01.617Z</time>
      </trkpt>
      <trkpt lat="44.13434" lon="6.11942">
        <ele>795</ele>
        <time>2022-03-03T14:55:02.617Z</time>
      </trkpt>
      <trkpt lat="44.13432" lon="6.11942">
        <ele>794</ele>
        <time>2022-03-03T14:55:03.617Z</time>
      </trkpt>
      <trkpt lat="44.13431" lon="6.11943">
        <ele>794</ele>
        <time>2022-03-03T14:55:04.617Z</time>
      </trkpt>
      <trkpt lat="44.1343" lon="6.11943">
        <ele>794</ele>
        <time>2022-03-03T14:55:05.617Z</time>
      </trkpt>
      <trkpt lat="44.13429" lon="6.11943">
        <ele>794</ele>
        <time>2022-03-03T14:55:06.617Z</time>
      </trkpt>
      <trkpt lat="44.13428" lon="6.11943">
        <ele>793</ele>
        <time>2022-03-03T14:55:07.617Z</time>
      </trkpt>
      <trkpt lat="44.13426" lon="6.11943">
        <ele>793</ele>
        <time>2022-03-03T14:55:08.617Z</time>
      </trkpt>
      <trkpt lat="44.13425" lon="6.11943">
        <ele>793</ele>
        <time>2022-03-03T14:55:09.617Z</time>
      </trkpt>
      <trkpt lat="44.13424" lon="6.11943">
        <ele>793</ele>
        <time>2022-03-03T14:55:10.617Z</time>
      </trkpt>
      <trkpt lat="44.13423" lon="6.11944">
        <ele>792</ele>
        <time>2022-03-03T14:55:11.617Z</time>
      </trkpt>
      <trkpt lat="44.13422" lon="6.11944">
        <ele>792</ele>
        <time>2022-03-03T14:55:12.617Z</time>
      </trkpt>
      <trkpt lat="44.13421" lon="6.11944">
        <ele>792</ele>
        <time>2022-03-03T14:55:13.617Z</time>
      </trkpt>
      <trkpt lat="44.13419" lon="6.11944">
        <ele>792</ele>
        <time>2022-03-03T14:55:14.617Z</time>
      </trkpt>
      <trkpt lat="44.13418" lon="6.11944">
        <ele>792</ele>
        <time>2022-03-03T14:55:15.617Z</time>
      </trkpt>
      <trkpt lat="44.13417" lon="6.11945">
        <ele>791</ele>
        <time>2022-03-03T14:55:16.617Z</time>
      </trkpt>
      <trkpt lat="44.13417" lon="6.11945">
        <ele>791</ele>
        <time>2022-03-03T14:55:17.617Z</time>
      </trkpt>
      <trkpt lat="44.13415" lon="6.11945">
        <ele>791</ele>
        <time>2022-03-03T14:55:18.617Z</time>
      </trkpt>
      <trkpt lat="44.13414" lon="6.11946">
        <ele>791</ele>
        <time>2022-03-03T14:55:19.617Z</time>
      </trkpt>
      <trkpt lat="44.13414" lon="6.11946">
        <ele>791</ele>
        <time>2022-03-03T14:55:20.617Z</time>
      </trkpt>
      <trkpt lat="44.13414" lon="6.11946">
        <ele>790</ele>
        <time>2022-03-03T14:55:21.617Z</time>
      </trkpt>
      <trkpt lat="44.13413" lon="6.11946">
        <ele>790</ele>
        <time>2022-03-03T14:55:22.617Z</time>
      </trkpt>
      <trkpt lat="44.13412" lon="6.11946">
        <ele>790</ele>
        <time>2022-03-03T14:55:23.617Z</time>
      </trkpt>
      <trkpt lat="44.13411" lon="6.11946">
        <ele>790</ele>
        <time>2022-03-03T14:55:24.617Z</time>
      </trkpt>
      <trkpt lat="44.13411" lon="6.11946">
        <ele>789</ele>
        <time>2022-03-03T14:55:25.617Z</time>
      </trkpt>
      <trkpt lat="44.1341" lon="6.11946">
        <ele>789</ele>
        <time>2022-03-03T14:55:26.617Z</time>
      </trkpt>
      <trkpt lat="44.13409" lon="6.11947">
        <ele>789</ele>
        <time>2022-03-03T14:55:27.617Z</time>
      </trkpt>
      <trkpt lat="44.13409" lon="6.11947">
        <ele>789</ele>
        <time>2022-03-03T14:55:28.617Z</time>
      </trkpt>
      <trkpt lat="44.13408" lon="6.11947">
        <ele>788</ele>
        <time>2022-03-03T14:55:29.617Z</time>
      </trkpt>
      <trkpt lat="44.13408" lon="6.11947">
        <ele>788</ele>
        <time>2022-03-03T14:55:30.617Z</time>
      </trkpt>
      <trkpt lat="44.13408" lon="6.11947">
        <ele>788</ele>
        <time>2022-03-03T14:55:31.617Z</time>
      </trkpt>
      <trkpt lat="44.13408" lon="6.11947">
        <ele>788</ele>
        <time>2022-03-03T14:55:32.617Z</time>
      </trkpt>
      <trkpt lat="44.13408" lon="6.11947">
        <ele>788</ele>
        <time>2022-03-03T14:55:33.617Z</time>
      </trkpt>
      <trkpt lat="44.13408" lon="6.11947">
        <ele>788</ele>
        <time>2022-03-03T14:55:34.617Z</time>
      </trkpt>
      <trkpt lat="44.13408" lon="6.11947">
        <ele>787</ele>
        <time>2022-03-03T14:55:35.617Z</time>
      </trkpt>
      <trkpt lat="44.13408" lon="6.11947">
        <ele>787</ele>
        <time>2022-03-03T14:55:36.617Z</time>
      </trkpt>
      <trkpt lat="44.13408" lon="6.11947">
        <ele>787</ele>
        <time>2022-03-03T14:55:37.617Z</time>
      </trkpt>
      <trkpt lat="44.13408" lon="6.11947">
        <ele>787</ele>
        <time>2022-03-03T14:55:38.617Z</time>
      </trkpt>
      <trkpt lat="44.13408" lon="6.11947">
        <ele>787</ele>
        <time>2022-03-03T14:55:39.617Z</time>
      </trkpt>
      <trkpt lat="44.13408" lon="6.11947">
        <ele>787</ele>
        <time>2022-03-03T14:55:40.617Z</time>
      </trkpt>
      <trkpt lat="44.13408" lon="6.11947">
        <ele>787</ele>
        <time>2022-03-03T14:55:41.617Z</time>
      </trkpt>
      <trkpt lat="44.13408" lon="6.11947">
        <ele>787</ele>
        <time>2022-03-03T14:55:42.617Z</time>
      </trkpt>
      <trkpt lat="44.13408" lon="6.11947">
        <ele>787</ele>
        <time>2022-03-03T14:55:43.617Z</time>
      </trkpt>
      <trkpt lat="44.13408" lon="6.11947">
        <ele>787</ele>
        <time>2022-03-03T14:55:44.617Z</time>
      </trkpt>
      <trkpt lat="44.13408" lon="6.11947">
        <ele>787</ele>
        <time>2022-03-03T14:55:45.617Z</time>
      </trkpt>
      <trkpt lat="44.13408" lon="6.11947">
        <ele>786</ele>
        <time>2022-03-03T14:55:46.617Z</time>
      </trkpt>
      <trkpt lat="44.13408" lon="6.11947">
        <ele>786</ele>
        <time>2022-03-03T14:55:47.617Z</time>
      </trkpt>
      <trkpt lat="44.13408" lon="6.11947">
        <ele>786</ele>
        <time>2022-03-03T14:55:48.617Z</time>
      </trkpt>
      <trkpt lat="44.13407" lon="6.11947">
        <ele>786</ele>
        <time>2022-03-03T14:55:49.617Z</time>
      </trkpt>
      <trkpt lat="44.13407" lon="6.11948">
        <ele>786</ele>
        <time>2022-03-03T14:55:50.617Z</time>
      </trkpt>
      <trkpt lat="44.13406" lon="6.11948">
        <ele>786</ele>
        <time>2022-03-03T14:55:51.617Z</time>
      </trkpt>
      <trkpt lat="44.13406" lon="6.11948">
        <ele>786</ele>
        <time>2022-03-03T14:55:52.617Z</time>
      </trkpt>
      <trkpt lat="44.13405" lon="6.11948">
        <ele>786</ele>
        <time>2022-03-03T14:55:53.617Z</time>
      </trkpt>
      <trkpt lat="44.13404" lon="6.11948">
        <ele>786</ele>
        <time>2022-03-03T14:55:54.617Z</time>
      </trkpt>
      <trkpt lat="44.13404" lon="6.11948">
        <ele>785</ele>
        <time>2022-03-03T14:55:55.617Z</time>
      </trkpt>
      <trkpt lat="44.13404" lon="6.11948">
        <ele>785</ele>
        <time>2022-03-03T14:55:56.617Z</time>
      </trkpt>
      <trkpt lat="44.13403" lon="6.11949">
        <ele>785</ele>
        <time>2022-03-03T14:55:57.617Z</time>
      </trkpt>
      <trkpt lat="44.13403" lon="6.11949">
        <ele>785</ele>
        <time>2022-03-03T14:55:58.617Z</time>
      </trkpt>
      <trkpt lat="44.13402" lon="6.11949">
        <ele>785</ele>
        <time>2022-03-03T14:55:59.617Z</time>
      </trkpt>
      <trkpt lat="44.13401" lon="6.1195">
        <ele>785</ele>
        <time>2022-03-03T14:56:00.617Z</time>
      </trkpt>
      <trkpt lat="44.134" lon="6.1195">
        <ele>785</ele>
        <time>2022-03-03T14:56:01.617Z</time>
      </trkpt>
      <trkpt lat="44.134" lon="6.1195">
        <ele>785</ele>
        <time>2022-03-03T14:56:02.617Z</time>
      </trkpt>
      <trkpt lat="44.13399" lon="6.11951">
        <ele>785</ele>
        <time>2022-03-03T14:56:03.617Z</time>
      </trkpt>
      <trkpt lat="44.13398" lon="6.11951">
        <ele>785</ele>
        <time>2022-03-03T14:56:04.617Z</time>
      </trkpt>
      <trkpt lat="44.13397" lon="6.11951">
        <ele>785</ele>
        <time>2022-03-03T14:56:05.617Z</time>
      </trkpt>
      <trkpt lat="44.13396" lon="6.11951">
        <ele>785</ele>
        <time>2022-03-03T14:56:06.617Z</time>
      </trkpt>
      <trkpt lat="44.13395" lon="6.11951">
        <ele>785</ele>
        <time>2022-03-03T14:56:07.617Z</time>
      </trkpt>
      <trkpt lat="44.13394" lon="6.11951">
        <ele>785</ele>
        <time>2022-03-03T14:56:08.617Z</time>
      </trkpt>
      <trkpt lat="44.13393" lon="6.11951">
        <ele>785</ele>
        <time>2022-03-03T14:56:09.617Z</time>
      </trkpt>
      <trkpt lat="44.13392" lon="6.11952">
        <ele>784</ele>
        <time>2022-03-03T14:56:10.617Z</time>
      </trkpt>
      <trkpt lat="44.13391" lon="6.11952">
        <ele>784</ele>
        <time>2022-03-03T14:56:11.617Z</time>
      </trkpt>
      <trkpt lat="44.1339" lon="6.11952">
        <ele>784</ele>
        <time>2022-03-03T14:56:12.617Z</time>
      </trkpt>
      <trkpt lat="44.13389" lon="6.11952">
        <ele>784</ele>
        <time>2022-03-03T14:56:13.617Z</time>
      </trkpt>
      <trkpt lat="44.13388" lon="6.11952">
        <ele>784</ele>
        <time>2022-03-03T14:56:14.617Z</time>
      </trkpt>
      <trkpt lat="44.13387" lon="6.11952">
        <ele>783</ele>
        <time>2022-03-03T14:56:15.617Z</time>
      </trkpt>
      <trkpt lat="44.13386" lon="6.11952">
        <ele>783</ele>
        <time>2022-03-03T14:56:16.617Z</time>
      </trkpt>
      <trkpt lat="44.13385" lon="6.11952">
        <ele>782</ele>
        <time>2022-03-03T14:56:17.617Z</time>
      </trkpt>
      <trkpt lat="44.13384" lon="6.11952">
        <ele>782</ele>
        <time>2022-03-03T14:56:18.617Z</time>
      </trkpt>
      <trkpt lat="44.13383" lon="6.11952">
        <ele>782</ele>
        <time>2022-03-03T14:56:19.617Z</time>
      </trkpt>
      <trkpt lat="44.13382" lon="6.11952">
        <ele>781</ele>
        <time>2022-03-03T14:56:20.617Z</time>
      </trkpt>
      <trkpt lat="44.13381" lon="6.11952">
        <ele>781</ele>
        <time>2022-03-03T14:56:21.617Z</time>
      </trkpt>
      <trkpt lat="44.13379" lon="6.11952">
        <ele>781</ele>
        <time>2022-03-03T14:56:22.617Z</time>
      </trkpt>
      <trkpt lat="44.13378" lon="6.11952">
        <ele>780</ele>
        <time>2022-03-03T14:56:23.617Z</time>
      </trkpt>
      <trkpt lat="44.13377" lon="6.11952">
        <ele>780</ele>
        <time>2022-03-03T14:56:24.617Z</time>
      </trkpt>
      <trkpt lat="44.13376" lon="6.11952">
        <ele>780</ele>
        <time>2022-03-03T14:56:25.617Z</time>
      </trkpt>
      <trkpt lat="44.13375" lon="6.11952">
        <ele>780</ele>
        <time>2022-03-03T14:56:26.617Z</time>
      </trkpt>
      <trkpt lat="44.13374" lon="6.11952">
        <ele>779</ele>
        <time>2022-03-03T14:56:27.617Z</time>
      </trkpt>
      <trkpt lat="44.13372" lon="6.11953">
        <ele>779</ele>
        <time>2022-03-03T14:56:28.617Z</time>
      </trkpt>
      <trkpt lat="44.13371" lon="6.11953">
        <ele>779</ele>
        <time>2022-03-03T14:56:29.617Z</time>
      </trkpt>
      <trkpt lat="44.1337" lon="6.11953">
        <ele>779</ele>
        <time>2022-03-03T14:56:30.617Z</time>
      </trkpt>
      <trkpt lat="44.13369" lon="6.11953">
        <ele>779</ele>
        <time>2022-03-03T14:56:31.617Z</time>
      </trkpt>
      <trkpt lat="44.13368" lon="6.11953">
        <ele>778</ele>
        <time>2022-03-03T14:56:32.617Z</time>
      </trkpt>
      <trkpt lat="44.13367" lon="6.11953">
        <ele>778</ele>
        <time>2022-03-03T14:56:33.617Z</time>
      </trkpt>
      <trkpt lat="44.13366" lon="6.11954">
        <ele>778</ele>
        <time>2022-03-03T14:56:34.617Z</time>
      </trkpt>
      <trkpt lat="44.13365" lon="6.11953">
        <ele>778</ele>
        <time>2022-03-03T14:56:35.617Z</time>
      </trkpt>
      <trkpt lat="44.13364" lon="6.11954">
        <ele>778</ele>
        <time>2022-03-03T14:56:36.617Z</time>
      </trkpt>
      <trkpt lat="44.13363" lon="6.11954">
        <ele>778</ele>
        <time>2022-03-03T14:56:37.617Z</time>
      </trkpt>
      <trkpt lat="44.13362" lon="6.11954">
        <ele>777</ele>
        <time>2022-03-03T14:56:38.617Z</time>
      </trkpt>
      <trkpt lat="44.13361" lon="6.11954">
        <ele>777</ele>
        <time>2022-03-03T14:56:39.617Z</time>
      </trkpt>
      <trkpt lat="44.1336" lon="6.11954">
        <ele>777</ele>
        <time>2022-03-03T14:56:40.617Z</time>
      </trkpt>
      <trkpt lat="44.13359" lon="6.11955">
        <ele>777</ele>
        <time>2022-03-03T14:56:41.617Z</time>
      </trkpt>
      <trkpt lat="44.13358" lon="6.11955">
        <ele>777</ele>
        <time>2022-03-03T14:56:42.617Z</time>
      </trkpt>
      <trkpt lat="44.13357" lon="6.11955">
        <ele>777</ele>
        <time>2022-03-03T14:56:43.617Z</time>
      </trkpt>
      <trkpt lat="44.13356" lon="6.11955">
        <ele>776</ele>
        <time>2022-03-03T14:56:44.617Z</time>
      </trkpt>
      <trkpt lat="44.13355" lon="6.11955">
        <ele>776</ele>
        <time>2022-03-03T14:56:45.617Z</time>
      </trkpt>
      <trkpt lat="44.13355" lon="6.11955">
        <ele>775</ele>
        <time>2022-03-03T14:56:46.617Z</time>
      </trkpt>
      <trkpt lat="44.13354" lon="6.11955">
        <ele>775</ele>
        <time>2022-03-03T14:56:47.617Z</time>
      </trkpt>
      <trkpt lat="44.13353" lon="6.11955">
        <ele>775</ele>
        <time>2022-03-03T14:56:48.617Z</time>
      </trkpt>
      <trkpt lat="44.13352" lon="6.11956">
        <ele>774</ele>
        <time>2022-03-03T14:56:49.617Z</time>
      </trkpt>
      <trkpt lat="44.13351" lon="6.11956">
        <ele>774</ele>
        <time>2022-03-03T14:56:50.617Z</time>
      </trkpt>
      <trkpt lat="44.1335" lon="6.11956">
        <ele>773</ele>
        <time>2022-03-03T14:56:51.617Z</time>
      </trkpt>
      <trkpt lat="44.13349" lon="6.11956">
        <ele>773</ele>
        <time>2022-03-03T14:56:52.617Z</time>
      </trkpt>
      <trkpt lat="44.13348" lon="6.11956">
        <ele>773</ele>
        <time>2022-03-03T14:56:53.617Z</time>
      </trkpt>
      <trkpt lat="44.13347" lon="6.11956">
        <ele>772</ele>
        <time>2022-03-03T14:56:54.617Z</time>
      </trkpt>
      <trkpt lat="44.13346" lon="6.11956">
        <ele>772</ele>
        <time>2022-03-03T14:56:55.617Z</time>
      </trkpt>
      <trkpt lat="44.13345" lon="6.11957">
        <ele>772</ele>
        <time>2022-03-03T14:56:56.617Z</time>
      </trkpt>
      <trkpt lat="44.13344" lon="6.11957">
        <ele>771</ele>
        <time>2022-03-03T14:56:57.617Z</time>
      </trkpt>
      <trkpt lat="44.13343" lon="6.11957">
        <ele>771</ele>
        <time>2022-03-03T14:56:58.617Z</time>
      </trkpt>
      <trkpt lat="44.13342" lon="6.11957">
        <ele>771</ele>
        <time>2022-03-03T14:56:59.617Z</time>
      </trkpt>
      <trkpt lat="44.1334" lon="6.11957">
        <ele>771</ele>
        <time>2022-03-03T14:57:00.617Z</time>
      </trkpt>
      <trkpt lat="44.13339" lon="6.11957">
        <ele>770</ele>
        <time>2022-03-03T14:57:01.617Z</time>
      </trkpt>
      <trkpt lat="44.13339" lon="6.11957">
        <ele>770</ele>
        <time>2022-03-03T14:57:02.617Z</time>
      </trkpt>
      <trkpt lat="44.13338" lon="6.11957">
        <ele>770</ele>
        <time>2022-03-03T14:57:03.617Z</time>
      </trkpt>
      <trkpt lat="44.13337" lon="6.11958">
        <ele>770</ele>
        <time>2022-03-03T14:57:04.617Z</time>
      </trkpt>
      <trkpt lat="44.13336" lon="6.11958">
        <ele>770</ele>
        <time>2022-03-03T14:57:05.617Z</time>
      </trkpt>
      <trkpt lat="44.13334" lon="6.11958">
        <ele>770</ele>
        <time>2022-03-03T14:57:06.617Z</time>
      </trkpt>
      <trkpt lat="44.13333" lon="6.11958">
        <ele>769</ele>
        <time>2022-03-03T14:57:07.617Z</time>
      </trkpt>
      <trkpt lat="44.13332" lon="6.11958">
        <ele>769</ele>
        <time>2022-03-03T14:57:08.617Z</time>
      </trkpt>
      <trkpt lat="44.13332" lon="6.11958">
        <ele>769</ele>
        <time>2022-03-03T14:57:09.617Z</time>
      </trkpt>
      <trkpt lat="44.13331" lon="6.11957">
        <ele>769</ele>
        <time>2022-03-03T14:57:10.617Z</time>
      </trkpt>
      <trkpt lat="44.1333" lon="6.11957">
        <ele>769</ele>
        <time>2022-03-03T14:57:11.617Z</time>
      </trkpt>
      <trkpt lat="44.13329" lon="6.11957">
        <ele>768</ele>
        <time>2022-03-03T14:57:12.617Z</time>
      </trkpt>
      <trkpt lat="44.13328" lon="6.11956">
        <ele>768</ele>
        <time>2022-03-03T14:57:13.617Z</time>
      </trkpt>
      <trkpt lat="44.13327" lon="6.11956">
        <ele>768</ele>
        <time>2022-03-03T14:57:14.617Z</time>
      </trkpt>
      <trkpt lat="44.13326" lon="6.11956">
        <ele>767</ele>
        <time>2022-03-03T14:57:15.617Z</time>
      </trkpt>
      <trkpt lat="44.13325" lon="6.11956">
        <ele>767</ele>
        <time>2022-03-03T14:57:16.617Z</time>
      </trkpt>
      <trkpt lat="44.13324" lon="6.11955">
        <ele>767</ele>
        <time>2022-03-03T14:57:17.617Z</time>
      </trkpt>
      <trkpt lat="44.13323" lon="6.11955">
        <ele>766</ele>
        <time>2022-03-03T14:57:18.617Z</time>
      </trkpt>
      <trkpt lat="44.13323" lon="6.11955">
        <ele>766</ele>
        <time>2022-03-03T14:57:19.617Z</time>
      </trkpt>
      <trkpt lat="44.13322" lon="6.11954">
        <ele>765</ele>
        <time>2022-03-03T14:57:20.617Z</time>
      </trkpt>
      <trkpt lat="44.1332" lon="6.11954">
        <ele>765</ele>
        <time>2022-03-03T14:57:21.617Z</time>
      </trkpt>
      <trkpt lat="44.13319" lon="6.11954">
        <ele>764</ele>
        <time>2022-03-03T14:57:22.617Z</time>
      </trkpt>
      <trkpt lat="44.13318" lon="6.11953">
        <ele>764</ele>
        <time>2022-03-03T14:57:23.617Z</time>
      </trkpt>
      <trkpt lat="44.13317" lon="6.11953">
        <ele>764</ele>
        <time>2022-03-03T14:57:24.617Z</time>
      </trkpt>
      <trkpt lat="44.13316" lon="6.11952">
        <ele>763</ele>
        <time>2022-03-03T14:57:25.617Z</time>
      </trkpt>
      <trkpt lat="44.13315" lon="6.11952">
        <ele>763</ele>
        <time>2022-03-03T14:57:26.617Z</time>
      </trkpt>
      <trkpt lat="44.13314" lon="6.11951">
        <ele>763</ele>
        <time>2022-03-03T14:57:27.617Z</time>
      </trkpt>
      <trkpt lat="44.13314" lon="6.11951">
        <ele>763</ele>
        <time>2022-03-03T14:57:28.617Z</time>
      </trkpt>
      <trkpt lat="44.13313" lon="6.1195">
        <ele>762</ele>
        <time>2022-03-03T14:57:29.617Z</time>
      </trkpt>
      <trkpt lat="44.13312" lon="6.1195">
        <ele>762</ele>
        <time>2022-03-03T14:57:30.617Z</time>
      </trkpt>
      <trkpt lat="44.13311" lon="6.11949">
        <ele>762</ele>
        <time>2022-03-03T14:57:31.617Z</time>
      </trkpt>
      <trkpt lat="44.1331" lon="6.11949">
        <ele>762</ele>
        <time>2022-03-03T14:57:32.617Z</time>
      </trkpt>
      <trkpt lat="44.13309" lon="6.11948">
        <ele>762</ele>
        <time>2022-03-03T14:57:33.617Z</time>
      </trkpt>
      <trkpt lat="44.13308" lon="6.11947">
        <ele>761</ele>
        <time>2022-03-03T14:57:34.617Z</time>
      </trkpt>
      <trkpt lat="44.13307" lon="6.11947">
        <ele>761</ele>
        <time>2022-03-03T14:57:35.617Z</time>
      </trkpt>
      <trkpt lat="44.13306" lon="6.11946">
        <ele>761</ele>
        <time>2022-03-03T14:57:36.617Z</time>
      </trkpt>
      <trkpt lat="44.13305" lon="6.11946">
        <ele>761</ele>
        <time>2022-03-03T14:57:37.617Z</time>
      </trkpt>
      <trkpt lat="44.13304" lon="6.11945">
        <ele>761</ele>
        <time>2022-03-03T14:57:38.617Z</time>
      </trkpt>
      <trkpt lat="44.13303" lon="6.11944">
        <ele>761</ele>
        <time>2022-03-03T14:57:39.617Z</time>
      </trkpt>
      <trkpt lat="44.13302" lon="6.11944">
        <ele>761</ele>
        <time>2022-03-03T14:57:40.617Z</time>
      </trkpt>
      <trkpt lat="44.13301" lon="6.11943">
        <ele>761</ele>
        <time>2022-03-03T14:57:41.617Z</time>
      </trkpt>
      <trkpt lat="44.13301" lon="6.11942">
        <ele>760</ele>
        <time>2022-03-03T14:57:42.617Z</time>
      </trkpt>
      <trkpt lat="44.133" lon="6.11941">
        <ele>760</ele>
        <time>2022-03-03T14:57:43.617Z</time>
      </trkpt>
      <trkpt lat="44.13299" lon="6.1194">
        <ele>760</ele>
        <time>2022-03-03T14:57:44.617Z</time>
      </trkpt>
      <trkpt lat="44.13298" lon="6.1194">
        <ele>760</ele>
        <time>2022-03-03T14:57:45.617Z</time>
      </trkpt>
      <trkpt lat="44.13297" lon="6.11939">
        <ele>760</ele>
        <time>2022-03-03T14:57:46.617Z</time>
      </trkpt>
      <trkpt lat="44.13296" lon="6.11939">
        <ele>759</ele>
        <time>2022-03-03T14:57:47.617Z</time>
      </trkpt>
      <trkpt lat="44.13296" lon="6.11938">
        <ele>759</ele>
        <time>2022-03-03T14:57:48.617Z</time>
      </trkpt>
      <trkpt lat="44.13295" lon="6.11937">
        <ele>758</ele>
        <time>2022-03-03T14:57:49.617Z</time>
      </trkpt>
      <trkpt lat="44.13294" lon="6.11936">
        <ele>758</ele>
        <time>2022-03-03T14:57:50.617Z</time>
      </trkpt>
      <trkpt lat="44.13293" lon="6.11935">
        <ele>758</ele>
        <time>2022-03-03T14:57:51.617Z</time>
      </trkpt>
      <trkpt lat="44.13292" lon="6.11935">
        <ele>757</ele>
        <time>2022-03-03T14:57:52.617Z</time>
      </trkpt>
      <trkpt lat="44.13291" lon="6.11934">
        <ele>757</ele>
        <time>2022-03-03T14:57:53.617Z</time>
      </trkpt>
      <trkpt lat="44.1329" lon="6.11933">
        <ele>757</ele>
        <time>2022-03-03T14:57:54.617Z</time>
      </trkpt>
      <trkpt lat="44.13289" lon="6.11932">
        <ele>757</ele>
        <time>2022-03-03T14:57:55.617Z</time>
      </trkpt>
      <trkpt lat="44.13288" lon="6.11931">
        <ele>757</ele>
        <time>2022-03-03T14:57:56.617Z</time>
      </trkpt>
      <trkpt lat="44.13287" lon="6.11931">
        <ele>756</ele>
        <time>2022-03-03T14:57:57.617Z</time>
      </trkpt>
      <trkpt lat="44.13286" lon="6.1193">
        <ele>756</ele>
        <time>2022-03-03T14:57:58.617Z</time>
      </trkpt>
      <trkpt lat="44.13286" lon="6.11929">
        <ele>756</ele>
        <time>2022-03-03T14:57:59.617Z</time>
      </trkpt>
      <trkpt lat="44.13285" lon="6.11929">
        <ele>756</ele>
        <time>2022-03-03T14:58:00.617Z</time>
      </trkpt>
      <trkpt lat="44.13284" lon="6.11928">
        <ele>756</ele>
        <time>2022-03-03T14:58:01.617Z</time>
      </trkpt>
      <trkpt lat="44.13283" lon="6.11928">
        <ele>756</ele>
        <time>2022-03-03T14:58:02.617Z</time>
      </trkpt>
      <trkpt lat="44.13282" lon="6.11927">
        <ele>756</ele>
        <time>2022-03-03T14:58:03.617Z</time>
      </trkpt>
      <trkpt lat="44.13281" lon="6.11926">
        <ele>756</ele>
        <time>2022-03-03T14:58:04.617Z</time>
      </trkpt>
      <trkpt lat="44.1328" lon="6.11925">
        <ele>756</ele>
        <time>2022-03-03T14:58:05.617Z</time>
      </trkpt>
      <trkpt lat="44.13279" lon="6.11924">
        <ele>756</ele>
        <time>2022-03-03T14:58:06.617Z</time>
      </trkpt>
      <trkpt lat="44.13278" lon="6.11923">
        <ele>756</ele>
        <time>2022-03-03T14:58:07.617Z</time>
      </trkpt>
      <trkpt lat="44.13278" lon="6.11922">
        <ele>756</ele>
        <time>2022-03-03T14:58:08.617Z</time>
      </trkpt>
      <trkpt lat="44.13277" lon="6.11921">
        <ele>756</ele>
        <time>2022-03-03T14:58:09.617Z</time>
      </trkpt>
      <trkpt lat="44.13276" lon="6.1192">
        <ele>756</ele>
        <time>2022-03-03T14:58:10.617Z</time>
      </trkpt>
      <trkpt lat="44.13275" lon="6.11919">
        <ele>756</ele>
        <time>2022-03-03T14:58:11.617Z</time>
      </trkpt>
      <trkpt lat="44.13274" lon="6.11917">
        <ele>756</ele>
        <time>2022-03-03T14:58:12.617Z</time>
      </trkpt>
      <trkpt lat="44.13273" lon="6.11916">
        <ele>756</ele>
        <time>2022-03-03T14:58:13.617Z</time>
      </trkpt>
      <trkpt lat="44.13272" lon="6.11915">
        <ele>756</ele>
        <time>2022-03-03T14:58:14.617Z</time>
      </trkpt>
      <trkpt lat="44.13272" lon="6.11915">
        <ele>756</ele>
        <time>2022-03-03T14:58:15.617Z</time>
      </trkpt>
      <trkpt lat="44.13271" lon="6.11914">
        <ele>756</ele>
        <time>2022-03-03T14:58:16.617Z</time>
      </trkpt>
      <trkpt lat="44.1327" lon="6.11913">
        <ele>757</ele>
        <time>2022-03-03T14:58:17.617Z</time>
      </trkpt>
      <trkpt lat="44.13269" lon="6.11912">
        <ele>757</ele>
        <time>2022-03-03T14:58:18.617Z</time>
      </trkpt>
      <trkpt lat="44.13268" lon="6.11911">
        <ele>757</ele>
        <time>2022-03-03T14:58:19.617Z</time>
      </trkpt>
      <trkpt lat="44.13267" lon="6.1191">
        <ele>757</ele>
        <time>2022-03-03T14:58:20.617Z</time>
      </trkpt>
      <trkpt lat="44.13266" lon="6.11909">
        <ele>757</ele>
        <time>2022-03-03T14:58:21.617Z</time>
      </trkpt>
      <trkpt lat="44.13265" lon="6.11908">
        <ele>757</ele>
        <time>2022-03-03T14:58:22.617Z</time>
      </trkpt>
      <trkpt lat="44.13265" lon="6.11907">
        <ele>757</ele>
        <time>2022-03-03T14:58:23.617Z</time>
      </trkpt>
      <trkpt lat="44.13264" lon="6.11906">
        <ele>757</ele>
        <time>2022-03-03T14:58:24.617Z</time>
      </trkpt>
      <trkpt lat="44.13263" lon="6.11904">
        <ele>757</ele>
        <time>2022-03-03T14:58:25.617Z</time>
      </trkpt>
      <trkpt lat="44.13262" lon="6.11903">
        <ele>757</ele>
        <time>2022-03-03T14:58:26.617Z</time>
      </trkpt>
      <trkpt lat="44.13261" lon="6.11902">
        <ele>757</ele>
        <time>2022-03-03T14:58:27.617Z</time>
      </trkpt>
      <trkpt lat="44.1326" lon="6.11901">
        <ele>757</ele>
        <time>2022-03-03T14:58:28.617Z</time>
      </trkpt>
      <trkpt lat="44.13259" lon="6.119">
        <ele>757</ele>
        <time>2022-03-03T14:58:29.617Z</time>
      </trkpt>
      <trkpt lat="44.13258" lon="6.11899">
        <ele>757</ele>
        <time>2022-03-03T14:58:30.617Z</time>
      </trkpt>
      <trkpt lat="44.13257" lon="6.11897">
        <ele>757</ele>
        <time>2022-03-03T14:58:31.617Z</time>
      </trkpt>
      <trkpt lat="44.13257" lon="6.11896">
        <ele>757</ele>
        <time>2022-03-03T14:58:32.617Z</time>
      </trkpt>
      <trkpt lat="44.13256" lon="6.11894">
        <ele>757</ele>
        <time>2022-03-03T14:58:33.617Z</time>
      </trkpt>
      <trkpt lat="44.13255" lon="6.11893">
        <ele>757</ele>
        <time>2022-03-03T14:58:34.617Z</time>
      </trkpt>
      <trkpt lat="44.13254" lon="6.11892">
        <ele>757</ele>
        <time>2022-03-03T14:58:35.617Z</time>
      </trkpt>
      <trkpt lat="44.13253" lon="6.11891">
        <ele>757</ele>
        <time>2022-03-03T14:58:36.617Z</time>
      </trkpt>
      <trkpt lat="44.13252" lon="6.1189">
        <ele>757</ele>
        <time>2022-03-03T14:58:37.617Z</time>
      </trkpt>
      <trkpt lat="44.13251" lon="6.11888">
        <ele>757</ele>
        <time>2022-03-03T14:58:38.617Z</time>
      </trkpt>
      <trkpt lat="44.1325" lon="6.11887">
        <ele>757</ele>
        <time>2022-03-03T14:58:39.617Z</time>
      </trkpt>
      <trkpt lat="44.13249" lon="6.11886">
        <ele>757</ele>
        <time>2022-03-03T14:58:40.617Z</time>
      </trkpt>
      <trkpt lat="44.13248" lon="6.11885">
        <ele>756</ele>
        <time>2022-03-03T14:58:41.617Z</time>
      </trkpt>
      <trkpt lat="44.13247" lon="6.11884">
        <ele>756</ele>
        <time>2022-03-03T14:58:42.617Z</time>
      </trkpt>
      <trkpt lat="44.13247" lon="6.11883">
        <ele>756</ele>
        <time>2022-03-03T14:58:43.617Z</time>
      </trkpt>
      <trkpt lat="44.13246" lon="6.11881">
        <ele>757</ele>
        <time>2022-03-03T14:58:44.617Z</time>
      </trkpt>
      <trkpt lat="44.13245" lon="6.1188">
        <ele>757</ele>
        <time>2022-03-03T14:58:45.617Z</time>
      </trkpt>
      <trkpt lat="44.13244" lon="6.11879">
        <ele>757</ele>
        <time>2022-03-03T14:58:46.617Z</time>
      </trkpt>
      <trkpt lat="44.13242" lon="6.11878">
        <ele>757</ele>
        <time>2022-03-03T14:58:47.617Z</time>
      </trkpt>
      <trkpt lat="44.13241" lon="6.11877">
        <ele>757</ele>
        <time>2022-03-03T14:58:48.617Z</time>
      </trkpt>
      <trkpt lat="44.1324" lon="6.11876">
        <ele>757</ele>
        <time>2022-03-03T14:58:49.617Z</time>
      </trkpt>
      <trkpt lat="44.13239" lon="6.11875">
        <ele>757</ele>
        <time>2022-03-03T14:58:50.617Z</time>
      </trkpt>
      <trkpt lat="44.13238" lon="6.11874">
        <ele>757</ele>
        <time>2022-03-03T14:58:51.617Z</time>
      </trkpt>
      <trkpt lat="44.13237" lon="6.11873">
        <ele>757</ele>
        <time>2022-03-03T14:58:52.617Z</time>
      </trkpt>
      <trkpt lat="44.13237" lon="6.11871">
        <ele>757</ele>
        <time>2022-03-03T14:58:53.617Z</time>
      </trkpt>
      <trkpt lat="44.13236" lon="6.1187">
        <ele>756</ele>
        <time>2022-03-03T14:58:54.617Z</time>
      </trkpt>
      <trkpt lat="44.13235" lon="6.1187">
        <ele>756</ele>
        <time>2022-03-03T14:58:55.617Z</time>
      </trkpt>
      <trkpt lat="44.13234" lon="6.11869">
        <ele>755</ele>
        <time>2022-03-03T14:58:56.617Z</time>
      </trkpt>
      <trkpt lat="44.13233" lon="6.11868">
        <ele>755</ele>
        <time>2022-03-03T14:58:57.617Z</time>
      </trkpt>
      <trkpt lat="44.13232" lon="6.11866">
        <ele>754</ele>
        <time>2022-03-03T14:58:58.617Z</time>
      </trkpt>
      <trkpt lat="44.13231" lon="6.11866">
        <ele>754</ele>
        <time>2022-03-03T14:58:59.617Z</time>
      </trkpt>
      <trkpt lat="44.1323" lon="6.11865">
        <ele>754</ele>
        <time>2022-03-03T14:59:00.617Z</time>
      </trkpt>
      <trkpt lat="44.13229" lon="6.11864">
        <ele>753</ele>
        <time>2022-03-03T14:59:01.617Z</time>
      </trkpt>
      <trkpt lat="44.13228" lon="6.11863">
        <ele>753</ele>
        <time>2022-03-03T14:59:02.617Z</time>
      </trkpt>
      <trkpt lat="44.13227" lon="6.11863">
        <ele>752</ele>
        <time>2022-03-03T14:59:03.617Z</time>
      </trkpt>
      <trkpt lat="44.13226" lon="6.11863">
        <ele>752</ele>
        <time>2022-03-03T14:59:04.617Z</time>
      </trkpt>
      <trkpt lat="44.13225" lon="6.11863">
        <ele>751</ele>
        <time>2022-03-03T14:59:05.617Z</time>
      </trkpt>
      <trkpt lat="44.13224" lon="6.11863">
        <ele>751</ele>
        <time>2022-03-03T14:59:06.617Z</time>
      </trkpt>
      <trkpt lat="44.13223" lon="6.11862">
        <ele>751</ele>
        <time>2022-03-03T14:59:07.617Z</time>
      </trkpt>
      <trkpt lat="44.13222" lon="6.11862">
        <ele>750</ele>
        <time>2022-03-03T14:59:08.617Z</time>
      </trkpt>
      <trkpt lat="44.1322" lon="6.11861">
        <ele>750</ele>
        <time>2022-03-03T14:59:09.617Z</time>
      </trkpt>
      <trkpt lat="44.13219" lon="6.11861">
        <ele>750</ele>
        <time>2022-03-03T14:59:10.617Z</time>
      </trkpt>
      <trkpt lat="44.13218" lon="6.1186">
        <ele>750</ele>
        <time>2022-03-03T14:59:11.617Z</time>
      </trkpt>
      <trkpt lat="44.13217" lon="6.1186">
        <ele>749</ele>
        <time>2022-03-03T14:59:12.617Z</time>
      </trkpt>
      <trkpt lat="44.13216" lon="6.1186">
        <ele>749</ele>
        <time>2022-03-03T14:59:13.617Z</time>
      </trkpt>
      <trkpt lat="44.13215" lon="6.1186">
        <ele>749</ele>
        <time>2022-03-03T14:59:14.617Z</time>
      </trkpt>
      <trkpt lat="44.13214" lon="6.1186">
        <ele>749</ele>
        <time>2022-03-03T14:59:15.617Z</time>
      </trkpt>
      <trkpt lat="44.13212" lon="6.11859">
        <ele>748</ele>
        <time>2022-03-03T14:59:16.617Z</time>
      </trkpt>
      <trkpt lat="44.13211" lon="6.1186">
        <ele>748</ele>
        <time>2022-03-03T14:59:17.617Z</time>
      </trkpt>
      <trkpt lat="44.1321" lon="6.1186">
        <ele>748</ele>
        <time>2022-03-03T14:59:18.617Z</time>
      </trkpt>
      <trkpt lat="44.13209" lon="6.1186">
        <ele>748</ele>
        <time>2022-03-03T14:59:19.617Z</time>
      </trkpt>
      <trkpt lat="44.13207" lon="6.11859">
        <ele>748</ele>
        <time>2022-03-03T14:59:20.617Z</time>
      </trkpt>
      <trkpt lat="44.13206" lon="6.11859">
        <ele>748</ele>
        <time>2022-03-03T14:59:21.617Z</time>
      </trkpt>
      <trkpt lat="44.13205" lon="6.11859">
        <ele>748</ele>
        <time>2022-03-03T14:59:22.617Z</time>
      </trkpt>
      <trkpt lat="44.13204" lon="6.11858">
        <ele>748</ele>
        <time>2022-03-03T14:59:23.617Z</time>
      </trkpt>
      <trkpt lat="44.13202" lon="6.11858">
        <ele>748</ele>
        <time>2022-03-03T14:59:24.617Z</time>
      </trkpt>
      <trkpt lat="44.13201" lon="6.11857">
        <ele>748</ele>
        <time>2022-03-03T14:59:25.617Z</time>
      </trkpt>
      <trkpt lat="44.132" lon="6.11857">
        <ele>748</ele>
        <time>2022-03-03T14:59:26.617Z</time>
      </trkpt>
      <trkpt lat="44.13199" lon="6.11857">
        <ele>747</ele>
        <time>2022-03-03T14:59:27.617Z</time>
      </trkpt>
      <trkpt lat="44.13197" lon="6.11856">
        <ele>747</ele>
        <time>2022-03-03T14:59:28.617Z</time>
      </trkpt>
      <trkpt lat="44.13196" lon="6.11855">
        <ele>747</ele>
        <time>2022-03-03T14:59:29.617Z</time>
      </trkpt>
      <trkpt lat="44.13195" lon="6.11855">
        <ele>747</ele>
        <time>2022-03-03T14:59:30.617Z</time>
      </trkpt>
      <trkpt lat="44.13194" lon="6.11854">
        <ele>747</ele>
        <time>2022-03-03T14:59:31.617Z</time>
      </trkpt>
      <trkpt lat="44.13193" lon="6.11853">
        <ele>747</ele>
        <time>2022-03-03T14:59:32.617Z</time>
      </trkpt>
      <trkpt lat="44.13192" lon="6.11852">
        <ele>747</ele>
        <time>2022-03-03T14:59:33.617Z</time>
      </trkpt>
      <trkpt lat="44.13192" lon="6.11852">
        <ele>747</ele>
        <time>2022-03-03T14:59:34.617Z</time>
      </trkpt>
      <trkpt lat="44.13191" lon="6.1185">
        <ele>747</ele>
        <time>2022-03-03T14:59:35.617Z</time>
      </trkpt>
      <trkpt lat="44.1319" lon="6.11849">
        <ele>747</ele>
        <time>2022-03-03T14:59:36.617Z</time>
      </trkpt>
      <trkpt lat="44.13189" lon="6.11848">
        <ele>747</ele>
        <time>2022-03-03T14:59:37.617Z</time>
      </trkpt>
      <trkpt lat="44.13188" lon="6.11847">
        <ele>747</ele>
        <time>2022-03-03T14:59:38.617Z</time>
      </trkpt>
      <trkpt lat="44.13186" lon="6.11846">
        <ele>747</ele>
        <time>2022-03-03T14:59:39.617Z</time>
      </trkpt>
      <trkpt lat="44.13186" lon="6.11845">
        <ele>747</ele>
        <time>2022-03-03T14:59:40.617Z</time>
      </trkpt>
      <trkpt lat="44.13185" lon="6.11844">
        <ele>748</ele>
        <time>2022-03-03T14:59:41.617Z</time>
      </trkpt>
      <trkpt lat="44.13184" lon="6.11844">
        <ele>748</ele>
        <time>2022-03-03T14:59:42.617Z</time>
      </trkpt>
      <trkpt lat="44.13183" lon="6.11843">
        <ele>748</ele>
        <time>2022-03-03T14:59:43.617Z</time>
      </trkpt>
      <trkpt lat="44.13182" lon="6.11843">
        <ele>748</ele>
        <time>2022-03-03T14:59:44.617Z</time>
      </trkpt>
      <trkpt lat="44.13181" lon="6.11843">
        <ele>748</ele>
        <time>2022-03-03T14:59:45.617Z</time>
      </trkpt>
      <trkpt lat="44.1318" lon="6.11842">
        <ele>748</ele>
        <time>2022-03-03T14:59:46.617Z</time>
      </trkpt>
      <trkpt lat="44.13179" lon="6.11842">
        <ele>748</ele>
        <time>2022-03-03T14:59:47.617Z</time>
      </trkpt>
      <trkpt lat="44.13178" lon="6.11841">
        <ele>748</ele>
        <time>2022-03-03T14:59:48.617Z</time>
      </trkpt>
      <trkpt lat="44.13176" lon="6.1184">
        <ele>748</ele>
        <time>2022-03-03T14:59:49.617Z</time>
      </trkpt>
      <trkpt lat="44.13175" lon="6.11839">
        <ele>748</ele>
        <time>2022-03-03T14:59:50.617Z</time>
      </trkpt>
      <trkpt lat="44.13174" lon="6.11839">
        <ele>748</ele>
        <time>2022-03-03T14:59:51.617Z</time>
      </trkpt>
      <trkpt lat="44.13173" lon="6.11837">
        <ele>748</ele>
        <time>2022-03-03T14:59:52.617Z</time>
      </trkpt>
      <trkpt lat="44.13172" lon="6.11836">
        <ele>748</ele>
        <time>2022-03-03T14:59:53.617Z</time>
      </trkpt>
      <trkpt lat="44.13171" lon="6.11835">
        <ele>748</ele>
        <time>2022-03-03T14:59:54.617Z</time>
      </trkpt>
      <trkpt lat="44.1317" lon="6.11834">
        <ele>749</ele>
        <time>2022-03-03T14:59:55.617Z</time>
      </trkpt>
      <trkpt lat="44.13169" lon="6.11833">
        <ele>749</ele>
        <time>2022-03-03T14:59:56.617Z</time>
      </trkpt>
      <trkpt lat="44.13168" lon="6.11831">
        <ele>749</ele>
        <time>2022-03-03T14:59:57.617Z</time>
      </trkpt>
      <trkpt lat="44.13168" lon="6.1183">
        <ele>749</ele>
        <time>2022-03-03T14:59:58.617Z</time>
      </trkpt>
      <trkpt lat="44.13168" lon="6.11828">
        <ele>749</ele>
        <time>2022-03-03T14:59:59.617Z</time>
      </trkpt>
      <trkpt lat="44.13167" lon="6.11827">
        <ele>749</ele>
        <time>2022-03-03T15:00:00.617Z</time>
      </trkpt>
      <trkpt lat="44.13167" lon="6.11827">
        <ele>749</ele>
        <time>2022-03-03T15:00:01.617Z</time>
      </trkpt>
      <trkpt lat="44.13167" lon="6.11826">
        <ele>749</ele>
        <time>2022-03-03T15:00:02.617Z</time>
      </trkpt>
      <trkpt lat="44.13167" lon="6.11826">
        <ele>749</ele>
        <time>2022-03-03T15:00:03.617Z</time>
      </trkpt>
      <trkpt lat="44.13167" lon="6.11826">
        <ele>749</ele>
        <time>2022-03-03T15:00:04.617Z</time>
      </trkpt>
      <trkpt lat="44.13167" lon="6.11826">
        <ele>749</ele>
        <time>2022-03-03T15:00:05.617Z</time>
      </trkpt>
      <trkpt lat="44.13167" lon="6.11826">
        <ele>749</ele>
        <time>2022-03-03T15:00:06.617Z</time>
      </trkpt>
      <trkpt lat="44.13167" lon="6.11826">
        <ele>749</ele>
        <time>2022-03-03T15:00:07.617Z</time>
      </trkpt>
      <trkpt lat="44.13167" lon="6.11826">
        <ele>749</ele>
        <time>2022-03-03T15:00:08.617Z</time>
      </trkpt>
      <trkpt lat="44.13167" lon="6.11826">
        <ele>749</ele>
        <time>2022-03-03T15:00:09.617Z</time>
      </trkpt>
      <trkpt lat="44.13167" lon="6.11825">
        <ele>749</ele>
        <time>2022-03-03T15:00:10.617Z</time>
      </trkpt>
      <trkpt lat="44.13167" lon="6.11825">
        <ele>749</ele>
        <time>2022-03-03T15:00:11.617Z</time>
      </trkpt>
      <trkpt lat="44.13166" lon="6.11825">
        <ele>749</ele>
        <time>2022-03-03T15:00:12.617Z</time>
      </trkpt>
      <trkpt lat="44.13166" lon="6.11825">
        <ele>749</ele>
        <time>2022-03-03T15:00:13.617Z</time>
      </trkpt>
      <trkpt lat="44.13166" lon="6.11825">
        <ele>749</ele>
        <time>2022-03-03T15:00:14.617Z</time>
      </trkpt>
      <trkpt lat="44.13166" lon="6.11825">
        <ele>749</ele>
        <time>2022-03-03T15:00:15.617Z</time>
      </trkpt>
      <trkpt lat="44.13166" lon="6.11824">
        <ele>749</ele>
        <time>2022-03-03T15:00:16.617Z</time>
      </trkpt>
      <trkpt lat="44.13166" lon="6.11824">
        <ele>749</ele>
        <time>2022-03-03T15:00:17.617Z</time>
      </trkpt>
      <trkpt lat="44.13166" lon="6.11824">
        <ele>749</ele>
        <time>2022-03-03T15:00:18.617Z</time>
      </trkpt>
      <trkpt lat="44.13166" lon="6.11824">
        <ele>749</ele>
        <time>2022-03-03T15:00:19.617Z</time>
      </trkpt>
      <trkpt lat="44.13166" lon="6.11824">
        <ele>749</ele>
        <time>2022-03-03T15:00:20.617Z</time>
      </trkpt>
      <trkpt lat="44.13166" lon="6.11824">
        <ele>749</ele>
        <time>2022-03-03T15:00:21.617Z</time>
      </trkpt>
      <trkpt lat="44.13165" lon="6.11824">
        <ele>750</ele>
        <time>2022-03-03T15:00:22.617Z</time>
      </trkpt>
      <trkpt lat="44.13165" lon="6.11824">
        <ele>750</ele>
        <time>2022-03-03T15:00:23.617Z</time>
      </trkpt>
      <trkpt lat="44.13165" lon="6.11824">
        <ele>750</ele>
        <time>2022-03-03T15:00:24.617Z</time>
      </trkpt>
      <trkpt lat="44.13165" lon="6.11824">
        <ele>750</ele>
        <time>2022-03-03T15:00:25.617Z</time>
      </trkpt>
      <trkpt lat="44.13165" lon="6.11823">
        <ele>750</ele>
        <time>2022-03-03T15:00:26.617Z</time>
      </trkpt>
      <trkpt lat="44.13165" lon="6.11823">
        <ele>750</ele>
        <time>2022-03-03T15:00:27.617Z</time>
      </trkpt>
      <trkpt lat="44.13165" lon="6.11823">
        <ele>750</ele>
        <time>2022-03-03T15:00:28.617Z</time>
      </trkpt>
      <trkpt lat="44.13165" lon="6.11823">
        <ele>750</ele>
        <time>2022-03-03T15:00:29.617Z</time>
      </trkpt>
      <trkpt lat="44.13165" lon="6.11823">
        <ele>750</ele>
        <time>2022-03-03T15:00:30.617Z</time>
      </trkpt>
      <trkpt lat="44.13165" lon="6.11823">
        <ele>750</ele>
        <time>2022-03-03T15:00:31.617Z</time>
      </trkpt>
      <trkpt lat="44.13165" lon="6.11823">
        <ele>750</ele>
        <time>2022-03-03T15:00:32.617Z</time>
      </trkpt>
      <trkpt lat="44.13165" lon="6.11823">
        <ele>750</ele>
        <time>2022-03-03T15:00:33.617Z</time>
      </trkpt>
      <trkpt lat="44.13165" lon="6.11823">
        <ele>750</ele>
        <time>2022-03-03T15:00:34.617Z</time>
      </trkpt>
      <trkpt lat="44.13165" lon="6.11823">
        <ele>750</ele>
        <time>2022-03-03T15:00:35.617Z</time>
      </trkpt>
      <trkpt lat="44.13165" lon="6.11823">
        <ele>750</ele>
        <time>2022-03-03T15:00:36.617Z</time>
      </trkpt>
      <trkpt lat="44.13164" lon="6.11823">
        <ele>750</ele>
        <time>2022-03-03T15:00:37.617Z</time>
      </trkpt>
      <trkpt lat="44.13164" lon="6.11822">
        <ele>750</ele>
        <time>2022-03-03T15:00:38.617Z</time>
      </trkpt>
      <trkpt lat="44.13163" lon="6.11822">
        <ele>750</ele>
        <time>2022-03-03T15:00:39.617Z</time>
      </trkpt>
      <trkpt lat="44.13163" lon="6.11822">
        <ele>750</ele>
        <time>2022-03-03T15:00:40.617Z</time>
      </trkpt>
      <trkpt lat="44.13162" lon="6.11822">
        <ele>750</ele>
        <time>2022-03-03T15:00:41.617Z</time>
      </trkpt>
      <trkpt lat="44.13162" lon="6.11822">
        <ele>750</ele>
        <time>2022-03-03T15:00:42.617Z</time>
      </trkpt>
      <trkpt lat="44.13161" lon="6.11822">
        <ele>749</ele>
        <time>2022-03-03T15:00:43.617Z</time>
      </trkpt>
      <trkpt lat="44.13161" lon="6.11822">
        <ele>749</ele>
        <time>2022-03-03T15:00:44.617Z</time>
      </trkpt>
      <trkpt lat="44.13161" lon="6.11822">
        <ele>749</ele>
        <time>2022-03-03T15:00:45.617Z</time>
      </trkpt>
      <trkpt lat="44.1316" lon="6.11821">
        <ele>749</ele>
        <time>2022-03-03T15:00:46.617Z</time>
      </trkpt>
      <trkpt lat="44.1316" lon="6.11821">
        <ele>749</ele>
        <time>2022-03-03T15:00:47.617Z</time>
      </trkpt>
      <trkpt lat="44.1316" lon="6.11821">
        <ele>749</ele>
        <time>2022-03-03T15:00:48.617Z</time>
      </trkpt>
      <trkpt lat="44.13159" lon="6.11821">
        <ele>749</ele>
        <time>2022-03-03T15:00:49.617Z</time>
      </trkpt>
      <trkpt lat="44.13159" lon="6.11821">
        <ele>749</ele>
        <time>2022-03-03T15:00:50.617Z</time>
      </trkpt>
      <trkpt lat="44.13159" lon="6.11821">
        <ele>749</ele>
        <time>2022-03-03T15:00:51.617Z</time>
      </trkpt>
      <trkpt lat="44.13159" lon="6.11821">
        <ele>749</ele>
        <time>2022-03-03T15:00:52.617Z</time>
      </trkpt>
      <trkpt lat="44.13158" lon="6.11821">
        <ele>749</ele>
        <time>2022-03-03T15:00:53.617Z</time>
      </trkpt>
      <trkpt lat="44.13157" lon="6.11821">
        <ele>749</ele>
        <time>2022-03-03T15:00:54.617Z</time>
      </trkpt>
      <trkpt lat="44.13157" lon="6.11821">
        <ele>749</ele>
        <time>2022-03-03T15:00:55.617Z</time>
      </trkpt>
      <trkpt lat="44.13157" lon="6.1182">
        <ele>749</ele>
        <time>2022-03-03T15:00:56.617Z</time>
      </trkpt>
      <trkpt lat="44.13156" lon="6.1182">
        <ele>749</ele>
        <time>2022-03-03T15:00:57.617Z</time>
      </trkpt>
      <trkpt lat="44.13156" lon="6.11819">
        <ele>749</ele>
        <time>2022-03-03T15:00:58.617Z</time>
      </trkpt>
      <trkpt lat="44.13155" lon="6.11819">
        <ele>749</ele>
        <time>2022-03-03T15:00:59.617Z</time>
      </trkpt>
      <trkpt lat="44.13154" lon="6.11818">
        <ele>748</ele>
        <time>2022-03-03T15:01:00.617Z</time>
      </trkpt>
      <trkpt lat="44.13153" lon="6.11817">
        <ele>748</ele>
        <time>2022-03-03T15:01:01.617Z</time>
      </trkpt>
      <trkpt lat="44.13152" lon="6.11817">
        <ele>748</ele>
        <time>2022-03-03T15:01:02.617Z</time>
      </trkpt>
      <trkpt lat="44.13152" lon="6.11816">
        <ele>748</ele>
        <time>2022-03-03T15:01:03.617Z</time>
      </trkpt>
      <trkpt lat="44.13151" lon="6.11816">
        <ele>748</ele>
        <time>2022-03-03T15:01:04.617Z</time>
      </trkpt>
      <trkpt lat="44.1315" lon="6.11815">
        <ele>748</ele>
        <time>2022-03-03T15:01:05.617Z</time>
      </trkpt>
      <trkpt lat="44.13149" lon="6.11814">
        <ele>748</ele>
        <time>2022-03-03T15:01:06.617Z</time>
      </trkpt>
      <trkpt lat="44.13148" lon="6.11813">
        <ele>748</ele>
        <time>2022-03-03T15:01:07.617Z</time>
      </trkpt>
      <trkpt lat="44.13147" lon="6.11812">
        <ele>748</ele>
        <time>2022-03-03T15:01:08.617Z</time>
      </trkpt>
      <trkpt lat="44.13146" lon="6.11811">
        <ele>748</ele>
        <time>2022-03-03T15:01:09.617Z</time>
      </trkpt>
      <trkpt lat="44.13145" lon="6.11811">
        <ele>748</ele>
        <time>2022-03-03T15:01:10.617Z</time>
      </trkpt>
      <trkpt lat="44.13144" lon="6.1181">
        <ele>748</ele>
        <time>2022-03-03T15:01:11.617Z</time>
      </trkpt>
      <trkpt lat="44.13143" lon="6.11809">
        <ele>748</ele>
        <time>2022-03-03T15:01:12.617Z</time>
      </trkpt>
      <trkpt lat="44.13142" lon="6.11809">
        <ele>748</ele>
        <time>2022-03-03T15:01:13.617Z</time>
      </trkpt>
      <trkpt lat="44.13141" lon="6.11808">
        <ele>748</ele>
        <time>2022-03-03T15:01:14.617Z</time>
      </trkpt>
      <trkpt lat="44.1314" lon="6.11808">
        <ele>748</ele>
        <time>2022-03-03T15:01:15.617Z</time>
      </trkpt>
      <trkpt lat="44.13139" lon="6.11807">
        <ele>748</ele>
        <time>2022-03-03T15:01:16.617Z</time>
      </trkpt>
      <trkpt lat="44.13138" lon="6.11805">
        <ele>748</ele>
        <time>2022-03-03T15:01:17.617Z</time>
      </trkpt>
      <trkpt lat="44.13137" lon="6.11804">
        <ele>748</ele>
        <time>2022-03-03T15:01:18.617Z</time>
      </trkpt>
      <trkpt lat="44.13136" lon="6.11803">
        <ele>748</ele>
        <time>2022-03-03T15:01:19.617Z</time>
      </trkpt>
      <trkpt lat="44.13136" lon="6.11801">
        <ele>748</ele>
        <time>2022-03-03T15:01:20.617Z</time>
      </trkpt>
      <trkpt lat="44.13135" lon="6.11799">
        <ele>748</ele>
        <time>2022-03-03T15:01:21.617Z</time>
      </trkpt>
      <trkpt lat="44.13135" lon="6.11798">
        <ele>748</ele>
        <time>2022-03-03T15:01:22.617Z</time>
      </trkpt>
      <trkpt lat="44.13135" lon="6.11796">
        <ele>748</ele>
        <time>2022-03-03T15:01:23.617Z</time>
      </trkpt>
      <trkpt lat="44.13134" lon="6.11795">
        <ele>748</ele>
        <time>2022-03-03T15:01:24.617Z</time>
      </trkpt>
      <trkpt lat="44.13134" lon="6.11794">
        <ele>748</ele>
        <time>2022-03-03T15:01:25.617Z</time>
      </trkpt>
      <trkpt lat="44.13134" lon="6.11793">
        <ele>748</ele>
        <time>2022-03-03T15:01:26.617Z</time>
      </trkpt>
      <trkpt lat="44.13134" lon="6.11793">
        <ele>748</ele>
        <time>2022-03-03T15:01:27.617Z</time>
      </trkpt>
      <trkpt lat="44.13134" lon="6.11792">
        <ele>748</ele>
        <time>2022-03-03T15:01:28.617Z</time>
      </trkpt>
      <trkpt lat="44.13135" lon="6.11792">
        <ele>748</ele>
        <time>2022-03-03T15:01:29.617Z</time>
      </trkpt>
      <trkpt lat="44.13134" lon="6.11791">
        <ele>747</ele>
        <time>2022-03-03T15:01:30.617Z</time>
      </trkpt>
      <trkpt lat="44.13134" lon="6.1179">
        <ele>747</ele>
        <time>2022-03-03T15:01:31.617Z</time>
      </trkpt>
      <trkpt lat="44.13134" lon="6.11789">
        <ele>747</ele>
        <time>2022-03-03T15:01:32.617Z</time>
      </trkpt>
      <trkpt lat="44.13134" lon="6.11789">
        <ele>747</ele>
        <time>2022-03-03T15:01:33.617Z</time>
      </trkpt>
      <trkpt lat="44.13134" lon="6.11788">
        <ele>747</ele>
        <time>2022-03-03T15:01:34.617Z</time>
      </trkpt>
      <trkpt lat="44.13134" lon="6.11788">
        <ele>747</ele>
        <time>2022-03-03T15:01:35.617Z</time>
      </trkpt>
      <trkpt lat="44.13134" lon="6.11787">
        <ele>747</ele>
        <time>2022-03-03T15:01:36.617Z</time>
      </trkpt>
      <trkpt lat="44.13133" lon="6.11786">
        <ele>747</ele>
        <time>2022-03-03T15:01:37.617Z</time>
      </trkpt>
      <trkpt lat="44.13133" lon="6.11785">
        <ele>748</ele>
        <time>2022-03-03T15:01:38.617Z</time>
      </trkpt>
      <trkpt lat="44.13132" lon="6.11784">
        <ele>748</ele>
        <time>2022-03-03T15:01:39.617Z</time>
      </trkpt>
      <trkpt lat="44.13132" lon="6.11783">
        <ele>748</ele>
        <time>2022-03-03T15:01:40.617Z</time>
      </trkpt>
      <trkpt lat="44.13131" lon="6.11782">
        <ele>748</ele>
        <time>2022-03-03T15:01:41.617Z</time>
      </trkpt>
      <trkpt lat="44.13131" lon="6.1178">
        <ele>749</ele>
        <time>2022-03-03T15:01:42.617Z</time>
      </trkpt>
      <trkpt lat="44.13131" lon="6.11778">
        <ele>749</ele>
        <time>2022-03-03T15:01:43.617Z</time>
      </trkpt>
      <trkpt lat="44.13131" lon="6.11777">
        <ele>749</ele>
        <time>2022-03-03T15:01:44.617Z</time>
      </trkpt>
      <trkpt lat="44.1313" lon="6.11775">
        <ele>749</ele>
        <time>2022-03-03T15:01:45.617Z</time>
      </trkpt>
      <trkpt lat="44.1313" lon="6.11774">
        <ele>749</ele>
        <time>2022-03-03T15:01:46.617Z</time>
      </trkpt>
      <trkpt lat="44.13129" lon="6.11773">
        <ele>749</ele>
        <time>2022-03-03T15:01:47.617Z</time>
      </trkpt>
      <trkpt lat="44.13128" lon="6.11772">
        <ele>749</ele>
        <time>2022-03-03T15:01:48.617Z</time>
      </trkpt>
      <trkpt lat="44.13128" lon="6.11771">
        <ele>749</ele>
        <time>2022-03-03T15:01:49.617Z</time>
      </trkpt>
      <trkpt lat="44.13127" lon="6.1177">
        <ele>749</ele>
        <time>2022-03-03T15:01:50.617Z</time>
      </trkpt>
      <trkpt lat="44.13126" lon="6.1177">
        <ele>749</ele>
        <time>2022-03-03T15:01:51.617Z</time>
      </trkpt>
      <trkpt lat="44.13125" lon="6.1177">
        <ele>749</ele>
        <time>2022-03-03T15:01:52.617Z</time>
      </trkpt>
      <trkpt lat="44.13124" lon="6.11771">
        <ele>749</ele>
        <time>2022-03-03T15:01:53.617Z</time>
      </trkpt>
      <trkpt lat="44.13122" lon="6.11772">
        <ele>749</ele>
        <time>2022-03-03T15:01:54.617Z</time>
      </trkpt>
      <trkpt lat="44.13121" lon="6.11773">
        <ele>749</ele>
        <time>2022-03-03T15:01:55.617Z</time>
      </trkpt>
      <trkpt lat="44.1312" lon="6.11773">
        <ele>749</ele>
        <time>2022-03-03T15:01:56.617Z</time>
      </trkpt>
      <trkpt lat="44.13119" lon="6.11773">
        <ele>748</ele>
        <time>2022-03-03T15:01:57.617Z</time>
      </trkpt>
      <trkpt lat="44.13118" lon="6.11774">
        <ele>748</ele>
        <time>2022-03-03T15:01:58.617Z</time>
      </trkpt>
      <trkpt lat="44.13117" lon="6.11774">
        <ele>748</ele>
        <time>2022-03-03T15:01:59.617Z</time>
      </trkpt>
      <trkpt lat="44.13116" lon="6.11774">
        <ele>748</ele>
        <time>2022-03-03T15:02:00.617Z</time>
      </trkpt>
      <trkpt lat="44.13115" lon="6.11774">
        <ele>748</ele>
        <time>2022-03-03T15:02:01.617Z</time>
      </trkpt>
      <trkpt lat="44.13114" lon="6.11775">
        <ele>747</ele>
        <time>2022-03-03T15:02:02.617Z</time>
      </trkpt>
      <trkpt lat="44.13113" lon="6.11775">
        <ele>747</ele>
        <time>2022-03-03T15:02:03.617Z</time>
      </trkpt>
      <trkpt lat="44.13111" lon="6.11775">
        <ele>747</ele>
        <time>2022-03-03T15:02:04.617Z</time>
      </trkpt>
      <trkpt lat="44.1311" lon="6.11775">
        <ele>747</ele>
        <time>2022-03-03T15:02:05.617Z</time>
      </trkpt>
      <trkpt lat="44.13109" lon="6.11775">
        <ele>747</ele>
        <time>2022-03-03T15:02:06.617Z</time>
      </trkpt>
      <trkpt lat="44.13108" lon="6.11775">
        <ele>747</ele>
        <time>2022-03-03T15:02:07.617Z</time>
      </trkpt>
      <trkpt lat="44.13107" lon="6.11775">
        <ele>746</ele>
        <time>2022-03-03T15:02:08.617Z</time>
      </trkpt>
      <trkpt lat="44.13106" lon="6.11775">
        <ele>746</ele>
        <time>2022-03-03T15:02:09.617Z</time>
      </trkpt>
      <trkpt lat="44.13105" lon="6.11775">
        <ele>746</ele>
        <time>2022-03-03T15:02:10.617Z</time>
      </trkpt>
      <trkpt lat="44.13103" lon="6.11774">
        <ele>746</ele>
        <time>2022-03-03T15:02:11.617Z</time>
      </trkpt>
      <trkpt lat="44.13102" lon="6.11773">
        <ele>746</ele>
        <time>2022-03-03T15:02:12.617Z</time>
      </trkpt>
      <trkpt lat="44.13102" lon="6.11773">
        <ele>745</ele>
        <time>2022-03-03T15:02:13.617Z</time>
      </trkpt>
      <trkpt lat="44.13101" lon="6.11772">
        <ele>745</ele>
        <time>2022-03-03T15:02:14.617Z</time>
      </trkpt>
      <trkpt lat="44.13101" lon="6.11771">
        <ele>745</ele>
        <time>2022-03-03T15:02:15.617Z</time>
      </trkpt>
      <trkpt lat="44.13101" lon="6.11771">
        <ele>745</ele>
        <time>2022-03-03T15:02:16.617Z</time>
      </trkpt>
      <trkpt lat="44.13101" lon="6.11771">
        <ele>745</ele>
        <time>2022-03-03T15:02:17.617Z</time>
      </trkpt>
      <trkpt lat="44.13102" lon="6.1177">
        <ele>745</ele>
        <time>2022-03-03T15:02:18.617Z</time>
      </trkpt>
      <trkpt lat="44.13102" lon="6.1177">
        <ele>745</ele>
        <time>2022-03-03T15:02:19.617Z</time>
      </trkpt>
      <trkpt lat="44.13102" lon="6.1177">
        <ele>745</ele>
        <time>2022-03-03T15:02:20.617Z</time>
      </trkpt>
      <trkpt lat="44.13102" lon="6.1177">
        <ele>744</ele>
        <time>2022-03-03T15:02:21.617Z</time>
      </trkpt>
      <trkpt lat="44.13102" lon="6.1177">
        <ele>744</ele>
        <time>2022-03-03T15:02:22.617Z</time>
      </trkpt>
      <trkpt lat="44.13102" lon="6.1177">
        <ele>744</ele>
        <time>2022-03-03T15:02:23.617Z</time>
      </trkpt>
      <trkpt lat="44.13102" lon="6.1177">
        <ele>744</ele>
        <time>2022-03-03T15:02:24.617Z</time>
      </trkpt>
      <trkpt lat="44.13102" lon="6.1177">
        <ele>744</ele>
        <time>2022-03-03T15:02:25.617Z</time>
      </trkpt>
    </trkseg>
  </trk>
</gpx>